<?xml version="1.0" encoding="UTF-8" standalone="no" ?>
<gpx xmlns="http://www.topografix.com/GPX/1/1" xmlns:xsi="http://www.w3.org/2001/XMLSchema-instance" xsi:schemaLocation="http://www.topografix.com/GPX/1/1 http://www.topografix.com/GPX/1/1/gpx.xsd" version="1.1" creator="VisuGPX - https://www.visugpx.com">
  <metadata>
    <name>UTHK</name>
  </metadata>
  <trk>
    <name><![CDATA[Ultra Trail Haut-Koenigsbourg ® 2019 - UTHK 109 km sur TraceDeTrail.fr]]></name>
    <trkseg>
      <trkpt lat="48.25378" lon="7.39973">
        <ele>195</ele>
        <time>2000-01-01T00:02:15.000Z</time>
      </trkpt>
      <trkpt lat="48.25378" lon="7.39973">
        <ele>196</ele>
        <time>2000-01-01T00:02:25.000Z</time>
      </trkpt>
      <trkpt lat="48.2537" lon="7.39946">
        <ele>195</ele>
        <time>2000-01-01T00:02:35.000Z</time>
      </trkpt>
      <trkpt lat="48.25364" lon="7.39916">
        <ele>196</ele>
        <time>2000-01-01T00:02:45.000Z</time>
      </trkpt>
      <trkpt lat="48.25362" lon="7.39905">
        <ele>196.5</ele>
        <time>2000-01-01T00:02:55.000Z</time>
      </trkpt>
      <trkpt lat="48.25361" lon="7.39876">
        <ele>196</ele>
        <time>2000-01-01T00:03:05.000Z</time>
      </trkpt>
      <trkpt lat="48.2537" lon="7.39847">
        <ele>197</ele>
        <time>2000-01-01T00:03:15.000Z</time>
      </trkpt>
      <trkpt lat="48.25378" lon="7.3982">
        <ele>198</ele>
        <time>2000-01-01T00:03:25.000Z</time>
      </trkpt>
      <trkpt lat="48.25384" lon="7.39805">
        <ele>198.4</ele>
        <time>2000-01-01T00:03:35.000Z</time>
      </trkpt>
      <trkpt lat="48.25394" lon="7.39779">
        <ele>198</ele>
        <time>2000-01-01T00:03:45.000Z</time>
      </trkpt>
      <trkpt lat="48.25402" lon="7.39755">
        <ele>199</ele>
        <time>2000-01-01T00:03:55.000Z</time>
      </trkpt>
      <trkpt lat="48.25405" lon="7.39742">
        <ele>199.9</ele>
        <time>2000-01-01T00:04:05.000Z</time>
      </trkpt>
      <trkpt lat="48.25413" lon="7.39719">
        <ele>200</ele>
        <time>2000-01-01T00:04:15.000Z</time>
      </trkpt>
      <trkpt lat="48.25423" lon="7.39691">
        <ele>200</ele>
        <time>2000-01-01T00:04:25.000Z</time>
      </trkpt>
      <trkpt lat="48.2543" lon="7.39665">
        <ele>201</ele>
        <time>2000-01-01T00:04:35.000Z</time>
      </trkpt>
      <trkpt lat="48.25435" lon="7.39655">
        <ele>202.1</ele>
        <time>2000-01-01T00:04:45.000Z</time>
      </trkpt>
      <trkpt lat="48.25447" lon="7.3962">
        <ele>202</ele>
        <time>2000-01-01T00:04:55.000Z</time>
      </trkpt>
      <trkpt lat="48.25458" lon="7.39597">
        <ele>204</ele>
        <time>2000-01-01T00:05:05.000Z</time>
      </trkpt>
      <trkpt lat="48.25461" lon="7.39587">
        <ele>203.6</ele>
        <time>2000-01-01T00:05:15.000Z</time>
      </trkpt>
      <trkpt lat="48.25468" lon="7.39562">
        <ele>205</ele>
        <time>2000-01-01T00:05:25.000Z</time>
      </trkpt>
      <trkpt lat="48.25481" lon="7.39535">
        <ele>206</ele>
        <time>2000-01-01T00:05:35.000Z</time>
      </trkpt>
      <trkpt lat="48.25492" lon="7.39528">
        <ele>207.3</ele>
        <time>2000-01-01T00:05:45.000Z</time>
      </trkpt>
      <trkpt lat="48.2551" lon="7.39518">
        <ele>207</ele>
        <time>2000-01-01T00:05:55.000Z</time>
      </trkpt>
      <trkpt lat="48.25517" lon="7.39512">
        <ele>208.2</ele>
        <time>2000-01-01T00:06:05.000Z</time>
      </trkpt>
      <trkpt lat="48.25532" lon="7.39493">
        <ele>209</ele>
        <time>2000-01-01T00:06:15.000Z</time>
      </trkpt>
      <trkpt lat="48.25537" lon="7.39484">
        <ele>210.2</ele>
        <time>2000-01-01T00:06:25.000Z</time>
      </trkpt>
      <trkpt lat="48.25551" lon="7.3946">
        <ele>210</ele>
        <time>2000-01-01T00:06:35.000Z</time>
      </trkpt>
      <trkpt lat="48.25563" lon="7.39433">
        <ele>211</ele>
        <time>2000-01-01T00:06:45.000Z</time>
      </trkpt>
      <trkpt lat="48.25574" lon="7.39411">
        <ele>212</ele>
        <time>2000-01-01T00:06:55.000Z</time>
      </trkpt>
      <trkpt lat="48.25579" lon="7.39401">
        <ele>213.6</ele>
        <time>2000-01-01T00:07:05.000Z</time>
      </trkpt>
      <trkpt lat="48.25586" lon="7.39384">
        <ele>213</ele>
        <time>2000-01-01T00:07:15.000Z</time>
      </trkpt>
      <trkpt lat="48.25603" lon="7.39353">
        <ele>215</ele>
        <time>2000-01-01T00:07:25.000Z</time>
      </trkpt>
      <trkpt lat="48.25615" lon="7.39324">
        <ele>216</ele>
        <time>2000-01-01T00:07:35.000Z</time>
      </trkpt>
      <trkpt lat="48.25624" lon="7.39303">
        <ele>218.3</ele>
        <time>2000-01-01T00:07:45.000Z</time>
      </trkpt>
      <trkpt lat="48.25633" lon="7.39275">
        <ele>218</ele>
        <time>2000-01-01T00:07:55.000Z</time>
      </trkpt>
      <trkpt lat="48.25641" lon="7.3925">
        <ele>219</ele>
        <time>2000-01-01T00:08:05.000Z</time>
      </trkpt>
      <trkpt lat="48.25644" lon="7.3924">
        <ele>220.9</ele>
        <time>2000-01-01T00:08:15.000Z</time>
      </trkpt>
      <trkpt lat="48.25648" lon="7.39222">
        <ele>220</ele>
        <time>2000-01-01T00:08:25.000Z</time>
      </trkpt>
      <trkpt lat="48.25647" lon="7.392">
        <ele>221.9</ele>
        <time>2000-01-01T00:08:35.000Z</time>
      </trkpt>
      <trkpt lat="48.25641" lon="7.39161">
        <ele>222</ele>
        <time>2000-01-01T00:08:45.000Z</time>
      </trkpt>
      <trkpt lat="48.25639" lon="7.39141">
        <ele>224.8</ele>
        <time>2000-01-01T00:08:55.000Z</time>
      </trkpt>
      <trkpt lat="48.25636" lon="7.39104">
        <ele>225</ele>
        <time>2000-01-01T00:09:05.000Z</time>
      </trkpt>
      <trkpt lat="48.25634" lon="7.39085">
        <ele>226</ele>
        <time>2000-01-01T00:09:15.000Z</time>
      </trkpt>
      <trkpt lat="48.25633" lon="7.39057">
        <ele>226</ele>
        <time>2000-01-01T00:09:25.000Z</time>
      </trkpt>
      <trkpt lat="48.25631" lon="7.39042">
        <ele>229.3</ele>
        <time>2000-01-01T00:09:35.000Z</time>
      </trkpt>
      <trkpt lat="48.25633" lon="7.39025">
        <ele>228</ele>
        <time>2000-01-01T00:09:45.000Z</time>
      </trkpt>
      <trkpt lat="48.25645" lon="7.38999">
        <ele>230</ele>
        <time>2000-01-01T00:09:55.000Z</time>
      </trkpt>
      <trkpt lat="48.25655" lon="7.3899">
        <ele>233.4</ele>
        <time>2000-01-01T00:10:05.000Z</time>
      </trkpt>
      <trkpt lat="48.25674" lon="7.38988">
        <ele>232</ele>
        <time>2000-01-01T00:10:15.000Z</time>
      </trkpt>
      <trkpt lat="48.25678" lon="7.38993">
        <ele>234.9</ele>
        <time>2000-01-01T00:10:25.000Z</time>
      </trkpt>
      <trkpt lat="48.25687" lon="7.38999">
        <ele>236</ele>
        <time>2000-01-01T00:10:35.000Z</time>
      </trkpt>
      <trkpt lat="48.25699" lon="7.39003">
        <ele>235</ele>
        <time>2000-01-01T00:10:45.000Z</time>
      </trkpt>
      <trkpt lat="48.25712" lon="7.39011">
        <ele>235.4</ele>
        <time>2000-01-01T00:10:55.000Z</time>
      </trkpt>
      <trkpt lat="48.25723" lon="7.39018">
        <ele>239</ele>
        <time>2000-01-01T00:11:05.000Z</time>
      </trkpt>
      <trkpt lat="48.25732" lon="7.39025">
        <ele>236.4</ele>
        <time>2000-01-01T00:11:15.000Z</time>
      </trkpt>
      <trkpt lat="48.25752" lon="7.39043">
        <ele>242</ele>
        <time>2000-01-01T00:11:25.000Z</time>
      </trkpt>
      <trkpt lat="48.25765" lon="7.39052">
        <ele>241.2</ele>
        <time>2000-01-01T00:11:35.000Z</time>
      </trkpt>
      <trkpt lat="48.25774" lon="7.39055">
        <ele>244</ele>
        <time>2000-01-01T00:11:45.000Z</time>
      </trkpt>
      <trkpt lat="48.25786" lon="7.39059">
        <ele>242.2</ele>
        <time>2000-01-01T00:11:55.000Z</time>
      </trkpt>
      <trkpt lat="48.25795" lon="7.39062">
        <ele>246</ele>
        <time>2000-01-01T00:12:05.000Z</time>
      </trkpt>
      <trkpt lat="48.25805" lon="7.39062">
        <ele>243.4</ele>
        <time>2000-01-01T00:12:15.000Z</time>
      </trkpt>
      <trkpt lat="48.25815" lon="7.39062">
        <ele>248</ele>
        <time>2000-01-01T00:12:25.000Z</time>
      </trkpt>
      <trkpt lat="48.25824" lon="7.39061">
        <ele>244.2</ele>
        <time>2000-01-01T00:12:35.000Z</time>
      </trkpt>
      <trkpt lat="48.25841" lon="7.39062">
        <ele>251</ele>
        <time>2000-01-01T00:12:45.000Z</time>
      </trkpt>
      <trkpt lat="48.2585" lon="7.39062">
        <ele>249.9</ele>
        <time>2000-01-01T00:12:55.000Z</time>
      </trkpt>
      <trkpt lat="48.2586" lon="7.39066">
        <ele>254</ele>
        <time>2000-01-01T00:13:05.000Z</time>
      </trkpt>
      <trkpt lat="48.25874" lon="7.39073">
        <ele>251.1</ele>
        <time>2000-01-01T00:13:15.000Z</time>
      </trkpt>
      <trkpt lat="48.25889" lon="7.39083">
        <ele>255</ele>
        <time>2000-01-01T00:13:25.000Z</time>
      </trkpt>
      <trkpt lat="48.25909" lon="7.39101">
        <ele>255</ele>
        <time>2000-01-01T00:13:35.000Z</time>
      </trkpt>
      <trkpt lat="48.25926" lon="7.39118">
        <ele>254</ele>
        <time>2000-01-01T00:13:45.000Z</time>
      </trkpt>
      <trkpt lat="48.25941" lon="7.39133">
        <ele>254</ele>
        <time>2000-01-01T00:13:55.000Z</time>
      </trkpt>
      <trkpt lat="48.25959" lon="7.39144">
        <ele>254</ele>
        <time>2000-01-01T00:14:05.000Z</time>
      </trkpt>
      <trkpt lat="48.25967" lon="7.39148">
        <ele>250.3</ele>
        <time>2000-01-01T00:14:15.000Z</time>
      </trkpt>
      <trkpt lat="48.25986" lon="7.39159">
        <ele>254</ele>
        <time>2000-01-01T00:14:25.000Z</time>
      </trkpt>
      <trkpt lat="48.26004" lon="7.39168">
        <ele>254</ele>
        <time>2000-01-01T00:14:35.000Z</time>
      </trkpt>
      <trkpt lat="48.26022" lon="7.39179">
        <ele>254</ele>
        <time>2000-01-01T00:14:45.000Z</time>
      </trkpt>
      <trkpt lat="48.26039" lon="7.39191">
        <ele>253</ele>
        <time>2000-01-01T00:14:55.000Z</time>
      </trkpt>
      <trkpt lat="48.26053" lon="7.392">
        <ele>248.7</ele>
        <time>2000-01-01T00:15:05.000Z</time>
      </trkpt>
      <trkpt lat="48.26072" lon="7.39212">
        <ele>253</ele>
        <time>2000-01-01T00:15:15.000Z</time>
      </trkpt>
      <trkpt lat="48.26089" lon="7.39223">
        <ele>253</ele>
        <time>2000-01-01T00:15:25.000Z</time>
      </trkpt>
      <trkpt lat="48.26107" lon="7.39234">
        <ele>253</ele>
        <time>2000-01-01T00:15:35.000Z</time>
      </trkpt>
      <trkpt lat="48.26124" lon="7.39245">
        <ele>253</ele>
        <time>2000-01-01T00:15:45.000Z</time>
      </trkpt>
      <trkpt lat="48.26142" lon="7.39257">
        <ele>253</ele>
        <time>2000-01-01T00:15:55.000Z</time>
      </trkpt>
      <trkpt lat="48.26156" lon="7.39268">
        <ele>248.1</ele>
        <time>2000-01-01T00:16:05.000Z</time>
      </trkpt>
      <trkpt lat="48.26174" lon="7.39282">
        <ele>253</ele>
        <time>2000-01-01T00:16:15.000Z</time>
      </trkpt>
      <trkpt lat="48.26193" lon="7.39293">
        <ele>253</ele>
        <time>2000-01-01T00:16:25.000Z</time>
      </trkpt>
      <trkpt lat="48.26211" lon="7.39299">
        <ele>254</ele>
        <time>2000-01-01T00:16:35.000Z</time>
      </trkpt>
      <trkpt lat="48.2623" lon="7.393">
        <ele>254</ele>
        <time>2000-01-01T00:16:45.000Z</time>
      </trkpt>
      <trkpt lat="48.26249" lon="7.39299">
        <ele>254</ele>
        <time>2000-01-01T00:16:55.000Z</time>
      </trkpt>
      <trkpt lat="48.26269" lon="7.39306">
        <ele>252</ele>
        <time>2000-01-01T00:17:05.000Z</time>
      </trkpt>
      <trkpt lat="48.26285" lon="7.39321">
        <ele>250</ele>
        <time>2000-01-01T00:17:15.000Z</time>
      </trkpt>
      <trkpt lat="48.26299" lon="7.39331">
        <ele>248.7</ele>
        <time>2000-01-01T00:17:25.000Z</time>
      </trkpt>
      <trkpt lat="48.2632" lon="7.3934">
        <ele>248</ele>
        <time>2000-01-01T00:17:35.000Z</time>
      </trkpt>
      <trkpt lat="48.26342" lon="7.39347">
        <ele>247</ele>
        <time>2000-01-01T00:17:45.000Z</time>
      </trkpt>
      <trkpt lat="48.2636" lon="7.39356">
        <ele>246</ele>
        <time>2000-01-01T00:17:55.000Z</time>
      </trkpt>
      <trkpt lat="48.26381" lon="7.39361">
        <ele>245</ele>
        <time>2000-01-01T00:18:05.000Z</time>
      </trkpt>
      <trkpt lat="48.26395" lon="7.39369">
        <ele>240.1</ele>
        <time>2000-01-01T00:18:15.000Z</time>
      </trkpt>
      <trkpt lat="48.26414" lon="7.3938">
        <ele>245</ele>
        <time>2000-01-01T00:18:25.000Z</time>
      </trkpt>
      <trkpt lat="48.26422" lon="7.39385">
        <ele>239.4</ele>
        <time>2000-01-01T00:18:35.000Z</time>
      </trkpt>
      <trkpt lat="48.26438" lon="7.39395">
        <ele>243</ele>
        <time>2000-01-01T00:18:45.000Z</time>
      </trkpt>
      <trkpt lat="48.26458" lon="7.39408">
        <ele>242</ele>
        <time>2000-01-01T00:18:55.000Z</time>
      </trkpt>
      <trkpt lat="48.26471" lon="7.39416">
        <ele>238.4</ele>
        <time>2000-01-01T00:19:05.000Z</time>
      </trkpt>
      <trkpt lat="48.26482" lon="7.39426">
        <ele>240</ele>
        <time>2000-01-01T00:19:15.000Z</time>
      </trkpt>
      <trkpt lat="48.26498" lon="7.39434">
        <ele>233.5</ele>
        <time>2000-01-01T00:19:25.000Z</time>
      </trkpt>
      <trkpt lat="48.2652" lon="7.39442">
        <ele>237</ele>
        <time>2000-01-01T00:19:35.000Z</time>
      </trkpt>
      <trkpt lat="48.26536" lon="7.39444">
        <ele>232.1</ele>
        <time>2000-01-01T00:19:45.000Z</time>
      </trkpt>
      <trkpt lat="48.26561" lon="7.39445">
        <ele>235</ele>
        <time>2000-01-01T00:19:55.000Z</time>
      </trkpt>
      <trkpt lat="48.26577" lon="7.39446">
        <ele>232.3</ele>
        <time>2000-01-01T00:20:05.000Z</time>
      </trkpt>
      <trkpt lat="48.26599" lon="7.39458">
        <ele>233</ele>
        <time>2000-01-01T00:20:15.000Z</time>
      </trkpt>
      <trkpt lat="48.26612" lon="7.39466">
        <ele>231.5</ele>
        <time>2000-01-01T00:20:25.000Z</time>
      </trkpt>
      <trkpt lat="48.26628" lon="7.39478">
        <ele>231</ele>
        <time>2000-01-01T00:20:35.000Z</time>
      </trkpt>
      <trkpt lat="48.26646" lon="7.39489">
        <ele>230</ele>
        <time>2000-01-01T00:20:45.000Z</time>
      </trkpt>
      <trkpt lat="48.26654" lon="7.39493">
        <ele>228.7</ele>
        <time>2000-01-01T00:20:55.000Z</time>
      </trkpt>
      <trkpt lat="48.26669" lon="7.39499">
        <ele>229</ele>
        <time>2000-01-01T00:21:05.000Z</time>
      </trkpt>
      <trkpt lat="48.26691" lon="7.3951">
        <ele>228</ele>
        <time>2000-01-01T00:21:15.000Z</time>
      </trkpt>
      <trkpt lat="48.26709" lon="7.3952">
        <ele>226</ele>
        <time>2000-01-01T00:21:25.000Z</time>
      </trkpt>
      <trkpt lat="48.26727" lon="7.39534">
        <ele>225</ele>
        <time>2000-01-01T00:21:35.000Z</time>
      </trkpt>
      <trkpt lat="48.26738" lon="7.39542">
        <ele>221.6</ele>
        <time>2000-01-01T00:21:45.000Z</time>
      </trkpt>
      <trkpt lat="48.26754" lon="7.39557">
        <ele>224</ele>
        <time>2000-01-01T00:21:55.000Z</time>
      </trkpt>
      <trkpt lat="48.26767" lon="7.39566">
        <ele>220.7</ele>
        <time>2000-01-01T00:22:05.000Z</time>
      </trkpt>
      <trkpt lat="48.26778" lon="7.3957">
        <ele>221</ele>
        <time>2000-01-01T00:22:15.000Z</time>
      </trkpt>
      <trkpt lat="48.26791" lon="7.39577">
        <ele>221.1</ele>
        <time>2000-01-01T00:22:25.000Z</time>
      </trkpt>
      <trkpt lat="48.26804" lon="7.39583">
        <ele>219</ele>
        <time>2000-01-01T00:22:35.000Z</time>
      </trkpt>
      <trkpt lat="48.26817" lon="7.3959">
        <ele>215.5</ele>
        <time>2000-01-01T00:22:45.000Z</time>
      </trkpt>
      <trkpt lat="48.26831" lon="7.39599">
        <ele>217</ele>
        <time>2000-01-01T00:22:55.000Z</time>
      </trkpt>
      <trkpt lat="48.26843" lon="7.39608">
        <ele>213.5</ele>
        <time>2000-01-01T00:23:05.000Z</time>
      </trkpt>
      <trkpt lat="48.26855" lon="7.39615">
        <ele>215</ele>
        <time>2000-01-01T00:23:15.000Z</time>
      </trkpt>
      <trkpt lat="48.26866" lon="7.39621">
        <ele>211.8</ele>
        <time>2000-01-01T00:23:25.000Z</time>
      </trkpt>
      <trkpt lat="48.26886" lon="7.39626">
        <ele>214</ele>
        <time>2000-01-01T00:23:35.000Z</time>
      </trkpt>
      <trkpt lat="48.26906" lon="7.39624">
        <ele>214</ele>
        <time>2000-01-01T00:23:45.000Z</time>
      </trkpt>
      <trkpt lat="48.26916" lon="7.39624">
        <ele>211.2</ele>
        <time>2000-01-01T00:23:55.000Z</time>
      </trkpt>
      <trkpt lat="48.26935" lon="7.39624">
        <ele>213</ele>
        <time>2000-01-01T00:24:05.000Z</time>
      </trkpt>
      <trkpt lat="48.26954" lon="7.39624">
        <ele>212</ele>
        <time>2000-01-01T00:24:15.000Z</time>
      </trkpt>
      <trkpt lat="48.26974" lon="7.39623">
        <ele>212</ele>
        <time>2000-01-01T00:24:25.000Z</time>
      </trkpt>
      <trkpt lat="48.26992" lon="7.39622">
        <ele>212</ele>
        <time>2000-01-01T00:24:35.000Z</time>
      </trkpt>
      <trkpt lat="48.2701" lon="7.39623">
        <ele>212</ele>
        <time>2000-01-01T00:24:45.000Z</time>
      </trkpt>
      <trkpt lat="48.27013" lon="7.39624">
        <ele>205.7</ele>
        <time>2000-01-01T00:24:55.000Z</time>
      </trkpt>
      <trkpt lat="48.27028" lon="7.3962">
        <ele>205.6</ele>
        <time>2000-01-01T00:25:05.000Z</time>
      </trkpt>
      <trkpt lat="48.27037" lon="7.396">
        <ele>214</ele>
        <time>2000-01-01T00:25:15.000Z</time>
      </trkpt>
      <trkpt lat="48.27042" lon="7.39591">
        <ele>206.2</ele>
        <time>2000-01-01T00:25:25.000Z</time>
      </trkpt>
      <trkpt lat="48.27054" lon="7.3958">
        <ele>214</ele>
        <time>2000-01-01T00:25:35.000Z</time>
      </trkpt>
      <trkpt lat="48.27065" lon="7.39567">
        <ele>211.8</ele>
        <time>2000-01-01T00:25:45.000Z</time>
      </trkpt>
      <trkpt lat="48.27079" lon="7.39543">
        <ele>217</ele>
        <time>2000-01-01T00:25:55.000Z</time>
      </trkpt>
      <trkpt lat="48.27088" lon="7.39518">
        <ele>219</ele>
        <time>2000-01-01T00:26:05.000Z</time>
      </trkpt>
      <trkpt lat="48.27096" lon="7.39506">
        <ele>215.8</ele>
        <time>2000-01-01T00:26:15.000Z</time>
      </trkpt>
      <trkpt lat="48.27104" lon="7.39497">
        <ele>221</ele>
        <time>2000-01-01T00:26:25.000Z</time>
      </trkpt>
      <trkpt lat="48.27114" lon="7.39489">
        <ele>224.8</ele>
        <time>2000-01-01T00:26:35.000Z</time>
      </trkpt>
      <trkpt lat="48.27121" lon="7.39486">
        <ele>224</ele>
        <time>2000-01-01T00:26:45.000Z</time>
      </trkpt>
      <trkpt lat="48.27131" lon="7.3948">
        <ele>226.1</ele>
        <time>2000-01-01T00:26:55.000Z</time>
      </trkpt>
      <trkpt lat="48.27139" lon="7.39479">
        <ele>226</ele>
        <time>2000-01-01T00:27:05.000Z</time>
      </trkpt>
      <trkpt lat="48.27147" lon="7.39475">
        <ele>226.5</ele>
        <time>2000-01-01T00:27:15.000Z</time>
      </trkpt>
      <trkpt lat="48.27155" lon="7.3947">
        <ele>227.1</ele>
        <time>2000-01-01T00:27:25.000Z</time>
      </trkpt>
      <trkpt lat="48.27164" lon="7.39469">
        <ele>231</ele>
        <time>2000-01-01T00:27:35.000Z</time>
      </trkpt>
      <trkpt lat="48.27173" lon="7.39467">
        <ele>229.8</ele>
        <time>2000-01-01T00:27:45.000Z</time>
      </trkpt>
      <trkpt lat="48.27181" lon="7.3946">
        <ele>232</ele>
        <time>2000-01-01T00:27:55.000Z</time>
      </trkpt>
      <trkpt lat="48.27195" lon="7.39458">
        <ele>231.7</ele>
        <time>2000-01-01T00:28:05.000Z</time>
      </trkpt>
      <trkpt lat="48.2721" lon="7.39455">
        <ele>235</ele>
        <time>2000-01-01T00:28:15.000Z</time>
      </trkpt>
      <trkpt lat="48.27234" lon="7.3945">
        <ele>236</ele>
        <time>2000-01-01T00:28:25.000Z</time>
      </trkpt>
      <trkpt lat="48.27247" lon="7.39448">
        <ele>234.2</ele>
        <time>2000-01-01T00:28:35.000Z</time>
      </trkpt>
      <trkpt lat="48.27259" lon="7.39442">
        <ele>237</ele>
        <time>2000-01-01T00:28:45.000Z</time>
      </trkpt>
      <trkpt lat="48.27269" lon="7.39437">
        <ele>235.2</ele>
        <time>2000-01-01T00:28:55.000Z</time>
      </trkpt>
      <trkpt lat="48.27282" lon="7.39429">
        <ele>238</ele>
        <time>2000-01-01T00:29:05.000Z</time>
      </trkpt>
      <trkpt lat="48.27294" lon="7.39423">
        <ele>235</ele>
        <time>2000-01-01T00:29:15.000Z</time>
      </trkpt>
      <trkpt lat="48.27313" lon="7.39416">
        <ele>240</ele>
        <time>2000-01-01T00:29:25.000Z</time>
      </trkpt>
      <trkpt lat="48.27332" lon="7.39404">
        <ele>241</ele>
        <time>2000-01-01T00:29:35.000Z</time>
      </trkpt>
      <trkpt lat="48.27351" lon="7.39396">
        <ele>241</ele>
        <time>2000-01-01T00:29:45.000Z</time>
      </trkpt>
      <trkpt lat="48.27365" lon="7.39396">
        <ele>247.3</ele>
        <time>2000-01-01T00:29:55.000Z</time>
      </trkpt>
      <trkpt lat="48.27368" lon="7.39393">
        <ele>247.7</ele>
        <time>2000-01-01T00:30:05.000Z</time>
      </trkpt>
      <trkpt lat="48.27368" lon="7.39386">
        <ele>243</ele>
        <time>2000-01-01T00:30:15.000Z</time>
      </trkpt>
      <trkpt lat="48.27359" lon="7.39384">
        <ele>248.9</ele>
        <time>2000-01-01T00:30:25.000Z</time>
      </trkpt>
      <trkpt lat="48.27354" lon="7.39385">
        <ele>248.7</ele>
        <time>2000-01-01T00:30:35.000Z</time>
      </trkpt>
      <trkpt lat="48.27336" lon="7.39389">
        <ele>245</ele>
        <time>2000-01-01T00:30:45.000Z</time>
      </trkpt>
      <trkpt lat="48.27321" lon="7.39396">
        <ele>249.3</ele>
        <time>2000-01-01T00:30:55.000Z</time>
      </trkpt>
      <trkpt lat="48.27307" lon="7.394">
        <ele>247</ele>
        <time>2000-01-01T00:31:05.000Z</time>
      </trkpt>
      <trkpt lat="48.27299" lon="7.39399">
        <ele>251</ele>
        <time>2000-01-01T00:31:15.000Z</time>
      </trkpt>
      <trkpt lat="48.27293" lon="7.39399">
        <ele>251.3</ele>
        <time>2000-01-01T00:31:25.000Z</time>
      </trkpt>
      <trkpt lat="48.27293" lon="7.39395">
        <ele>251.8</ele>
        <time>2000-01-01T00:31:35.000Z</time>
      </trkpt>
      <trkpt lat="48.27298" lon="7.3939">
        <ele>250</ele>
        <time>2000-01-01T00:31:45.000Z</time>
      </trkpt>
      <trkpt lat="48.27306" lon="7.39379">
        <ele>253.6</ele>
        <time>2000-01-01T00:31:55.000Z</time>
      </trkpt>
      <trkpt lat="48.27317" lon="7.39369">
        <ele>254</ele>
        <time>2000-01-01T00:32:05.000Z</time>
      </trkpt>
      <trkpt lat="48.27329" lon="7.39353">
        <ele>258</ele>
        <time>2000-01-01T00:32:15.000Z</time>
      </trkpt>
      <trkpt lat="48.27339" lon="7.39341">
        <ele>258</ele>
        <time>2000-01-01T00:32:25.000Z</time>
      </trkpt>
      <trkpt lat="48.27359" lon="7.39325">
        <ele>261</ele>
        <time>2000-01-01T00:32:35.000Z</time>
      </trkpt>
      <trkpt lat="48.27361" lon="7.39323">
        <ele>271.4</ele>
        <time>2000-01-01T00:32:45.000Z</time>
      </trkpt>
      <trkpt lat="48.27377" lon="7.39315">
        <ele>261</ele>
        <time>2000-01-01T00:32:55.000Z</time>
      </trkpt>
      <trkpt lat="48.27398" lon="7.39311">
        <ele>261</ele>
        <time>2000-01-01T00:33:05.000Z</time>
      </trkpt>
      <trkpt lat="48.27412" lon="7.39306">
        <ele>272.3</ele>
        <time>2000-01-01T00:33:15.000Z</time>
      </trkpt>
      <trkpt lat="48.27423" lon="7.39302">
        <ele>263</ele>
        <time>2000-01-01T00:33:25.000Z</time>
      </trkpt>
      <trkpt lat="48.27442" lon="7.39293">
        <ele>266</ele>
        <time>2000-01-01T00:33:35.000Z</time>
      </trkpt>
      <trkpt lat="48.27451" lon="7.39289">
        <ele>278.6</ele>
        <time>2000-01-01T00:33:45.000Z</time>
      </trkpt>
      <trkpt lat="48.27466" lon="7.3929">
        <ele>268</ele>
        <time>2000-01-01T00:33:55.000Z</time>
      </trkpt>
      <trkpt lat="48.27476" lon="7.39292">
        <ele>278.6</ele>
        <time>2000-01-01T00:34:05.000Z</time>
      </trkpt>
      <trkpt lat="48.27488" lon="7.39297">
        <ele>271</ele>
        <time>2000-01-01T00:34:15.000Z</time>
      </trkpt>
      <trkpt lat="48.27501" lon="7.39298">
        <ele>282.5</ele>
        <time>2000-01-01T00:34:25.000Z</time>
      </trkpt>
      <trkpt lat="48.27518" lon="7.39309">
        <ele>271</ele>
        <time>2000-01-01T00:34:35.000Z</time>
      </trkpt>
      <trkpt lat="48.27536" lon="7.39314">
        <ele>271</ele>
        <time>2000-01-01T00:34:45.000Z</time>
      </trkpt>
      <trkpt lat="48.2754" lon="7.39317">
        <ele>282.4</ele>
        <time>2000-01-01T00:34:55.000Z</time>
      </trkpt>
      <trkpt lat="48.27561" lon="7.39322">
        <ele>271</ele>
        <time>2000-01-01T00:35:05.000Z</time>
      </trkpt>
      <trkpt lat="48.27579" lon="7.39326">
        <ele>272</ele>
        <time>2000-01-01T00:35:15.000Z</time>
      </trkpt>
      <trkpt lat="48.276" lon="7.39327">
        <ele>271</ele>
        <time>2000-01-01T00:35:25.000Z</time>
      </trkpt>
      <trkpt lat="48.27619" lon="7.3933">
        <ele>271</ele>
        <time>2000-01-01T00:35:35.000Z</time>
      </trkpt>
      <trkpt lat="48.27637" lon="7.39339">
        <ele>271</ele>
        <time>2000-01-01T00:35:45.000Z</time>
      </trkpt>
      <trkpt lat="48.27655" lon="7.39345">
        <ele>272</ele>
        <time>2000-01-01T00:35:55.000Z</time>
      </trkpt>
      <trkpt lat="48.27663" lon="7.39345">
        <ele>274.8</ele>
        <time>2000-01-01T00:36:05.000Z</time>
      </trkpt>
      <trkpt lat="48.27679" lon="7.39348">
        <ele>277</ele>
        <time>2000-01-01T00:36:15.000Z</time>
      </trkpt>
      <trkpt lat="48.27696" lon="7.39343">
        <ele>263.9</ele>
        <time>2000-01-01T00:36:25.000Z</time>
      </trkpt>
      <trkpt lat="48.27709" lon="7.39332">
        <ele>277</ele>
        <time>2000-01-01T00:36:35.000Z</time>
      </trkpt>
      <trkpt lat="48.27713" lon="7.39296">
        <ele>277</ele>
        <time>2000-01-01T00:36:45.000Z</time>
      </trkpt>
      <trkpt lat="48.27712" lon="7.39287">
        <ele>274.8</ele>
        <time>2000-01-01T00:36:55.000Z</time>
      </trkpt>
      <trkpt lat="48.27716" lon="7.39266">
        <ele>278</ele>
        <time>2000-01-01T00:37:05.000Z</time>
      </trkpt>
      <trkpt lat="48.27716" lon="7.3924">
        <ele>278.8</ele>
        <time>2000-01-01T00:37:15.000Z</time>
      </trkpt>
      <trkpt lat="48.27717" lon="7.39216">
        <ele>281</ele>
        <time>2000-01-01T00:37:25.000Z</time>
      </trkpt>
      <trkpt lat="48.27718" lon="7.39192">
        <ele>279.4</ele>
        <time>2000-01-01T00:37:35.000Z</time>
      </trkpt>
      <trkpt lat="48.27709" lon="7.39169">
        <ele>283</ele>
        <time>2000-01-01T00:37:45.000Z</time>
      </trkpt>
      <trkpt lat="48.27698" lon="7.39149">
        <ele>285.5</ele>
        <time>2000-01-01T00:37:55.000Z</time>
      </trkpt>
      <trkpt lat="48.27692" lon="7.39136">
        <ele>285</ele>
        <time>2000-01-01T00:38:05.000Z</time>
      </trkpt>
      <trkpt lat="48.27687" lon="7.39122">
        <ele>286.6</ele>
        <time>2000-01-01T00:38:15.000Z</time>
      </trkpt>
      <trkpt lat="48.27684" lon="7.39107">
        <ele>291</ele>
        <time>2000-01-01T00:38:25.000Z</time>
      </trkpt>
      <trkpt lat="48.27682" lon="7.39095">
        <ele>290.6</ele>
        <time>2000-01-01T00:38:35.000Z</time>
      </trkpt>
      <trkpt lat="48.27676" lon="7.39074">
        <ele>294</ele>
        <time>2000-01-01T00:38:45.000Z</time>
      </trkpt>
      <trkpt lat="48.27673" lon="7.39057">
        <ele>285.4</ele>
        <time>2000-01-01T00:38:55.000Z</time>
      </trkpt>
      <trkpt lat="48.27668" lon="7.39043">
        <ele>295</ele>
        <time>2000-01-01T00:39:05.000Z</time>
      </trkpt>
      <trkpt lat="48.2766" lon="7.39019">
        <ele>298</ele>
        <time>2000-01-01T00:39:15.000Z</time>
      </trkpt>
      <trkpt lat="48.27649" lon="7.39003">
        <ele>304.8</ele>
        <time>2000-01-01T00:39:25.000Z</time>
      </trkpt>
      <trkpt lat="48.27642" lon="7.38993">
        <ele>299</ele>
        <time>2000-01-01T00:39:35.000Z</time>
      </trkpt>
      <trkpt lat="48.27635" lon="7.38979">
        <ele>302.6</ele>
        <time>2000-01-01T00:39:45.000Z</time>
      </trkpt>
      <trkpt lat="48.27623" lon="7.3896">
        <ele>299</ele>
        <time>2000-01-01T00:39:55.000Z</time>
      </trkpt>
      <trkpt lat="48.2762" lon="7.38956">
        <ele>304.5</ele>
        <time>2000-01-01T00:40:05.000Z</time>
      </trkpt>
      <trkpt lat="48.27611" lon="7.38939">
        <ele>300</ele>
        <time>2000-01-01T00:40:15.000Z</time>
      </trkpt>
      <trkpt lat="48.27605" lon="7.38924">
        <ele>307.3</ele>
        <time>2000-01-01T00:40:25.000Z</time>
      </trkpt>
      <trkpt lat="48.27596" lon="7.38909">
        <ele>305</ele>
        <time>2000-01-01T00:40:35.000Z</time>
      </trkpt>
      <trkpt lat="48.27586" lon="7.389">
        <ele>302.5</ele>
        <time>2000-01-01T00:40:45.000Z</time>
      </trkpt>
      <trkpt lat="48.27577" lon="7.38885">
        <ele>306</ele>
        <time>2000-01-01T00:40:55.000Z</time>
      </trkpt>
      <trkpt lat="48.27572" lon="7.38873">
        <ele>318.3</ele>
        <time>2000-01-01T00:41:05.000Z</time>
      </trkpt>
      <trkpt lat="48.27563" lon="7.38859">
        <ele>308</ele>
        <time>2000-01-01T00:41:15.000Z</time>
      </trkpt>
      <trkpt lat="48.27549" lon="7.38841">
        <ele>318.7</ele>
        <time>2000-01-01T00:41:25.000Z</time>
      </trkpt>
      <trkpt lat="48.27541" lon="7.38833">
        <ele>311</ele>
        <time>2000-01-01T00:41:35.000Z</time>
      </trkpt>
      <trkpt lat="48.27532" lon="7.38822">
        <ele>311.3</ele>
        <time>2000-01-01T00:41:45.000Z</time>
      </trkpt>
      <trkpt lat="48.27525" lon="7.38812">
        <ele>315</ele>
        <time>2000-01-01T00:41:55.000Z</time>
      </trkpt>
      <trkpt lat="48.27515" lon="7.38802">
        <ele>312</ele>
        <time>2000-01-01T00:42:05.000Z</time>
      </trkpt>
      <trkpt lat="48.27499" lon="7.38783">
        <ele>323</ele>
        <time>2000-01-01T00:42:15.000Z</time>
      </trkpt>
      <trkpt lat="48.27488" lon="7.38769">
        <ele>327.4</ele>
        <time>2000-01-01T00:42:25.000Z</time>
      </trkpt>
      <trkpt lat="48.2748" lon="7.38759">
        <ele>323</ele>
        <time>2000-01-01T00:42:35.000Z</time>
      </trkpt>
      <trkpt lat="48.2747" lon="7.38747">
        <ele>319.5</ele>
        <time>2000-01-01T00:42:45.000Z</time>
      </trkpt>
      <trkpt lat="48.27464" lon="7.38738">
        <ele>324</ele>
        <time>2000-01-01T00:42:55.000Z</time>
      </trkpt>
      <trkpt lat="48.27455" lon="7.38726">
        <ele>322.2</ele>
        <time>2000-01-01T00:43:05.000Z</time>
      </trkpt>
      <trkpt lat="48.27446" lon="7.38713">
        <ele>325</ele>
        <time>2000-01-01T00:43:15.000Z</time>
      </trkpt>
      <trkpt lat="48.27438" lon="7.38702">
        <ele>322.6</ele>
        <time>2000-01-01T00:43:25.000Z</time>
      </trkpt>
      <trkpt lat="48.27427" lon="7.38692">
        <ele>327</ele>
        <time>2000-01-01T00:43:35.000Z</time>
      </trkpt>
      <trkpt lat="48.2742" lon="7.38685">
        <ele>323.7</ele>
        <time>2000-01-01T00:43:45.000Z</time>
      </trkpt>
      <trkpt lat="48.27412" lon="7.38677">
        <ele>329</ele>
        <time>2000-01-01T00:43:55.000Z</time>
      </trkpt>
      <trkpt lat="48.27404" lon="7.38665">
        <ele>332</ele>
        <time>2000-01-01T00:44:05.000Z</time>
      </trkpt>
      <trkpt lat="48.2739" lon="7.38641">
        <ele>331</ele>
        <time>2000-01-01T00:44:15.000Z</time>
      </trkpt>
      <trkpt lat="48.27389" lon="7.3864">
        <ele>337.6</ele>
        <time>2000-01-01T00:44:25.000Z</time>
      </trkpt>
      <trkpt lat="48.27382" lon="7.38633">
        <ele>339</ele>
        <time>2000-01-01T00:44:35.000Z</time>
      </trkpt>
      <trkpt lat="48.27369" lon="7.38615">
        <ele>338</ele>
        <time>2000-01-01T00:44:45.000Z</time>
      </trkpt>
      <trkpt lat="48.27363" lon="7.38607">
        <ele>341.6</ele>
        <time>2000-01-01T00:44:55.000Z</time>
      </trkpt>
      <trkpt lat="48.27357" lon="7.38596">
        <ele>339</ele>
        <time>2000-01-01T00:45:05.000Z</time>
      </trkpt>
      <trkpt lat="48.2735" lon="7.38586">
        <ele>344.7</ele>
        <time>2000-01-01T00:45:15.000Z</time>
      </trkpt>
      <trkpt lat="48.27339" lon="7.38554">
        <ele>347</ele>
        <time>2000-01-01T00:45:25.000Z</time>
      </trkpt>
      <trkpt lat="48.2733" lon="7.38537">
        <ele>363.2</ele>
        <time>2000-01-01T00:45:35.000Z</time>
      </trkpt>
      <trkpt lat="48.27326" lon="7.3853">
        <ele>351</ele>
        <time>2000-01-01T00:45:45.000Z</time>
      </trkpt>
      <trkpt lat="48.27317" lon="7.38514">
        <ele>362.9</ele>
        <time>2000-01-01T00:45:55.000Z</time>
      </trkpt>
      <trkpt lat="48.27314" lon="7.38503">
        <ele>355</ele>
        <time>2000-01-01T00:46:05.000Z</time>
      </trkpt>
      <trkpt lat="48.27313" lon="7.38492">
        <ele>365</ele>
        <time>2000-01-01T00:46:15.000Z</time>
      </trkpt>
      <trkpt lat="48.27309" lon="7.38477">
        <ele>357</ele>
        <time>2000-01-01T00:46:25.000Z</time>
      </trkpt>
      <trkpt lat="48.27311" lon="7.38461">
        <ele>369.1</ele>
        <time>2000-01-01T00:46:35.000Z</time>
      </trkpt>
      <trkpt lat="48.27309" lon="7.3845">
        <ele>357</ele>
        <time>2000-01-01T00:46:45.000Z</time>
      </trkpt>
      <trkpt lat="48.27311" lon="7.38432">
        <ele>368.8</ele>
        <time>2000-01-01T00:46:55.000Z</time>
      </trkpt>
      <trkpt lat="48.27322" lon="7.38404">
        <ele>356</ele>
        <time>2000-01-01T00:47:05.000Z</time>
      </trkpt>
      <trkpt lat="48.27327" lon="7.38395">
        <ele>368.6</ele>
        <time>2000-01-01T00:47:15.000Z</time>
      </trkpt>
      <trkpt lat="48.27341" lon="7.38379">
        <ele>355</ele>
        <time>2000-01-01T00:47:25.000Z</time>
      </trkpt>
      <trkpt lat="48.27356" lon="7.38361">
        <ele>352</ele>
        <time>2000-01-01T00:47:35.000Z</time>
      </trkpt>
      <trkpt lat="48.27359" lon="7.38355">
        <ele>352.1</ele>
        <time>2000-01-01T00:47:45.000Z</time>
      </trkpt>
      <trkpt lat="48.27357" lon="7.38322">
        <ele>352</ele>
        <time>2000-01-01T00:47:55.000Z</time>
      </trkpt>
      <trkpt lat="48.27344" lon="7.38297">
        <ele>352</ele>
        <time>2000-01-01T00:48:05.000Z</time>
      </trkpt>
      <trkpt lat="48.2733" lon="7.38279">
        <ele>353</ele>
        <time>2000-01-01T00:48:15.000Z</time>
      </trkpt>
      <trkpt lat="48.27319" lon="7.38264">
        <ele>363.9</ele>
        <time>2000-01-01T00:48:25.000Z</time>
      </trkpt>
      <trkpt lat="48.27308" lon="7.38255">
        <ele>352</ele>
        <time>2000-01-01T00:48:35.000Z</time>
      </trkpt>
      <trkpt lat="48.27294" lon="7.38235">
        <ele>352</ele>
        <time>2000-01-01T00:48:45.000Z</time>
      </trkpt>
      <trkpt lat="48.27277" lon="7.38213">
        <ele>353</ele>
        <time>2000-01-01T00:48:55.000Z</time>
      </trkpt>
      <trkpt lat="48.27262" lon="7.382">
        <ele>353</ele>
        <time>2000-01-01T00:49:05.000Z</time>
      </trkpt>
      <trkpt lat="48.2725" lon="7.38193">
        <ele>357.3</ele>
        <time>2000-01-01T00:49:15.000Z</time>
      </trkpt>
      <trkpt lat="48.27233" lon="7.38182">
        <ele>355</ele>
        <time>2000-01-01T00:49:25.000Z</time>
      </trkpt>
      <trkpt lat="48.27222" lon="7.38173">
        <ele>369</ele>
        <time>2000-01-01T00:49:35.000Z</time>
      </trkpt>
      <trkpt lat="48.27199" lon="7.3816">
        <ele>354</ele>
        <time>2000-01-01T00:49:45.000Z</time>
      </trkpt>
      <trkpt lat="48.27182" lon="7.38147">
        <ele>354</ele>
        <time>2000-01-01T00:49:55.000Z</time>
      </trkpt>
      <trkpt lat="48.27173" lon="7.38141">
        <ele>359</ele>
        <time>2000-01-01T00:50:05.000Z</time>
      </trkpt>
      <trkpt lat="48.27153" lon="7.38138">
        <ele>353</ele>
        <time>2000-01-01T00:50:15.000Z</time>
      </trkpt>
      <trkpt lat="48.27141" lon="7.38137">
        <ele>364.6</ele>
        <time>2000-01-01T00:50:25.000Z</time>
      </trkpt>
      <trkpt lat="48.27122" lon="7.3813">
        <ele>353</ele>
        <time>2000-01-01T00:50:35.000Z</time>
      </trkpt>
      <trkpt lat="48.27103" lon="7.38129">
        <ele>352</ele>
        <time>2000-01-01T00:50:45.000Z</time>
      </trkpt>
      <trkpt lat="48.27088" lon="7.38133">
        <ele>366</ele>
        <time>2000-01-01T00:50:55.000Z</time>
      </trkpt>
      <trkpt lat="48.27077" lon="7.38136">
        <ele>352</ele>
        <time>2000-01-01T00:51:05.000Z</time>
      </trkpt>
      <trkpt lat="48.27059" lon="7.38134">
        <ele>352</ele>
        <time>2000-01-01T00:51:15.000Z</time>
      </trkpt>
      <trkpt lat="48.27034" lon="7.38125">
        <ele>353</ele>
        <time>2000-01-01T00:51:25.000Z</time>
      </trkpt>
      <trkpt lat="48.27017" lon="7.38113">
        <ele>355</ele>
        <time>2000-01-01T00:51:35.000Z</time>
      </trkpt>
      <trkpt lat="48.27002" lon="7.38092">
        <ele>357</ele>
        <time>2000-01-01T00:51:45.000Z</time>
      </trkpt>
      <trkpt lat="48.26985" lon="7.38074">
        <ele>361</ele>
        <time>2000-01-01T00:51:55.000Z</time>
      </trkpt>
      <trkpt lat="48.26968" lon="7.38061">
        <ele>366</ele>
        <time>2000-01-01T00:52:05.000Z</time>
      </trkpt>
      <trkpt lat="48.26958" lon="7.38051">
        <ele>370.5</ele>
        <time>2000-01-01T00:52:15.000Z</time>
      </trkpt>
      <trkpt lat="48.26954" lon="7.38048">
        <ele>370.8</ele>
        <time>2000-01-01T00:52:25.000Z</time>
      </trkpt>
      <trkpt lat="48.2695" lon="7.38047">
        <ele>366</ele>
        <time>2000-01-01T00:52:35.000Z</time>
      </trkpt>
      <trkpt lat="48.26948" lon="7.38055">
        <ele>372.2</ele>
        <time>2000-01-01T00:52:45.000Z</time>
      </trkpt>
      <trkpt lat="48.26956" lon="7.38066">
        <ele>371.9</ele>
        <time>2000-01-01T00:52:55.000Z</time>
      </trkpt>
      <trkpt lat="48.26967" lon="7.38075">
        <ele>367</ele>
        <time>2000-01-01T00:53:05.000Z</time>
      </trkpt>
      <trkpt lat="48.26973" lon="7.38088">
        <ele>380.7</ele>
        <time>2000-01-01T00:53:15.000Z</time>
      </trkpt>
      <trkpt lat="48.26978" lon="7.38098">
        <ele>365</ele>
        <time>2000-01-01T00:53:25.000Z</time>
      </trkpt>
      <trkpt lat="48.26989" lon="7.38114">
        <ele>382.8</ele>
        <time>2000-01-01T00:53:35.000Z</time>
      </trkpt>
      <trkpt lat="48.27009" lon="7.38129">
        <ele>363</ele>
        <time>2000-01-01T00:53:45.000Z</time>
      </trkpt>
      <trkpt lat="48.27023" lon="7.38145">
        <ele>377.9</ele>
        <time>2000-01-01T00:53:55.000Z</time>
      </trkpt>
      <trkpt lat="48.27034" lon="7.38156">
        <ele>363</ele>
        <time>2000-01-01T00:54:05.000Z</time>
      </trkpt>
      <trkpt lat="48.27047" lon="7.38164">
        <ele>377</ele>
        <time>2000-01-01T00:54:15.000Z</time>
      </trkpt>
      <trkpt lat="48.27051" lon="7.38166">
        <ele>364</ele>
        <time>2000-01-01T00:54:25.000Z</time>
      </trkpt>
      <trkpt lat="48.27068" lon="7.38164">
        <ele>377</ele>
        <time>2000-01-01T00:54:35.000Z</time>
      </trkpt>
      <trkpt lat="48.27086" lon="7.38163">
        <ele>364</ele>
        <time>2000-01-01T00:54:45.000Z</time>
      </trkpt>
      <trkpt lat="48.27105" lon="7.38172">
        <ele>372</ele>
        <time>2000-01-01T00:54:55.000Z</time>
      </trkpt>
      <trkpt lat="48.27122" lon="7.38181">
        <ele>385.8</ele>
        <time>2000-01-01T00:55:05.000Z</time>
      </trkpt>
      <trkpt lat="48.2714" lon="7.38185">
        <ele>375</ele>
        <time>2000-01-01T00:55:15.000Z</time>
      </trkpt>
      <trkpt lat="48.27159" lon="7.38193">
        <ele>377</ele>
        <time>2000-01-01T00:55:25.000Z</time>
      </trkpt>
      <trkpt lat="48.27178" lon="7.382">
        <ele>380</ele>
        <time>2000-01-01T00:55:35.000Z</time>
      </trkpt>
      <trkpt lat="48.27184" lon="7.38206">
        <ele>378.1</ele>
        <time>2000-01-01T00:55:45.000Z</time>
      </trkpt>
      <trkpt lat="48.27201" lon="7.38221">
        <ele>380</ele>
        <time>2000-01-01T00:55:55.000Z</time>
      </trkpt>
      <trkpt lat="48.27217" lon="7.38238">
        <ele>380</ele>
        <time>2000-01-01T00:56:05.000Z</time>
      </trkpt>
      <trkpt lat="48.27231" lon="7.38256">
        <ele>381</ele>
        <time>2000-01-01T00:56:15.000Z</time>
      </trkpt>
      <trkpt lat="48.27249" lon="7.38275">
        <ele>381</ele>
        <time>2000-01-01T00:56:25.000Z</time>
      </trkpt>
      <trkpt lat="48.27262" lon="7.38295">
        <ele>382</ele>
        <time>2000-01-01T00:56:35.000Z</time>
      </trkpt>
      <trkpt lat="48.2727" lon="7.38322">
        <ele>383</ele>
        <time>2000-01-01T00:56:45.000Z</time>
      </trkpt>
      <trkpt lat="48.27273" lon="7.38331">
        <ele>378.3</ele>
        <time>2000-01-01T00:56:55.000Z</time>
      </trkpt>
      <trkpt lat="48.27266" lon="7.38355">
        <ele>384</ele>
        <time>2000-01-01T00:57:05.000Z</time>
      </trkpt>
      <trkpt lat="48.27251" lon="7.38377">
        <ele>384</ele>
        <time>2000-01-01T00:57:15.000Z</time>
      </trkpt>
      <trkpt lat="48.27239" lon="7.38401">
        <ele>383</ele>
        <time>2000-01-01T00:57:25.000Z</time>
      </trkpt>
      <trkpt lat="48.27234" lon="7.38427">
        <ele>384</ele>
        <time>2000-01-01T00:57:35.000Z</time>
      </trkpt>
      <trkpt lat="48.27232" lon="7.38448">
        <ele>400.6</ele>
        <time>2000-01-01T00:57:45.000Z</time>
      </trkpt>
      <trkpt lat="48.27235" lon="7.38479">
        <ele>385</ele>
        <time>2000-01-01T00:57:55.000Z</time>
      </trkpt>
      <trkpt lat="48.27238" lon="7.38508">
        <ele>386</ele>
        <time>2000-01-01T00:58:05.000Z</time>
      </trkpt>
      <trkpt lat="48.27242" lon="7.38535">
        <ele>387</ele>
        <time>2000-01-01T00:58:15.000Z</time>
      </trkpt>
      <trkpt lat="48.27245" lon="7.38563">
        <ele>391</ele>
        <time>2000-01-01T00:58:25.000Z</time>
      </trkpt>
      <trkpt lat="48.27248" lon="7.38582">
        <ele>390.7</ele>
        <time>2000-01-01T00:58:35.000Z</time>
      </trkpt>
      <trkpt lat="48.2725" lon="7.3859">
        <ele>391</ele>
        <time>2000-01-01T00:58:45.000Z</time>
      </trkpt>
      <trkpt lat="48.2725" lon="7.38592">
        <ele>385.3</ele>
        <time>2000-01-01T00:58:55.000Z</time>
      </trkpt>
      <trkpt lat="48.27242" lon="7.38593">
        <ele>398.8</ele>
        <time>2000-01-01T00:59:05.000Z</time>
      </trkpt>
      <trkpt lat="48.27237" lon="7.38589">
        <ele>400</ele>
        <time>2000-01-01T00:59:15.000Z</time>
      </trkpt>
      <trkpt lat="48.27228" lon="7.38573">
        <ele>403</ele>
        <time>2000-01-01T00:59:25.000Z</time>
      </trkpt>
      <trkpt lat="48.27219" lon="7.38564">
        <ele>404.4</ele>
        <time>2000-01-01T00:59:35.000Z</time>
      </trkpt>
      <trkpt lat="48.27213" lon="7.38556">
        <ele>404</ele>
        <time>2000-01-01T00:59:45.000Z</time>
      </trkpt>
      <trkpt lat="48.27206" lon="7.38538">
        <ele>407.4</ele>
        <time>2000-01-01T00:59:55.000Z</time>
      </trkpt>
      <trkpt lat="48.27205" lon="7.38535">
        <ele>407.6</ele>
        <time>2000-01-01T01:00:05.000Z</time>
      </trkpt>
      <trkpt lat="48.27194" lon="7.38515">
        <ele>410</ele>
        <time>2000-01-01T01:00:15.000Z</time>
      </trkpt>
      <trkpt lat="48.27187" lon="7.38501">
        <ele>413</ele>
        <time>2000-01-01T01:00:25.000Z</time>
      </trkpt>
      <trkpt lat="48.2718" lon="7.38485">
        <ele>414</ele>
        <time>2000-01-01T01:00:35.000Z</time>
      </trkpt>
      <trkpt lat="48.27173" lon="7.38472">
        <ele>411.6</ele>
        <time>2000-01-01T01:00:45.000Z</time>
      </trkpt>
      <trkpt lat="48.27169" lon="7.38459">
        <ele>419</ele>
        <time>2000-01-01T01:00:55.000Z</time>
      </trkpt>
      <trkpt lat="48.27167" lon="7.38443">
        <ele>411.8</ele>
        <time>2000-01-01T01:01:05.000Z</time>
      </trkpt>
      <trkpt lat="48.27165" lon="7.3843">
        <ele>419</ele>
        <time>2000-01-01T01:01:15.000Z</time>
      </trkpt>
      <trkpt lat="48.27168" lon="7.38412">
        <ele>417.2</ele>
        <time>2000-01-01T01:01:25.000Z</time>
      </trkpt>
      <trkpt lat="48.27177" lon="7.38388">
        <ele>416</ele>
        <time>2000-01-01T01:01:35.000Z</time>
      </trkpt>
      <trkpt lat="48.27181" lon="7.38378">
        <ele>408.2</ele>
        <time>2000-01-01T01:01:45.000Z</time>
      </trkpt>
      <trkpt lat="48.27182" lon="7.38374">
        <ele>408</ele>
        <time>2000-01-01T01:01:55.000Z</time>
      </trkpt>
      <trkpt lat="48.27186" lon="7.38364">
        <ele>416</ele>
        <time>2000-01-01T01:02:05.000Z</time>
      </trkpt>
      <trkpt lat="48.2719" lon="7.38354">
        <ele>407.3</ele>
        <time>2000-01-01T01:02:15.000Z</time>
      </trkpt>
      <trkpt lat="48.27185" lon="7.38357">
        <ele>407.9</ele>
        <time>2000-01-01T01:02:25.000Z</time>
      </trkpt>
      <trkpt lat="48.27184" lon="7.38362">
        <ele>407.8</ele>
        <time>2000-01-01T01:02:35.000Z</time>
      </trkpt>
      <trkpt lat="48.27176" lon="7.38378">
        <ele>417</ele>
        <time>2000-01-01T01:02:45.000Z</time>
      </trkpt>
      <trkpt lat="48.27172" lon="7.38383">
        <ele>409.5</ele>
        <time>2000-01-01T01:02:55.000Z</time>
      </trkpt>
      <trkpt lat="48.27165" lon="7.38389">
        <ele>425.2</ele>
        <time>2000-01-01T01:03:05.000Z</time>
      </trkpt>
      <trkpt lat="48.27161" lon="7.38395">
        <ele>421</ele>
        <time>2000-01-01T01:03:15.000Z</time>
      </trkpt>
      <trkpt lat="48.27159" lon="7.38402">
        <ele>424.6</ele>
        <time>2000-01-01T01:03:25.000Z</time>
      </trkpt>
      <trkpt lat="48.27158" lon="7.38416">
        <ele>423.1</ele>
        <time>2000-01-01T01:03:35.000Z</time>
      </trkpt>
      <trkpt lat="48.27157" lon="7.38421">
        <ele>423</ele>
        <time>2000-01-01T01:03:45.000Z</time>
      </trkpt>
      <trkpt lat="48.27155" lon="7.38427">
        <ele>428.1</ele>
        <time>2000-01-01T01:03:55.000Z</time>
      </trkpt>
      <trkpt lat="48.27155" lon="7.38438">
        <ele>430.4</ele>
        <time>2000-01-01T01:04:05.000Z</time>
      </trkpt>
      <trkpt lat="48.27155" lon="7.38448">
        <ele>423</ele>
        <time>2000-01-01T01:04:15.000Z</time>
      </trkpt>
      <trkpt lat="48.27154" lon="7.38462">
        <ele>432.7</ele>
        <time>2000-01-01T01:04:25.000Z</time>
      </trkpt>
      <trkpt lat="48.27153" lon="7.3848">
        <ele>424</ele>
        <time>2000-01-01T01:04:35.000Z</time>
      </trkpt>
      <trkpt lat="48.27152" lon="7.38488">
        <ele>430.7</ele>
        <time>2000-01-01T01:04:45.000Z</time>
      </trkpt>
      <trkpt lat="48.27151" lon="7.38506">
        <ele>433.2</ele>
        <time>2000-01-01T01:04:55.000Z</time>
      </trkpt>
      <trkpt lat="48.27153" lon="7.38517">
        <ele>429</ele>
        <time>2000-01-01T01:05:05.000Z</time>
      </trkpt>
      <trkpt lat="48.27154" lon="7.3853">
        <ele>437.4</ele>
        <time>2000-01-01T01:05:15.000Z</time>
      </trkpt>
      <trkpt lat="48.27153" lon="7.38534">
        <ele>438.2</ele>
        <time>2000-01-01T01:05:25.000Z</time>
      </trkpt>
      <trkpt lat="48.27144" lon="7.38531">
        <ele>436</ele>
        <time>2000-01-01T01:05:35.000Z</time>
      </trkpt>
      <trkpt lat="48.27142" lon="7.3853">
        <ele>439.9</ele>
        <time>2000-01-01T01:05:45.000Z</time>
      </trkpt>
      <trkpt lat="48.27129" lon="7.38523">
        <ele>442.7</ele>
        <time>2000-01-01T01:05:55.000Z</time>
      </trkpt>
      <trkpt lat="48.27119" lon="7.3851">
        <ele>440</ele>
        <time>2000-01-01T01:06:05.000Z</time>
      </trkpt>
      <trkpt lat="48.27116" lon="7.38501">
        <ele>446.2</ele>
        <time>2000-01-01T01:06:15.000Z</time>
      </trkpt>
      <trkpt lat="48.27114" lon="7.38477">
        <ele>445</ele>
        <time>2000-01-01T01:06:25.000Z</time>
      </trkpt>
      <trkpt lat="48.27112" lon="7.38465">
        <ele>440.7</ele>
        <time>2000-01-01T01:06:35.000Z</time>
      </trkpt>
      <trkpt lat="48.27105" lon="7.38452">
        <ele>447</ele>
        <time>2000-01-01T01:06:45.000Z</time>
      </trkpt>
      <trkpt lat="48.27104" lon="7.38443">
        <ele>441.3</ele>
        <time>2000-01-01T01:06:55.000Z</time>
      </trkpt>
      <trkpt lat="48.27104" lon="7.3842">
        <ele>449</ele>
        <time>2000-01-01T01:07:05.000Z</time>
      </trkpt>
      <trkpt lat="48.27106" lon="7.38417">
        <ele>441.5</ele>
        <time>2000-01-01T01:07:15.000Z</time>
      </trkpt>
      <trkpt lat="48.27106" lon="7.38414">
        <ele>436.9</ele>
        <time>2000-01-01T01:07:25.000Z</time>
      </trkpt>
      <trkpt lat="48.27102" lon="7.38407">
        <ele>437.5</ele>
        <time>2000-01-01T01:07:35.000Z</time>
      </trkpt>
      <trkpt lat="48.27092" lon="7.38402">
        <ele>449</ele>
        <time>2000-01-01T01:07:45.000Z</time>
      </trkpt>
      <trkpt lat="48.27085" lon="7.384">
        <ele>439.6</ele>
        <time>2000-01-01T01:07:55.000Z</time>
      </trkpt>
      <trkpt lat="48.27079" lon="7.38402">
        <ele>449</ele>
        <time>2000-01-01T01:08:05.000Z</time>
      </trkpt>
      <trkpt lat="48.27075" lon="7.38403">
        <ele>451</ele>
        <time>2000-01-01T01:08:15.000Z</time>
      </trkpt>
      <trkpt lat="48.27073" lon="7.38402">
        <ele>449.2</ele>
        <time>2000-01-01T01:08:25.000Z</time>
      </trkpt>
      <trkpt lat="48.27064" lon="7.38398">
        <ele>449.6</ele>
        <time>2000-01-01T01:08:35.000Z</time>
      </trkpt>
      <trkpt lat="48.27059" lon="7.38394">
        <ele>449.7</ele>
        <time>2000-01-01T01:08:45.000Z</time>
      </trkpt>
      <trkpt lat="48.27054" lon="7.38393">
        <ele>453</ele>
        <time>2000-01-01T01:08:55.000Z</time>
      </trkpt>
      <trkpt lat="48.27054" lon="7.38398">
        <ele>450.5</ele>
        <time>2000-01-01T01:09:05.000Z</time>
      </trkpt>
      <trkpt lat="48.27054" lon="7.38399">
        <ele>450.5</ele>
        <time>2000-01-01T01:09:15.000Z</time>
      </trkpt>
      <trkpt lat="48.27055" lon="7.38404">
        <ele>450.7</ele>
        <time>2000-01-01T01:09:25.000Z</time>
      </trkpt>
      <trkpt lat="48.27057" lon="7.3841">
        <ele>450.8</ele>
        <time>2000-01-01T01:09:35.000Z</time>
      </trkpt>
      <trkpt lat="48.27061" lon="7.38418">
        <ele>460</ele>
        <time>2000-01-01T01:09:45.000Z</time>
      </trkpt>
      <trkpt lat="48.27069" lon="7.38434">
        <ele>459.7</ele>
        <time>2000-01-01T01:09:55.000Z</time>
      </trkpt>
      <trkpt lat="48.27071" lon="7.38441">
        <ele>464</ele>
        <time>2000-01-01T01:10:05.000Z</time>
      </trkpt>
      <trkpt lat="48.27074" lon="7.38447">
        <ele>461.6</ele>
        <time>2000-01-01T01:10:15.000Z</time>
      </trkpt>
      <trkpt lat="48.27074" lon="7.38457">
        <ele>463.1</ele>
        <time>2000-01-01T01:10:25.000Z</time>
      </trkpt>
      <trkpt lat="48.27074" lon="7.38466">
        <ele>463.8</ele>
        <time>2000-01-01T01:10:35.000Z</time>
      </trkpt>
      <trkpt lat="48.27073" lon="7.38475">
        <ele>468</ele>
        <time>2000-01-01T01:10:45.000Z</time>
      </trkpt>
      <trkpt lat="48.27072" lon="7.38484">
        <ele>464</ele>
        <time>2000-01-01T01:10:55.000Z</time>
      </trkpt>
      <trkpt lat="48.27074" lon="7.385">
        <ele>462.7</ele>
        <time>2000-01-01T01:11:05.000Z</time>
      </trkpt>
      <trkpt lat="48.27073" lon="7.38504">
        <ele>474</ele>
        <time>2000-01-01T01:11:15.000Z</time>
      </trkpt>
      <trkpt lat="48.27076" lon="7.38522">
        <ele>470.8</ele>
        <time>2000-01-01T01:11:25.000Z</time>
      </trkpt>
      <trkpt lat="48.27077" lon="7.38525">
        <ele>471.3</ele>
        <time>2000-01-01T01:11:35.000Z</time>
      </trkpt>
      <trkpt lat="48.27077" lon="7.3853">
        <ele>477</ele>
        <time>2000-01-01T01:11:45.000Z</time>
      </trkpt>
      <trkpt lat="48.27072" lon="7.38539">
        <ele>473.7</ele>
        <time>2000-01-01T01:11:55.000Z</time>
      </trkpt>
      <trkpt lat="48.27072" lon="7.38541">
        <ele>473.9</ele>
        <time>2000-01-01T01:12:05.000Z</time>
      </trkpt>
      <trkpt lat="48.27068" lon="7.38558">
        <ele>483</ele>
        <time>2000-01-01T01:12:15.000Z</time>
      </trkpt>
      <trkpt lat="48.27069" lon="7.38571">
        <ele>473.3</ele>
        <time>2000-01-01T01:12:25.000Z</time>
      </trkpt>
      <trkpt lat="48.27068" lon="7.38573">
        <ele>473.3</ele>
        <time>2000-01-01T01:12:35.000Z</time>
      </trkpt>
      <trkpt lat="48.27071" lon="7.38576">
        <ele>472.3</ele>
        <time>2000-01-01T01:12:45.000Z</time>
      </trkpt>
      <trkpt lat="48.27071" lon="7.3858">
        <ele>471.9</ele>
        <time>2000-01-01T01:12:55.000Z</time>
      </trkpt>
      <trkpt lat="48.27072" lon="7.38581">
        <ele>471.5</ele>
        <time>2000-01-01T01:13:05.000Z</time>
      </trkpt>
      <trkpt lat="48.27068" lon="7.38581">
        <ele>483</ele>
        <time>2000-01-01T01:13:15.000Z</time>
      </trkpt>
      <trkpt lat="48.27062" lon="7.38575">
        <ele>474.7</ele>
        <time>2000-01-01T01:13:25.000Z</time>
      </trkpt>
      <trkpt lat="48.27057" lon="7.38564">
        <ele>476.2</ele>
        <time>2000-01-01T01:13:35.000Z</time>
      </trkpt>
      <trkpt lat="48.27052" lon="7.38548">
        <ele>488</ele>
        <time>2000-01-01T01:13:45.000Z</time>
      </trkpt>
      <trkpt lat="48.2705" lon="7.3854">
        <ele>477.2</ele>
        <time>2000-01-01T01:13:55.000Z</time>
      </trkpt>
      <trkpt lat="48.2704" lon="7.38516">
        <ele>492</ele>
        <time>2000-01-01T01:14:05.000Z</time>
      </trkpt>
      <trkpt lat="48.27036" lon="7.38512">
        <ele>479.2</ele>
        <time>2000-01-01T01:14:15.000Z</time>
      </trkpt>
      <trkpt lat="48.27035" lon="7.38514">
        <ele>479.4</ele>
        <time>2000-01-01T01:14:25.000Z</time>
      </trkpt>
      <trkpt lat="48.27034" lon="7.38517">
        <ele>479.7</ele>
        <time>2000-01-01T01:14:35.000Z</time>
      </trkpt>
      <trkpt lat="48.27033" lon="7.38521">
        <ele>479.9</ele>
        <time>2000-01-01T01:14:45.000Z</time>
      </trkpt>
      <trkpt lat="48.2703" lon="7.3853">
        <ele>496</ele>
        <time>2000-01-01T01:14:55.000Z</time>
      </trkpt>
      <trkpt lat="48.27029" lon="7.38542">
        <ele>481</ele>
        <time>2000-01-01T01:15:05.000Z</time>
      </trkpt>
      <trkpt lat="48.27029" lon="7.38555">
        <ele>481.8</ele>
        <time>2000-01-01T01:15:15.000Z</time>
      </trkpt>
      <trkpt lat="48.2703" lon="7.38556">
        <ele>481.7</ele>
        <time>2000-01-01T01:15:25.000Z</time>
      </trkpt>
      <trkpt lat="48.27022" lon="7.38547">
        <ele>499</ele>
        <time>2000-01-01T01:15:35.000Z</time>
      </trkpt>
      <trkpt lat="48.27018" lon="7.38538">
        <ele>482.6</ele>
        <time>2000-01-01T01:15:45.000Z</time>
      </trkpt>
      <trkpt lat="48.27013" lon="7.38525">
        <ele>483.5</ele>
        <time>2000-01-01T01:15:55.000Z</time>
      </trkpt>
      <trkpt lat="48.27003" lon="7.38514">
        <ele>500</ele>
        <time>2000-01-01T01:16:05.000Z</time>
      </trkpt>
      <trkpt lat="48.26994" lon="7.3851">
        <ele>494.1</ele>
        <time>2000-01-01T01:16:15.000Z</time>
      </trkpt>
      <trkpt lat="48.26984" lon="7.38508">
        <ele>501</ele>
        <time>2000-01-01T01:16:25.000Z</time>
      </trkpt>
      <trkpt lat="48.26976" lon="7.38507">
        <ele>496.5</ele>
        <time>2000-01-01T01:16:35.000Z</time>
      </trkpt>
      <trkpt lat="48.26962" lon="7.38508">
        <ele>503</ele>
        <time>2000-01-01T01:16:45.000Z</time>
      </trkpt>
      <trkpt lat="48.26952" lon="7.38508">
        <ele>499.1</ele>
        <time>2000-01-01T01:16:55.000Z</time>
      </trkpt>
      <trkpt lat="48.2695" lon="7.38508">
        <ele>499.2</ele>
        <time>2000-01-01T01:17:05.000Z</time>
      </trkpt>
      <trkpt lat="48.26936" lon="7.3851">
        <ele>506</ele>
        <time>2000-01-01T01:17:15.000Z</time>
      </trkpt>
      <trkpt lat="48.26932" lon="7.38509">
        <ele>500.6</ele>
        <time>2000-01-01T01:17:25.000Z</time>
      </trkpt>
      <trkpt lat="48.26928" lon="7.38508">
        <ele>500.9</ele>
        <time>2000-01-01T01:17:35.000Z</time>
      </trkpt>
      <trkpt lat="48.26926" lon="7.38509">
        <ele>501</ele>
        <time>2000-01-01T01:17:45.000Z</time>
      </trkpt>
      <trkpt lat="48.26921" lon="7.38511">
        <ele>501.2</ele>
        <time>2000-01-01T01:17:55.000Z</time>
      </trkpt>
      <trkpt lat="48.26917" lon="7.38512">
        <ele>510</ele>
        <time>2000-01-01T01:18:05.000Z</time>
      </trkpt>
      <trkpt lat="48.26911" lon="7.38514">
        <ele>505.8</ele>
        <time>2000-01-01T01:18:15.000Z</time>
      </trkpt>
      <trkpt lat="48.26901" lon="7.38512">
        <ele>506.6</ele>
        <time>2000-01-01T01:18:25.000Z</time>
      </trkpt>
      <trkpt lat="48.26899" lon="7.38512">
        <ele>512</ele>
        <time>2000-01-01T01:18:35.000Z</time>
      </trkpt>
      <trkpt lat="48.2689" lon="7.3851">
        <ele>507.8</ele>
        <time>2000-01-01T01:18:45.000Z</time>
      </trkpt>
      <trkpt lat="48.26879" lon="7.38512">
        <ele>513</ele>
        <time>2000-01-01T01:18:55.000Z</time>
      </trkpt>
      <trkpt lat="48.26872" lon="7.38514">
        <ele>509.7</ele>
        <time>2000-01-01T01:19:05.000Z</time>
      </trkpt>
      <trkpt lat="48.26864" lon="7.38512">
        <ele>510.3</ele>
        <time>2000-01-01T01:19:15.000Z</time>
      </trkpt>
      <trkpt lat="48.2685" lon="7.38508">
        <ele>513</ele>
        <time>2000-01-01T01:19:25.000Z</time>
      </trkpt>
      <trkpt lat="48.26841" lon="7.38505">
        <ele>511.5</ele>
        <time>2000-01-01T01:19:35.000Z</time>
      </trkpt>
      <trkpt lat="48.26836" lon="7.38503">
        <ele>511.8</ele>
        <time>2000-01-01T01:19:45.000Z</time>
      </trkpt>
      <trkpt lat="48.26832" lon="7.38501">
        <ele>516</ele>
        <time>2000-01-01T01:19:55.000Z</time>
      </trkpt>
      <trkpt lat="48.26826" lon="7.385">
        <ele>510.8</ele>
        <time>2000-01-01T01:20:05.000Z</time>
      </trkpt>
      <trkpt lat="48.26816" lon="7.38502">
        <ele>514.7</ele>
        <time>2000-01-01T01:20:15.000Z</time>
      </trkpt>
      <trkpt lat="48.26813" lon="7.38503">
        <ele>518</ele>
        <time>2000-01-01T01:20:25.000Z</time>
      </trkpt>
      <trkpt lat="48.26815" lon="7.3851">
        <ele>515.2</ele>
        <time>2000-01-01T01:20:35.000Z</time>
      </trkpt>
      <trkpt lat="48.26816" lon="7.38511">
        <ele>515.1</ele>
        <time>2000-01-01T01:20:45.000Z</time>
      </trkpt>
      <trkpt lat="48.26821" lon="7.38513">
        <ele>514.9</ele>
        <time>2000-01-01T01:20:55.000Z</time>
      </trkpt>
      <trkpt lat="48.26825" lon="7.38523">
        <ele>522</ele>
        <time>2000-01-01T01:21:05.000Z</time>
      </trkpt>
      <trkpt lat="48.26829" lon="7.38541">
        <ele>516.9</ele>
        <time>2000-01-01T01:21:15.000Z</time>
      </trkpt>
      <trkpt lat="48.26832" lon="7.38551">
        <ele>525</ele>
        <time>2000-01-01T01:21:25.000Z</time>
      </trkpt>
      <trkpt lat="48.26833" lon="7.38561">
        <ele>518.2</ele>
        <time>2000-01-01T01:21:35.000Z</time>
      </trkpt>
      <trkpt lat="48.26834" lon="7.38575">
        <ele>517.3</ele>
        <time>2000-01-01T01:21:45.000Z</time>
      </trkpt>
      <trkpt lat="48.26835" lon="7.38576">
        <ele>517.5</ele>
        <time>2000-01-01T01:21:55.000Z</time>
      </trkpt>
      <trkpt lat="48.26835" lon="7.38576">
        <ele>517.5</ele>
        <time>2000-01-01T01:22:05.000Z</time>
      </trkpt>
      <trkpt lat="48.26824" lon="7.38573">
        <ele>525</ele>
        <time>2000-01-01T01:22:15.000Z</time>
      </trkpt>
      <trkpt lat="48.26806" lon="7.38571">
        <ele>518.4</ele>
        <time>2000-01-01T01:22:25.000Z</time>
      </trkpt>
      <trkpt lat="48.26802" lon="7.38569">
        <ele>529</ele>
        <time>2000-01-01T01:22:35.000Z</time>
      </trkpt>
      <trkpt lat="48.26793" lon="7.3857">
        <ele>518.4</ele>
        <time>2000-01-01T01:22:45.000Z</time>
      </trkpt>
      <trkpt lat="48.26772" lon="7.3857">
        <ele>529</ele>
        <time>2000-01-01T01:22:55.000Z</time>
      </trkpt>
      <trkpt lat="48.26764" lon="7.38569">
        <ele>519.2</ele>
        <time>2000-01-01T01:23:05.000Z</time>
      </trkpt>
      <trkpt lat="48.26756" lon="7.38577">
        <ele>520</ele>
        <time>2000-01-01T01:23:15.000Z</time>
      </trkpt>
      <trkpt lat="48.26746" lon="7.38583">
        <ele>529</ele>
        <time>2000-01-01T01:23:25.000Z</time>
      </trkpt>
      <trkpt lat="48.26744" lon="7.38584">
        <ele>518.5</ele>
        <time>2000-01-01T01:23:35.000Z</time>
      </trkpt>
      <trkpt lat="48.26738" lon="7.38584">
        <ele>516.6</ele>
        <time>2000-01-01T01:23:45.000Z</time>
      </trkpt>
      <trkpt lat="48.26735" lon="7.38582">
        <ele>518.4</ele>
        <time>2000-01-01T01:23:55.000Z</time>
      </trkpt>
      <trkpt lat="48.26728" lon="7.38581">
        <ele>528</ele>
        <time>2000-01-01T01:24:05.000Z</time>
      </trkpt>
      <trkpt lat="48.26715" lon="7.38575">
        <ele>516.3</ele>
        <time>2000-01-01T01:24:15.000Z</time>
      </trkpt>
      <trkpt lat="48.26704" lon="7.38571">
        <ele>525</ele>
        <time>2000-01-01T01:24:25.000Z</time>
      </trkpt>
      <trkpt lat="48.26699" lon="7.38569">
        <ele>515.2</ele>
        <time>2000-01-01T01:24:35.000Z</time>
      </trkpt>
      <trkpt lat="48.26687" lon="7.38569">
        <ele>514.4</ele>
        <time>2000-01-01T01:24:45.000Z</time>
      </trkpt>
      <trkpt lat="48.26678" lon="7.38567">
        <ele>521</ele>
        <time>2000-01-01T01:24:55.000Z</time>
      </trkpt>
      <trkpt lat="48.26667" lon="7.38566">
        <ele>513.6</ele>
        <time>2000-01-01T01:25:05.000Z</time>
      </trkpt>
      <trkpt lat="48.26657" lon="7.38565">
        <ele>517</ele>
        <time>2000-01-01T01:25:15.000Z</time>
      </trkpt>
      <trkpt lat="48.26648" lon="7.38564">
        <ele>508</ele>
        <time>2000-01-01T01:25:25.000Z</time>
      </trkpt>
      <trkpt lat="48.26639" lon="7.38563">
        <ele>507.2</ele>
        <time>2000-01-01T01:25:35.000Z</time>
      </trkpt>
      <trkpt lat="48.2663" lon="7.38563">
        <ele>514</ele>
        <time>2000-01-01T01:25:45.000Z</time>
      </trkpt>
      <trkpt lat="48.26618" lon="7.38558">
        <ele>505.3</ele>
        <time>2000-01-01T01:25:55.000Z</time>
      </trkpt>
      <trkpt lat="48.266" lon="7.38541">
        <ele>508</ele>
        <time>2000-01-01T01:26:05.000Z</time>
      </trkpt>
      <trkpt lat="48.26589" lon="7.38538">
        <ele>504.4</ele>
        <time>2000-01-01T01:26:15.000Z</time>
      </trkpt>
      <trkpt lat="48.26574" lon="7.38532">
        <ele>506</ele>
        <time>2000-01-01T01:26:25.000Z</time>
      </trkpt>
      <trkpt lat="48.2656" lon="7.3852">
        <ele>495.7</ele>
        <time>2000-01-01T01:26:35.000Z</time>
      </trkpt>
      <trkpt lat="48.2655" lon="7.38516">
        <ele>504</ele>
        <time>2000-01-01T01:26:45.000Z</time>
      </trkpt>
      <trkpt lat="48.26549" lon="7.38515">
        <ele>494.5</ele>
        <time>2000-01-01T01:26:55.000Z</time>
      </trkpt>
      <trkpt lat="48.26548" lon="7.38509">
        <ele>494.7</ele>
        <time>2000-01-01T01:27:05.000Z</time>
      </trkpt>
      <trkpt lat="48.26551" lon="7.38497">
        <ele>497.1</ele>
        <time>2000-01-01T01:27:15.000Z</time>
      </trkpt>
      <trkpt lat="48.26563" lon="7.38476">
        <ele>504</ele>
        <time>2000-01-01T01:27:25.000Z</time>
      </trkpt>
      <trkpt lat="48.26576" lon="7.38455">
        <ele>504</ele>
        <time>2000-01-01T01:27:35.000Z</time>
      </trkpt>
      <trkpt lat="48.26591" lon="7.38429">
        <ele>503</ele>
        <time>2000-01-01T01:27:45.000Z</time>
      </trkpt>
      <trkpt lat="48.26594" lon="7.38388">
        <ele>498</ele>
        <time>2000-01-01T01:27:55.000Z</time>
      </trkpt>
      <trkpt lat="48.26595" lon="7.38367">
        <ele>497</ele>
        <time>2000-01-01T01:28:05.000Z</time>
      </trkpt>
      <trkpt lat="48.26594" lon="7.38362">
        <ele>496.6</ele>
        <time>2000-01-01T01:28:15.000Z</time>
      </trkpt>
      <trkpt lat="48.26593" lon="7.38342">
        <ele>493</ele>
        <time>2000-01-01T01:28:25.000Z</time>
      </trkpt>
      <trkpt lat="48.26593" lon="7.38338">
        <ele>494.7</ele>
        <time>2000-01-01T01:28:35.000Z</time>
      </trkpt>
      <trkpt lat="48.26591" lon="7.3833">
        <ele>491.7</ele>
        <time>2000-01-01T01:28:45.000Z</time>
      </trkpt>
      <trkpt lat="48.26585" lon="7.38325">
        <ele>491.6</ele>
        <time>2000-01-01T01:28:55.000Z</time>
      </trkpt>
      <trkpt lat="48.26578" lon="7.38321">
        <ele>489</ele>
        <time>2000-01-01T01:29:05.000Z</time>
      </trkpt>
      <trkpt lat="48.26566" lon="7.38304">
        <ele>484.7</ele>
        <time>2000-01-01T01:29:15.000Z</time>
      </trkpt>
      <trkpt lat="48.26565" lon="7.38293">
        <ele>484</ele>
        <time>2000-01-01T01:29:25.000Z</time>
      </trkpt>
      <trkpt lat="48.26563" lon="7.3828">
        <ele>483</ele>
        <time>2000-01-01T01:29:35.000Z</time>
      </trkpt>
      <trkpt lat="48.2656" lon="7.38262">
        <ele>481</ele>
        <time>2000-01-01T01:29:45.000Z</time>
      </trkpt>
      <trkpt lat="48.26556" lon="7.38253">
        <ele>481.9</ele>
        <time>2000-01-01T01:29:55.000Z</time>
      </trkpt>
      <trkpt lat="48.26553" lon="7.38245">
        <ele>476.6</ele>
        <time>2000-01-01T01:30:05.000Z</time>
      </trkpt>
      <trkpt lat="48.26544" lon="7.38229">
        <ele>474</ele>
        <time>2000-01-01T01:30:15.000Z</time>
      </trkpt>
      <trkpt lat="48.26536" lon="7.3821">
        <ele>473.5</ele>
        <time>2000-01-01T01:30:25.000Z</time>
      </trkpt>
      <trkpt lat="48.2653" lon="7.38193">
        <ele>468</ele>
        <time>2000-01-01T01:30:35.000Z</time>
      </trkpt>
      <trkpt lat="48.2652" lon="7.38175">
        <ele>470.4</ele>
        <time>2000-01-01T01:30:45.000Z</time>
      </trkpt>
      <trkpt lat="48.26517" lon="7.38169">
        <ele>464</ele>
        <time>2000-01-01T01:30:55.000Z</time>
      </trkpt>
      <trkpt lat="48.26512" lon="7.38156">
        <ele>466.4</ele>
        <time>2000-01-01T01:31:05.000Z</time>
      </trkpt>
      <trkpt lat="48.26514" lon="7.38149">
        <ele>466.4</ele>
        <time>2000-01-01T01:31:15.000Z</time>
      </trkpt>
      <trkpt lat="48.26527" lon="7.38128">
        <ele>461</ele>
        <time>2000-01-01T01:31:25.000Z</time>
      </trkpt>
      <trkpt lat="48.26536" lon="7.38114">
        <ele>466</ele>
        <time>2000-01-01T01:31:35.000Z</time>
      </trkpt>
      <trkpt lat="48.26547" lon="7.3809">
        <ele>460</ele>
        <time>2000-01-01T01:31:45.000Z</time>
      </trkpt>
      <trkpt lat="48.26563" lon="7.38073">
        <ele>459</ele>
        <time>2000-01-01T01:31:55.000Z</time>
      </trkpt>
      <trkpt lat="48.26571" lon="7.38064">
        <ele>461.1</ele>
        <time>2000-01-01T01:32:05.000Z</time>
      </trkpt>
      <trkpt lat="48.26584" lon="7.38046">
        <ele>458</ele>
        <time>2000-01-01T01:32:15.000Z</time>
      </trkpt>
      <trkpt lat="48.26595" lon="7.38029">
        <ele>458.8</ele>
        <time>2000-01-01T01:32:25.000Z</time>
      </trkpt>
      <trkpt lat="48.26596" lon="7.38012">
        <ele>456</ele>
        <time>2000-01-01T01:32:35.000Z</time>
      </trkpt>
      <trkpt lat="48.26595" lon="7.38004">
        <ele>457.3</ele>
        <time>2000-01-01T01:32:45.000Z</time>
      </trkpt>
      <trkpt lat="48.26596" lon="7.37991">
        <ele>453.7</ele>
        <time>2000-01-01T01:32:55.000Z</time>
      </trkpt>
      <trkpt lat="48.26603" lon="7.37983">
        <ele>454</ele>
        <time>2000-01-01T01:33:05.000Z</time>
      </trkpt>
      <trkpt lat="48.26611" lon="7.37972">
        <ele>451.9</ele>
        <time>2000-01-01T01:33:15.000Z</time>
      </trkpt>
      <trkpt lat="48.2662" lon="7.37959">
        <ele>451</ele>
        <time>2000-01-01T01:33:25.000Z</time>
      </trkpt>
      <trkpt lat="48.26629" lon="7.37945">
        <ele>450.3</ele>
        <time>2000-01-01T01:33:35.000Z</time>
      </trkpt>
      <trkpt lat="48.26637" lon="7.37933">
        <ele>449</ele>
        <time>2000-01-01T01:33:45.000Z</time>
      </trkpt>
      <trkpt lat="48.26644" lon="7.37925">
        <ele>448.9</ele>
        <time>2000-01-01T01:33:55.000Z</time>
      </trkpt>
      <trkpt lat="48.26658" lon="7.37911">
        <ele>445</ele>
        <time>2000-01-01T01:34:05.000Z</time>
      </trkpt>
      <trkpt lat="48.26662" lon="7.37903">
        <ele>444.2</ele>
        <time>2000-01-01T01:34:15.000Z</time>
      </trkpt>
      <trkpt lat="48.26668" lon="7.37894">
        <ele>438.7</ele>
        <time>2000-01-01T01:34:25.000Z</time>
      </trkpt>
      <trkpt lat="48.26672" lon="7.37885">
        <ele>439</ele>
        <time>2000-01-01T01:34:35.000Z</time>
      </trkpt>
      <trkpt lat="48.26678" lon="7.37866">
        <ele>435.1</ele>
        <time>2000-01-01T01:34:45.000Z</time>
      </trkpt>
      <trkpt lat="48.26684" lon="7.37853">
        <ele>435</ele>
        <time>2000-01-01T01:34:55.000Z</time>
      </trkpt>
      <trkpt lat="48.26693" lon="7.37836">
        <ele>433.5</ele>
        <time>2000-01-01T01:35:05.000Z</time>
      </trkpt>
      <trkpt lat="48.26696" lon="7.37828">
        <ele>431</ele>
        <time>2000-01-01T01:35:15.000Z</time>
      </trkpt>
      <trkpt lat="48.267" lon="7.37813">
        <ele>428.5</ele>
        <time>2000-01-01T01:35:25.000Z</time>
      </trkpt>
      <trkpt lat="48.26707" lon="7.37802">
        <ele>429</ele>
        <time>2000-01-01T01:35:35.000Z</time>
      </trkpt>
      <trkpt lat="48.26712" lon="7.37794">
        <ele>427.1</ele>
        <time>2000-01-01T01:35:45.000Z</time>
      </trkpt>
      <trkpt lat="48.26717" lon="7.37781">
        <ele>426.5</ele>
        <time>2000-01-01T01:35:55.000Z</time>
      </trkpt>
      <trkpt lat="48.26724" lon="7.37765">
        <ele>425</ele>
        <time>2000-01-01T01:36:05.000Z</time>
      </trkpt>
      <trkpt lat="48.26729" lon="7.37754">
        <ele>424.9</ele>
        <time>2000-01-01T01:36:15.000Z</time>
      </trkpt>
      <trkpt lat="48.26729" lon="7.3773">
        <ele>424</ele>
        <time>2000-01-01T01:36:25.000Z</time>
      </trkpt>
      <trkpt lat="48.26727" lon="7.37717">
        <ele>420.8</ele>
        <time>2000-01-01T01:36:35.000Z</time>
      </trkpt>
      <trkpt lat="48.26728" lon="7.37706">
        <ele>420.2</ele>
        <time>2000-01-01T01:36:45.000Z</time>
      </trkpt>
      <trkpt lat="48.26733" lon="7.3769">
        <ele>420</ele>
        <time>2000-01-01T01:36:55.000Z</time>
      </trkpt>
      <trkpt lat="48.26737" lon="7.37682">
        <ele>418.5</ele>
        <time>2000-01-01T01:37:05.000Z</time>
      </trkpt>
      <trkpt lat="48.26756" lon="7.37672">
        <ele>416</ele>
        <time>2000-01-01T01:37:15.000Z</time>
      </trkpt>
      <trkpt lat="48.26766" lon="7.37672">
        <ele>413.9</ele>
        <time>2000-01-01T01:37:25.000Z</time>
      </trkpt>
      <trkpt lat="48.26776" lon="7.37668">
        <ele>413</ele>
        <time>2000-01-01T01:37:35.000Z</time>
      </trkpt>
      <trkpt lat="48.26789" lon="7.3766">
        <ele>406.8</ele>
        <time>2000-01-01T01:37:45.000Z</time>
      </trkpt>
      <trkpt lat="48.26798" lon="7.37648">
        <ele>409</ele>
        <time>2000-01-01T01:37:55.000Z</time>
      </trkpt>
      <trkpt lat="48.26803" lon="7.37637">
        <ele>404.6</ele>
        <time>2000-01-01T01:38:05.000Z</time>
      </trkpt>
      <trkpt lat="48.26804" lon="7.37625">
        <ele>403.6</ele>
        <time>2000-01-01T01:38:15.000Z</time>
      </trkpt>
      <trkpt lat="48.26805" lon="7.37611">
        <ele>403</ele>
        <time>2000-01-01T01:38:25.000Z</time>
      </trkpt>
      <trkpt lat="48.26805" lon="7.37598">
        <ele>401.1</ele>
        <time>2000-01-01T01:38:35.000Z</time>
      </trkpt>
      <trkpt lat="48.26805" lon="7.37584">
        <ele>397</ele>
        <time>2000-01-01T01:38:45.000Z</time>
      </trkpt>
      <trkpt lat="48.26803" lon="7.37572">
        <ele>391.9</ele>
        <time>2000-01-01T01:38:55.000Z</time>
      </trkpt>
      <trkpt lat="48.26802" lon="7.37561">
        <ele>391.4</ele>
        <time>2000-01-01T01:39:05.000Z</time>
      </trkpt>
      <trkpt lat="48.26802" lon="7.37553">
        <ele>391</ele>
        <time>2000-01-01T01:39:15.000Z</time>
      </trkpt>
      <trkpt lat="48.26803" lon="7.37541">
        <ele>389.8</ele>
        <time>2000-01-01T01:39:25.000Z</time>
      </trkpt>
      <trkpt lat="48.26802" lon="7.37528">
        <ele>388.7</ele>
        <time>2000-01-01T01:39:35.000Z</time>
      </trkpt>
      <trkpt lat="48.26808" lon="7.37511">
        <ele>384</ele>
        <time>2000-01-01T01:39:45.000Z</time>
      </trkpt>
      <trkpt lat="48.2681" lon="7.37501">
        <ele>386.1</ele>
        <time>2000-01-01T01:39:55.000Z</time>
      </trkpt>
      <trkpt lat="48.26816" lon="7.37491">
        <ele>379.6</ele>
        <time>2000-01-01T01:40:05.000Z</time>
      </trkpt>
      <trkpt lat="48.26822" lon="7.37477">
        <ele>377</ele>
        <time>2000-01-01T01:40:15.000Z</time>
      </trkpt>
      <trkpt lat="48.26828" lon="7.37468">
        <ele>378.4</ele>
        <time>2000-01-01T01:40:25.000Z</time>
      </trkpt>
      <trkpt lat="48.26837" lon="7.37456">
        <ele>375</ele>
        <time>2000-01-01T01:40:35.000Z</time>
      </trkpt>
      <trkpt lat="48.26851" lon="7.37435">
        <ele>375</ele>
        <time>2000-01-01T01:40:45.000Z</time>
      </trkpt>
      <trkpt lat="48.26859" lon="7.37411">
        <ele>375</ele>
        <time>2000-01-01T01:40:55.000Z</time>
      </trkpt>
      <trkpt lat="48.26864" lon="7.37384">
        <ele>375</ele>
        <time>2000-01-01T01:41:05.000Z</time>
      </trkpt>
      <trkpt lat="48.26863" lon="7.3737">
        <ele>379</ele>
        <time>2000-01-01T01:41:15.000Z</time>
      </trkpt>
      <trkpt lat="48.26861" lon="7.37367">
        <ele>378.8</ele>
        <time>2000-01-01T01:41:25.000Z</time>
      </trkpt>
      <trkpt lat="48.2686" lon="7.37351">
        <ele>373</ele>
        <time>2000-01-01T01:41:35.000Z</time>
      </trkpt>
      <trkpt lat="48.2686" lon="7.37324">
        <ele>373</ele>
        <time>2000-01-01T01:41:45.000Z</time>
      </trkpt>
      <trkpt lat="48.26861" lon="7.37295">
        <ele>373</ele>
        <time>2000-01-01T01:41:55.000Z</time>
      </trkpt>
      <trkpt lat="48.26863" lon="7.37269">
        <ele>372</ele>
        <time>2000-01-01T01:42:05.000Z</time>
      </trkpt>
      <trkpt lat="48.26865" lon="7.37237">
        <ele>372</ele>
        <time>2000-01-01T01:42:15.000Z</time>
      </trkpt>
      <trkpt lat="48.26873" lon="7.3721">
        <ele>372</ele>
        <time>2000-01-01T01:42:25.000Z</time>
      </trkpt>
      <trkpt lat="48.26881" lon="7.37177">
        <ele>372</ele>
        <time>2000-01-01T01:42:35.000Z</time>
      </trkpt>
      <trkpt lat="48.26883" lon="7.3715">
        <ele>371</ele>
        <time>2000-01-01T01:42:45.000Z</time>
      </trkpt>
      <trkpt lat="48.26887" lon="7.37138">
        <ele>370.7</ele>
        <time>2000-01-01T01:42:55.000Z</time>
      </trkpt>
      <trkpt lat="48.26906" lon="7.37113">
        <ele>371</ele>
        <time>2000-01-01T01:43:05.000Z</time>
      </trkpt>
      <trkpt lat="48.26924" lon="7.37106">
        <ele>370</ele>
        <time>2000-01-01T01:43:15.000Z</time>
      </trkpt>
      <trkpt lat="48.26942" lon="7.37095">
        <ele>370</ele>
        <time>2000-01-01T01:43:25.000Z</time>
      </trkpt>
      <trkpt lat="48.26962" lon="7.37098">
        <ele>370</ele>
        <time>2000-01-01T01:43:35.000Z</time>
      </trkpt>
      <trkpt lat="48.26971" lon="7.371">
        <ele>374.8</ele>
        <time>2000-01-01T01:43:45.000Z</time>
      </trkpt>
      <trkpt lat="48.2699" lon="7.37097">
        <ele>371</ele>
        <time>2000-01-01T01:43:55.000Z</time>
      </trkpt>
      <trkpt lat="48.27009" lon="7.37092">
        <ele>371</ele>
        <time>2000-01-01T01:44:05.000Z</time>
      </trkpt>
      <trkpt lat="48.27025" lon="7.37087">
        <ele>375.8</ele>
        <time>2000-01-01T01:44:15.000Z</time>
      </trkpt>
      <trkpt lat="48.27044" lon="7.37083">
        <ele>370</ele>
        <time>2000-01-01T01:44:25.000Z</time>
      </trkpt>
      <trkpt lat="48.27061" lon="7.37071">
        <ele>369</ele>
        <time>2000-01-01T01:44:35.000Z</time>
      </trkpt>
      <trkpt lat="48.27071" lon="7.37046">
        <ele>362</ele>
        <time>2000-01-01T01:44:45.000Z</time>
      </trkpt>
      <trkpt lat="48.27083" lon="7.37026">
        <ele>357</ele>
        <time>2000-01-01T01:44:55.000Z</time>
      </trkpt>
      <trkpt lat="48.27101" lon="7.37022">
        <ele>357</ele>
        <time>2000-01-01T01:45:05.000Z</time>
      </trkpt>
      <trkpt lat="48.27115" lon="7.37024">
        <ele>369.9</ele>
        <time>2000-01-01T01:45:15.000Z</time>
      </trkpt>
      <trkpt lat="48.27134" lon="7.37024">
        <ele>355</ele>
        <time>2000-01-01T01:45:25.000Z</time>
      </trkpt>
      <trkpt lat="48.27153" lon="7.37026">
        <ele>355</ele>
        <time>2000-01-01T01:45:35.000Z</time>
      </trkpt>
      <trkpt lat="48.27174" lon="7.37031">
        <ele>356</ele>
        <time>2000-01-01T01:45:45.000Z</time>
      </trkpt>
      <trkpt lat="48.27191" lon="7.3704">
        <ele>357</ele>
        <time>2000-01-01T01:45:55.000Z</time>
      </trkpt>
      <trkpt lat="48.2721" lon="7.37044">
        <ele>357</ele>
        <time>2000-01-01T01:46:05.000Z</time>
      </trkpt>
      <trkpt lat="48.27229" lon="7.37041">
        <ele>357</ele>
        <time>2000-01-01T01:46:15.000Z</time>
      </trkpt>
      <trkpt lat="48.27249" lon="7.37032">
        <ele>355</ele>
        <time>2000-01-01T01:46:25.000Z</time>
      </trkpt>
      <trkpt lat="48.27262" lon="7.37028">
        <ele>365.7</ele>
        <time>2000-01-01T01:46:35.000Z</time>
      </trkpt>
      <trkpt lat="48.2728" lon="7.37023">
        <ele>352</ele>
        <time>2000-01-01T01:46:45.000Z</time>
      </trkpt>
      <trkpt lat="48.27301" lon="7.37022">
        <ele>352</ele>
        <time>2000-01-01T01:46:55.000Z</time>
      </trkpt>
      <trkpt lat="48.27315" lon="7.37023">
        <ele>364.1</ele>
        <time>2000-01-01T01:47:05.000Z</time>
      </trkpt>
      <trkpt lat="48.27334" lon="7.37023">
        <ele>351</ele>
        <time>2000-01-01T01:47:15.000Z</time>
      </trkpt>
      <trkpt lat="48.27343" lon="7.37022">
        <ele>360.4</ele>
        <time>2000-01-01T01:47:25.000Z</time>
      </trkpt>
      <trkpt lat="48.2736" lon="7.37019">
        <ele>347</ele>
        <time>2000-01-01T01:47:35.000Z</time>
      </trkpt>
      <trkpt lat="48.27376" lon="7.37016">
        <ele>359.6</ele>
        <time>2000-01-01T01:47:45.000Z</time>
      </trkpt>
      <trkpt lat="48.27383" lon="7.37015">
        <ele>346</ele>
        <time>2000-01-01T01:47:55.000Z</time>
      </trkpt>
      <trkpt lat="48.27392" lon="7.37015">
        <ele>357.9</ele>
        <time>2000-01-01T01:48:05.000Z</time>
      </trkpt>
      <trkpt lat="48.27407" lon="7.37017">
        <ele>348</ele>
        <time>2000-01-01T01:48:15.000Z</time>
      </trkpt>
      <trkpt lat="48.27429" lon="7.37031">
        <ele>350</ele>
        <time>2000-01-01T01:48:25.000Z</time>
      </trkpt>
      <trkpt lat="48.2744" lon="7.37038">
        <ele>352.9</ele>
        <time>2000-01-01T01:48:35.000Z</time>
      </trkpt>
      <trkpt lat="48.2745" lon="7.37043">
        <ele>350</ele>
        <time>2000-01-01T01:48:45.000Z</time>
      </trkpt>
      <trkpt lat="48.27467" lon="7.37048">
        <ele>352</ele>
        <time>2000-01-01T01:48:55.000Z</time>
      </trkpt>
      <trkpt lat="48.27489" lon="7.37062">
        <ele>349</ele>
        <time>2000-01-01T01:49:05.000Z</time>
      </trkpt>
      <trkpt lat="48.27507" lon="7.37074">
        <ele>348</ele>
        <time>2000-01-01T01:49:15.000Z</time>
      </trkpt>
      <trkpt lat="48.27523" lon="7.37078">
        <ele>344</ele>
        <time>2000-01-01T01:49:25.000Z</time>
      </trkpt>
      <trkpt lat="48.27536" lon="7.37075">
        <ele>340</ele>
        <time>2000-01-01T01:49:35.000Z</time>
      </trkpt>
      <trkpt lat="48.27547" lon="7.3708">
        <ele>339.9</ele>
        <time>2000-01-01T01:49:45.000Z</time>
      </trkpt>
      <trkpt lat="48.27557" lon="7.37081">
        <ele>340</ele>
        <time>2000-01-01T01:49:55.000Z</time>
      </trkpt>
      <trkpt lat="48.27565" lon="7.37083">
        <ele>338.4</ele>
        <time>2000-01-01T01:50:05.000Z</time>
      </trkpt>
      <trkpt lat="48.27576" lon="7.37091">
        <ele>337</ele>
        <time>2000-01-01T01:50:15.000Z</time>
      </trkpt>
      <trkpt lat="48.27588" lon="7.37099">
        <ele>337.8</ele>
        <time>2000-01-01T01:50:25.000Z</time>
      </trkpt>
      <trkpt lat="48.276" lon="7.37105">
        <ele>334</ele>
        <time>2000-01-01T01:50:35.000Z</time>
      </trkpt>
      <trkpt lat="48.27612" lon="7.3711">
        <ele>336.7</ele>
        <time>2000-01-01T01:50:45.000Z</time>
      </trkpt>
      <trkpt lat="48.2762" lon="7.37113">
        <ele>332</ele>
        <time>2000-01-01T01:50:55.000Z</time>
      </trkpt>
      <trkpt lat="48.27628" lon="7.37118">
        <ele>335.5</ele>
        <time>2000-01-01T01:51:05.000Z</time>
      </trkpt>
      <trkpt lat="48.27635" lon="7.37123">
        <ele>335.1</ele>
        <time>2000-01-01T01:51:15.000Z</time>
      </trkpt>
      <trkpt lat="48.27644" lon="7.37129">
        <ele>327</ele>
        <time>2000-01-01T01:51:25.000Z</time>
      </trkpt>
      <trkpt lat="48.27656" lon="7.37134">
        <ele>334</ele>
        <time>2000-01-01T01:51:35.000Z</time>
      </trkpt>
      <trkpt lat="48.27669" lon="7.3714">
        <ele>324</ele>
        <time>2000-01-01T01:51:45.000Z</time>
      </trkpt>
      <trkpt lat="48.27683" lon="7.37146">
        <ele>323.7</ele>
        <time>2000-01-01T01:51:55.000Z</time>
      </trkpt>
      <trkpt lat="48.27691" lon="7.37151">
        <ele>322</ele>
        <time>2000-01-01T01:52:05.000Z</time>
      </trkpt>
      <trkpt lat="48.27705" lon="7.37159">
        <ele>321.7</ele>
        <time>2000-01-01T01:52:15.000Z</time>
      </trkpt>
      <trkpt lat="48.27714" lon="7.37163">
        <ele>320</ele>
        <time>2000-01-01T01:52:25.000Z</time>
      </trkpt>
      <trkpt lat="48.27724" lon="7.37167">
        <ele>328.6</ele>
        <time>2000-01-01T01:52:35.000Z</time>
      </trkpt>
      <trkpt lat="48.27736" lon="7.37177">
        <ele>319</ele>
        <time>2000-01-01T01:52:45.000Z</time>
      </trkpt>
      <trkpt lat="48.27746" lon="7.37186">
        <ele>327.3</ele>
        <time>2000-01-01T01:52:55.000Z</time>
      </trkpt>
      <trkpt lat="48.27755" lon="7.37191">
        <ele>318</ele>
        <time>2000-01-01T01:53:05.000Z</time>
      </trkpt>
      <trkpt lat="48.27771" lon="7.37197">
        <ele>320.1</ele>
        <time>2000-01-01T01:53:15.000Z</time>
      </trkpt>
      <trkpt lat="48.27782" lon="7.37199">
        <ele>316</ele>
        <time>2000-01-01T01:53:25.000Z</time>
      </trkpt>
      <trkpt lat="48.2779" lon="7.37201">
        <ele>319</ele>
        <time>2000-01-01T01:53:35.000Z</time>
      </trkpt>
      <trkpt lat="48.278" lon="7.37207">
        <ele>314</ele>
        <time>2000-01-01T01:53:45.000Z</time>
      </trkpt>
      <trkpt lat="48.27808" lon="7.37212">
        <ele>318.4</ele>
        <time>2000-01-01T01:53:55.000Z</time>
      </trkpt>
      <trkpt lat="48.27816" lon="7.37216">
        <ele>318.3</ele>
        <time>2000-01-01T01:54:05.000Z</time>
      </trkpt>
      <trkpt lat="48.27822" lon="7.37216">
        <ele>312</ele>
        <time>2000-01-01T01:54:15.000Z</time>
      </trkpt>
      <trkpt lat="48.27831" lon="7.37224">
        <ele>318.3</ele>
        <time>2000-01-01T01:54:25.000Z</time>
      </trkpt>
      <trkpt lat="48.2784" lon="7.37232">
        <ele>310</ele>
        <time>2000-01-01T01:54:35.000Z</time>
      </trkpt>
      <trkpt lat="48.27853" lon="7.37242">
        <ele>308.1</ele>
        <time>2000-01-01T01:54:45.000Z</time>
      </trkpt>
      <trkpt lat="48.27859" lon="7.37247">
        <ele>306</ele>
        <time>2000-01-01T01:54:55.000Z</time>
      </trkpt>
      <trkpt lat="48.27874" lon="7.37262">
        <ele>305</ele>
        <time>2000-01-01T01:55:05.000Z</time>
      </trkpt>
      <trkpt lat="48.2788" lon="7.37269">
        <ele>313.2</ele>
        <time>2000-01-01T01:55:15.000Z</time>
      </trkpt>
      <trkpt lat="48.27887" lon="7.37277">
        <ele>312.9</ele>
        <time>2000-01-01T01:55:25.000Z</time>
      </trkpt>
      <trkpt lat="48.27898" lon="7.37282">
        <ele>304</ele>
        <time>2000-01-01T01:55:35.000Z</time>
      </trkpt>
      <trkpt lat="48.27912" lon="7.37285">
        <ele>311.3</ele>
        <time>2000-01-01T01:55:45.000Z</time>
      </trkpt>
      <trkpt lat="48.27927" lon="7.37289">
        <ele>295</ele>
        <time>2000-01-01T01:55:55.000Z</time>
      </trkpt>
      <trkpt lat="48.27946" lon="7.37291">
        <ele>294</ele>
        <time>2000-01-01T01:56:05.000Z</time>
      </trkpt>
      <trkpt lat="48.27954" lon="7.37294">
        <ele>300.1</ele>
        <time>2000-01-01T01:56:15.000Z</time>
      </trkpt>
      <trkpt lat="48.27963" lon="7.373">
        <ele>300</ele>
        <time>2000-01-01T01:56:25.000Z</time>
      </trkpt>
      <trkpt lat="48.27975" lon="7.37301">
        <ele>290</ele>
        <time>2000-01-01T01:56:35.000Z</time>
      </trkpt>
      <trkpt lat="48.27991" lon="7.37303">
        <ele>298.8</ele>
        <time>2000-01-01T01:56:45.000Z</time>
      </trkpt>
      <trkpt lat="48.27999" lon="7.37305">
        <ele>286</ele>
        <time>2000-01-01T01:56:55.000Z</time>
      </trkpt>
      <trkpt lat="48.28007" lon="7.37309">
        <ele>290.3</ele>
        <time>2000-01-01T01:57:05.000Z</time>
      </trkpt>
      <trkpt lat="48.28017" lon="7.37312">
        <ele>285</ele>
        <time>2000-01-01T01:57:15.000Z</time>
      </trkpt>
      <trkpt lat="48.28029" lon="7.37316">
        <ele>288.1</ele>
        <time>2000-01-01T01:57:25.000Z</time>
      </trkpt>
      <trkpt lat="48.28039" lon="7.37318">
        <ele>282</ele>
        <time>2000-01-01T01:57:35.000Z</time>
      </trkpt>
      <trkpt lat="48.28049" lon="7.37322">
        <ele>285.5</ele>
        <time>2000-01-01T01:57:45.000Z</time>
      </trkpt>
      <trkpt lat="48.28057" lon="7.37325">
        <ele>281</ele>
        <time>2000-01-01T01:57:55.000Z</time>
      </trkpt>
      <trkpt lat="48.28064" lon="7.3733">
        <ele>284.2</ele>
        <time>2000-01-01T01:58:05.000Z</time>
      </trkpt>
      <trkpt lat="48.28072" lon="7.37331">
        <ele>283.6</ele>
        <time>2000-01-01T01:58:15.000Z</time>
      </trkpt>
      <trkpt lat="48.28079" lon="7.37334">
        <ele>281</ele>
        <time>2000-01-01T01:58:25.000Z</time>
      </trkpt>
      <trkpt lat="48.28093" lon="7.37344">
        <ele>282.2</ele>
        <time>2000-01-01T01:58:35.000Z</time>
      </trkpt>
      <trkpt lat="48.28104" lon="7.37348">
        <ele>276</ele>
        <time>2000-01-01T01:58:45.000Z</time>
      </trkpt>
      <trkpt lat="48.28114" lon="7.37347">
        <ele>279.9</ele>
        <time>2000-01-01T01:58:55.000Z</time>
      </trkpt>
      <trkpt lat="48.28122" lon="7.37351">
        <ele>274</ele>
        <time>2000-01-01T01:59:05.000Z</time>
      </trkpt>
      <trkpt lat="48.28129" lon="7.37358">
        <ele>278.3</ele>
        <time>2000-01-01T01:59:15.000Z</time>
      </trkpt>
      <trkpt lat="48.28137" lon="7.37363">
        <ele>277.5</ele>
        <time>2000-01-01T01:59:25.000Z</time>
      </trkpt>
      <trkpt lat="48.28148" lon="7.37372">
        <ele>272</ele>
        <time>2000-01-01T01:59:35.000Z</time>
      </trkpt>
      <trkpt lat="48.28158" lon="7.37383">
        <ele>277.4</ele>
        <time>2000-01-01T01:59:45.000Z</time>
      </trkpt>
      <trkpt lat="48.28167" lon="7.37389">
        <ele>270</ele>
        <time>2000-01-01T01:59:55.000Z</time>
      </trkpt>
      <trkpt lat="48.28175" lon="7.37396">
        <ele>263.3</ele>
        <time>2000-01-01T02:00:05.000Z</time>
      </trkpt>
      <trkpt lat="48.28182" lon="7.37403">
        <ele>263.6</ele>
        <time>2000-01-01T02:00:15.000Z</time>
      </trkpt>
      <trkpt lat="48.28198" lon="7.37415">
        <ele>265</ele>
        <time>2000-01-01T02:00:25.000Z</time>
      </trkpt>
      <trkpt lat="48.28202" lon="7.37419">
        <ele>265.7</ele>
        <time>2000-01-01T02:00:35.000Z</time>
      </trkpt>
      <trkpt lat="48.28208" lon="7.37419">
        <ele>264</ele>
        <time>2000-01-01T02:00:45.000Z</time>
      </trkpt>
      <trkpt lat="48.28211" lon="7.37427">
        <ele>263.5</ele>
        <time>2000-01-01T02:00:55.000Z</time>
      </trkpt>
      <trkpt lat="48.28216" lon="7.37441">
        <ele>259</ele>
        <time>2000-01-01T02:01:05.000Z</time>
      </trkpt>
      <trkpt lat="48.28224" lon="7.37453">
        <ele>262.5</ele>
        <time>2000-01-01T02:01:15.000Z</time>
      </trkpt>
      <trkpt lat="48.28231" lon="7.37466">
        <ele>252</ele>
        <time>2000-01-01T02:01:25.000Z</time>
      </trkpt>
      <trkpt lat="48.28235" lon="7.37477">
        <ele>261.1</ele>
        <time>2000-01-01T02:01:35.000Z</time>
      </trkpt>
      <trkpt lat="48.28238" lon="7.37489">
        <ele>259</ele>
        <time>2000-01-01T02:01:45.000Z</time>
      </trkpt>
      <trkpt lat="48.28242" lon="7.375">
        <ele>251</ele>
        <time>2000-01-01T02:01:55.000Z</time>
      </trkpt>
      <trkpt lat="48.28247" lon="7.37518">
        <ele>263.4</ele>
        <time>2000-01-01T02:02:05.000Z</time>
      </trkpt>
      <trkpt lat="48.28253" lon="7.37533">
        <ele>247</ele>
        <time>2000-01-01T02:02:15.000Z</time>
      </trkpt>
      <trkpt lat="48.28256" lon="7.37544">
        <ele>243.2</ele>
        <time>2000-01-01T02:02:25.000Z</time>
      </trkpt>
      <trkpt lat="48.28259" lon="7.37551">
        <ele>243.5</ele>
        <time>2000-01-01T02:02:35.000Z</time>
      </trkpt>
      <trkpt lat="48.28265" lon="7.37569">
        <ele>243</ele>
        <time>2000-01-01T02:02:45.000Z</time>
      </trkpt>
      <trkpt lat="48.28275" lon="7.37581">
        <ele>243.4</ele>
        <time>2000-01-01T02:02:55.000Z</time>
      </trkpt>
      <trkpt lat="48.28276" lon="7.37598">
        <ele>240</ele>
        <time>2000-01-01T02:03:05.000Z</time>
      </trkpt>
      <trkpt lat="48.28277" lon="7.37611">
        <ele>239.6</ele>
        <time>2000-01-01T02:03:15.000Z</time>
      </trkpt>
      <trkpt lat="48.28278" lon="7.37624">
        <ele>238.4</ele>
        <time>2000-01-01T02:03:25.000Z</time>
      </trkpt>
      <trkpt lat="48.28281" lon="7.37644">
        <ele>235</ele>
        <time>2000-01-01T02:03:35.000Z</time>
      </trkpt>
      <trkpt lat="48.28283" lon="7.37656">
        <ele>237</ele>
        <time>2000-01-01T02:03:45.000Z</time>
      </trkpt>
      <trkpt lat="48.28283" lon="7.37667">
        <ele>232.5</ele>
        <time>2000-01-01T02:03:55.000Z</time>
      </trkpt>
      <trkpt lat="48.28281" lon="7.37683">
        <ele>229</ele>
        <time>2000-01-01T02:04:05.000Z</time>
      </trkpt>
      <trkpt lat="48.28281" lon="7.377">
        <ele>230.7</ele>
        <time>2000-01-01T02:04:15.000Z</time>
      </trkpt>
      <trkpt lat="48.28283" lon="7.37719">
        <ele>224</ele>
        <time>2000-01-01T02:04:25.000Z</time>
      </trkpt>
      <trkpt lat="48.28284" lon="7.37734">
        <ele>228.5</ele>
        <time>2000-01-01T02:04:35.000Z</time>
      </trkpt>
      <trkpt lat="48.28287" lon="7.37748">
        <ele>221</ele>
        <time>2000-01-01T02:04:45.000Z</time>
      </trkpt>
      <trkpt lat="48.28288" lon="7.3776">
        <ele>222.4</ele>
        <time>2000-01-01T02:04:55.000Z</time>
      </trkpt>
      <trkpt lat="48.28287" lon="7.37781">
        <ele>218</ele>
        <time>2000-01-01T02:05:05.000Z</time>
      </trkpt>
      <trkpt lat="48.28286" lon="7.37793">
        <ele>221.2</ele>
        <time>2000-01-01T02:05:15.000Z</time>
      </trkpt>
      <trkpt lat="48.28283" lon="7.37814">
        <ele>216</ele>
        <time>2000-01-01T02:05:25.000Z</time>
      </trkpt>
      <trkpt lat="48.2828" lon="7.37826">
        <ele>221.5</ele>
        <time>2000-01-01T02:05:35.000Z</time>
      </trkpt>
      <trkpt lat="48.2828" lon="7.37845">
        <ele>215</ele>
        <time>2000-01-01T02:05:45.000Z</time>
      </trkpt>
      <trkpt lat="48.28285" lon="7.37861">
        <ele>214.7</ele>
        <time>2000-01-01T02:05:55.000Z</time>
      </trkpt>
      <trkpt lat="48.28291" lon="7.3787">
        <ele>208</ele>
        <time>2000-01-01T02:06:05.000Z</time>
      </trkpt>
      <trkpt lat="48.2831" lon="7.37894">
        <ele>207</ele>
        <time>2000-01-01T02:06:15.000Z</time>
      </trkpt>
      <trkpt lat="48.28313" lon="7.37907">
        <ele>209</ele>
        <time>2000-01-01T02:06:25.000Z</time>
      </trkpt>
      <trkpt lat="48.28318" lon="7.37907">
        <ele>208.1</ele>
        <time>2000-01-01T02:06:35.000Z</time>
      </trkpt>
      <trkpt lat="48.28318" lon="7.37904">
        <ele>208.5</ele>
        <time>2000-01-01T02:06:45.000Z</time>
      </trkpt>
      <trkpt lat="48.28319" lon="7.37901">
        <ele>207</ele>
        <time>2000-01-01T02:06:55.000Z</time>
      </trkpt>
      <trkpt lat="48.2832" lon="7.37894">
        <ele>209.3</ele>
        <time>2000-01-01T02:07:05.000Z</time>
      </trkpt>
      <trkpt lat="48.28319" lon="7.3789">
        <ele>209.8</ele>
        <time>2000-01-01T02:07:15.000Z</time>
      </trkpt>
      <trkpt lat="48.28316" lon="7.37898">
        <ele>209.3</ele>
        <time>2000-01-01T02:07:25.000Z</time>
      </trkpt>
      <trkpt lat="48.28309" lon="7.37923">
        <ele>206</ele>
        <time>2000-01-01T02:07:35.000Z</time>
      </trkpt>
      <trkpt lat="48.28305" lon="7.37951">
        <ele>206</ele>
        <time>2000-01-01T02:07:45.000Z</time>
      </trkpt>
      <trkpt lat="48.28302" lon="7.37979">
        <ele>206</ele>
        <time>2000-01-01T02:07:55.000Z</time>
      </trkpt>
      <trkpt lat="48.28302" lon="7.37997">
        <ele>208.4</ele>
        <time>2000-01-01T02:08:05.000Z</time>
      </trkpt>
      <trkpt lat="48.28307" lon="7.38025">
        <ele>205</ele>
        <time>2000-01-01T02:08:15.000Z</time>
      </trkpt>
      <trkpt lat="48.28305" lon="7.38056">
        <ele>205</ele>
        <time>2000-01-01T02:08:25.000Z</time>
      </trkpt>
      <trkpt lat="48.28307" lon="7.38087">
        <ele>205</ele>
        <time>2000-01-01T02:08:35.000Z</time>
      </trkpt>
      <trkpt lat="48.28305" lon="7.38106">
        <ele>203</ele>
        <time>2000-01-01T02:08:45.000Z</time>
      </trkpt>
      <trkpt lat="48.283" lon="7.38135">
        <ele>204</ele>
        <time>2000-01-01T02:08:55.000Z</time>
      </trkpt>
      <trkpt lat="48.28296" lon="7.38164">
        <ele>204</ele>
        <time>2000-01-01T02:09:05.000Z</time>
      </trkpt>
      <trkpt lat="48.28291" lon="7.3819">
        <ele>204</ele>
        <time>2000-01-01T02:09:15.000Z</time>
      </trkpt>
      <trkpt lat="48.2829" lon="7.38213">
        <ele>200.5</ele>
        <time>2000-01-01T02:09:25.000Z</time>
      </trkpt>
      <trkpt lat="48.28298" lon="7.38219">
        <ele>204</ele>
        <time>2000-01-01T02:09:35.000Z</time>
      </trkpt>
      <trkpt lat="48.28308" lon="7.38242">
        <ele>203</ele>
        <time>2000-01-01T02:09:45.000Z</time>
      </trkpt>
      <trkpt lat="48.28327" lon="7.38246">
        <ele>203</ele>
        <time>2000-01-01T02:09:55.000Z</time>
      </trkpt>
      <trkpt lat="48.28338" lon="7.38242">
        <ele>200.8</ele>
        <time>2000-01-01T02:10:05.000Z</time>
      </trkpt>
      <trkpt lat="48.28357" lon="7.38235">
        <ele>203</ele>
        <time>2000-01-01T02:10:15.000Z</time>
      </trkpt>
      <trkpt lat="48.28375" lon="7.38227">
        <ele>203</ele>
        <time>2000-01-01T02:10:25.000Z</time>
      </trkpt>
      <trkpt lat="48.28393" lon="7.38213">
        <ele>202</ele>
        <time>2000-01-01T02:10:35.000Z</time>
      </trkpt>
      <trkpt lat="48.28399" lon="7.38206">
        <ele>200.5</ele>
        <time>2000-01-01T02:10:45.000Z</time>
      </trkpt>
      <trkpt lat="48.28402" lon="7.38177">
        <ele>202</ele>
        <time>2000-01-01T02:10:55.000Z</time>
      </trkpt>
      <trkpt lat="48.28407" lon="7.38151">
        <ele>202</ele>
        <time>2000-01-01T02:11:05.000Z</time>
      </trkpt>
      <trkpt lat="48.28405" lon="7.38121">
        <ele>203</ele>
        <time>2000-01-01T02:11:15.000Z</time>
      </trkpt>
      <trkpt lat="48.28408" lon="7.38094">
        <ele>201.2</ele>
        <time>2000-01-01T02:11:25.000Z</time>
      </trkpt>
      <trkpt lat="48.2841" lon="7.38065">
        <ele>204</ele>
        <time>2000-01-01T02:11:35.000Z</time>
      </trkpt>
      <trkpt lat="48.2841" lon="7.38053">
        <ele>201.9</ele>
        <time>2000-01-01T02:11:45.000Z</time>
      </trkpt>
      <trkpt lat="48.28412" lon="7.38023">
        <ele>204</ele>
        <time>2000-01-01T02:11:55.000Z</time>
      </trkpt>
      <trkpt lat="48.28415" lon="7.37994">
        <ele>204</ele>
        <time>2000-01-01T02:12:05.000Z</time>
      </trkpt>
      <trkpt lat="48.28417" lon="7.37966">
        <ele>204</ele>
        <time>2000-01-01T02:12:15.000Z</time>
      </trkpt>
      <trkpt lat="48.28417" lon="7.37949">
        <ele>201.6</ele>
        <time>2000-01-01T02:12:25.000Z</time>
      </trkpt>
      <trkpt lat="48.28419" lon="7.37918">
        <ele>205</ele>
        <time>2000-01-01T02:12:35.000Z</time>
      </trkpt>
      <trkpt lat="48.28419" lon="7.37906">
        <ele>201.4</ele>
        <time>2000-01-01T02:12:45.000Z</time>
      </trkpt>
      <trkpt lat="48.28419" lon="7.37878">
        <ele>205</ele>
        <time>2000-01-01T02:12:55.000Z</time>
      </trkpt>
      <trkpt lat="48.2842" lon="7.3785">
        <ele>205</ele>
        <time>2000-01-01T02:13:05.000Z</time>
      </trkpt>
      <trkpt lat="48.2842" lon="7.37822">
        <ele>205</ele>
        <time>2000-01-01T02:13:15.000Z</time>
      </trkpt>
      <trkpt lat="48.28418" lon="7.37793">
        <ele>206</ele>
        <time>2000-01-01T02:13:25.000Z</time>
      </trkpt>
      <trkpt lat="48.28417" lon="7.37765">
        <ele>206</ele>
        <time>2000-01-01T02:13:35.000Z</time>
      </trkpt>
      <trkpt lat="48.28415" lon="7.37733">
        <ele>206</ele>
        <time>2000-01-01T02:13:45.000Z</time>
      </trkpt>
      <trkpt lat="48.28414" lon="7.37705">
        <ele>206</ele>
        <time>2000-01-01T02:13:55.000Z</time>
      </trkpt>
      <trkpt lat="48.28412" lon="7.37676">
        <ele>206</ele>
        <time>2000-01-01T02:14:05.000Z</time>
      </trkpt>
      <trkpt lat="48.2841" lon="7.37645">
        <ele>206</ele>
        <time>2000-01-01T02:14:15.000Z</time>
      </trkpt>
      <trkpt lat="48.28409" lon="7.37616">
        <ele>208</ele>
        <time>2000-01-01T02:14:25.000Z</time>
      </trkpt>
      <trkpt lat="48.28408" lon="7.376">
        <ele>206.6</ele>
        <time>2000-01-01T02:14:35.000Z</time>
      </trkpt>
      <trkpt lat="48.28409" lon="7.37591">
        <ele>205.5</ele>
        <time>2000-01-01T02:14:45.000Z</time>
      </trkpt>
      <trkpt lat="48.28407" lon="7.37592">
        <ele>208</ele>
        <time>2000-01-01T02:14:55.000Z</time>
      </trkpt>
      <trkpt lat="48.28401" lon="7.37567">
        <ele>207.9</ele>
        <time>2000-01-01T02:15:05.000Z</time>
      </trkpt>
      <trkpt lat="48.28398" lon="7.37539">
        <ele>208</ele>
        <time>2000-01-01T02:15:15.000Z</time>
      </trkpt>
      <trkpt lat="48.28394" lon="7.37512">
        <ele>208</ele>
        <time>2000-01-01T02:15:25.000Z</time>
      </trkpt>
      <trkpt lat="48.28389" lon="7.37485">
        <ele>209</ele>
        <time>2000-01-01T02:15:35.000Z</time>
      </trkpt>
      <trkpt lat="48.28382" lon="7.37456">
        <ele>209</ele>
        <time>2000-01-01T02:15:45.000Z</time>
      </trkpt>
      <trkpt lat="48.28378" lon="7.37428">
        <ele>209</ele>
        <time>2000-01-01T02:15:55.000Z</time>
      </trkpt>
      <trkpt lat="48.28373" lon="7.374">
        <ele>210</ele>
        <time>2000-01-01T02:16:05.000Z</time>
      </trkpt>
      <trkpt lat="48.28371" lon="7.37382">
        <ele>212.6</ele>
        <time>2000-01-01T02:16:15.000Z</time>
      </trkpt>
      <trkpt lat="48.28369" lon="7.37354">
        <ele>210</ele>
        <time>2000-01-01T02:16:25.000Z</time>
      </trkpt>
      <trkpt lat="48.28366" lon="7.37326">
        <ele>210</ele>
        <time>2000-01-01T02:16:35.000Z</time>
      </trkpt>
      <trkpt lat="48.2836" lon="7.37298">
        <ele>210</ele>
        <time>2000-01-01T02:16:45.000Z</time>
      </trkpt>
      <trkpt lat="48.28356" lon="7.3727">
        <ele>211</ele>
        <time>2000-01-01T02:16:55.000Z</time>
      </trkpt>
      <trkpt lat="48.28352" lon="7.37247">
        <ele>211.7</ele>
        <time>2000-01-01T02:17:05.000Z</time>
      </trkpt>
      <trkpt lat="48.28351" lon="7.37218">
        <ele>211</ele>
        <time>2000-01-01T02:17:15.000Z</time>
      </trkpt>
      <trkpt lat="48.28347" lon="7.37184">
        <ele>212</ele>
        <time>2000-01-01T02:17:25.000Z</time>
      </trkpt>
      <trkpt lat="48.28344" lon="7.37156">
        <ele>212</ele>
        <time>2000-01-01T02:17:35.000Z</time>
      </trkpt>
      <trkpt lat="48.2834" lon="7.37129">
        <ele>212</ele>
        <time>2000-01-01T02:17:45.000Z</time>
      </trkpt>
      <trkpt lat="48.28336" lon="7.37101">
        <ele>213</ele>
        <time>2000-01-01T02:17:55.000Z</time>
      </trkpt>
      <trkpt lat="48.28333" lon="7.37074">
        <ele>213</ele>
        <time>2000-01-01T02:18:05.000Z</time>
      </trkpt>
      <trkpt lat="48.28332" lon="7.37063">
        <ele>212</ele>
        <time>2000-01-01T02:18:15.000Z</time>
      </trkpt>
      <trkpt lat="48.28328" lon="7.37033">
        <ele>213</ele>
        <time>2000-01-01T02:18:25.000Z</time>
      </trkpt>
      <trkpt lat="48.28323" lon="7.37013">
        <ele>212.7</ele>
        <time>2000-01-01T02:18:35.000Z</time>
      </trkpt>
      <trkpt lat="48.28318" lon="7.36986">
        <ele>214</ele>
        <time>2000-01-01T02:18:45.000Z</time>
      </trkpt>
      <trkpt lat="48.28313" lon="7.36959">
        <ele>214</ele>
        <time>2000-01-01T02:18:55.000Z</time>
      </trkpt>
      <trkpt lat="48.28311" lon="7.36932">
        <ele>214</ele>
        <time>2000-01-01T02:19:05.000Z</time>
      </trkpt>
      <trkpt lat="48.28308" lon="7.36903">
        <ele>214</ele>
        <time>2000-01-01T02:19:15.000Z</time>
      </trkpt>
      <trkpt lat="48.28304" lon="7.36874">
        <ele>214</ele>
        <time>2000-01-01T02:19:25.000Z</time>
      </trkpt>
      <trkpt lat="48.283" lon="7.36848">
        <ele>215</ele>
        <time>2000-01-01T02:19:35.000Z</time>
      </trkpt>
      <trkpt lat="48.28296" lon="7.36821">
        <ele>215</ele>
        <time>2000-01-01T02:19:45.000Z</time>
      </trkpt>
      <trkpt lat="48.28291" lon="7.36794">
        <ele>215</ele>
        <time>2000-01-01T02:19:55.000Z</time>
      </trkpt>
      <trkpt lat="48.28287" lon="7.36764">
        <ele>215</ele>
        <time>2000-01-01T02:20:05.000Z</time>
      </trkpt>
      <trkpt lat="48.28286" lon="7.36736">
        <ele>215</ele>
        <time>2000-01-01T02:20:15.000Z</time>
      </trkpt>
      <trkpt lat="48.28297" lon="7.36715">
        <ele>214.4</ele>
        <time>2000-01-01T02:20:25.000Z</time>
      </trkpt>
      <trkpt lat="48.28315" lon="7.36707">
        <ele>215</ele>
        <time>2000-01-01T02:20:35.000Z</time>
      </trkpt>
      <trkpt lat="48.28332" lon="7.36695">
        <ele>215</ele>
        <time>2000-01-01T02:20:45.000Z</time>
      </trkpt>
      <trkpt lat="48.28348" lon="7.36683">
        <ele>215</ele>
        <time>2000-01-01T02:20:55.000Z</time>
      </trkpt>
      <trkpt lat="48.28363" lon="7.36667">
        <ele>215</ele>
        <time>2000-01-01T02:21:05.000Z</time>
      </trkpt>
      <trkpt lat="48.28373" lon="7.36657">
        <ele>211.4</ele>
        <time>2000-01-01T02:21:15.000Z</time>
      </trkpt>
      <trkpt lat="48.28384" lon="7.36631">
        <ele>214</ele>
        <time>2000-01-01T02:21:25.000Z</time>
      </trkpt>
      <trkpt lat="48.28388" lon="7.36602">
        <ele>214</ele>
        <time>2000-01-01T02:21:35.000Z</time>
      </trkpt>
      <trkpt lat="48.28389" lon="7.36573">
        <ele>214</ele>
        <time>2000-01-01T02:21:45.000Z</time>
      </trkpt>
      <trkpt lat="48.28387" lon="7.36541">
        <ele>214</ele>
        <time>2000-01-01T02:21:55.000Z</time>
      </trkpt>
      <trkpt lat="48.28386" lon="7.36512">
        <ele>214</ele>
        <time>2000-01-01T02:22:05.000Z</time>
      </trkpt>
      <trkpt lat="48.28387" lon="7.36484">
        <ele>214</ele>
        <time>2000-01-01T02:22:15.000Z</time>
      </trkpt>
      <trkpt lat="48.28386" lon="7.36446">
        <ele>214</ele>
        <time>2000-01-01T02:22:25.000Z</time>
      </trkpt>
      <trkpt lat="48.28389" lon="7.36417">
        <ele>214</ele>
        <time>2000-01-01T02:22:35.000Z</time>
      </trkpt>
      <trkpt lat="48.28391" lon="7.3639">
        <ele>214</ele>
        <time>2000-01-01T02:22:45.000Z</time>
      </trkpt>
      <trkpt lat="48.28391" lon="7.36361">
        <ele>214</ele>
        <time>2000-01-01T02:22:55.000Z</time>
      </trkpt>
      <trkpt lat="48.28393" lon="7.36333">
        <ele>214</ele>
        <time>2000-01-01T02:23:05.000Z</time>
      </trkpt>
      <trkpt lat="48.28395" lon="7.36304">
        <ele>214</ele>
        <time>2000-01-01T02:23:15.000Z</time>
      </trkpt>
      <trkpt lat="48.28398" lon="7.36274">
        <ele>214</ele>
        <time>2000-01-01T02:23:25.000Z</time>
      </trkpt>
      <trkpt lat="48.28398" lon="7.36244">
        <ele>214</ele>
        <time>2000-01-01T02:23:35.000Z</time>
      </trkpt>
      <trkpt lat="48.28399" lon="7.36214">
        <ele>214</ele>
        <time>2000-01-01T02:23:45.000Z</time>
      </trkpt>
      <trkpt lat="48.284" lon="7.36187">
        <ele>214</ele>
        <time>2000-01-01T02:23:55.000Z</time>
      </trkpt>
      <trkpt lat="48.28395" lon="7.3616">
        <ele>214</ele>
        <time>2000-01-01T02:24:05.000Z</time>
      </trkpt>
      <trkpt lat="48.28387" lon="7.36134">
        <ele>214</ele>
        <time>2000-01-01T02:24:15.000Z</time>
      </trkpt>
      <trkpt lat="48.28383" lon="7.36107">
        <ele>215</ele>
        <time>2000-01-01T02:24:25.000Z</time>
      </trkpt>
      <trkpt lat="48.28379" lon="7.36079">
        <ele>215</ele>
        <time>2000-01-01T02:24:35.000Z</time>
      </trkpt>
      <trkpt lat="48.2837" lon="7.36042">
        <ele>215</ele>
        <time>2000-01-01T02:24:45.000Z</time>
      </trkpt>
      <trkpt lat="48.28358" lon="7.36017">
        <ele>215</ele>
        <time>2000-01-01T02:24:55.000Z</time>
      </trkpt>
      <trkpt lat="48.28347" lon="7.35994">
        <ele>216</ele>
        <time>2000-01-01T02:25:05.000Z</time>
      </trkpt>
      <trkpt lat="48.28338" lon="7.3597">
        <ele>216</ele>
        <time>2000-01-01T02:25:15.000Z</time>
      </trkpt>
      <trkpt lat="48.28333" lon="7.35942">
        <ele>216</ele>
        <time>2000-01-01T02:25:25.000Z</time>
      </trkpt>
      <trkpt lat="48.28328" lon="7.3592">
        <ele>213.9</ele>
        <time>2000-01-01T02:25:35.000Z</time>
      </trkpt>
      <trkpt lat="48.2832" lon="7.35892">
        <ele>216</ele>
        <time>2000-01-01T02:25:45.000Z</time>
      </trkpt>
      <trkpt lat="48.2831" lon="7.35866">
        <ele>216</ele>
        <time>2000-01-01T02:25:55.000Z</time>
      </trkpt>
      <trkpt lat="48.28301" lon="7.35842">
        <ele>217</ele>
        <time>2000-01-01T02:26:05.000Z</time>
      </trkpt>
      <trkpt lat="48.28295" lon="7.35815">
        <ele>217</ele>
        <time>2000-01-01T02:26:15.000Z</time>
      </trkpt>
      <trkpt lat="48.28297" lon="7.35787">
        <ele>217</ele>
        <time>2000-01-01T02:26:25.000Z</time>
      </trkpt>
      <trkpt lat="48.28303" lon="7.3576">
        <ele>217</ele>
        <time>2000-01-01T02:26:35.000Z</time>
      </trkpt>
      <trkpt lat="48.28305" lon="7.35741">
        <ele>215.7</ele>
        <time>2000-01-01T02:26:45.000Z</time>
      </trkpt>
      <trkpt lat="48.28307" lon="7.35712">
        <ele>218</ele>
        <time>2000-01-01T02:26:55.000Z</time>
      </trkpt>
      <trkpt lat="48.28309" lon="7.35684">
        <ele>218</ele>
        <time>2000-01-01T02:27:05.000Z</time>
      </trkpt>
      <trkpt lat="48.28304" lon="7.35656">
        <ele>218</ele>
        <time>2000-01-01T02:27:15.000Z</time>
      </trkpt>
      <trkpt lat="48.28298" lon="7.35628">
        <ele>218</ele>
        <time>2000-01-01T02:27:25.000Z</time>
      </trkpt>
      <trkpt lat="48.28295" lon="7.35609">
        <ele>215</ele>
        <time>2000-01-01T02:27:35.000Z</time>
      </trkpt>
      <trkpt lat="48.28292" lon="7.35582">
        <ele>219</ele>
        <time>2000-01-01T02:27:45.000Z</time>
      </trkpt>
      <trkpt lat="48.28288" lon="7.35554">
        <ele>219</ele>
        <time>2000-01-01T02:27:55.000Z</time>
      </trkpt>
      <trkpt lat="48.28285" lon="7.35527">
        <ele>219</ele>
        <time>2000-01-01T02:28:05.000Z</time>
      </trkpt>
      <trkpt lat="48.28284" lon="7.35497">
        <ele>219</ele>
        <time>2000-01-01T02:28:15.000Z</time>
      </trkpt>
      <trkpt lat="48.28283" lon="7.35482">
        <ele>216.9</ele>
        <time>2000-01-01T02:28:25.000Z</time>
      </trkpt>
      <trkpt lat="48.28274" lon="7.35455">
        <ele>220</ele>
        <time>2000-01-01T02:28:35.000Z</time>
      </trkpt>
      <trkpt lat="48.28265" lon="7.35427">
        <ele>220</ele>
        <time>2000-01-01T02:28:45.000Z</time>
      </trkpt>
      <trkpt lat="48.28259" lon="7.354">
        <ele>220</ele>
        <time>2000-01-01T02:28:55.000Z</time>
      </trkpt>
      <trkpt lat="48.28251" lon="7.35373">
        <ele>220</ele>
        <time>2000-01-01T02:29:05.000Z</time>
      </trkpt>
      <trkpt lat="48.28243" lon="7.35349">
        <ele>220</ele>
        <time>2000-01-01T02:29:15.000Z</time>
      </trkpt>
      <trkpt lat="48.28236" lon="7.35324">
        <ele>220</ele>
        <time>2000-01-01T02:29:25.000Z</time>
      </trkpt>
      <trkpt lat="48.2823" lon="7.35295">
        <ele>220</ele>
        <time>2000-01-01T02:29:35.000Z</time>
      </trkpt>
      <trkpt lat="48.28224" lon="7.35268">
        <ele>221</ele>
        <time>2000-01-01T02:29:45.000Z</time>
      </trkpt>
      <trkpt lat="48.28221" lon="7.35253">
        <ele>218.3</ele>
        <time>2000-01-01T02:29:55.000Z</time>
      </trkpt>
      <trkpt lat="48.28216" lon="7.35227">
        <ele>221</ele>
        <time>2000-01-01T02:30:05.000Z</time>
      </trkpt>
      <trkpt lat="48.28212" lon="7.35198">
        <ele>221</ele>
        <time>2000-01-01T02:30:15.000Z</time>
      </trkpt>
      <trkpt lat="48.28211" lon="7.3517">
        <ele>221</ele>
        <time>2000-01-01T02:30:25.000Z</time>
      </trkpt>
      <trkpt lat="48.28208" lon="7.35141">
        <ele>221</ele>
        <time>2000-01-01T02:30:35.000Z</time>
      </trkpt>
      <trkpt lat="48.28206" lon="7.35112">
        <ele>221</ele>
        <time>2000-01-01T02:30:45.000Z</time>
      </trkpt>
      <trkpt lat="48.28205" lon="7.351">
        <ele>223</ele>
        <time>2000-01-01T02:30:55.000Z</time>
      </trkpt>
      <trkpt lat="48.28205" lon="7.35071">
        <ele>222</ele>
        <time>2000-01-01T02:31:05.000Z</time>
      </trkpt>
      <trkpt lat="48.28206" lon="7.35043">
        <ele>222</ele>
        <time>2000-01-01T02:31:15.000Z</time>
      </trkpt>
      <trkpt lat="48.28204" lon="7.35016">
        <ele>222</ele>
        <time>2000-01-01T02:31:25.000Z</time>
      </trkpt>
      <trkpt lat="48.28195" lon="7.34992">
        <ele>222</ele>
        <time>2000-01-01T02:31:35.000Z</time>
      </trkpt>
      <trkpt lat="48.2818" lon="7.34972">
        <ele>223</ele>
        <time>2000-01-01T02:31:45.000Z</time>
      </trkpt>
      <trkpt lat="48.28167" lon="7.34951">
        <ele>223</ele>
        <time>2000-01-01T02:31:55.000Z</time>
      </trkpt>
      <trkpt lat="48.28154" lon="7.34921">
        <ele>223</ele>
        <time>2000-01-01T02:32:05.000Z</time>
      </trkpt>
      <trkpt lat="48.28143" lon="7.34897">
        <ele>223</ele>
        <time>2000-01-01T02:32:15.000Z</time>
      </trkpt>
      <trkpt lat="48.2813" lon="7.34878">
        <ele>223</ele>
        <time>2000-01-01T02:32:25.000Z</time>
      </trkpt>
      <trkpt lat="48.28118" lon="7.34856">
        <ele>223</ele>
        <time>2000-01-01T02:32:35.000Z</time>
      </trkpt>
      <trkpt lat="48.28105" lon="7.34834">
        <ele>223</ele>
        <time>2000-01-01T02:32:45.000Z</time>
      </trkpt>
      <trkpt lat="48.28093" lon="7.34814">
        <ele>223</ele>
        <time>2000-01-01T02:32:55.000Z</time>
      </trkpt>
      <trkpt lat="48.2808" lon="7.34795">
        <ele>223</ele>
        <time>2000-01-01T02:33:05.000Z</time>
      </trkpt>
      <trkpt lat="48.28063" lon="7.34778">
        <ele>224</ele>
        <time>2000-01-01T02:33:15.000Z</time>
      </trkpt>
      <trkpt lat="48.28054" lon="7.34765">
        <ele>222.4</ele>
        <time>2000-01-01T02:33:25.000Z</time>
      </trkpt>
      <trkpt lat="48.28039" lon="7.3475">
        <ele>224</ele>
        <time>2000-01-01T02:33:35.000Z</time>
      </trkpt>
      <trkpt lat="48.28023" lon="7.34734">
        <ele>224</ele>
        <time>2000-01-01T02:33:45.000Z</time>
      </trkpt>
      <trkpt lat="48.28008" lon="7.34719">
        <ele>223</ele>
        <time>2000-01-01T02:33:55.000Z</time>
      </trkpt>
      <trkpt lat="48.27993" lon="7.34704">
        <ele>223</ele>
        <time>2000-01-01T02:34:05.000Z</time>
      </trkpt>
      <trkpt lat="48.27976" lon="7.3469">
        <ele>223</ele>
        <time>2000-01-01T02:34:15.000Z</time>
      </trkpt>
      <trkpt lat="48.27957" lon="7.34678">
        <ele>223</ele>
        <time>2000-01-01T02:34:25.000Z</time>
      </trkpt>
      <trkpt lat="48.27944" lon="7.34668">
        <ele>223.4</ele>
        <time>2000-01-01T02:34:35.000Z</time>
      </trkpt>
      <trkpt lat="48.27927" lon="7.34658">
        <ele>224</ele>
        <time>2000-01-01T02:34:45.000Z</time>
      </trkpt>
      <trkpt lat="48.27911" lon="7.34644">
        <ele>224</ele>
        <time>2000-01-01T02:34:55.000Z</time>
      </trkpt>
      <trkpt lat="48.27894" lon="7.34632">
        <ele>226</ele>
        <time>2000-01-01T02:35:05.000Z</time>
      </trkpt>
      <trkpt lat="48.27878" lon="7.34612">
        <ele>226</ele>
        <time>2000-01-01T02:35:15.000Z</time>
      </trkpt>
      <trkpt lat="48.27863" lon="7.3459">
        <ele>226</ele>
        <time>2000-01-01T02:35:25.000Z</time>
      </trkpt>
      <trkpt lat="48.27852" lon="7.34567">
        <ele>226</ele>
        <time>2000-01-01T02:35:35.000Z</time>
      </trkpt>
      <trkpt lat="48.27841" lon="7.34551">
        <ele>224.2</ele>
        <time>2000-01-01T02:35:45.000Z</time>
      </trkpt>
      <trkpt lat="48.27828" lon="7.34529">
        <ele>226</ele>
        <time>2000-01-01T02:35:55.000Z</time>
      </trkpt>
      <trkpt lat="48.27817" lon="7.34501">
        <ele>225</ele>
        <time>2000-01-01T02:36:05.000Z</time>
      </trkpt>
      <trkpt lat="48.27816" lon="7.34489">
        <ele>225.3</ele>
        <time>2000-01-01T02:36:15.000Z</time>
      </trkpt>
      <trkpt lat="48.27831" lon="7.34472">
        <ele>225</ele>
        <time>2000-01-01T02:36:25.000Z</time>
      </trkpt>
      <trkpt lat="48.27847" lon="7.34455">
        <ele>227</ele>
        <time>2000-01-01T02:36:35.000Z</time>
      </trkpt>
      <trkpt lat="48.27864" lon="7.34441">
        <ele>227</ele>
        <time>2000-01-01T02:36:45.000Z</time>
      </trkpt>
      <trkpt lat="48.2788" lon="7.34424">
        <ele>227</ele>
        <time>2000-01-01T02:36:55.000Z</time>
      </trkpt>
      <trkpt lat="48.27896" lon="7.34406">
        <ele>227</ele>
        <time>2000-01-01T02:37:05.000Z</time>
      </trkpt>
      <trkpt lat="48.27909" lon="7.34385">
        <ele>227</ele>
        <time>2000-01-01T02:37:15.000Z</time>
      </trkpt>
      <trkpt lat="48.27915" lon="7.34358">
        <ele>227</ele>
        <time>2000-01-01T02:37:25.000Z</time>
      </trkpt>
      <trkpt lat="48.27913" lon="7.34337">
        <ele>228.5</ele>
        <time>2000-01-01T02:37:35.000Z</time>
      </trkpt>
      <trkpt lat="48.2791" lon="7.3431">
        <ele>227</ele>
        <time>2000-01-01T02:37:45.000Z</time>
      </trkpt>
      <trkpt lat="48.27908" lon="7.34282">
        <ele>229</ele>
        <time>2000-01-01T02:37:55.000Z</time>
      </trkpt>
      <trkpt lat="48.27907" lon="7.34245">
        <ele>230</ele>
        <time>2000-01-01T02:38:05.000Z</time>
      </trkpt>
      <trkpt lat="48.27906" lon="7.34219">
        <ele>228.4</ele>
        <time>2000-01-01T02:38:15.000Z</time>
      </trkpt>
      <trkpt lat="48.27908" lon="7.34213">
        <ele>231</ele>
        <time>2000-01-01T02:38:25.000Z</time>
      </trkpt>
      <trkpt lat="48.27913" lon="7.34212">
        <ele>228.4</ele>
        <time>2000-01-01T02:38:35.000Z</time>
      </trkpt>
      <trkpt lat="48.27925" lon="7.34215">
        <ele>233</ele>
        <time>2000-01-01T02:38:45.000Z</time>
      </trkpt>
      <trkpt lat="48.27944" lon="7.34224">
        <ele>235</ele>
        <time>2000-01-01T02:38:55.000Z</time>
      </trkpt>
      <trkpt lat="48.27959" lon="7.34234">
        <ele>234.2</ele>
        <time>2000-01-01T02:39:05.000Z</time>
      </trkpt>
      <trkpt lat="48.27975" lon="7.34238">
        <ele>237</ele>
        <time>2000-01-01T02:39:15.000Z</time>
      </trkpt>
      <trkpt lat="48.27994" lon="7.34248">
        <ele>238</ele>
        <time>2000-01-01T02:39:25.000Z</time>
      </trkpt>
      <trkpt lat="48.2801" lon="7.34256">
        <ele>238.2</ele>
        <time>2000-01-01T02:39:35.000Z</time>
      </trkpt>
      <trkpt lat="48.28028" lon="7.34268">
        <ele>239</ele>
        <time>2000-01-01T02:39:45.000Z</time>
      </trkpt>
      <trkpt lat="48.28044" lon="7.34274">
        <ele>239</ele>
        <time>2000-01-01T02:39:55.000Z</time>
      </trkpt>
      <trkpt lat="48.28061" lon="7.34282">
        <ele>240</ele>
        <time>2000-01-01T02:40:05.000Z</time>
      </trkpt>
      <trkpt lat="48.28075" lon="7.34292">
        <ele>239.3</ele>
        <time>2000-01-01T02:40:15.000Z</time>
      </trkpt>
      <trkpt lat="48.28089" lon="7.34302">
        <ele>241</ele>
        <time>2000-01-01T02:40:25.000Z</time>
      </trkpt>
      <trkpt lat="48.28103" lon="7.34304">
        <ele>241.9</ele>
        <time>2000-01-01T02:40:35.000Z</time>
      </trkpt>
      <trkpt lat="48.28123" lon="7.34303">
        <ele>243</ele>
        <time>2000-01-01T02:40:45.000Z</time>
      </trkpt>
      <trkpt lat="48.28138" lon="7.34298">
        <ele>242.9</ele>
        <time>2000-01-01T02:40:55.000Z</time>
      </trkpt>
      <trkpt lat="48.28156" lon="7.34287">
        <ele>244</ele>
        <time>2000-01-01T02:41:05.000Z</time>
      </trkpt>
      <trkpt lat="48.28175" lon="7.3427">
        <ele>246</ele>
        <time>2000-01-01T02:41:15.000Z</time>
      </trkpt>
      <trkpt lat="48.28192" lon="7.34257">
        <ele>246</ele>
        <time>2000-01-01T02:41:25.000Z</time>
      </trkpt>
      <trkpt lat="48.28211" lon="7.34246">
        <ele>246</ele>
        <time>2000-01-01T02:41:35.000Z</time>
      </trkpt>
      <trkpt lat="48.28228" lon="7.34234">
        <ele>246</ele>
        <time>2000-01-01T02:41:45.000Z</time>
      </trkpt>
      <trkpt lat="48.28245" lon="7.34223">
        <ele>247</ele>
        <time>2000-01-01T02:41:55.000Z</time>
      </trkpt>
      <trkpt lat="48.28263" lon="7.34209">
        <ele>247</ele>
        <time>2000-01-01T02:42:05.000Z</time>
      </trkpt>
      <trkpt lat="48.2828" lon="7.34194">
        <ele>248</ele>
        <time>2000-01-01T02:42:15.000Z</time>
      </trkpt>
      <trkpt lat="48.28294" lon="7.34173">
        <ele>249</ele>
        <time>2000-01-01T02:42:25.000Z</time>
      </trkpt>
      <trkpt lat="48.28298" lon="7.34162">
        <ele>252.9</ele>
        <time>2000-01-01T02:42:35.000Z</time>
      </trkpt>
      <trkpt lat="48.28311" lon="7.34141">
        <ele>249</ele>
        <time>2000-01-01T02:42:45.000Z</time>
      </trkpt>
      <trkpt lat="48.28323" lon="7.34128">
        <ele>254</ele>
        <time>2000-01-01T02:42:55.000Z</time>
      </trkpt>
      <trkpt lat="48.28338" lon="7.34112">
        <ele>249</ele>
        <time>2000-01-01T02:43:05.000Z</time>
      </trkpt>
      <trkpt lat="48.28352" lon="7.34092">
        <ele>249</ele>
        <time>2000-01-01T02:43:15.000Z</time>
      </trkpt>
      <trkpt lat="48.28365" lon="7.34077">
        <ele>261.3</ele>
        <time>2000-01-01T02:43:25.000Z</time>
      </trkpt>
      <trkpt lat="48.2838" lon="7.34055">
        <ele>251</ele>
        <time>2000-01-01T02:43:35.000Z</time>
      </trkpt>
      <trkpt lat="48.2839" lon="7.34038">
        <ele>262.8</ele>
        <time>2000-01-01T02:43:45.000Z</time>
      </trkpt>
      <trkpt lat="48.28398" lon="7.3402">
        <ele>256</ele>
        <time>2000-01-01T02:43:55.000Z</time>
      </trkpt>
      <trkpt lat="48.28403" lon="7.3401">
        <ele>264.2</ele>
        <time>2000-01-01T02:44:05.000Z</time>
      </trkpt>
      <trkpt lat="48.28405" lon="7.33998">
        <ele>265.6</ele>
        <time>2000-01-01T02:44:15.000Z</time>
      </trkpt>
      <trkpt lat="48.28406" lon="7.33988">
        <ele>259</ele>
        <time>2000-01-01T02:44:25.000Z</time>
      </trkpt>
      <trkpt lat="48.28405" lon="7.33985">
        <ele>265.6</ele>
        <time>2000-01-01T02:44:35.000Z</time>
      </trkpt>
      <trkpt lat="48.28405" lon="7.33973">
        <ele>265.7</ele>
        <time>2000-01-01T02:44:45.000Z</time>
      </trkpt>
      <trkpt lat="48.28402" lon="7.33949">
        <ele>261</ele>
        <time>2000-01-01T02:44:55.000Z</time>
      </trkpt>
      <trkpt lat="48.284" lon="7.33929">
        <ele>267.5</ele>
        <time>2000-01-01T02:45:05.000Z</time>
      </trkpt>
      <trkpt lat="48.284" lon="7.33921">
        <ele>262</ele>
        <time>2000-01-01T02:45:15.000Z</time>
      </trkpt>
      <trkpt lat="48.28401" lon="7.33905">
        <ele>270</ele>
        <time>2000-01-01T02:45:25.000Z</time>
      </trkpt>
      <trkpt lat="48.28397" lon="7.33878">
        <ele>263</ele>
        <time>2000-01-01T02:45:35.000Z</time>
      </trkpt>
      <trkpt lat="48.28391" lon="7.33856">
        <ele>271.2</ele>
        <time>2000-01-01T02:45:45.000Z</time>
      </trkpt>
      <trkpt lat="48.28387" lon="7.33835">
        <ele>265</ele>
        <time>2000-01-01T02:45:55.000Z</time>
      </trkpt>
      <trkpt lat="48.28382" lon="7.33818">
        <ele>275.7</ele>
        <time>2000-01-01T02:46:05.000Z</time>
      </trkpt>
      <trkpt lat="48.28381" lon="7.33812">
        <ele>275.8</ele>
        <time>2000-01-01T02:46:15.000Z</time>
      </trkpt>
      <trkpt lat="48.28382" lon="7.33788">
        <ele>271</ele>
        <time>2000-01-01T02:46:25.000Z</time>
      </trkpt>
      <trkpt lat="48.28385" lon="7.33777">
        <ele>278</ele>
        <time>2000-01-01T02:46:35.000Z</time>
      </trkpt>
      <trkpt lat="48.28386" lon="7.33771">
        <ele>278.5</ele>
        <time>2000-01-01T02:46:45.000Z</time>
      </trkpt>
      <trkpt lat="48.28387" lon="7.33769">
        <ele>278.7</ele>
        <time>2000-01-01T02:46:55.000Z</time>
      </trkpt>
      <trkpt lat="48.28389" lon="7.33761">
        <ele>273</ele>
        <time>2000-01-01T02:47:05.000Z</time>
      </trkpt>
      <trkpt lat="48.28389" lon="7.33759">
        <ele>279.7</ele>
        <time>2000-01-01T02:47:15.000Z</time>
      </trkpt>
      <trkpt lat="48.28394" lon="7.33752">
        <ele>280.9</ele>
        <time>2000-01-01T02:47:25.000Z</time>
      </trkpt>
      <trkpt lat="48.28397" lon="7.33739">
        <ele>285.3</ele>
        <time>2000-01-01T02:47:35.000Z</time>
      </trkpt>
      <trkpt lat="48.28399" lon="7.33735">
        <ele>276</ele>
        <time>2000-01-01T02:47:45.000Z</time>
      </trkpt>
      <trkpt lat="48.28408" lon="7.33725">
        <ele>285.8</ele>
        <time>2000-01-01T02:47:55.000Z</time>
      </trkpt>
      <trkpt lat="48.28413" lon="7.3371">
        <ele>279</ele>
        <time>2000-01-01T02:48:05.000Z</time>
      </trkpt>
      <trkpt lat="48.28412" lon="7.33706">
        <ele>286.5</ele>
        <time>2000-01-01T02:48:15.000Z</time>
      </trkpt>
      <trkpt lat="48.28418" lon="7.33679">
        <ele>280</ele>
        <time>2000-01-01T02:48:25.000Z</time>
      </trkpt>
      <trkpt lat="48.28425" lon="7.33661">
        <ele>294.3</ele>
        <time>2000-01-01T02:48:35.000Z</time>
      </trkpt>
      <trkpt lat="48.28428" lon="7.3365">
        <ele>281</ele>
        <time>2000-01-01T02:48:45.000Z</time>
      </trkpt>
      <trkpt lat="48.28428" lon="7.33644">
        <ele>295.4</ele>
        <time>2000-01-01T02:48:55.000Z</time>
      </trkpt>
      <trkpt lat="48.28429" lon="7.33626">
        <ele>295.9</ele>
        <time>2000-01-01T02:49:05.000Z</time>
      </trkpt>
      <trkpt lat="48.28431" lon="7.33604">
        <ele>283</ele>
        <time>2000-01-01T02:49:15.000Z</time>
      </trkpt>
      <trkpt lat="48.28434" lon="7.33576">
        <ele>284</ele>
        <time>2000-01-01T02:49:25.000Z</time>
      </trkpt>
      <trkpt lat="48.28434" lon="7.33564">
        <ele>298.1</ele>
        <time>2000-01-01T02:49:35.000Z</time>
      </trkpt>
      <trkpt lat="48.28427" lon="7.33532">
        <ele>284</ele>
        <time>2000-01-01T02:49:45.000Z</time>
      </trkpt>
      <trkpt lat="48.28427" lon="7.3351">
        <ele>298</ele>
        <time>2000-01-01T02:49:55.000Z</time>
      </trkpt>
      <trkpt lat="48.28427" lon="7.33495">
        <ele>285</ele>
        <time>2000-01-01T02:50:05.000Z</time>
      </trkpt>
      <trkpt lat="48.28427" lon="7.33484">
        <ele>300.7</ele>
        <time>2000-01-01T02:50:15.000Z</time>
      </trkpt>
      <trkpt lat="48.28425" lon="7.33463">
        <ele>286</ele>
        <time>2000-01-01T02:50:25.000Z</time>
      </trkpt>
      <trkpt lat="48.2842" lon="7.33434">
        <ele>286</ele>
        <time>2000-01-01T02:50:35.000Z</time>
      </trkpt>
      <trkpt lat="48.28417" lon="7.33422">
        <ele>300.9</ele>
        <time>2000-01-01T02:50:45.000Z</time>
      </trkpt>
      <trkpt lat="48.28406" lon="7.334">
        <ele>287</ele>
        <time>2000-01-01T02:50:55.000Z</time>
      </trkpt>
      <trkpt lat="48.28398" lon="7.33372">
        <ele>287</ele>
        <time>2000-01-01T02:51:05.000Z</time>
      </trkpt>
      <trkpt lat="48.2839" lon="7.33342">
        <ele>288</ele>
        <time>2000-01-01T02:51:15.000Z</time>
      </trkpt>
      <trkpt lat="48.28382" lon="7.33318">
        <ele>304.6</ele>
        <time>2000-01-01T02:51:25.000Z</time>
      </trkpt>
      <trkpt lat="48.28381" lon="7.33289">
        <ele>289</ele>
        <time>2000-01-01T02:51:35.000Z</time>
      </trkpt>
      <trkpt lat="48.28378" lon="7.3326">
        <ele>290</ele>
        <time>2000-01-01T02:51:45.000Z</time>
      </trkpt>
      <trkpt lat="48.28382" lon="7.33231">
        <ele>296</ele>
        <time>2000-01-01T02:51:55.000Z</time>
      </trkpt>
      <trkpt lat="48.28387" lon="7.33202">
        <ele>297</ele>
        <time>2000-01-01T02:52:05.000Z</time>
      </trkpt>
      <trkpt lat="48.28384" lon="7.33174">
        <ele>298</ele>
        <time>2000-01-01T02:52:15.000Z</time>
      </trkpt>
      <trkpt lat="48.2839" lon="7.33147">
        <ele>298</ele>
        <time>2000-01-01T02:52:25.000Z</time>
      </trkpt>
      <trkpt lat="48.2839" lon="7.33144">
        <ele>318.1</ele>
        <time>2000-01-01T02:52:35.000Z</time>
      </trkpt>
      <trkpt lat="48.28386" lon="7.33129">
        <ele>318</ele>
        <time>2000-01-01T02:52:45.000Z</time>
      </trkpt>
      <trkpt lat="48.28389" lon="7.33116">
        <ele>299</ele>
        <time>2000-01-01T02:52:55.000Z</time>
      </trkpt>
      <trkpt lat="48.28385" lon="7.33084">
        <ele>300</ele>
        <time>2000-01-01T02:53:05.000Z</time>
      </trkpt>
      <trkpt lat="48.28387" lon="7.3307">
        <ele>321.6</ele>
        <time>2000-01-01T02:53:15.000Z</time>
      </trkpt>
      <trkpt lat="48.28388" lon="7.33067">
        <ele>321.6</ele>
        <time>2000-01-01T02:53:25.000Z</time>
      </trkpt>
      <trkpt lat="48.28385" lon="7.33059">
        <ele>321.4</ele>
        <time>2000-01-01T02:53:35.000Z</time>
      </trkpt>
      <trkpt lat="48.2839" lon="7.33041">
        <ele>304</ele>
        <time>2000-01-01T02:53:45.000Z</time>
      </trkpt>
      <trkpt lat="48.28398" lon="7.33024">
        <ele>322.8</ele>
        <time>2000-01-01T02:53:55.000Z</time>
      </trkpt>
      <trkpt lat="48.28401" lon="7.33015">
        <ele>302</ele>
        <time>2000-01-01T02:54:05.000Z</time>
      </trkpt>
      <trkpt lat="48.284" lon="7.32998">
        <ele>325.2</ele>
        <time>2000-01-01T02:54:15.000Z</time>
      </trkpt>
      <trkpt lat="48.2839" lon="7.32976">
        <ele>303</ele>
        <time>2000-01-01T02:54:25.000Z</time>
      </trkpt>
      <trkpt lat="48.28392" lon="7.32947">
        <ele>304</ele>
        <time>2000-01-01T02:54:35.000Z</time>
      </trkpt>
      <trkpt lat="48.28395" lon="7.32928">
        <ele>325.3</ele>
        <time>2000-01-01T02:54:45.000Z</time>
      </trkpt>
      <trkpt lat="48.28401" lon="7.32903">
        <ele>304</ele>
        <time>2000-01-01T02:54:55.000Z</time>
      </trkpt>
      <trkpt lat="48.28399" lon="7.3287">
        <ele>305</ele>
        <time>2000-01-01T02:55:05.000Z</time>
      </trkpt>
      <trkpt lat="48.28397" lon="7.32831">
        <ele>305</ele>
        <time>2000-01-01T02:55:15.000Z</time>
      </trkpt>
      <trkpt lat="48.28403" lon="7.32806">
        <ele>329.1</ele>
        <time>2000-01-01T02:55:25.000Z</time>
      </trkpt>
      <trkpt lat="48.28406" lon="7.32794">
        <ele>307</ele>
        <time>2000-01-01T02:55:35.000Z</time>
      </trkpt>
      <trkpt lat="48.28411" lon="7.32783">
        <ele>329.7</ele>
        <time>2000-01-01T02:55:45.000Z</time>
      </trkpt>
      <trkpt lat="48.28412" lon="7.32774">
        <ele>329.9</ele>
        <time>2000-01-01T02:55:55.000Z</time>
      </trkpt>
      <trkpt lat="48.28415" lon="7.32762">
        <ele>310</ele>
        <time>2000-01-01T02:56:05.000Z</time>
      </trkpt>
      <trkpt lat="48.28416" lon="7.32756">
        <ele>330</ele>
        <time>2000-01-01T02:56:15.000Z</time>
      </trkpt>
      <trkpt lat="48.28416" lon="7.32745">
        <ele>330.9</ele>
        <time>2000-01-01T02:56:25.000Z</time>
      </trkpt>
      <trkpt lat="48.28423" lon="7.32738">
        <ele>312</ele>
        <time>2000-01-01T02:56:35.000Z</time>
      </trkpt>
      <trkpt lat="48.28424" lon="7.32737">
        <ele>333.2</ele>
        <time>2000-01-01T02:56:45.000Z</time>
      </trkpt>
      <trkpt lat="48.2843" lon="7.32739">
        <ele>333.6</ele>
        <time>2000-01-01T02:56:55.000Z</time>
      </trkpt>
      <trkpt lat="48.28435" lon="7.32741">
        <ele>334.1</ele>
        <time>2000-01-01T02:57:05.000Z</time>
      </trkpt>
      <trkpt lat="48.28443" lon="7.32746">
        <ele>316</ele>
        <time>2000-01-01T02:57:15.000Z</time>
      </trkpt>
      <trkpt lat="48.28451" lon="7.32751">
        <ele>334.3</ele>
        <time>2000-01-01T02:57:25.000Z</time>
      </trkpt>
      <trkpt lat="48.28457" lon="7.32756">
        <ele>334.9</ele>
        <time>2000-01-01T02:57:35.000Z</time>
      </trkpt>
      <trkpt lat="48.2846" lon="7.32761">
        <ele>320</ele>
        <time>2000-01-01T02:57:45.000Z</time>
      </trkpt>
      <trkpt lat="48.28467" lon="7.32772">
        <ele>335.6</ele>
        <time>2000-01-01T02:57:55.000Z</time>
      </trkpt>
      <trkpt lat="48.28472" lon="7.32776">
        <ele>336</ele>
        <time>2000-01-01T02:58:05.000Z</time>
      </trkpt>
      <trkpt lat="48.28478" lon="7.32784">
        <ele>322</ele>
        <time>2000-01-01T02:58:15.000Z</time>
      </trkpt>
      <trkpt lat="48.28483" lon="7.32787">
        <ele>336.5</ele>
        <time>2000-01-01T02:58:25.000Z</time>
      </trkpt>
      <trkpt lat="48.28494" lon="7.3279">
        <ele>337</ele>
        <time>2000-01-01T02:58:35.000Z</time>
      </trkpt>
      <trkpt lat="48.285" lon="7.32794">
        <ele>324</ele>
        <time>2000-01-01T02:58:45.000Z</time>
      </trkpt>
      <trkpt lat="48.28502" lon="7.32793">
        <ele>344.1</ele>
        <time>2000-01-01T02:58:55.000Z</time>
      </trkpt>
      <trkpt lat="48.28508" lon="7.32782">
        <ele>344.2</ele>
        <time>2000-01-01T02:59:05.000Z</time>
      </trkpt>
      <trkpt lat="48.2851" lon="7.32767">
        <ele>326</ele>
        <time>2000-01-01T02:59:15.000Z</time>
      </trkpt>
      <trkpt lat="48.28511" lon="7.32755">
        <ele>343</ele>
        <time>2000-01-01T02:59:25.000Z</time>
      </trkpt>
      <trkpt lat="48.28513" lon="7.3275">
        <ele>343.4</ele>
        <time>2000-01-01T02:59:35.000Z</time>
      </trkpt>
      <trkpt lat="48.28517" lon="7.32735">
        <ele>327</ele>
        <time>2000-01-01T02:59:45.000Z</time>
      </trkpt>
      <trkpt lat="48.28522" lon="7.32724">
        <ele>345.3</ele>
        <time>2000-01-01T02:59:55.000Z</time>
      </trkpt>
      <trkpt lat="48.2853" lon="7.32699">
        <ele>331</ele>
        <time>2000-01-01T03:00:05.000Z</time>
      </trkpt>
      <trkpt lat="48.2853" lon="7.32688">
        <ele>346</ele>
        <time>2000-01-01T03:00:15.000Z</time>
      </trkpt>
      <trkpt lat="48.28533" lon="7.32672">
        <ele>335</ele>
        <time>2000-01-01T03:00:25.000Z</time>
      </trkpt>
      <trkpt lat="48.28537" lon="7.32658">
        <ele>347.9</ele>
        <time>2000-01-01T03:00:35.000Z</time>
      </trkpt>
      <trkpt lat="48.28544" lon="7.32651">
        <ele>348.6</ele>
        <time>2000-01-01T03:00:45.000Z</time>
      </trkpt>
      <trkpt lat="48.28553" lon="7.32645">
        <ele>339</ele>
        <time>2000-01-01T03:00:55.000Z</time>
      </trkpt>
      <trkpt lat="48.2856" lon="7.3264">
        <ele>349.8</ele>
        <time>2000-01-01T03:01:05.000Z</time>
      </trkpt>
      <trkpt lat="48.28567" lon="7.32631">
        <ele>350.2</ele>
        <time>2000-01-01T03:01:15.000Z</time>
      </trkpt>
      <trkpt lat="48.28575" lon="7.32622">
        <ele>343</ele>
        <time>2000-01-01T03:01:25.000Z</time>
      </trkpt>
      <trkpt lat="48.28582" lon="7.32614">
        <ele>351.4</ele>
        <time>2000-01-01T03:01:35.000Z</time>
      </trkpt>
      <trkpt lat="48.28588" lon="7.32599">
        <ele>345</ele>
        <time>2000-01-01T03:01:45.000Z</time>
      </trkpt>
      <trkpt lat="48.2859" lon="7.32585">
        <ele>356.7</ele>
        <time>2000-01-01T03:01:55.000Z</time>
      </trkpt>
      <trkpt lat="48.286" lon="7.32564">
        <ele>350</ele>
        <time>2000-01-01T03:02:05.000Z</time>
      </trkpt>
      <trkpt lat="48.28607" lon="7.32552">
        <ele>361.2</ele>
        <time>2000-01-01T03:02:15.000Z</time>
      </trkpt>
      <trkpt lat="48.28613" lon="7.32538">
        <ele>349</ele>
        <time>2000-01-01T03:02:25.000Z</time>
      </trkpt>
      <trkpt lat="48.28613" lon="7.32537">
        <ele>362</ele>
        <time>2000-01-01T03:02:35.000Z</time>
      </trkpt>
      <trkpt lat="48.28609" lon="7.32517">
        <ele>362</ele>
        <time>2000-01-01T03:02:45.000Z</time>
      </trkpt>
      <trkpt lat="48.28609" lon="7.32509">
        <ele>349</ele>
        <time>2000-01-01T03:02:55.000Z</time>
      </trkpt>
      <trkpt lat="48.28609" lon="7.32502">
        <ele>362</ele>
        <time>2000-01-01T03:03:05.000Z</time>
      </trkpt>
      <trkpt lat="48.28619" lon="7.32484">
        <ele>350</ele>
        <time>2000-01-01T03:03:15.000Z</time>
      </trkpt>
      <trkpt lat="48.28632" lon="7.32464">
        <ele>352</ele>
        <time>2000-01-01T03:03:25.000Z</time>
      </trkpt>
      <trkpt lat="48.28633" lon="7.32461">
        <ele>366.6</ele>
        <time>2000-01-01T03:03:35.000Z</time>
      </trkpt>
      <trkpt lat="48.2864" lon="7.32453">
        <ele>367.2</ele>
        <time>2000-01-01T03:03:45.000Z</time>
      </trkpt>
      <trkpt lat="48.28646" lon="7.32449">
        <ele>367.7</ele>
        <time>2000-01-01T03:03:55.000Z</time>
      </trkpt>
      <trkpt lat="48.28652" lon="7.32436">
        <ele>354</ele>
        <time>2000-01-01T03:04:05.000Z</time>
      </trkpt>
      <trkpt lat="48.28656" lon="7.32425">
        <ele>370.2</ele>
        <time>2000-01-01T03:04:15.000Z</time>
      </trkpt>
      <trkpt lat="48.28661" lon="7.32421">
        <ele>371.3</ele>
        <time>2000-01-01T03:04:25.000Z</time>
      </trkpt>
      <trkpt lat="48.28662" lon="7.32419">
        <ele>371.7</ele>
        <time>2000-01-01T03:04:35.000Z</time>
      </trkpt>
      <trkpt lat="48.28676" lon="7.32411">
        <ele>356</ele>
        <time>2000-01-01T03:04:45.000Z</time>
      </trkpt>
      <trkpt lat="48.28677" lon="7.32409">
        <ele>376.3</ele>
        <time>2000-01-01T03:04:55.000Z</time>
      </trkpt>
      <trkpt lat="48.28679" lon="7.32407">
        <ele>376.8</ele>
        <time>2000-01-01T03:05:05.000Z</time>
      </trkpt>
      <trkpt lat="48.28686" lon="7.32402">
        <ele>378.1</ele>
        <time>2000-01-01T03:05:15.000Z</time>
      </trkpt>
      <trkpt lat="48.28688" lon="7.32401">
        <ele>378.4</ele>
        <time>2000-01-01T03:05:25.000Z</time>
      </trkpt>
      <trkpt lat="48.2869" lon="7.32396">
        <ele>357</ele>
        <time>2000-01-01T03:05:35.000Z</time>
      </trkpt>
      <trkpt lat="48.28694" lon="7.32387">
        <ele>379.7</ele>
        <time>2000-01-01T03:05:45.000Z</time>
      </trkpt>
      <trkpt lat="48.28697" lon="7.32375">
        <ele>380.2</ele>
        <time>2000-01-01T03:05:55.000Z</time>
      </trkpt>
      <trkpt lat="48.287" lon="7.3237">
        <ele>358</ele>
        <time>2000-01-01T03:06:05.000Z</time>
      </trkpt>
      <trkpt lat="48.28703" lon="7.32364">
        <ele>380.9</ele>
        <time>2000-01-01T03:06:15.000Z</time>
      </trkpt>
      <trkpt lat="48.28705" lon="7.32359">
        <ele>381.2</ele>
        <time>2000-01-01T03:06:25.000Z</time>
      </trkpt>
      <trkpt lat="48.2871" lon="7.32353">
        <ele>381.9</ele>
        <time>2000-01-01T03:06:35.000Z</time>
      </trkpt>
      <trkpt lat="48.28712" lon="7.3235">
        <ele>361</ele>
        <time>2000-01-01T03:06:45.000Z</time>
      </trkpt>
      <trkpt lat="48.28722" lon="7.32338">
        <ele>384.1</ele>
        <time>2000-01-01T03:06:55.000Z</time>
      </trkpt>
      <trkpt lat="48.28724" lon="7.32337">
        <ele>384.5</ele>
        <time>2000-01-01T03:07:05.000Z</time>
      </trkpt>
      <trkpt lat="48.28728" lon="7.32333">
        <ele>363</ele>
        <time>2000-01-01T03:07:15.000Z</time>
      </trkpt>
      <trkpt lat="48.28733" lon="7.32324">
        <ele>387.5</ele>
        <time>2000-01-01T03:07:25.000Z</time>
      </trkpt>
      <trkpt lat="48.28737" lon="7.32318">
        <ele>387.6</ele>
        <time>2000-01-01T03:07:35.000Z</time>
      </trkpt>
      <trkpt lat="48.2874" lon="7.32308">
        <ele>365</ele>
        <time>2000-01-01T03:07:45.000Z</time>
      </trkpt>
      <trkpt lat="48.28741" lon="7.32305">
        <ele>387.1</ele>
        <time>2000-01-01T03:07:55.000Z</time>
      </trkpt>
      <trkpt lat="48.28743" lon="7.32303">
        <ele>387.1</ele>
        <time>2000-01-01T03:08:05.000Z</time>
      </trkpt>
      <trkpt lat="48.28743" lon="7.32302">
        <ele>387.1</ele>
        <time>2000-01-01T03:08:15.000Z</time>
      </trkpt>
      <trkpt lat="48.28748" lon="7.32286">
        <ele>387.3</ele>
        <time>2000-01-01T03:08:25.000Z</time>
      </trkpt>
      <trkpt lat="48.28754" lon="7.32271">
        <ele>369</ele>
        <time>2000-01-01T03:08:35.000Z</time>
      </trkpt>
      <trkpt lat="48.28756" lon="7.32265">
        <ele>395.5</ele>
        <time>2000-01-01T03:08:45.000Z</time>
      </trkpt>
      <trkpt lat="48.28757" lon="7.32263">
        <ele>395.4</ele>
        <time>2000-01-01T03:08:55.000Z</time>
      </trkpt>
      <trkpt lat="48.28758" lon="7.32251">
        <ele>394.6</ele>
        <time>2000-01-01T03:09:05.000Z</time>
      </trkpt>
      <trkpt lat="48.28761" lon="7.32243">
        <ele>372</ele>
        <time>2000-01-01T03:09:15.000Z</time>
      </trkpt>
      <trkpt lat="48.28766" lon="7.32236">
        <ele>398.7</ele>
        <time>2000-01-01T03:09:25.000Z</time>
      </trkpt>
      <trkpt lat="48.28773" lon="7.32227">
        <ele>400.4</ele>
        <time>2000-01-01T03:09:35.000Z</time>
      </trkpt>
      <trkpt lat="48.28779" lon="7.32218">
        <ele>375</ele>
        <time>2000-01-01T03:09:45.000Z</time>
      </trkpt>
      <trkpt lat="48.28782" lon="7.32219">
        <ele>401.7</ele>
        <time>2000-01-01T03:09:55.000Z</time>
      </trkpt>
      <trkpt lat="48.28789" lon="7.32225">
        <ele>402.2</ele>
        <time>2000-01-01T03:10:05.000Z</time>
      </trkpt>
      <trkpt lat="48.28805" lon="7.32237">
        <ele>379</ele>
        <time>2000-01-01T03:10:15.000Z</time>
      </trkpt>
      <trkpt lat="48.28809" lon="7.32241">
        <ele>403.9</ele>
        <time>2000-01-01T03:10:25.000Z</time>
      </trkpt>
      <trkpt lat="48.28821" lon="7.32261">
        <ele>379</ele>
        <time>2000-01-01T03:10:35.000Z</time>
      </trkpt>
      <trkpt lat="48.28818" lon="7.32274">
        <ele>401.2</ele>
        <time>2000-01-01T03:10:45.000Z</time>
      </trkpt>
      <trkpt lat="48.28828" lon="7.32299">
        <ele>379</ele>
        <time>2000-01-01T03:10:55.000Z</time>
      </trkpt>
      <trkpt lat="48.28831" lon="7.32306">
        <ele>400.4</ele>
        <time>2000-01-01T03:11:05.000Z</time>
      </trkpt>
      <trkpt lat="48.28849" lon="7.32321">
        <ele>381</ele>
        <time>2000-01-01T03:11:15.000Z</time>
      </trkpt>
      <trkpt lat="48.28866" lon="7.32336">
        <ele>385</ele>
        <time>2000-01-01T03:11:25.000Z</time>
      </trkpt>
      <trkpt lat="48.28872" lon="7.32357">
        <ele>407.2</ele>
        <time>2000-01-01T03:11:35.000Z</time>
      </trkpt>
      <trkpt lat="48.28879" lon="7.32374">
        <ele>388</ele>
        <time>2000-01-01T03:11:45.000Z</time>
      </trkpt>
      <trkpt lat="48.28883" lon="7.32383">
        <ele>407.8</ele>
        <time>2000-01-01T03:11:55.000Z</time>
      </trkpt>
      <trkpt lat="48.28896" lon="7.32414">
        <ele>392</ele>
        <time>2000-01-01T03:12:05.000Z</time>
      </trkpt>
      <trkpt lat="48.28898" lon="7.32421">
        <ele>408.2</ele>
        <time>2000-01-01T03:12:15.000Z</time>
      </trkpt>
      <trkpt lat="48.28908" lon="7.32447">
        <ele>394</ele>
        <time>2000-01-01T03:12:25.000Z</time>
      </trkpt>
      <trkpt lat="48.28913" lon="7.32467">
        <ele>407.1</ele>
        <time>2000-01-01T03:12:35.000Z</time>
      </trkpt>
      <trkpt lat="48.28924" lon="7.3249">
        <ele>394</ele>
        <time>2000-01-01T03:12:45.000Z</time>
      </trkpt>
      <trkpt lat="48.28929" lon="7.32512">
        <ele>415.3</ele>
        <time>2000-01-01T03:12:55.000Z</time>
      </trkpt>
      <trkpt lat="48.28926" lon="7.32541">
        <ele>394</ele>
        <time>2000-01-01T03:13:05.000Z</time>
      </trkpt>
      <trkpt lat="48.28924" lon="7.32571">
        <ele>394</ele>
        <time>2000-01-01T03:13:15.000Z</time>
      </trkpt>
      <trkpt lat="48.28921" lon="7.32583">
        <ele>409.8</ele>
        <time>2000-01-01T03:13:25.000Z</time>
      </trkpt>
      <trkpt lat="48.2892" lon="7.32594">
        <ele>410.4</ele>
        <time>2000-01-01T03:13:35.000Z</time>
      </trkpt>
      <trkpt lat="48.28921" lon="7.32622">
        <ele>392</ele>
        <time>2000-01-01T03:13:45.000Z</time>
      </trkpt>
      <trkpt lat="48.28929" lon="7.32655">
        <ele>393</ele>
        <time>2000-01-01T03:13:55.000Z</time>
      </trkpt>
      <trkpt lat="48.28935" lon="7.32668">
        <ele>406.8</ele>
        <time>2000-01-01T03:14:05.000Z</time>
      </trkpt>
      <trkpt lat="48.28938" lon="7.32676">
        <ele>407.4</ele>
        <time>2000-01-01T03:14:15.000Z</time>
      </trkpt>
      <trkpt lat="48.2894" lon="7.32687">
        <ele>393</ele>
        <time>2000-01-01T03:14:25.000Z</time>
      </trkpt>
      <trkpt lat="48.28943" lon="7.32715">
        <ele>393</ele>
        <time>2000-01-01T03:14:35.000Z</time>
      </trkpt>
      <trkpt lat="48.28948" lon="7.32742">
        <ele>393</ele>
        <time>2000-01-01T03:14:45.000Z</time>
      </trkpt>
      <trkpt lat="48.28952" lon="7.32768">
        <ele>393</ele>
        <time>2000-01-01T03:14:55.000Z</time>
      </trkpt>
      <trkpt lat="48.28957" lon="7.32795">
        <ele>393</ele>
        <time>2000-01-01T03:15:05.000Z</time>
      </trkpt>
      <trkpt lat="48.28967" lon="7.32821">
        <ele>393</ele>
        <time>2000-01-01T03:15:15.000Z</time>
      </trkpt>
      <trkpt lat="48.2898" lon="7.3284">
        <ele>394</ele>
        <time>2000-01-01T03:15:25.000Z</time>
      </trkpt>
      <trkpt lat="48.28995" lon="7.32861">
        <ele>394</ele>
        <time>2000-01-01T03:15:35.000Z</time>
      </trkpt>
      <trkpt lat="48.2901" lon="7.32882">
        <ele>395</ele>
        <time>2000-01-01T03:15:45.000Z</time>
      </trkpt>
      <trkpt lat="48.29013" lon="7.3289">
        <ele>410.5</ele>
        <time>2000-01-01T03:15:55.000Z</time>
      </trkpt>
      <trkpt lat="48.2902" lon="7.32901">
        <ele>409.9</ele>
        <time>2000-01-01T03:16:05.000Z</time>
      </trkpt>
      <trkpt lat="48.29036" lon="7.32918">
        <ele>400</ele>
        <time>2000-01-01T03:16:15.000Z</time>
      </trkpt>
      <trkpt lat="48.29051" lon="7.32936">
        <ele>400</ele>
        <time>2000-01-01T03:16:25.000Z</time>
      </trkpt>
      <trkpt lat="48.29056" lon="7.32947">
        <ele>408.3</ele>
        <time>2000-01-01T03:16:35.000Z</time>
      </trkpt>
      <trkpt lat="48.29064" lon="7.32972">
        <ele>400</ele>
        <time>2000-01-01T03:16:45.000Z</time>
      </trkpt>
      <trkpt lat="48.29067" lon="7.32976">
        <ele>408.7</ele>
        <time>2000-01-01T03:16:55.000Z</time>
      </trkpt>
      <trkpt lat="48.29072" lon="7.33013">
        <ele>400</ele>
        <time>2000-01-01T03:17:05.000Z</time>
      </trkpt>
      <trkpt lat="48.29074" lon="7.33018">
        <ele>404.7</ele>
        <time>2000-01-01T03:17:15.000Z</time>
      </trkpt>
      <trkpt lat="48.29088" lon="7.33038">
        <ele>401</ele>
        <time>2000-01-01T03:17:25.000Z</time>
      </trkpt>
      <trkpt lat="48.29091" lon="7.33078">
        <ele>399</ele>
        <time>2000-01-01T03:17:35.000Z</time>
      </trkpt>
      <trkpt lat="48.29091" lon="7.33083">
        <ele>414.5</ele>
        <time>2000-01-01T03:17:45.000Z</time>
      </trkpt>
      <trkpt lat="48.291" lon="7.33111">
        <ele>401</ele>
        <time>2000-01-01T03:17:55.000Z</time>
      </trkpt>
      <trkpt lat="48.29108" lon="7.33133">
        <ele>413.7</ele>
        <time>2000-01-01T03:18:05.000Z</time>
      </trkpt>
      <trkpt lat="48.29112" lon="7.33146">
        <ele>401</ele>
        <time>2000-01-01T03:18:15.000Z</time>
      </trkpt>
      <trkpt lat="48.29118" lon="7.33156">
        <ele>413.1</ele>
        <time>2000-01-01T03:18:25.000Z</time>
      </trkpt>
      <trkpt lat="48.29126" lon="7.33169">
        <ele>398</ele>
        <time>2000-01-01T03:18:35.000Z</time>
      </trkpt>
      <trkpt lat="48.29138" lon="7.33192">
        <ele>395</ele>
        <time>2000-01-01T03:18:45.000Z</time>
      </trkpt>
      <trkpt lat="48.2915" lon="7.33204">
        <ele>401.9</ele>
        <time>2000-01-01T03:18:55.000Z</time>
      </trkpt>
      <trkpt lat="48.29158" lon="7.33208">
        <ele>394</ele>
        <time>2000-01-01T03:19:05.000Z</time>
      </trkpt>
      <trkpt lat="48.29163" lon="7.33209">
        <ele>402.1</ele>
        <time>2000-01-01T03:19:15.000Z</time>
      </trkpt>
      <trkpt lat="48.29187" lon="7.33217">
        <ele>392</ele>
        <time>2000-01-01T03:19:25.000Z</time>
      </trkpt>
      <trkpt lat="48.29189" lon="7.33219">
        <ele>415.6</ele>
        <time>2000-01-01T03:19:35.000Z</time>
      </trkpt>
      <trkpt lat="48.29206" lon="7.33234">
        <ele>392</ele>
        <time>2000-01-01T03:19:45.000Z</time>
      </trkpt>
      <trkpt lat="48.29215" lon="7.33241">
        <ele>416.7</ele>
        <time>2000-01-01T03:19:55.000Z</time>
      </trkpt>
      <trkpt lat="48.29232" lon="7.33259">
        <ele>392</ele>
        <time>2000-01-01T03:20:05.000Z</time>
      </trkpt>
      <trkpt lat="48.29243" lon="7.33272">
        <ele>404.3</ele>
        <time>2000-01-01T03:20:15.000Z</time>
      </trkpt>
      <trkpt lat="48.2925" lon="7.33287">
        <ele>391</ele>
        <time>2000-01-01T03:20:25.000Z</time>
      </trkpt>
      <trkpt lat="48.29256" lon="7.33291">
        <ele>415.4</ele>
        <time>2000-01-01T03:20:35.000Z</time>
      </trkpt>
      <trkpt lat="48.29263" lon="7.33299">
        <ele>414.4</ele>
        <time>2000-01-01T03:20:45.000Z</time>
      </trkpt>
      <trkpt lat="48.29263" lon="7.33307">
        <ele>390</ele>
        <time>2000-01-01T03:20:55.000Z</time>
      </trkpt>
      <trkpt lat="48.29278" lon="7.33335">
        <ele>390</ele>
        <time>2000-01-01T03:21:05.000Z</time>
      </trkpt>
      <trkpt lat="48.29295" lon="7.33354">
        <ele>390</ele>
        <time>2000-01-01T03:21:15.000Z</time>
      </trkpt>
      <trkpt lat="48.29314" lon="7.3339">
        <ele>390</ele>
        <time>2000-01-01T03:21:25.000Z</time>
      </trkpt>
      <trkpt lat="48.29328" lon="7.33413">
        <ele>390</ele>
        <time>2000-01-01T03:21:35.000Z</time>
      </trkpt>
      <trkpt lat="48.29337" lon="7.33425">
        <ele>411.2</ele>
        <time>2000-01-01T03:21:45.000Z</time>
      </trkpt>
      <trkpt lat="48.29343" lon="7.33435">
        <ele>390</ele>
        <time>2000-01-01T03:21:55.000Z</time>
      </trkpt>
      <trkpt lat="48.29351" lon="7.33451">
        <ele>410.4</ele>
        <time>2000-01-01T03:22:05.000Z</time>
      </trkpt>
      <trkpt lat="48.29357" lon="7.33469">
        <ele>390</ele>
        <time>2000-01-01T03:22:15.000Z</time>
      </trkpt>
      <trkpt lat="48.2937" lon="7.33487">
        <ele>408.8</ele>
        <time>2000-01-01T03:22:25.000Z</time>
      </trkpt>
      <trkpt lat="48.2937" lon="7.33487">
        <ele>390</ele>
        <time>2000-01-01T03:22:35.000Z</time>
      </trkpt>
      <trkpt lat="48.29379" lon="7.33491">
        <ele>409.6</ele>
        <time>2000-01-01T03:22:45.000Z</time>
      </trkpt>
      <trkpt lat="48.29384" lon="7.33493">
        <ele>410</ele>
        <time>2000-01-01T03:22:55.000Z</time>
      </trkpt>
      <trkpt lat="48.29394" lon="7.33499">
        <ele>392</ele>
        <time>2000-01-01T03:23:05.000Z</time>
      </trkpt>
      <trkpt lat="48.29398" lon="7.33501">
        <ele>403.5</ele>
        <time>2000-01-01T03:23:15.000Z</time>
      </trkpt>
      <trkpt lat="48.29402" lon="7.33501">
        <ele>404.6</ele>
        <time>2000-01-01T03:23:25.000Z</time>
      </trkpt>
      <trkpt lat="48.29406" lon="7.33502">
        <ele>405.9</ele>
        <time>2000-01-01T03:23:35.000Z</time>
      </trkpt>
      <trkpt lat="48.29407" lon="7.33503">
        <ele>406.1</ele>
        <time>2000-01-01T03:23:45.000Z</time>
      </trkpt>
      <trkpt lat="48.29419" lon="7.3351">
        <ele>392</ele>
        <time>2000-01-01T03:23:55.000Z</time>
      </trkpt>
      <trkpt lat="48.29427" lon="7.33517">
        <ele>409.9</ele>
        <time>2000-01-01T03:24:05.000Z</time>
      </trkpt>
      <trkpt lat="48.29434" lon="7.33523">
        <ele>409.6</ele>
        <time>2000-01-01T03:24:15.000Z</time>
      </trkpt>
      <trkpt lat="48.29441" lon="7.33528">
        <ele>396</ele>
        <time>2000-01-01T03:24:25.000Z</time>
      </trkpt>
      <trkpt lat="48.29443" lon="7.33532">
        <ele>409.3</ele>
        <time>2000-01-01T03:24:35.000Z</time>
      </trkpt>
      <trkpt lat="48.29462" lon="7.33545">
        <ele>396</ele>
        <time>2000-01-01T03:24:45.000Z</time>
      </trkpt>
      <trkpt lat="48.29469" lon="7.33554">
        <ele>409.8</ele>
        <time>2000-01-01T03:24:55.000Z</time>
      </trkpt>
      <trkpt lat="48.29476" lon="7.33565">
        <ele>397</ele>
        <time>2000-01-01T03:25:05.000Z</time>
      </trkpt>
      <trkpt lat="48.29497" lon="7.3359">
        <ele>399</ele>
        <time>2000-01-01T03:25:15.000Z</time>
      </trkpt>
      <trkpt lat="48.29516" lon="7.33607">
        <ele>403</ele>
        <time>2000-01-01T03:25:25.000Z</time>
      </trkpt>
      <trkpt lat="48.29531" lon="7.33627">
        <ele>403</ele>
        <time>2000-01-01T03:25:35.000Z</time>
      </trkpt>
      <trkpt lat="48.29547" lon="7.33644">
        <ele>403</ele>
        <time>2000-01-01T03:25:45.000Z</time>
      </trkpt>
      <trkpt lat="48.29558" lon="7.33656">
        <ele>411.8</ele>
        <time>2000-01-01T03:25:55.000Z</time>
      </trkpt>
      <trkpt lat="48.29577" lon="7.33671">
        <ele>403</ele>
        <time>2000-01-01T03:26:05.000Z</time>
      </trkpt>
      <trkpt lat="48.29584" lon="7.33676">
        <ele>408.8</ele>
        <time>2000-01-01T03:26:15.000Z</time>
      </trkpt>
      <trkpt lat="48.29591" lon="7.33678">
        <ele>407.6</ele>
        <time>2000-01-01T03:26:25.000Z</time>
      </trkpt>
      <trkpt lat="48.29606" lon="7.33681">
        <ele>402</ele>
        <time>2000-01-01T03:26:35.000Z</time>
      </trkpt>
      <trkpt lat="48.29607" lon="7.3368">
        <ele>405</ele>
        <time>2000-01-01T03:26:45.000Z</time>
      </trkpt>
      <trkpt lat="48.29608" lon="7.33679">
        <ele>405</ele>
        <time>2000-01-01T03:26:55.000Z</time>
      </trkpt>
      <trkpt lat="48.2961" lon="7.33677">
        <ele>404.8</ele>
        <time>2000-01-01T03:27:05.000Z</time>
      </trkpt>
      <trkpt lat="48.29612" lon="7.33671">
        <ele>404.8</ele>
        <time>2000-01-01T03:27:15.000Z</time>
      </trkpt>
      <trkpt lat="48.29611" lon="7.3367">
        <ele>405</ele>
        <time>2000-01-01T03:27:25.000Z</time>
      </trkpt>
      <trkpt lat="48.29612" lon="7.33665">
        <ele>410.6</ele>
        <time>2000-01-01T03:27:35.000Z</time>
      </trkpt>
      <trkpt lat="48.29611" lon="7.33662">
        <ele>410.7</ele>
        <time>2000-01-01T03:27:45.000Z</time>
      </trkpt>
      <trkpt lat="48.29611" lon="7.33656">
        <ele>402</ele>
        <time>2000-01-01T03:27:55.000Z</time>
      </trkpt>
      <trkpt lat="48.29612" lon="7.33649">
        <ele>411</ele>
        <time>2000-01-01T03:28:05.000Z</time>
      </trkpt>
      <trkpt lat="48.29611" lon="7.3364">
        <ele>411.4</ele>
        <time>2000-01-01T03:28:15.000Z</time>
      </trkpt>
      <trkpt lat="48.2961" lon="7.33636">
        <ele>411.7</ele>
        <time>2000-01-01T03:28:25.000Z</time>
      </trkpt>
      <trkpt lat="48.29609" lon="7.33625">
        <ele>405</ele>
        <time>2000-01-01T03:28:35.000Z</time>
      </trkpt>
      <trkpt lat="48.29607" lon="7.33616">
        <ele>413.2</ele>
        <time>2000-01-01T03:28:45.000Z</time>
      </trkpt>
      <trkpt lat="48.29607" lon="7.33599">
        <ele>414.6</ele>
        <time>2000-01-01T03:28:55.000Z</time>
      </trkpt>
      <trkpt lat="48.29608" lon="7.33593">
        <ele>407</ele>
        <time>2000-01-01T03:29:05.000Z</time>
      </trkpt>
      <trkpt lat="48.29608" lon="7.33583">
        <ele>420.4</ele>
        <time>2000-01-01T03:29:15.000Z</time>
      </trkpt>
      <trkpt lat="48.29612" lon="7.33571">
        <ele>420.4</ele>
        <time>2000-01-01T03:29:25.000Z</time>
      </trkpt>
      <trkpt lat="48.29616" lon="7.33563">
        <ele>409</ele>
        <time>2000-01-01T03:29:35.000Z</time>
      </trkpt>
      <trkpt lat="48.29619" lon="7.33555">
        <ele>420.5</ele>
        <time>2000-01-01T03:29:45.000Z</time>
      </trkpt>
      <trkpt lat="48.29622" lon="7.33541">
        <ele>421</ele>
        <time>2000-01-01T03:29:55.000Z</time>
      </trkpt>
      <trkpt lat="48.29623" lon="7.33538">
        <ele>410</ele>
        <time>2000-01-01T03:30:05.000Z</time>
      </trkpt>
      <trkpt lat="48.29623" lon="7.33534">
        <ele>421.2</ele>
        <time>2000-01-01T03:30:15.000Z</time>
      </trkpt>
      <trkpt lat="48.29622" lon="7.33533">
        <ele>421.3</ele>
        <time>2000-01-01T03:30:25.000Z</time>
      </trkpt>
      <trkpt lat="48.29623" lon="7.33526">
        <ele>421.6</ele>
        <time>2000-01-01T03:30:35.000Z</time>
      </trkpt>
      <trkpt lat="48.29617" lon="7.33518">
        <ele>422.5</ele>
        <time>2000-01-01T03:30:45.000Z</time>
      </trkpt>
      <trkpt lat="48.29615" lon="7.33511">
        <ele>414</ele>
        <time>2000-01-01T03:30:55.000Z</time>
      </trkpt>
      <trkpt lat="48.29615" lon="7.33508">
        <ele>423.2</ele>
        <time>2000-01-01T03:31:05.000Z</time>
      </trkpt>
      <trkpt lat="48.29613" lon="7.33499">
        <ele>429.4</ele>
        <time>2000-01-01T03:31:15.000Z</time>
      </trkpt>
      <trkpt lat="48.29613" lon="7.33491">
        <ele>429.6</ele>
        <time>2000-01-01T03:31:25.000Z</time>
      </trkpt>
      <trkpt lat="48.29611" lon="7.33484">
        <ele>419</ele>
        <time>2000-01-01T03:31:35.000Z</time>
      </trkpt>
      <trkpt lat="48.2961" lon="7.33484">
        <ele>430</ele>
        <time>2000-01-01T03:31:45.000Z</time>
      </trkpt>
      <trkpt lat="48.29609" lon="7.33483">
        <ele>430.1</ele>
        <time>2000-01-01T03:31:55.000Z</time>
      </trkpt>
      <trkpt lat="48.29608" lon="7.33481">
        <ele>430.3</ele>
        <time>2000-01-01T03:32:05.000Z</time>
      </trkpt>
      <trkpt lat="48.29609" lon="7.33475">
        <ele>430.5</ele>
        <time>2000-01-01T03:32:15.000Z</time>
      </trkpt>
      <trkpt lat="48.29608" lon="7.33466">
        <ele>431</ele>
        <time>2000-01-01T03:32:25.000Z</time>
      </trkpt>
      <trkpt lat="48.29607" lon="7.33461">
        <ele>431.4</ele>
        <time>2000-01-01T03:32:35.000Z</time>
      </trkpt>
      <trkpt lat="48.29606" lon="7.33454">
        <ele>424</ele>
        <time>2000-01-01T03:32:45.000Z</time>
      </trkpt>
      <trkpt lat="48.29603" lon="7.33448">
        <ele>432.8</ele>
        <time>2000-01-01T03:32:55.000Z</time>
      </trkpt>
      <trkpt lat="48.29602" lon="7.33444">
        <ele>433.2</ele>
        <time>2000-01-01T03:33:05.000Z</time>
      </trkpt>
      <trkpt lat="48.29599" lon="7.33442">
        <ele>433.7</ele>
        <time>2000-01-01T03:33:15.000Z</time>
      </trkpt>
      <trkpt lat="48.29598" lon="7.33442">
        <ele>433.8</ele>
        <time>2000-01-01T03:33:25.000Z</time>
      </trkpt>
      <trkpt lat="48.29592" lon="7.33447">
        <ele>427</ele>
        <time>2000-01-01T03:33:35.000Z</time>
      </trkpt>
      <trkpt lat="48.2959" lon="7.33448">
        <ele>433.5</ele>
        <time>2000-01-01T03:33:45.000Z</time>
      </trkpt>
      <trkpt lat="48.29588" lon="7.33445">
        <ele>434</ele>
        <time>2000-01-01T03:33:55.000Z</time>
      </trkpt>
      <trkpt lat="48.29585" lon="7.33442">
        <ele>434.5</ele>
        <time>2000-01-01T03:34:05.000Z</time>
      </trkpt>
      <trkpt lat="48.29582" lon="7.33438">
        <ele>436.9</ele>
        <time>2000-01-01T03:34:15.000Z</time>
      </trkpt>
      <trkpt lat="48.2958" lon="7.33433">
        <ele>437.5</ele>
        <time>2000-01-01T03:34:25.000Z</time>
      </trkpt>
      <trkpt lat="48.29579" lon="7.3343">
        <ele>430</ele>
        <time>2000-01-01T03:34:35.000Z</time>
      </trkpt>
      <trkpt lat="48.29578" lon="7.33428">
        <ele>438.2</ele>
        <time>2000-01-01T03:34:45.000Z</time>
      </trkpt>
      <trkpt lat="48.29577" lon="7.33424">
        <ele>438.7</ele>
        <time>2000-01-01T03:34:55.000Z</time>
      </trkpt>
      <trkpt lat="48.29575" lon="7.33419">
        <ele>439</ele>
        <time>2000-01-01T03:35:05.000Z</time>
      </trkpt>
      <trkpt lat="48.29574" lon="7.33417">
        <ele>438.9</ele>
        <time>2000-01-01T03:35:15.000Z</time>
      </trkpt>
      <trkpt lat="48.29575" lon="7.3341">
        <ele>443.4</ele>
        <time>2000-01-01T03:35:25.000Z</time>
      </trkpt>
      <trkpt lat="48.29574" lon="7.33402">
        <ele>432</ele>
        <time>2000-01-01T03:35:35.000Z</time>
      </trkpt>
      <trkpt lat="48.29573" lon="7.33391">
        <ele>446.2</ele>
        <time>2000-01-01T03:35:45.000Z</time>
      </trkpt>
      <trkpt lat="48.29572" lon="7.33379">
        <ele>447.8</ele>
        <time>2000-01-01T03:35:55.000Z</time>
      </trkpt>
      <trkpt lat="48.29567" lon="7.33366">
        <ele>438</ele>
        <time>2000-01-01T03:36:05.000Z</time>
      </trkpt>
      <trkpt lat="48.29567" lon="7.3336">
        <ele>450.2</ele>
        <time>2000-01-01T03:36:15.000Z</time>
      </trkpt>
      <trkpt lat="48.29571" lon="7.33348">
        <ele>452.1</ele>
        <time>2000-01-01T03:36:25.000Z</time>
      </trkpt>
      <trkpt lat="48.29574" lon="7.33344">
        <ele>453.1</ele>
        <time>2000-01-01T03:36:35.000Z</time>
      </trkpt>
      <trkpt lat="48.29574" lon="7.33342">
        <ele>440</ele>
        <time>2000-01-01T03:36:45.000Z</time>
      </trkpt>
      <trkpt lat="48.2957" lon="7.33331">
        <ele>460.6</ele>
        <time>2000-01-01T03:36:55.000Z</time>
      </trkpt>
      <trkpt lat="48.29569" lon="7.33329">
        <ele>461</ele>
        <time>2000-01-01T03:37:05.000Z</time>
      </trkpt>
      <trkpt lat="48.2957" lon="7.33328">
        <ele>460.9</ele>
        <time>2000-01-01T03:37:15.000Z</time>
      </trkpt>
      <trkpt lat="48.29572" lon="7.33327">
        <ele>460.7</ele>
        <time>2000-01-01T03:37:25.000Z</time>
      </trkpt>
      <trkpt lat="48.29574" lon="7.33325">
        <ele>460.7</ele>
        <time>2000-01-01T03:37:35.000Z</time>
      </trkpt>
      <trkpt lat="48.29581" lon="7.33319">
        <ele>445</ele>
        <time>2000-01-01T03:37:45.000Z</time>
      </trkpt>
      <trkpt lat="48.29584" lon="7.33317">
        <ele>459.1</ele>
        <time>2000-01-01T03:37:55.000Z</time>
      </trkpt>
      <trkpt lat="48.29589" lon="7.33308">
        <ele>460.1</ele>
        <time>2000-01-01T03:38:05.000Z</time>
      </trkpt>
      <trkpt lat="48.2959" lon="7.33299">
        <ele>461.3</ele>
        <time>2000-01-01T03:38:15.000Z</time>
      </trkpt>
      <trkpt lat="48.29591" lon="7.33291">
        <ele>449</ele>
        <time>2000-01-01T03:38:25.000Z</time>
      </trkpt>
      <trkpt lat="48.29592" lon="7.33286">
        <ele>463.3</ele>
        <time>2000-01-01T03:38:35.000Z</time>
      </trkpt>
      <trkpt lat="48.29594" lon="7.33281">
        <ele>464.1</ele>
        <time>2000-01-01T03:38:45.000Z</time>
      </trkpt>
      <trkpt lat="48.29597" lon="7.33274">
        <ele>465.2</ele>
        <time>2000-01-01T03:38:55.000Z</time>
      </trkpt>
      <trkpt lat="48.29597" lon="7.33265">
        <ele>456</ele>
        <time>2000-01-01T03:39:05.000Z</time>
      </trkpt>
      <trkpt lat="48.29596" lon="7.33256">
        <ele>469.3</ele>
        <time>2000-01-01T03:39:15.000Z</time>
      </trkpt>
      <trkpt lat="48.29595" lon="7.33254">
        <ele>469.9</ele>
        <time>2000-01-01T03:39:25.000Z</time>
      </trkpt>
      <trkpt lat="48.29596" lon="7.33251">
        <ele>469.8</ele>
        <time>2000-01-01T03:39:35.000Z</time>
      </trkpt>
      <trkpt lat="48.296" lon="7.33242">
        <ele>477.3</ele>
        <time>2000-01-01T03:39:45.000Z</time>
      </trkpt>
      <trkpt lat="48.29602" lon="7.33236">
        <ele>463</ele>
        <time>2000-01-01T03:39:55.000Z</time>
      </trkpt>
      <trkpt lat="48.29605" lon="7.33232">
        <ele>477.9</ele>
        <time>2000-01-01T03:40:05.000Z</time>
      </trkpt>
      <trkpt lat="48.29606" lon="7.3323">
        <ele>478.1</ele>
        <time>2000-01-01T03:40:15.000Z</time>
      </trkpt>
      <trkpt lat="48.29619" lon="7.33218">
        <ele>466</ele>
        <time>2000-01-01T03:40:25.000Z</time>
      </trkpt>
      <trkpt lat="48.29621" lon="7.33217">
        <ele>478.5</ele>
        <time>2000-01-01T03:40:35.000Z</time>
      </trkpt>
      <trkpt lat="48.29623" lon="7.33214">
        <ele>478.7</ele>
        <time>2000-01-01T03:40:45.000Z</time>
      </trkpt>
      <trkpt lat="48.29622" lon="7.33211">
        <ele>479.1</ele>
        <time>2000-01-01T03:40:55.000Z</time>
      </trkpt>
      <trkpt lat="48.29621" lon="7.3321">
        <ele>479.3</ele>
        <time>2000-01-01T03:41:05.000Z</time>
      </trkpt>
      <trkpt lat="48.2962" lon="7.33206">
        <ele>479.9</ele>
        <time>2000-01-01T03:41:15.000Z</time>
      </trkpt>
      <trkpt lat="48.29623" lon="7.33199">
        <ele>480.5</ele>
        <time>2000-01-01T03:41:25.000Z</time>
      </trkpt>
      <trkpt lat="48.29626" lon="7.33191">
        <ele>470</ele>
        <time>2000-01-01T03:41:35.000Z</time>
      </trkpt>
      <trkpt lat="48.29628" lon="7.33184">
        <ele>481.7</ele>
        <time>2000-01-01T03:41:45.000Z</time>
      </trkpt>
      <trkpt lat="48.29629" lon="7.33181">
        <ele>481.9</ele>
        <time>2000-01-01T03:41:55.000Z</time>
      </trkpt>
      <trkpt lat="48.29629" lon="7.33169">
        <ele>482.7</ele>
        <time>2000-01-01T03:42:05.000Z</time>
      </trkpt>
      <trkpt lat="48.29629" lon="7.33169">
        <ele>482.7</ele>
        <time>2000-01-01T03:42:15.000Z</time>
      </trkpt>
      <trkpt lat="48.29634" lon="7.33165">
        <ele>476</ele>
        <time>2000-01-01T03:42:25.000Z</time>
      </trkpt>
      <trkpt lat="48.2964" lon="7.33159">
        <ele>495.5</ele>
        <time>2000-01-01T03:42:35.000Z</time>
      </trkpt>
      <trkpt lat="48.29643" lon="7.33153">
        <ele>495.7</ele>
        <time>2000-01-01T03:42:45.000Z</time>
      </trkpt>
      <trkpt lat="48.29643" lon="7.33146">
        <ele>496.9</ele>
        <time>2000-01-01T03:42:55.000Z</time>
      </trkpt>
      <trkpt lat="48.29641" lon="7.3314">
        <ele>479</ele>
        <time>2000-01-01T03:43:05.000Z</time>
      </trkpt>
      <trkpt lat="48.29637" lon="7.33135">
        <ele>499.4</ele>
        <time>2000-01-01T03:43:15.000Z</time>
      </trkpt>
      <trkpt lat="48.29634" lon="7.33131">
        <ele>500.3</ele>
        <time>2000-01-01T03:43:25.000Z</time>
      </trkpt>
      <trkpt lat="48.29634" lon="7.3313">
        <ele>500.5</ele>
        <time>2000-01-01T03:43:35.000Z</time>
      </trkpt>
      <trkpt lat="48.29633" lon="7.33127">
        <ele>501</ele>
        <time>2000-01-01T03:43:45.000Z</time>
      </trkpt>
      <trkpt lat="48.29633" lon="7.3313">
        <ele>500.6</ele>
        <time>2000-01-01T03:43:55.000Z</time>
      </trkpt>
      <trkpt lat="48.2963" lon="7.33131">
        <ele>500.7</ele>
        <time>2000-01-01T03:44:05.000Z</time>
      </trkpt>
      <trkpt lat="48.29629" lon="7.33129">
        <ele>488</ele>
        <time>2000-01-01T03:44:15.000Z</time>
      </trkpt>
      <trkpt lat="48.29626" lon="7.33128">
        <ele>501.5</ele>
        <time>2000-01-01T03:44:25.000Z</time>
      </trkpt>
      <trkpt lat="48.2962" lon="7.3313">
        <ele>501.7</ele>
        <time>2000-01-01T03:44:35.000Z</time>
      </trkpt>
      <trkpt lat="48.29616" lon="7.33132">
        <ele>501.6</ele>
        <time>2000-01-01T03:44:45.000Z</time>
      </trkpt>
      <trkpt lat="48.29608" lon="7.33139">
        <ele>490</ele>
        <time>2000-01-01T03:44:55.000Z</time>
      </trkpt>
      <trkpt lat="48.29599" lon="7.33136">
        <ele>501.8</ele>
        <time>2000-01-01T03:45:05.000Z</time>
      </trkpt>
      <trkpt lat="48.29595" lon="7.33132">
        <ele>502.7</ele>
        <time>2000-01-01T03:45:15.000Z</time>
      </trkpt>
      <trkpt lat="48.29594" lon="7.33131">
        <ele>502.9</ele>
        <time>2000-01-01T03:45:25.000Z</time>
      </trkpt>
      <trkpt lat="48.2959" lon="7.33128">
        <ele>493</ele>
        <time>2000-01-01T03:45:35.000Z</time>
      </trkpt>
      <trkpt lat="48.29589" lon="7.33125">
        <ele>504.5</ele>
        <time>2000-01-01T03:45:45.000Z</time>
      </trkpt>
      <trkpt lat="48.29587" lon="7.33124">
        <ele>504.8</ele>
        <time>2000-01-01T03:45:55.000Z</time>
      </trkpt>
      <trkpt lat="48.29586" lon="7.33124">
        <ele>504.8</ele>
        <time>2000-01-01T03:46:05.000Z</time>
      </trkpt>
      <trkpt lat="48.29582" lon="7.33124">
        <ele>511.1</ele>
        <time>2000-01-01T03:46:15.000Z</time>
      </trkpt>
      <trkpt lat="48.29578" lon="7.33124">
        <ele>511.2</ele>
        <time>2000-01-01T03:46:25.000Z</time>
      </trkpt>
      <trkpt lat="48.29576" lon="7.33125">
        <ele>511</ele>
        <time>2000-01-01T03:46:35.000Z</time>
      </trkpt>
      <trkpt lat="48.29576" lon="7.33124">
        <ele>511.2</ele>
        <time>2000-01-01T03:46:45.000Z</time>
      </trkpt>
      <trkpt lat="48.29575" lon="7.33124">
        <ele>511.2</ele>
        <time>2000-01-01T03:46:55.000Z</time>
      </trkpt>
      <trkpt lat="48.2957" lon="7.33127">
        <ele>496</ele>
        <time>2000-01-01T03:47:05.000Z</time>
      </trkpt>
      <trkpt lat="48.29565" lon="7.33122">
        <ele>511.9</ele>
        <time>2000-01-01T03:47:15.000Z</time>
      </trkpt>
      <trkpt lat="48.29564" lon="7.3312">
        <ele>512.3</ele>
        <time>2000-01-01T03:47:25.000Z</time>
      </trkpt>
      <trkpt lat="48.29562" lon="7.33116">
        <ele>513.1</ele>
        <time>2000-01-01T03:47:35.000Z</time>
      </trkpt>
      <trkpt lat="48.29557" lon="7.33117">
        <ele>512.9</ele>
        <time>2000-01-01T03:47:45.000Z</time>
      </trkpt>
      <trkpt lat="48.29555" lon="7.33117">
        <ele>513</ele>
        <time>2000-01-01T03:47:55.000Z</time>
      </trkpt>
      <trkpt lat="48.29553" lon="7.33115">
        <ele>500</ele>
        <time>2000-01-01T03:48:05.000Z</time>
      </trkpt>
      <trkpt lat="48.29551" lon="7.33116">
        <ele>513.2</ele>
        <time>2000-01-01T03:48:15.000Z</time>
      </trkpt>
      <trkpt lat="48.29543" lon="7.33113">
        <ele>513.9</ele>
        <time>2000-01-01T03:48:25.000Z</time>
      </trkpt>
      <trkpt lat="48.29541" lon="7.33109">
        <ele>514.5</ele>
        <time>2000-01-01T03:48:35.000Z</time>
      </trkpt>
      <trkpt lat="48.29538" lon="7.33108">
        <ele>514.8</ele>
        <time>2000-01-01T03:48:45.000Z</time>
      </trkpt>
      <trkpt lat="48.29536" lon="7.33106">
        <ele>505</ele>
        <time>2000-01-01T03:48:55.000Z</time>
      </trkpt>
      <trkpt lat="48.29535" lon="7.33105">
        <ele>515.4</ele>
        <time>2000-01-01T03:49:05.000Z</time>
      </trkpt>
      <trkpt lat="48.29535" lon="7.33106">
        <ele>515.3</ele>
        <time>2000-01-01T03:49:15.000Z</time>
      </trkpt>
      <trkpt lat="48.2953" lon="7.33103">
        <ele>516.1</ele>
        <time>2000-01-01T03:49:25.000Z</time>
      </trkpt>
      <trkpt lat="48.29526" lon="7.33104">
        <ele>516.3</ele>
        <time>2000-01-01T03:49:35.000Z</time>
      </trkpt>
      <trkpt lat="48.29525" lon="7.33105">
        <ele>516.2</ele>
        <time>2000-01-01T03:49:45.000Z</time>
      </trkpt>
      <trkpt lat="48.29523" lon="7.33104">
        <ele>516.6</ele>
        <time>2000-01-01T03:49:55.000Z</time>
      </trkpt>
      <trkpt lat="48.29521" lon="7.33101">
        <ele>517.4</ele>
        <time>2000-01-01T03:50:05.000Z</time>
      </trkpt>
      <trkpt lat="48.2952" lon="7.33101">
        <ele>517.6</ele>
        <time>2000-01-01T03:50:15.000Z</time>
      </trkpt>
      <trkpt lat="48.29518" lon="7.33095">
        <ele>508</ele>
        <time>2000-01-01T03:50:25.000Z</time>
      </trkpt>
      <trkpt lat="48.29515" lon="7.3309">
        <ele>520.6</ele>
        <time>2000-01-01T03:50:35.000Z</time>
      </trkpt>
      <trkpt lat="48.29511" lon="7.33087">
        <ele>522.3</ele>
        <time>2000-01-01T03:50:45.000Z</time>
      </trkpt>
      <trkpt lat="48.29506" lon="7.33082">
        <ele>530.4</ele>
        <time>2000-01-01T03:50:55.000Z</time>
      </trkpt>
      <trkpt lat="48.29502" lon="7.33078">
        <ele>515</ele>
        <time>2000-01-01T03:51:05.000Z</time>
      </trkpt>
      <trkpt lat="48.295" lon="7.33076">
        <ele>531</ele>
        <time>2000-01-01T03:51:15.000Z</time>
      </trkpt>
      <trkpt lat="48.29498" lon="7.33071">
        <ele>532.3</ele>
        <time>2000-01-01T03:51:25.000Z</time>
      </trkpt>
      <trkpt lat="48.29498" lon="7.3307">
        <ele>532.6</ele>
        <time>2000-01-01T03:51:35.000Z</time>
      </trkpt>
      <trkpt lat="48.29495" lon="7.33066">
        <ele>533.8</ele>
        <time>2000-01-01T03:51:45.000Z</time>
      </trkpt>
      <trkpt lat="48.29493" lon="7.33063">
        <ele>534.6</ele>
        <time>2000-01-01T03:51:55.000Z</time>
      </trkpt>
      <trkpt lat="48.29489" lon="7.33059">
        <ele>517</ele>
        <time>2000-01-01T03:52:05.000Z</time>
      </trkpt>
      <trkpt lat="48.29487" lon="7.33057">
        <ele>536.1</ele>
        <time>2000-01-01T03:52:15.000Z</time>
      </trkpt>
      <trkpt lat="48.29483" lon="7.33056">
        <ele>536.4</ele>
        <time>2000-01-01T03:52:25.000Z</time>
      </trkpt>
      <trkpt lat="48.2948" lon="7.33056">
        <ele>536.4</ele>
        <time>2000-01-01T03:52:35.000Z</time>
      </trkpt>
      <trkpt lat="48.29477" lon="7.33057">
        <ele>536.3</ele>
        <time>2000-01-01T03:52:45.000Z</time>
      </trkpt>
      <trkpt lat="48.2947" lon="7.3305">
        <ele>519</ele>
        <time>2000-01-01T03:52:55.000Z</time>
      </trkpt>
      <trkpt lat="48.29468" lon="7.33049">
        <ele>537.6</ele>
        <time>2000-01-01T03:53:05.000Z</time>
      </trkpt>
      <trkpt lat="48.29463" lon="7.33039">
        <ele>539.1</ele>
        <time>2000-01-01T03:53:15.000Z</time>
      </trkpt>
      <trkpt lat="48.29461" lon="7.33028">
        <ele>540.8</ele>
        <time>2000-01-01T03:53:25.000Z</time>
      </trkpt>
      <trkpt lat="48.2946" lon="7.3302">
        <ele>532</ele>
        <time>2000-01-01T03:53:35.000Z</time>
      </trkpt>
      <trkpt lat="48.2946" lon="7.33019">
        <ele>542.1</ele>
        <time>2000-01-01T03:53:45.000Z</time>
      </trkpt>
      <trkpt lat="48.29458" lon="7.33018">
        <ele>542.1</ele>
        <time>2000-01-01T03:53:55.000Z</time>
      </trkpt>
      <trkpt lat="48.29458" lon="7.33017">
        <ele>542.3</ele>
        <time>2000-01-01T03:54:05.000Z</time>
      </trkpt>
      <trkpt lat="48.29453" lon="7.33014">
        <ele>542.5</ele>
        <time>2000-01-01T03:54:15.000Z</time>
      </trkpt>
      <trkpt lat="48.29448" lon="7.33009">
        <ele>543.1</ele>
        <time>2000-01-01T03:54:25.000Z</time>
      </trkpt>
      <trkpt lat="48.29446" lon="7.33008">
        <ele>543.2</ele>
        <time>2000-01-01T03:54:35.000Z</time>
      </trkpt>
      <trkpt lat="48.29443" lon="7.33004">
        <ele>534</ele>
        <time>2000-01-01T03:54:45.000Z</time>
      </trkpt>
      <trkpt lat="48.29443" lon="7.33003">
        <ele>543.8</ele>
        <time>2000-01-01T03:54:55.000Z</time>
      </trkpt>
      <trkpt lat="48.29438" lon="7.32994">
        <ele>557.7</ele>
        <time>2000-01-01T03:55:05.000Z</time>
      </trkpt>
      <trkpt lat="48.29437" lon="7.3299">
        <ele>558</ele>
        <time>2000-01-01T03:55:15.000Z</time>
      </trkpt>
      <trkpt lat="48.29435" lon="7.32989">
        <ele>557.8</ele>
        <time>2000-01-01T03:55:25.000Z</time>
      </trkpt>
      <trkpt lat="48.29433" lon="7.3298">
        <ele>536</ele>
        <time>2000-01-01T03:55:35.000Z</time>
      </trkpt>
      <trkpt lat="48.29431" lon="7.32979">
        <ele>559.1</ele>
        <time>2000-01-01T03:55:45.000Z</time>
      </trkpt>
      <trkpt lat="48.2943" lon="7.32979">
        <ele>558.9</ele>
        <time>2000-01-01T03:55:55.000Z</time>
      </trkpt>
      <trkpt lat="48.29428" lon="7.32972">
        <ele>560.3</ele>
        <time>2000-01-01T03:56:05.000Z</time>
      </trkpt>
      <trkpt lat="48.29427" lon="7.32971">
        <ele>560.4</ele>
        <time>2000-01-01T03:56:15.000Z</time>
      </trkpt>
      <trkpt lat="48.29425" lon="7.32973">
        <ele>559.9</ele>
        <time>2000-01-01T03:56:25.000Z</time>
      </trkpt>
      <trkpt lat="48.29422" lon="7.32973">
        <ele>559.7</ele>
        <time>2000-01-01T03:56:35.000Z</time>
      </trkpt>
      <trkpt lat="48.29422" lon="7.32973">
        <ele>559.7</ele>
        <time>2000-01-01T03:56:45.000Z</time>
      </trkpt>
      <trkpt lat="48.2942" lon="7.32973">
        <ele>559.6</ele>
        <time>2000-01-01T03:56:55.000Z</time>
      </trkpt>
      <trkpt lat="48.29417" lon="7.32971">
        <ele>538</ele>
        <time>2000-01-01T03:57:05.000Z</time>
      </trkpt>
      <trkpt lat="48.29416" lon="7.32967">
        <ele>552.1</ele>
        <time>2000-01-01T03:57:15.000Z</time>
      </trkpt>
      <trkpt lat="48.29415" lon="7.32961">
        <ele>553</ele>
        <time>2000-01-01T03:57:25.000Z</time>
      </trkpt>
      <trkpt lat="48.29412" lon="7.32954">
        <ele>554.2</ele>
        <time>2000-01-01T03:57:35.000Z</time>
      </trkpt>
      <trkpt lat="48.29409" lon="7.32948">
        <ele>555.3</ele>
        <time>2000-01-01T03:57:45.000Z</time>
      </trkpt>
      <trkpt lat="48.29405" lon="7.32944">
        <ele>545</ele>
        <time>2000-01-01T03:57:55.000Z</time>
      </trkpt>
      <trkpt lat="48.29404" lon="7.32943">
        <ele>556</ele>
        <time>2000-01-01T03:58:05.000Z</time>
      </trkpt>
      <trkpt lat="48.29399" lon="7.32937">
        <ele>556.6</ele>
        <time>2000-01-01T03:58:15.000Z</time>
      </trkpt>
      <trkpt lat="48.29397" lon="7.32928">
        <ele>558</ele>
        <time>2000-01-01T03:58:25.000Z</time>
      </trkpt>
      <trkpt lat="48.29397" lon="7.32925">
        <ele>558.6</ele>
        <time>2000-01-01T03:58:35.000Z</time>
      </trkpt>
      <trkpt lat="48.29395" lon="7.3292">
        <ele>549</ele>
        <time>2000-01-01T03:58:45.000Z</time>
      </trkpt>
      <trkpt lat="48.29388" lon="7.32913">
        <ele>569.9</ele>
        <time>2000-01-01T03:58:55.000Z</time>
      </trkpt>
      <trkpt lat="48.29384" lon="7.3291">
        <ele>569.5</ele>
        <time>2000-01-01T03:59:05.000Z</time>
      </trkpt>
      <trkpt lat="48.29383" lon="7.32906">
        <ele>569.6</ele>
        <time>2000-01-01T03:59:15.000Z</time>
      </trkpt>
      <trkpt lat="48.29382" lon="7.32905">
        <ele>569.6</ele>
        <time>2000-01-01T03:59:25.000Z</time>
      </trkpt>
      <trkpt lat="48.29377" lon="7.32897">
        <ele>550</ele>
        <time>2000-01-01T03:59:35.000Z</time>
      </trkpt>
      <trkpt lat="48.29373" lon="7.32891">
        <ele>569.7</ele>
        <time>2000-01-01T03:59:45.000Z</time>
      </trkpt>
      <trkpt lat="48.29369" lon="7.32887">
        <ele>569.6</ele>
        <time>2000-01-01T03:59:55.000Z</time>
      </trkpt>
      <trkpt lat="48.29366" lon="7.32883">
        <ele>569.8</ele>
        <time>2000-01-01T04:00:05.000Z</time>
      </trkpt>
      <trkpt lat="48.29361" lon="7.32877">
        <ele>552</ele>
        <time>2000-01-01T04:00:15.000Z</time>
      </trkpt>
      <trkpt lat="48.29359" lon="7.32872">
        <ele>570.6</ele>
        <time>2000-01-01T04:00:25.000Z</time>
      </trkpt>
      <trkpt lat="48.29357" lon="7.32865">
        <ele>571.3</ele>
        <time>2000-01-01T04:00:35.000Z</time>
      </trkpt>
      <trkpt lat="48.29355" lon="7.32862">
        <ele>571.5</ele>
        <time>2000-01-01T04:00:45.000Z</time>
      </trkpt>
      <trkpt lat="48.29355" lon="7.3286">
        <ele>571.7</ele>
        <time>2000-01-01T04:00:55.000Z</time>
      </trkpt>
      <trkpt lat="48.29352" lon="7.32846">
        <ele>557</ele>
        <time>2000-01-01T04:01:05.000Z</time>
      </trkpt>
      <trkpt lat="48.2935" lon="7.3284">
        <ele>572.8</ele>
        <time>2000-01-01T04:01:15.000Z</time>
      </trkpt>
      <trkpt lat="48.29345" lon="7.32824">
        <ele>582.1</ele>
        <time>2000-01-01T04:01:25.000Z</time>
      </trkpt>
      <trkpt lat="48.29344" lon="7.32821">
        <ele>558</ele>
        <time>2000-01-01T04:01:35.000Z</time>
      </trkpt>
      <trkpt lat="48.29342" lon="7.32821">
        <ele>582.1</ele>
        <time>2000-01-01T04:01:45.000Z</time>
      </trkpt>
      <trkpt lat="48.29339" lon="7.32817">
        <ele>583</ele>
        <time>2000-01-01T04:01:55.000Z</time>
      </trkpt>
      <trkpt lat="48.29337" lon="7.3281">
        <ele>585.3</ele>
        <time>2000-01-01T04:02:05.000Z</time>
      </trkpt>
      <trkpt lat="48.29335" lon="7.32807">
        <ele>586</ele>
        <time>2000-01-01T04:02:15.000Z</time>
      </trkpt>
      <trkpt lat="48.29332" lon="7.32804">
        <ele>564.8</ele>
        <time>2000-01-01T04:02:25.000Z</time>
      </trkpt>
      <trkpt lat="48.29331" lon="7.32801">
        <ele>560</ele>
        <time>2000-01-01T04:02:35.000Z</time>
      </trkpt>
      <trkpt lat="48.29332" lon="7.32797">
        <ele>565.2</ele>
        <time>2000-01-01T04:02:45.000Z</time>
      </trkpt>
      <trkpt lat="48.29331" lon="7.32796">
        <ele>565.2</ele>
        <time>2000-01-01T04:02:55.000Z</time>
      </trkpt>
      <trkpt lat="48.29331" lon="7.32796">
        <ele>565.2</ele>
        <time>2000-01-01T04:03:05.000Z</time>
      </trkpt>
      <trkpt lat="48.29338" lon="7.32798">
        <ele>588.5</ele>
        <time>2000-01-01T04:03:15.000Z</time>
      </trkpt>
      <trkpt lat="48.29353" lon="7.32817">
        <ele>560</ele>
        <time>2000-01-01T04:03:25.000Z</time>
      </trkpt>
      <trkpt lat="48.29361" lon="7.32824">
        <ele>587.7</ele>
        <time>2000-01-01T04:03:35.000Z</time>
      </trkpt>
      <trkpt lat="48.29368" lon="7.32829">
        <ele>589.3</ele>
        <time>2000-01-01T04:03:45.000Z</time>
      </trkpt>
      <trkpt lat="48.29377" lon="7.32854">
        <ele>561</ele>
        <time>2000-01-01T04:03:55.000Z</time>
      </trkpt>
      <trkpt lat="48.29379" lon="7.32862">
        <ele>574.8</ele>
        <time>2000-01-01T04:04:05.000Z</time>
      </trkpt>
      <trkpt lat="48.29388" lon="7.32868">
        <ele>575.2</ele>
        <time>2000-01-01T04:04:15.000Z</time>
      </trkpt>
      <trkpt lat="48.29398" lon="7.32875">
        <ele>563</ele>
        <time>2000-01-01T04:04:25.000Z</time>
      </trkpt>
      <trkpt lat="48.29413" lon="7.32884">
        <ele>574.7</ele>
        <time>2000-01-01T04:04:35.000Z</time>
      </trkpt>
      <trkpt lat="48.29421" lon="7.3289">
        <ele>564</ele>
        <time>2000-01-01T04:04:45.000Z</time>
      </trkpt>
      <trkpt lat="48.29428" lon="7.32897">
        <ele>582</ele>
        <time>2000-01-01T04:04:55.000Z</time>
      </trkpt>
      <trkpt lat="48.29433" lon="7.32902">
        <ele>581.6</ele>
        <time>2000-01-01T04:05:05.000Z</time>
      </trkpt>
      <trkpt lat="48.29444" lon="7.32908">
        <ele>564</ele>
        <time>2000-01-01T04:05:15.000Z</time>
      </trkpt>
      <trkpt lat="48.29451" lon="7.32909">
        <ele>583.8</ele>
        <time>2000-01-01T04:05:25.000Z</time>
      </trkpt>
      <trkpt lat="48.29456" lon="7.32915">
        <ele>583.9</ele>
        <time>2000-01-01T04:05:35.000Z</time>
      </trkpt>
      <trkpt lat="48.2946" lon="7.32918">
        <ele>568.5</ele>
        <time>2000-01-01T04:05:45.000Z</time>
      </trkpt>
      <trkpt lat="48.29467" lon="7.32918">
        <ele>564</ele>
        <time>2000-01-01T04:05:55.000Z</time>
      </trkpt>
      <trkpt lat="48.2947" lon="7.32918">
        <ele>569.7</ele>
        <time>2000-01-01T04:06:05.000Z</time>
      </trkpt>
      <trkpt lat="48.29476" lon="7.32922">
        <ele>570.4</ele>
        <time>2000-01-01T04:06:15.000Z</time>
      </trkpt>
      <trkpt lat="48.29483" lon="7.32922">
        <ele>572.1</ele>
        <time>2000-01-01T04:06:25.000Z</time>
      </trkpt>
      <trkpt lat="48.29489" lon="7.32919">
        <ele>564</ele>
        <time>2000-01-01T04:06:35.000Z</time>
      </trkpt>
      <trkpt lat="48.29502" lon="7.3292">
        <ele>578</ele>
        <time>2000-01-01T04:06:45.000Z</time>
      </trkpt>
      <trkpt lat="48.29505" lon="7.32918">
        <ele>577.5</ele>
        <time>2000-01-01T04:06:55.000Z</time>
      </trkpt>
      <trkpt lat="48.29508" lon="7.32918">
        <ele>564</ele>
        <time>2000-01-01T04:07:05.000Z</time>
      </trkpt>
      <trkpt lat="48.29515" lon="7.32916">
        <ele>585.6</ele>
        <time>2000-01-01T04:07:15.000Z</time>
      </trkpt>
      <trkpt lat="48.29526" lon="7.32911">
        <ele>587.9</ele>
        <time>2000-01-01T04:07:25.000Z</time>
      </trkpt>
      <trkpt lat="48.29545" lon="7.32912">
        <ele>562</ele>
        <time>2000-01-01T04:07:35.000Z</time>
      </trkpt>
      <trkpt lat="48.29567" lon="7.3291">
        <ele>562</ele>
        <time>2000-01-01T04:07:45.000Z</time>
      </trkpt>
      <trkpt lat="48.29585" lon="7.32905">
        <ele>562</ele>
        <time>2000-01-01T04:07:55.000Z</time>
      </trkpt>
      <trkpt lat="48.29605" lon="7.329">
        <ele>560</ele>
        <time>2000-01-01T04:08:05.000Z</time>
      </trkpt>
      <trkpt lat="48.29623" lon="7.32902">
        <ele>559</ele>
        <time>2000-01-01T04:08:15.000Z</time>
      </trkpt>
      <trkpt lat="48.29633" lon="7.32898">
        <ele>583.9</ele>
        <time>2000-01-01T04:08:25.000Z</time>
      </trkpt>
      <trkpt lat="48.29645" lon="7.32896">
        <ele>558</ele>
        <time>2000-01-01T04:08:35.000Z</time>
      </trkpt>
      <trkpt lat="48.2966" lon="7.32892">
        <ele>582.2</ele>
        <time>2000-01-01T04:08:45.000Z</time>
      </trkpt>
      <trkpt lat="48.29678" lon="7.32886">
        <ele>558</ele>
        <time>2000-01-01T04:08:55.000Z</time>
      </trkpt>
      <trkpt lat="48.29686" lon="7.32879">
        <ele>573.8</ele>
        <time>2000-01-01T04:09:05.000Z</time>
      </trkpt>
      <trkpt lat="48.29683" lon="7.3287">
        <ele>575.6</ele>
        <time>2000-01-01T04:09:15.000Z</time>
      </trkpt>
      <trkpt lat="48.29682" lon="7.3287">
        <ele>575.7</ele>
        <time>2000-01-01T04:09:25.000Z</time>
      </trkpt>
      <trkpt lat="48.29671" lon="7.32873">
        <ele>559</ele>
        <time>2000-01-01T04:09:35.000Z</time>
      </trkpt>
      <trkpt lat="48.2966" lon="7.32878">
        <ele>585.3</ele>
        <time>2000-01-01T04:09:45.000Z</time>
      </trkpt>
      <trkpt lat="48.2965" lon="7.32877">
        <ele>562</ele>
        <time>2000-01-01T04:09:55.000Z</time>
      </trkpt>
      <trkpt lat="48.29647" lon="7.32877">
        <ele>586.1</ele>
        <time>2000-01-01T04:10:05.000Z</time>
      </trkpt>
      <trkpt lat="48.29636" lon="7.32874">
        <ele>587.2</ele>
        <time>2000-01-01T04:10:15.000Z</time>
      </trkpt>
      <trkpt lat="48.29632" lon="7.32873">
        <ele>565</ele>
        <time>2000-01-01T04:10:25.000Z</time>
      </trkpt>
      <trkpt lat="48.29623" lon="7.3287">
        <ele>588.7</ele>
        <time>2000-01-01T04:10:35.000Z</time>
      </trkpt>
      <trkpt lat="48.29612" lon="7.32867">
        <ele>573</ele>
        <time>2000-01-01T04:10:45.000Z</time>
      </trkpt>
      <trkpt lat="48.29598" lon="7.32866">
        <ele>591.4</ele>
        <time>2000-01-01T04:10:55.000Z</time>
      </trkpt>
      <trkpt lat="48.29588" lon="7.32868">
        <ele>573</ele>
        <time>2000-01-01T04:11:05.000Z</time>
      </trkpt>
      <trkpt lat="48.2958" lon="7.32872">
        <ele>594.3</ele>
        <time>2000-01-01T04:11:15.000Z</time>
      </trkpt>
      <trkpt lat="48.29566" lon="7.32873">
        <ele>573</ele>
        <time>2000-01-01T04:11:25.000Z</time>
      </trkpt>
      <trkpt lat="48.29562" lon="7.32874">
        <ele>593.8</ele>
        <time>2000-01-01T04:11:35.000Z</time>
      </trkpt>
      <trkpt lat="48.29559" lon="7.3287">
        <ele>594.6</ele>
        <time>2000-01-01T04:11:45.000Z</time>
      </trkpt>
      <trkpt lat="48.29559" lon="7.32861">
        <ele>596.4</ele>
        <time>2000-01-01T04:11:55.000Z</time>
      </trkpt>
      <trkpt lat="48.29565" lon="7.32855">
        <ele>581</ele>
        <time>2000-01-01T04:12:05.000Z</time>
      </trkpt>
      <trkpt lat="48.29576" lon="7.32846">
        <ele>601.5</ele>
        <time>2000-01-01T04:12:15.000Z</time>
      </trkpt>
      <trkpt lat="48.29589" lon="7.3284">
        <ele>582</ele>
        <time>2000-01-01T04:12:25.000Z</time>
      </trkpt>
      <trkpt lat="48.29595" lon="7.32836">
        <ele>600.3</ele>
        <time>2000-01-01T04:12:35.000Z</time>
      </trkpt>
      <trkpt lat="48.29603" lon="7.3283">
        <ele>610.5</ele>
        <time>2000-01-01T04:12:45.000Z</time>
      </trkpt>
      <trkpt lat="48.29605" lon="7.32829">
        <ele>610.6</ele>
        <time>2000-01-01T04:12:55.000Z</time>
      </trkpt>
      <trkpt lat="48.2961" lon="7.32825">
        <ele>587</ele>
        <time>2000-01-01T04:13:05.000Z</time>
      </trkpt>
      <trkpt lat="48.29613" lon="7.32822">
        <ele>611</ele>
        <time>2000-01-01T04:13:15.000Z</time>
      </trkpt>
      <trkpt lat="48.2962" lon="7.32817">
        <ele>611</ele>
        <time>2000-01-01T04:13:25.000Z</time>
      </trkpt>
      <trkpt lat="48.29627" lon="7.32814">
        <ele>587</ele>
        <time>2000-01-01T04:13:35.000Z</time>
      </trkpt>
      <trkpt lat="48.29636" lon="7.32798">
        <ele>612.1</ele>
        <time>2000-01-01T04:13:45.000Z</time>
      </trkpt>
      <trkpt lat="48.29641" lon="7.32789">
        <ele>594</ele>
        <time>2000-01-01T04:13:55.000Z</time>
      </trkpt>
      <trkpt lat="48.29649" lon="7.3278">
        <ele>614.4</ele>
        <time>2000-01-01T04:14:05.000Z</time>
      </trkpt>
      <trkpt lat="48.29659" lon="7.3277">
        <ele>595</ele>
        <time>2000-01-01T04:14:15.000Z</time>
      </trkpt>
      <trkpt lat="48.29669" lon="7.32761">
        <ele>609.8</ele>
        <time>2000-01-01T04:14:25.000Z</time>
      </trkpt>
      <trkpt lat="48.29675" lon="7.32754">
        <ele>596</ele>
        <time>2000-01-01T04:14:35.000Z</time>
      </trkpt>
      <trkpt lat="48.2968" lon="7.32742">
        <ele>615.9</ele>
        <time>2000-01-01T04:14:45.000Z</time>
      </trkpt>
      <trkpt lat="48.29684" lon="7.32727">
        <ele>601</ele>
        <time>2000-01-01T04:14:55.000Z</time>
      </trkpt>
      <trkpt lat="48.2969" lon="7.32712">
        <ele>615.1</ele>
        <time>2000-01-01T04:15:05.000Z</time>
      </trkpt>
      <trkpt lat="48.29695" lon="7.32701">
        <ele>605</ele>
        <time>2000-01-01T04:15:15.000Z</time>
      </trkpt>
      <trkpt lat="48.29697" lon="7.32696">
        <ele>615.9</ele>
        <time>2000-01-01T04:15:25.000Z</time>
      </trkpt>
      <trkpt lat="48.29701" lon="7.32686">
        <ele>616.2</ele>
        <time>2000-01-01T04:15:35.000Z</time>
      </trkpt>
      <trkpt lat="48.29703" lon="7.32679">
        <ele>616.3</ele>
        <time>2000-01-01T04:15:45.000Z</time>
      </trkpt>
      <trkpt lat="48.29708" lon="7.32665">
        <ele>613</ele>
        <time>2000-01-01T04:15:55.000Z</time>
      </trkpt>
      <trkpt lat="48.29705" lon="7.32643">
        <ele>628.6</ele>
        <time>2000-01-01T04:16:05.000Z</time>
      </trkpt>
      <trkpt lat="48.29707" lon="7.32628">
        <ele>615</ele>
        <time>2000-01-01T04:16:15.000Z</time>
      </trkpt>
      <trkpt lat="48.29715" lon="7.32613">
        <ele>629</ele>
        <time>2000-01-01T04:16:25.000Z</time>
      </trkpt>
      <trkpt lat="48.29722" lon="7.32598">
        <ele>618</ele>
        <time>2000-01-01T04:16:35.000Z</time>
      </trkpt>
      <trkpt lat="48.29721" lon="7.32582">
        <ele>634.4</ele>
        <time>2000-01-01T04:16:45.000Z</time>
      </trkpt>
      <trkpt lat="48.29718" lon="7.3258">
        <ele>635.7</ele>
        <time>2000-01-01T04:16:55.000Z</time>
      </trkpt>
      <trkpt lat="48.29716" lon="7.32574">
        <ele>620</ele>
        <time>2000-01-01T04:17:05.000Z</time>
      </trkpt>
      <trkpt lat="48.29717" lon="7.3257">
        <ele>636.6</ele>
        <time>2000-01-01T04:17:15.000Z</time>
      </trkpt>
      <trkpt lat="48.29717" lon="7.32558">
        <ele>637.4</ele>
        <time>2000-01-01T04:17:25.000Z</time>
      </trkpt>
      <trkpt lat="48.2972" lon="7.32553">
        <ele>636.9</ele>
        <time>2000-01-01T04:17:35.000Z</time>
      </trkpt>
      <trkpt lat="48.29722" lon="7.32541">
        <ele>619</ele>
        <time>2000-01-01T04:17:45.000Z</time>
      </trkpt>
      <trkpt lat="48.29728" lon="7.32529">
        <ele>635.8</ele>
        <time>2000-01-01T04:17:55.000Z</time>
      </trkpt>
      <trkpt lat="48.29733" lon="7.32515">
        <ele>620</ele>
        <time>2000-01-01T04:18:05.000Z</time>
      </trkpt>
      <trkpt lat="48.29729" lon="7.32499">
        <ele>633.2</ele>
        <time>2000-01-01T04:18:15.000Z</time>
      </trkpt>
      <trkpt lat="48.29726" lon="7.32493">
        <ele>634.4</ele>
        <time>2000-01-01T04:18:25.000Z</time>
      </trkpt>
      <trkpt lat="48.29725" lon="7.32489">
        <ele>622</ele>
        <time>2000-01-01T04:18:35.000Z</time>
      </trkpt>
      <trkpt lat="48.29724" lon="7.32487">
        <ele>635.4</ele>
        <time>2000-01-01T04:18:45.000Z</time>
      </trkpt>
      <trkpt lat="48.29722" lon="7.32475">
        <ele>636.4</ele>
        <time>2000-01-01T04:18:55.000Z</time>
      </trkpt>
      <trkpt lat="48.29722" lon="7.32471">
        <ele>636.4</ele>
        <time>2000-01-01T04:19:05.000Z</time>
      </trkpt>
      <trkpt lat="48.29721" lon="7.32469">
        <ele>636.7</ele>
        <time>2000-01-01T04:19:15.000Z</time>
      </trkpt>
      <trkpt lat="48.2972" lon="7.32458">
        <ele>628</ele>
        <time>2000-01-01T04:19:25.000Z</time>
      </trkpt>
      <trkpt lat="48.29711" lon="7.32439">
        <ele>637.8</ele>
        <time>2000-01-01T04:19:35.000Z</time>
      </trkpt>
      <trkpt lat="48.29709" lon="7.32435">
        <ele>626</ele>
        <time>2000-01-01T04:19:45.000Z</time>
      </trkpt>
      <trkpt lat="48.29706" lon="7.32429">
        <ele>638.9</ele>
        <time>2000-01-01T04:19:55.000Z</time>
      </trkpt>
      <trkpt lat="48.29703" lon="7.32423">
        <ele>639.8</ele>
        <time>2000-01-01T04:20:05.000Z</time>
      </trkpt>
      <trkpt lat="48.297" lon="7.32417">
        <ele>640.7</ele>
        <time>2000-01-01T04:20:15.000Z</time>
      </trkpt>
      <trkpt lat="48.29699" lon="7.32414">
        <ele>636</ele>
        <time>2000-01-01T04:20:25.000Z</time>
      </trkpt>
      <trkpt lat="48.29708" lon="7.32398">
        <ele>625</ele>
        <time>2000-01-01T04:20:35.000Z</time>
      </trkpt>
      <trkpt lat="48.29708" lon="7.32396">
        <ele>632.3</ele>
        <time>2000-01-01T04:20:45.000Z</time>
      </trkpt>
      <trkpt lat="48.29703" lon="7.32387">
        <ele>633</ele>
        <time>2000-01-01T04:20:55.000Z</time>
      </trkpt>
      <trkpt lat="48.29695" lon="7.32378">
        <ele>625</ele>
        <time>2000-01-01T04:21:05.000Z</time>
      </trkpt>
      <trkpt lat="48.2969" lon="7.32373">
        <ele>634.6</ele>
        <time>2000-01-01T04:21:15.000Z</time>
      </trkpt>
      <trkpt lat="48.29682" lon="7.32363">
        <ele>635.7</ele>
        <time>2000-01-01T04:21:25.000Z</time>
      </trkpt>
      <trkpt lat="48.29669" lon="7.32351">
        <ele>637</ele>
        <time>2000-01-01T04:21:35.000Z</time>
      </trkpt>
      <trkpt lat="48.29668" lon="7.32351">
        <ele>638.4</ele>
        <time>2000-01-01T04:21:45.000Z</time>
      </trkpt>
      <trkpt lat="48.29659" lon="7.32338">
        <ele>650.3</ele>
        <time>2000-01-01T04:21:55.000Z</time>
      </trkpt>
      <trkpt lat="48.29655" lon="7.32334">
        <ele>637</ele>
        <time>2000-01-01T04:22:05.000Z</time>
      </trkpt>
      <trkpt lat="48.2965" lon="7.3233">
        <ele>650.3</ele>
        <time>2000-01-01T04:22:15.000Z</time>
      </trkpt>
      <trkpt lat="48.29647" lon="7.32324">
        <ele>651.4</ele>
        <time>2000-01-01T04:22:25.000Z</time>
      </trkpt>
      <trkpt lat="48.2965" lon="7.32315">
        <ele>651.3</ele>
        <time>2000-01-01T04:22:35.000Z</time>
      </trkpt>
      <trkpt lat="48.29644" lon="7.32303">
        <ele>635</ele>
        <time>2000-01-01T04:22:45.000Z</time>
      </trkpt>
      <trkpt lat="48.29638" lon="7.32302">
        <ele>653.7</ele>
        <time>2000-01-01T04:22:55.000Z</time>
      </trkpt>
      <trkpt lat="48.29639" lon="7.32304">
        <ele>653.6</ele>
        <time>2000-01-01T04:23:05.000Z</time>
      </trkpt>
      <trkpt lat="48.2964" lon="7.32314">
        <ele>653.4</ele>
        <time>2000-01-01T04:23:15.000Z</time>
      </trkpt>
      <trkpt lat="48.2965" lon="7.32324">
        <ele>635</ele>
        <time>2000-01-01T04:23:25.000Z</time>
      </trkpt>
      <trkpt lat="48.29662" lon="7.32348">
        <ele>635</ele>
        <time>2000-01-01T04:23:35.000Z</time>
      </trkpt>
      <trkpt lat="48.29665" lon="7.32377">
        <ele>642</ele>
        <time>2000-01-01T04:23:45.000Z</time>
      </trkpt>
      <trkpt lat="48.29666" lon="7.32385">
        <ele>659.3</ele>
        <time>2000-01-01T04:23:55.000Z</time>
      </trkpt>
      <trkpt lat="48.29665" lon="7.32388">
        <ele>659.3</ele>
        <time>2000-01-01T04:24:05.000Z</time>
      </trkpt>
      <trkpt lat="48.29674" lon="7.3241">
        <ele>641</ele>
        <time>2000-01-01T04:24:15.000Z</time>
      </trkpt>
      <trkpt lat="48.29673" lon="7.32421">
        <ele>650.1</ele>
        <time>2000-01-01T04:24:25.000Z</time>
      </trkpt>
      <trkpt lat="48.29685" lon="7.32431">
        <ele>640</ele>
        <time>2000-01-01T04:24:35.000Z</time>
      </trkpt>
      <trkpt lat="48.29695" lon="7.32461">
        <ele>639</ele>
        <time>2000-01-01T04:24:45.000Z</time>
      </trkpt>
      <trkpt lat="48.29694" lon="7.32464">
        <ele>642.7</ele>
        <time>2000-01-01T04:24:55.000Z</time>
      </trkpt>
      <trkpt lat="48.29692" lon="7.32492">
        <ele>639</ele>
        <time>2000-01-01T04:25:05.000Z</time>
      </trkpt>
      <trkpt lat="48.29691" lon="7.32499">
        <ele>647.1</ele>
        <time>2000-01-01T04:25:15.000Z</time>
      </trkpt>
      <trkpt lat="48.29688" lon="7.32534">
        <ele>640</ele>
        <time>2000-01-01T04:25:25.000Z</time>
      </trkpt>
      <trkpt lat="48.29684" lon="7.32562">
        <ele>642</ele>
        <time>2000-01-01T04:25:35.000Z</time>
      </trkpt>
      <trkpt lat="48.29676" lon="7.32576">
        <ele>651.8</ele>
        <time>2000-01-01T04:25:45.000Z</time>
      </trkpt>
      <trkpt lat="48.29663" lon="7.32599">
        <ele>649</ele>
        <time>2000-01-01T04:25:55.000Z</time>
      </trkpt>
      <trkpt lat="48.29645" lon="7.32617">
        <ele>657</ele>
        <time>2000-01-01T04:26:05.000Z</time>
      </trkpt>
      <trkpt lat="48.29628" lon="7.32634">
        <ele>657</ele>
        <time>2000-01-01T04:26:15.000Z</time>
      </trkpt>
      <trkpt lat="48.29621" lon="7.32638">
        <ele>661.4</ele>
        <time>2000-01-01T04:26:25.000Z</time>
      </trkpt>
      <trkpt lat="48.29605" lon="7.3266">
        <ele>651</ele>
        <time>2000-01-01T04:26:35.000Z</time>
      </trkpt>
      <trkpt lat="48.2959" lon="7.32677">
        <ele>651</ele>
        <time>2000-01-01T04:26:45.000Z</time>
      </trkpt>
      <trkpt lat="48.2957" lon="7.32675">
        <ele>650</ele>
        <time>2000-01-01T04:26:55.000Z</time>
      </trkpt>
      <trkpt lat="48.29546" lon="7.32681">
        <ele>650</ele>
        <time>2000-01-01T04:27:05.000Z</time>
      </trkpt>
      <trkpt lat="48.29525" lon="7.32698">
        <ele>645</ele>
        <time>2000-01-01T04:27:15.000Z</time>
      </trkpt>
      <trkpt lat="48.29506" lon="7.32699">
        <ele>645</ele>
        <time>2000-01-01T04:27:25.000Z</time>
      </trkpt>
      <trkpt lat="48.29486" lon="7.327">
        <ele>644</ele>
        <time>2000-01-01T04:27:35.000Z</time>
      </trkpt>
      <trkpt lat="48.29468" lon="7.32705">
        <ele>637</ele>
        <time>2000-01-01T04:27:45.000Z</time>
      </trkpt>
      <trkpt lat="48.2945" lon="7.327">
        <ele>642.4</ele>
        <time>2000-01-01T04:27:55.000Z</time>
      </trkpt>
      <trkpt lat="48.29434" lon="7.32687">
        <ele>637</ele>
        <time>2000-01-01T04:28:05.000Z</time>
      </trkpt>
      <trkpt lat="48.29427" lon="7.32665">
        <ele>652</ele>
        <time>2000-01-01T04:28:15.000Z</time>
      </trkpt>
      <trkpt lat="48.29418" lon="7.32654">
        <ele>637</ele>
        <time>2000-01-01T04:28:25.000Z</time>
      </trkpt>
      <trkpt lat="48.29407" lon="7.32631">
        <ele>636</ele>
        <time>2000-01-01T04:28:35.000Z</time>
      </trkpt>
      <trkpt lat="48.29402" lon="7.32607">
        <ele>644.3</ele>
        <time>2000-01-01T04:28:45.000Z</time>
      </trkpt>
      <trkpt lat="48.29397" lon="7.32595">
        <ele>636</ele>
        <time>2000-01-01T04:28:55.000Z</time>
      </trkpt>
      <trkpt lat="48.29393" lon="7.32578">
        <ele>647.9</ele>
        <time>2000-01-01T04:29:05.000Z</time>
      </trkpt>
      <trkpt lat="48.29393" lon="7.32563">
        <ele>638</ele>
        <time>2000-01-01T04:29:15.000Z</time>
      </trkpt>
      <trkpt lat="48.29397" lon="7.32553">
        <ele>645.8</ele>
        <time>2000-01-01T04:29:25.000Z</time>
      </trkpt>
      <trkpt lat="48.294" lon="7.32543">
        <ele>645.7</ele>
        <time>2000-01-01T04:29:35.000Z</time>
      </trkpt>
      <trkpt lat="48.29402" lon="7.32538">
        <ele>640</ele>
        <time>2000-01-01T04:29:45.000Z</time>
      </trkpt>
      <trkpt lat="48.29403" lon="7.32538">
        <ele>646.3</ele>
        <time>2000-01-01T04:29:55.000Z</time>
      </trkpt>
      <trkpt lat="48.29402" lon="7.32531">
        <ele>646.4</ele>
        <time>2000-01-01T04:30:05.000Z</time>
      </trkpt>
      <trkpt lat="48.29401" lon="7.32526">
        <ele>646.7</ele>
        <time>2000-01-01T04:30:15.000Z</time>
      </trkpt>
      <trkpt lat="48.29402" lon="7.32522">
        <ele>647.5</ele>
        <time>2000-01-01T04:30:25.000Z</time>
      </trkpt>
      <trkpt lat="48.29403" lon="7.32519">
        <ele>648.4</ele>
        <time>2000-01-01T04:30:35.000Z</time>
      </trkpt>
      <trkpt lat="48.29405" lon="7.32518">
        <ele>649.2</ele>
        <time>2000-01-01T04:30:45.000Z</time>
      </trkpt>
      <trkpt lat="48.29405" lon="7.32517">
        <ele>649.4</ele>
        <time>2000-01-01T04:30:55.000Z</time>
      </trkpt>
      <trkpt lat="48.29408" lon="7.32516">
        <ele>642</ele>
        <time>2000-01-01T04:31:05.000Z</time>
      </trkpt>
      <trkpt lat="48.29412" lon="7.32514">
        <ele>652.3</ele>
        <time>2000-01-01T04:31:15.000Z</time>
      </trkpt>
      <trkpt lat="48.29412" lon="7.32512">
        <ele>653.1</ele>
        <time>2000-01-01T04:31:25.000Z</time>
      </trkpt>
      <trkpt lat="48.29413" lon="7.32508">
        <ele>655.3</ele>
        <time>2000-01-01T04:31:35.000Z</time>
      </trkpt>
      <trkpt lat="48.29413" lon="7.32508">
        <ele>655.3</ele>
        <time>2000-01-01T04:31:45.000Z</time>
      </trkpt>
      <trkpt lat="48.29415" lon="7.32509">
        <ele>655.2</ele>
        <time>2000-01-01T04:31:55.000Z</time>
      </trkpt>
      <trkpt lat="48.29416" lon="7.32509">
        <ele>655.4</ele>
        <time>2000-01-01T04:32:05.000Z</time>
      </trkpt>
      <trkpt lat="48.29422" lon="7.32507">
        <ele>655</ele>
        <time>2000-01-01T04:32:15.000Z</time>
      </trkpt>
      <trkpt lat="48.29425" lon="7.32505">
        <ele>667.3</ele>
        <time>2000-01-01T04:32:25.000Z</time>
      </trkpt>
      <trkpt lat="48.29429" lon="7.325">
        <ele>668.4</ele>
        <time>2000-01-01T04:32:35.000Z</time>
      </trkpt>
      <trkpt lat="48.2943" lon="7.325">
        <ele>668.8</ele>
        <time>2000-01-01T04:32:45.000Z</time>
      </trkpt>
      <trkpt lat="48.29433" lon="7.32495">
        <ele>667.7</ele>
        <time>2000-01-01T04:32:55.000Z</time>
      </trkpt>
      <trkpt lat="48.29436" lon="7.32488">
        <ele>659</ele>
        <time>2000-01-01T04:33:05.000Z</time>
      </trkpt>
      <trkpt lat="48.2944" lon="7.32485">
        <ele>669.8</ele>
        <time>2000-01-01T04:33:15.000Z</time>
      </trkpt>
      <trkpt lat="48.29441" lon="7.32483">
        <ele>670.1</ele>
        <time>2000-01-01T04:33:25.000Z</time>
      </trkpt>
      <trkpt lat="48.29444" lon="7.32485">
        <ele>670.8</ele>
        <time>2000-01-01T04:33:35.000Z</time>
      </trkpt>
      <trkpt lat="48.29446" lon="7.32485">
        <ele>671.2</ele>
        <time>2000-01-01T04:33:45.000Z</time>
      </trkpt>
      <trkpt lat="48.29449" lon="7.32483">
        <ele>671.9</ele>
        <time>2000-01-01T04:33:55.000Z</time>
      </trkpt>
      <trkpt lat="48.29451" lon="7.32482">
        <ele>672.4</ele>
        <time>2000-01-01T04:34:05.000Z</time>
      </trkpt>
      <trkpt lat="48.29453" lon="7.32483">
        <ele>676</ele>
        <time>2000-01-01T04:34:15.000Z</time>
      </trkpt>
      <trkpt lat="48.29456" lon="7.32488">
        <ele>673.9</ele>
        <time>2000-01-01T04:34:25.000Z</time>
      </trkpt>
      <trkpt lat="48.29459" lon="7.32489">
        <ele>674.8</ele>
        <time>2000-01-01T04:34:35.000Z</time>
      </trkpt>
      <trkpt lat="48.29461" lon="7.32492">
        <ele>675.5</ele>
        <time>2000-01-01T04:34:45.000Z</time>
      </trkpt>
      <trkpt lat="48.29462" lon="7.32493">
        <ele>675.8</ele>
        <time>2000-01-01T04:34:55.000Z</time>
      </trkpt>
      <trkpt lat="48.29466" lon="7.32498">
        <ele>677.3</ele>
        <time>2000-01-01T04:35:05.000Z</time>
      </trkpt>
      <trkpt lat="48.29467" lon="7.32502">
        <ele>686</ele>
        <time>2000-01-01T04:35:15.000Z</time>
      </trkpt>
      <trkpt lat="48.29468" lon="7.32499">
        <ele>678</ele>
        <time>2000-01-01T04:35:25.000Z</time>
      </trkpt>
      <trkpt lat="48.29469" lon="7.3248">
        <ele>676.9</ele>
        <time>2000-01-01T04:35:35.000Z</time>
      </trkpt>
      <trkpt lat="48.29473" lon="7.32473">
        <ele>688</ele>
        <time>2000-01-01T04:35:45.000Z</time>
      </trkpt>
      <trkpt lat="48.29472" lon="7.32469">
        <ele>676.5</ele>
        <time>2000-01-01T04:35:55.000Z</time>
      </trkpt>
      <trkpt lat="48.29473" lon="7.32466">
        <ele>676.4</ele>
        <time>2000-01-01T04:36:05.000Z</time>
      </trkpt>
      <trkpt lat="48.29479" lon="7.32468">
        <ele>677.8</ele>
        <time>2000-01-01T04:36:15.000Z</time>
      </trkpt>
      <trkpt lat="48.29478" lon="7.32475">
        <ele>678.6</ele>
        <time>2000-01-01T04:36:25.000Z</time>
      </trkpt>
      <trkpt lat="48.29477" lon="7.32478">
        <ele>688</ele>
        <time>2000-01-01T04:36:35.000Z</time>
      </trkpt>
      <trkpt lat="48.29477" lon="7.32482">
        <ele>679.4</ele>
        <time>2000-01-01T04:36:45.000Z</time>
      </trkpt>
      <trkpt lat="48.29477" lon="7.32485">
        <ele>679.9</ele>
        <time>2000-01-01T04:36:55.000Z</time>
      </trkpt>
      <trkpt lat="48.29479" lon="7.32504">
        <ele>684.4</ele>
        <time>2000-01-01T04:37:05.000Z</time>
      </trkpt>
      <trkpt lat="48.2948" lon="7.32514">
        <ele>700</ele>
        <time>2000-01-01T04:37:15.000Z</time>
      </trkpt>
      <trkpt lat="48.29481" lon="7.32516">
        <ele>683.7</ele>
        <time>2000-01-01T04:37:25.000Z</time>
      </trkpt>
      <trkpt lat="48.29496" lon="7.32532">
        <ele>702</ele>
        <time>2000-01-01T04:37:35.000Z</time>
      </trkpt>
      <trkpt lat="48.29514" lon="7.32538">
        <ele>705</ele>
        <time>2000-01-01T04:37:45.000Z</time>
      </trkpt>
      <trkpt lat="48.29532" lon="7.32535">
        <ele>705</ele>
        <time>2000-01-01T04:37:55.000Z</time>
      </trkpt>
      <trkpt lat="48.29538" lon="7.32531">
        <ele>691.1</ele>
        <time>2000-01-01T04:38:05.000Z</time>
      </trkpt>
      <trkpt lat="48.29551" lon="7.32528">
        <ele>703</ele>
        <time>2000-01-01T04:38:15.000Z</time>
      </trkpt>
      <trkpt lat="48.29556" lon="7.32511">
        <ele>690.8</ele>
        <time>2000-01-01T04:38:25.000Z</time>
      </trkpt>
      <trkpt lat="48.29558" lon="7.32505">
        <ele>690.8</ele>
        <time>2000-01-01T04:38:35.000Z</time>
      </trkpt>
      <trkpt lat="48.29552" lon="7.32478">
        <ele>702</ele>
        <time>2000-01-01T04:38:45.000Z</time>
      </trkpt>
      <trkpt lat="48.29545" lon="7.32461">
        <ele>689</ele>
        <time>2000-01-01T04:38:55.000Z</time>
      </trkpt>
      <trkpt lat="48.29539" lon="7.32449">
        <ele>696</ele>
        <time>2000-01-01T04:39:05.000Z</time>
      </trkpt>
      <trkpt lat="48.29521" lon="7.32446">
        <ele>695</ele>
        <time>2000-01-01T04:39:15.000Z</time>
      </trkpt>
      <trkpt lat="48.29497" lon="7.32454">
        <ele>692</ele>
        <time>2000-01-01T04:39:25.000Z</time>
      </trkpt>
      <trkpt lat="48.29495" lon="7.32455">
        <ele>678.9</ele>
        <time>2000-01-01T04:39:35.000Z</time>
      </trkpt>
      <trkpt lat="48.29497" lon="7.32447">
        <ele>678.9</ele>
        <time>2000-01-01T04:39:45.000Z</time>
      </trkpt>
      <trkpt lat="48.29505" lon="7.32436">
        <ele>687.9</ele>
        <time>2000-01-01T04:39:55.000Z</time>
      </trkpt>
      <trkpt lat="48.29511" lon="7.32424">
        <ele>691</ele>
        <time>2000-01-01T04:40:05.000Z</time>
      </trkpt>
      <trkpt lat="48.29515" lon="7.3242">
        <ele>687.3</ele>
        <time>2000-01-01T04:40:15.000Z</time>
      </trkpt>
      <trkpt lat="48.29519" lon="7.32417">
        <ele>687.4</ele>
        <time>2000-01-01T04:40:25.000Z</time>
      </trkpt>
      <trkpt lat="48.2953" lon="7.32402">
        <ele>689</ele>
        <time>2000-01-01T04:40:35.000Z</time>
      </trkpt>
      <trkpt lat="48.29538" lon="7.32392">
        <ele>680.5</ele>
        <time>2000-01-01T04:40:45.000Z</time>
      </trkpt>
      <trkpt lat="48.29545" lon="7.32384">
        <ele>687</ele>
        <time>2000-01-01T04:40:55.000Z</time>
      </trkpt>
      <trkpt lat="48.29556" lon="7.32375">
        <ele>679.5</ele>
        <time>2000-01-01T04:41:05.000Z</time>
      </trkpt>
      <trkpt lat="48.29557" lon="7.32369">
        <ele>679</ele>
        <time>2000-01-01T04:41:15.000Z</time>
      </trkpt>
      <trkpt lat="48.29557" lon="7.32357">
        <ele>680</ele>
        <time>2000-01-01T04:41:25.000Z</time>
      </trkpt>
      <trkpt lat="48.29555" lon="7.3235">
        <ele>677.9</ele>
        <time>2000-01-01T04:41:35.000Z</time>
      </trkpt>
      <trkpt lat="48.29554" lon="7.32339">
        <ele>677.4</ele>
        <time>2000-01-01T04:41:45.000Z</time>
      </trkpt>
      <trkpt lat="48.29555" lon="7.32324">
        <ele>671</ele>
        <time>2000-01-01T04:41:55.000Z</time>
      </trkpt>
      <trkpt lat="48.29557" lon="7.32315">
        <ele>669.3</ele>
        <time>2000-01-01T04:42:05.000Z</time>
      </trkpt>
      <trkpt lat="48.29558" lon="7.3231">
        <ele>669</ele>
        <time>2000-01-01T04:42:15.000Z</time>
      </trkpt>
      <trkpt lat="48.29559" lon="7.323">
        <ele>668.2</ele>
        <time>2000-01-01T04:42:25.000Z</time>
      </trkpt>
      <trkpt lat="48.29561" lon="7.32283">
        <ele>663</ele>
        <time>2000-01-01T04:42:35.000Z</time>
      </trkpt>
      <trkpt lat="48.29563" lon="7.32266">
        <ele>666.6</ele>
        <time>2000-01-01T04:42:45.000Z</time>
      </trkpt>
      <trkpt lat="48.2956" lon="7.3225">
        <ele>658</ele>
        <time>2000-01-01T04:42:55.000Z</time>
      </trkpt>
      <trkpt lat="48.29559" lon="7.32243">
        <ele>659.8</ele>
        <time>2000-01-01T04:43:05.000Z</time>
      </trkpt>
      <trkpt lat="48.29562" lon="7.32222">
        <ele>656</ele>
        <time>2000-01-01T04:43:15.000Z</time>
      </trkpt>
      <trkpt lat="48.29561" lon="7.32202">
        <ele>656.8</ele>
        <time>2000-01-01T04:43:25.000Z</time>
      </trkpt>
      <trkpt lat="48.2956" lon="7.3219">
        <ele>652</ele>
        <time>2000-01-01T04:43:35.000Z</time>
      </trkpt>
      <trkpt lat="48.29562" lon="7.32178">
        <ele>656.6</ele>
        <time>2000-01-01T04:43:45.000Z</time>
      </trkpt>
      <trkpt lat="48.29564" lon="7.32166">
        <ele>653.9</ele>
        <time>2000-01-01T04:43:55.000Z</time>
      </trkpt>
      <trkpt lat="48.29569" lon="7.32146">
        <ele>646</ele>
        <time>2000-01-01T04:44:05.000Z</time>
      </trkpt>
      <trkpt lat="48.2957" lon="7.32141">
        <ele>652.7</ele>
        <time>2000-01-01T04:44:15.000Z</time>
      </trkpt>
      <trkpt lat="48.29569" lon="7.32118">
        <ele>645</ele>
        <time>2000-01-01T04:44:25.000Z</time>
      </trkpt>
      <trkpt lat="48.2956" lon="7.32082">
        <ele>645</ele>
        <time>2000-01-01T04:44:35.000Z</time>
      </trkpt>
      <trkpt lat="48.29559" lon="7.32082">
        <ele>651.1</ele>
        <time>2000-01-01T04:44:45.000Z</time>
      </trkpt>
      <trkpt lat="48.29554" lon="7.32078">
        <ele>650.3</ele>
        <time>2000-01-01T04:44:55.000Z</time>
      </trkpt>
      <trkpt lat="48.29553" lon="7.32076">
        <ele>650.1</ele>
        <time>2000-01-01T04:45:05.000Z</time>
      </trkpt>
      <trkpt lat="48.29542" lon="7.32063">
        <ele>643</ele>
        <time>2000-01-01T04:45:15.000Z</time>
      </trkpt>
      <trkpt lat="48.29535" lon="7.32057">
        <ele>648</ele>
        <time>2000-01-01T04:45:25.000Z</time>
      </trkpt>
      <trkpt lat="48.29531" lon="7.32049">
        <ele>647.8</ele>
        <time>2000-01-01T04:45:35.000Z</time>
      </trkpt>
      <trkpt lat="48.29528" lon="7.32043">
        <ele>636</ele>
        <time>2000-01-01T04:45:45.000Z</time>
      </trkpt>
      <trkpt lat="48.29521" lon="7.32029">
        <ele>647.3</ele>
        <time>2000-01-01T04:45:55.000Z</time>
      </trkpt>
      <trkpt lat="48.29512" lon="7.32019">
        <ele>634</ele>
        <time>2000-01-01T04:46:05.000Z</time>
      </trkpt>
      <trkpt lat="48.29508" lon="7.32014">
        <ele>645.7</ele>
        <time>2000-01-01T04:46:15.000Z</time>
      </trkpt>
      <trkpt lat="48.29503" lon="7.32006">
        <ele>644.4</ele>
        <time>2000-01-01T04:46:25.000Z</time>
      </trkpt>
      <trkpt lat="48.29501" lon="7.32005">
        <ele>644.1</ele>
        <time>2000-01-01T04:46:35.000Z</time>
      </trkpt>
      <trkpt lat="48.29498" lon="7.32007">
        <ele>637.9</ele>
        <time>2000-01-01T04:46:45.000Z</time>
      </trkpt>
      <trkpt lat="48.29497" lon="7.3201">
        <ele>624</ele>
        <time>2000-01-01T04:46:55.000Z</time>
      </trkpt>
      <trkpt lat="48.29496" lon="7.32017">
        <ele>633.3</ele>
        <time>2000-01-01T04:47:05.000Z</time>
      </trkpt>
      <trkpt lat="48.29496" lon="7.32018">
        <ele>633</ele>
        <time>2000-01-01T04:47:15.000Z</time>
      </trkpt>
      <trkpt lat="48.29497" lon="7.32021">
        <ele>632.3</ele>
        <time>2000-01-01T04:47:25.000Z</time>
      </trkpt>
      <trkpt lat="48.29499" lon="7.32028">
        <ele>630.9</ele>
        <time>2000-01-01T04:47:35.000Z</time>
      </trkpt>
      <trkpt lat="48.29499" lon="7.32032">
        <ele>630.3</ele>
        <time>2000-01-01T04:47:45.000Z</time>
      </trkpt>
      <trkpt lat="48.29499" lon="7.32038">
        <ele>623</ele>
        <time>2000-01-01T04:47:55.000Z</time>
      </trkpt>
      <trkpt lat="48.29499" lon="7.32047">
        <ele>629.4</ele>
        <time>2000-01-01T04:48:05.000Z</time>
      </trkpt>
      <trkpt lat="48.29497" lon="7.32056">
        <ele>629.8</ele>
        <time>2000-01-01T04:48:15.000Z</time>
      </trkpt>
      <trkpt lat="48.29495" lon="7.32061">
        <ele>630.2</ele>
        <time>2000-01-01T04:48:25.000Z</time>
      </trkpt>
      <trkpt lat="48.29495" lon="7.32062">
        <ele>630.4</ele>
        <time>2000-01-01T04:48:35.000Z</time>
      </trkpt>
      <trkpt lat="48.29494" lon="7.32061">
        <ele>622</ele>
        <time>2000-01-01T04:48:45.000Z</time>
      </trkpt>
      <trkpt lat="48.29493" lon="7.3206">
        <ele>629.8</ele>
        <time>2000-01-01T04:48:55.000Z</time>
      </trkpt>
      <trkpt lat="48.29489" lon="7.32057">
        <ele>628.9</ele>
        <time>2000-01-01T04:49:05.000Z</time>
      </trkpt>
      <trkpt lat="48.29483" lon="7.32051">
        <ele>627.5</ele>
        <time>2000-01-01T04:49:15.000Z</time>
      </trkpt>
      <trkpt lat="48.2948" lon="7.32047">
        <ele>626.9</ele>
        <time>2000-01-01T04:49:25.000Z</time>
      </trkpt>
      <trkpt lat="48.29473" lon="7.32037">
        <ele>614</ele>
        <time>2000-01-01T04:49:35.000Z</time>
      </trkpt>
      <trkpt lat="48.29468" lon="7.32027">
        <ele>625.2</ele>
        <time>2000-01-01T04:49:45.000Z</time>
      </trkpt>
      <trkpt lat="48.29459" lon="7.32009">
        <ele>604</ele>
        <time>2000-01-01T04:49:55.000Z</time>
      </trkpt>
      <trkpt lat="48.29459" lon="7.32008">
        <ele>623.4</ele>
        <time>2000-01-01T04:50:05.000Z</time>
      </trkpt>
      <trkpt lat="48.29457" lon="7.32005">
        <ele>622.8</ele>
        <time>2000-01-01T04:50:15.000Z</time>
      </trkpt>
      <trkpt lat="48.29456" lon="7.32002">
        <ele>622.5</ele>
        <time>2000-01-01T04:50:25.000Z</time>
      </trkpt>
      <trkpt lat="48.29451" lon="7.31994">
        <ele>626.5</ele>
        <time>2000-01-01T04:50:35.000Z</time>
      </trkpt>
      <trkpt lat="48.29449" lon="7.31985">
        <ele>602</ele>
        <time>2000-01-01T04:50:45.000Z</time>
      </trkpt>
      <trkpt lat="48.29448" lon="7.31979">
        <ele>627</ele>
        <time>2000-01-01T04:50:55.000Z</time>
      </trkpt>
      <trkpt lat="48.29439" lon="7.31961">
        <ele>598</ele>
        <time>2000-01-01T04:51:05.000Z</time>
      </trkpt>
      <trkpt lat="48.29432" lon="7.31946">
        <ele>627.1</ele>
        <time>2000-01-01T04:51:15.000Z</time>
      </trkpt>
      <trkpt lat="48.29432" lon="7.31945">
        <ele>627.1</ele>
        <time>2000-01-01T04:51:25.000Z</time>
      </trkpt>
      <trkpt lat="48.2943" lon="7.31941">
        <ele>626.7</ele>
        <time>2000-01-01T04:51:35.000Z</time>
      </trkpt>
      <trkpt lat="48.29418" lon="7.31932">
        <ele>595</ele>
        <time>2000-01-01T04:51:45.000Z</time>
      </trkpt>
      <trkpt lat="48.29411" lon="7.31927">
        <ele>610.9</ele>
        <time>2000-01-01T04:51:55.000Z</time>
      </trkpt>
      <trkpt lat="48.29399" lon="7.31921">
        <ele>591</ele>
        <time>2000-01-01T04:52:05.000Z</time>
      </trkpt>
      <trkpt lat="48.29389" lon="7.31913">
        <ele>613.6</ele>
        <time>2000-01-01T04:52:15.000Z</time>
      </trkpt>
      <trkpt lat="48.29384" lon="7.31909">
        <ele>612.4</ele>
        <time>2000-01-01T04:52:25.000Z</time>
      </trkpt>
      <trkpt lat="48.29383" lon="7.3191">
        <ele>588</ele>
        <time>2000-01-01T04:52:35.000Z</time>
      </trkpt>
      <trkpt lat="48.29386" lon="7.31913">
        <ele>612.8</ele>
        <time>2000-01-01T04:52:45.000Z</time>
      </trkpt>
      <trkpt lat="48.29389" lon="7.31914">
        <ele>613.6</ele>
        <time>2000-01-01T04:52:55.000Z</time>
      </trkpt>
      <trkpt lat="48.29391" lon="7.31918">
        <ele>603.8</ele>
        <time>2000-01-01T04:53:05.000Z</time>
      </trkpt>
      <trkpt lat="48.29392" lon="7.3192">
        <ele>604.1</ele>
        <time>2000-01-01T04:53:15.000Z</time>
      </trkpt>
      <trkpt lat="48.29395" lon="7.31923">
        <ele>605.1</ele>
        <time>2000-01-01T04:53:25.000Z</time>
      </trkpt>
      <trkpt lat="48.29395" lon="7.31924">
        <ele>605</ele>
        <time>2000-01-01T04:53:35.000Z</time>
      </trkpt>
      <trkpt lat="48.29394" lon="7.31927">
        <ele>587</ele>
        <time>2000-01-01T04:53:45.000Z</time>
      </trkpt>
      <trkpt lat="48.29393" lon="7.31928">
        <ele>603.6</ele>
        <time>2000-01-01T04:53:55.000Z</time>
      </trkpt>
      <trkpt lat="48.29389" lon="7.31929">
        <ele>602</ele>
        <time>2000-01-01T04:54:05.000Z</time>
      </trkpt>
      <trkpt lat="48.29379" lon="7.31933">
        <ele>598.5</ele>
        <time>2000-01-01T04:54:15.000Z</time>
      </trkpt>
      <trkpt lat="48.29378" lon="7.31933">
        <ele>598.2</ele>
        <time>2000-01-01T04:54:25.000Z</time>
      </trkpt>
      <trkpt lat="48.29373" lon="7.31931">
        <ele>573</ele>
        <time>2000-01-01T04:54:35.000Z</time>
      </trkpt>
      <trkpt lat="48.29362" lon="7.31923">
        <ele>593.8</ele>
        <time>2000-01-01T04:54:45.000Z</time>
      </trkpt>
      <trkpt lat="48.29355" lon="7.31919">
        <ele>572</ele>
        <time>2000-01-01T04:54:55.000Z</time>
      </trkpt>
      <trkpt lat="48.29345" lon="7.31909">
        <ele>596.2</ele>
        <time>2000-01-01T04:55:05.000Z</time>
      </trkpt>
      <trkpt lat="48.29342" lon="7.31903">
        <ele>597.5</ele>
        <time>2000-01-01T04:55:15.000Z</time>
      </trkpt>
      <trkpt lat="48.29327" lon="7.31895">
        <ele>565</ele>
        <time>2000-01-01T04:55:25.000Z</time>
      </trkpt>
      <trkpt lat="48.29323" lon="7.31894">
        <ele>582.3</ele>
        <time>2000-01-01T04:55:35.000Z</time>
      </trkpt>
      <trkpt lat="48.29307" lon="7.31883">
        <ele>559</ele>
        <time>2000-01-01T04:55:45.000Z</time>
      </trkpt>
      <trkpt lat="48.29302" lon="7.31882">
        <ele>581</ele>
        <time>2000-01-01T04:55:55.000Z</time>
      </trkpt>
      <trkpt lat="48.29301" lon="7.31882">
        <ele>580.9</ele>
        <time>2000-01-01T04:56:05.000Z</time>
      </trkpt>
      <trkpt lat="48.29296" lon="7.31881">
        <ele>580.2</ele>
        <time>2000-01-01T04:56:15.000Z</time>
      </trkpt>
      <trkpt lat="48.2926" lon="7.31884">
        <ele>545</ele>
        <time>2000-01-01T04:56:25.000Z</time>
      </trkpt>
      <trkpt lat="48.29258" lon="7.3188">
        <ele>574.7</ele>
        <time>2000-01-01T04:56:35.000Z</time>
      </trkpt>
      <trkpt lat="48.29254" lon="7.31876">
        <ele>575.1</ele>
        <time>2000-01-01T04:56:45.000Z</time>
      </trkpt>
      <trkpt lat="48.29247" lon="7.31865">
        <ele>541</ele>
        <time>2000-01-01T04:56:55.000Z</time>
      </trkpt>
      <trkpt lat="48.29244" lon="7.31859">
        <ele>561.5</ele>
        <time>2000-01-01T04:57:05.000Z</time>
      </trkpt>
      <trkpt lat="48.2924" lon="7.31854">
        <ele>562.4</ele>
        <time>2000-01-01T04:57:15.000Z</time>
      </trkpt>
      <trkpt lat="48.29235" lon="7.31848">
        <ele>563</ele>
        <time>2000-01-01T04:57:25.000Z</time>
      </trkpt>
      <trkpt lat="48.29223" lon="7.31839">
        <ele>538</ele>
        <time>2000-01-01T04:57:35.000Z</time>
      </trkpt>
      <trkpt lat="48.29213" lon="7.31832">
        <ele>570</ele>
        <time>2000-01-01T04:57:45.000Z</time>
      </trkpt>
      <trkpt lat="48.2921" lon="7.31828">
        <ele>569.5</ele>
        <time>2000-01-01T04:57:55.000Z</time>
      </trkpt>
      <trkpt lat="48.29207" lon="7.31825">
        <ele>533</ele>
        <time>2000-01-01T04:58:05.000Z</time>
      </trkpt>
      <trkpt lat="48.29204" lon="7.31823">
        <ele>568.3</ele>
        <time>2000-01-01T04:58:15.000Z</time>
      </trkpt>
      <trkpt lat="48.29191" lon="7.3181">
        <ele>533</ele>
        <time>2000-01-01T04:58:25.000Z</time>
      </trkpt>
      <trkpt lat="48.29185" lon="7.31805">
        <ele>566.6</ele>
        <time>2000-01-01T04:58:35.000Z</time>
      </trkpt>
      <trkpt lat="48.2918" lon="7.31803">
        <ele>566.2</ele>
        <time>2000-01-01T04:58:45.000Z</time>
      </trkpt>
      <trkpt lat="48.29177" lon="7.318">
        <ele>566.4</ele>
        <time>2000-01-01T04:58:55.000Z</time>
      </trkpt>
      <trkpt lat="48.2917" lon="7.31787">
        <ele>528</ele>
        <time>2000-01-01T04:59:05.000Z</time>
      </trkpt>
      <trkpt lat="48.29168" lon="7.31784">
        <ele>568.5</ele>
        <time>2000-01-01T04:59:15.000Z</time>
      </trkpt>
      <trkpt lat="48.29165" lon="7.31781">
        <ele>551.8</ele>
        <time>2000-01-01T04:59:25.000Z</time>
      </trkpt>
      <trkpt lat="48.29162" lon="7.31777">
        <ele>552.7</ele>
        <time>2000-01-01T04:59:35.000Z</time>
      </trkpt>
      <trkpt lat="48.29156" lon="7.31778">
        <ele>551.6</ele>
        <time>2000-01-01T04:59:45.000Z</time>
      </trkpt>
      <trkpt lat="48.2915" lon="7.31782">
        <ele>525</ele>
        <time>2000-01-01T04:59:55.000Z</time>
      </trkpt>
      <trkpt lat="48.29143" lon="7.31784">
        <ele>548.3</ele>
        <time>2000-01-01T05:00:05.000Z</time>
      </trkpt>
      <trkpt lat="48.29131" lon="7.31781">
        <ele>520</ele>
        <time>2000-01-01T05:00:15.000Z</time>
      </trkpt>
      <trkpt lat="48.29124" lon="7.31777">
        <ele>545.8</ele>
        <time>2000-01-01T05:00:25.000Z</time>
      </trkpt>
      <trkpt lat="48.2912" lon="7.31776">
        <ele>545.2</ele>
        <time>2000-01-01T05:00:35.000Z</time>
      </trkpt>
      <trkpt lat="48.29115" lon="7.31774">
        <ele>544.6</ele>
        <time>2000-01-01T05:00:45.000Z</time>
      </trkpt>
      <trkpt lat="48.29102" lon="7.31766">
        <ele>517</ele>
        <time>2000-01-01T05:00:55.000Z</time>
      </trkpt>
      <trkpt lat="48.29097" lon="7.31763">
        <ele>542.7</ele>
        <time>2000-01-01T05:01:05.000Z</time>
      </trkpt>
      <trkpt lat="48.29087" lon="7.31752">
        <ele>541.5</ele>
        <time>2000-01-01T05:01:15.000Z</time>
      </trkpt>
      <trkpt lat="48.29083" lon="7.31748">
        <ele>517</ele>
        <time>2000-01-01T05:01:25.000Z</time>
      </trkpt>
      <trkpt lat="48.2907" lon="7.31731">
        <ele>537.8</ele>
        <time>2000-01-01T05:01:35.000Z</time>
      </trkpt>
      <trkpt lat="48.29067" lon="7.31725">
        <ele>516</ele>
        <time>2000-01-01T05:01:45.000Z</time>
      </trkpt>
      <trkpt lat="48.29057" lon="7.31712">
        <ele>537.1</ele>
        <time>2000-01-01T05:01:55.000Z</time>
      </trkpt>
      <trkpt lat="48.29052" lon="7.31708">
        <ele>515</ele>
        <time>2000-01-01T05:02:05.000Z</time>
      </trkpt>
      <trkpt lat="48.29049" lon="7.31708">
        <ele>536.1</ele>
        <time>2000-01-01T05:02:15.000Z</time>
      </trkpt>
      <trkpt lat="48.29045" lon="7.31702">
        <ele>535.9</ele>
        <time>2000-01-01T05:02:25.000Z</time>
      </trkpt>
      <trkpt lat="48.29045" lon="7.317">
        <ele>536.1</ele>
        <time>2000-01-01T05:02:35.000Z</time>
      </trkpt>
      <trkpt lat="48.29039" lon="7.31685">
        <ele>514</ele>
        <time>2000-01-01T05:02:45.000Z</time>
      </trkpt>
      <trkpt lat="48.29036" lon="7.31678">
        <ele>535.5</ele>
        <time>2000-01-01T05:02:55.000Z</time>
      </trkpt>
      <trkpt lat="48.29031" lon="7.31668">
        <ele>534.4</ele>
        <time>2000-01-01T05:03:05.000Z</time>
      </trkpt>
      <trkpt lat="48.29023" lon="7.31654">
        <ele>514</ele>
        <time>2000-01-01T05:03:15.000Z</time>
      </trkpt>
      <trkpt lat="48.29009" lon="7.31633">
        <ele>508</ele>
        <time>2000-01-01T05:03:25.000Z</time>
      </trkpt>
      <trkpt lat="48.29001" lon="7.31625">
        <ele>542.2</ele>
        <time>2000-01-01T05:03:35.000Z</time>
      </trkpt>
      <trkpt lat="48.28996" lon="7.31616">
        <ele>523.6</ele>
        <time>2000-01-01T05:03:45.000Z</time>
      </trkpt>
      <trkpt lat="48.28981" lon="7.31592">
        <ele>503</ele>
        <time>2000-01-01T05:03:55.000Z</time>
      </trkpt>
      <trkpt lat="48.28973" lon="7.31582">
        <ele>527.5</ele>
        <time>2000-01-01T05:04:05.000Z</time>
      </trkpt>
      <trkpt lat="48.28963" lon="7.31565">
        <ele>498</ele>
        <time>2000-01-01T05:04:15.000Z</time>
      </trkpt>
      <trkpt lat="48.28956" lon="7.31548">
        <ele>524</ele>
        <time>2000-01-01T05:04:25.000Z</time>
      </trkpt>
      <trkpt lat="48.28952" lon="7.3154">
        <ele>495</ele>
        <time>2000-01-01T05:04:35.000Z</time>
      </trkpt>
      <trkpt lat="48.28949" lon="7.31534">
        <ele>523.2</ele>
        <time>2000-01-01T05:04:45.000Z</time>
      </trkpt>
      <trkpt lat="48.28941" lon="7.3152">
        <ele>521.4</ele>
        <time>2000-01-01T05:04:55.000Z</time>
      </trkpt>
      <trkpt lat="48.28939" lon="7.31514">
        <ele>491</ele>
        <time>2000-01-01T05:05:05.000Z</time>
      </trkpt>
      <trkpt lat="48.28935" lon="7.31505">
        <ele>519</ele>
        <time>2000-01-01T05:05:15.000Z</time>
      </trkpt>
      <trkpt lat="48.28932" lon="7.31498">
        <ele>520.4</ele>
        <time>2000-01-01T05:05:25.000Z</time>
      </trkpt>
      <trkpt lat="48.2893" lon="7.31495">
        <ele>519.8</ele>
        <time>2000-01-01T05:05:35.000Z</time>
      </trkpt>
      <trkpt lat="48.28922" lon="7.31476">
        <ele>489</ele>
        <time>2000-01-01T05:05:45.000Z</time>
      </trkpt>
      <trkpt lat="48.28919" lon="7.3147">
        <ele>523</ele>
        <time>2000-01-01T05:05:55.000Z</time>
      </trkpt>
      <trkpt lat="48.28918" lon="7.3146">
        <ele>523.8</ele>
        <time>2000-01-01T05:06:05.000Z</time>
      </trkpt>
      <trkpt lat="48.28918" lon="7.31453">
        <ele>523.8</ele>
        <time>2000-01-01T05:06:15.000Z</time>
      </trkpt>
      <trkpt lat="48.28918" lon="7.31444">
        <ele>487</ele>
        <time>2000-01-01T05:06:25.000Z</time>
      </trkpt>
      <trkpt lat="48.28918" lon="7.31437">
        <ele>521.9</ele>
        <time>2000-01-01T05:06:35.000Z</time>
      </trkpt>
      <trkpt lat="48.28909" lon="7.31418">
        <ele>486</ele>
        <time>2000-01-01T05:06:45.000Z</time>
      </trkpt>
      <trkpt lat="48.28905" lon="7.31402">
        <ele>503</ele>
        <time>2000-01-01T05:06:55.000Z</time>
      </trkpt>
      <trkpt lat="48.28901" lon="7.31381">
        <ele>486</ele>
        <time>2000-01-01T05:07:05.000Z</time>
      </trkpt>
      <trkpt lat="48.28894" lon="7.31358">
        <ele>498.2</ele>
        <time>2000-01-01T05:07:15.000Z</time>
      </trkpt>
      <trkpt lat="48.28885" lon="7.31337">
        <ele>481</ele>
        <time>2000-01-01T05:07:25.000Z</time>
      </trkpt>
      <trkpt lat="48.28881" lon="7.31324">
        <ele>494.9</ele>
        <time>2000-01-01T05:07:35.000Z</time>
      </trkpt>
      <trkpt lat="48.28876" lon="7.31308">
        <ele>479</ele>
        <time>2000-01-01T05:07:45.000Z</time>
      </trkpt>
      <trkpt lat="48.28872" lon="7.31292">
        <ele>492.4</ele>
        <time>2000-01-01T05:07:55.000Z</time>
      </trkpt>
      <trkpt lat="48.28865" lon="7.31268">
        <ele>477</ele>
        <time>2000-01-01T05:08:05.000Z</time>
      </trkpt>
      <trkpt lat="48.2886" lon="7.31251">
        <ele>487.9</ele>
        <time>2000-01-01T05:08:15.000Z</time>
      </trkpt>
      <trkpt lat="48.28857" lon="7.31237">
        <ele>476</ele>
        <time>2000-01-01T05:08:25.000Z</time>
      </trkpt>
      <trkpt lat="48.2885" lon="7.31209">
        <ele>476</ele>
        <time>2000-01-01T05:08:35.000Z</time>
      </trkpt>
      <trkpt lat="48.28844" lon="7.31192">
        <ele>487.4</ele>
        <time>2000-01-01T05:08:45.000Z</time>
      </trkpt>
      <trkpt lat="48.28838" lon="7.31168">
        <ele>472</ele>
        <time>2000-01-01T05:08:55.000Z</time>
      </trkpt>
      <trkpt lat="48.28834" lon="7.31152">
        <ele>484.9</ele>
        <time>2000-01-01T05:09:05.000Z</time>
      </trkpt>
      <trkpt lat="48.28829" lon="7.31131">
        <ele>472</ele>
        <time>2000-01-01T05:09:15.000Z</time>
      </trkpt>
      <trkpt lat="48.28822" lon="7.31105">
        <ele>471</ele>
        <time>2000-01-01T05:09:25.000Z</time>
      </trkpt>
      <trkpt lat="48.28815" lon="7.3108">
        <ele>475.1</ele>
        <time>2000-01-01T05:09:35.000Z</time>
      </trkpt>
      <trkpt lat="48.28807" lon="7.31065">
        <ele>470</ele>
        <time>2000-01-01T05:09:45.000Z</time>
      </trkpt>
      <trkpt lat="48.28798" lon="7.31043">
        <ele>471</ele>
        <time>2000-01-01T05:09:55.000Z</time>
      </trkpt>
      <trkpt lat="48.28793" lon="7.31024">
        <ele>466</ele>
        <time>2000-01-01T05:10:05.000Z</time>
      </trkpt>
      <trkpt lat="48.28793" lon="7.31019">
        <ele>470.3</ele>
        <time>2000-01-01T05:10:15.000Z</time>
      </trkpt>
      <trkpt lat="48.28791" lon="7.31013">
        <ele>469.9</ele>
        <time>2000-01-01T05:10:25.000Z</time>
      </trkpt>
      <trkpt lat="48.28788" lon="7.30996">
        <ele>462</ele>
        <time>2000-01-01T05:10:35.000Z</time>
      </trkpt>
      <trkpt lat="48.28787" lon="7.3099">
        <ele>468.8</ele>
        <time>2000-01-01T05:10:45.000Z</time>
      </trkpt>
      <trkpt lat="48.28783" lon="7.30967">
        <ele>462</ele>
        <time>2000-01-01T05:10:55.000Z</time>
      </trkpt>
      <trkpt lat="48.2878" lon="7.30956">
        <ele>468.3</ele>
        <time>2000-01-01T05:11:05.000Z</time>
      </trkpt>
      <trkpt lat="48.28779" lon="7.30939">
        <ele>461</ele>
        <time>2000-01-01T05:11:15.000Z</time>
      </trkpt>
      <trkpt lat="48.2878" lon="7.30905">
        <ele>461</ele>
        <time>2000-01-01T05:11:25.000Z</time>
      </trkpt>
      <trkpt lat="48.28782" lon="7.30899">
        <ele>467.8</ele>
        <time>2000-01-01T05:11:35.000Z</time>
      </trkpt>
      <trkpt lat="48.28783" lon="7.30892">
        <ele>468.1</ele>
        <time>2000-01-01T05:11:45.000Z</time>
      </trkpt>
      <trkpt lat="48.28788" lon="7.30888">
        <ele>468.8</ele>
        <time>2000-01-01T05:11:55.000Z</time>
      </trkpt>
      <trkpt lat="48.28792" lon="7.30888">
        <ele>461</ele>
        <time>2000-01-01T05:12:05.000Z</time>
      </trkpt>
      <trkpt lat="48.288" lon="7.30883">
        <ele>470.5</ele>
        <time>2000-01-01T05:12:15.000Z</time>
      </trkpt>
      <trkpt lat="48.28807" lon="7.3088">
        <ele>471.3</ele>
        <time>2000-01-01T05:12:25.000Z</time>
      </trkpt>
      <trkpt lat="48.28812" lon="7.30879">
        <ele>465</ele>
        <time>2000-01-01T05:12:35.000Z</time>
      </trkpt>
      <trkpt lat="48.28817" lon="7.30877">
        <ele>472.4</ele>
        <time>2000-01-01T05:12:45.000Z</time>
      </trkpt>
      <trkpt lat="48.28825" lon="7.30875">
        <ele>473</ele>
        <time>2000-01-01T05:12:55.000Z</time>
      </trkpt>
      <trkpt lat="48.28828" lon="7.30875">
        <ele>473.3</ele>
        <time>2000-01-01T05:13:05.000Z</time>
      </trkpt>
      <trkpt lat="48.28835" lon="7.30866">
        <ele>468</ele>
        <time>2000-01-01T05:13:15.000Z</time>
      </trkpt>
      <trkpt lat="48.28841" lon="7.30858">
        <ele>488.1</ele>
        <time>2000-01-01T05:13:25.000Z</time>
      </trkpt>
      <trkpt lat="48.28843" lon="7.30847">
        <ele>486.6</ele>
        <time>2000-01-01T05:13:35.000Z</time>
      </trkpt>
      <trkpt lat="48.28843" lon="7.30842">
        <ele>472</ele>
        <time>2000-01-01T05:13:45.000Z</time>
      </trkpt>
      <trkpt lat="48.28844" lon="7.30836">
        <ele>485.1</ele>
        <time>2000-01-01T05:13:55.000Z</time>
      </trkpt>
      <trkpt lat="48.28845" lon="7.3083">
        <ele>488</ele>
        <time>2000-01-01T05:14:05.000Z</time>
      </trkpt>
      <trkpt lat="48.28848" lon="7.30826">
        <ele>490</ele>
        <time>2000-01-01T05:14:15.000Z</time>
      </trkpt>
      <trkpt lat="48.28851" lon="7.30825">
        <ele>491.4</ele>
        <time>2000-01-01T05:14:25.000Z</time>
      </trkpt>
      <trkpt lat="48.28852" lon="7.30824">
        <ele>491.9</ele>
        <time>2000-01-01T05:14:35.000Z</time>
      </trkpt>
      <trkpt lat="48.28861" lon="7.30828">
        <ele>476</ele>
        <time>2000-01-01T05:14:45.000Z</time>
      </trkpt>
      <trkpt lat="48.28867" lon="7.30831">
        <ele>496.6</ele>
        <time>2000-01-01T05:14:55.000Z</time>
      </trkpt>
      <trkpt lat="48.28871" lon="7.30833">
        <ele>497.7</ele>
        <time>2000-01-01T05:15:05.000Z</time>
      </trkpt>
      <trkpt lat="48.28878" lon="7.30843">
        <ele>480</ele>
        <time>2000-01-01T05:15:15.000Z</time>
      </trkpt>
      <trkpt lat="48.28879" lon="7.30846">
        <ele>495.1</ele>
        <time>2000-01-01T05:15:25.000Z</time>
      </trkpt>
      <trkpt lat="48.28881" lon="7.30851">
        <ele>495.4</ele>
        <time>2000-01-01T05:15:35.000Z</time>
      </trkpt>
      <trkpt lat="48.28884" lon="7.30853">
        <ele>496</ele>
        <time>2000-01-01T05:15:45.000Z</time>
      </trkpt>
      <trkpt lat="48.28889" lon="7.30861">
        <ele>496.5</ele>
        <time>2000-01-01T05:15:55.000Z</time>
      </trkpt>
      <trkpt lat="48.28889" lon="7.30864">
        <ele>481</ele>
        <time>2000-01-01T05:16:05.000Z</time>
      </trkpt>
      <trkpt lat="48.28894" lon="7.3088">
        <ele>496.1</ele>
        <time>2000-01-01T05:16:15.000Z</time>
      </trkpt>
      <trkpt lat="48.28896" lon="7.30889">
        <ele>496.2</ele>
        <time>2000-01-01T05:16:25.000Z</time>
      </trkpt>
      <trkpt lat="48.28896" lon="7.30907">
        <ele>484</ele>
        <time>2000-01-01T05:16:35.000Z</time>
      </trkpt>
      <trkpt lat="48.28895" lon="7.30916">
        <ele>496.6</ele>
        <time>2000-01-01T05:16:45.000Z</time>
      </trkpt>
      <trkpt lat="48.28894" lon="7.30917">
        <ele>495.4</ele>
        <time>2000-01-01T05:16:55.000Z</time>
      </trkpt>
      <trkpt lat="48.28898" lon="7.30931">
        <ele>495.6</ele>
        <time>2000-01-01T05:17:05.000Z</time>
      </trkpt>
      <trkpt lat="48.28901" lon="7.30936">
        <ele>488</ele>
        <time>2000-01-01T05:17:15.000Z</time>
      </trkpt>
      <trkpt lat="48.28905" lon="7.30938">
        <ele>496.1</ele>
        <time>2000-01-01T05:17:25.000Z</time>
      </trkpt>
      <trkpt lat="48.28908" lon="7.30939">
        <ele>496.3</ele>
        <time>2000-01-01T05:17:35.000Z</time>
      </trkpt>
      <trkpt lat="48.28909" lon="7.30938">
        <ele>496.5</ele>
        <time>2000-01-01T05:17:45.000Z</time>
      </trkpt>
      <trkpt lat="48.28909" lon="7.30936">
        <ele>496.7</ele>
        <time>2000-01-01T05:17:55.000Z</time>
      </trkpt>
      <trkpt lat="48.2891" lon="7.30925">
        <ele>498.5</ele>
        <time>2000-01-01T05:18:05.000Z</time>
      </trkpt>
      <trkpt lat="48.28917" lon="7.3091">
        <ele>489</ele>
        <time>2000-01-01T05:18:15.000Z</time>
      </trkpt>
      <trkpt lat="48.2892" lon="7.30896">
        <ele>513.2</ele>
        <time>2000-01-01T05:18:25.000Z</time>
      </trkpt>
      <trkpt lat="48.28924" lon="7.30882">
        <ele>491</ele>
        <time>2000-01-01T05:18:35.000Z</time>
      </trkpt>
      <trkpt lat="48.28925" lon="7.30879">
        <ele>517.2</ele>
        <time>2000-01-01T05:18:45.000Z</time>
      </trkpt>
      <trkpt lat="48.2893" lon="7.30877">
        <ele>518</ele>
        <time>2000-01-01T05:18:55.000Z</time>
      </trkpt>
      <trkpt lat="48.28936" lon="7.30873">
        <ele>519.2</ele>
        <time>2000-01-01T05:19:05.000Z</time>
      </trkpt>
      <trkpt lat="48.28938" lon="7.3087">
        <ele>519.7</ele>
        <time>2000-01-01T05:19:15.000Z</time>
      </trkpt>
      <trkpt lat="48.28939" lon="7.30869">
        <ele>519.9</ele>
        <time>2000-01-01T05:19:25.000Z</time>
      </trkpt>
      <trkpt lat="48.28938" lon="7.30869">
        <ele>519.8</ele>
        <time>2000-01-01T05:19:35.000Z</time>
      </trkpt>
      <trkpt lat="48.28937" lon="7.30866">
        <ele>493</ele>
        <time>2000-01-01T05:19:45.000Z</time>
      </trkpt>
      <trkpt lat="48.28936" lon="7.30864">
        <ele>519.6</ele>
        <time>2000-01-01T05:19:55.000Z</time>
      </trkpt>
      <trkpt lat="48.28935" lon="7.30861">
        <ele>519.4</ele>
        <time>2000-01-01T05:20:05.000Z</time>
      </trkpt>
      <trkpt lat="48.28934" lon="7.30856">
        <ele>519.1</ele>
        <time>2000-01-01T05:20:15.000Z</time>
      </trkpt>
      <trkpt lat="48.28934" lon="7.30855">
        <ele>519.1</ele>
        <time>2000-01-01T05:20:25.000Z</time>
      </trkpt>
      <trkpt lat="48.28933" lon="7.30852">
        <ele>518.7</ele>
        <time>2000-01-01T05:20:35.000Z</time>
      </trkpt>
      <trkpt lat="48.28928" lon="7.30848">
        <ele>517.4</ele>
        <time>2000-01-01T05:20:45.000Z</time>
      </trkpt>
      <trkpt lat="48.28926" lon="7.30846">
        <ele>496</ele>
        <time>2000-01-01T05:20:55.000Z</time>
      </trkpt>
      <trkpt lat="48.28925" lon="7.30841">
        <ele>515.6</ele>
        <time>2000-01-01T05:21:05.000Z</time>
      </trkpt>
      <trkpt lat="48.28926" lon="7.30838">
        <ele>515.4</ele>
        <time>2000-01-01T05:21:15.000Z</time>
      </trkpt>
      <trkpt lat="48.28924" lon="7.30835">
        <ele>514.4</ele>
        <time>2000-01-01T05:21:25.000Z</time>
      </trkpt>
      <trkpt lat="48.28923" lon="7.30835">
        <ele>514</ele>
        <time>2000-01-01T05:21:35.000Z</time>
      </trkpt>
      <trkpt lat="48.28923" lon="7.30834">
        <ele>513.9</ele>
        <time>2000-01-01T05:21:45.000Z</time>
      </trkpt>
      <trkpt lat="48.28922" lon="7.3083">
        <ele>517.2</ele>
        <time>2000-01-01T05:21:55.000Z</time>
      </trkpt>
      <trkpt lat="48.28919" lon="7.30815">
        <ele>504</ele>
        <time>2000-01-01T05:22:05.000Z</time>
      </trkpt>
      <trkpt lat="48.28917" lon="7.30802">
        <ele>529.3</ele>
        <time>2000-01-01T05:22:15.000Z</time>
      </trkpt>
      <trkpt lat="48.28915" lon="7.30795">
        <ele>507.3</ele>
        <time>2000-01-01T05:22:25.000Z</time>
      </trkpt>
      <trkpt lat="48.28914" lon="7.30789">
        <ele>509</ele>
        <time>2000-01-01T05:22:35.000Z</time>
      </trkpt>
      <trkpt lat="48.28913" lon="7.30784">
        <ele>508.9</ele>
        <time>2000-01-01T05:22:45.000Z</time>
      </trkpt>
      <trkpt lat="48.28912" lon="7.30777">
        <ele>510.5</ele>
        <time>2000-01-01T05:22:55.000Z</time>
      </trkpt>
      <trkpt lat="48.28913" lon="7.30773">
        <ele>511.9</ele>
        <time>2000-01-01T05:23:05.000Z</time>
      </trkpt>
      <trkpt lat="48.28915" lon="7.30768">
        <ele>514.1</ele>
        <time>2000-01-01T05:23:15.000Z</time>
      </trkpt>
      <trkpt lat="48.28916" lon="7.30764">
        <ele>516.2</ele>
        <time>2000-01-01T05:23:25.000Z</time>
      </trkpt>
      <trkpt lat="48.28916" lon="7.3076">
        <ele>511</ele>
        <time>2000-01-01T05:23:35.000Z</time>
      </trkpt>
      <trkpt lat="48.28915" lon="7.30757">
        <ele>520.5</ele>
        <time>2000-01-01T05:23:45.000Z</time>
      </trkpt>
      <trkpt lat="48.28915" lon="7.30745">
        <ele>524.1</ele>
        <time>2000-01-01T05:23:55.000Z</time>
      </trkpt>
      <trkpt lat="48.28914" lon="7.30735">
        <ele>520.7</ele>
        <time>2000-01-01T05:24:05.000Z</time>
      </trkpt>
      <trkpt lat="48.28915" lon="7.30726">
        <ele>517</ele>
        <time>2000-01-01T05:24:15.000Z</time>
      </trkpt>
      <trkpt lat="48.28915" lon="7.30719">
        <ele>518.9</ele>
        <time>2000-01-01T05:24:25.000Z</time>
      </trkpt>
      <trkpt lat="48.28913" lon="7.30713">
        <ele>518.8</ele>
        <time>2000-01-01T05:24:35.000Z</time>
      </trkpt>
      <trkpt lat="48.28911" lon="7.30703">
        <ele>519.6</ele>
        <time>2000-01-01T05:24:45.000Z</time>
      </trkpt>
      <trkpt lat="48.28912" lon="7.30697">
        <ele>521</ele>
        <time>2000-01-01T05:24:55.000Z</time>
      </trkpt>
      <trkpt lat="48.28913" lon="7.30689">
        <ele>523.5</ele>
        <time>2000-01-01T05:25:05.000Z</time>
      </trkpt>
      <trkpt lat="48.28911" lon="7.30681">
        <ele>526.5</ele>
        <time>2000-01-01T05:25:15.000Z</time>
      </trkpt>
      <trkpt lat="48.28911" lon="7.30675">
        <ele>529.8</ele>
        <time>2000-01-01T05:25:25.000Z</time>
      </trkpt>
      <trkpt lat="48.2891" lon="7.30668">
        <ele>521</ele>
        <time>2000-01-01T05:25:35.000Z</time>
      </trkpt>
      <trkpt lat="48.2891" lon="7.3066">
        <ele>532.9</ele>
        <time>2000-01-01T05:25:45.000Z</time>
      </trkpt>
      <trkpt lat="48.28909" lon="7.30654">
        <ele>530.7</ele>
        <time>2000-01-01T05:25:55.000Z</time>
      </trkpt>
      <trkpt lat="48.28909" lon="7.30651">
        <ele>529.9</ele>
        <time>2000-01-01T05:26:05.000Z</time>
      </trkpt>
      <trkpt lat="48.28909" lon="7.30644">
        <ele>528.4</ele>
        <time>2000-01-01T05:26:15.000Z</time>
      </trkpt>
      <trkpt lat="48.2891" lon="7.30634">
        <ele>524</ele>
        <time>2000-01-01T05:26:25.000Z</time>
      </trkpt>
      <trkpt lat="48.28911" lon="7.30624">
        <ele>527.9</ele>
        <time>2000-01-01T05:26:35.000Z</time>
      </trkpt>
      <trkpt lat="48.28916" lon="7.30607">
        <ele>531</ele>
        <time>2000-01-01T05:26:45.000Z</time>
      </trkpt>
      <trkpt lat="48.28916" lon="7.30605">
        <ele>532.2</ele>
        <time>2000-01-01T05:26:55.000Z</time>
      </trkpt>
      <trkpt lat="48.28917" lon="7.30602">
        <ele>555.9</ele>
        <time>2000-01-01T05:27:05.000Z</time>
      </trkpt>
      <trkpt lat="48.28917" lon="7.30599">
        <ele>555</ele>
        <time>2000-01-01T05:27:15.000Z</time>
      </trkpt>
      <trkpt lat="48.28916" lon="7.30596">
        <ele>536.1</ele>
        <time>2000-01-01T05:27:25.000Z</time>
      </trkpt>
      <trkpt lat="48.28916" lon="7.30595">
        <ele>536.7</ele>
        <time>2000-01-01T05:27:35.000Z</time>
      </trkpt>
      <trkpt lat="48.28917" lon="7.30587">
        <ele>548.9</ele>
        <time>2000-01-01T05:27:45.000Z</time>
      </trkpt>
      <trkpt lat="48.2892" lon="7.30577">
        <ele>540</ele>
        <time>2000-01-01T05:27:55.000Z</time>
      </trkpt>
      <trkpt lat="48.2892" lon="7.30569">
        <ele>559.5</ele>
        <time>2000-01-01T05:28:05.000Z</time>
      </trkpt>
      <trkpt lat="48.28919" lon="7.30563">
        <ele>562.4</ele>
        <time>2000-01-01T05:28:15.000Z</time>
      </trkpt>
      <trkpt lat="48.28918" lon="7.30558">
        <ele>564.3</ele>
        <time>2000-01-01T05:28:25.000Z</time>
      </trkpt>
      <trkpt lat="48.2892" lon="7.30551">
        <ele>566.6</ele>
        <time>2000-01-01T05:28:35.000Z</time>
      </trkpt>
      <trkpt lat="48.28921" lon="7.30542">
        <ele>543</ele>
        <time>2000-01-01T05:28:45.000Z</time>
      </trkpt>
      <trkpt lat="48.2892" lon="7.30536">
        <ele>568.5</ele>
        <time>2000-01-01T05:28:55.000Z</time>
      </trkpt>
      <trkpt lat="48.28919" lon="7.30531">
        <ele>568.3</ele>
        <time>2000-01-01T05:29:05.000Z</time>
      </trkpt>
      <trkpt lat="48.28922" lon="7.30524">
        <ele>568.1</ele>
        <time>2000-01-01T05:29:15.000Z</time>
      </trkpt>
      <trkpt lat="48.28922" lon="7.30523">
        <ele>567.9</ele>
        <time>2000-01-01T05:29:25.000Z</time>
      </trkpt>
      <trkpt lat="48.28925" lon="7.30516">
        <ele>545</ele>
        <time>2000-01-01T05:29:35.000Z</time>
      </trkpt>
      <trkpt lat="48.28927" lon="7.30513">
        <ele>566.9</ele>
        <time>2000-01-01T05:29:45.000Z</time>
      </trkpt>
      <trkpt lat="48.28929" lon="7.30507">
        <ele>566.3</ele>
        <time>2000-01-01T05:29:55.000Z</time>
      </trkpt>
      <trkpt lat="48.2893" lon="7.30498">
        <ele>568.1</ele>
        <time>2000-01-01T05:30:05.000Z</time>
      </trkpt>
      <trkpt lat="48.28929" lon="7.30493">
        <ele>568.4</ele>
        <time>2000-01-01T05:30:15.000Z</time>
      </trkpt>
      <trkpt lat="48.2893" lon="7.3049">
        <ele>553</ele>
        <time>2000-01-01T05:30:25.000Z</time>
      </trkpt>
      <trkpt lat="48.28933" lon="7.30486">
        <ele>572</ele>
        <time>2000-01-01T05:30:35.000Z</time>
      </trkpt>
      <trkpt lat="48.28935" lon="7.30481">
        <ele>573.8</ele>
        <time>2000-01-01T05:30:45.000Z</time>
      </trkpt>
      <trkpt lat="48.28937" lon="7.3048">
        <ele>574.7</ele>
        <time>2000-01-01T05:30:55.000Z</time>
      </trkpt>
      <trkpt lat="48.28941" lon="7.3047">
        <ele>577.1</ele>
        <time>2000-01-01T05:31:05.000Z</time>
      </trkpt>
      <trkpt lat="48.28942" lon="7.30469">
        <ele>558</ele>
        <time>2000-01-01T05:31:15.000Z</time>
      </trkpt>
      <trkpt lat="48.28943" lon="7.30466">
        <ele>577.9</ele>
        <time>2000-01-01T05:31:25.000Z</time>
      </trkpt>
      <trkpt lat="48.28942" lon="7.30462">
        <ele>577.8</ele>
        <time>2000-01-01T05:31:35.000Z</time>
      </trkpt>
      <trkpt lat="48.28948" lon="7.30472">
        <ele>579.2</ele>
        <time>2000-01-01T05:31:45.000Z</time>
      </trkpt>
      <trkpt lat="48.28945" lon="7.30475">
        <ele>558</ele>
        <time>2000-01-01T05:31:55.000Z</time>
      </trkpt>
      <trkpt lat="48.2895" lon="7.30492">
        <ele>579</ele>
        <time>2000-01-01T05:32:05.000Z</time>
      </trkpt>
      <trkpt lat="48.28953" lon="7.30485">
        <ele>580.6</ele>
        <time>2000-01-01T05:32:15.000Z</time>
      </trkpt>
      <trkpt lat="48.28952" lon="7.30481">
        <ele>563</ele>
        <time>2000-01-01T05:32:25.000Z</time>
      </trkpt>
      <trkpt lat="48.28952" lon="7.30474">
        <ele>580.5</ele>
        <time>2000-01-01T05:32:35.000Z</time>
      </trkpt>
      <trkpt lat="48.28953" lon="7.30467">
        <ele>580.9</ele>
        <time>2000-01-01T05:32:45.000Z</time>
      </trkpt>
      <trkpt lat="48.28953" lon="7.30465">
        <ele>580.9</ele>
        <time>2000-01-01T05:32:55.000Z</time>
      </trkpt>
      <trkpt lat="48.28955" lon="7.3046">
        <ele>581.5</ele>
        <time>2000-01-01T05:33:05.000Z</time>
      </trkpt>
      <trkpt lat="48.28956" lon="7.3045">
        <ele>563</ele>
        <time>2000-01-01T05:33:15.000Z</time>
      </trkpt>
      <trkpt lat="48.28956" lon="7.30448">
        <ele>581.7</ele>
        <time>2000-01-01T05:33:25.000Z</time>
      </trkpt>
      <trkpt lat="48.28961" lon="7.30436">
        <ele>583.2</ele>
        <time>2000-01-01T05:33:35.000Z</time>
      </trkpt>
      <trkpt lat="48.28961" lon="7.30433">
        <ele>583.2</ele>
        <time>2000-01-01T05:33:45.000Z</time>
      </trkpt>
      <trkpt lat="48.28961" lon="7.30429">
        <ele>583.2</ele>
        <time>2000-01-01T05:33:55.000Z</time>
      </trkpt>
      <trkpt lat="48.28963" lon="7.30423">
        <ele>570</ele>
        <time>2000-01-01T05:34:05.000Z</time>
      </trkpt>
      <trkpt lat="48.28965" lon="7.3042">
        <ele>585</ele>
        <time>2000-01-01T05:34:15.000Z</time>
      </trkpt>
      <trkpt lat="48.28968" lon="7.30413">
        <ele>582.7</ele>
        <time>2000-01-01T05:34:25.000Z</time>
      </trkpt>
      <trkpt lat="48.28968" lon="7.30412">
        <ele>582.7</ele>
        <time>2000-01-01T05:34:35.000Z</time>
      </trkpt>
      <trkpt lat="48.28969" lon="7.30408">
        <ele>582.8</ele>
        <time>2000-01-01T05:34:45.000Z</time>
      </trkpt>
      <trkpt lat="48.28975" lon="7.30404">
        <ele>575</ele>
        <time>2000-01-01T05:34:55.000Z</time>
      </trkpt>
      <trkpt lat="48.28976" lon="7.30397">
        <ele>584.3</ele>
        <time>2000-01-01T05:35:05.000Z</time>
      </trkpt>
      <trkpt lat="48.28979" lon="7.30387">
        <ele>583.5</ele>
        <time>2000-01-01T05:35:15.000Z</time>
      </trkpt>
      <trkpt lat="48.28979" lon="7.30386">
        <ele>583.4</ele>
        <time>2000-01-01T05:35:25.000Z</time>
      </trkpt>
      <trkpt lat="48.28982" lon="7.30383">
        <ele>583.7</ele>
        <time>2000-01-01T05:35:35.000Z</time>
      </trkpt>
      <trkpt lat="48.28982" lon="7.30381">
        <ele>583.4</ele>
        <time>2000-01-01T05:35:45.000Z</time>
      </trkpt>
      <trkpt lat="48.28986" lon="7.30377">
        <ele>578</ele>
        <time>2000-01-01T05:35:55.000Z</time>
      </trkpt>
      <trkpt lat="48.28987" lon="7.30371">
        <ele>583.6</ele>
        <time>2000-01-01T05:36:05.000Z</time>
      </trkpt>
      <trkpt lat="48.28991" lon="7.30366">
        <ele>584.2</ele>
        <time>2000-01-01T05:36:15.000Z</time>
      </trkpt>
      <trkpt lat="48.28994" lon="7.30359">
        <ele>585</ele>
        <time>2000-01-01T05:36:25.000Z</time>
      </trkpt>
      <trkpt lat="48.28995" lon="7.30357">
        <ele>585.4</ele>
        <time>2000-01-01T05:36:35.000Z</time>
      </trkpt>
      <trkpt lat="48.28997" lon="7.30354">
        <ele>584</ele>
        <time>2000-01-01T05:36:45.000Z</time>
      </trkpt>
      <trkpt lat="48.28999" lon="7.30349">
        <ele>587.5</ele>
        <time>2000-01-01T05:36:55.000Z</time>
      </trkpt>
      <trkpt lat="48.29002" lon="7.30344">
        <ele>604.9</ele>
        <time>2000-01-01T05:37:05.000Z</time>
      </trkpt>
      <trkpt lat="48.29003" lon="7.30342">
        <ele>603.8</ele>
        <time>2000-01-01T05:37:15.000Z</time>
      </trkpt>
      <trkpt lat="48.29012" lon="7.30337">
        <ele>590</ele>
        <time>2000-01-01T05:37:25.000Z</time>
      </trkpt>
      <trkpt lat="48.29014" lon="7.30334">
        <ele>607.6</ele>
        <time>2000-01-01T05:37:35.000Z</time>
      </trkpt>
      <trkpt lat="48.29016" lon="7.3033">
        <ele>603.9</ele>
        <time>2000-01-01T05:37:45.000Z</time>
      </trkpt>
      <trkpt lat="48.29023" lon="7.30324">
        <ele>607</ele>
        <time>2000-01-01T05:37:55.000Z</time>
      </trkpt>
      <trkpt lat="48.29027" lon="7.30323">
        <ele>594</ele>
        <time>2000-01-01T05:38:05.000Z</time>
      </trkpt>
      <trkpt lat="48.2903" lon="7.30314">
        <ele>609.7</ele>
        <time>2000-01-01T05:38:15.000Z</time>
      </trkpt>
      <trkpt lat="48.29031" lon="7.30312">
        <ele>610</ele>
        <time>2000-01-01T05:38:25.000Z</time>
      </trkpt>
      <trkpt lat="48.29031" lon="7.3031">
        <ele>610</ele>
        <time>2000-01-01T05:38:35.000Z</time>
      </trkpt>
      <trkpt lat="48.29029" lon="7.30307">
        <ele>609.4</ele>
        <time>2000-01-01T05:38:45.000Z</time>
      </trkpt>
      <trkpt lat="48.29031" lon="7.30297">
        <ele>596</ele>
        <time>2000-01-01T05:38:55.000Z</time>
      </trkpt>
      <trkpt lat="48.29033" lon="7.3029">
        <ele>609.7</ele>
        <time>2000-01-01T05:39:05.000Z</time>
      </trkpt>
      <trkpt lat="48.29037" lon="7.30281">
        <ele>610</ele>
        <time>2000-01-01T05:39:15.000Z</time>
      </trkpt>
      <trkpt lat="48.2904" lon="7.30277">
        <ele>610.5</ele>
        <time>2000-01-01T05:39:25.000Z</time>
      </trkpt>
      <trkpt lat="48.29042" lon="7.30275">
        <ele>596</ele>
        <time>2000-01-01T05:39:35.000Z</time>
      </trkpt>
      <trkpt lat="48.29046" lon="7.30273">
        <ele>612</ele>
        <time>2000-01-01T05:39:45.000Z</time>
      </trkpt>
      <trkpt lat="48.2905" lon="7.30268">
        <ele>613</ele>
        <time>2000-01-01T05:39:55.000Z</time>
      </trkpt>
      <trkpt lat="48.29052" lon="7.30257">
        <ele>613.5</ele>
        <time>2000-01-01T05:40:05.000Z</time>
      </trkpt>
      <trkpt lat="48.29053" lon="7.30253">
        <ele>600</ele>
        <time>2000-01-01T05:40:15.000Z</time>
      </trkpt>
      <trkpt lat="48.29058" lon="7.30244">
        <ele>606.7</ele>
        <time>2000-01-01T05:40:25.000Z</time>
      </trkpt>
      <trkpt lat="48.29061" lon="7.30234">
        <ele>606.3</ele>
        <time>2000-01-01T05:40:35.000Z</time>
      </trkpt>
      <trkpt lat="48.29065" lon="7.30225">
        <ele>601</ele>
        <time>2000-01-01T05:40:45.000Z</time>
      </trkpt>
      <trkpt lat="48.29065" lon="7.30224">
        <ele>605.2</ele>
        <time>2000-01-01T05:40:55.000Z</time>
      </trkpt>
      <trkpt lat="48.29071" lon="7.30214">
        <ele>604.2</ele>
        <time>2000-01-01T05:41:05.000Z</time>
      </trkpt>
      <trkpt lat="48.29075" lon="7.30212">
        <ele>604.4</ele>
        <time>2000-01-01T05:41:15.000Z</time>
      </trkpt>
      <trkpt lat="48.29077" lon="7.30212">
        <ele>604.7</ele>
        <time>2000-01-01T05:41:25.000Z</time>
      </trkpt>
      <trkpt lat="48.29079" lon="7.3021">
        <ele>604</ele>
        <time>2000-01-01T05:41:35.000Z</time>
      </trkpt>
      <trkpt lat="48.29081" lon="7.30208">
        <ele>604.4</ele>
        <time>2000-01-01T05:41:45.000Z</time>
      </trkpt>
      <trkpt lat="48.29086" lon="7.30203">
        <ele>629</ele>
        <time>2000-01-01T05:41:55.000Z</time>
      </trkpt>
      <trkpt lat="48.29089" lon="7.30199">
        <ele>628.4</ele>
        <time>2000-01-01T05:42:05.000Z</time>
      </trkpt>
      <trkpt lat="48.29093" lon="7.30192">
        <ele>610</ele>
        <time>2000-01-01T05:42:15.000Z</time>
      </trkpt>
      <trkpt lat="48.29094" lon="7.30189">
        <ele>626.2</ele>
        <time>2000-01-01T05:42:25.000Z</time>
      </trkpt>
      <trkpt lat="48.29102" lon="7.30182">
        <ele>626.5</ele>
        <time>2000-01-01T05:42:35.000Z</time>
      </trkpt>
      <trkpt lat="48.29104" lon="7.30181">
        <ele>627</ele>
        <time>2000-01-01T05:42:45.000Z</time>
      </trkpt>
      <trkpt lat="48.29105" lon="7.3018">
        <ele>627.2</ele>
        <time>2000-01-01T05:42:55.000Z</time>
      </trkpt>
      <trkpt lat="48.29111" lon="7.30178">
        <ele>615</ele>
        <time>2000-01-01T05:43:05.000Z</time>
      </trkpt>
      <trkpt lat="48.29115" lon="7.30174">
        <ele>630.5</ele>
        <time>2000-01-01T05:43:15.000Z</time>
      </trkpt>
      <trkpt lat="48.29117" lon="7.30173">
        <ele>631.2</ele>
        <time>2000-01-01T05:43:25.000Z</time>
      </trkpt>
      <trkpt lat="48.29123" lon="7.30166">
        <ele>620.4</ele>
        <time>2000-01-01T05:43:35.000Z</time>
      </trkpt>
      <trkpt lat="48.29127" lon="7.30163">
        <ele>617</ele>
        <time>2000-01-01T05:43:45.000Z</time>
      </trkpt>
      <trkpt lat="48.29131" lon="7.30159">
        <ele>622.9</ele>
        <time>2000-01-01T05:43:55.000Z</time>
      </trkpt>
      <trkpt lat="48.29132" lon="7.30158">
        <ele>623.2</ele>
        <time>2000-01-01T05:44:05.000Z</time>
      </trkpt>
      <trkpt lat="48.29134" lon="7.30157">
        <ele>623.8</ele>
        <time>2000-01-01T05:44:15.000Z</time>
      </trkpt>
      <trkpt lat="48.29138" lon="7.30157">
        <ele>625.4</ele>
        <time>2000-01-01T05:44:25.000Z</time>
      </trkpt>
      <trkpt lat="48.29138" lon="7.30158">
        <ele>625.5</ele>
        <time>2000-01-01T05:44:35.000Z</time>
      </trkpt>
      <trkpt lat="48.29139" lon="7.30155">
        <ele>625.5</ele>
        <time>2000-01-01T05:44:45.000Z</time>
      </trkpt>
      <trkpt lat="48.29139" lon="7.30154">
        <ele>625.3</ele>
        <time>2000-01-01T05:44:55.000Z</time>
      </trkpt>
      <trkpt lat="48.29141" lon="7.30154">
        <ele>626.1</ele>
        <time>2000-01-01T05:45:05.000Z</time>
      </trkpt>
      <trkpt lat="48.29147" lon="7.30149">
        <ele>621</ele>
        <time>2000-01-01T05:45:15.000Z</time>
      </trkpt>
      <trkpt lat="48.2915" lon="7.30148">
        <ele>628.1</ele>
        <time>2000-01-01T05:45:25.000Z</time>
      </trkpt>
      <trkpt lat="48.2916" lon="7.30142">
        <ele>628.5</ele>
        <time>2000-01-01T05:45:35.000Z</time>
      </trkpt>
      <trkpt lat="48.29164" lon="7.3014">
        <ele>627</ele>
        <time>2000-01-01T05:45:45.000Z</time>
      </trkpt>
      <trkpt lat="48.29167" lon="7.30135">
        <ele>648.4</ele>
        <time>2000-01-01T05:45:55.000Z</time>
      </trkpt>
      <trkpt lat="48.29169" lon="7.30133">
        <ele>648.3</ele>
        <time>2000-01-01T05:46:05.000Z</time>
      </trkpt>
      <trkpt lat="48.2917" lon="7.30132">
        <ele>648.3</ele>
        <time>2000-01-01T05:46:15.000Z</time>
      </trkpt>
      <trkpt lat="48.29173" lon="7.30131">
        <ele>648.4</ele>
        <time>2000-01-01T05:46:25.000Z</time>
      </trkpt>
      <trkpt lat="48.29175" lon="7.30126">
        <ele>647.8</ele>
        <time>2000-01-01T05:46:35.000Z</time>
      </trkpt>
      <trkpt lat="48.29175" lon="7.30124">
        <ele>647.4</ele>
        <time>2000-01-01T05:46:45.000Z</time>
      </trkpt>
      <trkpt lat="48.29177" lon="7.30124">
        <ele>629</ele>
        <time>2000-01-01T05:46:55.000Z</time>
      </trkpt>
      <trkpt lat="48.29179" lon="7.30124">
        <ele>647.9</ele>
        <time>2000-01-01T05:47:05.000Z</time>
      </trkpt>
      <trkpt lat="48.29182" lon="7.30116">
        <ele>646.6</ele>
        <time>2000-01-01T05:47:15.000Z</time>
      </trkpt>
      <trkpt lat="48.29183" lon="7.30115">
        <ele>646.6</ele>
        <time>2000-01-01T05:47:25.000Z</time>
      </trkpt>
      <trkpt lat="48.29188" lon="7.30114">
        <ele>647.4</ele>
        <time>2000-01-01T05:47:35.000Z</time>
      </trkpt>
      <trkpt lat="48.2919" lon="7.30115">
        <ele>648</ele>
        <time>2000-01-01T05:47:45.000Z</time>
      </trkpt>
      <trkpt lat="48.29191" lon="7.30114">
        <ele>634</ele>
        <time>2000-01-01T05:47:55.000Z</time>
      </trkpt>
      <trkpt lat="48.29196" lon="7.30114">
        <ele>649.2</ele>
        <time>2000-01-01T05:48:05.000Z</time>
      </trkpt>
      <trkpt lat="48.29196" lon="7.30106">
        <ele>647.8</ele>
        <time>2000-01-01T05:48:15.000Z</time>
      </trkpt>
      <trkpt lat="48.29198" lon="7.30104">
        <ele>648</ele>
        <time>2000-01-01T05:48:25.000Z</time>
      </trkpt>
      <trkpt lat="48.29198" lon="7.30104">
        <ele>648</ele>
        <time>2000-01-01T05:48:35.000Z</time>
      </trkpt>
      <trkpt lat="48.29201" lon="7.301">
        <ele>648.3</ele>
        <time>2000-01-01T05:48:45.000Z</time>
      </trkpt>
      <trkpt lat="48.29203" lon="7.30098">
        <ele>635</ele>
        <time>2000-01-01T05:48:55.000Z</time>
      </trkpt>
      <trkpt lat="48.29211" lon="7.30097">
        <ele>650.8</ele>
        <time>2000-01-01T05:49:05.000Z</time>
      </trkpt>
      <trkpt lat="48.2922" lon="7.30094">
        <ele>652.8</ele>
        <time>2000-01-01T05:49:15.000Z</time>
      </trkpt>
      <trkpt lat="48.29224" lon="7.30083">
        <ele>638</ele>
        <time>2000-01-01T05:49:25.000Z</time>
      </trkpt>
      <trkpt lat="48.29228" lon="7.30079">
        <ele>642</ele>
        <time>2000-01-01T05:49:35.000Z</time>
      </trkpt>
      <trkpt lat="48.29232" lon="7.30077">
        <ele>643.7</ele>
        <time>2000-01-01T05:49:45.000Z</time>
      </trkpt>
      <trkpt lat="48.29232" lon="7.30077">
        <ele>643.7</ele>
        <time>2000-01-01T05:49:55.000Z</time>
      </trkpt>
      <trkpt lat="48.29234" lon="7.30076">
        <ele>644.5</ele>
        <time>2000-01-01T05:50:05.000Z</time>
      </trkpt>
      <trkpt lat="48.29237" lon="7.30082">
        <ele>647.4</ele>
        <time>2000-01-01T05:50:15.000Z</time>
      </trkpt>
      <trkpt lat="48.29237" lon="7.30087">
        <ele>642</ele>
        <time>2000-01-01T05:50:25.000Z</time>
      </trkpt>
      <trkpt lat="48.29238" lon="7.30099">
        <ele>656.3</ele>
        <time>2000-01-01T05:50:35.000Z</time>
      </trkpt>
      <trkpt lat="48.29237" lon="7.30104">
        <ele>656.3</ele>
        <time>2000-01-01T05:50:45.000Z</time>
      </trkpt>
      <trkpt lat="48.29236" lon="7.30108">
        <ele>656.4</ele>
        <time>2000-01-01T05:50:55.000Z</time>
      </trkpt>
      <trkpt lat="48.29234" lon="7.30117">
        <ele>652</ele>
        <time>2000-01-01T05:51:05.000Z</time>
      </trkpt>
      <trkpt lat="48.29234" lon="7.30119">
        <ele>657.4</ele>
        <time>2000-01-01T05:51:15.000Z</time>
      </trkpt>
      <trkpt lat="48.29235" lon="7.30117">
        <ele>657.2</ele>
        <time>2000-01-01T05:51:25.000Z</time>
      </trkpt>
      <trkpt lat="48.29235" lon="7.30114">
        <ele>656.9</ele>
        <time>2000-01-01T05:51:35.000Z</time>
      </trkpt>
      <trkpt lat="48.29238" lon="7.30111">
        <ele>656.9</ele>
        <time>2000-01-01T05:51:45.000Z</time>
      </trkpt>
      <trkpt lat="48.29239" lon="7.30109">
        <ele>656.9</ele>
        <time>2000-01-01T05:51:55.000Z</time>
      </trkpt>
      <trkpt lat="48.29246" lon="7.3011">
        <ele>652</ele>
        <time>2000-01-01T05:52:05.000Z</time>
      </trkpt>
      <trkpt lat="48.29249" lon="7.30098">
        <ele>657.4</ele>
        <time>2000-01-01T05:52:15.000Z</time>
      </trkpt>
      <trkpt lat="48.2925" lon="7.30094">
        <ele>657.6</ele>
        <time>2000-01-01T05:52:25.000Z</time>
      </trkpt>
      <trkpt lat="48.29254" lon="7.30093">
        <ele>667.3</ele>
        <time>2000-01-01T05:52:35.000Z</time>
      </trkpt>
      <trkpt lat="48.29255" lon="7.30091">
        <ele>666.4</ele>
        <time>2000-01-01T05:52:45.000Z</time>
      </trkpt>
      <trkpt lat="48.29258" lon="7.30088">
        <ele>652</ele>
        <time>2000-01-01T05:52:55.000Z</time>
      </trkpt>
      <trkpt lat="48.29264" lon="7.30085">
        <ele>669.3</ele>
        <time>2000-01-01T05:53:05.000Z</time>
      </trkpt>
      <trkpt lat="48.29267" lon="7.30084">
        <ele>670.7</ele>
        <time>2000-01-01T05:53:15.000Z</time>
      </trkpt>
      <trkpt lat="48.29274" lon="7.30077">
        <ele>660.7</ele>
        <time>2000-01-01T05:53:25.000Z</time>
      </trkpt>
      <trkpt lat="48.29278" lon="7.30077">
        <ele>653</ele>
        <time>2000-01-01T05:53:35.000Z</time>
      </trkpt>
      <trkpt lat="48.29285" lon="7.30068">
        <ele>661.7</ele>
        <time>2000-01-01T05:53:45.000Z</time>
      </trkpt>
      <trkpt lat="48.29289" lon="7.30066">
        <ele>662.2</ele>
        <time>2000-01-01T05:53:55.000Z</time>
      </trkpt>
      <trkpt lat="48.29295" lon="7.30066">
        <ele>657</ele>
        <time>2000-01-01T05:54:05.000Z</time>
      </trkpt>
      <trkpt lat="48.29306" lon="7.3006">
        <ele>664.8</ele>
        <time>2000-01-01T05:54:15.000Z</time>
      </trkpt>
      <trkpt lat="48.29311" lon="7.30058">
        <ele>665.4</ele>
        <time>2000-01-01T05:54:25.000Z</time>
      </trkpt>
      <trkpt lat="48.29316" lon="7.30057">
        <ele>659</ele>
        <time>2000-01-01T05:54:35.000Z</time>
      </trkpt>
      <trkpt lat="48.2932" lon="7.30056">
        <ele>666.6</ele>
        <time>2000-01-01T05:54:45.000Z</time>
      </trkpt>
      <trkpt lat="48.29326" lon="7.30051">
        <ele>665.9</ele>
        <time>2000-01-01T05:54:55.000Z</time>
      </trkpt>
      <trkpt lat="48.29328" lon="7.30051">
        <ele>666.1</ele>
        <time>2000-01-01T05:55:05.000Z</time>
      </trkpt>
      <trkpt lat="48.29335" lon="7.30047">
        <ele>663</ele>
        <time>2000-01-01T05:55:15.000Z</time>
      </trkpt>
      <trkpt lat="48.2934" lon="7.30044">
        <ele>675.8</ele>
        <time>2000-01-01T05:55:25.000Z</time>
      </trkpt>
      <trkpt lat="48.29342" lon="7.30044">
        <ele>675.8</ele>
        <time>2000-01-01T05:55:35.000Z</time>
      </trkpt>
      <trkpt lat="48.29344" lon="7.30045">
        <ele>676.1</ele>
        <time>2000-01-01T05:55:45.000Z</time>
      </trkpt>
      <trkpt lat="48.29347" lon="7.30044">
        <ele>676</ele>
        <time>2000-01-01T05:55:55.000Z</time>
      </trkpt>
      <trkpt lat="48.29349" lon="7.30044">
        <ele>676.1</ele>
        <time>2000-01-01T05:56:05.000Z</time>
      </trkpt>
      <trkpt lat="48.29349" lon="7.30046">
        <ele>676.5</ele>
        <time>2000-01-01T05:56:15.000Z</time>
      </trkpt>
      <trkpt lat="48.29349" lon="7.30053">
        <ele>668</ele>
        <time>2000-01-01T05:56:25.000Z</time>
      </trkpt>
      <trkpt lat="48.29343" lon="7.30057">
        <ele>678.4</ele>
        <time>2000-01-01T05:56:35.000Z</time>
      </trkpt>
      <trkpt lat="48.29343" lon="7.30061">
        <ele>679.1</ele>
        <time>2000-01-01T05:56:45.000Z</time>
      </trkpt>
      <trkpt lat="48.29343" lon="7.30066">
        <ele>680</ele>
        <time>2000-01-01T05:56:55.000Z</time>
      </trkpt>
      <trkpt lat="48.29344" lon="7.30067">
        <ele>680.1</ele>
        <time>2000-01-01T05:57:05.000Z</time>
      </trkpt>
      <trkpt lat="48.29344" lon="7.30071">
        <ele>680.8</ele>
        <time>2000-01-01T05:57:15.000Z</time>
      </trkpt>
      <trkpt lat="48.29345" lon="7.30072">
        <ele>680.9</ele>
        <time>2000-01-01T05:57:25.000Z</time>
      </trkpt>
      <trkpt lat="48.29354" lon="7.30069">
        <ele>671</ele>
        <time>2000-01-01T05:57:35.000Z</time>
      </trkpt>
      <trkpt lat="48.29362" lon="7.30063">
        <ele>679.6</ele>
        <time>2000-01-01T05:57:45.000Z</time>
      </trkpt>
      <trkpt lat="48.29381" lon="7.30047">
        <ele>675</ele>
        <time>2000-01-01T05:57:55.000Z</time>
      </trkpt>
      <trkpt lat="48.29391" lon="7.30037">
        <ele>677.5</ele>
        <time>2000-01-01T05:58:05.000Z</time>
      </trkpt>
      <trkpt lat="48.29416" lon="7.3003">
        <ele>675</ele>
        <time>2000-01-01T05:58:15.000Z</time>
      </trkpt>
      <trkpt lat="48.2943" lon="7.30034">
        <ele>684.5</ele>
        <time>2000-01-01T05:58:25.000Z</time>
      </trkpt>
      <trkpt lat="48.29431" lon="7.30034">
        <ele>684.6</ele>
        <time>2000-01-01T05:58:35.000Z</time>
      </trkpt>
      <trkpt lat="48.29436" lon="7.30035">
        <ele>676</ele>
        <time>2000-01-01T05:58:45.000Z</time>
      </trkpt>
      <trkpt lat="48.29439" lon="7.30036">
        <ele>685.6</ele>
        <time>2000-01-01T05:58:55.000Z</time>
      </trkpt>
      <trkpt lat="48.29441" lon="7.30036">
        <ele>685.7</ele>
        <time>2000-01-01T05:59:05.000Z</time>
      </trkpt>
      <trkpt lat="48.29443" lon="7.30036">
        <ele>685.9</ele>
        <time>2000-01-01T05:59:15.000Z</time>
      </trkpt>
      <trkpt lat="48.29444" lon="7.30037">
        <ele>686.1</ele>
        <time>2000-01-01T05:59:25.000Z</time>
      </trkpt>
      <trkpt lat="48.2945" lon="7.30041">
        <ele>687.2</ele>
        <time>2000-01-01T05:59:35.000Z</time>
      </trkpt>
      <trkpt lat="48.2946" lon="7.30049">
        <ele>680</ele>
        <time>2000-01-01T05:59:45.000Z</time>
      </trkpt>
      <trkpt lat="48.29465" lon="7.30051">
        <ele>689.6</ele>
        <time>2000-01-01T05:59:55.000Z</time>
      </trkpt>
      <trkpt lat="48.29469" lon="7.30051">
        <ele>689.8</ele>
        <time>2000-01-01T06:00:05.000Z</time>
      </trkpt>
      <trkpt lat="48.29469" lon="7.3005">
        <ele>689.7</ele>
        <time>2000-01-01T06:00:15.000Z</time>
      </trkpt>
      <trkpt lat="48.29472" lon="7.3005">
        <ele>689.9</ele>
        <time>2000-01-01T06:00:25.000Z</time>
      </trkpt>
      <trkpt lat="48.29474" lon="7.30052">
        <ele>690.4</ele>
        <time>2000-01-01T06:00:35.000Z</time>
      </trkpt>
      <trkpt lat="48.29475" lon="7.30053">
        <ele>690.6</ele>
        <time>2000-01-01T06:00:45.000Z</time>
      </trkpt>
      <trkpt lat="48.29478" lon="7.30053">
        <ele>682</ele>
        <time>2000-01-01T06:00:55.000Z</time>
      </trkpt>
      <trkpt lat="48.2948" lon="7.30055">
        <ele>691.4</ele>
        <time>2000-01-01T06:01:05.000Z</time>
      </trkpt>
      <trkpt lat="48.29481" lon="7.30058">
        <ele>692.1</ele>
        <time>2000-01-01T06:01:15.000Z</time>
      </trkpt>
      <trkpt lat="48.29486" lon="7.30062">
        <ele>693.5</ele>
        <time>2000-01-01T06:01:25.000Z</time>
      </trkpt>
      <trkpt lat="48.29487" lon="7.30062">
        <ele>693.6</ele>
        <time>2000-01-01T06:01:35.000Z</time>
      </trkpt>
      <trkpt lat="48.29489" lon="7.30065">
        <ele>694.6</ele>
        <time>2000-01-01T06:01:45.000Z</time>
      </trkpt>
      <trkpt lat="48.2949" lon="7.30066">
        <ele>695</ele>
        <time>2000-01-01T06:01:55.000Z</time>
      </trkpt>
      <trkpt lat="48.29493" lon="7.30069">
        <ele>688</ele>
        <time>2000-01-01T06:02:05.000Z</time>
      </trkpt>
      <trkpt lat="48.29496" lon="7.30072">
        <ele>697.8</ele>
        <time>2000-01-01T06:02:15.000Z</time>
      </trkpt>
      <trkpt lat="48.29498" lon="7.30074">
        <ele>698.9</ele>
        <time>2000-01-01T06:02:25.000Z</time>
      </trkpt>
      <trkpt lat="48.29501" lon="7.30075">
        <ele>705.2</ele>
        <time>2000-01-01T06:02:35.000Z</time>
      </trkpt>
      <trkpt lat="48.29505" lon="7.30073">
        <ele>705.6</ele>
        <time>2000-01-01T06:02:45.000Z</time>
      </trkpt>
      <trkpt lat="48.29506" lon="7.30073">
        <ele>705.7</ele>
        <time>2000-01-01T06:02:55.000Z</time>
      </trkpt>
      <trkpt lat="48.29509" lon="7.30073">
        <ele>706.1</ele>
        <time>2000-01-01T06:03:05.000Z</time>
      </trkpt>
      <trkpt lat="48.2951" lon="7.30072">
        <ele>695</ele>
        <time>2000-01-01T06:03:15.000Z</time>
      </trkpt>
      <trkpt lat="48.29515" lon="7.30071">
        <ele>706.9</ele>
        <time>2000-01-01T06:03:25.000Z</time>
      </trkpt>
      <trkpt lat="48.29523" lon="7.30072">
        <ele>708.3</ele>
        <time>2000-01-01T06:03:35.000Z</time>
      </trkpt>
      <trkpt lat="48.29533" lon="7.3007">
        <ele>697</ele>
        <time>2000-01-01T06:03:45.000Z</time>
      </trkpt>
      <trkpt lat="48.29541" lon="7.30061">
        <ele>711.3</ele>
        <time>2000-01-01T06:03:55.000Z</time>
      </trkpt>
      <trkpt lat="48.29543" lon="7.30058">
        <ele>711.5</ele>
        <time>2000-01-01T06:04:05.000Z</time>
      </trkpt>
      <trkpt lat="48.29544" lon="7.30057">
        <ele>711.6</ele>
        <time>2000-01-01T06:04:15.000Z</time>
      </trkpt>
      <trkpt lat="48.29548" lon="7.30057">
        <ele>712.5</ele>
        <time>2000-01-01T06:04:25.000Z</time>
      </trkpt>
      <trkpt lat="48.29549" lon="7.30055">
        <ele>700</ele>
        <time>2000-01-01T06:04:35.000Z</time>
      </trkpt>
      <trkpt lat="48.29553" lon="7.30052">
        <ele>712.9</ele>
        <time>2000-01-01T06:04:45.000Z</time>
      </trkpt>
      <trkpt lat="48.29555" lon="7.30045">
        <ele>712.3</ele>
        <time>2000-01-01T06:04:55.000Z</time>
      </trkpt>
      <trkpt lat="48.29557" lon="7.30041">
        <ele>712.1</ele>
        <time>2000-01-01T06:05:05.000Z</time>
      </trkpt>
      <trkpt lat="48.29559" lon="7.30037">
        <ele>712</ele>
        <time>2000-01-01T06:05:15.000Z</time>
      </trkpt>
      <trkpt lat="48.2956" lon="7.30035">
        <ele>712</ele>
        <time>2000-01-01T06:05:25.000Z</time>
      </trkpt>
      <trkpt lat="48.29563" lon="7.30039">
        <ele>708</ele>
        <time>2000-01-01T06:05:35.000Z</time>
      </trkpt>
      <trkpt lat="48.29563" lon="7.30053">
        <ele>715.2</ele>
        <time>2000-01-01T06:05:45.000Z</time>
      </trkpt>
      <trkpt lat="48.29564" lon="7.3006">
        <ele>716.9</ele>
        <time>2000-01-01T06:05:55.000Z</time>
      </trkpt>
      <trkpt lat="48.29565" lon="7.30071">
        <ele>716</ele>
        <time>2000-01-01T06:06:05.000Z</time>
      </trkpt>
      <trkpt lat="48.29565" lon="7.30076">
        <ele>721</ele>
        <time>2000-01-01T06:06:15.000Z</time>
      </trkpt>
      <trkpt lat="48.29564" lon="7.30078">
        <ele>720.9</ele>
        <time>2000-01-01T06:06:25.000Z</time>
      </trkpt>
      <trkpt lat="48.29564" lon="7.3008">
        <ele>721.1</ele>
        <time>2000-01-01T06:06:35.000Z</time>
      </trkpt>
      <trkpt lat="48.29567" lon="7.30077">
        <ele>722.1</ele>
        <time>2000-01-01T06:06:45.000Z</time>
      </trkpt>
      <trkpt lat="48.29569" lon="7.30077">
        <ele>723.1</ele>
        <time>2000-01-01T06:06:55.000Z</time>
      </trkpt>
      <trkpt lat="48.29574" lon="7.30073">
        <ele>724.1</ele>
        <time>2000-01-01T06:07:05.000Z</time>
      </trkpt>
      <trkpt lat="48.29577" lon="7.30071">
        <ele>717</ele>
        <time>2000-01-01T06:07:15.000Z</time>
      </trkpt>
      <trkpt lat="48.29578" lon="7.30068">
        <ele>723.1</ele>
        <time>2000-01-01T06:07:25.000Z</time>
      </trkpt>
      <trkpt lat="48.29581" lon="7.30058">
        <ele>719.5</ele>
        <time>2000-01-01T06:07:35.000Z</time>
      </trkpt>
      <trkpt lat="48.29582" lon="7.30053">
        <ele>718</ele>
        <time>2000-01-01T06:07:45.000Z</time>
      </trkpt>
      <trkpt lat="48.29583" lon="7.30049">
        <ele>717.1</ele>
        <time>2000-01-01T06:07:55.000Z</time>
      </trkpt>
      <trkpt lat="48.2959" lon="7.3004">
        <ele>719</ele>
        <time>2000-01-01T06:08:05.000Z</time>
      </trkpt>
      <trkpt lat="48.29595" lon="7.30031">
        <ele>741.3</ele>
        <time>2000-01-01T06:08:15.000Z</time>
      </trkpt>
      <trkpt lat="48.29595" lon="7.30028">
        <ele>740.4</ele>
        <time>2000-01-01T06:08:25.000Z</time>
      </trkpt>
      <trkpt lat="48.29595" lon="7.30027">
        <ele>740.1</ele>
        <time>2000-01-01T06:08:35.000Z</time>
      </trkpt>
      <trkpt lat="48.29601" lon="7.30023">
        <ele>740.8</ele>
        <time>2000-01-01T06:08:45.000Z</time>
      </trkpt>
      <trkpt lat="48.29605" lon="7.30021">
        <ele>727</ele>
        <time>2000-01-01T06:08:55.000Z</time>
      </trkpt>
      <trkpt lat="48.29607" lon="7.30021">
        <ele>742.6</ele>
        <time>2000-01-01T06:09:05.000Z</time>
      </trkpt>
      <trkpt lat="48.29608" lon="7.30018">
        <ele>742.3</ele>
        <time>2000-01-01T06:09:15.000Z</time>
      </trkpt>
      <trkpt lat="48.2961" lon="7.30018">
        <ele>743.2</ele>
        <time>2000-01-01T06:09:25.000Z</time>
      </trkpt>
      <trkpt lat="48.29611" lon="7.30011">
        <ele>742.5</ele>
        <time>2000-01-01T06:09:35.000Z</time>
      </trkpt>
      <trkpt lat="48.29611" lon="7.30011">
        <ele>742.5</ele>
        <time>2000-01-01T06:09:45.000Z</time>
      </trkpt>
      <trkpt lat="48.29615" lon="7.30027">
        <ele>731</ele>
        <time>2000-01-01T06:09:55.000Z</time>
      </trkpt>
      <trkpt lat="48.29614" lon="7.30041">
        <ele>748.1</ele>
        <time>2000-01-01T06:10:05.000Z</time>
      </trkpt>
      <trkpt lat="48.29616" lon="7.30053">
        <ele>749.6</ele>
        <time>2000-01-01T06:10:15.000Z</time>
      </trkpt>
      <trkpt lat="48.29615" lon="7.30059">
        <ele>737</ele>
        <time>2000-01-01T06:10:25.000Z</time>
      </trkpt>
      <trkpt lat="48.29616" lon="7.30074">
        <ele>750.2</ele>
        <time>2000-01-01T06:10:35.000Z</time>
      </trkpt>
      <trkpt lat="48.29614" lon="7.30082">
        <ele>749.6</ele>
        <time>2000-01-01T06:10:45.000Z</time>
      </trkpt>
      <trkpt lat="48.29612" lon="7.30087">
        <ele>744</ele>
        <time>2000-01-01T06:10:55.000Z</time>
      </trkpt>
      <trkpt lat="48.29615" lon="7.30089">
        <ele>760.1</ele>
        <time>2000-01-01T06:11:05.000Z</time>
      </trkpt>
      <trkpt lat="48.29616" lon="7.30088">
        <ele>760.5</ele>
        <time>2000-01-01T06:11:15.000Z</time>
      </trkpt>
      <trkpt lat="48.29619" lon="7.30086">
        <ele>761.7</ele>
        <time>2000-01-01T06:11:25.000Z</time>
      </trkpt>
      <trkpt lat="48.2962" lon="7.30086">
        <ele>762.2</ele>
        <time>2000-01-01T06:11:35.000Z</time>
      </trkpt>
      <trkpt lat="48.2962" lon="7.30081">
        <ele>752</ele>
        <time>2000-01-01T06:11:45.000Z</time>
      </trkpt>
      <trkpt lat="48.29622" lon="7.3007">
        <ele>746</ele>
        <time>2000-01-01T06:11:55.000Z</time>
      </trkpt>
      <trkpt lat="48.29622" lon="7.30068">
        <ele>752.4</ele>
        <time>2000-01-01T06:12:05.000Z</time>
      </trkpt>
      <trkpt lat="48.29625" lon="7.30066">
        <ele>753.4</ele>
        <time>2000-01-01T06:12:15.000Z</time>
      </trkpt>
      <trkpt lat="48.29626" lon="7.30064">
        <ele>753.6</ele>
        <time>2000-01-01T06:12:25.000Z</time>
      </trkpt>
      <trkpt lat="48.29627" lon="7.30064">
        <ele>754</ele>
        <time>2000-01-01T06:12:35.000Z</time>
      </trkpt>
      <trkpt lat="48.29629" lon="7.30063">
        <ele>754.6</ele>
        <time>2000-01-01T06:12:45.000Z</time>
      </trkpt>
      <trkpt lat="48.29632" lon="7.3006">
        <ele>755.4</ele>
        <time>2000-01-01T06:12:55.000Z</time>
      </trkpt>
      <trkpt lat="48.29634" lon="7.30059">
        <ele>756</ele>
        <time>2000-01-01T06:13:05.000Z</time>
      </trkpt>
      <trkpt lat="48.29638" lon="7.30057">
        <ele>747</ele>
        <time>2000-01-01T06:13:15.000Z</time>
      </trkpt>
      <trkpt lat="48.29647" lon="7.30052">
        <ele>759.1</ele>
        <time>2000-01-01T06:13:25.000Z</time>
      </trkpt>
      <trkpt lat="48.29649" lon="7.30049">
        <ele>759.1</ele>
        <time>2000-01-01T06:13:35.000Z</time>
      </trkpt>
      <trkpt lat="48.2965" lon="7.30048">
        <ele>759.2</ele>
        <time>2000-01-01T06:13:45.000Z</time>
      </trkpt>
      <trkpt lat="48.29652" lon="7.3004">
        <ele>758</ele>
        <time>2000-01-01T06:13:55.000Z</time>
      </trkpt>
      <trkpt lat="48.29654" lon="7.30035">
        <ele>759</ele>
        <time>2000-01-01T06:14:05.000Z</time>
      </trkpt>
      <trkpt lat="48.29657" lon="7.30031">
        <ele>759.6</ele>
        <time>2000-01-01T06:14:15.000Z</time>
      </trkpt>
      <trkpt lat="48.2966" lon="7.30029">
        <ele>760.2</ele>
        <time>2000-01-01T06:14:25.000Z</time>
      </trkpt>
      <trkpt lat="48.29665" lon="7.30029">
        <ele>760.9</ele>
        <time>2000-01-01T06:14:35.000Z</time>
      </trkpt>
      <trkpt lat="48.29672" lon="7.30029">
        <ele>765</ele>
        <time>2000-01-01T06:14:45.000Z</time>
      </trkpt>
      <trkpt lat="48.29678" lon="7.30024">
        <ele>787.7</ele>
        <time>2000-01-01T06:14:55.000Z</time>
      </trkpt>
      <trkpt lat="48.29678" lon="7.30022">
        <ele>787.1</ele>
        <time>2000-01-01T06:15:05.000Z</time>
      </trkpt>
      <trkpt lat="48.29679" lon="7.30025">
        <ele>788.1</ele>
        <time>2000-01-01T06:15:15.000Z</time>
      </trkpt>
      <trkpt lat="48.29681" lon="7.30042">
        <ele>775</ele>
        <time>2000-01-01T06:15:25.000Z</time>
      </trkpt>
      <trkpt lat="48.29681" lon="7.30043">
        <ele>791.1</ele>
        <time>2000-01-01T06:15:35.000Z</time>
      </trkpt>
      <trkpt lat="48.29685" lon="7.30044">
        <ele>791.8</ele>
        <time>2000-01-01T06:15:45.000Z</time>
      </trkpt>
      <trkpt lat="48.29685" lon="7.30043">
        <ele>791.7</ele>
        <time>2000-01-01T06:15:55.000Z</time>
      </trkpt>
      <trkpt lat="48.29689" lon="7.30042">
        <ele>792.4</ele>
        <time>2000-01-01T06:16:05.000Z</time>
      </trkpt>
      <trkpt lat="48.29691" lon="7.30028">
        <ele>780</ele>
        <time>2000-01-01T06:16:15.000Z</time>
      </trkpt>
      <trkpt lat="48.29691" lon="7.30026">
        <ele>791.3</ele>
        <time>2000-01-01T06:16:25.000Z</time>
      </trkpt>
      <trkpt lat="48.29694" lon="7.30046">
        <ele>793.7</ele>
        <time>2000-01-01T06:16:35.000Z</time>
      </trkpt>
      <trkpt lat="48.29695" lon="7.30054">
        <ele>781</ele>
        <time>2000-01-01T06:16:45.000Z</time>
      </trkpt>
      <trkpt lat="48.29698" lon="7.3006">
        <ele>794.8</ele>
        <time>2000-01-01T06:16:55.000Z</time>
      </trkpt>
      <trkpt lat="48.29699" lon="7.30067">
        <ele>795.1</ele>
        <time>2000-01-01T06:17:05.000Z</time>
      </trkpt>
      <trkpt lat="48.29699" lon="7.30075">
        <ele>795</ele>
        <time>2000-01-01T06:17:15.000Z</time>
      </trkpt>
      <trkpt lat="48.29697" lon="7.30083">
        <ele>787</ele>
        <time>2000-01-01T06:17:25.000Z</time>
      </trkpt>
      <trkpt lat="48.29693" lon="7.30095">
        <ele>798.9</ele>
        <time>2000-01-01T06:17:35.000Z</time>
      </trkpt>
      <trkpt lat="48.29697" lon="7.30103">
        <ele>801.1</ele>
        <time>2000-01-01T06:17:45.000Z</time>
      </trkpt>
      <trkpt lat="48.29701" lon="7.301">
        <ele>795</ele>
        <time>2000-01-01T06:17:55.000Z</time>
      </trkpt>
      <trkpt lat="48.29702" lon="7.30095">
        <ele>802</ele>
        <time>2000-01-01T06:18:05.000Z</time>
      </trkpt>
      <trkpt lat="48.29706" lon="7.30091">
        <ele>803</ele>
        <time>2000-01-01T06:18:15.000Z</time>
      </trkpt>
      <trkpt lat="48.2971" lon="7.30088">
        <ele>804.2</ele>
        <time>2000-01-01T06:18:25.000Z</time>
      </trkpt>
      <trkpt lat="48.29712" lon="7.30085">
        <ele>804.8</ele>
        <time>2000-01-01T06:18:35.000Z</time>
      </trkpt>
      <trkpt lat="48.29714" lon="7.30084">
        <ele>796</ele>
        <time>2000-01-01T06:18:45.000Z</time>
      </trkpt>
      <trkpt lat="48.29717" lon="7.30079">
        <ele>801.1</ele>
        <time>2000-01-01T06:18:55.000Z</time>
      </trkpt>
      <trkpt lat="48.29724" lon="7.30091">
        <ele>808.6</ele>
        <time>2000-01-01T06:19:05.000Z</time>
      </trkpt>
      <trkpt lat="48.29727" lon="7.30096">
        <ele>803</ele>
        <time>2000-01-01T06:19:15.000Z</time>
      </trkpt>
      <trkpt lat="48.2973" lon="7.30103">
        <ele>809.6</ele>
        <time>2000-01-01T06:19:25.000Z</time>
      </trkpt>
      <trkpt lat="48.29736" lon="7.30115">
        <ele>810.2</ele>
        <time>2000-01-01T06:19:35.000Z</time>
      </trkpt>
      <trkpt lat="48.29739" lon="7.30124">
        <ele>808</ele>
        <time>2000-01-01T06:19:45.000Z</time>
      </trkpt>
      <trkpt lat="48.2974" lon="7.30131">
        <ele>811.6</ele>
        <time>2000-01-01T06:19:55.000Z</time>
      </trkpt>
      <trkpt lat="48.29742" lon="7.30135">
        <ele>812.4</ele>
        <time>2000-01-01T06:20:05.000Z</time>
      </trkpt>
      <trkpt lat="48.29744" lon="7.30139">
        <ele>813.3</ele>
        <time>2000-01-01T06:20:15.000Z</time>
      </trkpt>
      <trkpt lat="48.29747" lon="7.30144">
        <ele>814.8</ele>
        <time>2000-01-01T06:20:25.000Z</time>
      </trkpt>
      <trkpt lat="48.29747" lon="7.30147">
        <ele>811</ele>
        <time>2000-01-01T06:20:35.000Z</time>
      </trkpt>
      <trkpt lat="48.29745" lon="7.30154">
        <ele>817.7</ele>
        <time>2000-01-01T06:20:45.000Z</time>
      </trkpt>
      <trkpt lat="48.29743" lon="7.30175">
        <ele>813</ele>
        <time>2000-01-01T06:20:55.000Z</time>
      </trkpt>
      <trkpt lat="48.29738" lon="7.30192">
        <ele>819.3</ele>
        <time>2000-01-01T06:21:05.000Z</time>
      </trkpt>
      <trkpt lat="48.29734" lon="7.30205">
        <ele>814</ele>
        <time>2000-01-01T06:21:15.000Z</time>
      </trkpt>
      <trkpt lat="48.29733" lon="7.30213">
        <ele>819</ele>
        <time>2000-01-01T06:21:25.000Z</time>
      </trkpt>
      <trkpt lat="48.29729" lon="7.30233">
        <ele>815</ele>
        <time>2000-01-01T06:21:35.000Z</time>
      </trkpt>
      <trkpt lat="48.2973" lon="7.3025">
        <ele>826</ele>
        <time>2000-01-01T06:21:45.000Z</time>
      </trkpt>
      <trkpt lat="48.29728" lon="7.3026">
        <ele>815</ele>
        <time>2000-01-01T06:21:55.000Z</time>
      </trkpt>
      <trkpt lat="48.29724" lon="7.30275">
        <ele>825</ele>
        <time>2000-01-01T06:22:05.000Z</time>
      </trkpt>
      <trkpt lat="48.29722" lon="7.30278">
        <ele>824.9</ele>
        <time>2000-01-01T06:22:15.000Z</time>
      </trkpt>
      <trkpt lat="48.2972" lon="7.30287">
        <ele>815</ele>
        <time>2000-01-01T06:22:25.000Z</time>
      </trkpt>
      <trkpt lat="48.29716" lon="7.30302">
        <ele>825.2</ele>
        <time>2000-01-01T06:22:35.000Z</time>
      </trkpt>
      <trkpt lat="48.29714" lon="7.30307">
        <ele>825.3</ele>
        <time>2000-01-01T06:22:45.000Z</time>
      </trkpt>
      <trkpt lat="48.2971" lon="7.30339">
        <ele>817</ele>
        <time>2000-01-01T06:22:55.000Z</time>
      </trkpt>
      <trkpt lat="48.29712" lon="7.30361">
        <ele>830.3</ele>
        <time>2000-01-01T06:23:05.000Z</time>
      </trkpt>
      <trkpt lat="48.29713" lon="7.30367">
        <ele>819</ele>
        <time>2000-01-01T06:23:15.000Z</time>
      </trkpt>
      <trkpt lat="48.29714" lon="7.30369">
        <ele>830.6</ele>
        <time>2000-01-01T06:23:25.000Z</time>
      </trkpt>
      <trkpt lat="48.29715" lon="7.30381">
        <ele>831</ele>
        <time>2000-01-01T06:23:35.000Z</time>
      </trkpt>
      <trkpt lat="48.29716" lon="7.30387">
        <ele>831.2</ele>
        <time>2000-01-01T06:23:45.000Z</time>
      </trkpt>
      <trkpt lat="48.2972" lon="7.30394">
        <ele>822</ele>
        <time>2000-01-01T06:23:55.000Z</time>
      </trkpt>
      <trkpt lat="48.29724" lon="7.30403">
        <ele>832</ele>
        <time>2000-01-01T06:24:05.000Z</time>
      </trkpt>
      <trkpt lat="48.29726" lon="7.30407">
        <ele>832.2</ele>
        <time>2000-01-01T06:24:15.000Z</time>
      </trkpt>
      <trkpt lat="48.29727" lon="7.3041">
        <ele>832.4</ele>
        <time>2000-01-01T06:24:25.000Z</time>
      </trkpt>
      <trkpt lat="48.29725" lon="7.30417">
        <ele>834.1</ele>
        <time>2000-01-01T06:24:35.000Z</time>
      </trkpt>
      <trkpt lat="48.29724" lon="7.30424">
        <ele>824</ele>
        <time>2000-01-01T06:24:45.000Z</time>
      </trkpt>
      <trkpt lat="48.29715" lon="7.30438">
        <ele>833.9</ele>
        <time>2000-01-01T06:24:55.000Z</time>
      </trkpt>
      <trkpt lat="48.297" lon="7.3045">
        <ele>824</ele>
        <time>2000-01-01T06:25:05.000Z</time>
      </trkpt>
      <trkpt lat="48.29697" lon="7.30452">
        <ele>833.8</ele>
        <time>2000-01-01T06:25:15.000Z</time>
      </trkpt>
      <trkpt lat="48.29685" lon="7.30457">
        <ele>833.7</ele>
        <time>2000-01-01T06:25:25.000Z</time>
      </trkpt>
      <trkpt lat="48.29672" lon="7.30461">
        <ele>824</ele>
        <time>2000-01-01T06:25:35.000Z</time>
      </trkpt>
      <trkpt lat="48.29665" lon="7.30465">
        <ele>831.9</ele>
        <time>2000-01-01T06:25:45.000Z</time>
      </trkpt>
      <trkpt lat="48.29647" lon="7.30473">
        <ele>823</ele>
        <time>2000-01-01T06:25:55.000Z</time>
      </trkpt>
      <trkpt lat="48.29639" lon="7.30476">
        <ele>831.8</ele>
        <time>2000-01-01T06:26:05.000Z</time>
      </trkpt>
      <trkpt lat="48.29635" lon="7.30476">
        <ele>831.7</ele>
        <time>2000-01-01T06:26:15.000Z</time>
      </trkpt>
      <trkpt lat="48.29612" lon="7.30485">
        <ele>823</ele>
        <time>2000-01-01T06:26:25.000Z</time>
      </trkpt>
      <trkpt lat="48.296" lon="7.30484">
        <ele>831.5</ele>
        <time>2000-01-01T06:26:35.000Z</time>
      </trkpt>
      <trkpt lat="48.29592" lon="7.30492">
        <ele>823</ele>
        <time>2000-01-01T06:26:45.000Z</time>
      </trkpt>
      <trkpt lat="48.29581" lon="7.30502">
        <ele>832.9</ele>
        <time>2000-01-01T06:26:55.000Z</time>
      </trkpt>
      <trkpt lat="48.29572" lon="7.30509">
        <ele>823</ele>
        <time>2000-01-01T06:27:05.000Z</time>
      </trkpt>
      <trkpt lat="48.29554" lon="7.3052">
        <ele>823</ele>
        <time>2000-01-01T06:27:15.000Z</time>
      </trkpt>
      <trkpt lat="48.29551" lon="7.30524">
        <ele>831.8</ele>
        <time>2000-01-01T06:27:25.000Z</time>
      </trkpt>
      <trkpt lat="48.2953" lon="7.30526">
        <ele>823</ele>
        <time>2000-01-01T06:27:35.000Z</time>
      </trkpt>
      <trkpt lat="48.29515" lon="7.30523">
        <ele>830.4</ele>
        <time>2000-01-01T06:27:45.000Z</time>
      </trkpt>
      <trkpt lat="48.29506" lon="7.3052">
        <ele>822</ele>
        <time>2000-01-01T06:27:55.000Z</time>
      </trkpt>
      <trkpt lat="48.29482" lon="7.30511">
        <ele>821</ele>
        <time>2000-01-01T06:28:05.000Z</time>
      </trkpt>
      <trkpt lat="48.29476" lon="7.30505">
        <ele>826.6</ele>
        <time>2000-01-01T06:28:15.000Z</time>
      </trkpt>
      <trkpt lat="48.29466" lon="7.30482">
        <ele>821</ele>
        <time>2000-01-01T06:28:25.000Z</time>
      </trkpt>
      <trkpt lat="48.2945" lon="7.30467">
        <ele>821</ele>
        <time>2000-01-01T06:28:35.000Z</time>
      </trkpt>
      <trkpt lat="48.29447" lon="7.30465">
        <ele>819.4</ele>
        <time>2000-01-01T06:28:45.000Z</time>
      </trkpt>
      <trkpt lat="48.29432" lon="7.30463">
        <ele>821</ele>
        <time>2000-01-01T06:28:55.000Z</time>
      </trkpt>
      <trkpt lat="48.2943" lon="7.30462">
        <ele>818.8</ele>
        <time>2000-01-01T06:29:05.000Z</time>
      </trkpt>
      <trkpt lat="48.29412" lon="7.3046">
        <ele>820</ele>
        <time>2000-01-01T06:29:15.000Z</time>
      </trkpt>
      <trkpt lat="48.29403" lon="7.30463">
        <ele>811.4</ele>
        <time>2000-01-01T06:29:25.000Z</time>
      </trkpt>
      <trkpt lat="48.29389" lon="7.30483">
        <ele>819</ele>
        <time>2000-01-01T06:29:35.000Z</time>
      </trkpt>
      <trkpt lat="48.29388" lon="7.3052">
        <ele>819</ele>
        <time>2000-01-01T06:29:45.000Z</time>
      </trkpt>
      <trkpt lat="48.29388" lon="7.30522">
        <ele>815</ele>
        <time>2000-01-01T06:29:55.000Z</time>
      </trkpt>
      <trkpt lat="48.2939" lon="7.30543">
        <ele>814.5</ele>
        <time>2000-01-01T06:30:05.000Z</time>
      </trkpt>
      <trkpt lat="48.29395" lon="7.30552">
        <ele>819</ele>
        <time>2000-01-01T06:30:15.000Z</time>
      </trkpt>
      <trkpt lat="48.29404" lon="7.30564">
        <ele>816.8</ele>
        <time>2000-01-01T06:30:25.000Z</time>
      </trkpt>
      <trkpt lat="48.29408" lon="7.30568">
        <ele>817.8</ele>
        <time>2000-01-01T06:30:35.000Z</time>
      </trkpt>
      <trkpt lat="48.29417" lon="7.30573">
        <ele>822</ele>
        <time>2000-01-01T06:30:45.000Z</time>
      </trkpt>
      <trkpt lat="48.29425" lon="7.30591">
        <ele>823.4</ele>
        <time>2000-01-01T06:30:55.000Z</time>
      </trkpt>
      <trkpt lat="48.29431" lon="7.30598">
        <ele>823</ele>
        <time>2000-01-01T06:31:05.000Z</time>
      </trkpt>
      <trkpt lat="48.29435" lon="7.30606">
        <ele>823.7</ele>
        <time>2000-01-01T06:31:15.000Z</time>
      </trkpt>
      <trkpt lat="48.29448" lon="7.30627">
        <ele>823</ele>
        <time>2000-01-01T06:31:25.000Z</time>
      </trkpt>
      <trkpt lat="48.29449" lon="7.30632">
        <ele>823.7</ele>
        <time>2000-01-01T06:31:35.000Z</time>
      </trkpt>
      <trkpt lat="48.29453" lon="7.30644">
        <ele>823.6</ele>
        <time>2000-01-01T06:31:45.000Z</time>
      </trkpt>
      <trkpt lat="48.29458" lon="7.30655">
        <ele>820</ele>
        <time>2000-01-01T06:31:55.000Z</time>
      </trkpt>
      <trkpt lat="48.2946" lon="7.30662">
        <ele>824.4</ele>
        <time>2000-01-01T06:32:05.000Z</time>
      </trkpt>
      <trkpt lat="48.29463" lon="7.3067">
        <ele>822.1</ele>
        <time>2000-01-01T06:32:15.000Z</time>
      </trkpt>
      <trkpt lat="48.29467" lon="7.3068">
        <ele>820</ele>
        <time>2000-01-01T06:32:25.000Z</time>
      </trkpt>
      <trkpt lat="48.2947" lon="7.3069">
        <ele>822.7</ele>
        <time>2000-01-01T06:32:35.000Z</time>
      </trkpt>
      <trkpt lat="48.29471" lon="7.30693">
        <ele>822.7</ele>
        <time>2000-01-01T06:32:45.000Z</time>
      </trkpt>
      <trkpt lat="48.29477" lon="7.30706">
        <ele>821</ele>
        <time>2000-01-01T06:32:55.000Z</time>
      </trkpt>
      <trkpt lat="48.29481" lon="7.30716">
        <ele>823.4</ele>
        <time>2000-01-01T06:33:05.000Z</time>
      </trkpt>
      <trkpt lat="48.29484" lon="7.30724">
        <ele>824.1</ele>
        <time>2000-01-01T06:33:15.000Z</time>
      </trkpt>
      <trkpt lat="48.29491" lon="7.30737">
        <ele>826</ele>
        <time>2000-01-01T06:33:25.000Z</time>
      </trkpt>
      <trkpt lat="48.29495" lon="7.30746">
        <ele>829.9</ele>
        <time>2000-01-01T06:33:35.000Z</time>
      </trkpt>
      <trkpt lat="48.29498" lon="7.30761">
        <ele>826.1</ele>
        <time>2000-01-01T06:33:45.000Z</time>
      </trkpt>
      <trkpt lat="48.29501" lon="7.30768">
        <ele>827</ele>
        <time>2000-01-01T06:33:55.000Z</time>
      </trkpt>
      <trkpt lat="48.29501" lon="7.30775">
        <ele>835.2</ele>
        <time>2000-01-01T06:34:05.000Z</time>
      </trkpt>
      <trkpt lat="48.29502" lon="7.30787">
        <ele>835.3</ele>
        <time>2000-01-01T06:34:15.000Z</time>
      </trkpt>
      <trkpt lat="48.29503" lon="7.30793">
        <ele>835.3</ele>
        <time>2000-01-01T06:34:25.000Z</time>
      </trkpt>
      <trkpt lat="48.29505" lon="7.30796">
        <ele>828</ele>
        <time>2000-01-01T06:34:35.000Z</time>
      </trkpt>
      <trkpt lat="48.29509" lon="7.30801">
        <ele>835.2</ele>
        <time>2000-01-01T06:34:45.000Z</time>
      </trkpt>
      <trkpt lat="48.29511" lon="7.30805">
        <ele>835.1</ele>
        <time>2000-01-01T06:34:55.000Z</time>
      </trkpt>
      <trkpt lat="48.29516" lon="7.30813">
        <ele>834.9</ele>
        <time>2000-01-01T06:35:05.000Z</time>
      </trkpt>
      <trkpt lat="48.29523" lon="7.30825">
        <ele>834</ele>
        <time>2000-01-01T06:35:15.000Z</time>
      </trkpt>
      <trkpt lat="48.29529" lon="7.30842">
        <ele>836.3</ele>
        <time>2000-01-01T06:35:25.000Z</time>
      </trkpt>
      <trkpt lat="48.29537" lon="7.30862">
        <ele>834</ele>
        <time>2000-01-01T06:35:35.000Z</time>
      </trkpt>
      <trkpt lat="48.29536" lon="7.30868">
        <ele>837.6</ele>
        <time>2000-01-01T06:35:45.000Z</time>
      </trkpt>
      <trkpt lat="48.29535" lon="7.30874">
        <ele>837.6</ele>
        <time>2000-01-01T06:35:55.000Z</time>
      </trkpt>
      <trkpt lat="48.29533" lon="7.30881">
        <ele>837.4</ele>
        <time>2000-01-01T06:36:05.000Z</time>
      </trkpt>
      <trkpt lat="48.2953" lon="7.30895">
        <ele>834</ele>
        <time>2000-01-01T06:36:15.000Z</time>
      </trkpt>
      <trkpt lat="48.29529" lon="7.30908">
        <ele>836.6</ele>
        <time>2000-01-01T06:36:25.000Z</time>
      </trkpt>
      <trkpt lat="48.29527" lon="7.30924">
        <ele>831</ele>
        <time>2000-01-01T06:36:35.000Z</time>
      </trkpt>
      <trkpt lat="48.29531" lon="7.30932">
        <ele>838.6</ele>
        <time>2000-01-01T06:36:45.000Z</time>
      </trkpt>
      <trkpt lat="48.29533" lon="7.30937">
        <ele>839</ele>
        <time>2000-01-01T06:36:55.000Z</time>
      </trkpt>
      <trkpt lat="48.29534" lon="7.3094">
        <ele>839.2</ele>
        <time>2000-01-01T06:37:05.000Z</time>
      </trkpt>
      <trkpt lat="48.29535" lon="7.30945">
        <ele>839.5</ele>
        <time>2000-01-01T06:37:15.000Z</time>
      </trkpt>
      <trkpt lat="48.29535" lon="7.30957">
        <ele>830</ele>
        <time>2000-01-01T06:37:25.000Z</time>
      </trkpt>
      <trkpt lat="48.29536" lon="7.30965">
        <ele>840.1</ele>
        <time>2000-01-01T06:37:35.000Z</time>
      </trkpt>
      <trkpt lat="48.29536" lon="7.30975">
        <ele>840.2</ele>
        <time>2000-01-01T06:37:45.000Z</time>
      </trkpt>
      <trkpt lat="48.29533" lon="7.30987">
        <ele>829</ele>
        <time>2000-01-01T06:37:55.000Z</time>
      </trkpt>
      <trkpt lat="48.29531" lon="7.30995">
        <ele>839.7</ele>
        <time>2000-01-01T06:38:05.000Z</time>
      </trkpt>
      <trkpt lat="48.29527" lon="7.3101">
        <ele>842.5</ele>
        <time>2000-01-01T06:38:15.000Z</time>
      </trkpt>
      <trkpt lat="48.29523" lon="7.31023">
        <ele>829</ele>
        <time>2000-01-01T06:38:25.000Z</time>
      </trkpt>
      <trkpt lat="48.29521" lon="7.31033">
        <ele>843.6</ele>
        <time>2000-01-01T06:38:35.000Z</time>
      </trkpt>
      <trkpt lat="48.2952" lon="7.31044">
        <ele>844.3</ele>
        <time>2000-01-01T06:38:45.000Z</time>
      </trkpt>
      <trkpt lat="48.29515" lon="7.3107">
        <ele>831</ele>
        <time>2000-01-01T06:38:55.000Z</time>
      </trkpt>
      <trkpt lat="48.29514" lon="7.31073">
        <ele>845.2</ele>
        <time>2000-01-01T06:39:05.000Z</time>
      </trkpt>
      <trkpt lat="48.29512" lon="7.31092">
        <ele>847.2</ele>
        <time>2000-01-01T06:39:15.000Z</time>
      </trkpt>
      <trkpt lat="48.29509" lon="7.31106">
        <ele>832</ele>
        <time>2000-01-01T06:39:25.000Z</time>
      </trkpt>
      <trkpt lat="48.29506" lon="7.31126">
        <ele>848.6</ele>
        <time>2000-01-01T06:39:35.000Z</time>
      </trkpt>
      <trkpt lat="48.29505" lon="7.31135">
        <ele>833</ele>
        <time>2000-01-01T06:39:45.000Z</time>
      </trkpt>
      <trkpt lat="48.29505" lon="7.31138">
        <ele>848.6</ele>
        <time>2000-01-01T06:39:55.000Z</time>
      </trkpt>
      <trkpt lat="48.29499" lon="7.31154">
        <ele>839.9</ele>
        <time>2000-01-01T06:40:05.000Z</time>
      </trkpt>
      <trkpt lat="48.29498" lon="7.31168">
        <ele>834</ele>
        <time>2000-01-01T06:40:15.000Z</time>
      </trkpt>
      <trkpt lat="48.29496" lon="7.31183">
        <ele>841.2</ele>
        <time>2000-01-01T06:40:25.000Z</time>
      </trkpt>
      <trkpt lat="48.29496" lon="7.312">
        <ele>837</ele>
        <time>2000-01-01T06:40:35.000Z</time>
      </trkpt>
      <trkpt lat="48.29498" lon="7.3121">
        <ele>839.9</ele>
        <time>2000-01-01T06:40:45.000Z</time>
      </trkpt>
      <trkpt lat="48.295" lon="7.3122">
        <ele>851.9</ele>
        <time>2000-01-01T06:40:55.000Z</time>
      </trkpt>
      <trkpt lat="48.29503" lon="7.31229">
        <ele>843</ele>
        <time>2000-01-01T06:41:05.000Z</time>
      </trkpt>
      <trkpt lat="48.29507" lon="7.31235">
        <ele>852.2</ele>
        <time>2000-01-01T06:41:15.000Z</time>
      </trkpt>
      <trkpt lat="48.29509" lon="7.31236">
        <ele>852.2</ele>
        <time>2000-01-01T06:41:25.000Z</time>
      </trkpt>
      <trkpt lat="48.29516" lon="7.31235">
        <ele>852.4</ele>
        <time>2000-01-01T06:41:35.000Z</time>
      </trkpt>
      <trkpt lat="48.29517" lon="7.31233">
        <ele>852.4</ele>
        <time>2000-01-01T06:41:45.000Z</time>
      </trkpt>
      <trkpt lat="48.29518" lon="7.31216">
        <ele>843</ele>
        <time>2000-01-01T06:41:55.000Z</time>
      </trkpt>
      <trkpt lat="48.29519" lon="7.31201">
        <ele>851.7</ele>
        <time>2000-01-01T06:42:05.000Z</time>
      </trkpt>
      <trkpt lat="48.29519" lon="7.31186">
        <ele>843</ele>
        <time>2000-01-01T06:42:15.000Z</time>
      </trkpt>
      <trkpt lat="48.29518" lon="7.31169">
        <ele>850</ele>
        <time>2000-01-01T06:42:25.000Z</time>
      </trkpt>
      <trkpt lat="48.2952" lon="7.31157">
        <ele>843</ele>
        <time>2000-01-01T06:42:35.000Z</time>
      </trkpt>
      <trkpt lat="48.29525" lon="7.31138">
        <ele>849.3</ele>
        <time>2000-01-01T06:42:45.000Z</time>
      </trkpt>
      <trkpt lat="48.29531" lon="7.31124">
        <ele>843</ele>
        <time>2000-01-01T06:42:55.000Z</time>
      </trkpt>
      <trkpt lat="48.29543" lon="7.31099">
        <ele>841</ele>
        <time>2000-01-01T06:43:05.000Z</time>
      </trkpt>
      <trkpt lat="48.29556" lon="7.31082">
        <ele>848.1</ele>
        <time>2000-01-01T06:43:15.000Z</time>
      </trkpt>
      <trkpt lat="48.2957" lon="7.31066">
        <ele>841</ele>
        <time>2000-01-01T06:43:25.000Z</time>
      </trkpt>
      <trkpt lat="48.29582" lon="7.31049">
        <ele>847.9</ele>
        <time>2000-01-01T06:43:35.000Z</time>
      </trkpt>
      <trkpt lat="48.29592" lon="7.31035">
        <ele>839</ele>
        <time>2000-01-01T06:43:45.000Z</time>
      </trkpt>
      <trkpt lat="48.29598" lon="7.31024">
        <ele>848.8</ele>
        <time>2000-01-01T06:43:55.000Z</time>
      </trkpt>
      <trkpt lat="48.29614" lon="7.31008">
        <ele>839</ele>
        <time>2000-01-01T06:44:05.000Z</time>
      </trkpt>
      <trkpt lat="48.29625" lon="7.31001">
        <ele>847.9</ele>
        <time>2000-01-01T06:44:15.000Z</time>
      </trkpt>
      <trkpt lat="48.29643" lon="7.3099">
        <ele>839</ele>
        <time>2000-01-01T06:44:25.000Z</time>
      </trkpt>
      <trkpt lat="48.29654" lon="7.30974">
        <ele>846.6</ele>
        <time>2000-01-01T06:44:35.000Z</time>
      </trkpt>
      <trkpt lat="48.29668" lon="7.30957">
        <ele>837</ele>
        <time>2000-01-01T06:44:45.000Z</time>
      </trkpt>
      <trkpt lat="48.29681" lon="7.30937">
        <ele>836</ele>
        <time>2000-01-01T06:44:55.000Z</time>
      </trkpt>
      <trkpt lat="48.29687" lon="7.30918">
        <ele>841.6</ele>
        <time>2000-01-01T06:45:05.000Z</time>
      </trkpt>
      <trkpt lat="48.29692" lon="7.3089">
        <ele>834</ele>
        <time>2000-01-01T06:45:15.000Z</time>
      </trkpt>
      <trkpt lat="48.29696" lon="7.30877">
        <ele>840.7</ele>
        <time>2000-01-01T06:45:25.000Z</time>
      </trkpt>
      <trkpt lat="48.29698" lon="7.30839">
        <ele>833</ele>
        <time>2000-01-01T06:45:35.000Z</time>
      </trkpt>
      <trkpt lat="48.29694" lon="7.3081">
        <ele>832</ele>
        <time>2000-01-01T06:45:45.000Z</time>
      </trkpt>
      <trkpt lat="48.29695" lon="7.30788">
        <ele>839.2</ele>
        <time>2000-01-01T06:45:55.000Z</time>
      </trkpt>
      <trkpt lat="48.29698" lon="7.30773">
        <ele>831</ele>
        <time>2000-01-01T06:46:05.000Z</time>
      </trkpt>
      <trkpt lat="48.29702" lon="7.30754">
        <ele>838.4</ele>
        <time>2000-01-01T06:46:15.000Z</time>
      </trkpt>
      <trkpt lat="48.29708" lon="7.30736">
        <ele>829</ele>
        <time>2000-01-01T06:46:25.000Z</time>
      </trkpt>
      <trkpt lat="48.29721" lon="7.30709">
        <ele>826</ele>
        <time>2000-01-01T06:46:35.000Z</time>
      </trkpt>
      <trkpt lat="48.29736" lon="7.30684">
        <ele>825</ele>
        <time>2000-01-01T06:46:45.000Z</time>
      </trkpt>
      <trkpt lat="48.29746" lon="7.3066">
        <ele>824</ele>
        <time>2000-01-01T06:46:55.000Z</time>
      </trkpt>
      <trkpt lat="48.29757" lon="7.30644">
        <ele>826.8</ele>
        <time>2000-01-01T06:47:05.000Z</time>
      </trkpt>
      <trkpt lat="48.29762" lon="7.30634">
        <ele>822</ele>
        <time>2000-01-01T06:47:15.000Z</time>
      </trkpt>
      <trkpt lat="48.29768" lon="7.30621">
        <ele>825.4</ele>
        <time>2000-01-01T06:47:25.000Z</time>
      </trkpt>
      <trkpt lat="48.29778" lon="7.30611">
        <ele>821</ele>
        <time>2000-01-01T06:47:35.000Z</time>
      </trkpt>
      <trkpt lat="48.29784" lon="7.30606">
        <ele>824.3</ele>
        <time>2000-01-01T06:47:45.000Z</time>
      </trkpt>
      <trkpt lat="48.29793" lon="7.30598">
        <ele>823.4</ele>
        <time>2000-01-01T06:47:55.000Z</time>
      </trkpt>
      <trkpt lat="48.29801" lon="7.30589">
        <ele>817</ele>
        <time>2000-01-01T06:48:05.000Z</time>
      </trkpt>
      <trkpt lat="48.29805" lon="7.30588">
        <ele>822</ele>
        <time>2000-01-01T06:48:15.000Z</time>
      </trkpt>
      <trkpt lat="48.29806" lon="7.3059">
        <ele>821.9</ele>
        <time>2000-01-01T06:48:25.000Z</time>
      </trkpt>
      <trkpt lat="48.29806" lon="7.30598">
        <ele>821.9</ele>
        <time>2000-01-01T06:48:35.000Z</time>
      </trkpt>
      <trkpt lat="48.29803" lon="7.3062">
        <ele>816</ele>
        <time>2000-01-01T06:48:45.000Z</time>
      </trkpt>
      <trkpt lat="48.29801" lon="7.30633">
        <ele>821.7</ele>
        <time>2000-01-01T06:48:55.000Z</time>
      </trkpt>
      <trkpt lat="48.29799" lon="7.3065">
        <ele>816</ele>
        <time>2000-01-01T06:49:05.000Z</time>
      </trkpt>
      <trkpt lat="48.29803" lon="7.30671">
        <ele>818.4</ele>
        <time>2000-01-01T06:49:15.000Z</time>
      </trkpt>
      <trkpt lat="48.29808" lon="7.307">
        <ele>815</ele>
        <time>2000-01-01T06:49:25.000Z</time>
      </trkpt>
      <trkpt lat="48.29813" lon="7.30726">
        <ele>810</ele>
        <time>2000-01-01T06:49:35.000Z</time>
      </trkpt>
      <trkpt lat="48.29817" lon="7.30748">
        <ele>813.8</ele>
        <time>2000-01-01T06:49:45.000Z</time>
      </trkpt>
      <trkpt lat="48.29822" lon="7.30771">
        <ele>807</ele>
        <time>2000-01-01T06:49:55.000Z</time>
      </trkpt>
      <trkpt lat="48.29824" lon="7.30793">
        <ele>815.2</ele>
        <time>2000-01-01T06:50:05.000Z</time>
      </trkpt>
      <trkpt lat="48.2983" lon="7.30816">
        <ele>805</ele>
        <time>2000-01-01T06:50:15.000Z</time>
      </trkpt>
      <trkpt lat="48.29837" lon="7.30835">
        <ele>802.5</ele>
        <time>2000-01-01T06:50:25.000Z</time>
      </trkpt>
      <trkpt lat="48.29838" lon="7.30849">
        <ele>802</ele>
        <time>2000-01-01T06:50:35.000Z</time>
      </trkpt>
      <trkpt lat="48.29835" lon="7.30865">
        <ele>794.6</ele>
        <time>2000-01-01T06:50:45.000Z</time>
      </trkpt>
      <trkpt lat="48.29835" lon="7.30882">
        <ele>800</ele>
        <time>2000-01-01T06:50:55.000Z</time>
      </trkpt>
      <trkpt lat="48.29831" lon="7.30897">
        <ele>809</ele>
        <time>2000-01-01T06:51:05.000Z</time>
      </trkpt>
      <trkpt lat="48.29827" lon="7.30911">
        <ele>799</ele>
        <time>2000-01-01T06:51:15.000Z</time>
      </trkpt>
      <trkpt lat="48.29821" lon="7.30926">
        <ele>806.1</ele>
        <time>2000-01-01T06:51:25.000Z</time>
      </trkpt>
      <trkpt lat="48.29816" lon="7.30949">
        <ele>799</ele>
        <time>2000-01-01T06:51:35.000Z</time>
      </trkpt>
      <trkpt lat="48.29824" lon="7.30962">
        <ele>807.5</ele>
        <time>2000-01-01T06:51:45.000Z</time>
      </trkpt>
      <trkpt lat="48.29829" lon="7.30998">
        <ele>791</ele>
        <time>2000-01-01T06:51:55.000Z</time>
      </trkpt>
      <trkpt lat="48.29828" lon="7.31029">
        <ele>789</ele>
        <time>2000-01-01T06:52:05.000Z</time>
      </trkpt>
      <trkpt lat="48.29825" lon="7.31046">
        <ele>801.4</ele>
        <time>2000-01-01T06:52:15.000Z</time>
      </trkpt>
      <trkpt lat="48.29821" lon="7.31073">
        <ele>786</ele>
        <time>2000-01-01T06:52:25.000Z</time>
      </trkpt>
      <trkpt lat="48.2982" lon="7.31076">
        <ele>796.6</ele>
        <time>2000-01-01T06:52:35.000Z</time>
      </trkpt>
      <trkpt lat="48.29822" lon="7.31086">
        <ele>791</ele>
        <time>2000-01-01T06:52:45.000Z</time>
      </trkpt>
      <trkpt lat="48.29831" lon="7.31086">
        <ele>783</ele>
        <time>2000-01-01T06:52:55.000Z</time>
      </trkpt>
      <trkpt lat="48.29841" lon="7.31068">
        <ele>780.6</ele>
        <time>2000-01-01T06:53:05.000Z</time>
      </trkpt>
      <trkpt lat="48.29843" lon="7.31063">
        <ele>779</ele>
        <time>2000-01-01T06:53:15.000Z</time>
      </trkpt>
      <trkpt lat="48.29846" lon="7.31052">
        <ele>778.6</ele>
        <time>2000-01-01T06:53:25.000Z</time>
      </trkpt>
      <trkpt lat="48.29849" lon="7.31039">
        <ele>778.7</ele>
        <time>2000-01-01T06:53:35.000Z</time>
      </trkpt>
      <trkpt lat="48.29851" lon="7.31027">
        <ele>777</ele>
        <time>2000-01-01T06:53:45.000Z</time>
      </trkpt>
      <trkpt lat="48.29859" lon="7.31013">
        <ele>779.9</ele>
        <time>2000-01-01T06:53:55.000Z</time>
      </trkpt>
      <trkpt lat="48.29866" lon="7.31002">
        <ele>775</ele>
        <time>2000-01-01T06:54:05.000Z</time>
      </trkpt>
      <trkpt lat="48.29871" lon="7.30987">
        <ele>782.8</ele>
        <time>2000-01-01T06:54:15.000Z</time>
      </trkpt>
      <trkpt lat="48.29878" lon="7.30972">
        <ele>774</ele>
        <time>2000-01-01T06:54:25.000Z</time>
      </trkpt>
      <trkpt lat="48.29891" lon="7.30953">
        <ele>780.3</ele>
        <time>2000-01-01T06:54:35.000Z</time>
      </trkpt>
      <trkpt lat="48.299" lon="7.30941">
        <ele>771</ele>
        <time>2000-01-01T06:54:45.000Z</time>
      </trkpt>
      <trkpt lat="48.29902" lon="7.30937">
        <ele>778.2</ele>
        <time>2000-01-01T06:54:55.000Z</time>
      </trkpt>
      <trkpt lat="48.29907" lon="7.30926">
        <ele>775.9</ele>
        <time>2000-01-01T06:55:05.000Z</time>
      </trkpt>
      <trkpt lat="48.29915" lon="7.30918">
        <ele>769</ele>
        <time>2000-01-01T06:55:15.000Z</time>
      </trkpt>
      <trkpt lat="48.2993" lon="7.30902">
        <ele>764</ele>
        <time>2000-01-01T06:55:25.000Z</time>
      </trkpt>
      <trkpt lat="48.2994" lon="7.30892">
        <ele>768.8</ele>
        <time>2000-01-01T06:55:35.000Z</time>
      </trkpt>
      <trkpt lat="48.29946" lon="7.30887">
        <ele>763</ele>
        <time>2000-01-01T06:55:45.000Z</time>
      </trkpt>
      <trkpt lat="48.29963" lon="7.30884">
        <ele>767.3</ele>
        <time>2000-01-01T06:55:55.000Z</time>
      </trkpt>
      <trkpt lat="48.29972" lon="7.30884">
        <ele>761</ele>
        <time>2000-01-01T06:56:05.000Z</time>
      </trkpt>
      <trkpt lat="48.29978" lon="7.30882">
        <ele>766.2</ele>
        <time>2000-01-01T06:56:15.000Z</time>
      </trkpt>
      <trkpt lat="48.29985" lon="7.30872">
        <ele>766.2</ele>
        <time>2000-01-01T06:56:25.000Z</time>
      </trkpt>
      <trkpt lat="48.2999" lon="7.3085">
        <ele>759</ele>
        <time>2000-01-01T06:56:35.000Z</time>
      </trkpt>
      <trkpt lat="48.29991" lon="7.30838">
        <ele>765.4</ele>
        <time>2000-01-01T06:56:45.000Z</time>
      </trkpt>
      <trkpt lat="48.29982" lon="7.30814">
        <ele>759</ele>
        <time>2000-01-01T06:56:55.000Z</time>
      </trkpt>
      <trkpt lat="48.29978" lon="7.30793">
        <ele>770.4</ele>
        <time>2000-01-01T06:57:05.000Z</time>
      </trkpt>
      <trkpt lat="48.29976" lon="7.30767">
        <ele>761</ele>
        <time>2000-01-01T06:57:15.000Z</time>
      </trkpt>
      <trkpt lat="48.29974" lon="7.30753">
        <ele>770.4</ele>
        <time>2000-01-01T06:57:25.000Z</time>
      </trkpt>
      <trkpt lat="48.29978" lon="7.30721">
        <ele>761</ele>
        <time>2000-01-01T06:57:35.000Z</time>
      </trkpt>
      <trkpt lat="48.29981" lon="7.30696">
        <ele>771.4</ele>
        <time>2000-01-01T06:57:45.000Z</time>
      </trkpt>
      <trkpt lat="48.29983" lon="7.30681">
        <ele>759</ele>
        <time>2000-01-01T06:57:55.000Z</time>
      </trkpt>
      <trkpt lat="48.29984" lon="7.30677">
        <ele>770.1</ele>
        <time>2000-01-01T06:58:05.000Z</time>
      </trkpt>
      <trkpt lat="48.29984" lon="7.3066">
        <ele>771.3</ele>
        <time>2000-01-01T06:58:15.000Z</time>
      </trkpt>
      <trkpt lat="48.29988" lon="7.30644">
        <ele>759</ele>
        <time>2000-01-01T06:58:25.000Z</time>
      </trkpt>
      <trkpt lat="48.29992" lon="7.30634">
        <ele>773</ele>
        <time>2000-01-01T06:58:35.000Z</time>
      </trkpt>
      <trkpt lat="48.29998" lon="7.30619">
        <ele>756</ele>
        <time>2000-01-01T06:58:45.000Z</time>
      </trkpt>
      <trkpt lat="48.30003" lon="7.30592">
        <ele>756</ele>
        <time>2000-01-01T06:58:55.000Z</time>
      </trkpt>
      <trkpt lat="48.30005" lon="7.30573">
        <ele>766.4</ele>
        <time>2000-01-01T06:59:05.000Z</time>
      </trkpt>
      <trkpt lat="48.30007" lon="7.30557">
        <ele>756</ele>
        <time>2000-01-01T06:59:15.000Z</time>
      </trkpt>
      <trkpt lat="48.30013" lon="7.30539">
        <ele>766.3</ele>
        <time>2000-01-01T06:59:25.000Z</time>
      </trkpt>
      <trkpt lat="48.30027" lon="7.30518">
        <ele>753</ele>
        <time>2000-01-01T06:59:35.000Z</time>
      </trkpt>
      <trkpt lat="48.30034" lon="7.30499">
        <ele>773.5</ele>
        <time>2000-01-01T06:59:45.000Z</time>
      </trkpt>
      <trkpt lat="48.30035" lon="7.30496">
        <ele>773.5</ele>
        <time>2000-01-01T06:59:55.000Z</time>
      </trkpt>
      <trkpt lat="48.3004" lon="7.30487">
        <ele>753</ele>
        <time>2000-01-01T07:00:05.000Z</time>
      </trkpt>
      <trkpt lat="48.30058" lon="7.30468">
        <ele>753</ele>
        <time>2000-01-01T07:00:15.000Z</time>
      </trkpt>
      <trkpt lat="48.30062" lon="7.30461">
        <ele>772.7</ele>
        <time>2000-01-01T07:00:25.000Z</time>
      </trkpt>
      <trkpt lat="48.30062" lon="7.30458">
        <ele>773</ele>
        <time>2000-01-01T07:00:35.000Z</time>
      </trkpt>
      <trkpt lat="48.30068" lon="7.3045">
        <ele>773.3</ele>
        <time>2000-01-01T07:00:45.000Z</time>
      </trkpt>
      <trkpt lat="48.30086" lon="7.30424">
        <ele>755</ele>
        <time>2000-01-01T07:00:55.000Z</time>
      </trkpt>
      <trkpt lat="48.30095" lon="7.30408">
        <ele>768.2</ele>
        <time>2000-01-01T07:01:05.000Z</time>
      </trkpt>
      <trkpt lat="48.30105" lon="7.30389">
        <ele>756</ele>
        <time>2000-01-01T07:01:15.000Z</time>
      </trkpt>
      <trkpt lat="48.3012" lon="7.3037">
        <ele>755</ele>
        <time>2000-01-01T07:01:25.000Z</time>
      </trkpt>
      <trkpt lat="48.30128" lon="7.30351">
        <ele>763.1</ele>
        <time>2000-01-01T07:01:35.000Z</time>
      </trkpt>
      <trkpt lat="48.30131" lon="7.30337">
        <ele>755</ele>
        <time>2000-01-01T07:01:45.000Z</time>
      </trkpt>
      <trkpt lat="48.30133" lon="7.3032">
        <ele>768.9</ele>
        <time>2000-01-01T07:01:55.000Z</time>
      </trkpt>
      <trkpt lat="48.3013" lon="7.30309">
        <ele>753</ele>
        <time>2000-01-01T07:02:05.000Z</time>
      </trkpt>
      <trkpt lat="48.30144" lon="7.3028">
        <ele>753</ele>
        <time>2000-01-01T07:02:15.000Z</time>
      </trkpt>
      <trkpt lat="48.30145" lon="7.30276">
        <ele>768.6</ele>
        <time>2000-01-01T07:02:25.000Z</time>
      </trkpt>
      <trkpt lat="48.30144" lon="7.30269">
        <ele>768.5</ele>
        <time>2000-01-01T07:02:35.000Z</time>
      </trkpt>
      <trkpt lat="48.30145" lon="7.30255">
        <ele>767.5</ele>
        <time>2000-01-01T07:02:45.000Z</time>
      </trkpt>
      <trkpt lat="48.30143" lon="7.30243">
        <ele>754</ele>
        <time>2000-01-01T07:02:55.000Z</time>
      </trkpt>
      <trkpt lat="48.3014" lon="7.30232">
        <ele>772.7</ele>
        <time>2000-01-01T07:03:05.000Z</time>
      </trkpt>
      <trkpt lat="48.3014" lon="7.30218">
        <ele>773.6</ele>
        <time>2000-01-01T07:03:15.000Z</time>
      </trkpt>
      <trkpt lat="48.30141" lon="7.30207">
        <ele>755</ele>
        <time>2000-01-01T07:03:25.000Z</time>
      </trkpt>
      <trkpt lat="48.30139" lon="7.30196">
        <ele>773.8</ele>
        <time>2000-01-01T07:03:35.000Z</time>
      </trkpt>
      <trkpt lat="48.30142" lon="7.30181">
        <ele>755</ele>
        <time>2000-01-01T07:03:45.000Z</time>
      </trkpt>
      <trkpt lat="48.30146" lon="7.30172">
        <ele>769.4</ele>
        <time>2000-01-01T07:03:55.000Z</time>
      </trkpt>
      <trkpt lat="48.30147" lon="7.3017">
        <ele>768.9</ele>
        <time>2000-01-01T07:04:05.000Z</time>
      </trkpt>
      <trkpt lat="48.30146" lon="7.30153">
        <ele>755</ele>
        <time>2000-01-01T07:04:15.000Z</time>
      </trkpt>
      <trkpt lat="48.30146" lon="7.30139">
        <ele>772</ele>
        <time>2000-01-01T07:04:25.000Z</time>
      </trkpt>
      <trkpt lat="48.30137" lon="7.30115">
        <ele>761</ele>
        <time>2000-01-01T07:04:35.000Z</time>
      </trkpt>
      <trkpt lat="48.30128" lon="7.30091">
        <ele>760</ele>
        <time>2000-01-01T07:04:45.000Z</time>
      </trkpt>
      <trkpt lat="48.30133" lon="7.30063">
        <ele>759</ele>
        <time>2000-01-01T07:04:55.000Z</time>
      </trkpt>
      <trkpt lat="48.30129" lon="7.30052">
        <ele>776.1</ele>
        <time>2000-01-01T07:05:05.000Z</time>
      </trkpt>
      <trkpt lat="48.3013" lon="7.30041">
        <ele>775.9</ele>
        <time>2000-01-01T07:05:15.000Z</time>
      </trkpt>
      <trkpt lat="48.30132" lon="7.30021">
        <ele>759</ele>
        <time>2000-01-01T07:05:25.000Z</time>
      </trkpt>
      <trkpt lat="48.30136" lon="7.30003">
        <ele>772.5</ele>
        <time>2000-01-01T07:05:35.000Z</time>
      </trkpt>
      <trkpt lat="48.30136" lon="7.3">
        <ele>774.1</ele>
        <time>2000-01-01T07:05:45.000Z</time>
      </trkpt>
      <trkpt lat="48.30144" lon="7.29981">
        <ele>754</ele>
        <time>2000-01-01T07:05:55.000Z</time>
      </trkpt>
      <trkpt lat="48.30155" lon="7.29954">
        <ele>754</ele>
        <time>2000-01-01T07:06:05.000Z</time>
      </trkpt>
      <trkpt lat="48.30159" lon="7.29932">
        <ele>773.1</ele>
        <time>2000-01-01T07:06:15.000Z</time>
      </trkpt>
      <trkpt lat="48.3017" lon="7.29912">
        <ele>753</ele>
        <time>2000-01-01T07:06:25.000Z</time>
      </trkpt>
      <trkpt lat="48.30176" lon="7.29906">
        <ele>762</ele>
        <time>2000-01-01T07:06:35.000Z</time>
      </trkpt>
      <trkpt lat="48.30181" lon="7.29889">
        <ele>753</ele>
        <time>2000-01-01T07:06:45.000Z</time>
      </trkpt>
      <trkpt lat="48.30186" lon="7.29881">
        <ele>758.6</ele>
        <time>2000-01-01T07:06:55.000Z</time>
      </trkpt>
      <trkpt lat="48.30196" lon="7.29859">
        <ele>752</ele>
        <time>2000-01-01T07:07:05.000Z</time>
      </trkpt>
      <trkpt lat="48.30201" lon="7.29831">
        <ele>754</ele>
        <time>2000-01-01T07:07:15.000Z</time>
      </trkpt>
      <trkpt lat="48.30206" lon="7.29808">
        <ele>768.2</ele>
        <time>2000-01-01T07:07:25.000Z</time>
      </trkpt>
      <trkpt lat="48.30218" lon="7.29778">
        <ele>753</ele>
        <time>2000-01-01T07:07:35.000Z</time>
      </trkpt>
      <trkpt lat="48.30232" lon="7.29749">
        <ele>753</ele>
        <time>2000-01-01T07:07:45.000Z</time>
      </trkpt>
      <trkpt lat="48.30235" lon="7.2974">
        <ele>770.3</ele>
        <time>2000-01-01T07:07:55.000Z</time>
      </trkpt>
      <trkpt lat="48.30239" lon="7.29728">
        <ele>772.1</ele>
        <time>2000-01-01T07:08:05.000Z</time>
      </trkpt>
      <trkpt lat="48.3024" lon="7.29723">
        <ele>752</ele>
        <time>2000-01-01T07:08:15.000Z</time>
      </trkpt>
      <trkpt lat="48.30252" lon="7.297">
        <ele>751</ele>
        <time>2000-01-01T07:08:25.000Z</time>
      </trkpt>
      <trkpt lat="48.30256" lon="7.29687">
        <ele>757.5</ele>
        <time>2000-01-01T07:08:35.000Z</time>
      </trkpt>
      <trkpt lat="48.30263" lon="7.29669">
        <ele>751</ele>
        <time>2000-01-01T07:08:45.000Z</time>
      </trkpt>
      <trkpt lat="48.30266" lon="7.29637">
        <ele>752</ele>
        <time>2000-01-01T07:08:55.000Z</time>
      </trkpt>
      <trkpt lat="48.30266" lon="7.29629">
        <ele>759.9</ele>
        <time>2000-01-01T07:09:05.000Z</time>
      </trkpt>
      <trkpt lat="48.30267" lon="7.29621">
        <ele>760</ele>
        <time>2000-01-01T07:09:15.000Z</time>
      </trkpt>
      <trkpt lat="48.30268" lon="7.29602">
        <ele>754</ele>
        <time>2000-01-01T07:09:25.000Z</time>
      </trkpt>
      <trkpt lat="48.30267" lon="7.29593">
        <ele>763.9</ele>
        <time>2000-01-01T07:09:35.000Z</time>
      </trkpt>
      <trkpt lat="48.30275" lon="7.29567">
        <ele>753</ele>
        <time>2000-01-01T07:09:45.000Z</time>
      </trkpt>
      <trkpt lat="48.30285" lon="7.29542">
        <ele>752</ele>
        <time>2000-01-01T07:09:55.000Z</time>
      </trkpt>
      <trkpt lat="48.30287" lon="7.29534">
        <ele>757.4</ele>
        <time>2000-01-01T07:10:05.000Z</time>
      </trkpt>
      <trkpt lat="48.30292" lon="7.29509">
        <ele>753</ele>
        <time>2000-01-01T07:10:15.000Z</time>
      </trkpt>
      <trkpt lat="48.30299" lon="7.29485">
        <ele>753.2</ele>
        <time>2000-01-01T07:10:25.000Z</time>
      </trkpt>
      <trkpt lat="48.303" lon="7.29483">
        <ele>752</ele>
        <time>2000-01-01T07:10:35.000Z</time>
      </trkpt>
      <trkpt lat="48.30303" lon="7.29472">
        <ele>752.8</ele>
        <time>2000-01-01T07:10:45.000Z</time>
      </trkpt>
      <trkpt lat="48.3031" lon="7.29446">
        <ele>752</ele>
        <time>2000-01-01T07:10:55.000Z</time>
      </trkpt>
      <trkpt lat="48.30312" lon="7.29418">
        <ele>752</ele>
        <time>2000-01-01T07:11:05.000Z</time>
      </trkpt>
      <trkpt lat="48.30318" lon="7.29392">
        <ele>753</ele>
        <time>2000-01-01T07:11:15.000Z</time>
      </trkpt>
      <trkpt lat="48.30321" lon="7.29369">
        <ele>753.9</ele>
        <time>2000-01-01T07:11:25.000Z</time>
      </trkpt>
      <trkpt lat="48.30323" lon="7.29356">
        <ele>755</ele>
        <time>2000-01-01T07:11:35.000Z</time>
      </trkpt>
      <trkpt lat="48.30327" lon="7.29345">
        <ele>756.7</ele>
        <time>2000-01-01T07:11:45.000Z</time>
      </trkpt>
      <trkpt lat="48.30328" lon="7.29338">
        <ele>758</ele>
        <time>2000-01-01T07:11:55.000Z</time>
      </trkpt>
      <trkpt lat="48.30329" lon="7.29328">
        <ele>757</ele>
        <time>2000-01-01T07:12:05.000Z</time>
      </trkpt>
      <trkpt lat="48.30328" lon="7.29317">
        <ele>757.8</ele>
        <time>2000-01-01T07:12:15.000Z</time>
      </trkpt>
      <trkpt lat="48.30327" lon="7.2931">
        <ele>757.5</ele>
        <time>2000-01-01T07:12:25.000Z</time>
      </trkpt>
      <trkpt lat="48.30326" lon="7.29303">
        <ele>757.4</ele>
        <time>2000-01-01T07:12:35.000Z</time>
      </trkpt>
      <trkpt lat="48.30325" lon="7.293">
        <ele>758</ele>
        <time>2000-01-01T07:12:45.000Z</time>
      </trkpt>
      <trkpt lat="48.30325" lon="7.29298">
        <ele>757.4</ele>
        <time>2000-01-01T07:12:55.000Z</time>
      </trkpt>
      <trkpt lat="48.30325" lon="7.29298">
        <ele>757.4</ele>
        <time>2000-01-01T07:13:05.000Z</time>
      </trkpt>
      <trkpt lat="48.30327" lon="7.29299">
        <ele>757.5</ele>
        <time>2000-01-01T07:13:15.000Z</time>
      </trkpt>
      <trkpt lat="48.30331" lon="7.29298">
        <ele>757.7</ele>
        <time>2000-01-01T07:13:25.000Z</time>
      </trkpt>
      <trkpt lat="48.30332" lon="7.29298">
        <ele>757.8</ele>
        <time>2000-01-01T07:13:35.000Z</time>
      </trkpt>
      <trkpt lat="48.30335" lon="7.293">
        <ele>759.4</ele>
        <time>2000-01-01T07:13:45.000Z</time>
      </trkpt>
      <trkpt lat="48.30335" lon="7.29301">
        <ele>759.4</ele>
        <time>2000-01-01T07:13:55.000Z</time>
      </trkpt>
      <trkpt lat="48.30339" lon="7.29297">
        <ele>759.5</ele>
        <time>2000-01-01T07:14:05.000Z</time>
      </trkpt>
      <trkpt lat="48.30345" lon="7.29289">
        <ele>767</ele>
        <time>2000-01-01T07:14:15.000Z</time>
      </trkpt>
      <trkpt lat="48.3035" lon="7.2928">
        <ele>760.2</ele>
        <time>2000-01-01T07:14:25.000Z</time>
      </trkpt>
      <trkpt lat="48.30355" lon="7.29253">
        <ele>767</ele>
        <time>2000-01-01T07:14:35.000Z</time>
      </trkpt>
      <trkpt lat="48.30362" lon="7.29228">
        <ele>767</ele>
        <time>2000-01-01T07:14:45.000Z</time>
      </trkpt>
      <trkpt lat="48.30365" lon="7.29217">
        <ele>762.1</ele>
        <time>2000-01-01T07:14:55.000Z</time>
      </trkpt>
      <trkpt lat="48.30369" lon="7.29201">
        <ele>765</ele>
        <time>2000-01-01T07:15:05.000Z</time>
      </trkpt>
      <trkpt lat="48.30372" lon="7.29184">
        <ele>761.3</ele>
        <time>2000-01-01T07:15:15.000Z</time>
      </trkpt>
      <trkpt lat="48.30375" lon="7.29163">
        <ele>763</ele>
        <time>2000-01-01T07:15:25.000Z</time>
      </trkpt>
      <trkpt lat="48.30377" lon="7.29143">
        <ele>757.5</ele>
        <time>2000-01-01T07:15:35.000Z</time>
      </trkpt>
      <trkpt lat="48.30383" lon="7.29123">
        <ele>761</ele>
        <time>2000-01-01T07:15:45.000Z</time>
      </trkpt>
      <trkpt lat="48.30388" lon="7.29097">
        <ele>760</ele>
        <time>2000-01-01T07:15:55.000Z</time>
      </trkpt>
      <trkpt lat="48.30393" lon="7.29087">
        <ele>755.6</ele>
        <time>2000-01-01T07:16:05.000Z</time>
      </trkpt>
      <trkpt lat="48.304" lon="7.29075">
        <ele>757</ele>
        <time>2000-01-01T07:16:15.000Z</time>
      </trkpt>
      <trkpt lat="48.30403" lon="7.29067">
        <ele>749.9</ele>
        <time>2000-01-01T07:16:25.000Z</time>
      </trkpt>
      <trkpt lat="48.304" lon="7.2906">
        <ele>748.8</ele>
        <time>2000-01-01T07:16:35.000Z</time>
      </trkpt>
      <trkpt lat="48.30397" lon="7.29056">
        <ele>748.2</ele>
        <time>2000-01-01T07:16:45.000Z</time>
      </trkpt>
      <trkpt lat="48.30378" lon="7.29054">
        <ele>751</ele>
        <time>2000-01-01T07:16:55.000Z</time>
      </trkpt>
      <trkpt lat="48.30372" lon="7.29053">
        <ele>747.1</ele>
        <time>2000-01-01T07:17:05.000Z</time>
      </trkpt>
      <trkpt lat="48.30368" lon="7.29051">
        <ele>746.9</ele>
        <time>2000-01-01T07:17:15.000Z</time>
      </trkpt>
      <trkpt lat="48.30367" lon="7.2905">
        <ele>746.8</ele>
        <time>2000-01-01T07:17:25.000Z</time>
      </trkpt>
      <trkpt lat="48.30363" lon="7.2905">
        <ele>746.7</ele>
        <time>2000-01-01T07:17:35.000Z</time>
      </trkpt>
      <trkpt lat="48.30362" lon="7.29047">
        <ele>747</ele>
        <time>2000-01-01T07:17:45.000Z</time>
      </trkpt>
      <trkpt lat="48.30361" lon="7.29035">
        <ele>745.4</ele>
        <time>2000-01-01T07:17:55.000Z</time>
      </trkpt>
      <trkpt lat="48.30367" lon="7.29011">
        <ele>742</ele>
        <time>2000-01-01T07:18:05.000Z</time>
      </trkpt>
      <trkpt lat="48.30369" lon="7.29005">
        <ele>743.6</ele>
        <time>2000-01-01T07:18:15.000Z</time>
      </trkpt>
      <trkpt lat="48.30369" lon="7.29003">
        <ele>743.5</ele>
        <time>2000-01-01T07:18:25.000Z</time>
      </trkpt>
      <trkpt lat="48.3037" lon="7.29">
        <ele>739.3</ele>
        <time>2000-01-01T07:18:35.000Z</time>
      </trkpt>
      <trkpt lat="48.30374" lon="7.28997">
        <ele>734.4</ele>
        <time>2000-01-01T07:18:45.000Z</time>
      </trkpt>
      <trkpt lat="48.30376" lon="7.28995">
        <ele>734.4</ele>
        <time>2000-01-01T07:18:55.000Z</time>
      </trkpt>
      <trkpt lat="48.30378" lon="7.28991">
        <ele>734.3</ele>
        <time>2000-01-01T07:19:05.000Z</time>
      </trkpt>
      <trkpt lat="48.3038" lon="7.28988">
        <ele>735</ele>
        <time>2000-01-01T07:19:15.000Z</time>
      </trkpt>
      <trkpt lat="48.30387" lon="7.28981">
        <ele>734</ele>
        <time>2000-01-01T07:19:25.000Z</time>
      </trkpt>
      <trkpt lat="48.30391" lon="7.28978">
        <ele>733.9</ele>
        <time>2000-01-01T07:19:35.000Z</time>
      </trkpt>
      <trkpt lat="48.30397" lon="7.28978">
        <ele>731</ele>
        <time>2000-01-01T07:19:45.000Z</time>
      </trkpt>
      <trkpt lat="48.30398" lon="7.28979">
        <ele>734.5</ele>
        <time>2000-01-01T07:19:55.000Z</time>
      </trkpt>
      <trkpt lat="48.30404" lon="7.28985">
        <ele>735.8</ele>
        <time>2000-01-01T07:20:05.000Z</time>
      </trkpt>
      <trkpt lat="48.30413" lon="7.28988">
        <ele>737.2</ele>
        <time>2000-01-01T07:20:15.000Z</time>
      </trkpt>
      <trkpt lat="48.30421" lon="7.28988">
        <ele>729</ele>
        <time>2000-01-01T07:20:25.000Z</time>
      </trkpt>
      <trkpt lat="48.30431" lon="7.28983">
        <ele>732.2</ele>
        <time>2000-01-01T07:20:35.000Z</time>
      </trkpt>
      <trkpt lat="48.30439" lon="7.28978">
        <ele>727</ele>
        <time>2000-01-01T07:20:45.000Z</time>
      </trkpt>
      <trkpt lat="48.30451" lon="7.28969">
        <ele>727.9</ele>
        <time>2000-01-01T07:20:55.000Z</time>
      </trkpt>
      <trkpt lat="48.30458" lon="7.28967">
        <ele>724</ele>
        <time>2000-01-01T07:21:05.000Z</time>
      </trkpt>
      <trkpt lat="48.30466" lon="7.28962">
        <ele>726.1</ele>
        <time>2000-01-01T07:21:15.000Z</time>
      </trkpt>
      <trkpt lat="48.30469" lon="7.28954">
        <ele>725.4</ele>
        <time>2000-01-01T07:21:25.000Z</time>
      </trkpt>
      <trkpt lat="48.30468" lon="7.28941">
        <ele>719</ele>
        <time>2000-01-01T07:21:35.000Z</time>
      </trkpt>
      <trkpt lat="48.30464" lon="7.28926">
        <ele>724.2</ele>
        <time>2000-01-01T07:21:45.000Z</time>
      </trkpt>
      <trkpt lat="48.30466" lon="7.28922">
        <ele>723.8</ele>
        <time>2000-01-01T07:21:55.000Z</time>
      </trkpt>
      <trkpt lat="48.30466" lon="7.2892">
        <ele>723.8</ele>
        <time>2000-01-01T07:22:05.000Z</time>
      </trkpt>
      <trkpt lat="48.30472" lon="7.28906">
        <ele>712</ele>
        <time>2000-01-01T07:22:15.000Z</time>
      </trkpt>
      <trkpt lat="48.3047" lon="7.289">
        <ele>714.6</ele>
        <time>2000-01-01T07:22:25.000Z</time>
      </trkpt>
      <trkpt lat="48.30468" lon="7.28882">
        <ele>713.2</ele>
        <time>2000-01-01T07:22:35.000Z</time>
      </trkpt>
      <trkpt lat="48.30463" lon="7.28866">
        <ele>707</ele>
        <time>2000-01-01T07:22:45.000Z</time>
      </trkpt>
      <trkpt lat="48.30462" lon="7.28856">
        <ele>711</ele>
        <time>2000-01-01T07:22:55.000Z</time>
      </trkpt>
      <trkpt lat="48.30461" lon="7.28851">
        <ele>710.7</ele>
        <time>2000-01-01T07:23:05.000Z</time>
      </trkpt>
      <trkpt lat="48.30456" lon="7.28834">
        <ele>702</ele>
        <time>2000-01-01T07:23:15.000Z</time>
      </trkpt>
      <trkpt lat="48.30456" lon="7.28825">
        <ele>699.7</ele>
        <time>2000-01-01T07:23:25.000Z</time>
      </trkpt>
      <trkpt lat="48.30454" lon="7.28819">
        <ele>699.5</ele>
        <time>2000-01-01T07:23:35.000Z</time>
      </trkpt>
      <trkpt lat="48.30451" lon="7.28812">
        <ele>699.2</ele>
        <time>2000-01-01T07:23:45.000Z</time>
      </trkpt>
      <trkpt lat="48.30449" lon="7.28807">
        <ele>696</ele>
        <time>2000-01-01T07:23:55.000Z</time>
      </trkpt>
      <trkpt lat="48.30447" lon="7.28801">
        <ele>698.3</ele>
        <time>2000-01-01T07:24:05.000Z</time>
      </trkpt>
      <trkpt lat="48.30443" lon="7.28792">
        <ele>697.5</ele>
        <time>2000-01-01T07:24:15.000Z</time>
      </trkpt>
      <trkpt lat="48.3044" lon="7.28788">
        <ele>697.1</ele>
        <time>2000-01-01T07:24:25.000Z</time>
      </trkpt>
      <trkpt lat="48.30438" lon="7.28776">
        <ele>691</ele>
        <time>2000-01-01T07:24:35.000Z</time>
      </trkpt>
      <trkpt lat="48.30439" lon="7.28771">
        <ele>695.2</ele>
        <time>2000-01-01T07:24:45.000Z</time>
      </trkpt>
      <trkpt lat="48.3044" lon="7.28768">
        <ele>694.9</ele>
        <time>2000-01-01T07:24:55.000Z</time>
      </trkpt>
      <trkpt lat="48.30435" lon="7.28756">
        <ele>693.8</ele>
        <time>2000-01-01T07:25:05.000Z</time>
      </trkpt>
      <trkpt lat="48.30429" lon="7.28747">
        <ele>685</ele>
        <time>2000-01-01T07:25:15.000Z</time>
      </trkpt>
      <trkpt lat="48.30426" lon="7.28742">
        <ele>687.6</ele>
        <time>2000-01-01T07:25:25.000Z</time>
      </trkpt>
      <trkpt lat="48.30424" lon="7.28736">
        <ele>686.8</ele>
        <time>2000-01-01T07:25:35.000Z</time>
      </trkpt>
      <trkpt lat="48.30421" lon="7.28729">
        <ele>685.8</ele>
        <time>2000-01-01T07:25:45.000Z</time>
      </trkpt>
      <trkpt lat="48.30414" lon="7.28717">
        <ele>678</ele>
        <time>2000-01-01T07:25:55.000Z</time>
      </trkpt>
      <trkpt lat="48.30409" lon="7.28709">
        <ele>683.4</ele>
        <time>2000-01-01T07:26:05.000Z</time>
      </trkpt>
      <trkpt lat="48.30406" lon="7.28706">
        <ele>683.1</ele>
        <time>2000-01-01T07:26:15.000Z</time>
      </trkpt>
      <trkpt lat="48.30395" lon="7.28694">
        <ele>674</ele>
        <time>2000-01-01T07:26:25.000Z</time>
      </trkpt>
      <trkpt lat="48.30392" lon="7.28692">
        <ele>681.6</ele>
        <time>2000-01-01T07:26:35.000Z</time>
      </trkpt>
      <trkpt lat="48.30385" lon="7.28683">
        <ele>681</ele>
        <time>2000-01-01T07:26:45.000Z</time>
      </trkpt>
      <trkpt lat="48.30381" lon="7.28677">
        <ele>670</ele>
        <time>2000-01-01T07:26:55.000Z</time>
      </trkpt>
      <trkpt lat="48.30377" lon="7.28671">
        <ele>680.2</ele>
        <time>2000-01-01T07:27:05.000Z</time>
      </trkpt>
      <trkpt lat="48.30374" lon="7.28665">
        <ele>671.2</ele>
        <time>2000-01-01T07:27:15.000Z</time>
      </trkpt>
      <trkpt lat="48.30369" lon="7.28655">
        <ele>666</ele>
        <time>2000-01-01T07:27:25.000Z</time>
      </trkpt>
      <trkpt lat="48.30356" lon="7.28641">
        <ele>669.7</ele>
        <time>2000-01-01T07:27:35.000Z</time>
      </trkpt>
      <trkpt lat="48.30346" lon="7.28631">
        <ele>663</ele>
        <time>2000-01-01T07:27:45.000Z</time>
      </trkpt>
      <trkpt lat="48.3034" lon="7.28624">
        <ele>667.9</ele>
        <time>2000-01-01T07:27:55.000Z</time>
      </trkpt>
      <trkpt lat="48.30328" lon="7.28616">
        <ele>659</ele>
        <time>2000-01-01T07:28:05.000Z</time>
      </trkpt>
      <trkpt lat="48.30322" lon="7.28615">
        <ele>658</ele>
        <time>2000-01-01T07:28:15.000Z</time>
      </trkpt>
      <trkpt lat="48.30316" lon="7.28616">
        <ele>657.5</ele>
        <time>2000-01-01T07:28:25.000Z</time>
      </trkpt>
      <trkpt lat="48.30309" lon="7.2862">
        <ele>657</ele>
        <time>2000-01-01T07:28:35.000Z</time>
      </trkpt>
      <trkpt lat="48.30301" lon="7.28627">
        <ele>656.7</ele>
        <time>2000-01-01T07:28:45.000Z</time>
      </trkpt>
      <trkpt lat="48.30287" lon="7.28647">
        <ele>657</ele>
        <time>2000-01-01T07:28:55.000Z</time>
      </trkpt>
      <trkpt lat="48.30278" lon="7.28658">
        <ele>655.2</ele>
        <time>2000-01-01T07:29:05.000Z</time>
      </trkpt>
      <trkpt lat="48.30264" lon="7.2868">
        <ele>657</ele>
        <time>2000-01-01T07:29:15.000Z</time>
      </trkpt>
      <trkpt lat="48.30254" lon="7.28693">
        <ele>663.5</ele>
        <time>2000-01-01T07:29:25.000Z</time>
      </trkpt>
      <trkpt lat="48.30238" lon="7.28709">
        <ele>654</ele>
        <time>2000-01-01T07:29:35.000Z</time>
      </trkpt>
      <trkpt lat="48.30235" lon="7.28717">
        <ele>656.4</ele>
        <time>2000-01-01T07:29:45.000Z</time>
      </trkpt>
      <trkpt lat="48.30231" lon="7.28724">
        <ele>657.1</ele>
        <time>2000-01-01T07:29:55.000Z</time>
      </trkpt>
      <trkpt lat="48.30226" lon="7.28734">
        <ele>651</ele>
        <time>2000-01-01T07:30:05.000Z</time>
      </trkpt>
      <trkpt lat="48.30217" lon="7.28753">
        <ele>664.5</ele>
        <time>2000-01-01T07:30:15.000Z</time>
      </trkpt>
      <trkpt lat="48.30207" lon="7.28768">
        <ele>651</ele>
        <time>2000-01-01T07:30:25.000Z</time>
      </trkpt>
      <trkpt lat="48.30206" lon="7.28769">
        <ele>663.3</ele>
        <time>2000-01-01T07:30:35.000Z</time>
      </trkpt>
      <trkpt lat="48.30195" lon="7.28785">
        <ele>663.1</ele>
        <time>2000-01-01T07:30:45.000Z</time>
      </trkpt>
      <trkpt lat="48.30182" lon="7.28806">
        <ele>651</ele>
        <time>2000-01-01T07:30:55.000Z</time>
      </trkpt>
      <trkpt lat="48.30176" lon="7.2882">
        <ele>662.5</ele>
        <time>2000-01-01T07:31:05.000Z</time>
      </trkpt>
      <trkpt lat="48.3017" lon="7.28823">
        <ele>661.8</ele>
        <time>2000-01-01T07:31:15.000Z</time>
      </trkpt>
      <trkpt lat="48.3016" lon="7.28826">
        <ele>644</ele>
        <time>2000-01-01T07:31:25.000Z</time>
      </trkpt>
      <trkpt lat="48.30133" lon="7.28829">
        <ele>640</ele>
        <time>2000-01-01T07:31:35.000Z</time>
      </trkpt>
      <trkpt lat="48.30123" lon="7.28818">
        <ele>664.8</ele>
        <time>2000-01-01T07:31:45.000Z</time>
      </trkpt>
      <trkpt lat="48.30116" lon="7.28813">
        <ele>640</ele>
        <time>2000-01-01T07:31:55.000Z</time>
      </trkpt>
      <trkpt lat="48.30116" lon="7.28811">
        <ele>665.4</ele>
        <time>2000-01-01T07:32:05.000Z</time>
      </trkpt>
      <trkpt lat="48.30116" lon="7.28803">
        <ele>665.2</ele>
        <time>2000-01-01T07:32:15.000Z</time>
      </trkpt>
      <trkpt lat="48.30118" lon="7.28802">
        <ele>665</ele>
        <time>2000-01-01T07:32:25.000Z</time>
      </trkpt>
      <trkpt lat="48.30118" lon="7.28793">
        <ele>664.9</ele>
        <time>2000-01-01T07:32:35.000Z</time>
      </trkpt>
      <trkpt lat="48.30122" lon="7.28781">
        <ele>637</ele>
        <time>2000-01-01T07:32:45.000Z</time>
      </trkpt>
      <trkpt lat="48.3013" lon="7.28764">
        <ele>662.4</ele>
        <time>2000-01-01T07:32:55.000Z</time>
      </trkpt>
      <trkpt lat="48.30135" lon="7.28745">
        <ele>636</ele>
        <time>2000-01-01T07:33:05.000Z</time>
      </trkpt>
      <trkpt lat="48.3014" lon="7.28732">
        <ele>658.8</ele>
        <time>2000-01-01T07:33:15.000Z</time>
      </trkpt>
      <trkpt lat="48.30141" lon="7.28726">
        <ele>658.9</ele>
        <time>2000-01-01T07:33:25.000Z</time>
      </trkpt>
      <trkpt lat="48.30146" lon="7.28702">
        <ele>632</ele>
        <time>2000-01-01T07:33:35.000Z</time>
      </trkpt>
      <trkpt lat="48.3015" lon="7.28691">
        <ele>656.8</ele>
        <time>2000-01-01T07:33:45.000Z</time>
      </trkpt>
      <trkpt lat="48.30153" lon="7.2868">
        <ele>654.4</ele>
        <time>2000-01-01T07:33:55.000Z</time>
      </trkpt>
      <trkpt lat="48.30157" lon="7.28667">
        <ele>629</ele>
        <time>2000-01-01T07:34:05.000Z</time>
      </trkpt>
      <trkpt lat="48.30158" lon="7.2866">
        <ele>650.9</ele>
        <time>2000-01-01T07:34:15.000Z</time>
      </trkpt>
      <trkpt lat="48.30162" lon="7.28651">
        <ele>652.4</ele>
        <time>2000-01-01T07:34:25.000Z</time>
      </trkpt>
      <trkpt lat="48.30172" lon="7.28631">
        <ele>623</ele>
        <time>2000-01-01T07:34:35.000Z</time>
      </trkpt>
      <trkpt lat="48.30174" lon="7.28624">
        <ele>644</ele>
        <time>2000-01-01T07:34:45.000Z</time>
      </trkpt>
      <trkpt lat="48.30177" lon="7.28613">
        <ele>643.7</ele>
        <time>2000-01-01T07:34:55.000Z</time>
      </trkpt>
      <trkpt lat="48.30184" lon="7.28597">
        <ele>618</ele>
        <time>2000-01-01T07:35:05.000Z</time>
      </trkpt>
      <trkpt lat="48.30188" lon="7.28592">
        <ele>643.1</ele>
        <time>2000-01-01T07:35:15.000Z</time>
      </trkpt>
      <trkpt lat="48.30197" lon="7.28574">
        <ele>614</ele>
        <time>2000-01-01T07:35:25.000Z</time>
      </trkpt>
      <trkpt lat="48.30197" lon="7.28567">
        <ele>638.6</ele>
        <time>2000-01-01T07:35:35.000Z</time>
      </trkpt>
      <trkpt lat="48.30201" lon="7.28555">
        <ele>637.9</ele>
        <time>2000-01-01T07:35:45.000Z</time>
      </trkpt>
      <trkpt lat="48.30203" lon="7.28545">
        <ele>609</ele>
        <time>2000-01-01T07:35:55.000Z</time>
      </trkpt>
      <trkpt lat="48.30208" lon="7.28536">
        <ele>636.8</ele>
        <time>2000-01-01T07:36:05.000Z</time>
      </trkpt>
      <trkpt lat="48.30216" lon="7.28523">
        <ele>605</ele>
        <time>2000-01-01T07:36:15.000Z</time>
      </trkpt>
      <trkpt lat="48.30226" lon="7.28507">
        <ele>633.3</ele>
        <time>2000-01-01T07:36:25.000Z</time>
      </trkpt>
      <trkpt lat="48.30226" lon="7.28498">
        <ele>601</ele>
        <time>2000-01-01T07:36:35.000Z</time>
      </trkpt>
      <trkpt lat="48.30225" lon="7.28493">
        <ele>628.6</ele>
        <time>2000-01-01T07:36:45.000Z</time>
      </trkpt>
      <trkpt lat="48.30222" lon="7.28481">
        <ele>628.6</ele>
        <time>2000-01-01T07:36:55.000Z</time>
      </trkpt>
      <trkpt lat="48.30216" lon="7.28462">
        <ele>597</ele>
        <time>2000-01-01T07:37:05.000Z</time>
      </trkpt>
      <trkpt lat="48.30207" lon="7.28438">
        <ele>628.1</ele>
        <time>2000-01-01T07:37:15.000Z</time>
      </trkpt>
      <trkpt lat="48.30204" lon="7.28423">
        <ele>593</ele>
        <time>2000-01-01T07:37:25.000Z</time>
      </trkpt>
      <trkpt lat="48.30204" lon="7.28411">
        <ele>624.7</ele>
        <time>2000-01-01T07:37:35.000Z</time>
      </trkpt>
      <trkpt lat="48.30208" lon="7.284">
        <ele>623.7</ele>
        <time>2000-01-01T07:37:45.000Z</time>
      </trkpt>
      <trkpt lat="48.3021" lon="7.28389">
        <ele>591</ele>
        <time>2000-01-01T07:37:55.000Z</time>
      </trkpt>
      <trkpt lat="48.30213" lon="7.28385">
        <ele>622.8</ele>
        <time>2000-01-01T07:38:05.000Z</time>
      </trkpt>
      <trkpt lat="48.30222" lon="7.2838">
        <ele>621.4</ele>
        <time>2000-01-01T07:38:15.000Z</time>
      </trkpt>
      <trkpt lat="48.3023" lon="7.2837">
        <ele>586</ele>
        <time>2000-01-01T07:38:25.000Z</time>
      </trkpt>
      <trkpt lat="48.30237" lon="7.28358">
        <ele>618.3</ele>
        <time>2000-01-01T07:38:35.000Z</time>
      </trkpt>
      <trkpt lat="48.30244" lon="7.28341">
        <ele>584</ele>
        <time>2000-01-01T07:38:45.000Z</time>
      </trkpt>
      <trkpt lat="48.30248" lon="7.28335">
        <ele>610.5</ele>
        <time>2000-01-01T07:38:55.000Z</time>
      </trkpt>
      <trkpt lat="48.30263" lon="7.2833">
        <ele>580</ele>
        <time>2000-01-01T07:39:05.000Z</time>
      </trkpt>
      <trkpt lat="48.30268" lon="7.28333">
        <ele>609.2</ele>
        <time>2000-01-01T07:39:15.000Z</time>
      </trkpt>
      <trkpt lat="48.30275" lon="7.28328">
        <ele>609.1</ele>
        <time>2000-01-01T07:39:25.000Z</time>
      </trkpt>
      <trkpt lat="48.30277" lon="7.28325">
        <ele>609.1</ele>
        <time>2000-01-01T07:39:35.000Z</time>
      </trkpt>
      <trkpt lat="48.30281" lon="7.2832">
        <ele>579</ele>
        <time>2000-01-01T07:39:45.000Z</time>
      </trkpt>
      <trkpt lat="48.30284" lon="7.28307">
        <ele>609.7</ele>
        <time>2000-01-01T07:39:55.000Z</time>
      </trkpt>
      <trkpt lat="48.30288" lon="7.28298">
        <ele>610.2</ele>
        <time>2000-01-01T07:40:05.000Z</time>
      </trkpt>
      <trkpt lat="48.30298" lon="7.28297">
        <ele>579</ele>
        <time>2000-01-01T07:40:15.000Z</time>
      </trkpt>
      <trkpt lat="48.30304" lon="7.28288">
        <ele>609.4</ele>
        <time>2000-01-01T07:40:25.000Z</time>
      </trkpt>
      <trkpt lat="48.30312" lon="7.2828">
        <ele>609.3</ele>
        <time>2000-01-01T07:40:35.000Z</time>
      </trkpt>
      <trkpt lat="48.30314" lon="7.28279">
        <ele>578</ele>
        <time>2000-01-01T07:40:45.000Z</time>
      </trkpt>
      <trkpt lat="48.3032" lon="7.28276">
        <ele>608.8</ele>
        <time>2000-01-01T07:40:55.000Z</time>
      </trkpt>
      <trkpt lat="48.30327" lon="7.28272">
        <ele>608.5</ele>
        <time>2000-01-01T07:41:05.000Z</time>
      </trkpt>
      <trkpt lat="48.30337" lon="7.2827">
        <ele>571</ele>
        <time>2000-01-01T07:41:15.000Z</time>
      </trkpt>
      <trkpt lat="48.30343" lon="7.28269">
        <ele>596.9</ele>
        <time>2000-01-01T07:41:25.000Z</time>
      </trkpt>
      <trkpt lat="48.30352" lon="7.28261">
        <ele>596.5</ele>
        <time>2000-01-01T07:41:35.000Z</time>
      </trkpt>
      <trkpt lat="48.30355" lon="7.28259">
        <ele>569</ele>
        <time>2000-01-01T07:41:45.000Z</time>
      </trkpt>
      <trkpt lat="48.30357" lon="7.28257">
        <ele>595.5</ele>
        <time>2000-01-01T07:41:55.000Z</time>
      </trkpt>
      <trkpt lat="48.30359" lon="7.28258">
        <ele>594.8</ele>
        <time>2000-01-01T07:42:05.000Z</time>
      </trkpt>
      <trkpt lat="48.30369" lon="7.28255">
        <ele>592.4</ele>
        <time>2000-01-01T07:42:15.000Z</time>
      </trkpt>
      <trkpt lat="48.30377" lon="7.28253">
        <ele>564</ele>
        <time>2000-01-01T07:42:25.000Z</time>
      </trkpt>
      <trkpt lat="48.30378" lon="7.28252">
        <ele>590.3</ele>
        <time>2000-01-01T07:42:35.000Z</time>
      </trkpt>
      <trkpt lat="48.3038" lon="7.28252">
        <ele>589.8</ele>
        <time>2000-01-01T07:42:45.000Z</time>
      </trkpt>
      <trkpt lat="48.30382" lon="7.28253">
        <ele>589.4</ele>
        <time>2000-01-01T07:42:55.000Z</time>
      </trkpt>
      <trkpt lat="48.30396" lon="7.28248">
        <ele>560</ele>
        <time>2000-01-01T07:43:05.000Z</time>
      </trkpt>
      <trkpt lat="48.30403" lon="7.28247">
        <ele>591.4</ele>
        <time>2000-01-01T07:43:15.000Z</time>
      </trkpt>
      <trkpt lat="48.30414" lon="7.28245">
        <ele>554</ele>
        <time>2000-01-01T07:43:25.000Z</time>
      </trkpt>
      <trkpt lat="48.30427" lon="7.28249">
        <ele>579.7</ele>
        <time>2000-01-01T07:43:35.000Z</time>
      </trkpt>
      <trkpt lat="48.3044" lon="7.28248">
        <ele>544</ele>
        <time>2000-01-01T07:43:45.000Z</time>
      </trkpt>
      <trkpt lat="48.30452" lon="7.28245">
        <ele>577</ele>
        <time>2000-01-01T07:43:55.000Z</time>
      </trkpt>
      <trkpt lat="48.30463" lon="7.28244">
        <ele>542</ele>
        <time>2000-01-01T07:44:05.000Z</time>
      </trkpt>
      <trkpt lat="48.30472" lon="7.28242">
        <ele>572.5</ele>
        <time>2000-01-01T07:44:15.000Z</time>
      </trkpt>
      <trkpt lat="48.30482" lon="7.28241">
        <ele>538</ele>
        <time>2000-01-01T07:44:25.000Z</time>
      </trkpt>
      <trkpt lat="48.30491" lon="7.28242">
        <ele>565.5</ele>
        <time>2000-01-01T07:44:35.000Z</time>
      </trkpt>
      <trkpt lat="48.305" lon="7.28241">
        <ele>563.6</ele>
        <time>2000-01-01T07:44:45.000Z</time>
      </trkpt>
      <trkpt lat="48.30508" lon="7.2824">
        <ele>535</ele>
        <time>2000-01-01T07:44:55.000Z</time>
      </trkpt>
      <trkpt lat="48.30514" lon="7.28244">
        <ele>558.1</ele>
        <time>2000-01-01T07:45:05.000Z</time>
      </trkpt>
      <trkpt lat="48.30518" lon="7.28246">
        <ele>558.1</ele>
        <time>2000-01-01T07:45:15.000Z</time>
      </trkpt>
      <trkpt lat="48.30526" lon="7.28247">
        <ele>532</ele>
        <time>2000-01-01T07:45:25.000Z</time>
      </trkpt>
      <trkpt lat="48.30533" lon="7.28247">
        <ele>557.5</ele>
        <time>2000-01-01T07:45:35.000Z</time>
      </trkpt>
      <trkpt lat="48.3054" lon="7.28249">
        <ele>556.8</ele>
        <time>2000-01-01T07:45:45.000Z</time>
      </trkpt>
      <trkpt lat="48.30545" lon="7.28249">
        <ele>556.2</ele>
        <time>2000-01-01T07:45:55.000Z</time>
      </trkpt>
      <trkpt lat="48.30545" lon="7.28249">
        <ele>556</ele>
        <time>2000-01-01T07:46:05.000Z</time>
      </trkpt>
      <trkpt lat="48.30551" lon="7.2825">
        <ele>555.3</ele>
        <time>2000-01-01T07:46:15.000Z</time>
      </trkpt>
      <trkpt lat="48.30552" lon="7.2825">
        <ele>555.2</ele>
        <time>2000-01-01T07:46:25.000Z</time>
      </trkpt>
      <trkpt lat="48.30565" lon="7.28255">
        <ele>525</ele>
        <time>2000-01-01T07:46:35.000Z</time>
      </trkpt>
      <trkpt lat="48.30572" lon="7.28255">
        <ele>549.3</ele>
        <time>2000-01-01T07:46:45.000Z</time>
      </trkpt>
      <trkpt lat="48.30586" lon="7.28252">
        <ele>522</ele>
        <time>2000-01-01T07:46:55.000Z</time>
      </trkpt>
      <trkpt lat="48.30594" lon="7.28254">
        <ele>543.1</ele>
        <time>2000-01-01T07:47:05.000Z</time>
      </trkpt>
      <trkpt lat="48.30604" lon="7.28255">
        <ele>517</ele>
        <time>2000-01-01T07:47:15.000Z</time>
      </trkpt>
      <trkpt lat="48.30609" lon="7.28255">
        <ele>541</ele>
        <time>2000-01-01T07:47:25.000Z</time>
      </trkpt>
      <trkpt lat="48.30621" lon="7.28252">
        <ele>539.3</ele>
        <time>2000-01-01T07:47:35.000Z</time>
      </trkpt>
      <trkpt lat="48.30629" lon="7.2825">
        <ele>510</ele>
        <time>2000-01-01T07:47:45.000Z</time>
      </trkpt>
      <trkpt lat="48.30641" lon="7.28252">
        <ele>536.1</ele>
        <time>2000-01-01T07:47:55.000Z</time>
      </trkpt>
      <trkpt lat="48.30647" lon="7.28254">
        <ele>509</ele>
        <time>2000-01-01T07:48:05.000Z</time>
      </trkpt>
      <trkpt lat="48.30659" lon="7.28257">
        <ele>532.5</ele>
        <time>2000-01-01T07:48:15.000Z</time>
      </trkpt>
      <trkpt lat="48.30667" lon="7.28257">
        <ele>505</ele>
        <time>2000-01-01T07:48:25.000Z</time>
      </trkpt>
      <trkpt lat="48.30678" lon="7.2826">
        <ele>526.8</ele>
        <time>2000-01-01T07:48:35.000Z</time>
      </trkpt>
      <trkpt lat="48.30688" lon="7.28263">
        <ele>503</ele>
        <time>2000-01-01T07:48:45.000Z</time>
      </trkpt>
      <trkpt lat="48.30696" lon="7.28268">
        <ele>525.1</ele>
        <time>2000-01-01T07:48:55.000Z</time>
      </trkpt>
      <trkpt lat="48.30705" lon="7.28271">
        <ele>502</ele>
        <time>2000-01-01T07:49:05.000Z</time>
      </trkpt>
      <trkpt lat="48.30714" lon="7.28277">
        <ele>523.8</ele>
        <time>2000-01-01T07:49:15.000Z</time>
      </trkpt>
      <trkpt lat="48.30725" lon="7.28277">
        <ele>499</ele>
        <time>2000-01-01T07:49:25.000Z</time>
      </trkpt>
      <trkpt lat="48.30735" lon="7.28281">
        <ele>522.7</ele>
        <time>2000-01-01T07:49:35.000Z</time>
      </trkpt>
      <trkpt lat="48.30744" lon="7.28284">
        <ele>494</ele>
        <time>2000-01-01T07:49:45.000Z</time>
      </trkpt>
      <trkpt lat="48.30748" lon="7.28287">
        <ele>521.8</ele>
        <time>2000-01-01T07:49:55.000Z</time>
      </trkpt>
      <trkpt lat="48.30754" lon="7.28293">
        <ele>517.1</ele>
        <time>2000-01-01T07:50:05.000Z</time>
      </trkpt>
      <trkpt lat="48.30761" lon="7.28302">
        <ele>492</ele>
        <time>2000-01-01T07:50:15.000Z</time>
      </trkpt>
      <trkpt lat="48.30773" lon="7.28316">
        <ele>514.4</ele>
        <time>2000-01-01T07:50:25.000Z</time>
      </trkpt>
      <trkpt lat="48.30782" lon="7.28322">
        <ele>489</ele>
        <time>2000-01-01T07:50:35.000Z</time>
      </trkpt>
      <trkpt lat="48.30789" lon="7.28325">
        <ele>513.6</ele>
        <time>2000-01-01T07:50:45.000Z</time>
      </trkpt>
      <trkpt lat="48.30796" lon="7.28328">
        <ele>512.9</ele>
        <time>2000-01-01T07:50:55.000Z</time>
      </trkpt>
      <trkpt lat="48.30804" lon="7.28326">
        <ele>486</ele>
        <time>2000-01-01T07:51:05.000Z</time>
      </trkpt>
      <trkpt lat="48.30813" lon="7.28322">
        <ele>511.3</ele>
        <time>2000-01-01T07:51:15.000Z</time>
      </trkpt>
      <trkpt lat="48.30829" lon="7.28319">
        <ele>483</ele>
        <time>2000-01-01T07:51:25.000Z</time>
      </trkpt>
      <trkpt lat="48.30834" lon="7.28323">
        <ele>509.8</ele>
        <time>2000-01-01T07:51:35.000Z</time>
      </trkpt>
      <trkpt lat="48.30839" lon="7.2833">
        <ele>507.3</ele>
        <time>2000-01-01T07:51:45.000Z</time>
      </trkpt>
      <trkpt lat="48.30841" lon="7.28335">
        <ele>501.7</ele>
        <time>2000-01-01T07:51:55.000Z</time>
      </trkpt>
      <trkpt lat="48.30845" lon="7.28337">
        <ele>480</ele>
        <time>2000-01-01T07:52:05.000Z</time>
      </trkpt>
      <trkpt lat="48.30849" lon="7.28346">
        <ele>501.2</ele>
        <time>2000-01-01T07:52:15.000Z</time>
      </trkpt>
      <trkpt lat="48.30857" lon="7.28354">
        <ele>500.9</ele>
        <time>2000-01-01T07:52:25.000Z</time>
      </trkpt>
      <trkpt lat="48.30866" lon="7.28365">
        <ele>474</ele>
        <time>2000-01-01T07:52:35.000Z</time>
      </trkpt>
      <trkpt lat="48.30878" lon="7.28373">
        <ele>499.8</ele>
        <time>2000-01-01T07:52:45.000Z</time>
      </trkpt>
      <trkpt lat="48.30881" lon="7.28377">
        <ele>499.3</ele>
        <time>2000-01-01T07:52:55.000Z</time>
      </trkpt>
      <trkpt lat="48.30885" lon="7.28386">
        <ele>473</ele>
        <time>2000-01-01T07:53:05.000Z</time>
      </trkpt>
      <trkpt lat="48.30888" lon="7.28387">
        <ele>497.8</ele>
        <time>2000-01-01T07:53:15.000Z</time>
      </trkpt>
      <trkpt lat="48.30885" lon="7.2841">
        <ele>472</ele>
        <time>2000-01-01T07:53:25.000Z</time>
      </trkpt>
      <trkpt lat="48.30895" lon="7.28432">
        <ele>487.9</ele>
        <time>2000-01-01T07:53:35.000Z</time>
      </trkpt>
      <trkpt lat="48.30892" lon="7.28439">
        <ele>471</ele>
        <time>2000-01-01T07:53:45.000Z</time>
      </trkpt>
      <trkpt lat="48.30892" lon="7.2844">
        <ele>488.2</ele>
        <time>2000-01-01T07:53:55.000Z</time>
      </trkpt>
      <trkpt lat="48.30896" lon="7.28437">
        <ele>487.9</ele>
        <time>2000-01-01T07:54:05.000Z</time>
      </trkpt>
      <trkpt lat="48.30904" lon="7.28435">
        <ele>487.2</ele>
        <time>2000-01-01T07:54:15.000Z</time>
      </trkpt>
      <trkpt lat="48.30917" lon="7.28439">
        <ele>465</ele>
        <time>2000-01-01T07:54:25.000Z</time>
      </trkpt>
      <trkpt lat="48.30925" lon="7.28446">
        <ele>484.2</ele>
        <time>2000-01-01T07:54:35.000Z</time>
      </trkpt>
      <trkpt lat="48.30927" lon="7.28448">
        <ele>484.1</ele>
        <time>2000-01-01T07:54:45.000Z</time>
      </trkpt>
      <trkpt lat="48.30935" lon="7.28453">
        <ele>460</ele>
        <time>2000-01-01T07:54:55.000Z</time>
      </trkpt>
      <trkpt lat="48.3095" lon="7.28461">
        <ele>483.8</ele>
        <time>2000-01-01T07:55:05.000Z</time>
      </trkpt>
      <trkpt lat="48.30954" lon="7.28465">
        <ele>458</ele>
        <time>2000-01-01T07:55:15.000Z</time>
      </trkpt>
      <trkpt lat="48.30958" lon="7.28467">
        <ele>483.4</ele>
        <time>2000-01-01T07:55:25.000Z</time>
      </trkpt>
      <trkpt lat="48.30968" lon="7.28477">
        <ele>482.2</ele>
        <time>2000-01-01T07:55:35.000Z</time>
      </trkpt>
      <trkpt lat="48.30973" lon="7.2848">
        <ele>457</ele>
        <time>2000-01-01T07:55:45.000Z</time>
      </trkpt>
      <trkpt lat="48.30977" lon="7.28485">
        <ele>480.6</ele>
        <time>2000-01-01T07:55:55.000Z</time>
      </trkpt>
      <trkpt lat="48.30982" lon="7.28488">
        <ele>479.5</ele>
        <time>2000-01-01T07:56:05.000Z</time>
      </trkpt>
      <trkpt lat="48.30984" lon="7.28486">
        <ele>479.6</ele>
        <time>2000-01-01T07:56:15.000Z</time>
      </trkpt>
      <trkpt lat="48.30983" lon="7.28477">
        <ele>457</ele>
        <time>2000-01-01T07:56:25.000Z</time>
      </trkpt>
      <trkpt lat="48.30982" lon="7.28476">
        <ele>481.8</ele>
        <time>2000-01-01T07:56:35.000Z</time>
      </trkpt>
      <trkpt lat="48.30979" lon="7.28474">
        <ele>482.3</ele>
        <time>2000-01-01T07:56:45.000Z</time>
      </trkpt>
      <trkpt lat="48.30976" lon="7.28468">
        <ele>483.5</ele>
        <time>2000-01-01T07:56:55.000Z</time>
      </trkpt>
      <trkpt lat="48.30972" lon="7.28465">
        <ele>484</ele>
        <time>2000-01-01T07:57:05.000Z</time>
      </trkpt>
      <trkpt lat="48.30967" lon="7.28465">
        <ele>457</ele>
        <time>2000-01-01T07:57:15.000Z</time>
      </trkpt>
      <trkpt lat="48.30965" lon="7.28465">
        <ele>483.9</ele>
        <time>2000-01-01T07:57:25.000Z</time>
      </trkpt>
      <trkpt lat="48.30961" lon="7.28461">
        <ele>484.3</ele>
        <time>2000-01-01T07:57:35.000Z</time>
      </trkpt>
      <trkpt lat="48.30958" lon="7.28456">
        <ele>484.8</ele>
        <time>2000-01-01T07:57:45.000Z</time>
      </trkpt>
      <trkpt lat="48.30952" lon="7.28456">
        <ele>484.5</ele>
        <time>2000-01-01T07:57:55.000Z</time>
      </trkpt>
      <trkpt lat="48.30947" lon="7.28455">
        <ele>460</ele>
        <time>2000-01-01T07:58:05.000Z</time>
      </trkpt>
      <trkpt lat="48.30943" lon="7.28446">
        <ele>485</ele>
        <time>2000-01-01T07:58:15.000Z</time>
      </trkpt>
      <trkpt lat="48.30942" lon="7.28441">
        <ele>485.3</ele>
        <time>2000-01-01T07:58:25.000Z</time>
      </trkpt>
      <trkpt lat="48.30941" lon="7.28439">
        <ele>485.4</ele>
        <time>2000-01-01T07:58:35.000Z</time>
      </trkpt>
      <trkpt lat="48.30939" lon="7.28436">
        <ele>485.4</ele>
        <time>2000-01-01T07:58:45.000Z</time>
      </trkpt>
      <trkpt lat="48.30937" lon="7.28433">
        <ele>463</ele>
        <time>2000-01-01T07:58:55.000Z</time>
      </trkpt>
      <trkpt lat="48.30936" lon="7.28431">
        <ele>485.5</ele>
        <time>2000-01-01T07:59:05.000Z</time>
      </trkpt>
      <trkpt lat="48.30935" lon="7.28429">
        <ele>485.5</ele>
        <time>2000-01-01T07:59:15.000Z</time>
      </trkpt>
      <trkpt lat="48.3093" lon="7.28427">
        <ele>485.3</ele>
        <time>2000-01-01T07:59:25.000Z</time>
      </trkpt>
      <trkpt lat="48.30927" lon="7.28421">
        <ele>485.3</ele>
        <time>2000-01-01T07:59:35.000Z</time>
      </trkpt>
      <trkpt lat="48.30925" lon="7.2842">
        <ele>485.2</ele>
        <time>2000-01-01T07:59:45.000Z</time>
      </trkpt>
      <trkpt lat="48.30923" lon="7.28418">
        <ele>468</ele>
        <time>2000-01-01T07:59:55.000Z</time>
      </trkpt>
      <trkpt lat="48.3092" lon="7.28416">
        <ele>488.4</ele>
        <time>2000-01-01T08:00:05.000Z</time>
      </trkpt>
      <trkpt lat="48.30918" lon="7.28408">
        <ele>492.8</ele>
        <time>2000-01-01T08:00:15.000Z</time>
      </trkpt>
      <trkpt lat="48.30926" lon="7.28394">
        <ele>474</ele>
        <time>2000-01-01T08:00:25.000Z</time>
      </trkpt>
      <trkpt lat="48.3093" lon="7.28395">
        <ele>502</ele>
        <time>2000-01-01T08:00:35.000Z</time>
      </trkpt>
      <trkpt lat="48.30936" lon="7.28395">
        <ele>503.4</ele>
        <time>2000-01-01T08:00:45.000Z</time>
      </trkpt>
      <trkpt lat="48.30937" lon="7.28395">
        <ele>503.6</ele>
        <time>2000-01-01T08:00:55.000Z</time>
      </trkpt>
      <trkpt lat="48.30939" lon="7.28395">
        <ele>504</ele>
        <time>2000-01-01T08:01:05.000Z</time>
      </trkpt>
      <trkpt lat="48.30941" lon="7.28394">
        <ele>504.7</ele>
        <time>2000-01-01T08:01:15.000Z</time>
      </trkpt>
      <trkpt lat="48.30944" lon="7.28393">
        <ele>479</ele>
        <time>2000-01-01T08:01:25.000Z</time>
      </trkpt>
      <trkpt lat="48.30947" lon="7.28393">
        <ele>506.2</ele>
        <time>2000-01-01T08:01:35.000Z</time>
      </trkpt>
      <trkpt lat="48.30948" lon="7.28393">
        <ele>506.4</ele>
        <time>2000-01-01T08:01:45.000Z</time>
      </trkpt>
      <trkpt lat="48.30954" lon="7.28394">
        <ele>507.2</ele>
        <time>2000-01-01T08:01:55.000Z</time>
      </trkpt>
      <trkpt lat="48.3096" lon="7.28394">
        <ele>508.2</ele>
        <time>2000-01-01T08:02:05.000Z</time>
      </trkpt>
      <trkpt lat="48.30964" lon="7.28395">
        <ele>483</ele>
        <time>2000-01-01T08:02:15.000Z</time>
      </trkpt>
      <trkpt lat="48.30966" lon="7.28395">
        <ele>508.8</ele>
        <time>2000-01-01T08:02:25.000Z</time>
      </trkpt>
      <trkpt lat="48.30967" lon="7.28396">
        <ele>508.7</ele>
        <time>2000-01-01T08:02:35.000Z</time>
      </trkpt>
      <trkpt lat="48.30969" lon="7.28395">
        <ele>509.1</ele>
        <time>2000-01-01T08:02:45.000Z</time>
      </trkpt>
      <trkpt lat="48.30977" lon="7.28392">
        <ele>510.2</ele>
        <time>2000-01-01T08:02:55.000Z</time>
      </trkpt>
      <trkpt lat="48.30982" lon="7.28388">
        <ele>492</ele>
        <time>2000-01-01T08:03:05.000Z</time>
      </trkpt>
      <trkpt lat="48.30985" lon="7.28382">
        <ele>512.8</ele>
        <time>2000-01-01T08:03:15.000Z</time>
      </trkpt>
      <trkpt lat="48.30985" lon="7.28378">
        <ele>513.9</ele>
        <time>2000-01-01T08:03:25.000Z</time>
      </trkpt>
      <trkpt lat="48.30985" lon="7.28377">
        <ele>514.1</ele>
        <time>2000-01-01T08:03:35.000Z</time>
      </trkpt>
      <trkpt lat="48.30983" lon="7.28375">
        <ele>514.5</ele>
        <time>2000-01-01T08:03:45.000Z</time>
      </trkpt>
      <trkpt lat="48.30983" lon="7.28375">
        <ele>514.5</ele>
        <time>2000-01-01T08:03:55.000Z</time>
      </trkpt>
      <trkpt lat="48.30983" lon="7.28375">
        <ele>514.5</ele>
        <time>2000-01-01T08:04:05.000Z</time>
      </trkpt>
      <trkpt lat="48.30983" lon="7.28377">
        <ele>513.9</ele>
        <time>2000-01-01T08:04:15.000Z</time>
      </trkpt>
      <trkpt lat="48.30982" lon="7.28377">
        <ele>513.9</ele>
        <time>2000-01-01T08:04:25.000Z</time>
      </trkpt>
      <trkpt lat="48.30976" lon="7.28375">
        <ele>494</ele>
        <time>2000-01-01T08:04:35.000Z</time>
      </trkpt>
      <trkpt lat="48.30974" lon="7.28371">
        <ele>514.4</ele>
        <time>2000-01-01T08:04:45.000Z</time>
      </trkpt>
      <trkpt lat="48.30971" lon="7.28367">
        <ele>515</ele>
        <time>2000-01-01T08:04:55.000Z</time>
      </trkpt>
      <trkpt lat="48.30969" lon="7.28365">
        <ele>515.1</ele>
        <time>2000-01-01T08:05:05.000Z</time>
      </trkpt>
      <trkpt lat="48.30966" lon="7.28359">
        <ele>515.9</ele>
        <time>2000-01-01T08:05:15.000Z</time>
      </trkpt>
      <trkpt lat="48.3096" lon="7.28357">
        <ele>499</ele>
        <time>2000-01-01T08:05:25.000Z</time>
      </trkpt>
      <trkpt lat="48.30958" lon="7.28354">
        <ele>515.3</ele>
        <time>2000-01-01T08:05:35.000Z</time>
      </trkpt>
      <trkpt lat="48.30956" lon="7.2835">
        <ele>515.6</ele>
        <time>2000-01-01T08:05:45.000Z</time>
      </trkpt>
      <trkpt lat="48.30954" lon="7.28346">
        <ele>515.8</ele>
        <time>2000-01-01T08:05:55.000Z</time>
      </trkpt>
      <trkpt lat="48.30951" lon="7.28341">
        <ele>515.8</ele>
        <time>2000-01-01T08:06:05.000Z</time>
      </trkpt>
      <trkpt lat="48.30947" lon="7.28339">
        <ele>500</ele>
        <time>2000-01-01T08:06:15.000Z</time>
      </trkpt>
      <trkpt lat="48.30944" lon="7.28335">
        <ele>515.4</ele>
        <time>2000-01-01T08:06:25.000Z</time>
      </trkpt>
      <trkpt lat="48.30943" lon="7.28334">
        <ele>515.4</ele>
        <time>2000-01-01T08:06:35.000Z</time>
      </trkpt>
      <trkpt lat="48.30941" lon="7.28327">
        <ele>534.8</ele>
        <time>2000-01-01T08:06:45.000Z</time>
      </trkpt>
      <trkpt lat="48.30936" lon="7.28326">
        <ele>532.8</ele>
        <time>2000-01-01T08:06:55.000Z</time>
      </trkpt>
      <trkpt lat="48.30935" lon="7.28321">
        <ele>503</ele>
        <time>2000-01-01T08:07:05.000Z</time>
      </trkpt>
      <trkpt lat="48.30933" lon="7.28318">
        <ele>534</ele>
        <time>2000-01-01T08:07:15.000Z</time>
      </trkpt>
      <trkpt lat="48.30931" lon="7.28317">
        <ele>533.7</ele>
        <time>2000-01-01T08:07:25.000Z</time>
      </trkpt>
      <trkpt lat="48.3093" lon="7.28317">
        <ele>533.3</ele>
        <time>2000-01-01T08:07:35.000Z</time>
      </trkpt>
      <trkpt lat="48.30929" lon="7.28315">
        <ele>533.9</ele>
        <time>2000-01-01T08:07:45.000Z</time>
      </trkpt>
      <trkpt lat="48.30926" lon="7.28314">
        <ele>533.6</ele>
        <time>2000-01-01T08:07:55.000Z</time>
      </trkpt>
      <trkpt lat="48.30924" lon="7.28313">
        <ele>533.6</ele>
        <time>2000-01-01T08:08:05.000Z</time>
      </trkpt>
      <trkpt lat="48.30923" lon="7.28311">
        <ele>534.4</ele>
        <time>2000-01-01T08:08:15.000Z</time>
      </trkpt>
      <trkpt lat="48.30918" lon="7.28304">
        <ele>503</ele>
        <time>2000-01-01T08:08:25.000Z</time>
      </trkpt>
      <trkpt lat="48.30913" lon="7.28301">
        <ele>525.5</ele>
        <time>2000-01-01T08:08:35.000Z</time>
      </trkpt>
      <trkpt lat="48.30905" lon="7.28299">
        <ele>525.8</ele>
        <time>2000-01-01T08:08:45.000Z</time>
      </trkpt>
      <trkpt lat="48.30904" lon="7.28299">
        <ele>525.8</ele>
        <time>2000-01-01T08:08:55.000Z</time>
      </trkpt>
      <trkpt lat="48.30902" lon="7.28298">
        <ele>526</ele>
        <time>2000-01-01T08:09:05.000Z</time>
      </trkpt>
      <trkpt lat="48.30901" lon="7.28295">
        <ele>507</ele>
        <time>2000-01-01T08:09:15.000Z</time>
      </trkpt>
      <trkpt lat="48.30904" lon="7.28293">
        <ele>527.4</ele>
        <time>2000-01-01T08:09:25.000Z</time>
      </trkpt>
      <trkpt lat="48.30911" lon="7.28287">
        <ele>529.6</ele>
        <time>2000-01-01T08:09:35.000Z</time>
      </trkpt>
      <trkpt lat="48.30914" lon="7.28285">
        <ele>530.5</ele>
        <time>2000-01-01T08:09:45.000Z</time>
      </trkpt>
      <trkpt lat="48.3092" lon="7.28282">
        <ele>513</ele>
        <time>2000-01-01T08:09:55.000Z</time>
      </trkpt>
      <trkpt lat="48.30922" lon="7.28281">
        <ele>544.9</ele>
        <time>2000-01-01T08:10:05.000Z</time>
      </trkpt>
      <trkpt lat="48.30929" lon="7.28278">
        <ele>546</ele>
        <time>2000-01-01T08:10:15.000Z</time>
      </trkpt>
      <trkpt lat="48.3093" lon="7.28278">
        <ele>546.1</ele>
        <time>2000-01-01T08:10:25.000Z</time>
      </trkpt>
      <trkpt lat="48.30931" lon="7.28277">
        <ele>546.3</ele>
        <time>2000-01-01T08:10:35.000Z</time>
      </trkpt>
      <trkpt lat="48.30933" lon="7.28277">
        <ele>546.5</ele>
        <time>2000-01-01T08:10:45.000Z</time>
      </trkpt>
      <trkpt lat="48.30935" lon="7.28277">
        <ele>546.6</ele>
        <time>2000-01-01T08:10:55.000Z</time>
      </trkpt>
      <trkpt lat="48.30942" lon="7.28275">
        <ele>524</ele>
        <time>2000-01-01T08:11:05.000Z</time>
      </trkpt>
      <trkpt lat="48.30949" lon="7.28275">
        <ele>548.5</ele>
        <time>2000-01-01T08:11:15.000Z</time>
      </trkpt>
      <trkpt lat="48.30951" lon="7.28275">
        <ele>548.8</ele>
        <time>2000-01-01T08:11:25.000Z</time>
      </trkpt>
      <trkpt lat="48.30952" lon="7.28274">
        <ele>549.1</ele>
        <time>2000-01-01T08:11:35.000Z</time>
      </trkpt>
      <trkpt lat="48.3095" lon="7.28272">
        <ele>549.2</ele>
        <time>2000-01-01T08:11:45.000Z</time>
      </trkpt>
      <trkpt lat="48.30949" lon="7.28273">
        <ele>548.9</ele>
        <time>2000-01-01T08:11:55.000Z</time>
      </trkpt>
      <trkpt lat="48.30948" lon="7.28273">
        <ele>548.7</ele>
        <time>2000-01-01T08:12:05.000Z</time>
      </trkpt>
      <trkpt lat="48.30947" lon="7.28273">
        <ele>548.6</ele>
        <time>2000-01-01T08:12:15.000Z</time>
      </trkpt>
      <trkpt lat="48.30944" lon="7.28271">
        <ele>524</ele>
        <time>2000-01-01T08:12:25.000Z</time>
      </trkpt>
      <trkpt lat="48.3094" lon="7.28273">
        <ele>547.8</ele>
        <time>2000-01-01T08:12:35.000Z</time>
      </trkpt>
      <trkpt lat="48.30931" lon="7.28272">
        <ele>547.3</ele>
        <time>2000-01-01T08:12:45.000Z</time>
      </trkpt>
      <trkpt lat="48.30928" lon="7.2827">
        <ele>547.6</ele>
        <time>2000-01-01T08:12:55.000Z</time>
      </trkpt>
      <trkpt lat="48.30926" lon="7.28269">
        <ele>525</ele>
        <time>2000-01-01T08:13:05.000Z</time>
      </trkpt>
      <trkpt lat="48.30921" lon="7.28264">
        <ele>548.5</ele>
        <time>2000-01-01T08:13:15.000Z</time>
      </trkpt>
      <trkpt lat="48.30921" lon="7.28264">
        <ele>548.5</ele>
        <time>2000-01-01T08:13:25.000Z</time>
      </trkpt>
      <trkpt lat="48.30917" lon="7.28261">
        <ele>549</ele>
        <time>2000-01-01T08:13:35.000Z</time>
      </trkpt>
      <trkpt lat="48.30915" lon="7.28261">
        <ele>541.7</ele>
        <time>2000-01-01T08:13:45.000Z</time>
      </trkpt>
      <trkpt lat="48.30914" lon="7.2826">
        <ele>542.2</ele>
        <time>2000-01-01T08:13:55.000Z</time>
      </trkpt>
      <trkpt lat="48.30914" lon="7.2826">
        <ele>542.2</ele>
        <time>2000-01-01T08:14:05.000Z</time>
      </trkpt>
      <trkpt lat="48.30916" lon="7.2826">
        <ele>542.5</ele>
        <time>2000-01-01T08:14:15.000Z</time>
      </trkpt>
      <trkpt lat="48.3092" lon="7.28257">
        <ele>527</ele>
        <time>2000-01-01T08:14:25.000Z</time>
      </trkpt>
      <trkpt lat="48.30925" lon="7.28255">
        <ele>549.7</ele>
        <time>2000-01-01T08:14:35.000Z</time>
      </trkpt>
      <trkpt lat="48.30928" lon="7.28255">
        <ele>549.6</ele>
        <time>2000-01-01T08:14:45.000Z</time>
      </trkpt>
      <trkpt lat="48.30936" lon="7.28253">
        <ele>549.9</ele>
        <time>2000-01-01T08:14:55.000Z</time>
      </trkpt>
      <trkpt lat="48.30943" lon="7.2825">
        <ele>537</ele>
        <time>2000-01-01T08:15:05.000Z</time>
      </trkpt>
      <trkpt lat="48.30946" lon="7.28245">
        <ele>574.7</ele>
        <time>2000-01-01T08:15:15.000Z</time>
      </trkpt>
      <trkpt lat="48.30943" lon="7.28243">
        <ele>573.8</ele>
        <time>2000-01-01T08:15:25.000Z</time>
      </trkpt>
      <trkpt lat="48.30936" lon="7.28241">
        <ele>570.9</ele>
        <time>2000-01-01T08:15:35.000Z</time>
      </trkpt>
      <trkpt lat="48.30934" lon="7.28241">
        <ele>569.9</ele>
        <time>2000-01-01T08:15:45.000Z</time>
      </trkpt>
      <trkpt lat="48.30933" lon="7.2824">
        <ele>536</ele>
        <time>2000-01-01T08:15:55.000Z</time>
      </trkpt>
      <trkpt lat="48.30927" lon="7.28241">
        <ele>565.8</ele>
        <time>2000-01-01T08:16:05.000Z</time>
      </trkpt>
      <trkpt lat="48.30922" lon="7.28236">
        <ele>566.8</ele>
        <time>2000-01-01T08:16:15.000Z</time>
      </trkpt>
      <trkpt lat="48.30921" lon="7.28235">
        <ele>567.3</ele>
        <time>2000-01-01T08:16:25.000Z</time>
      </trkpt>
      <trkpt lat="48.3092" lon="7.28234">
        <ele>567.8</ele>
        <time>2000-01-01T08:16:35.000Z</time>
      </trkpt>
      <trkpt lat="48.30915" lon="7.28231">
        <ele>535</ele>
        <time>2000-01-01T08:16:45.000Z</time>
      </trkpt>
      <trkpt lat="48.30908" lon="7.28225">
        <ele>558.9</ele>
        <time>2000-01-01T08:16:55.000Z</time>
      </trkpt>
      <trkpt lat="48.30905" lon="7.28222">
        <ele>559.7</ele>
        <time>2000-01-01T08:17:05.000Z</time>
      </trkpt>
      <trkpt lat="48.30901" lon="7.2822">
        <ele>560.1</ele>
        <time>2000-01-01T08:17:15.000Z</time>
      </trkpt>
      <trkpt lat="48.30899" lon="7.28218">
        <ele>541</ele>
        <time>2000-01-01T08:17:25.000Z</time>
      </trkpt>
      <trkpt lat="48.309" lon="7.28216">
        <ele>561.2</ele>
        <time>2000-01-01T08:17:35.000Z</time>
      </trkpt>
      <trkpt lat="48.30905" lon="7.28211">
        <ele>563</ele>
        <time>2000-01-01T08:17:45.000Z</time>
      </trkpt>
      <trkpt lat="48.30907" lon="7.28209">
        <ele>563.9</ele>
        <time>2000-01-01T08:17:55.000Z</time>
      </trkpt>
      <trkpt lat="48.30912" lon="7.28208">
        <ele>564.6</ele>
        <time>2000-01-01T08:18:05.000Z</time>
      </trkpt>
      <trkpt lat="48.30916" lon="7.28208">
        <ele>547</ele>
        <time>2000-01-01T08:18:15.000Z</time>
      </trkpt>
      <trkpt lat="48.30916" lon="7.28209">
        <ele>564.5</ele>
        <time>2000-01-01T08:18:25.000Z</time>
      </trkpt>
      <trkpt lat="48.30918" lon="7.28211">
        <ele>579.8</ele>
        <time>2000-01-01T08:18:35.000Z</time>
      </trkpt>
      <trkpt lat="48.30921" lon="7.2821">
        <ele>580.5</ele>
        <time>2000-01-01T08:18:45.000Z</time>
      </trkpt>
      <trkpt lat="48.30922" lon="7.28208">
        <ele>581.3</ele>
        <time>2000-01-01T08:18:55.000Z</time>
      </trkpt>
      <trkpt lat="48.30921" lon="7.28205">
        <ele>582.3</ele>
        <time>2000-01-01T08:19:05.000Z</time>
      </trkpt>
      <trkpt lat="48.30919" lon="7.28199">
        <ele>584.2</ele>
        <time>2000-01-01T08:19:15.000Z</time>
      </trkpt>
      <trkpt lat="48.30919" lon="7.28198">
        <ele>584.5</ele>
        <time>2000-01-01T08:19:25.000Z</time>
      </trkpt>
      <trkpt lat="48.30915" lon="7.28194">
        <ele>551</ele>
        <time>2000-01-01T08:19:35.000Z</time>
      </trkpt>
      <trkpt lat="48.30913" lon="7.28191">
        <ele>572.1</ele>
        <time>2000-01-01T08:19:45.000Z</time>
      </trkpt>
      <trkpt lat="48.30905" lon="7.28189">
        <ele>571.7</ele>
        <time>2000-01-01T08:19:55.000Z</time>
      </trkpt>
      <trkpt lat="48.30901" lon="7.28186">
        <ele>572</ele>
        <time>2000-01-01T08:20:05.000Z</time>
      </trkpt>
      <trkpt lat="48.30886" lon="7.28179">
        <ele>551</ele>
        <time>2000-01-01T08:20:15.000Z</time>
      </trkpt>
      <trkpt lat="48.30879" lon="7.28172">
        <ele>568</ele>
        <time>2000-01-01T08:20:25.000Z</time>
      </trkpt>
      <trkpt lat="48.3088" lon="7.28169">
        <ele>568.6</ele>
        <time>2000-01-01T08:20:35.000Z</time>
      </trkpt>
      <trkpt lat="48.30881" lon="7.28165">
        <ele>593.5</ele>
        <time>2000-01-01T08:20:45.000Z</time>
      </trkpt>
      <trkpt lat="48.30882" lon="7.28166">
        <ele>593.6</ele>
        <time>2000-01-01T08:20:55.000Z</time>
      </trkpt>
      <trkpt lat="48.30883" lon="7.28165">
        <ele>593.8</ele>
        <time>2000-01-01T08:21:05.000Z</time>
      </trkpt>
      <trkpt lat="48.30888" lon="7.28164">
        <ele>555</ele>
        <time>2000-01-01T08:21:15.000Z</time>
      </trkpt>
      <trkpt lat="48.30899" lon="7.28163">
        <ele>595.4</ele>
        <time>2000-01-01T08:21:25.000Z</time>
      </trkpt>
      <trkpt lat="48.30901" lon="7.28163">
        <ele>595.4</ele>
        <time>2000-01-01T08:21:35.000Z</time>
      </trkpt>
      <trkpt lat="48.30907" lon="7.28164">
        <ele>562</ele>
        <time>2000-01-01T08:21:45.000Z</time>
      </trkpt>
      <trkpt lat="48.30921" lon="7.28167">
        <ele>592</ele>
        <time>2000-01-01T08:21:55.000Z</time>
      </trkpt>
      <trkpt lat="48.30933" lon="7.28162">
        <ele>572</ele>
        <time>2000-01-01T08:22:05.000Z</time>
      </trkpt>
      <trkpt lat="48.30943" lon="7.28159">
        <ele>615.3</ele>
        <time>2000-01-01T08:22:15.000Z</time>
      </trkpt>
      <trkpt lat="48.30947" lon="7.28158">
        <ele>617</ele>
        <time>2000-01-01T08:22:25.000Z</time>
      </trkpt>
      <trkpt lat="48.30953" lon="7.28158">
        <ele>582</ele>
        <time>2000-01-01T08:22:35.000Z</time>
      </trkpt>
      <trkpt lat="48.30959" lon="7.28161">
        <ele>620.3</ele>
        <time>2000-01-01T08:22:45.000Z</time>
      </trkpt>
      <trkpt lat="48.30961" lon="7.28164">
        <ele>620.4</ele>
        <time>2000-01-01T08:22:55.000Z</time>
      </trkpt>
      <trkpt lat="48.30968" lon="7.28167">
        <ele>597.4</ele>
        <time>2000-01-01T08:23:05.000Z</time>
      </trkpt>
      <trkpt lat="48.30969" lon="7.28167">
        <ele>597.8</ele>
        <time>2000-01-01T08:23:15.000Z</time>
      </trkpt>
      <trkpt lat="48.30972" lon="7.2817">
        <ele>588</ele>
        <time>2000-01-01T08:23:25.000Z</time>
      </trkpt>
      <trkpt lat="48.30974" lon="7.28171">
        <ele>599.5</ele>
        <time>2000-01-01T08:23:35.000Z</time>
      </trkpt>
      <trkpt lat="48.30978" lon="7.2817">
        <ele>601.6</ele>
        <time>2000-01-01T08:23:45.000Z</time>
      </trkpt>
      <trkpt lat="48.30982" lon="7.2817">
        <ele>604</ele>
        <time>2000-01-01T08:23:55.000Z</time>
      </trkpt>
      <trkpt lat="48.3099" lon="7.28172">
        <ele>592</ele>
        <time>2000-01-01T08:24:05.000Z</time>
      </trkpt>
      <trkpt lat="48.30994" lon="7.28173">
        <ele>611.4</ele>
        <time>2000-01-01T08:24:15.000Z</time>
      </trkpt>
      <trkpt lat="48.30999" lon="7.28173">
        <ele>613.9</ele>
        <time>2000-01-01T08:24:25.000Z</time>
      </trkpt>
      <trkpt lat="48.31005" lon="7.28172">
        <ele>619.4</ele>
        <time>2000-01-01T08:24:35.000Z</time>
      </trkpt>
      <trkpt lat="48.31009" lon="7.28175">
        <ele>594</ele>
        <time>2000-01-01T08:24:45.000Z</time>
      </trkpt>
      <trkpt lat="48.31012" lon="7.28177">
        <ele>617.4</ele>
        <time>2000-01-01T08:24:55.000Z</time>
      </trkpt>
      <trkpt lat="48.31014" lon="7.28178">
        <ele>617.1</ele>
        <time>2000-01-01T08:25:05.000Z</time>
      </trkpt>
      <trkpt lat="48.3102" lon="7.28178">
        <ele>616.9</ele>
        <time>2000-01-01T08:25:15.000Z</time>
      </trkpt>
      <trkpt lat="48.31023" lon="7.28179">
        <ele>616.7</ele>
        <time>2000-01-01T08:25:25.000Z</time>
      </trkpt>
      <trkpt lat="48.31024" lon="7.28179">
        <ele>616.7</ele>
        <time>2000-01-01T08:25:35.000Z</time>
      </trkpt>
      <trkpt lat="48.31022" lon="7.28179">
        <ele>616.7</ele>
        <time>2000-01-01T08:25:45.000Z</time>
      </trkpt>
      <trkpt lat="48.31021" lon="7.28178">
        <ele>596</ele>
        <time>2000-01-01T08:25:55.000Z</time>
      </trkpt>
      <trkpt lat="48.3102" lon="7.28178">
        <ele>616.9</ele>
        <time>2000-01-01T08:26:05.000Z</time>
      </trkpt>
      <trkpt lat="48.31014" lon="7.28173">
        <ele>618</ele>
        <time>2000-01-01T08:26:15.000Z</time>
      </trkpt>
      <trkpt lat="48.31005" lon="7.28163">
        <ele>596</ele>
        <time>2000-01-01T08:26:25.000Z</time>
      </trkpt>
      <trkpt lat="48.31004" lon="7.28161">
        <ele>629.3</ele>
        <time>2000-01-01T08:26:35.000Z</time>
      </trkpt>
      <trkpt lat="48.31001" lon="7.28161">
        <ele>628.2</ele>
        <time>2000-01-01T08:26:45.000Z</time>
      </trkpt>
      <trkpt lat="48.30999" lon="7.2816">
        <ele>623.3</ele>
        <time>2000-01-01T08:26:55.000Z</time>
      </trkpt>
      <trkpt lat="48.30997" lon="7.28161">
        <ele>623.2</ele>
        <time>2000-01-01T08:27:05.000Z</time>
      </trkpt>
      <trkpt lat="48.30989" lon="7.28154">
        <ele>596</ele>
        <time>2000-01-01T08:27:15.000Z</time>
      </trkpt>
      <trkpt lat="48.30985" lon="7.28148">
        <ele>625.3</ele>
        <time>2000-01-01T08:27:25.000Z</time>
      </trkpt>
      <trkpt lat="48.30982" lon="7.28145">
        <ele>625.7</ele>
        <time>2000-01-01T08:27:35.000Z</time>
      </trkpt>
      <trkpt lat="48.30977" lon="7.28137">
        <ele>626.9</ele>
        <time>2000-01-01T08:27:45.000Z</time>
      </trkpt>
      <trkpt lat="48.30973" lon="7.28137">
        <ele>626.4</ele>
        <time>2000-01-01T08:27:55.000Z</time>
      </trkpt>
      <trkpt lat="48.30973" lon="7.28137">
        <ele>626</ele>
        <time>2000-01-01T08:28:05.000Z</time>
      </trkpt>
      <trkpt lat="48.30977" lon="7.2814">
        <ele>626.3</ele>
        <time>2000-01-01T08:28:15.000Z</time>
      </trkpt>
      <trkpt lat="48.30985" lon="7.28142">
        <ele>626.5</ele>
        <time>2000-01-01T08:28:25.000Z</time>
      </trkpt>
      <trkpt lat="48.30998" lon="7.28138">
        <ele>610</ele>
        <time>2000-01-01T08:28:35.000Z</time>
      </trkpt>
      <trkpt lat="48.31003" lon="7.2814">
        <ele>641.9</ele>
        <time>2000-01-01T08:28:45.000Z</time>
      </trkpt>
      <trkpt lat="48.31005" lon="7.28142">
        <ele>641.1</ele>
        <time>2000-01-01T08:28:55.000Z</time>
      </trkpt>
      <trkpt lat="48.31012" lon="7.28146">
        <ele>640.6</ele>
        <time>2000-01-01T08:29:05.000Z</time>
      </trkpt>
      <trkpt lat="48.31015" lon="7.28148">
        <ele>640.6</ele>
        <time>2000-01-01T08:29:15.000Z</time>
      </trkpt>
      <trkpt lat="48.31016" lon="7.28149">
        <ele>612</ele>
        <time>2000-01-01T08:29:25.000Z</time>
      </trkpt>
      <trkpt lat="48.31021" lon="7.28151">
        <ele>641.4</ele>
        <time>2000-01-01T08:29:35.000Z</time>
      </trkpt>
      <trkpt lat="48.31027" lon="7.28155">
        <ele>642.4</ele>
        <time>2000-01-01T08:29:45.000Z</time>
      </trkpt>
      <trkpt lat="48.31032" lon="7.28155">
        <ele>643.9</ele>
        <time>2000-01-01T08:29:55.000Z</time>
      </trkpt>
      <trkpt lat="48.31037" lon="7.28157">
        <ele>612</ele>
        <time>2000-01-01T08:30:05.000Z</time>
      </trkpt>
      <trkpt lat="48.31039" lon="7.28158">
        <ele>645.2</ele>
        <time>2000-01-01T08:30:15.000Z</time>
      </trkpt>
      <trkpt lat="48.31046" lon="7.28159">
        <ele>646.5</ele>
        <time>2000-01-01T08:30:25.000Z</time>
      </trkpt>
      <trkpt lat="48.31051" lon="7.2816">
        <ele>647.1</ele>
        <time>2000-01-01T08:30:35.000Z</time>
      </trkpt>
      <trkpt lat="48.31053" lon="7.28161">
        <ele>647.2</ele>
        <time>2000-01-01T08:30:45.000Z</time>
      </trkpt>
      <trkpt lat="48.31057" lon="7.28159">
        <ele>620</ele>
        <time>2000-01-01T08:30:55.000Z</time>
      </trkpt>
      <trkpt lat="48.31064" lon="7.28159">
        <ele>648</ele>
        <time>2000-01-01T08:31:05.000Z</time>
      </trkpt>
      <trkpt lat="48.31066" lon="7.28158">
        <ele>648.1</ele>
        <time>2000-01-01T08:31:15.000Z</time>
      </trkpt>
      <trkpt lat="48.31062" lon="7.28154">
        <ele>648.6</ele>
        <time>2000-01-01T08:31:25.000Z</time>
      </trkpt>
      <trkpt lat="48.31061" lon="7.28153">
        <ele>648.7</ele>
        <time>2000-01-01T08:31:35.000Z</time>
      </trkpt>
      <trkpt lat="48.3106" lon="7.28153">
        <ele>648.7</ele>
        <time>2000-01-01T08:31:45.000Z</time>
      </trkpt>
      <trkpt lat="48.31057" lon="7.28149">
        <ele>621</ele>
        <time>2000-01-01T08:31:55.000Z</time>
      </trkpt>
      <trkpt lat="48.31056" lon="7.28149">
        <ele>649</ele>
        <time>2000-01-01T08:32:05.000Z</time>
      </trkpt>
      <trkpt lat="48.31047" lon="7.28146">
        <ele>648.5</ele>
        <time>2000-01-01T08:32:15.000Z</time>
      </trkpt>
      <trkpt lat="48.31042" lon="7.28143">
        <ele>648.2</ele>
        <time>2000-01-01T08:32:25.000Z</time>
      </trkpt>
      <trkpt lat="48.3104" lon="7.28141">
        <ele>648.3</ele>
        <time>2000-01-01T08:32:35.000Z</time>
      </trkpt>
      <trkpt lat="48.3104" lon="7.2814">
        <ele>623</ele>
        <time>2000-01-01T08:32:45.000Z</time>
      </trkpt>
      <trkpt lat="48.31036" lon="7.2814">
        <ele>647.8</ele>
        <time>2000-01-01T08:32:55.000Z</time>
      </trkpt>
      <trkpt lat="48.31028" lon="7.28135">
        <ele>647.6</ele>
        <time>2000-01-01T08:33:05.000Z</time>
      </trkpt>
      <trkpt lat="48.31027" lon="7.28133">
        <ele>647.9</ele>
        <time>2000-01-01T08:33:15.000Z</time>
      </trkpt>
      <trkpt lat="48.31024" lon="7.28126">
        <ele>626</ele>
        <time>2000-01-01T08:33:25.000Z</time>
      </trkpt>
      <trkpt lat="48.31024" lon="7.28124">
        <ele>649.8</ele>
        <time>2000-01-01T08:33:35.000Z</time>
      </trkpt>
      <trkpt lat="48.31022" lon="7.28123">
        <ele>649.8</ele>
        <time>2000-01-01T08:33:45.000Z</time>
      </trkpt>
      <trkpt lat="48.3102" lon="7.28121">
        <ele>650.1</ele>
        <time>2000-01-01T08:33:55.000Z</time>
      </trkpt>
      <trkpt lat="48.31019" lon="7.2812">
        <ele>650.3</ele>
        <time>2000-01-01T08:34:05.000Z</time>
      </trkpt>
      <trkpt lat="48.31016" lon="7.28115">
        <ele>651.3</ele>
        <time>2000-01-01T08:34:15.000Z</time>
      </trkpt>
      <trkpt lat="48.31014" lon="7.28114">
        <ele>651.4</ele>
        <time>2000-01-01T08:34:25.000Z</time>
      </trkpt>
      <trkpt lat="48.31009" lon="7.28107">
        <ele>628</ele>
        <time>2000-01-01T08:34:35.000Z</time>
      </trkpt>
      <trkpt lat="48.31008" lon="7.28104">
        <ele>653.4</ele>
        <time>2000-01-01T08:34:45.000Z</time>
      </trkpt>
      <trkpt lat="48.31013" lon="7.28103">
        <ele>653.7</ele>
        <time>2000-01-01T08:34:55.000Z</time>
      </trkpt>
      <trkpt lat="48.31016" lon="7.28105">
        <ele>653.5</ele>
        <time>2000-01-01T08:35:05.000Z</time>
      </trkpt>
      <trkpt lat="48.31018" lon="7.28105">
        <ele>653.5</ele>
        <time>2000-01-01T08:35:15.000Z</time>
      </trkpt>
      <trkpt lat="48.31018" lon="7.28105">
        <ele>653.5</ele>
        <time>2000-01-01T08:35:25.000Z</time>
      </trkpt>
      <trkpt lat="48.31025" lon="7.28105">
        <ele>636</ele>
        <time>2000-01-01T08:35:35.000Z</time>
      </trkpt>
      <trkpt lat="48.31026" lon="7.28105">
        <ele>654.1</ele>
        <time>2000-01-01T08:35:45.000Z</time>
      </trkpt>
      <trkpt lat="48.31029" lon="7.28105">
        <ele>654.4</ele>
        <time>2000-01-01T08:35:55.000Z</time>
      </trkpt>
      <trkpt lat="48.3103" lon="7.28103">
        <ele>654.8</ele>
        <time>2000-01-01T08:36:05.000Z</time>
      </trkpt>
      <trkpt lat="48.31035" lon="7.28105">
        <ele>655.1</ele>
        <time>2000-01-01T08:36:15.000Z</time>
      </trkpt>
      <trkpt lat="48.31039" lon="7.28108">
        <ele>655.2</ele>
        <time>2000-01-01T08:36:25.000Z</time>
      </trkpt>
      <trkpt lat="48.31042" lon="7.28108">
        <ele>638</ele>
        <time>2000-01-01T08:36:35.000Z</time>
      </trkpt>
      <trkpt lat="48.31047" lon="7.28109">
        <ele>656.4</ele>
        <time>2000-01-01T08:36:45.000Z</time>
      </trkpt>
      <trkpt lat="48.3105" lon="7.28109">
        <ele>657</ele>
        <time>2000-01-01T08:36:55.000Z</time>
      </trkpt>
      <trkpt lat="48.31051" lon="7.28109">
        <ele>657.2</ele>
        <time>2000-01-01T08:37:05.000Z</time>
      </trkpt>
      <trkpt lat="48.31058" lon="7.28105">
        <ele>659.8</ele>
        <time>2000-01-01T08:37:15.000Z</time>
      </trkpt>
      <trkpt lat="48.31059" lon="7.28101">
        <ele>640</ele>
        <time>2000-01-01T08:37:25.000Z</time>
      </trkpt>
      <trkpt lat="48.3106" lon="7.28096">
        <ele>662.8</ele>
        <time>2000-01-01T08:37:35.000Z</time>
      </trkpt>
      <trkpt lat="48.3106" lon="7.28094">
        <ele>663.3</ele>
        <time>2000-01-01T08:37:45.000Z</time>
      </trkpt>
      <trkpt lat="48.31058" lon="7.28092">
        <ele>663</ele>
        <time>2000-01-01T08:37:55.000Z</time>
      </trkpt>
      <trkpt lat="48.31055" lon="7.28088">
        <ele>662.5</ele>
        <time>2000-01-01T08:38:05.000Z</time>
      </trkpt>
      <trkpt lat="48.31052" lon="7.28086">
        <ele>661.7</ele>
        <time>2000-01-01T08:38:15.000Z</time>
      </trkpt>
      <trkpt lat="48.31049" lon="7.28085">
        <ele>646</ele>
        <time>2000-01-01T08:38:25.000Z</time>
      </trkpt>
      <trkpt lat="48.31042" lon="7.28083">
        <ele>677.2</ele>
        <time>2000-01-01T08:38:35.000Z</time>
      </trkpt>
      <trkpt lat="48.31034" lon="7.28082">
        <ele>675.4</ele>
        <time>2000-01-01T08:38:45.000Z</time>
      </trkpt>
      <trkpt lat="48.31033" lon="7.28082">
        <ele>675.1</ele>
        <time>2000-01-01T08:38:55.000Z</time>
      </trkpt>
      <trkpt lat="48.31029" lon="7.2808">
        <ele>649</ele>
        <time>2000-01-01T08:39:05.000Z</time>
      </trkpt>
      <trkpt lat="48.31026" lon="7.28074">
        <ele>673.8</ele>
        <time>2000-01-01T08:39:15.000Z</time>
      </trkpt>
      <trkpt lat="48.31022" lon="7.28065">
        <ele>674.3</ele>
        <time>2000-01-01T08:39:25.000Z</time>
      </trkpt>
      <trkpt lat="48.31017" lon="7.28054">
        <ele>651</ele>
        <time>2000-01-01T08:39:35.000Z</time>
      </trkpt>
      <trkpt lat="48.31014" lon="7.28052">
        <ele>676.1</ele>
        <time>2000-01-01T08:39:45.000Z</time>
      </trkpt>
      <trkpt lat="48.31005" lon="7.28048">
        <ele>676.3</ele>
        <time>2000-01-01T08:39:55.000Z</time>
      </trkpt>
      <trkpt lat="48.31002" lon="7.28047">
        <ele>676.4</ele>
        <time>2000-01-01T08:40:05.000Z</time>
      </trkpt>
      <trkpt lat="48.31" lon="7.28045">
        <ele>651</ele>
        <time>2000-01-01T08:40:15.000Z</time>
      </trkpt>
      <trkpt lat="48.30999" lon="7.28044">
        <ele>665</ele>
        <time>2000-01-01T08:40:25.000Z</time>
      </trkpt>
      <trkpt lat="48.30995" lon="7.28044">
        <ele>664.8</ele>
        <time>2000-01-01T08:40:35.000Z</time>
      </trkpt>
      <trkpt lat="48.30977" lon="7.28034">
        <ele>651</ele>
        <time>2000-01-01T08:40:45.000Z</time>
      </trkpt>
      <trkpt lat="48.30971" lon="7.28031">
        <ele>665.4</ele>
        <time>2000-01-01T08:40:55.000Z</time>
      </trkpt>
      <trkpt lat="48.30963" lon="7.28028">
        <ele>664.8</ele>
        <time>2000-01-01T08:41:05.000Z</time>
      </trkpt>
      <trkpt lat="48.30958" lon="7.28026">
        <ele>652</ele>
        <time>2000-01-01T08:41:15.000Z</time>
      </trkpt>
      <trkpt lat="48.30953" lon="7.28022">
        <ele>664.5</ele>
        <time>2000-01-01T08:41:25.000Z</time>
      </trkpt>
      <trkpt lat="48.30946" lon="7.28014">
        <ele>664.9</ele>
        <time>2000-01-01T08:41:35.000Z</time>
      </trkpt>
      <trkpt lat="48.30942" lon="7.28004">
        <ele>654</ele>
        <time>2000-01-01T08:41:45.000Z</time>
      </trkpt>
      <trkpt lat="48.30942" lon="7.28001">
        <ele>665.8</ele>
        <time>2000-01-01T08:41:55.000Z</time>
      </trkpt>
      <trkpt lat="48.30935" lon="7.27986">
        <ele>675.2</ele>
        <time>2000-01-01T08:42:05.000Z</time>
      </trkpt>
      <trkpt lat="48.30934" lon="7.27983">
        <ele>675.4</ele>
        <time>2000-01-01T08:42:15.000Z</time>
      </trkpt>
      <trkpt lat="48.30928" lon="7.27973">
        <ele>656</ele>
        <time>2000-01-01T08:42:25.000Z</time>
      </trkpt>
      <trkpt lat="48.30923" lon="7.27965">
        <ele>676.2</ele>
        <time>2000-01-01T08:42:35.000Z</time>
      </trkpt>
      <trkpt lat="48.30921" lon="7.2796">
        <ele>676.5</ele>
        <time>2000-01-01T08:42:45.000Z</time>
      </trkpt>
      <trkpt lat="48.30917" lon="7.27953">
        <ele>676.6</ele>
        <time>2000-01-01T08:42:55.000Z</time>
      </trkpt>
      <trkpt lat="48.3091" lon="7.27939">
        <ele>658</ele>
        <time>2000-01-01T08:43:05.000Z</time>
      </trkpt>
      <trkpt lat="48.30908" lon="7.27935">
        <ele>668.9</ele>
        <time>2000-01-01T08:43:15.000Z</time>
      </trkpt>
      <trkpt lat="48.30898" lon="7.2793">
        <ele>668.4</ele>
        <time>2000-01-01T08:43:25.000Z</time>
      </trkpt>
      <trkpt lat="48.30894" lon="7.27925">
        <ele>660</ele>
        <time>2000-01-01T08:43:35.000Z</time>
      </trkpt>
      <trkpt lat="48.30887" lon="7.2792">
        <ele>667.7</ele>
        <time>2000-01-01T08:43:45.000Z</time>
      </trkpt>
      <trkpt lat="48.30886" lon="7.27918">
        <ele>667.7</ele>
        <time>2000-01-01T08:43:55.000Z</time>
      </trkpt>
      <trkpt lat="48.30877" lon="7.27914">
        <ele>661</ele>
        <time>2000-01-01T08:44:05.000Z</time>
      </trkpt>
      <trkpt lat="48.30874" lon="7.27913">
        <ele>675.1</ele>
        <time>2000-01-01T08:44:15.000Z</time>
      </trkpt>
      <trkpt lat="48.30868" lon="7.27904">
        <ele>675.2</ele>
        <time>2000-01-01T08:44:25.000Z</time>
      </trkpt>
      <trkpt lat="48.30868" lon="7.27902">
        <ele>675.4</ele>
        <time>2000-01-01T08:44:35.000Z</time>
      </trkpt>
      <trkpt lat="48.30862" lon="7.27888">
        <ele>666</ele>
        <time>2000-01-01T08:44:45.000Z</time>
      </trkpt>
      <trkpt lat="48.3086" lon="7.27885">
        <ele>676.5</ele>
        <time>2000-01-01T08:44:55.000Z</time>
      </trkpt>
      <trkpt lat="48.30848" lon="7.27872">
        <ele>678</ele>
        <time>2000-01-01T08:45:05.000Z</time>
      </trkpt>
      <trkpt lat="48.30842" lon="7.2787">
        <ele>666</ele>
        <time>2000-01-01T08:45:15.000Z</time>
      </trkpt>
      <trkpt lat="48.30834" lon="7.27866">
        <ele>679.2</ele>
        <time>2000-01-01T08:45:25.000Z</time>
      </trkpt>
      <trkpt lat="48.30816" lon="7.27864">
        <ele>665</ele>
        <time>2000-01-01T08:45:35.000Z</time>
      </trkpt>
      <trkpt lat="48.30811" lon="7.27864">
        <ele>681.2</ele>
        <time>2000-01-01T08:45:45.000Z</time>
      </trkpt>
      <trkpt lat="48.30798" lon="7.27865">
        <ele>665</ele>
        <time>2000-01-01T08:45:55.000Z</time>
      </trkpt>
      <trkpt lat="48.30793" lon="7.27865">
        <ele>681.3</ele>
        <time>2000-01-01T08:46:05.000Z</time>
      </trkpt>
      <trkpt lat="48.30785" lon="7.27862">
        <ele>681.9</ele>
        <time>2000-01-01T08:46:15.000Z</time>
      </trkpt>
      <trkpt lat="48.30779" lon="7.27859">
        <ele>669</ele>
        <time>2000-01-01T08:46:25.000Z</time>
      </trkpt>
      <trkpt lat="48.3077" lon="7.27857">
        <ele>683.6</ele>
        <time>2000-01-01T08:46:35.000Z</time>
      </trkpt>
      <trkpt lat="48.30769" lon="7.27857">
        <ele>683.7</ele>
        <time>2000-01-01T08:46:45.000Z</time>
      </trkpt>
      <trkpt lat="48.30759" lon="7.27858">
        <ele>669</ele>
        <time>2000-01-01T08:46:55.000Z</time>
      </trkpt>
      <trkpt lat="48.30738" lon="7.2787">
        <ele>669</ele>
        <time>2000-01-01T08:47:05.000Z</time>
      </trkpt>
      <trkpt lat="48.3073" lon="7.27872">
        <ele>683.5</ele>
        <time>2000-01-01T08:47:15.000Z</time>
      </trkpt>
      <trkpt lat="48.30722" lon="7.27872">
        <ele>683.6</ele>
        <time>2000-01-01T08:47:25.000Z</time>
      </trkpt>
      <trkpt lat="48.30719" lon="7.27873">
        <ele>670</ele>
        <time>2000-01-01T08:47:35.000Z</time>
      </trkpt>
      <trkpt lat="48.30713" lon="7.27877">
        <ele>683.1</ele>
        <time>2000-01-01T08:47:45.000Z</time>
      </trkpt>
      <trkpt lat="48.30702" lon="7.27884">
        <ele>670</ele>
        <time>2000-01-01T08:47:55.000Z</time>
      </trkpt>
      <trkpt lat="48.30683" lon="7.27887">
        <ele>670</ele>
        <time>2000-01-01T08:48:05.000Z</time>
      </trkpt>
      <trkpt lat="48.30682" lon="7.27887">
        <ele>682.6</ele>
        <time>2000-01-01T08:48:15.000Z</time>
      </trkpt>
      <trkpt lat="48.30679" lon="7.27891">
        <ele>682.1</ele>
        <time>2000-01-01T08:48:25.000Z</time>
      </trkpt>
      <trkpt lat="48.30661" lon="7.27896">
        <ele>670</ele>
        <time>2000-01-01T08:48:35.000Z</time>
      </trkpt>
      <trkpt lat="48.30656" lon="7.27894">
        <ele>680.6</ele>
        <time>2000-01-01T08:48:45.000Z</time>
      </trkpt>
      <trkpt lat="48.30654" lon="7.27891">
        <ele>680.9</ele>
        <time>2000-01-01T08:48:55.000Z</time>
      </trkpt>
      <trkpt lat="48.30639" lon="7.27888">
        <ele>668</ele>
        <time>2000-01-01T08:49:05.000Z</time>
      </trkpt>
      <trkpt lat="48.30638" lon="7.27888">
        <ele>680.8</ele>
        <time>2000-01-01T08:49:15.000Z</time>
      </trkpt>
      <trkpt lat="48.30637" lon="7.27889">
        <ele>680.7</ele>
        <time>2000-01-01T08:49:25.000Z</time>
      </trkpt>
      <trkpt lat="48.30637" lon="7.2789">
        <ele>680.6</ele>
        <time>2000-01-01T08:49:35.000Z</time>
      </trkpt>
      <trkpt lat="48.30635" lon="7.27897">
        <ele>680.1</ele>
        <time>2000-01-01T08:49:45.000Z</time>
      </trkpt>
      <trkpt lat="48.30632" lon="7.279">
        <ele>679.9</ele>
        <time>2000-01-01T08:49:55.000Z</time>
      </trkpt>
      <trkpt lat="48.30629" lon="7.27903">
        <ele>679.6</ele>
        <time>2000-01-01T08:50:05.000Z</time>
      </trkpt>
      <trkpt lat="48.30625" lon="7.27911">
        <ele>656</ele>
        <time>2000-01-01T08:50:15.000Z</time>
      </trkpt>
      <trkpt lat="48.30623" lon="7.27912">
        <ele>678.9</ele>
        <time>2000-01-01T08:50:25.000Z</time>
      </trkpt>
      <trkpt lat="48.3062" lon="7.27916">
        <ele>678.5</ele>
        <time>2000-01-01T08:50:35.000Z</time>
      </trkpt>
      <trkpt lat="48.30614" lon="7.2792">
        <ele>665.1</ele>
        <time>2000-01-01T08:50:45.000Z</time>
      </trkpt>
      <trkpt lat="48.30607" lon="7.27922">
        <ele>651</ele>
        <time>2000-01-01T08:50:55.000Z</time>
      </trkpt>
      <trkpt lat="48.30599" lon="7.27925">
        <ele>666.1</ele>
        <time>2000-01-01T08:51:05.000Z</time>
      </trkpt>
      <trkpt lat="48.30592" lon="7.2792">
        <ele>668.4</ele>
        <time>2000-01-01T08:51:15.000Z</time>
      </trkpt>
      <trkpt lat="48.30567" lon="7.27919">
        <ele>647</ele>
        <time>2000-01-01T08:51:25.000Z</time>
      </trkpt>
      <trkpt lat="48.30563" lon="7.27916">
        <ele>670.6</ele>
        <time>2000-01-01T08:51:35.000Z</time>
      </trkpt>
      <trkpt lat="48.30555" lon="7.27917">
        <ele>661.3</ele>
        <time>2000-01-01T08:51:45.000Z</time>
      </trkpt>
      <trkpt lat="48.30548" lon="7.27916">
        <ele>645</ele>
        <time>2000-01-01T08:51:55.000Z</time>
      </trkpt>
      <trkpt lat="48.3054" lon="7.27917">
        <ele>659.1</ele>
        <time>2000-01-01T08:52:05.000Z</time>
      </trkpt>
      <trkpt lat="48.30538" lon="7.27916">
        <ele>668.2</ele>
        <time>2000-01-01T08:52:15.000Z</time>
      </trkpt>
      <trkpt lat="48.30538" lon="7.27915">
        <ele>668.2</ele>
        <time>2000-01-01T08:52:25.000Z</time>
      </trkpt>
      <trkpt lat="48.30524" lon="7.27912">
        <ele>642</ele>
        <time>2000-01-01T08:52:35.000Z</time>
      </trkpt>
      <trkpt lat="48.30516" lon="7.27916">
        <ele>664.4</ele>
        <time>2000-01-01T08:52:45.000Z</time>
      </trkpt>
      <trkpt lat="48.3051" lon="7.27922">
        <ele>658</ele>
        <time>2000-01-01T08:52:55.000Z</time>
      </trkpt>
      <trkpt lat="48.30501" lon="7.27933">
        <ele>638</ele>
        <time>2000-01-01T08:53:05.000Z</time>
      </trkpt>
      <trkpt lat="48.305" lon="7.27933">
        <ele>656.4</ele>
        <time>2000-01-01T08:53:15.000Z</time>
      </trkpt>
      <trkpt lat="48.30497" lon="7.27933">
        <ele>656.4</ele>
        <time>2000-01-01T08:53:25.000Z</time>
      </trkpt>
      <trkpt lat="48.30484" lon="7.27941">
        <ele>634</ele>
        <time>2000-01-01T08:53:35.000Z</time>
      </trkpt>
      <trkpt lat="48.30477" lon="7.27948">
        <ele>654.6</ele>
        <time>2000-01-01T08:53:45.000Z</time>
      </trkpt>
      <trkpt lat="48.30472" lon="7.27954">
        <ele>654.1</ele>
        <time>2000-01-01T08:53:55.000Z</time>
      </trkpt>
      <trkpt lat="48.30471" lon="7.27956">
        <ele>654</ele>
        <time>2000-01-01T08:54:05.000Z</time>
      </trkpt>
      <trkpt lat="48.30469" lon="7.27953">
        <ele>634</ele>
        <time>2000-01-01T08:54:15.000Z</time>
      </trkpt>
      <trkpt lat="48.30468" lon="7.2795">
        <ele>654.5</ele>
        <time>2000-01-01T08:54:25.000Z</time>
      </trkpt>
      <trkpt lat="48.3047" lon="7.27942">
        <ele>655.1</ele>
        <time>2000-01-01T08:54:35.000Z</time>
      </trkpt>
      <trkpt lat="48.30463" lon="7.27928">
        <ele>635</ele>
        <time>2000-01-01T08:54:45.000Z</time>
      </trkpt>
      <trkpt lat="48.3046" lon="7.27924">
        <ele>656.2</ele>
        <time>2000-01-01T08:54:55.000Z</time>
      </trkpt>
      <trkpt lat="48.30453" lon="7.27919">
        <ele>656.6</ele>
        <time>2000-01-01T08:55:05.000Z</time>
      </trkpt>
      <trkpt lat="48.30443" lon="7.27916">
        <ele>636</ele>
        <time>2000-01-01T08:55:15.000Z</time>
      </trkpt>
      <trkpt lat="48.30439" lon="7.27917">
        <ele>657.7</ele>
        <time>2000-01-01T08:55:25.000Z</time>
      </trkpt>
      <trkpt lat="48.30428" lon="7.2792">
        <ele>659.1</ele>
        <time>2000-01-01T08:55:35.000Z</time>
      </trkpt>
      <trkpt lat="48.30416" lon="7.2792">
        <ele>641</ele>
        <time>2000-01-01T08:55:45.000Z</time>
      </trkpt>
      <trkpt lat="48.30413" lon="7.27919">
        <ele>661.5</ele>
        <time>2000-01-01T08:55:55.000Z</time>
      </trkpt>
      <trkpt lat="48.30411" lon="7.2792">
        <ele>661.4</ele>
        <time>2000-01-01T08:56:05.000Z</time>
      </trkpt>
      <trkpt lat="48.30398" lon="7.27927">
        <ele>642</ele>
        <time>2000-01-01T08:56:15.000Z</time>
      </trkpt>
      <trkpt lat="48.30394" lon="7.27929">
        <ele>660.5</ele>
        <time>2000-01-01T08:56:25.000Z</time>
      </trkpt>
      <trkpt lat="48.30393" lon="7.27929">
        <ele>660.5</ele>
        <time>2000-01-01T08:56:35.000Z</time>
      </trkpt>
      <trkpt lat="48.30381" lon="7.27934">
        <ele>660.5</ele>
        <time>2000-01-01T08:56:45.000Z</time>
      </trkpt>
      <trkpt lat="48.30376" lon="7.27935">
        <ele>644</ele>
        <time>2000-01-01T08:56:55.000Z</time>
      </trkpt>
      <trkpt lat="48.30371" lon="7.27937">
        <ele>660.8</ele>
        <time>2000-01-01T08:57:05.000Z</time>
      </trkpt>
      <trkpt lat="48.30367" lon="7.27939">
        <ele>660.9</ele>
        <time>2000-01-01T08:57:15.000Z</time>
      </trkpt>
      <trkpt lat="48.30359" lon="7.27939">
        <ele>661.3</ele>
        <time>2000-01-01T08:57:25.000Z</time>
      </trkpt>
      <trkpt lat="48.30355" lon="7.27939">
        <ele>647</ele>
        <time>2000-01-01T08:57:35.000Z</time>
      </trkpt>
      <trkpt lat="48.30354" lon="7.27938">
        <ele>661.6</ele>
        <time>2000-01-01T08:57:45.000Z</time>
      </trkpt>
      <trkpt lat="48.30353" lon="7.27938">
        <ele>661.7</ele>
        <time>2000-01-01T08:57:55.000Z</time>
      </trkpt>
      <trkpt lat="48.30351" lon="7.2794">
        <ele>661.7</ele>
        <time>2000-01-01T08:58:05.000Z</time>
      </trkpt>
      <trkpt lat="48.3035" lon="7.27939">
        <ele>661.8</ele>
        <time>2000-01-01T08:58:15.000Z</time>
      </trkpt>
      <trkpt lat="48.30341" lon="7.27944">
        <ele>661.8</ele>
        <time>2000-01-01T08:58:25.000Z</time>
      </trkpt>
      <trkpt lat="48.30325" lon="7.27955">
        <ele>649</ele>
        <time>2000-01-01T08:58:35.000Z</time>
      </trkpt>
      <trkpt lat="48.30316" lon="7.27964">
        <ele>668.4</ele>
        <time>2000-01-01T08:58:45.000Z</time>
      </trkpt>
      <trkpt lat="48.30305" lon="7.27975">
        <ele>651</ele>
        <time>2000-01-01T08:58:55.000Z</time>
      </trkpt>
      <trkpt lat="48.30299" lon="7.27979">
        <ele>669.4</ele>
        <time>2000-01-01T08:59:05.000Z</time>
      </trkpt>
      <trkpt lat="48.30298" lon="7.27979">
        <ele>669.5</ele>
        <time>2000-01-01T08:59:15.000Z</time>
      </trkpt>
      <trkpt lat="48.30294" lon="7.27979">
        <ele>670</ele>
        <time>2000-01-01T08:59:25.000Z</time>
      </trkpt>
      <trkpt lat="48.30289" lon="7.27985">
        <ele>670.6</ele>
        <time>2000-01-01T08:59:35.000Z</time>
      </trkpt>
      <trkpt lat="48.30284" lon="7.27991">
        <ele>653</ele>
        <time>2000-01-01T08:59:45.000Z</time>
      </trkpt>
      <trkpt lat="48.30279" lon="7.27997">
        <ele>672</ele>
        <time>2000-01-01T08:59:55.000Z</time>
      </trkpt>
      <trkpt lat="48.30275" lon="7.27999">
        <ele>672.6</ele>
        <time>2000-01-01T09:00:05.000Z</time>
      </trkpt>
      <trkpt lat="48.30267" lon="7.28016">
        <ele>656</ele>
        <time>2000-01-01T09:00:15.000Z</time>
      </trkpt>
      <trkpt lat="48.30259" lon="7.28033">
        <ele>670</ele>
        <time>2000-01-01T09:00:25.000Z</time>
      </trkpt>
      <trkpt lat="48.30254" lon="7.28048">
        <ele>658</ele>
        <time>2000-01-01T09:00:35.000Z</time>
      </trkpt>
      <trkpt lat="48.30249" lon="7.28064">
        <ele>678.4</ele>
        <time>2000-01-01T09:00:45.000Z</time>
      </trkpt>
      <trkpt lat="48.30246" lon="7.28073">
        <ele>659</ele>
        <time>2000-01-01T09:00:55.000Z</time>
      </trkpt>
      <trkpt lat="48.30242" lon="7.28078">
        <ele>676.8</ele>
        <time>2000-01-01T09:01:05.000Z</time>
      </trkpt>
      <trkpt lat="48.30238" lon="7.28085">
        <ele>674.8</ele>
        <time>2000-01-01T09:01:15.000Z</time>
      </trkpt>
      <trkpt lat="48.30235" lon="7.28089">
        <ele>674.9</ele>
        <time>2000-01-01T09:01:25.000Z</time>
      </trkpt>
      <trkpt lat="48.30229" lon="7.28086">
        <ele>664</ele>
        <time>2000-01-01T09:01:35.000Z</time>
      </trkpt>
      <trkpt lat="48.30219" lon="7.28098">
        <ele>676.1</ele>
        <time>2000-01-01T09:01:45.000Z</time>
      </trkpt>
      <trkpt lat="48.30215" lon="7.28107">
        <ele>664</ele>
        <time>2000-01-01T09:01:55.000Z</time>
      </trkpt>
      <trkpt lat="48.30214" lon="7.28109">
        <ele>676.1</ele>
        <time>2000-01-01T09:02:05.000Z</time>
      </trkpt>
      <trkpt lat="48.30207" lon="7.28118">
        <ele>676.2</ele>
        <time>2000-01-01T09:02:15.000Z</time>
      </trkpt>
      <trkpt lat="48.30198" lon="7.28129">
        <ele>664</ele>
        <time>2000-01-01T09:02:25.000Z</time>
      </trkpt>
      <trkpt lat="48.30182" lon="7.28146">
        <ele>665</ele>
        <time>2000-01-01T09:02:35.000Z</time>
      </trkpt>
      <trkpt lat="48.3017" lon="7.28161">
        <ele>678.2</ele>
        <time>2000-01-01T09:02:45.000Z</time>
      </trkpt>
      <trkpt lat="48.30154" lon="7.28176">
        <ele>665</ele>
        <time>2000-01-01T09:02:55.000Z</time>
      </trkpt>
      <trkpt lat="48.30147" lon="7.28182">
        <ele>677.3</ele>
        <time>2000-01-01T09:03:05.000Z</time>
      </trkpt>
      <trkpt lat="48.30133" lon="7.28195">
        <ele>665</ele>
        <time>2000-01-01T09:03:15.000Z</time>
      </trkpt>
      <trkpt lat="48.30116" lon="7.28209">
        <ele>665</ele>
        <time>2000-01-01T09:03:25.000Z</time>
      </trkpt>
      <trkpt lat="48.30098" lon="7.28217">
        <ele>665</ele>
        <time>2000-01-01T09:03:35.000Z</time>
      </trkpt>
      <trkpt lat="48.3008" lon="7.28219">
        <ele>665</ele>
        <time>2000-01-01T09:03:45.000Z</time>
      </trkpt>
      <trkpt lat="48.30058" lon="7.2822">
        <ele>663</ele>
        <time>2000-01-01T09:03:55.000Z</time>
      </trkpt>
      <trkpt lat="48.30039" lon="7.28221">
        <ele>663</ele>
        <time>2000-01-01T09:04:05.000Z</time>
      </trkpt>
      <trkpt lat="48.30028" lon="7.28222">
        <ele>683.8</ele>
        <time>2000-01-01T09:04:15.000Z</time>
      </trkpt>
      <trkpt lat="48.30014" lon="7.28222">
        <ele>665</ele>
        <time>2000-01-01T09:04:25.000Z</time>
      </trkpt>
      <trkpt lat="48.30012" lon="7.28222">
        <ele>683.7</ele>
        <time>2000-01-01T09:04:35.000Z</time>
      </trkpt>
      <trkpt lat="48.30001" lon="7.28222">
        <ele>683.7</ele>
        <time>2000-01-01T09:04:45.000Z</time>
      </trkpt>
      <trkpt lat="48.2999" lon="7.28222">
        <ele>667</ele>
        <time>2000-01-01T09:04:55.000Z</time>
      </trkpt>
      <trkpt lat="48.2997" lon="7.28221">
        <ele>668</ele>
        <time>2000-01-01T09:05:05.000Z</time>
      </trkpt>
      <trkpt lat="48.29958" lon="7.2822">
        <ele>688.6</ele>
        <time>2000-01-01T09:05:15.000Z</time>
      </trkpt>
      <trkpt lat="48.29957" lon="7.28219">
        <ele>688.7</ele>
        <time>2000-01-01T09:05:25.000Z</time>
      </trkpt>
      <trkpt lat="48.29944" lon="7.2822">
        <ele>669</ele>
        <time>2000-01-01T09:05:35.000Z</time>
      </trkpt>
      <trkpt lat="48.29941" lon="7.2822">
        <ele>688.9</ele>
        <time>2000-01-01T09:05:45.000Z</time>
      </trkpt>
      <trkpt lat="48.29932" lon="7.28219">
        <ele>689</ele>
        <time>2000-01-01T09:05:55.000Z</time>
      </trkpt>
      <trkpt lat="48.29927" lon="7.28217">
        <ele>689.3</ele>
        <time>2000-01-01T09:06:05.000Z</time>
      </trkpt>
      <trkpt lat="48.29919" lon="7.28215">
        <ele>674</ele>
        <time>2000-01-01T09:06:15.000Z</time>
      </trkpt>
      <trkpt lat="48.29905" lon="7.28218">
        <ele>694.2</ele>
        <time>2000-01-01T09:06:25.000Z</time>
      </trkpt>
      <trkpt lat="48.2989" lon="7.28219">
        <ele>676</ele>
        <time>2000-01-01T09:06:35.000Z</time>
      </trkpt>
      <trkpt lat="48.29887" lon="7.2822">
        <ele>695.3</ele>
        <time>2000-01-01T09:06:45.000Z</time>
      </trkpt>
      <trkpt lat="48.29879" lon="7.28223">
        <ele>695.7</ele>
        <time>2000-01-01T09:06:55.000Z</time>
      </trkpt>
      <trkpt lat="48.29869" lon="7.28225">
        <ele>679</ele>
        <time>2000-01-01T09:07:05.000Z</time>
      </trkpt>
      <trkpt lat="48.29853" lon="7.28227">
        <ele>697</ele>
        <time>2000-01-01T09:07:15.000Z</time>
      </trkpt>
      <trkpt lat="48.29843" lon="7.28233">
        <ele>680</ele>
        <time>2000-01-01T09:07:25.000Z</time>
      </trkpt>
      <trkpt lat="48.29835" lon="7.28236">
        <ele>696.7</ele>
        <time>2000-01-01T09:07:35.000Z</time>
      </trkpt>
      <trkpt lat="48.29834" lon="7.28236">
        <ele>696.8</ele>
        <time>2000-01-01T09:07:45.000Z</time>
      </trkpt>
      <trkpt lat="48.29823" lon="7.2824">
        <ele>681</ele>
        <time>2000-01-01T09:07:55.000Z</time>
      </trkpt>
      <trkpt lat="48.29816" lon="7.28242">
        <ele>700.7</ele>
        <time>2000-01-01T09:08:05.000Z</time>
      </trkpt>
      <trkpt lat="48.29802" lon="7.28247">
        <ele>684</ele>
        <time>2000-01-01T09:08:15.000Z</time>
      </trkpt>
      <trkpt lat="48.29786" lon="7.28246">
        <ele>703.4</ele>
        <time>2000-01-01T09:08:25.000Z</time>
      </trkpt>
      <trkpt lat="48.29782" lon="7.28244">
        <ele>685</ele>
        <time>2000-01-01T09:08:35.000Z</time>
      </trkpt>
      <trkpt lat="48.29772" lon="7.28242">
        <ele>704.2</ele>
        <time>2000-01-01T09:08:45.000Z</time>
      </trkpt>
      <trkpt lat="48.29768" lon="7.28242">
        <ele>704.3</ele>
        <time>2000-01-01T09:08:55.000Z</time>
      </trkpt>
      <trkpt lat="48.29757" lon="7.28245">
        <ele>688</ele>
        <time>2000-01-01T09:09:05.000Z</time>
      </trkpt>
      <trkpt lat="48.29747" lon="7.28245">
        <ele>705.7</ele>
        <time>2000-01-01T09:09:15.000Z</time>
      </trkpt>
      <trkpt lat="48.29744" lon="7.28245">
        <ele>705.9</ele>
        <time>2000-01-01T09:09:25.000Z</time>
      </trkpt>
      <trkpt lat="48.29734" lon="7.28247">
        <ele>691</ele>
        <time>2000-01-01T09:09:35.000Z</time>
      </trkpt>
      <trkpt lat="48.29727" lon="7.28246">
        <ele>707.1</ele>
        <time>2000-01-01T09:09:45.000Z</time>
      </trkpt>
      <trkpt lat="48.29721" lon="7.28244">
        <ele>707.5</ele>
        <time>2000-01-01T09:09:55.000Z</time>
      </trkpt>
      <trkpt lat="48.29714" lon="7.28244">
        <ele>694</ele>
        <time>2000-01-01T09:10:05.000Z</time>
      </trkpt>
      <trkpt lat="48.29713" lon="7.28244">
        <ele>707.9</ele>
        <time>2000-01-01T09:10:15.000Z</time>
      </trkpt>
      <trkpt lat="48.29704" lon="7.28245">
        <ele>708.4</ele>
        <time>2000-01-01T09:10:25.000Z</time>
      </trkpt>
      <trkpt lat="48.29696" lon="7.28247">
        <ele>697</ele>
        <time>2000-01-01T09:10:35.000Z</time>
      </trkpt>
      <trkpt lat="48.29692" lon="7.28248">
        <ele>709.2</ele>
        <time>2000-01-01T09:10:45.000Z</time>
      </trkpt>
      <trkpt lat="48.29686" lon="7.2825">
        <ele>709.7</ele>
        <time>2000-01-01T09:10:55.000Z</time>
      </trkpt>
      <trkpt lat="48.2968" lon="7.28251">
        <ele>710.7</ele>
        <time>2000-01-01T09:11:05.000Z</time>
      </trkpt>
      <trkpt lat="48.29665" lon="7.28262">
        <ele>700</ele>
        <time>2000-01-01T09:11:15.000Z</time>
      </trkpt>
      <trkpt lat="48.29658" lon="7.28275">
        <ele>714.8</ele>
        <time>2000-01-01T09:11:25.000Z</time>
      </trkpt>
      <trkpt lat="48.29656" lon="7.2828">
        <ele>715.1</ele>
        <time>2000-01-01T09:11:35.000Z</time>
      </trkpt>
      <trkpt lat="48.29651" lon="7.28274">
        <ele>701</ele>
        <time>2000-01-01T09:11:45.000Z</time>
      </trkpt>
      <trkpt lat="48.29648" lon="7.28267">
        <ele>714.7</ele>
        <time>2000-01-01T09:11:55.000Z</time>
      </trkpt>
      <trkpt lat="48.29644" lon="7.28252">
        <ele>714.3</ele>
        <time>2000-01-01T09:12:05.000Z</time>
      </trkpt>
      <trkpt lat="48.29641" lon="7.28244">
        <ele>701</ele>
        <time>2000-01-01T09:12:15.000Z</time>
      </trkpt>
      <trkpt lat="48.29635" lon="7.28241">
        <ele>709.3</ele>
        <time>2000-01-01T09:12:25.000Z</time>
      </trkpt>
      <trkpt lat="48.29632" lon="7.28244">
        <ele>709.3</ele>
        <time>2000-01-01T09:12:35.000Z</time>
      </trkpt>
      <trkpt lat="48.29629" lon="7.28253">
        <ele>714.9</ele>
        <time>2000-01-01T09:12:45.000Z</time>
      </trkpt>
      <trkpt lat="48.29624" lon="7.28266">
        <ele>703</ele>
        <time>2000-01-01T09:12:55.000Z</time>
      </trkpt>
      <trkpt lat="48.29616" lon="7.28283">
        <ele>716.3</ele>
        <time>2000-01-01T09:13:05.000Z</time>
      </trkpt>
      <trkpt lat="48.2961" lon="7.28303">
        <ele>706</ele>
        <time>2000-01-01T09:13:15.000Z</time>
      </trkpt>
      <trkpt lat="48.29609" lon="7.28309">
        <ele>718.2</ele>
        <time>2000-01-01T09:13:25.000Z</time>
      </trkpt>
      <trkpt lat="48.29608" lon="7.28314">
        <ele>718.7</ele>
        <time>2000-01-01T09:13:35.000Z</time>
      </trkpt>
      <trkpt lat="48.29607" lon="7.28315">
        <ele>718.8</ele>
        <time>2000-01-01T09:13:45.000Z</time>
      </trkpt>
      <trkpt lat="48.29605" lon="7.28324">
        <ele>719.7</ele>
        <time>2000-01-01T09:13:55.000Z</time>
      </trkpt>
      <trkpt lat="48.29603" lon="7.28328">
        <ele>720.2</ele>
        <time>2000-01-01T09:14:05.000Z</time>
      </trkpt>
      <trkpt lat="48.29598" lon="7.2834">
        <ele>709</ele>
        <time>2000-01-01T09:14:15.000Z</time>
      </trkpt>
      <trkpt lat="48.29593" lon="7.28349">
        <ele>725.5</ele>
        <time>2000-01-01T09:14:25.000Z</time>
      </trkpt>
      <trkpt lat="48.29592" lon="7.28353">
        <ele>725.7</ele>
        <time>2000-01-01T09:14:35.000Z</time>
      </trkpt>
      <trkpt lat="48.2959" lon="7.28359">
        <ele>726.1</ele>
        <time>2000-01-01T09:14:45.000Z</time>
      </trkpt>
      <trkpt lat="48.29589" lon="7.28362">
        <ele>726.3</ele>
        <time>2000-01-01T09:14:55.000Z</time>
      </trkpt>
      <trkpt lat="48.29586" lon="7.28369">
        <ele>714</ele>
        <time>2000-01-01T09:15:05.000Z</time>
      </trkpt>
      <trkpt lat="48.29584" lon="7.28373">
        <ele>727.4</ele>
        <time>2000-01-01T09:15:15.000Z</time>
      </trkpt>
      <trkpt lat="48.29583" lon="7.2838">
        <ele>731.9</ele>
        <time>2000-01-01T09:15:25.000Z</time>
      </trkpt>
      <trkpt lat="48.29582" lon="7.28385">
        <ele>732.5</ele>
        <time>2000-01-01T09:15:35.000Z</time>
      </trkpt>
      <trkpt lat="48.29581" lon="7.2839">
        <ele>733</ele>
        <time>2000-01-01T09:15:45.000Z</time>
      </trkpt>
      <trkpt lat="48.29578" lon="7.28396">
        <ele>719</ele>
        <time>2000-01-01T09:15:55.000Z</time>
      </trkpt>
      <trkpt lat="48.29573" lon="7.28401">
        <ele>734.2</ele>
        <time>2000-01-01T09:16:05.000Z</time>
      </trkpt>
      <trkpt lat="48.29569" lon="7.28407">
        <ele>734.5</ele>
        <time>2000-01-01T09:16:15.000Z</time>
      </trkpt>
      <trkpt lat="48.29566" lon="7.28411">
        <ele>734.6</ele>
        <time>2000-01-01T09:16:25.000Z</time>
      </trkpt>
      <trkpt lat="48.29564" lon="7.28418">
        <ele>722</ele>
        <time>2000-01-01T09:16:35.000Z</time>
      </trkpt>
      <trkpt lat="48.29563" lon="7.28423">
        <ele>742.6</ele>
        <time>2000-01-01T09:16:45.000Z</time>
      </trkpt>
      <trkpt lat="48.29561" lon="7.28428">
        <ele>743.3</ele>
        <time>2000-01-01T09:16:55.000Z</time>
      </trkpt>
      <trkpt lat="48.29558" lon="7.28432">
        <ele>743.9</ele>
        <time>2000-01-01T09:17:05.000Z</time>
      </trkpt>
      <trkpt lat="48.29556" lon="7.28437">
        <ele>744.6</ele>
        <time>2000-01-01T09:17:15.000Z</time>
      </trkpt>
      <trkpt lat="48.29554" lon="7.28439">
        <ele>744.9</ele>
        <time>2000-01-01T09:17:25.000Z</time>
      </trkpt>
      <trkpt lat="48.29551" lon="7.28442">
        <ele>729</ele>
        <time>2000-01-01T09:17:35.000Z</time>
      </trkpt>
      <trkpt lat="48.29549" lon="7.28445">
        <ele>745.7</ele>
        <time>2000-01-01T09:17:45.000Z</time>
      </trkpt>
      <trkpt lat="48.29548" lon="7.28447">
        <ele>746</ele>
        <time>2000-01-01T09:17:55.000Z</time>
      </trkpt>
      <trkpt lat="48.29545" lon="7.28452">
        <ele>746.5</ele>
        <time>2000-01-01T09:18:05.000Z</time>
      </trkpt>
      <trkpt lat="48.29544" lon="7.28458">
        <ele>747.1</ele>
        <time>2000-01-01T09:18:15.000Z</time>
      </trkpt>
      <trkpt lat="48.29544" lon="7.2846">
        <ele>747.3</ele>
        <time>2000-01-01T09:18:25.000Z</time>
      </trkpt>
      <trkpt lat="48.29544" lon="7.28465">
        <ele>734</ele>
        <time>2000-01-01T09:18:35.000Z</time>
      </trkpt>
      <trkpt lat="48.29546" lon="7.28468">
        <ele>748</ele>
        <time>2000-01-01T09:18:45.000Z</time>
      </trkpt>
      <trkpt lat="48.29547" lon="7.28474">
        <ele>748.4</ele>
        <time>2000-01-01T09:18:55.000Z</time>
      </trkpt>
      <trkpt lat="48.2955" lon="7.28479">
        <ele>748.7</ele>
        <time>2000-01-01T09:19:05.000Z</time>
      </trkpt>
      <trkpt lat="48.29549" lon="7.28484">
        <ele>749.1</ele>
        <time>2000-01-01T09:19:15.000Z</time>
      </trkpt>
      <trkpt lat="48.29549" lon="7.28488">
        <ele>749.3</ele>
        <time>2000-01-01T09:19:25.000Z</time>
      </trkpt>
      <trkpt lat="48.29549" lon="7.28494">
        <ele>738</ele>
        <time>2000-01-01T09:19:35.000Z</time>
      </trkpt>
      <trkpt lat="48.29549" lon="7.28497">
        <ele>749.7</ele>
        <time>2000-01-01T09:19:45.000Z</time>
      </trkpt>
      <trkpt lat="48.29551" lon="7.28503">
        <ele>759.8</ele>
        <time>2000-01-01T09:19:55.000Z</time>
      </trkpt>
      <trkpt lat="48.29554" lon="7.28505">
        <ele>759.5</ele>
        <time>2000-01-01T09:20:05.000Z</time>
      </trkpt>
      <trkpt lat="48.29557" lon="7.28508">
        <ele>759.3</ele>
        <time>2000-01-01T09:20:15.000Z</time>
      </trkpt>
      <trkpt lat="48.29559" lon="7.28517">
        <ele>741</ele>
        <time>2000-01-01T09:20:25.000Z</time>
      </trkpt>
      <trkpt lat="48.29559" lon="7.28528">
        <ele>761.4</ele>
        <time>2000-01-01T09:20:35.000Z</time>
      </trkpt>
      <trkpt lat="48.29559" lon="7.2853">
        <ele>761.6</ele>
        <time>2000-01-01T09:20:45.000Z</time>
      </trkpt>
      <trkpt lat="48.29558" lon="7.28535">
        <ele>762.3</ele>
        <time>2000-01-01T09:20:55.000Z</time>
      </trkpt>
      <trkpt lat="48.29558" lon="7.28536">
        <ele>762.5</ele>
        <time>2000-01-01T09:21:05.000Z</time>
      </trkpt>
      <trkpt lat="48.29553" lon="7.28549">
        <ele>747</ele>
        <time>2000-01-01T09:21:15.000Z</time>
      </trkpt>
      <trkpt lat="48.29552" lon="7.2855">
        <ele>764.4</ele>
        <time>2000-01-01T09:21:25.000Z</time>
      </trkpt>
      <trkpt lat="48.2955" lon="7.28555">
        <ele>764.9</ele>
        <time>2000-01-01T09:21:35.000Z</time>
      </trkpt>
      <trkpt lat="48.29545" lon="7.28563">
        <ele>765.9</ele>
        <time>2000-01-01T09:21:45.000Z</time>
      </trkpt>
      <trkpt lat="48.29541" lon="7.28568">
        <ele>750</ele>
        <time>2000-01-01T09:21:55.000Z</time>
      </trkpt>
      <trkpt lat="48.29537" lon="7.2857">
        <ele>767.1</ele>
        <time>2000-01-01T09:22:05.000Z</time>
      </trkpt>
      <trkpt lat="48.29536" lon="7.2857">
        <ele>767.2</ele>
        <time>2000-01-01T09:22:15.000Z</time>
      </trkpt>
      <trkpt lat="48.29533" lon="7.28572">
        <ele>767.7</ele>
        <time>2000-01-01T09:22:25.000Z</time>
      </trkpt>
      <trkpt lat="48.29532" lon="7.28574">
        <ele>768</ele>
        <time>2000-01-01T09:22:35.000Z</time>
      </trkpt>
      <trkpt lat="48.29531" lon="7.28576">
        <ele>768.3</ele>
        <time>2000-01-01T09:22:45.000Z</time>
      </trkpt>
      <trkpt lat="48.29526" lon="7.2858">
        <ele>769.3</ele>
        <time>2000-01-01T09:22:55.000Z</time>
      </trkpt>
      <trkpt lat="48.29526" lon="7.28581">
        <ele>762</ele>
        <time>2000-01-01T09:23:05.000Z</time>
      </trkpt>
      <trkpt lat="48.2952" lon="7.28583">
        <ele>770.7</ele>
        <time>2000-01-01T09:23:15.000Z</time>
      </trkpt>
      <trkpt lat="48.29515" lon="7.28582">
        <ele>771.9</ele>
        <time>2000-01-01T09:23:25.000Z</time>
      </trkpt>
      <trkpt lat="48.29514" lon="7.28582">
        <ele>772.2</ele>
        <time>2000-01-01T09:23:35.000Z</time>
      </trkpt>
      <trkpt lat="48.29509" lon="7.28583">
        <ele>773.8</ele>
        <time>2000-01-01T09:23:45.000Z</time>
      </trkpt>
      <trkpt lat="48.29502" lon="7.28582">
        <ele>765</ele>
        <time>2000-01-01T09:23:55.000Z</time>
      </trkpt>
      <trkpt lat="48.29499" lon="7.28581">
        <ele>776.8</ele>
        <time>2000-01-01T09:24:05.000Z</time>
      </trkpt>
      <trkpt lat="48.29498" lon="7.2858">
        <ele>776.2</ele>
        <time>2000-01-01T09:24:15.000Z</time>
      </trkpt>
      <trkpt lat="48.29492" lon="7.28576">
        <ele>773.6</ele>
        <time>2000-01-01T09:24:25.000Z</time>
      </trkpt>
      <trkpt lat="48.29485" lon="7.28573">
        <ele>768</ele>
        <time>2000-01-01T09:24:35.000Z</time>
      </trkpt>
      <trkpt lat="48.29477" lon="7.28572">
        <ele>770.3</ele>
        <time>2000-01-01T09:24:45.000Z</time>
      </trkpt>
      <trkpt lat="48.29473" lon="7.28573">
        <ele>769.9</ele>
        <time>2000-01-01T09:24:55.000Z</time>
      </trkpt>
      <trkpt lat="48.29472" lon="7.28574">
        <ele>769.9</ele>
        <time>2000-01-01T09:25:05.000Z</time>
      </trkpt>
      <trkpt lat="48.29469" lon="7.28577">
        <ele>769.9</ele>
        <time>2000-01-01T09:25:15.000Z</time>
      </trkpt>
      <trkpt lat="48.29467" lon="7.28579">
        <ele>770</ele>
        <time>2000-01-01T09:25:25.000Z</time>
      </trkpt>
      <trkpt lat="48.29465" lon="7.28583">
        <ele>769.9</ele>
        <time>2000-01-01T09:25:35.000Z</time>
      </trkpt>
      <trkpt lat="48.29464" lon="7.28586">
        <ele>781.8</ele>
        <time>2000-01-01T09:25:45.000Z</time>
      </trkpt>
      <trkpt lat="48.29464" lon="7.28592">
        <ele>782.1</ele>
        <time>2000-01-01T09:25:55.000Z</time>
      </trkpt>
      <trkpt lat="48.29466" lon="7.286">
        <ele>782.6</ele>
        <time>2000-01-01T09:26:05.000Z</time>
      </trkpt>
      <trkpt lat="48.29464" lon="7.28607">
        <ele>775</ele>
        <time>2000-01-01T09:26:15.000Z</time>
      </trkpt>
      <trkpt lat="48.29464" lon="7.28619">
        <ele>784.2</ele>
        <time>2000-01-01T09:26:25.000Z</time>
      </trkpt>
      <trkpt lat="48.29465" lon="7.28632">
        <ele>785.6</ele>
        <time>2000-01-01T09:26:35.000Z</time>
      </trkpt>
      <trkpt lat="48.29464" lon="7.2864">
        <ele>779</ele>
        <time>2000-01-01T09:26:45.000Z</time>
      </trkpt>
      <trkpt lat="48.29464" lon="7.28641">
        <ele>786.4</ele>
        <time>2000-01-01T09:26:55.000Z</time>
      </trkpt>
      <trkpt lat="48.29459" lon="7.28655">
        <ele>787.4</ele>
        <time>2000-01-01T09:27:05.000Z</time>
      </trkpt>
      <trkpt lat="48.29456" lon="7.28666">
        <ele>783</ele>
        <time>2000-01-01T09:27:15.000Z</time>
      </trkpt>
      <trkpt lat="48.29455" lon="7.2867">
        <ele>796.3</ele>
        <time>2000-01-01T09:27:25.000Z</time>
      </trkpt>
      <trkpt lat="48.29451" lon="7.28682">
        <ele>796.6</ele>
        <time>2000-01-01T09:27:35.000Z</time>
      </trkpt>
      <trkpt lat="48.29442" lon="7.28701">
        <ele>787</ele>
        <time>2000-01-01T09:27:45.000Z</time>
      </trkpt>
      <trkpt lat="48.29439" lon="7.28705">
        <ele>797.9</ele>
        <time>2000-01-01T09:27:55.000Z</time>
      </trkpt>
      <trkpt lat="48.29425" lon="7.28718">
        <ele>787</ele>
        <time>2000-01-01T09:28:05.000Z</time>
      </trkpt>
      <trkpt lat="48.2942" lon="7.2872">
        <ele>799.4</ele>
        <time>2000-01-01T09:28:15.000Z</time>
      </trkpt>
      <trkpt lat="48.29413" lon="7.28726">
        <ele>797.8</ele>
        <time>2000-01-01T09:28:25.000Z</time>
      </trkpt>
      <trkpt lat="48.29394" lon="7.28736">
        <ele>787</ele>
        <time>2000-01-01T09:28:35.000Z</time>
      </trkpt>
      <trkpt lat="48.29381" lon="7.28742">
        <ele>796.9</ele>
        <time>2000-01-01T09:28:45.000Z</time>
      </trkpt>
      <trkpt lat="48.29366" lon="7.28748">
        <ele>788</ele>
        <time>2000-01-01T09:28:55.000Z</time>
      </trkpt>
      <trkpt lat="48.29355" lon="7.28756">
        <ele>802.8</ele>
        <time>2000-01-01T09:29:05.000Z</time>
      </trkpt>
      <trkpt lat="48.29351" lon="7.28759">
        <ele>802.6</ele>
        <time>2000-01-01T09:29:15.000Z</time>
      </trkpt>
      <trkpt lat="48.2935" lon="7.28759">
        <ele>802.5</ele>
        <time>2000-01-01T09:29:25.000Z</time>
      </trkpt>
      <trkpt lat="48.29345" lon="7.28763">
        <ele>789</ele>
        <time>2000-01-01T09:29:35.000Z</time>
      </trkpt>
      <trkpt lat="48.29339" lon="7.28771">
        <ele>802.9</ele>
        <time>2000-01-01T09:29:45.000Z</time>
      </trkpt>
      <trkpt lat="48.29336" lon="7.28778">
        <ele>803.7</ele>
        <time>2000-01-01T09:29:55.000Z</time>
      </trkpt>
      <trkpt lat="48.29332" lon="7.28788">
        <ele>792</ele>
        <time>2000-01-01T09:30:05.000Z</time>
      </trkpt>
      <trkpt lat="48.29332" lon="7.28797">
        <ele>803.4</ele>
        <time>2000-01-01T09:30:15.000Z</time>
      </trkpt>
      <trkpt lat="48.2933" lon="7.28803">
        <ele>804</ele>
        <time>2000-01-01T09:30:25.000Z</time>
      </trkpt>
      <trkpt lat="48.29329" lon="7.28816">
        <ele>795</ele>
        <time>2000-01-01T09:30:35.000Z</time>
      </trkpt>
      <trkpt lat="48.29331" lon="7.28823">
        <ele>806.7</ele>
        <time>2000-01-01T09:30:45.000Z</time>
      </trkpt>
      <trkpt lat="48.29331" lon="7.28828">
        <ele>807.6</ele>
        <time>2000-01-01T09:30:55.000Z</time>
      </trkpt>
      <trkpt lat="48.29328" lon="7.28839">
        <ele>809.3</ele>
        <time>2000-01-01T09:31:05.000Z</time>
      </trkpt>
      <trkpt lat="48.29326" lon="7.2884">
        <ele>809.4</ele>
        <time>2000-01-01T09:31:15.000Z</time>
      </trkpt>
      <trkpt lat="48.29318" lon="7.28846">
        <ele>797</ele>
        <time>2000-01-01T09:31:25.000Z</time>
      </trkpt>
      <trkpt lat="48.29312" lon="7.28862">
        <ele>810</ele>
        <time>2000-01-01T09:31:35.000Z</time>
      </trkpt>
      <trkpt lat="48.29306" lon="7.28878">
        <ele>799</ele>
        <time>2000-01-01T09:31:45.000Z</time>
      </trkpt>
      <trkpt lat="48.29305" lon="7.28892">
        <ele>811</ele>
        <time>2000-01-01T09:31:55.000Z</time>
      </trkpt>
      <trkpt lat="48.29303" lon="7.2891">
        <ele>802</ele>
        <time>2000-01-01T09:32:05.000Z</time>
      </trkpt>
      <trkpt lat="48.29302" lon="7.2892">
        <ele>814.1</ele>
        <time>2000-01-01T09:32:15.000Z</time>
      </trkpt>
      <trkpt lat="48.293" lon="7.28928">
        <ele>814.1</ele>
        <time>2000-01-01T09:32:25.000Z</time>
      </trkpt>
      <trkpt lat="48.29299" lon="7.28932">
        <ele>814.1</ele>
        <time>2000-01-01T09:32:35.000Z</time>
      </trkpt>
      <trkpt lat="48.29289" lon="7.28957">
        <ele>802</ele>
        <time>2000-01-01T09:32:45.000Z</time>
      </trkpt>
      <trkpt lat="48.29274" lon="7.28978">
        <ele>802</ele>
        <time>2000-01-01T09:32:55.000Z</time>
      </trkpt>
      <trkpt lat="48.29269" lon="7.28991">
        <ele>813.1</ele>
        <time>2000-01-01T09:33:05.000Z</time>
      </trkpt>
      <trkpt lat="48.29268" lon="7.28997">
        <ele>813</ele>
        <time>2000-01-01T09:33:15.000Z</time>
      </trkpt>
      <trkpt lat="48.29265" lon="7.29021">
        <ele>800</ele>
        <time>2000-01-01T09:33:25.000Z</time>
      </trkpt>
      <trkpt lat="48.29258" lon="7.29029">
        <ele>808.2</ele>
        <time>2000-01-01T09:33:35.000Z</time>
      </trkpt>
      <trkpt lat="48.29252" lon="7.29035">
        <ele>807.2</ele>
        <time>2000-01-01T09:33:45.000Z</time>
      </trkpt>
      <trkpt lat="48.2924" lon="7.29043">
        <ele>796</ele>
        <time>2000-01-01T09:33:55.000Z</time>
      </trkpt>
      <trkpt lat="48.29224" lon="7.29049">
        <ele>798.7</ele>
        <time>2000-01-01T09:34:05.000Z</time>
      </trkpt>
      <trkpt lat="48.29203" lon="7.29055">
        <ele>793</ele>
        <time>2000-01-01T09:34:15.000Z</time>
      </trkpt>
      <trkpt lat="48.29186" lon="7.29055">
        <ele>796.8</ele>
        <time>2000-01-01T09:34:25.000Z</time>
      </trkpt>
      <trkpt lat="48.29176" lon="7.29055">
        <ele>791</ele>
        <time>2000-01-01T09:34:35.000Z</time>
      </trkpt>
      <trkpt lat="48.29154" lon="7.29059">
        <ele>789</ele>
        <time>2000-01-01T09:34:45.000Z</time>
      </trkpt>
      <trkpt lat="48.29134" lon="7.29057">
        <ele>789</ele>
        <time>2000-01-01T09:34:55.000Z</time>
      </trkpt>
      <trkpt lat="48.29111" lon="7.29063">
        <ele>788</ele>
        <time>2000-01-01T09:35:05.000Z</time>
      </trkpt>
      <trkpt lat="48.29101" lon="7.29066">
        <ele>786.2</ele>
        <time>2000-01-01T09:35:15.000Z</time>
      </trkpt>
      <trkpt lat="48.29089" lon="7.29064">
        <ele>785</ele>
        <time>2000-01-01T09:35:25.000Z</time>
      </trkpt>
      <trkpt lat="48.29084" lon="7.29059">
        <ele>785.9</ele>
        <time>2000-01-01T09:35:35.000Z</time>
      </trkpt>
      <trkpt lat="48.29084" lon="7.29058">
        <ele>786</ele>
        <time>2000-01-01T09:35:45.000Z</time>
      </trkpt>
      <trkpt lat="48.29074" lon="7.29056">
        <ele>775.4</ele>
        <time>2000-01-01T09:35:55.000Z</time>
      </trkpt>
      <trkpt lat="48.29058" lon="7.29051">
        <ele>779</ele>
        <time>2000-01-01T09:36:05.000Z</time>
      </trkpt>
      <trkpt lat="48.29056" lon="7.2905">
        <ele>773.5</ele>
        <time>2000-01-01T09:36:15.000Z</time>
      </trkpt>
      <trkpt lat="48.29055" lon="7.29049">
        <ele>773.4</ele>
        <time>2000-01-01T09:36:25.000Z</time>
      </trkpt>
      <trkpt lat="48.29054" lon="7.29049">
        <ele>773.3</ele>
        <time>2000-01-01T09:36:35.000Z</time>
      </trkpt>
      <trkpt lat="48.29051" lon="7.29049">
        <ele>772.9</ele>
        <time>2000-01-01T09:36:45.000Z</time>
      </trkpt>
      <trkpt lat="48.29047" lon="7.29054">
        <ele>772.3</ele>
        <time>2000-01-01T09:36:55.000Z</time>
      </trkpt>
      <trkpt lat="48.29046" lon="7.29055">
        <ele>772.1</ele>
        <time>2000-01-01T09:37:05.000Z</time>
      </trkpt>
      <trkpt lat="48.29043" lon="7.29059">
        <ele>771.6</ele>
        <time>2000-01-01T09:37:15.000Z</time>
      </trkpt>
      <trkpt lat="48.29038" lon="7.29061">
        <ele>772</ele>
        <time>2000-01-01T09:37:25.000Z</time>
      </trkpt>
      <trkpt lat="48.29033" lon="7.29059">
        <ele>770.1</ele>
        <time>2000-01-01T09:37:35.000Z</time>
      </trkpt>
      <trkpt lat="48.29031" lon="7.29057">
        <ele>769.9</ele>
        <time>2000-01-01T09:37:45.000Z</time>
      </trkpt>
      <trkpt lat="48.2903" lon="7.29056">
        <ele>769.8</ele>
        <time>2000-01-01T09:37:55.000Z</time>
      </trkpt>
      <trkpt lat="48.29027" lon="7.29059">
        <ele>769.2</ele>
        <time>2000-01-01T09:38:05.000Z</time>
      </trkpt>
      <trkpt lat="48.29026" lon="7.29059">
        <ele>769</ele>
        <time>2000-01-01T09:38:15.000Z</time>
      </trkpt>
      <trkpt lat="48.29026" lon="7.29062">
        <ele>768.9</ele>
        <time>2000-01-01T09:38:25.000Z</time>
      </trkpt>
      <trkpt lat="48.29026" lon="7.29064">
        <ele>768.8</ele>
        <time>2000-01-01T09:38:35.000Z</time>
      </trkpt>
      <trkpt lat="48.29025" lon="7.29066">
        <ele>767</ele>
        <time>2000-01-01T09:38:45.000Z</time>
      </trkpt>
      <trkpt lat="48.29025" lon="7.29069">
        <ele>768.3</ele>
        <time>2000-01-01T09:38:55.000Z</time>
      </trkpt>
      <trkpt lat="48.29024" lon="7.29075">
        <ele>767.8</ele>
        <time>2000-01-01T09:39:05.000Z</time>
      </trkpt>
      <trkpt lat="48.29024" lon="7.29078">
        <ele>767.6</ele>
        <time>2000-01-01T09:39:15.000Z</time>
      </trkpt>
      <trkpt lat="48.2902" lon="7.29083">
        <ele>766.6</ele>
        <time>2000-01-01T09:39:25.000Z</time>
      </trkpt>
      <trkpt lat="48.2902" lon="7.29083">
        <ele>766.6</ele>
        <time>2000-01-01T09:39:35.000Z</time>
      </trkpt>
      <trkpt lat="48.29019" lon="7.29084">
        <ele>756</ele>
        <time>2000-01-01T09:39:45.000Z</time>
      </trkpt>
      <trkpt lat="48.29018" lon="7.29083">
        <ele>766.1</ele>
        <time>2000-01-01T09:39:55.000Z</time>
      </trkpt>
      <trkpt lat="48.29013" lon="7.29088">
        <ele>756</ele>
        <time>2000-01-01T09:40:05.000Z</time>
      </trkpt>
      <trkpt lat="48.29011" lon="7.2909">
        <ele>756.3</ele>
        <time>2000-01-01T09:40:15.000Z</time>
      </trkpt>
      <trkpt lat="48.29011" lon="7.2909">
        <ele>756.3</ele>
        <time>2000-01-01T09:40:25.000Z</time>
      </trkpt>
      <trkpt lat="48.29009" lon="7.2909">
        <ele>756.6</ele>
        <time>2000-01-01T09:40:35.000Z</time>
      </trkpt>
      <trkpt lat="48.29004" lon="7.29092">
        <ele>756.7</ele>
        <time>2000-01-01T09:40:45.000Z</time>
      </trkpt>
      <trkpt lat="48.28999" lon="7.29097">
        <ele>749</ele>
        <time>2000-01-01T09:40:55.000Z</time>
      </trkpt>
      <trkpt lat="48.28997" lon="7.29099">
        <ele>748</ele>
        <time>2000-01-01T09:41:05.000Z</time>
      </trkpt>
      <trkpt lat="48.28991" lon="7.29104">
        <ele>744.2</ele>
        <time>2000-01-01T09:41:15.000Z</time>
      </trkpt>
      <trkpt lat="48.28989" lon="7.29105">
        <ele>743.4</ele>
        <time>2000-01-01T09:41:25.000Z</time>
      </trkpt>
      <trkpt lat="48.28984" lon="7.29111">
        <ele>740.5</ele>
        <time>2000-01-01T09:41:35.000Z</time>
      </trkpt>
      <trkpt lat="48.28983" lon="7.29112">
        <ele>740</ele>
        <time>2000-01-01T09:41:45.000Z</time>
      </trkpt>
      <trkpt lat="48.28978" lon="7.29114">
        <ele>739</ele>
        <time>2000-01-01T09:41:55.000Z</time>
      </trkpt>
      <trkpt lat="48.28972" lon="7.29119">
        <ele>736.7</ele>
        <time>2000-01-01T09:42:05.000Z</time>
      </trkpt>
      <trkpt lat="48.28966" lon="7.29124">
        <ele>735</ele>
        <time>2000-01-01T09:42:15.000Z</time>
      </trkpt>
      <trkpt lat="48.28963" lon="7.29125">
        <ele>734.5</ele>
        <time>2000-01-01T09:42:25.000Z</time>
      </trkpt>
      <trkpt lat="48.2896" lon="7.29126">
        <ele>735</ele>
        <time>2000-01-01T09:42:35.000Z</time>
      </trkpt>
      <trkpt lat="48.28958" lon="7.29125">
        <ele>734</ele>
        <time>2000-01-01T09:42:45.000Z</time>
      </trkpt>
      <trkpt lat="48.28953" lon="7.29125">
        <ele>733.4</ele>
        <time>2000-01-01T09:42:55.000Z</time>
      </trkpt>
      <trkpt lat="48.28951" lon="7.29127">
        <ele>732.9</ele>
        <time>2000-01-01T09:43:05.000Z</time>
      </trkpt>
      <trkpt lat="48.28948" lon="7.29128">
        <ele>732.4</ele>
        <time>2000-01-01T09:43:15.000Z</time>
      </trkpt>
      <trkpt lat="48.28945" lon="7.2913">
        <ele>731.7</ele>
        <time>2000-01-01T09:43:25.000Z</time>
      </trkpt>
      <trkpt lat="48.2894" lon="7.29131">
        <ele>723</ele>
        <time>2000-01-01T09:43:35.000Z</time>
      </trkpt>
      <trkpt lat="48.28933" lon="7.29123">
        <ele>731.7</ele>
        <time>2000-01-01T09:43:45.000Z</time>
      </trkpt>
      <trkpt lat="48.28925" lon="7.29115">
        <ele>732.5</ele>
        <time>2000-01-01T09:43:55.000Z</time>
      </trkpt>
      <trkpt lat="48.28922" lon="7.29111">
        <ele>720</ele>
        <time>2000-01-01T09:44:05.000Z</time>
      </trkpt>
      <trkpt lat="48.28913" lon="7.29097">
        <ele>724.7</ele>
        <time>2000-01-01T09:44:15.000Z</time>
      </trkpt>
      <trkpt lat="48.28913" lon="7.29095">
        <ele>725.8</ele>
        <time>2000-01-01T09:44:25.000Z</time>
      </trkpt>
      <trkpt lat="48.28909" lon="7.29092">
        <ele>714</ele>
        <time>2000-01-01T09:44:35.000Z</time>
      </trkpt>
      <trkpt lat="48.28907" lon="7.29089">
        <ele>726.3</ele>
        <time>2000-01-01T09:44:45.000Z</time>
      </trkpt>
      <trkpt lat="48.28905" lon="7.29088">
        <ele>725.5</ele>
        <time>2000-01-01T09:44:55.000Z</time>
      </trkpt>
      <trkpt lat="48.28903" lon="7.29088">
        <ele>724.5</ele>
        <time>2000-01-01T09:45:05.000Z</time>
      </trkpt>
      <trkpt lat="48.28896" lon="7.29084">
        <ele>721.7</ele>
        <time>2000-01-01T09:45:15.000Z</time>
      </trkpt>
      <trkpt lat="48.28892" lon="7.29078">
        <ele>711</ele>
        <time>2000-01-01T09:45:25.000Z</time>
      </trkpt>
      <trkpt lat="48.28889" lon="7.29076">
        <ele>723</ele>
        <time>2000-01-01T09:45:35.000Z</time>
      </trkpt>
      <trkpt lat="48.28886" lon="7.2908">
        <ele>722.4</ele>
        <time>2000-01-01T09:45:45.000Z</time>
      </trkpt>
      <trkpt lat="48.28886" lon="7.29082">
        <ele>722.4</ele>
        <time>2000-01-01T09:45:55.000Z</time>
      </trkpt>
      <trkpt lat="48.28884" lon="7.29084">
        <ele>717.4</ele>
        <time>2000-01-01T09:46:05.000Z</time>
      </trkpt>
      <trkpt lat="48.28882" lon="7.29087">
        <ele>716.7</ele>
        <time>2000-01-01T09:46:15.000Z</time>
      </trkpt>
      <trkpt lat="48.28879" lon="7.29091">
        <ele>702</ele>
        <time>2000-01-01T09:46:25.000Z</time>
      </trkpt>
      <trkpt lat="48.28872" lon="7.29088">
        <ele>714.1</ele>
        <time>2000-01-01T09:46:35.000Z</time>
      </trkpt>
      <trkpt lat="48.28861" lon="7.29084">
        <ele>700</ele>
        <time>2000-01-01T09:46:45.000Z</time>
      </trkpt>
      <trkpt lat="48.28848" lon="7.29078">
        <ele>713.5</ele>
        <time>2000-01-01T09:46:55.000Z</time>
      </trkpt>
      <trkpt lat="48.28838" lon="7.29075">
        <ele>691</ele>
        <time>2000-01-01T09:47:05.000Z</time>
      </trkpt>
      <trkpt lat="48.28833" lon="7.29075">
        <ele>704.4</ele>
        <time>2000-01-01T09:47:15.000Z</time>
      </trkpt>
      <trkpt lat="48.28825" lon="7.29077">
        <ele>703.3</ele>
        <time>2000-01-01T09:47:25.000Z</time>
      </trkpt>
      <trkpt lat="48.28824" lon="7.29078">
        <ele>703.1</ele>
        <time>2000-01-01T09:47:35.000Z</time>
      </trkpt>
      <trkpt lat="48.28822" lon="7.29077">
        <ele>702.2</ele>
        <time>2000-01-01T09:47:45.000Z</time>
      </trkpt>
      <trkpt lat="48.28818" lon="7.29074">
        <ele>685</ele>
        <time>2000-01-01T09:47:55.000Z</time>
      </trkpt>
      <trkpt lat="48.28811" lon="7.29071">
        <ele>698</ele>
        <time>2000-01-01T09:48:05.000Z</time>
      </trkpt>
      <trkpt lat="48.28805" lon="7.29066">
        <ele>696.1</ele>
        <time>2000-01-01T09:48:15.000Z</time>
      </trkpt>
      <trkpt lat="48.28801" lon="7.2906">
        <ele>682</ele>
        <time>2000-01-01T09:48:25.000Z</time>
      </trkpt>
      <trkpt lat="48.28791" lon="7.29053">
        <ele>692.9</ele>
        <time>2000-01-01T09:48:35.000Z</time>
      </trkpt>
      <trkpt lat="48.28787" lon="7.29049">
        <ele>692.2</ele>
        <time>2000-01-01T09:48:45.000Z</time>
      </trkpt>
      <trkpt lat="48.28784" lon="7.29047">
        <ele>680</ele>
        <time>2000-01-01T09:48:55.000Z</time>
      </trkpt>
      <trkpt lat="48.28782" lon="7.29047">
        <ele>691.4</ele>
        <time>2000-01-01T09:49:05.000Z</time>
      </trkpt>
      <trkpt lat="48.28778" lon="7.29041">
        <ele>690.9</ele>
        <time>2000-01-01T09:49:15.000Z</time>
      </trkpt>
      <trkpt lat="48.28775" lon="7.29036">
        <ele>690.4</ele>
        <time>2000-01-01T09:49:25.000Z</time>
      </trkpt>
      <trkpt lat="48.28765" lon="7.2903">
        <ele>677</ele>
        <time>2000-01-01T09:49:35.000Z</time>
      </trkpt>
      <trkpt lat="48.2876" lon="7.29028">
        <ele>688.5</ele>
        <time>2000-01-01T09:49:45.000Z</time>
      </trkpt>
      <trkpt lat="48.28753" lon="7.29028">
        <ele>688</ele>
        <time>2000-01-01T09:49:55.000Z</time>
      </trkpt>
      <trkpt lat="48.28751" lon="7.29029">
        <ele>688</ele>
        <time>2000-01-01T09:50:05.000Z</time>
      </trkpt>
      <trkpt lat="48.28749" lon="7.29028">
        <ele>679.3</ele>
        <time>2000-01-01T09:50:15.000Z</time>
      </trkpt>
      <trkpt lat="48.28736" lon="7.29017">
        <ele>676</ele>
        <time>2000-01-01T09:50:25.000Z</time>
      </trkpt>
      <trkpt lat="48.28732" lon="7.29009">
        <ele>679.7</ele>
        <time>2000-01-01T09:50:35.000Z</time>
      </trkpt>
      <trkpt lat="48.28725" lon="7.29005">
        <ele>679.3</ele>
        <time>2000-01-01T09:50:45.000Z</time>
      </trkpt>
      <trkpt lat="48.28716" lon="7.29004">
        <ele>676</ele>
        <time>2000-01-01T09:50:55.000Z</time>
      </trkpt>
      <trkpt lat="48.28712" lon="7.29">
        <ele>680.6</ele>
        <time>2000-01-01T09:51:05.000Z</time>
      </trkpt>
      <trkpt lat="48.28709" lon="7.28999">
        <ele>675.1</ele>
        <time>2000-01-01T09:51:15.000Z</time>
      </trkpt>
      <trkpt lat="48.28691" lon="7.29005">
        <ele>676</ele>
        <time>2000-01-01T09:51:25.000Z</time>
      </trkpt>
      <trkpt lat="48.28683" lon="7.29004">
        <ele>678.3</ele>
        <time>2000-01-01T09:51:35.000Z</time>
      </trkpt>
      <trkpt lat="48.28665" lon="7.28997">
        <ele>676</ele>
        <time>2000-01-01T09:51:45.000Z</time>
      </trkpt>
      <trkpt lat="48.28647" lon="7.28986">
        <ele>676</ele>
        <time>2000-01-01T09:51:55.000Z</time>
      </trkpt>
      <trkpt lat="48.28627" lon="7.28986">
        <ele>677</ele>
        <time>2000-01-01T09:52:05.000Z</time>
      </trkpt>
      <trkpt lat="48.28626" lon="7.28988">
        <ele>678.5</ele>
        <time>2000-01-01T09:52:15.000Z</time>
      </trkpt>
      <trkpt lat="48.28616" lon="7.28992">
        <ele>679.5</ele>
        <time>2000-01-01T09:52:25.000Z</time>
      </trkpt>
      <trkpt lat="48.28609" lon="7.28992">
        <ele>681</ele>
        <time>2000-01-01T09:52:35.000Z</time>
      </trkpt>
      <trkpt lat="48.28602" lon="7.28991">
        <ele>681.2</ele>
        <time>2000-01-01T09:52:45.000Z</time>
      </trkpt>
      <trkpt lat="48.28594" lon="7.28992">
        <ele>682.7</ele>
        <time>2000-01-01T09:52:55.000Z</time>
      </trkpt>
      <trkpt lat="48.28593" lon="7.28991">
        <ele>682.8</ele>
        <time>2000-01-01T09:53:05.000Z</time>
      </trkpt>
      <trkpt lat="48.28585" lon="7.28995">
        <ele>681</ele>
        <time>2000-01-01T09:53:15.000Z</time>
      </trkpt>
      <trkpt lat="48.28584" lon="7.28995">
        <ele>685.1</ele>
        <time>2000-01-01T09:53:25.000Z</time>
      </trkpt>
      <trkpt lat="48.28574" lon="7.29002">
        <ele>686.4</ele>
        <time>2000-01-01T09:53:35.000Z</time>
      </trkpt>
      <trkpt lat="48.28562" lon="7.29003">
        <ele>682</ele>
        <time>2000-01-01T09:53:45.000Z</time>
      </trkpt>
      <trkpt lat="48.28554" lon="7.29004">
        <ele>686.5</ele>
        <time>2000-01-01T09:53:55.000Z</time>
      </trkpt>
      <trkpt lat="48.2855" lon="7.29007">
        <ele>686.6</ele>
        <time>2000-01-01T09:54:05.000Z</time>
      </trkpt>
      <trkpt lat="48.28533" lon="7.29007">
        <ele>683</ele>
        <time>2000-01-01T09:54:15.000Z</time>
      </trkpt>
      <trkpt lat="48.28532" lon="7.29006">
        <ele>688.5</ele>
        <time>2000-01-01T09:54:25.000Z</time>
      </trkpt>
      <trkpt lat="48.28531" lon="7.29009">
        <ele>688.4</ele>
        <time>2000-01-01T09:54:35.000Z</time>
      </trkpt>
      <trkpt lat="48.28525" lon="7.29011">
        <ele>689.2</ele>
        <time>2000-01-01T09:54:45.000Z</time>
      </trkpt>
      <trkpt lat="48.28523" lon="7.29012">
        <ele>689.4</ele>
        <time>2000-01-01T09:54:55.000Z</time>
      </trkpt>
      <trkpt lat="48.28513" lon="7.29012">
        <ele>685</ele>
        <time>2000-01-01T09:55:05.000Z</time>
      </trkpt>
      <trkpt lat="48.28508" lon="7.29015">
        <ele>691.5</ele>
        <time>2000-01-01T09:55:15.000Z</time>
      </trkpt>
      <trkpt lat="48.28504" lon="7.29015">
        <ele>692</ele>
        <time>2000-01-01T09:55:25.000Z</time>
      </trkpt>
      <trkpt lat="48.28502" lon="7.29015">
        <ele>692.1</ele>
        <time>2000-01-01T09:55:35.000Z</time>
      </trkpt>
      <trkpt lat="48.2849" lon="7.29013">
        <ele>688</ele>
        <time>2000-01-01T09:55:45.000Z</time>
      </trkpt>
      <trkpt lat="48.2848" lon="7.29007">
        <ele>695.4</ele>
        <time>2000-01-01T09:55:55.000Z</time>
      </trkpt>
      <trkpt lat="48.28477" lon="7.29007">
        <ele>695.3</ele>
        <time>2000-01-01T09:56:05.000Z</time>
      </trkpt>
      <trkpt lat="48.28471" lon="7.29003">
        <ele>691</ele>
        <time>2000-01-01T09:56:15.000Z</time>
      </trkpt>
      <trkpt lat="48.28463" lon="7.29003">
        <ele>695.6</ele>
        <time>2000-01-01T09:56:25.000Z</time>
      </trkpt>
      <trkpt lat="48.28462" lon="7.29003">
        <ele>695.7</ele>
        <time>2000-01-01T09:56:35.000Z</time>
      </trkpt>
      <trkpt lat="48.28457" lon="7.29">
        <ele>703.6</ele>
        <time>2000-01-01T09:56:45.000Z</time>
      </trkpt>
      <trkpt lat="48.28451" lon="7.28994">
        <ele>698</ele>
        <time>2000-01-01T09:56:55.000Z</time>
      </trkpt>
      <trkpt lat="48.28449" lon="7.28992">
        <ele>701.2</ele>
        <time>2000-01-01T09:57:05.000Z</time>
      </trkpt>
      <trkpt lat="48.28446" lon="7.28991">
        <ele>701.5</ele>
        <time>2000-01-01T09:57:15.000Z</time>
      </trkpt>
      <trkpt lat="48.28445" lon="7.28988">
        <ele>701.4</ele>
        <time>2000-01-01T09:57:25.000Z</time>
      </trkpt>
      <trkpt lat="48.28443" lon="7.28987">
        <ele>701.6</ele>
        <time>2000-01-01T09:57:35.000Z</time>
      </trkpt>
      <trkpt lat="48.2844" lon="7.28988">
        <ele>702</ele>
        <time>2000-01-01T09:57:45.000Z</time>
      </trkpt>
      <trkpt lat="48.2844" lon="7.28991">
        <ele>702.2</ele>
        <time>2000-01-01T09:57:55.000Z</time>
      </trkpt>
      <trkpt lat="48.28439" lon="7.28992">
        <ele>702.4</ele>
        <time>2000-01-01T09:58:05.000Z</time>
      </trkpt>
      <trkpt lat="48.28436" lon="7.28991">
        <ele>699</ele>
        <time>2000-01-01T09:58:15.000Z</time>
      </trkpt>
      <trkpt lat="48.28433" lon="7.2899">
        <ele>703.1</ele>
        <time>2000-01-01T09:58:25.000Z</time>
      </trkpt>
      <trkpt lat="48.28432" lon="7.28986">
        <ele>702.8</ele>
        <time>2000-01-01T09:58:35.000Z</time>
      </trkpt>
      <trkpt lat="48.28432" lon="7.2898">
        <ele>702.1</ele>
        <time>2000-01-01T09:58:45.000Z</time>
      </trkpt>
      <trkpt lat="48.28431" lon="7.28977">
        <ele>701.9</ele>
        <time>2000-01-01T09:58:55.000Z</time>
      </trkpt>
      <trkpt lat="48.28429" lon="7.28971">
        <ele>701.4</ele>
        <time>2000-01-01T09:59:05.000Z</time>
      </trkpt>
      <trkpt lat="48.2842" lon="7.28965">
        <ele>700</ele>
        <time>2000-01-01T09:59:15.000Z</time>
      </trkpt>
      <trkpt lat="48.28418" lon="7.28966">
        <ele>701.2</ele>
        <time>2000-01-01T09:59:25.000Z</time>
      </trkpt>
      <trkpt lat="48.28415" lon="7.28965">
        <ele>699.8</ele>
        <time>2000-01-01T09:59:35.000Z</time>
      </trkpt>
      <trkpt lat="48.28412" lon="7.28961">
        <ele>699.4</ele>
        <time>2000-01-01T09:59:45.000Z</time>
      </trkpt>
      <trkpt lat="48.28394" lon="7.28955">
        <ele>702</ele>
        <time>2000-01-01T09:59:55.000Z</time>
      </trkpt>
      <trkpt lat="48.28377" lon="7.2894">
        <ele>700</ele>
        <time>2000-01-01T10:00:05.000Z</time>
      </trkpt>
      <trkpt lat="48.28364" lon="7.28925">
        <ele>695.5</ele>
        <time>2000-01-01T10:00:15.000Z</time>
      </trkpt>
      <trkpt lat="48.2835" lon="7.28917">
        <ele>698</ele>
        <time>2000-01-01T10:00:25.000Z</time>
      </trkpt>
      <trkpt lat="48.28349" lon="7.28916">
        <ele>688.5</ele>
        <time>2000-01-01T10:00:35.000Z</time>
      </trkpt>
      <trkpt lat="48.28342" lon="7.2891">
        <ele>689.1</ele>
        <time>2000-01-01T10:00:45.000Z</time>
      </trkpt>
      <trkpt lat="48.2834" lon="7.28906">
        <ele>688.6</ele>
        <time>2000-01-01T10:00:55.000Z</time>
      </trkpt>
      <trkpt lat="48.28341" lon="7.28906">
        <ele>688.5</ele>
        <time>2000-01-01T10:01:05.000Z</time>
      </trkpt>
      <trkpt lat="48.28342" lon="7.28905">
        <ele>688.2</ele>
        <time>2000-01-01T10:01:15.000Z</time>
      </trkpt>
      <trkpt lat="48.28342" lon="7.28904">
        <ele>688</ele>
        <time>2000-01-01T10:01:25.000Z</time>
      </trkpt>
      <trkpt lat="48.28342" lon="7.28903">
        <ele>687.9</ele>
        <time>2000-01-01T10:01:35.000Z</time>
      </trkpt>
      <trkpt lat="48.2834" lon="7.28897">
        <ele>692</ele>
        <time>2000-01-01T10:01:45.000Z</time>
      </trkpt>
      <trkpt lat="48.28338" lon="7.28891">
        <ele>685.8</ele>
        <time>2000-01-01T10:01:55.000Z</time>
      </trkpt>
      <trkpt lat="48.28331" lon="7.28885">
        <ele>672.2</ele>
        <time>2000-01-01T10:02:05.000Z</time>
      </trkpt>
      <trkpt lat="48.28327" lon="7.28881">
        <ele>670.7</ele>
        <time>2000-01-01T10:02:15.000Z</time>
      </trkpt>
      <trkpt lat="48.28328" lon="7.28877">
        <ele>688</ele>
        <time>2000-01-01T10:02:25.000Z</time>
      </trkpt>
      <trkpt lat="48.28337" lon="7.28875">
        <ele>683</ele>
        <time>2000-01-01T10:02:35.000Z</time>
      </trkpt>
      <trkpt lat="48.28343" lon="7.28871">
        <ele>682.3</ele>
        <time>2000-01-01T10:02:45.000Z</time>
      </trkpt>
      <trkpt lat="48.28354" lon="7.28865">
        <ele>679</ele>
        <time>2000-01-01T10:02:55.000Z</time>
      </trkpt>
      <trkpt lat="48.28354" lon="7.28858">
        <ele>680.5</ele>
        <time>2000-01-01T10:03:05.000Z</time>
      </trkpt>
      <trkpt lat="48.28354" lon="7.28857">
        <ele>680.3</ele>
        <time>2000-01-01T10:03:15.000Z</time>
      </trkpt>
      <trkpt lat="48.28352" lon="7.28854">
        <ele>679.8</ele>
        <time>2000-01-01T10:03:25.000Z</time>
      </trkpt>
      <trkpt lat="48.28351" lon="7.28853">
        <ele>679.7</ele>
        <time>2000-01-01T10:03:35.000Z</time>
      </trkpt>
      <trkpt lat="48.2835" lon="7.28851">
        <ele>679.3</ele>
        <time>2000-01-01T10:03:45.000Z</time>
      </trkpt>
      <trkpt lat="48.28348" lon="7.28851">
        <ele>679.2</ele>
        <time>2000-01-01T10:03:55.000Z</time>
      </trkpt>
      <trkpt lat="48.28345" lon="7.28848">
        <ele>678.5</ele>
        <time>2000-01-01T10:04:05.000Z</time>
      </trkpt>
      <trkpt lat="48.28345" lon="7.2885">
        <ele>674</ele>
        <time>2000-01-01T10:04:15.000Z</time>
      </trkpt>
      <trkpt lat="48.28345" lon="7.28851">
        <ele>679</ele>
        <time>2000-01-01T10:04:25.000Z</time>
      </trkpt>
      <trkpt lat="48.28347" lon="7.28847">
        <ele>678.5</ele>
        <time>2000-01-01T10:04:35.000Z</time>
      </trkpt>
      <trkpt lat="48.28353" lon="7.28843">
        <ele>678.5</ele>
        <time>2000-01-01T10:04:45.000Z</time>
      </trkpt>
      <trkpt lat="48.2836" lon="7.28846">
        <ele>671</ele>
        <time>2000-01-01T10:04:55.000Z</time>
      </trkpt>
      <trkpt lat="48.28365" lon="7.28844">
        <ele>679.2</ele>
        <time>2000-01-01T10:05:05.000Z</time>
      </trkpt>
      <trkpt lat="48.28368" lon="7.28845">
        <ele>679.2</ele>
        <time>2000-01-01T10:05:15.000Z</time>
      </trkpt>
      <trkpt lat="48.28363" lon="7.28838">
        <ele>678.7</ele>
        <time>2000-01-01T10:05:25.000Z</time>
      </trkpt>
      <trkpt lat="48.28358" lon="7.28832">
        <ele>667</ele>
        <time>2000-01-01T10:05:35.000Z</time>
      </trkpt>
      <trkpt lat="48.28353" lon="7.28824">
        <ele>663.6</ele>
        <time>2000-01-01T10:05:45.000Z</time>
      </trkpt>
      <trkpt lat="48.28353" lon="7.28823">
        <ele>663.4</ele>
        <time>2000-01-01T10:05:55.000Z</time>
      </trkpt>
      <trkpt lat="48.28358" lon="7.28827">
        <ele>663</ele>
        <time>2000-01-01T10:06:05.000Z</time>
      </trkpt>
      <trkpt lat="48.28361" lon="7.28829">
        <ele>662.6</ele>
        <time>2000-01-01T10:06:15.000Z</time>
      </trkpt>
      <trkpt lat="48.28369" lon="7.28822">
        <ele>663</ele>
        <time>2000-01-01T10:06:25.000Z</time>
      </trkpt>
      <trkpt lat="48.2837" lon="7.28815">
        <ele>659.7</ele>
        <time>2000-01-01T10:06:35.000Z</time>
      </trkpt>
      <trkpt lat="48.28377" lon="7.28808">
        <ele>658.2</ele>
        <time>2000-01-01T10:06:45.000Z</time>
      </trkpt>
      <trkpt lat="48.28391" lon="7.28805">
        <ele>650</ele>
        <time>2000-01-01T10:06:55.000Z</time>
      </trkpt>
      <trkpt lat="48.28397" lon="7.28805">
        <ele>657.5</ele>
        <time>2000-01-01T10:07:05.000Z</time>
      </trkpt>
      <trkpt lat="48.28398" lon="7.28805">
        <ele>657.5</ele>
        <time>2000-01-01T10:07:15.000Z</time>
      </trkpt>
      <trkpt lat="48.28407" lon="7.28806">
        <ele>657.9</ele>
        <time>2000-01-01T10:07:25.000Z</time>
      </trkpt>
      <trkpt lat="48.2841" lon="7.28808">
        <ele>650</ele>
        <time>2000-01-01T10:07:35.000Z</time>
      </trkpt>
      <trkpt lat="48.28417" lon="7.28804">
        <ele>653.1</ele>
        <time>2000-01-01T10:07:45.000Z</time>
      </trkpt>
      <trkpt lat="48.28422" lon="7.28806">
        <ele>653.6</ele>
        <time>2000-01-01T10:07:55.000Z</time>
      </trkpt>
      <trkpt lat="48.28423" lon="7.28805">
        <ele>653.2</ele>
        <time>2000-01-01T10:08:05.000Z</time>
      </trkpt>
      <trkpt lat="48.28427" lon="7.28807">
        <ele>646</ele>
        <time>2000-01-01T10:08:15.000Z</time>
      </trkpt>
      <trkpt lat="48.28428" lon="7.28804">
        <ele>652.6</ele>
        <time>2000-01-01T10:08:25.000Z</time>
      </trkpt>
      <trkpt lat="48.28427" lon="7.28802">
        <ele>652.1</ele>
        <time>2000-01-01T10:08:35.000Z</time>
      </trkpt>
      <trkpt lat="48.28424" lon="7.28798">
        <ele>651.1</ele>
        <time>2000-01-01T10:08:45.000Z</time>
      </trkpt>
      <trkpt lat="48.28421" lon="7.2879">
        <ele>649</ele>
        <time>2000-01-01T10:08:55.000Z</time>
      </trkpt>
      <trkpt lat="48.28419" lon="7.28787">
        <ele>648.2</ele>
        <time>2000-01-01T10:09:05.000Z</time>
      </trkpt>
      <trkpt lat="48.28416" lon="7.28784">
        <ele>640</ele>
        <time>2000-01-01T10:09:15.000Z</time>
      </trkpt>
      <trkpt lat="48.28414" lon="7.28782">
        <ele>651.5</ele>
        <time>2000-01-01T10:09:25.000Z</time>
      </trkpt>
      <trkpt lat="48.28413" lon="7.28781">
        <ele>651.2</ele>
        <time>2000-01-01T10:09:35.000Z</time>
      </trkpt>
      <trkpt lat="48.2841" lon="7.28778">
        <ele>650.4</ele>
        <time>2000-01-01T10:09:45.000Z</time>
      </trkpt>
      <trkpt lat="48.2841" lon="7.28775">
        <ele>649.5</ele>
        <time>2000-01-01T10:09:55.000Z</time>
      </trkpt>
      <trkpt lat="48.28411" lon="7.28773">
        <ele>648.8</ele>
        <time>2000-01-01T10:10:05.000Z</time>
      </trkpt>
      <trkpt lat="48.28413" lon="7.28771">
        <ele>648</ele>
        <time>2000-01-01T10:10:15.000Z</time>
      </trkpt>
      <trkpt lat="48.28414" lon="7.28769">
        <ele>647.2</ele>
        <time>2000-01-01T10:10:25.000Z</time>
      </trkpt>
      <trkpt lat="48.28417" lon="7.2876">
        <ele>628</ele>
        <time>2000-01-01T10:10:35.000Z</time>
      </trkpt>
      <trkpt lat="48.28418" lon="7.28758">
        <ele>640.1</ele>
        <time>2000-01-01T10:10:45.000Z</time>
      </trkpt>
      <trkpt lat="48.2842" lon="7.28752">
        <ele>638.6</ele>
        <time>2000-01-01T10:10:55.000Z</time>
      </trkpt>
      <trkpt lat="48.28424" lon="7.28748">
        <ele>631.5</ele>
        <time>2000-01-01T10:11:05.000Z</time>
      </trkpt>
      <trkpt lat="48.28431" lon="7.28735">
        <ele>618</ele>
        <time>2000-01-01T10:11:15.000Z</time>
      </trkpt>
      <trkpt lat="48.28434" lon="7.28732">
        <ele>623.4</ele>
        <time>2000-01-01T10:11:25.000Z</time>
      </trkpt>
      <trkpt lat="48.28443" lon="7.2873">
        <ele>621.4</ele>
        <time>2000-01-01T10:11:35.000Z</time>
      </trkpt>
      <trkpt lat="48.28447" lon="7.2873">
        <ele>620.8</ele>
        <time>2000-01-01T10:11:45.000Z</time>
      </trkpt>
      <trkpt lat="48.28449" lon="7.28731">
        <ele>616</ele>
        <time>2000-01-01T10:11:55.000Z</time>
      </trkpt>
      <trkpt lat="48.28449" lon="7.2873">
        <ele>620.5</ele>
        <time>2000-01-01T10:12:05.000Z</time>
      </trkpt>
      <trkpt lat="48.2845" lon="7.2873">
        <ele>620.4</ele>
        <time>2000-01-01T10:12:15.000Z</time>
      </trkpt>
      <trkpt lat="48.2845" lon="7.28728">
        <ele>620</ele>
        <time>2000-01-01T10:12:25.000Z</time>
      </trkpt>
      <trkpt lat="48.28448" lon="7.28726">
        <ele>619.9</ele>
        <time>2000-01-01T10:12:35.000Z</time>
      </trkpt>
      <trkpt lat="48.28445" lon="7.28723">
        <ele>619.6</ele>
        <time>2000-01-01T10:12:45.000Z</time>
      </trkpt>
      <trkpt lat="48.28442" lon="7.28716">
        <ele>618.3</ele>
        <time>2000-01-01T10:12:55.000Z</time>
      </trkpt>
      <trkpt lat="48.28434" lon="7.28704">
        <ele>606</ele>
        <time>2000-01-01T10:13:05.000Z</time>
      </trkpt>
      <trkpt lat="48.28434" lon="7.28702">
        <ele>615.4</ele>
        <time>2000-01-01T10:13:15.000Z</time>
      </trkpt>
      <trkpt lat="48.28434" lon="7.28701">
        <ele>615.2</ele>
        <time>2000-01-01T10:13:25.000Z</time>
      </trkpt>
      <trkpt lat="48.28437" lon="7.28704">
        <ele>615.8</ele>
        <time>2000-01-01T10:13:35.000Z</time>
      </trkpt>
      <trkpt lat="48.28439" lon="7.28704">
        <ele>615.7</ele>
        <time>2000-01-01T10:13:45.000Z</time>
      </trkpt>
      <trkpt lat="48.28449" lon="7.28694">
        <ele>601</ele>
        <time>2000-01-01T10:13:55.000Z</time>
      </trkpt>
      <trkpt lat="48.28451" lon="7.28692">
        <ele>612.8</ele>
        <time>2000-01-01T10:14:05.000Z</time>
      </trkpt>
      <trkpt lat="48.28452" lon="7.28694">
        <ele>613.1</ele>
        <time>2000-01-01T10:14:15.000Z</time>
      </trkpt>
      <trkpt lat="48.2845" lon="7.28691">
        <ele>612.7</ele>
        <time>2000-01-01T10:14:25.000Z</time>
      </trkpt>
      <trkpt lat="48.28442" lon="7.28686">
        <ele>612</ele>
        <time>2000-01-01T10:14:35.000Z</time>
      </trkpt>
      <trkpt lat="48.28437" lon="7.28683">
        <ele>597</ele>
        <time>2000-01-01T10:14:45.000Z</time>
      </trkpt>
      <trkpt lat="48.28432" lon="7.2868">
        <ele>610.6</ele>
        <time>2000-01-01T10:14:55.000Z</time>
      </trkpt>
      <trkpt lat="48.28422" lon="7.2867">
        <ele>607.3</ele>
        <time>2000-01-01T10:15:05.000Z</time>
      </trkpt>
      <trkpt lat="48.28418" lon="7.28664">
        <ele>592</ele>
        <time>2000-01-01T10:15:15.000Z</time>
      </trkpt>
      <trkpt lat="48.2841" lon="7.28651">
        <ele>597</ele>
        <time>2000-01-01T10:15:25.000Z</time>
      </trkpt>
      <trkpt lat="48.28403" lon="7.28641">
        <ele>585</ele>
        <time>2000-01-01T10:15:35.000Z</time>
      </trkpt>
      <trkpt lat="48.28391" lon="7.2863">
        <ele>590.4</ele>
        <time>2000-01-01T10:15:45.000Z</time>
      </trkpt>
      <trkpt lat="48.28385" lon="7.28625">
        <ele>578</ele>
        <time>2000-01-01T10:15:55.000Z</time>
      </trkpt>
      <trkpt lat="48.28376" lon="7.28616">
        <ele>587.8</ele>
        <time>2000-01-01T10:16:05.000Z</time>
      </trkpt>
      <trkpt lat="48.28361" lon="7.28601">
        <ele>574</ele>
        <time>2000-01-01T10:16:15.000Z</time>
      </trkpt>
      <trkpt lat="48.28356" lon="7.28597">
        <ele>584.3</ele>
        <time>2000-01-01T10:16:25.000Z</time>
      </trkpt>
      <trkpt lat="48.28353" lon="7.28595">
        <ele>583.7</ele>
        <time>2000-01-01T10:16:35.000Z</time>
      </trkpt>
      <trkpt lat="48.28353" lon="7.28593">
        <ele>583.3</ele>
        <time>2000-01-01T10:16:45.000Z</time>
      </trkpt>
      <trkpt lat="48.28353" lon="7.28591">
        <ele>583</ele>
        <time>2000-01-01T10:16:55.000Z</time>
      </trkpt>
      <trkpt lat="48.28351" lon="7.28586">
        <ele>582.1</ele>
        <time>2000-01-01T10:17:05.000Z</time>
      </trkpt>
      <trkpt lat="48.28351" lon="7.28583">
        <ele>567.2</ele>
        <time>2000-01-01T10:17:15.000Z</time>
      </trkpt>
      <trkpt lat="48.28352" lon="7.28576">
        <ele>565</ele>
        <time>2000-01-01T10:17:25.000Z</time>
      </trkpt>
      <trkpt lat="48.28354" lon="7.28573">
        <ele>565.1</ele>
        <time>2000-01-01T10:17:35.000Z</time>
      </trkpt>
      <trkpt lat="48.28353" lon="7.28574">
        <ele>565.5</ele>
        <time>2000-01-01T10:17:45.000Z</time>
      </trkpt>
      <trkpt lat="48.28348" lon="7.28567">
        <ele>565</ele>
        <time>2000-01-01T10:17:55.000Z</time>
      </trkpt>
      <trkpt lat="48.28347" lon="7.28565">
        <ele>564.7</ele>
        <time>2000-01-01T10:18:05.000Z</time>
      </trkpt>
      <trkpt lat="48.28345" lon="7.28567">
        <ele>565.6</ele>
        <time>2000-01-01T10:18:15.000Z</time>
      </trkpt>
      <trkpt lat="48.28335" lon="7.28556">
        <ele>561</ele>
        <time>2000-01-01T10:18:25.000Z</time>
      </trkpt>
      <trkpt lat="48.2833" lon="7.28552">
        <ele>563.4</ele>
        <time>2000-01-01T10:18:35.000Z</time>
      </trkpt>
      <trkpt lat="48.28323" lon="7.2854">
        <ele>560.3</ele>
        <time>2000-01-01T10:18:45.000Z</time>
      </trkpt>
      <trkpt lat="48.2831" lon="7.28531">
        <ele>554</ele>
        <time>2000-01-01T10:18:55.000Z</time>
      </trkpt>
      <trkpt lat="48.28299" lon="7.28526">
        <ele>557.7</ele>
        <time>2000-01-01T10:19:05.000Z</time>
      </trkpt>
      <trkpt lat="48.28293" lon="7.28524">
        <ele>557.4</ele>
        <time>2000-01-01T10:19:15.000Z</time>
      </trkpt>
      <trkpt lat="48.2829" lon="7.28522">
        <ele>550</ele>
        <time>2000-01-01T10:19:25.000Z</time>
      </trkpt>
      <trkpt lat="48.28284" lon="7.28522">
        <ele>556.8</ele>
        <time>2000-01-01T10:19:35.000Z</time>
      </trkpt>
      <trkpt lat="48.28279" lon="7.28525">
        <ele>557</ele>
        <time>2000-01-01T10:19:45.000Z</time>
      </trkpt>
      <trkpt lat="48.28271" lon="7.28529">
        <ele>547</ele>
        <time>2000-01-01T10:19:55.000Z</time>
      </trkpt>
      <trkpt lat="48.28258" lon="7.28532">
        <ele>557.2</ele>
        <time>2000-01-01T10:20:05.000Z</time>
      </trkpt>
      <trkpt lat="48.28244" lon="7.28531">
        <ele>544</ele>
        <time>2000-01-01T10:20:15.000Z</time>
      </trkpt>
      <trkpt lat="48.28235" lon="7.28533">
        <ele>549.1</ele>
        <time>2000-01-01T10:20:25.000Z</time>
      </trkpt>
      <trkpt lat="48.28223" lon="7.28535">
        <ele>540</ele>
        <time>2000-01-01T10:20:35.000Z</time>
      </trkpt>
      <trkpt lat="48.28207" lon="7.2854">
        <ele>547.1</ele>
        <time>2000-01-01T10:20:45.000Z</time>
      </trkpt>
      <trkpt lat="48.28203" lon="7.28537">
        <ele>536</ele>
        <time>2000-01-01T10:20:55.000Z</time>
      </trkpt>
      <trkpt lat="48.282" lon="7.28531">
        <ele>545</ele>
        <time>2000-01-01T10:21:05.000Z</time>
      </trkpt>
      <trkpt lat="48.28199" lon="7.28526">
        <ele>544.1</ele>
        <time>2000-01-01T10:21:15.000Z</time>
      </trkpt>
      <trkpt lat="48.28198" lon="7.28519">
        <ele>543</ele>
        <time>2000-01-01T10:21:25.000Z</time>
      </trkpt>
      <trkpt lat="48.28201" lon="7.28512">
        <ele>532</ele>
        <time>2000-01-01T10:21:35.000Z</time>
      </trkpt>
      <trkpt lat="48.28203" lon="7.28508">
        <ele>542.8</ele>
        <time>2000-01-01T10:21:45.000Z</time>
      </trkpt>
      <trkpt lat="48.28209" lon="7.28499">
        <ele>529.9</ele>
        <time>2000-01-01T10:21:55.000Z</time>
      </trkpt>
      <trkpt lat="48.28214" lon="7.2849">
        <ele>528</ele>
        <time>2000-01-01T10:22:05.000Z</time>
      </trkpt>
      <trkpt lat="48.28218" lon="7.28488">
        <ele>530.8</ele>
        <time>2000-01-01T10:22:15.000Z</time>
      </trkpt>
      <trkpt lat="48.28225" lon="7.28475">
        <ele>530.2</ele>
        <time>2000-01-01T10:22:25.000Z</time>
      </trkpt>
      <trkpt lat="48.28227" lon="7.28454">
        <ele>520</ele>
        <time>2000-01-01T10:22:35.000Z</time>
      </trkpt>
      <trkpt lat="48.28224" lon="7.28432">
        <ele>524.2</ele>
        <time>2000-01-01T10:22:45.000Z</time>
      </trkpt>
      <trkpt lat="48.28218" lon="7.28425">
        <ele>510</ele>
        <time>2000-01-01T10:22:55.000Z</time>
      </trkpt>
      <trkpt lat="48.28206" lon="7.28432">
        <ele>522.4</ele>
        <time>2000-01-01T10:23:05.000Z</time>
      </trkpt>
      <trkpt lat="48.28194" lon="7.28438">
        <ele>508</ele>
        <time>2000-01-01T10:23:15.000Z</time>
      </trkpt>
      <trkpt lat="48.28185" lon="7.28445">
        <ele>521.1</ele>
        <time>2000-01-01T10:23:25.000Z</time>
      </trkpt>
      <trkpt lat="48.28178" lon="7.28449">
        <ele>521.2</ele>
        <time>2000-01-01T10:23:35.000Z</time>
      </trkpt>
      <trkpt lat="48.2817" lon="7.28452">
        <ele>506</ele>
        <time>2000-01-01T10:23:45.000Z</time>
      </trkpt>
      <trkpt lat="48.28162" lon="7.28452">
        <ele>506.8</ele>
        <time>2000-01-01T10:23:55.000Z</time>
      </trkpt>
      <trkpt lat="48.28146" lon="7.28464">
        <ele>504</ele>
        <time>2000-01-01T10:24:05.000Z</time>
      </trkpt>
      <trkpt lat="48.28141" lon="7.2847">
        <ele>506.9</ele>
        <time>2000-01-01T10:24:15.000Z</time>
      </trkpt>
      <trkpt lat="48.2813" lon="7.28474">
        <ele>505.2</ele>
        <time>2000-01-01T10:24:25.000Z</time>
      </trkpt>
      <trkpt lat="48.28125" lon="7.28475">
        <ele>500</ele>
        <time>2000-01-01T10:24:35.000Z</time>
      </trkpt>
      <trkpt lat="48.28116" lon="7.28484">
        <ele>503</ele>
        <time>2000-01-01T10:24:45.000Z</time>
      </trkpt>
      <trkpt lat="48.28113" lon="7.28489">
        <ele>502.6</ele>
        <time>2000-01-01T10:24:55.000Z</time>
      </trkpt>
      <trkpt lat="48.28109" lon="7.28489">
        <ele>494</ele>
        <time>2000-01-01T10:25:05.000Z</time>
      </trkpt>
      <trkpt lat="48.28108" lon="7.28484">
        <ele>501.4</ele>
        <time>2000-01-01T10:25:15.000Z</time>
      </trkpt>
      <trkpt lat="48.28108" lon="7.28467">
        <ele>500.5</ele>
        <time>2000-01-01T10:25:25.000Z</time>
      </trkpt>
      <trkpt lat="48.2811" lon="7.28459">
        <ele>494</ele>
        <time>2000-01-01T10:25:35.000Z</time>
      </trkpt>
      <trkpt lat="48.28116" lon="7.28444">
        <ele>499.3</ele>
        <time>2000-01-01T10:25:45.000Z</time>
      </trkpt>
      <trkpt lat="48.28118" lon="7.28443">
        <ele>499.5</ele>
        <time>2000-01-01T10:25:55.000Z</time>
      </trkpt>
      <trkpt lat="48.28121" lon="7.28439">
        <ele>499.7</ele>
        <time>2000-01-01T10:26:05.000Z</time>
      </trkpt>
      <trkpt lat="48.28124" lon="7.28434">
        <ele>492</ele>
        <time>2000-01-01T10:26:15.000Z</time>
      </trkpt>
      <trkpt lat="48.28133" lon="7.28419">
        <ele>501</ele>
        <time>2000-01-01T10:26:25.000Z</time>
      </trkpt>
      <trkpt lat="48.28138" lon="7.28413">
        <ele>489</ele>
        <time>2000-01-01T10:26:35.000Z</time>
      </trkpt>
      <trkpt lat="48.28144" lon="7.28407">
        <ele>493.6</ele>
        <time>2000-01-01T10:26:45.000Z</time>
      </trkpt>
      <trkpt lat="48.28141" lon="7.28394">
        <ele>490.9</ele>
        <time>2000-01-01T10:26:55.000Z</time>
      </trkpt>
      <trkpt lat="48.28137" lon="7.2839">
        <ele>482</ele>
        <time>2000-01-01T10:27:05.000Z</time>
      </trkpt>
      <trkpt lat="48.28133" lon="7.2839">
        <ele>488.9</ele>
        <time>2000-01-01T10:27:15.000Z</time>
      </trkpt>
      <trkpt lat="48.28119" lon="7.28379">
        <ele>476</ele>
        <time>2000-01-01T10:27:25.000Z</time>
      </trkpt>
      <trkpt lat="48.28109" lon="7.28378">
        <ele>484.5</ele>
        <time>2000-01-01T10:27:35.000Z</time>
      </trkpt>
      <trkpt lat="48.281" lon="7.28376">
        <ele>473</ele>
        <time>2000-01-01T10:27:45.000Z</time>
      </trkpt>
      <trkpt lat="48.28092" lon="7.28377">
        <ele>482.8</ele>
        <time>2000-01-01T10:27:55.000Z</time>
      </trkpt>
      <trkpt lat="48.28085" lon="7.28382">
        <ele>482.7</ele>
        <time>2000-01-01T10:28:05.000Z</time>
      </trkpt>
      <trkpt lat="48.28077" lon="7.28387">
        <ele>463</ele>
        <time>2000-01-01T10:28:15.000Z</time>
      </trkpt>
      <trkpt lat="48.28073" lon="7.28393">
        <ele>466.5</ele>
        <time>2000-01-01T10:28:25.000Z</time>
      </trkpt>
      <trkpt lat="48.28073" lon="7.28394">
        <ele>466.8</ele>
        <time>2000-01-01T10:28:35.000Z</time>
      </trkpt>
      <trkpt lat="48.28072" lon="7.28389">
        <ele>465.5</ele>
        <time>2000-01-01T10:28:45.000Z</time>
      </trkpt>
      <trkpt lat="48.28072" lon="7.28382">
        <ele>464.4</ele>
        <time>2000-01-01T10:28:55.000Z</time>
      </trkpt>
      <trkpt lat="48.28073" lon="7.28379">
        <ele>464.2</ele>
        <time>2000-01-01T10:29:05.000Z</time>
      </trkpt>
      <trkpt lat="48.28077" lon="7.28364">
        <ele>461</ele>
        <time>2000-01-01T10:29:15.000Z</time>
      </trkpt>
      <trkpt lat="48.2808" lon="7.2835">
        <ele>465.5</ele>
        <time>2000-01-01T10:29:25.000Z</time>
      </trkpt>
      <trkpt lat="48.28081" lon="7.28336">
        <ele>459</ele>
        <time>2000-01-01T10:29:35.000Z</time>
      </trkpt>
      <trkpt lat="48.28081" lon="7.2832">
        <ele>462.9</ele>
        <time>2000-01-01T10:29:45.000Z</time>
      </trkpt>
      <trkpt lat="48.28074" lon="7.283">
        <ele>452</ele>
        <time>2000-01-01T10:29:55.000Z</time>
      </trkpt>
      <trkpt lat="48.28061" lon="7.28278">
        <ele>450</ele>
        <time>2000-01-01T10:30:05.000Z</time>
      </trkpt>
      <trkpt lat="48.28049" lon="7.2825">
        <ele>449</ele>
        <time>2000-01-01T10:30:15.000Z</time>
      </trkpt>
      <trkpt lat="48.28048" lon="7.28247">
        <ele>447.6</ele>
        <time>2000-01-01T10:30:25.000Z</time>
      </trkpt>
      <trkpt lat="48.28046" lon="7.2823">
        <ele>446.7</ele>
        <time>2000-01-01T10:30:35.000Z</time>
      </trkpt>
      <trkpt lat="48.28039" lon="7.282">
        <ele>447</ele>
        <time>2000-01-01T10:30:45.000Z</time>
      </trkpt>
      <trkpt lat="48.28033" lon="7.2818">
        <ele>444</ele>
        <time>2000-01-01T10:30:55.000Z</time>
      </trkpt>
      <trkpt lat="48.28027" lon="7.28164">
        <ele>442</ele>
        <time>2000-01-01T10:31:05.000Z</time>
      </trkpt>
      <trkpt lat="48.28022" lon="7.28147">
        <ele>437.8</ele>
        <time>2000-01-01T10:31:15.000Z</time>
      </trkpt>
      <trkpt lat="48.2802" lon="7.28141">
        <ele>437.5</ele>
        <time>2000-01-01T10:31:25.000Z</time>
      </trkpt>
      <trkpt lat="48.28018" lon="7.28131">
        <ele>438</ele>
        <time>2000-01-01T10:31:35.000Z</time>
      </trkpt>
      <trkpt lat="48.28018" lon="7.28125">
        <ele>436.3</ele>
        <time>2000-01-01T10:31:45.000Z</time>
      </trkpt>
      <trkpt lat="48.28016" lon="7.28107">
        <ele>434.8</ele>
        <time>2000-01-01T10:31:55.000Z</time>
      </trkpt>
      <trkpt lat="48.28014" lon="7.28103">
        <ele>434</ele>
        <time>2000-01-01T10:32:05.000Z</time>
      </trkpt>
      <trkpt lat="48.28011" lon="7.28098">
        <ele>433.5</ele>
        <time>2000-01-01T10:32:15.000Z</time>
      </trkpt>
      <trkpt lat="48.28003" lon="7.28094">
        <ele>432.4</ele>
        <time>2000-01-01T10:32:25.000Z</time>
      </trkpt>
      <trkpt lat="48.27991" lon="7.28095">
        <ele>430</ele>
        <time>2000-01-01T10:32:35.000Z</time>
      </trkpt>
      <trkpt lat="48.27987" lon="7.28098">
        <ele>423.8</ele>
        <time>2000-01-01T10:32:45.000Z</time>
      </trkpt>
      <trkpt lat="48.27977" lon="7.28109">
        <ele>421.4</ele>
        <time>2000-01-01T10:32:55.000Z</time>
      </trkpt>
      <trkpt lat="48.27971" lon="7.28119">
        <ele>424</ele>
        <time>2000-01-01T10:33:05.000Z</time>
      </trkpt>
      <trkpt lat="48.27967" lon="7.28124">
        <ele>419.9</ele>
        <time>2000-01-01T10:33:15.000Z</time>
      </trkpt>
      <trkpt lat="48.27958" lon="7.28144">
        <ele>416</ele>
        <time>2000-01-01T10:33:25.000Z</time>
      </trkpt>
      <trkpt lat="48.27953" lon="7.28156">
        <ele>417.8</ele>
        <time>2000-01-01T10:33:35.000Z</time>
      </trkpt>
      <trkpt lat="48.27951" lon="7.28163">
        <ele>417.2</ele>
        <time>2000-01-01T10:33:45.000Z</time>
      </trkpt>
      <trkpt lat="48.27946" lon="7.28177">
        <ele>412</ele>
        <time>2000-01-01T10:33:55.000Z</time>
      </trkpt>
      <trkpt lat="48.27945" lon="7.28184">
        <ele>417.2</ele>
        <time>2000-01-01T10:34:05.000Z</time>
      </trkpt>
      <trkpt lat="48.2794" lon="7.28202">
        <ele>411</ele>
        <time>2000-01-01T10:34:15.000Z</time>
      </trkpt>
      <trkpt lat="48.27935" lon="7.28215">
        <ele>415.7</ele>
        <time>2000-01-01T10:34:25.000Z</time>
      </trkpt>
      <trkpt lat="48.2793" lon="7.28232">
        <ele>402</ele>
        <time>2000-01-01T10:34:35.000Z</time>
      </trkpt>
      <trkpt lat="48.27923" lon="7.2825">
        <ele>406.2</ele>
        <time>2000-01-01T10:34:45.000Z</time>
      </trkpt>
      <trkpt lat="48.27923" lon="7.2826">
        <ele>401</ele>
        <time>2000-01-01T10:34:55.000Z</time>
      </trkpt>
      <trkpt lat="48.27921" lon="7.28277">
        <ele>411.6</ele>
        <time>2000-01-01T10:35:05.000Z</time>
      </trkpt>
      <trkpt lat="48.2792" lon="7.28291">
        <ele>400</ele>
        <time>2000-01-01T10:35:15.000Z</time>
      </trkpt>
      <trkpt lat="48.27921" lon="7.28299">
        <ele>411.9</ele>
        <time>2000-01-01T10:35:25.000Z</time>
      </trkpt>
      <trkpt lat="48.27924" lon="7.28309">
        <ele>410.8</ele>
        <time>2000-01-01T10:35:35.000Z</time>
      </trkpt>
      <trkpt lat="48.27924" lon="7.28315">
        <ele>409.4</ele>
        <time>2000-01-01T10:35:45.000Z</time>
      </trkpt>
      <trkpt lat="48.27924" lon="7.28318">
        <ele>398</ele>
        <time>2000-01-01T10:35:55.000Z</time>
      </trkpt>
      <trkpt lat="48.27923" lon="7.2832">
        <ele>407.7</ele>
        <time>2000-01-01T10:36:05.000Z</time>
      </trkpt>
      <trkpt lat="48.27922" lon="7.28321">
        <ele>407.1</ele>
        <time>2000-01-01T10:36:15.000Z</time>
      </trkpt>
      <trkpt lat="48.27914" lon="7.28319">
        <ele>393.2</ele>
        <time>2000-01-01T10:36:25.000Z</time>
      </trkpt>
      <trkpt lat="48.27897" lon="7.28334">
        <ele>384</ele>
        <time>2000-01-01T10:36:35.000Z</time>
      </trkpt>
      <trkpt lat="48.2789" lon="7.28336">
        <ele>387.6</ele>
        <time>2000-01-01T10:36:45.000Z</time>
      </trkpt>
      <trkpt lat="48.27882" lon="7.28339">
        <ele>385.3</ele>
        <time>2000-01-01T10:36:55.000Z</time>
      </trkpt>
      <trkpt lat="48.27868" lon="7.28344">
        <ele>375</ele>
        <time>2000-01-01T10:37:05.000Z</time>
      </trkpt>
      <trkpt lat="48.2786" lon="7.28349">
        <ele>380.1</ele>
        <time>2000-01-01T10:37:15.000Z</time>
      </trkpt>
      <trkpt lat="48.27848" lon="7.28354">
        <ele>371</ele>
        <time>2000-01-01T10:37:25.000Z</time>
      </trkpt>
      <trkpt lat="48.27844" lon="7.28354">
        <ele>377.6</ele>
        <time>2000-01-01T10:37:35.000Z</time>
      </trkpt>
      <trkpt lat="48.27837" lon="7.28355">
        <ele>376.9</ele>
        <time>2000-01-01T10:37:45.000Z</time>
      </trkpt>
      <trkpt lat="48.27827" lon="7.28354">
        <ele>368</ele>
        <time>2000-01-01T10:37:55.000Z</time>
      </trkpt>
      <trkpt lat="48.2782" lon="7.28351">
        <ele>366.6</ele>
        <time>2000-01-01T10:38:05.000Z</time>
      </trkpt>
      <trkpt lat="48.27814" lon="7.28347">
        <ele>366.4</ele>
        <time>2000-01-01T10:38:15.000Z</time>
      </trkpt>
      <trkpt lat="48.27805" lon="7.28342">
        <ele>366</ele>
        <time>2000-01-01T10:38:25.000Z</time>
      </trkpt>
      <trkpt lat="48.27797" lon="7.28337">
        <ele>364.9</ele>
        <time>2000-01-01T10:38:35.000Z</time>
      </trkpt>
      <trkpt lat="48.27784" lon="7.28326">
        <ele>363</ele>
        <time>2000-01-01T10:38:45.000Z</time>
      </trkpt>
      <trkpt lat="48.27779" lon="7.28318">
        <ele>364</ele>
        <time>2000-01-01T10:38:55.000Z</time>
      </trkpt>
      <trkpt lat="48.27773" lon="7.28305">
        <ele>361</ele>
        <time>2000-01-01T10:39:05.000Z</time>
      </trkpt>
      <trkpt lat="48.27768" lon="7.28294">
        <ele>363.5</ele>
        <time>2000-01-01T10:39:15.000Z</time>
      </trkpt>
      <trkpt lat="48.2776" lon="7.28282">
        <ele>359</ele>
        <time>2000-01-01T10:39:25.000Z</time>
      </trkpt>
      <trkpt lat="48.27743" lon="7.28265">
        <ele>359</ele>
        <time>2000-01-01T10:39:35.000Z</time>
      </trkpt>
      <trkpt lat="48.27728" lon="7.28251">
        <ele>359</ele>
        <time>2000-01-01T10:39:45.000Z</time>
      </trkpt>
      <trkpt lat="48.27713" lon="7.2823">
        <ele>359</ele>
        <time>2000-01-01T10:39:55.000Z</time>
      </trkpt>
      <trkpt lat="48.27697" lon="7.28213">
        <ele>362</ele>
        <time>2000-01-01T10:40:05.000Z</time>
      </trkpt>
      <trkpt lat="48.27689" lon="7.28202">
        <ele>356.5</ele>
        <time>2000-01-01T10:40:15.000Z</time>
      </trkpt>
      <trkpt lat="48.27677" lon="7.28181">
        <ele>362</ele>
        <time>2000-01-01T10:40:25.000Z</time>
      </trkpt>
      <trkpt lat="48.27661" lon="7.28161">
        <ele>360</ele>
        <time>2000-01-01T10:40:35.000Z</time>
      </trkpt>
      <trkpt lat="48.27647" lon="7.28157">
        <ele>351.4</ele>
        <time>2000-01-01T10:40:45.000Z</time>
      </trkpt>
      <trkpt lat="48.27629" lon="7.28152">
        <ele>360</ele>
        <time>2000-01-01T10:40:55.000Z</time>
      </trkpt>
      <trkpt lat="48.27613" lon="7.28151">
        <ele>349.6</ele>
        <time>2000-01-01T10:41:05.000Z</time>
      </trkpt>
      <trkpt lat="48.27605" lon="7.28151">
        <ele>358</ele>
        <time>2000-01-01T10:41:15.000Z</time>
      </trkpt>
      <trkpt lat="48.27594" lon="7.28151">
        <ele>351.1</ele>
        <time>2000-01-01T10:41:25.000Z</time>
      </trkpt>
      <trkpt lat="48.27584" lon="7.28146">
        <ele>353</ele>
        <time>2000-01-01T10:41:35.000Z</time>
      </trkpt>
      <trkpt lat="48.27563" lon="7.28147">
        <ele>351</ele>
        <time>2000-01-01T10:41:45.000Z</time>
      </trkpt>
      <trkpt lat="48.27548" lon="7.2815">
        <ele>339.5</ele>
        <time>2000-01-01T10:41:55.000Z</time>
      </trkpt>
      <trkpt lat="48.27537" lon="7.28155">
        <ele>347</ele>
        <time>2000-01-01T10:42:05.000Z</time>
      </trkpt>
      <trkpt lat="48.27529" lon="7.2816">
        <ele>338</ele>
        <time>2000-01-01T10:42:15.000Z</time>
      </trkpt>
      <trkpt lat="48.27522" lon="7.28165">
        <ele>337.9</ele>
        <time>2000-01-01T10:42:25.000Z</time>
      </trkpt>
      <trkpt lat="48.27519" lon="7.28169">
        <ele>343</ele>
        <time>2000-01-01T10:42:35.000Z</time>
      </trkpt>
      <trkpt lat="48.27521" lon="7.28163">
        <ele>337.7</ele>
        <time>2000-01-01T10:42:45.000Z</time>
      </trkpt>
      <trkpt lat="48.27524" lon="7.28157">
        <ele>337.5</ele>
        <time>2000-01-01T10:42:55.000Z</time>
      </trkpt>
      <trkpt lat="48.27527" lon="7.28146">
        <ele>336.6</ele>
        <time>2000-01-01T10:43:05.000Z</time>
      </trkpt>
      <trkpt lat="48.27528" lon="7.2813">
        <ele>335</ele>
        <time>2000-01-01T10:43:15.000Z</time>
      </trkpt>
      <trkpt lat="48.27528" lon="7.28127">
        <ele>333.9</ele>
        <time>2000-01-01T10:43:25.000Z</time>
      </trkpt>
      <trkpt lat="48.2753" lon="7.28115">
        <ele>332</ele>
        <time>2000-01-01T10:43:35.000Z</time>
      </trkpt>
      <trkpt lat="48.27531" lon="7.28112">
        <ele>331.6</ele>
        <time>2000-01-01T10:43:45.000Z</time>
      </trkpt>
      <trkpt lat="48.27528" lon="7.2811">
        <ele>330.8</ele>
        <time>2000-01-01T10:43:55.000Z</time>
      </trkpt>
      <trkpt lat="48.27522" lon="7.28111">
        <ele>331</ele>
        <time>2000-01-01T10:44:05.000Z</time>
      </trkpt>
      <trkpt lat="48.27513" lon="7.28116">
        <ele>330.2</ele>
        <time>2000-01-01T10:44:15.000Z</time>
      </trkpt>
      <trkpt lat="48.2751" lon="7.28118">
        <ele>330.4</ele>
        <time>2000-01-01T10:44:25.000Z</time>
      </trkpt>
      <trkpt lat="48.27508" lon="7.28119">
        <ele>330.5</ele>
        <time>2000-01-01T10:44:35.000Z</time>
      </trkpt>
      <trkpt lat="48.27507" lon="7.28112">
        <ele>325</ele>
        <time>2000-01-01T10:44:45.000Z</time>
      </trkpt>
      <trkpt lat="48.27509" lon="7.28103">
        <ele>325.8</ele>
        <time>2000-01-01T10:44:55.000Z</time>
      </trkpt>
      <trkpt lat="48.27511" lon="7.28095">
        <ele>323.4</ele>
        <time>2000-01-01T10:45:05.000Z</time>
      </trkpt>
      <trkpt lat="48.27516" lon="7.28087">
        <ele>319</ele>
        <time>2000-01-01T10:45:15.000Z</time>
      </trkpt>
      <trkpt lat="48.2752" lon="7.2808">
        <ele>311.1</ele>
        <time>2000-01-01T10:45:25.000Z</time>
      </trkpt>
      <trkpt lat="48.27527" lon="7.28073">
        <ele>310.9</ele>
        <time>2000-01-01T10:45:35.000Z</time>
      </trkpt>
      <trkpt lat="48.27531" lon="7.28069">
        <ele>318</ele>
        <time>2000-01-01T10:45:45.000Z</time>
      </trkpt>
      <trkpt lat="48.27525" lon="7.28062">
        <ele>309.5</ele>
        <time>2000-01-01T10:45:55.000Z</time>
      </trkpt>
      <trkpt lat="48.27519" lon="7.2806">
        <ele>309</ele>
        <time>2000-01-01T10:46:05.000Z</time>
      </trkpt>
      <trkpt lat="48.27517" lon="7.28053">
        <ele>310</ele>
        <time>2000-01-01T10:46:15.000Z</time>
      </trkpt>
      <trkpt lat="48.27521" lon="7.28046">
        <ele>306.7</ele>
        <time>2000-01-01T10:46:25.000Z</time>
      </trkpt>
      <trkpt lat="48.27525" lon="7.28041">
        <ele>306</ele>
        <time>2000-01-01T10:46:35.000Z</time>
      </trkpt>
      <trkpt lat="48.27528" lon="7.28034">
        <ele>305</ele>
        <time>2000-01-01T10:46:45.000Z</time>
      </trkpt>
      <trkpt lat="48.27525" lon="7.2803">
        <ele>307</ele>
        <time>2000-01-01T10:46:55.000Z</time>
      </trkpt>
      <trkpt lat="48.27518" lon="7.28031">
        <ele>303.2</ele>
        <time>2000-01-01T10:47:05.000Z</time>
      </trkpt>
      <trkpt lat="48.27504" lon="7.28038">
        <ele>301</ele>
        <time>2000-01-01T10:47:15.000Z</time>
      </trkpt>
      <trkpt lat="48.27501" lon="7.28043">
        <ele>305</ele>
        <time>2000-01-01T10:47:25.000Z</time>
      </trkpt>
      <trkpt lat="48.275" lon="7.28041">
        <ele>293.8</ele>
        <time>2000-01-01T10:47:35.000Z</time>
      </trkpt>
      <trkpt lat="48.27506" lon="7.2803">
        <ele>301.7</ele>
        <time>2000-01-01T10:47:45.000Z</time>
      </trkpt>
      <trkpt lat="48.27513" lon="7.28011">
        <ele>298</ele>
        <time>2000-01-01T10:47:55.000Z</time>
      </trkpt>
      <trkpt lat="48.27516" lon="7.28006">
        <ele>296.5</ele>
        <time>2000-01-01T10:48:05.000Z</time>
      </trkpt>
      <trkpt lat="48.27518" lon="7.27999">
        <ele>286.3</ele>
        <time>2000-01-01T10:48:15.000Z</time>
      </trkpt>
      <trkpt lat="48.27504" lon="7.28001">
        <ele>291</ele>
        <time>2000-01-01T10:48:25.000Z</time>
      </trkpt>
      <trkpt lat="48.27496" lon="7.28006">
        <ele>287.3</ele>
        <time>2000-01-01T10:48:35.000Z</time>
      </trkpt>
      <trkpt lat="48.27486" lon="7.28015">
        <ele>282</ele>
        <time>2000-01-01T10:48:45.000Z</time>
      </trkpt>
      <trkpt lat="48.27485" lon="7.28015">
        <ele>288.9</ele>
        <time>2000-01-01T10:48:55.000Z</time>
      </trkpt>
      <trkpt lat="48.27486" lon="7.28006">
        <ele>288</ele>
        <time>2000-01-01T10:49:05.000Z</time>
      </trkpt>
      <trkpt lat="48.27488" lon="7.27997">
        <ele>282.5</ele>
        <time>2000-01-01T10:49:15.000Z</time>
      </trkpt>
      <trkpt lat="48.27491" lon="7.27989">
        <ele>276</ele>
        <time>2000-01-01T10:49:25.000Z</time>
      </trkpt>
      <trkpt lat="48.275" lon="7.27979">
        <ele>281</ele>
        <time>2000-01-01T10:49:35.000Z</time>
      </trkpt>
      <trkpt lat="48.27503" lon="7.2797">
        <ele>284.5</ele>
        <time>2000-01-01T10:49:45.000Z</time>
      </trkpt>
      <trkpt lat="48.27502" lon="7.2797">
        <ele>284.5</ele>
        <time>2000-01-01T10:49:55.000Z</time>
      </trkpt>
      <trkpt lat="48.27492" lon="7.27973">
        <ele>275</ele>
        <time>2000-01-01T10:50:05.000Z</time>
      </trkpt>
      <trkpt lat="48.27477" lon="7.27987">
        <ele>274</ele>
        <time>2000-01-01T10:50:15.000Z</time>
      </trkpt>
      <trkpt lat="48.27462" lon="7.28003">
        <ele>287.2</ele>
        <time>2000-01-01T10:50:25.000Z</time>
      </trkpt>
      <trkpt lat="48.27446" lon="7.28019">
        <ele>274</ele>
        <time>2000-01-01T10:50:35.000Z</time>
      </trkpt>
      <trkpt lat="48.27429" lon="7.28032">
        <ele>273</ele>
        <time>2000-01-01T10:50:45.000Z</time>
      </trkpt>
      <trkpt lat="48.2741" lon="7.28047">
        <ele>273</ele>
        <time>2000-01-01T10:50:55.000Z</time>
      </trkpt>
      <trkpt lat="48.27392" lon="7.28059">
        <ele>273</ele>
        <time>2000-01-01T10:51:05.000Z</time>
      </trkpt>
      <trkpt lat="48.27372" lon="7.28067">
        <ele>272</ele>
        <time>2000-01-01T10:51:15.000Z</time>
      </trkpt>
      <trkpt lat="48.27353" lon="7.28071">
        <ele>272</ele>
        <time>2000-01-01T10:51:25.000Z</time>
      </trkpt>
      <trkpt lat="48.27335" lon="7.28065">
        <ele>272</ele>
        <time>2000-01-01T10:51:35.000Z</time>
      </trkpt>
      <trkpt lat="48.27315" lon="7.28056">
        <ele>272</ele>
        <time>2000-01-01T10:51:45.000Z</time>
      </trkpt>
      <trkpt lat="48.27296" lon="7.2805">
        <ele>272</ele>
        <time>2000-01-01T10:51:55.000Z</time>
      </trkpt>
      <trkpt lat="48.27289" lon="7.28051">
        <ele>272.2</ele>
        <time>2000-01-01T10:52:05.000Z</time>
      </trkpt>
      <trkpt lat="48.27271" lon="7.28058">
        <ele>271</ele>
        <time>2000-01-01T10:52:15.000Z</time>
      </trkpt>
      <trkpt lat="48.27254" lon="7.2807">
        <ele>271</ele>
        <time>2000-01-01T10:52:25.000Z</time>
      </trkpt>
      <trkpt lat="48.27236" lon="7.28083">
        <ele>271</ele>
        <time>2000-01-01T10:52:35.000Z</time>
      </trkpt>
      <trkpt lat="48.27214" lon="7.28099">
        <ele>270</ele>
        <time>2000-01-01T10:52:45.000Z</time>
      </trkpt>
      <trkpt lat="48.27194" lon="7.28105">
        <ele>269</ele>
        <time>2000-01-01T10:52:55.000Z</time>
      </trkpt>
      <trkpt lat="48.27183" lon="7.28103">
        <ele>269.2</ele>
        <time>2000-01-01T10:53:05.000Z</time>
      </trkpt>
      <trkpt lat="48.27164" lon="7.28102">
        <ele>269</ele>
        <time>2000-01-01T10:53:15.000Z</time>
      </trkpt>
      <trkpt lat="48.27144" lon="7.28106">
        <ele>269</ele>
        <time>2000-01-01T10:53:25.000Z</time>
      </trkpt>
      <trkpt lat="48.27126" lon="7.28108">
        <ele>269</ele>
        <time>2000-01-01T10:53:35.000Z</time>
      </trkpt>
      <trkpt lat="48.27108" lon="7.28113">
        <ele>269</ele>
        <time>2000-01-01T10:53:45.000Z</time>
      </trkpt>
      <trkpt lat="48.2709" lon="7.28125">
        <ele>269</ele>
        <time>2000-01-01T10:53:55.000Z</time>
      </trkpt>
      <trkpt lat="48.27073" lon="7.28137">
        <ele>269</ele>
        <time>2000-01-01T10:54:05.000Z</time>
      </trkpt>
      <trkpt lat="48.27055" lon="7.28142">
        <ele>269.6</ele>
        <time>2000-01-01T10:54:15.000Z</time>
      </trkpt>
      <trkpt lat="48.27036" lon="7.28153">
        <ele>268</ele>
        <time>2000-01-01T10:54:25.000Z</time>
      </trkpt>
      <trkpt lat="48.27027" lon="7.28163">
        <ele>270.1</ele>
        <time>2000-01-01T10:54:35.000Z</time>
      </trkpt>
      <trkpt lat="48.27019" lon="7.28194">
        <ele>268</ele>
        <time>2000-01-01T10:54:45.000Z</time>
      </trkpt>
      <trkpt lat="48.27016" lon="7.28198">
        <ele>270.2</ele>
        <time>2000-01-01T10:54:55.000Z</time>
      </trkpt>
      <trkpt lat="48.26999" lon="7.2821">
        <ele>269</ele>
        <time>2000-01-01T10:55:05.000Z</time>
      </trkpt>
      <trkpt lat="48.26981" lon="7.28231">
        <ele>270</ele>
        <time>2000-01-01T10:55:15.000Z</time>
      </trkpt>
      <trkpt lat="48.2698" lon="7.28237">
        <ele>270.9</ele>
        <time>2000-01-01T10:55:25.000Z</time>
      </trkpt>
      <trkpt lat="48.26979" lon="7.28262">
        <ele>271</ele>
        <time>2000-01-01T10:55:35.000Z</time>
      </trkpt>
      <trkpt lat="48.26974" lon="7.28289">
        <ele>271</ele>
        <time>2000-01-01T10:55:45.000Z</time>
      </trkpt>
      <trkpt lat="48.26969" lon="7.283">
        <ele>272.8</ele>
        <time>2000-01-01T10:55:55.000Z</time>
      </trkpt>
      <trkpt lat="48.26959" lon="7.28329">
        <ele>273</ele>
        <time>2000-01-01T10:56:05.000Z</time>
      </trkpt>
      <trkpt lat="48.26943" lon="7.28342">
        <ele>273</ele>
        <time>2000-01-01T10:56:15.000Z</time>
      </trkpt>
      <trkpt lat="48.26928" lon="7.2835">
        <ele>274.1</ele>
        <time>2000-01-01T10:56:25.000Z</time>
      </trkpt>
      <trkpt lat="48.2691" lon="7.28352">
        <ele>276</ele>
        <time>2000-01-01T10:56:35.000Z</time>
      </trkpt>
      <trkpt lat="48.26899" lon="7.28349">
        <ele>277.1</ele>
        <time>2000-01-01T10:56:45.000Z</time>
      </trkpt>
      <trkpt lat="48.26875" lon="7.2834">
        <ele>276</ele>
        <time>2000-01-01T10:56:55.000Z</time>
      </trkpt>
      <trkpt lat="48.26857" lon="7.28336">
        <ele>277</ele>
        <time>2000-01-01T10:57:05.000Z</time>
      </trkpt>
      <trkpt lat="48.26853" lon="7.28342">
        <ele>278.9</ele>
        <time>2000-01-01T10:57:15.000Z</time>
      </trkpt>
      <trkpt lat="48.26836" lon="7.28341">
        <ele>280</ele>
        <time>2000-01-01T10:57:25.000Z</time>
      </trkpt>
      <trkpt lat="48.26825" lon="7.28342">
        <ele>286.2</ele>
        <time>2000-01-01T10:57:35.000Z</time>
      </trkpt>
      <trkpt lat="48.26819" lon="7.28339">
        <ele>287.6</ele>
        <time>2000-01-01T10:57:45.000Z</time>
      </trkpt>
      <trkpt lat="48.26816" lon="7.28341">
        <ele>282</ele>
        <time>2000-01-01T10:57:55.000Z</time>
      </trkpt>
      <trkpt lat="48.26815" lon="7.2835">
        <ele>290.4</ele>
        <time>2000-01-01T10:58:05.000Z</time>
      </trkpt>
      <trkpt lat="48.26815" lon="7.28363">
        <ele>292</ele>
        <time>2000-01-01T10:58:15.000Z</time>
      </trkpt>
      <trkpt lat="48.26817" lon="7.28371">
        <ele>285</ele>
        <time>2000-01-01T10:58:25.000Z</time>
      </trkpt>
      <trkpt lat="48.26818" lon="7.2838">
        <ele>292.5</ele>
        <time>2000-01-01T10:58:35.000Z</time>
      </trkpt>
      <trkpt lat="48.26817" lon="7.28392">
        <ele>292.3</ele>
        <time>2000-01-01T10:58:45.000Z</time>
      </trkpt>
      <trkpt lat="48.26813" lon="7.28403">
        <ele>288</ele>
        <time>2000-01-01T10:58:55.000Z</time>
      </trkpt>
      <trkpt lat="48.26805" lon="7.28427">
        <ele>294</ele>
        <time>2000-01-01T10:59:05.000Z</time>
      </trkpt>
      <trkpt lat="48.26795" lon="7.28442">
        <ele>302.6</ele>
        <time>2000-01-01T10:59:15.000Z</time>
      </trkpt>
      <trkpt lat="48.26791" lon="7.2845">
        <ele>297</ele>
        <time>2000-01-01T10:59:25.000Z</time>
      </trkpt>
      <trkpt lat="48.26787" lon="7.28463">
        <ele>305.2</ele>
        <time>2000-01-01T10:59:35.000Z</time>
      </trkpt>
      <trkpt lat="48.26785" lon="7.28469">
        <ele>306</ele>
        <time>2000-01-01T10:59:45.000Z</time>
      </trkpt>
      <trkpt lat="48.26783" lon="7.28481">
        <ele>303</ele>
        <time>2000-01-01T10:59:55.000Z</time>
      </trkpt>
      <trkpt lat="48.26781" lon="7.28485">
        <ele>308.2</ele>
        <time>2000-01-01T11:00:05.000Z</time>
      </trkpt>
      <trkpt lat="48.26777" lon="7.28493">
        <ele>310.2</ele>
        <time>2000-01-01T11:00:15.000Z</time>
      </trkpt>
      <trkpt lat="48.26776" lon="7.28503">
        <ele>313.2</ele>
        <time>2000-01-01T11:00:25.000Z</time>
      </trkpt>
      <trkpt lat="48.26777" lon="7.28514">
        <ele>310</ele>
        <time>2000-01-01T11:00:35.000Z</time>
      </trkpt>
      <trkpt lat="48.26777" lon="7.2852">
        <ele>312</ele>
        <time>2000-01-01T11:00:45.000Z</time>
      </trkpt>
      <trkpt lat="48.26776" lon="7.28524">
        <ele>312</ele>
        <time>2000-01-01T11:00:55.000Z</time>
      </trkpt>
      <trkpt lat="48.26772" lon="7.2854">
        <ele>310</ele>
        <time>2000-01-01T11:01:05.000Z</time>
      </trkpt>
      <trkpt lat="48.26767" lon="7.28549">
        <ele>313.6</ele>
        <time>2000-01-01T11:01:15.000Z</time>
      </trkpt>
      <trkpt lat="48.26764" lon="7.28555">
        <ele>314.7</ele>
        <time>2000-01-01T11:01:25.000Z</time>
      </trkpt>
      <trkpt lat="48.26757" lon="7.28568">
        <ele>317</ele>
        <time>2000-01-01T11:01:35.000Z</time>
      </trkpt>
      <trkpt lat="48.26756" lon="7.28572">
        <ele>320.3</ele>
        <time>2000-01-01T11:01:45.000Z</time>
      </trkpt>
      <trkpt lat="48.26755" lon="7.28575">
        <ele>321.7</ele>
        <time>2000-01-01T11:01:55.000Z</time>
      </trkpt>
      <trkpt lat="48.26755" lon="7.28576">
        <ele>322.2</ele>
        <time>2000-01-01T11:02:05.000Z</time>
      </trkpt>
      <trkpt lat="48.26754" lon="7.2858">
        <ele>324.3</ele>
        <time>2000-01-01T11:02:15.000Z</time>
      </trkpt>
      <trkpt lat="48.26754" lon="7.28585">
        <ele>325.2</ele>
        <time>2000-01-01T11:02:25.000Z</time>
      </trkpt>
      <trkpt lat="48.26753" lon="7.28588">
        <ele>324.6</ele>
        <time>2000-01-01T11:02:35.000Z</time>
      </trkpt>
      <trkpt lat="48.26753" lon="7.28592">
        <ele>322.9</ele>
        <time>2000-01-01T11:02:45.000Z</time>
      </trkpt>
      <trkpt lat="48.26755" lon="7.28596">
        <ele>319</ele>
        <time>2000-01-01T11:02:55.000Z</time>
      </trkpt>
      <trkpt lat="48.26754" lon="7.28599">
        <ele>320.4</ele>
        <time>2000-01-01T11:03:05.000Z</time>
      </trkpt>
      <trkpt lat="48.26755" lon="7.28613">
        <ele>317.9</ele>
        <time>2000-01-01T11:03:15.000Z</time>
      </trkpt>
      <trkpt lat="48.26754" lon="7.28629">
        <ele>322</ele>
        <time>2000-01-01T11:03:25.000Z</time>
      </trkpt>
      <trkpt lat="48.26752" lon="7.28638">
        <ele>318.8</ele>
        <time>2000-01-01T11:03:35.000Z</time>
      </trkpt>
      <trkpt lat="48.2675" lon="7.28643">
        <ele>339.5</ele>
        <time>2000-01-01T11:03:45.000Z</time>
      </trkpt>
      <trkpt lat="48.26748" lon="7.28647">
        <ele>338.9</ele>
        <time>2000-01-01T11:03:55.000Z</time>
      </trkpt>
      <trkpt lat="48.26746" lon="7.28652">
        <ele>337.8</ele>
        <time>2000-01-01T11:04:05.000Z</time>
      </trkpt>
      <trkpt lat="48.26745" lon="7.28658">
        <ele>330</ele>
        <time>2000-01-01T11:04:15.000Z</time>
      </trkpt>
      <trkpt lat="48.26745" lon="7.28662">
        <ele>334.4</ele>
        <time>2000-01-01T11:04:25.000Z</time>
      </trkpt>
      <trkpt lat="48.26743" lon="7.28675">
        <ele>337.5</ele>
        <time>2000-01-01T11:04:35.000Z</time>
      </trkpt>
      <trkpt lat="48.2674" lon="7.28687">
        <ele>332</ele>
        <time>2000-01-01T11:04:45.000Z</time>
      </trkpt>
      <trkpt lat="48.2674" lon="7.28697">
        <ele>344.2</ele>
        <time>2000-01-01T11:04:55.000Z</time>
      </trkpt>
      <trkpt lat="48.26739" lon="7.28701">
        <ele>344.9</ele>
        <time>2000-01-01T11:05:05.000Z</time>
      </trkpt>
      <trkpt lat="48.26737" lon="7.28708">
        <ele>345.7</ele>
        <time>2000-01-01T11:05:15.000Z</time>
      </trkpt>
      <trkpt lat="48.26736" lon="7.28715">
        <ele>338</ele>
        <time>2000-01-01T11:05:25.000Z</time>
      </trkpt>
      <trkpt lat="48.26735" lon="7.28724">
        <ele>345.8</ele>
        <time>2000-01-01T11:05:35.000Z</time>
      </trkpt>
      <trkpt lat="48.26733" lon="7.28732">
        <ele>345.5</ele>
        <time>2000-01-01T11:05:45.000Z</time>
      </trkpt>
      <trkpt lat="48.26731" lon="7.28743">
        <ele>341</ele>
        <time>2000-01-01T11:05:55.000Z</time>
      </trkpt>
      <trkpt lat="48.26731" lon="7.2875">
        <ele>344.7</ele>
        <time>2000-01-01T11:06:05.000Z</time>
      </trkpt>
      <trkpt lat="48.26729" lon="7.28757">
        <ele>345.7</ele>
        <time>2000-01-01T11:06:15.000Z</time>
      </trkpt>
      <trkpt lat="48.26728" lon="7.28763">
        <ele>346.4</ele>
        <time>2000-01-01T11:06:25.000Z</time>
      </trkpt>
      <trkpt lat="48.26725" lon="7.28771">
        <ele>348</ele>
        <time>2000-01-01T11:06:35.000Z</time>
      </trkpt>
      <trkpt lat="48.26723" lon="7.28778">
        <ele>348.4</ele>
        <time>2000-01-01T11:06:45.000Z</time>
      </trkpt>
      <trkpt lat="48.26715" lon="7.28791">
        <ele>349.9</ele>
        <time>2000-01-01T11:06:55.000Z</time>
      </trkpt>
      <trkpt lat="48.26711" lon="7.28797">
        <ele>352</ele>
        <time>2000-01-01T11:07:05.000Z</time>
      </trkpt>
      <trkpt lat="48.26706" lon="7.28805">
        <ele>351.4</ele>
        <time>2000-01-01T11:07:15.000Z</time>
      </trkpt>
      <trkpt lat="48.26701" lon="7.28813">
        <ele>352.5</ele>
        <time>2000-01-01T11:07:25.000Z</time>
      </trkpt>
      <trkpt lat="48.26699" lon="7.28816">
        <ele>353</ele>
        <time>2000-01-01T11:07:35.000Z</time>
      </trkpt>
      <trkpt lat="48.26688" lon="7.28826">
        <ele>357</ele>
        <time>2000-01-01T11:07:45.000Z</time>
      </trkpt>
      <trkpt lat="48.26682" lon="7.28829">
        <ele>358.2</ele>
        <time>2000-01-01T11:07:55.000Z</time>
      </trkpt>
      <trkpt lat="48.26673" lon="7.2883">
        <ele>361.5</ele>
        <time>2000-01-01T11:08:05.000Z</time>
      </trkpt>
      <trkpt lat="48.26664" lon="7.28829">
        <ele>360</ele>
        <time>2000-01-01T11:08:15.000Z</time>
      </trkpt>
      <trkpt lat="48.26658" lon="7.28831">
        <ele>369.4</ele>
        <time>2000-01-01T11:08:25.000Z</time>
      </trkpt>
      <trkpt lat="48.26656" lon="7.28831">
        <ele>370.1</ele>
        <time>2000-01-01T11:08:35.000Z</time>
      </trkpt>
      <trkpt lat="48.26646" lon="7.28835">
        <ele>366.6</ele>
        <time>2000-01-01T11:08:45.000Z</time>
      </trkpt>
      <trkpt lat="48.26641" lon="7.28838">
        <ele>365</ele>
        <time>2000-01-01T11:08:55.000Z</time>
      </trkpt>
      <trkpt lat="48.26636" lon="7.2884">
        <ele>367.7</ele>
        <time>2000-01-01T11:09:05.000Z</time>
      </trkpt>
      <trkpt lat="48.26633" lon="7.28842">
        <ele>368</ele>
        <time>2000-01-01T11:09:15.000Z</time>
      </trkpt>
      <trkpt lat="48.26625" lon="7.28849">
        <ele>368.9</ele>
        <time>2000-01-01T11:09:25.000Z</time>
      </trkpt>
      <trkpt lat="48.26612" lon="7.28857">
        <ele>369</ele>
        <time>2000-01-01T11:09:35.000Z</time>
      </trkpt>
      <trkpt lat="48.26606" lon="7.2886">
        <ele>370.9</ele>
        <time>2000-01-01T11:09:45.000Z</time>
      </trkpt>
      <trkpt lat="48.26597" lon="7.28866">
        <ele>371.1</ele>
        <time>2000-01-01T11:09:55.000Z</time>
      </trkpt>
      <trkpt lat="48.26591" lon="7.28867">
        <ele>373</ele>
        <time>2000-01-01T11:10:05.000Z</time>
      </trkpt>
      <trkpt lat="48.26584" lon="7.28868">
        <ele>371.8</ele>
        <time>2000-01-01T11:10:15.000Z</time>
      </trkpt>
      <trkpt lat="48.26574" lon="7.28869">
        <ele>378.4</ele>
        <time>2000-01-01T11:10:25.000Z</time>
      </trkpt>
      <trkpt lat="48.26572" lon="7.28869">
        <ele>375</ele>
        <time>2000-01-01T11:10:35.000Z</time>
      </trkpt>
      <trkpt lat="48.26565" lon="7.28871">
        <ele>378</ele>
        <time>2000-01-01T11:10:45.000Z</time>
      </trkpt>
      <trkpt lat="48.26563" lon="7.28872">
        <ele>377.9</ele>
        <time>2000-01-01T11:10:55.000Z</time>
      </trkpt>
      <trkpt lat="48.26545" lon="7.28878">
        <ele>376</ele>
        <time>2000-01-01T11:11:05.000Z</time>
      </trkpt>
      <trkpt lat="48.26531" lon="7.28877">
        <ele>377.3</ele>
        <time>2000-01-01T11:11:15.000Z</time>
      </trkpt>
      <trkpt lat="48.26526" lon="7.28873">
        <ele>377</ele>
        <time>2000-01-01T11:11:25.000Z</time>
      </trkpt>
      <trkpt lat="48.26523" lon="7.28869">
        <ele>378.2</ele>
        <time>2000-01-01T11:11:35.000Z</time>
      </trkpt>
      <trkpt lat="48.26516" lon="7.28864">
        <ele>379</ele>
        <time>2000-01-01T11:11:45.000Z</time>
      </trkpt>
      <trkpt lat="48.26502" lon="7.28859">
        <ele>382</ele>
        <time>2000-01-01T11:11:55.000Z</time>
      </trkpt>
      <trkpt lat="48.26486" lon="7.28849">
        <ele>381.4</ele>
        <time>2000-01-01T11:12:05.000Z</time>
      </trkpt>
      <trkpt lat="48.26468" lon="7.28837">
        <ele>383</ele>
        <time>2000-01-01T11:12:15.000Z</time>
      </trkpt>
      <trkpt lat="48.26452" lon="7.28824">
        <ele>383</ele>
        <time>2000-01-01T11:12:25.000Z</time>
      </trkpt>
      <trkpt lat="48.26434" lon="7.28809">
        <ele>386</ele>
        <time>2000-01-01T11:12:35.000Z</time>
      </trkpt>
      <trkpt lat="48.26422" lon="7.28797">
        <ele>395.8</ele>
        <time>2000-01-01T11:12:45.000Z</time>
      </trkpt>
      <trkpt lat="48.26415" lon="7.28796">
        <ele>386</ele>
        <time>2000-01-01T11:12:55.000Z</time>
      </trkpt>
      <trkpt lat="48.26413" lon="7.28796">
        <ele>404</ele>
        <time>2000-01-01T11:13:05.000Z</time>
      </trkpt>
      <trkpt lat="48.26402" lon="7.28806">
        <ele>402.6</ele>
        <time>2000-01-01T11:13:15.000Z</time>
      </trkpt>
      <trkpt lat="48.26388" lon="7.28823">
        <ele>386</ele>
        <time>2000-01-01T11:13:25.000Z</time>
      </trkpt>
      <trkpt lat="48.26384" lon="7.28829">
        <ele>402.7</ele>
        <time>2000-01-01T11:13:35.000Z</time>
      </trkpt>
      <trkpt lat="48.26374" lon="7.28853">
        <ele>386</ele>
        <time>2000-01-01T11:13:45.000Z</time>
      </trkpt>
      <trkpt lat="48.2637" lon="7.2887">
        <ele>391.9</ele>
        <time>2000-01-01T11:13:55.000Z</time>
      </trkpt>
      <trkpt lat="48.26368" lon="7.28878">
        <ele>391.5</ele>
        <time>2000-01-01T11:14:05.000Z</time>
      </trkpt>
      <trkpt lat="48.26355" lon="7.28891">
        <ele>392.4</ele>
        <time>2000-01-01T11:14:15.000Z</time>
      </trkpt>
      <trkpt lat="48.26355" lon="7.28891">
        <ele>392</ele>
        <time>2000-01-01T11:14:25.000Z</time>
      </trkpt>
      <trkpt lat="48.26354" lon="7.28898">
        <ele>392.3</ele>
        <time>2000-01-01T11:14:35.000Z</time>
      </trkpt>
      <trkpt lat="48.2636" lon="7.2891">
        <ele>391.2</ele>
        <time>2000-01-01T11:14:45.000Z</time>
      </trkpt>
      <trkpt lat="48.26361" lon="7.2893">
        <ele>389</ele>
        <time>2000-01-01T11:14:55.000Z</time>
      </trkpt>
      <trkpt lat="48.26363" lon="7.28939">
        <ele>384</ele>
        <time>2000-01-01T11:15:05.000Z</time>
      </trkpt>
      <trkpt lat="48.26367" lon="7.28968">
        <ele>387</ele>
        <time>2000-01-01T11:15:15.000Z</time>
      </trkpt>
      <trkpt lat="48.26367" lon="7.28977">
        <ele>382.5</ele>
        <time>2000-01-01T11:15:25.000Z</time>
      </trkpt>
      <trkpt lat="48.26365" lon="7.29">
        <ele>385</ele>
        <time>2000-01-01T11:15:35.000Z</time>
      </trkpt>
      <trkpt lat="48.26365" lon="7.29009">
        <ele>380.8</ele>
        <time>2000-01-01T11:15:45.000Z</time>
      </trkpt>
      <trkpt lat="48.26366" lon="7.2902">
        <ele>380</ele>
        <time>2000-01-01T11:15:55.000Z</time>
      </trkpt>
      <trkpt lat="48.26362" lon="7.29036">
        <ele>382</ele>
        <time>2000-01-01T11:16:05.000Z</time>
      </trkpt>
      <trkpt lat="48.2636" lon="7.29048">
        <ele>380.2</ele>
        <time>2000-01-01T11:16:15.000Z</time>
      </trkpt>
      <trkpt lat="48.26358" lon="7.29062">
        <ele>381</ele>
        <time>2000-01-01T11:16:25.000Z</time>
      </trkpt>
      <trkpt lat="48.26353" lon="7.29079">
        <ele>383.4</ele>
        <time>2000-01-01T11:16:35.000Z</time>
      </trkpt>
      <trkpt lat="48.26349" lon="7.29101">
        <ele>380</ele>
        <time>2000-01-01T11:16:45.000Z</time>
      </trkpt>
      <trkpt lat="48.26343" lon="7.29119">
        <ele>379.2</ele>
        <time>2000-01-01T11:16:55.000Z</time>
      </trkpt>
      <trkpt lat="48.26341" lon="7.29138">
        <ele>377</ele>
        <time>2000-01-01T11:17:05.000Z</time>
      </trkpt>
      <trkpt lat="48.26335" lon="7.29154">
        <ele>381.1</ele>
        <time>2000-01-01T11:17:15.000Z</time>
      </trkpt>
      <trkpt lat="48.26333" lon="7.29174">
        <ele>373</ele>
        <time>2000-01-01T11:17:25.000Z</time>
      </trkpt>
      <trkpt lat="48.26329" lon="7.29197">
        <ele>380.5</ele>
        <time>2000-01-01T11:17:35.000Z</time>
      </trkpt>
      <trkpt lat="48.2632" lon="7.29226">
        <ele>372</ele>
        <time>2000-01-01T11:17:45.000Z</time>
      </trkpt>
      <trkpt lat="48.26305" lon="7.29244">
        <ele>370</ele>
        <time>2000-01-01T11:17:55.000Z</time>
      </trkpt>
      <trkpt lat="48.26294" lon="7.29244">
        <ele>376.6</ele>
        <time>2000-01-01T11:18:05.000Z</time>
      </trkpt>
      <trkpt lat="48.26276" lon="7.29243">
        <ele>366</ele>
        <time>2000-01-01T11:18:15.000Z</time>
      </trkpt>
      <trkpt lat="48.26266" lon="7.29235">
        <ele>375</ele>
        <time>2000-01-01T11:18:25.000Z</time>
      </trkpt>
      <trkpt lat="48.26248" lon="7.29221">
        <ele>363</ele>
        <time>2000-01-01T11:18:35.000Z</time>
      </trkpt>
      <trkpt lat="48.26243" lon="7.29212">
        <ele>373.4</ele>
        <time>2000-01-01T11:18:45.000Z</time>
      </trkpt>
      <trkpt lat="48.26237" lon="7.29204">
        <ele>374.3</ele>
        <time>2000-01-01T11:18:55.000Z</time>
      </trkpt>
      <trkpt lat="48.26223" lon="7.29184">
        <ele>363</ele>
        <time>2000-01-01T11:19:05.000Z</time>
      </trkpt>
      <trkpt lat="48.26218" lon="7.29174">
        <ele>376.1</ele>
        <time>2000-01-01T11:19:15.000Z</time>
      </trkpt>
      <trkpt lat="48.26213" lon="7.29167">
        <ele>375.7</ele>
        <time>2000-01-01T11:19:25.000Z</time>
      </trkpt>
      <trkpt lat="48.26209" lon="7.29147">
        <ele>363</ele>
        <time>2000-01-01T11:19:35.000Z</time>
      </trkpt>
      <trkpt lat="48.26201" lon="7.29123">
        <ele>361</ele>
        <time>2000-01-01T11:19:45.000Z</time>
      </trkpt>
      <trkpt lat="48.26198" lon="7.29106">
        <ele>388.9</ele>
        <time>2000-01-01T11:19:55.000Z</time>
      </trkpt>
      <trkpt lat="48.26194" lon="7.29102">
        <ele>389.1</ele>
        <time>2000-01-01T11:20:05.000Z</time>
      </trkpt>
      <trkpt lat="48.26186" lon="7.29103">
        <ele>359</ele>
        <time>2000-01-01T11:20:15.000Z</time>
      </trkpt>
      <trkpt lat="48.26171" lon="7.2912">
        <ele>361</ele>
        <time>2000-01-01T11:20:25.000Z</time>
      </trkpt>
      <trkpt lat="48.2616" lon="7.29144">
        <ele>362</ele>
        <time>2000-01-01T11:20:35.000Z</time>
      </trkpt>
      <trkpt lat="48.26145" lon="7.29164">
        <ele>362</ele>
        <time>2000-01-01T11:20:45.000Z</time>
      </trkpt>
      <trkpt lat="48.26135" lon="7.29166">
        <ele>379.7</ele>
        <time>2000-01-01T11:20:55.000Z</time>
      </trkpt>
      <trkpt lat="48.26118" lon="7.29153">
        <ele>362</ele>
        <time>2000-01-01T11:21:05.000Z</time>
      </trkpt>
      <trkpt lat="48.26101" lon="7.29139">
        <ele>363</ele>
        <time>2000-01-01T11:21:15.000Z</time>
      </trkpt>
      <trkpt lat="48.26087" lon="7.29121">
        <ele>364</ele>
        <time>2000-01-01T11:21:25.000Z</time>
      </trkpt>
      <trkpt lat="48.26081" lon="7.29116">
        <ele>390.3</ele>
        <time>2000-01-01T11:21:35.000Z</time>
      </trkpt>
      <trkpt lat="48.26072" lon="7.2911">
        <ele>391.4</ele>
        <time>2000-01-01T11:21:45.000Z</time>
      </trkpt>
      <trkpt lat="48.26066" lon="7.29109">
        <ele>364</ele>
        <time>2000-01-01T11:21:55.000Z</time>
      </trkpt>
      <trkpt lat="48.26063" lon="7.29107">
        <ele>391.9</ele>
        <time>2000-01-01T11:22:05.000Z</time>
      </trkpt>
      <trkpt lat="48.26059" lon="7.29106">
        <ele>392.1</ele>
        <time>2000-01-01T11:22:15.000Z</time>
      </trkpt>
      <trkpt lat="48.26058" lon="7.29105">
        <ele>392.2</ele>
        <time>2000-01-01T11:22:25.000Z</time>
      </trkpt>
      <trkpt lat="48.26059" lon="7.29107">
        <ele>392</ele>
        <time>2000-01-01T11:22:35.000Z</time>
      </trkpt>
      <trkpt lat="48.26061" lon="7.29111">
        <ele>391.5</ele>
        <time>2000-01-01T11:22:45.000Z</time>
      </trkpt>
      <trkpt lat="48.26061" lon="7.29124">
        <ele>365</ele>
        <time>2000-01-01T11:22:55.000Z</time>
      </trkpt>
      <trkpt lat="48.26058" lon="7.2914">
        <ele>387.5</ele>
        <time>2000-01-01T11:23:05.000Z</time>
      </trkpt>
      <trkpt lat="48.26057" lon="7.29151">
        <ele>371</ele>
        <time>2000-01-01T11:23:15.000Z</time>
      </trkpt>
      <trkpt lat="48.26053" lon="7.29167">
        <ele>377.6</ele>
        <time>2000-01-01T11:23:25.000Z</time>
      </trkpt>
      <trkpt lat="48.26047" lon="7.29198">
        <ele>377</ele>
        <time>2000-01-01T11:23:35.000Z</time>
      </trkpt>
      <trkpt lat="48.26047" lon="7.29199">
        <ele>377.6</ele>
        <time>2000-01-01T11:23:45.000Z</time>
      </trkpt>
      <trkpt lat="48.26043" lon="7.29211">
        <ele>377.5</ele>
        <time>2000-01-01T11:23:55.000Z</time>
      </trkpt>
      <trkpt lat="48.26038" lon="7.29226">
        <ele>379</ele>
        <time>2000-01-01T11:24:05.000Z</time>
      </trkpt>
      <trkpt lat="48.26032" lon="7.29244">
        <ele>377.6</ele>
        <time>2000-01-01T11:24:15.000Z</time>
      </trkpt>
      <trkpt lat="48.2603" lon="7.29253">
        <ele>381</ele>
        <time>2000-01-01T11:24:25.000Z</time>
      </trkpt>
      <trkpt lat="48.26024" lon="7.29267">
        <ele>371</ele>
        <time>2000-01-01T11:24:35.000Z</time>
      </trkpt>
      <trkpt lat="48.26017" lon="7.29272">
        <ele>384</ele>
        <time>2000-01-01T11:24:45.000Z</time>
      </trkpt>
      <trkpt lat="48.26012" lon="7.2927">
        <ele>372.4</ele>
        <time>2000-01-01T11:24:55.000Z</time>
      </trkpt>
      <trkpt lat="48.26007" lon="7.29267">
        <ele>373.9</ele>
        <time>2000-01-01T11:25:05.000Z</time>
      </trkpt>
      <trkpt lat="48.26" lon="7.29259">
        <ele>385</ele>
        <time>2000-01-01T11:25:15.000Z</time>
      </trkpt>
      <trkpt lat="48.25994" lon="7.29252">
        <ele>379.2</ele>
        <time>2000-01-01T11:25:25.000Z</time>
      </trkpt>
      <trkpt lat="48.25986" lon="7.29241">
        <ele>386</ele>
        <time>2000-01-01T11:25:35.000Z</time>
      </trkpt>
      <trkpt lat="48.25967" lon="7.29219">
        <ele>389</ele>
        <time>2000-01-01T11:25:45.000Z</time>
      </trkpt>
      <trkpt lat="48.25957" lon="7.29203">
        <ele>384.2</ele>
        <time>2000-01-01T11:25:55.000Z</time>
      </trkpt>
      <trkpt lat="48.25948" lon="7.29191">
        <ele>389</ele>
        <time>2000-01-01T11:26:05.000Z</time>
      </trkpt>
      <trkpt lat="48.25934" lon="7.29172">
        <ele>389</ele>
        <time>2000-01-01T11:26:15.000Z</time>
      </trkpt>
      <trkpt lat="48.25923" lon="7.29168">
        <ele>389.3</ele>
        <time>2000-01-01T11:26:25.000Z</time>
      </trkpt>
      <trkpt lat="48.25903" lon="7.29164">
        <ele>390</ele>
        <time>2000-01-01T11:26:35.000Z</time>
      </trkpt>
      <trkpt lat="48.25885" lon="7.29159">
        <ele>396</ele>
        <time>2000-01-01T11:26:45.000Z</time>
      </trkpt>
      <trkpt lat="48.2587" lon="7.29143">
        <ele>390</ele>
        <time>2000-01-01T11:26:55.000Z</time>
      </trkpt>
      <trkpt lat="48.25855" lon="7.29127">
        <ele>388</ele>
        <time>2000-01-01T11:27:05.000Z</time>
      </trkpt>
      <trkpt lat="48.25834" lon="7.29114">
        <ele>386</ele>
        <time>2000-01-01T11:27:15.000Z</time>
      </trkpt>
      <trkpt lat="48.25817" lon="7.29103">
        <ele>403</ele>
        <time>2000-01-01T11:27:25.000Z</time>
      </trkpt>
      <trkpt lat="48.25808" lon="7.29095">
        <ele>383</ele>
        <time>2000-01-01T11:27:35.000Z</time>
      </trkpt>
      <trkpt lat="48.258" lon="7.29083">
        <ele>414.5</ele>
        <time>2000-01-01T11:27:45.000Z</time>
      </trkpt>
      <trkpt lat="48.25794" lon="7.29077">
        <ele>381</ele>
        <time>2000-01-01T11:27:55.000Z</time>
      </trkpt>
      <trkpt lat="48.25786" lon="7.29072">
        <ele>414.1</ele>
        <time>2000-01-01T11:28:05.000Z</time>
      </trkpt>
      <trkpt lat="48.25773" lon="7.29076">
        <ele>379</ele>
        <time>2000-01-01T11:28:15.000Z</time>
      </trkpt>
      <trkpt lat="48.25769" lon="7.29102">
        <ele>402.1</ele>
        <time>2000-01-01T11:28:25.000Z</time>
      </trkpt>
      <trkpt lat="48.25779" lon="7.29127">
        <ele>379</ele>
        <time>2000-01-01T11:28:35.000Z</time>
      </trkpt>
      <trkpt lat="48.25781" lon="7.2913">
        <ele>400.7</ele>
        <time>2000-01-01T11:28:45.000Z</time>
      </trkpt>
      <trkpt lat="48.25785" lon="7.29131">
        <ele>400.3</ele>
        <time>2000-01-01T11:28:55.000Z</time>
      </trkpt>
      <trkpt lat="48.25798" lon="7.29148">
        <ele>373</ele>
        <time>2000-01-01T11:29:05.000Z</time>
      </trkpt>
      <trkpt lat="48.25809" lon="7.29166">
        <ele>392.8</ele>
        <time>2000-01-01T11:29:15.000Z</time>
      </trkpt>
      <trkpt lat="48.25819" lon="7.2919">
        <ele>369</ele>
        <time>2000-01-01T11:29:25.000Z</time>
      </trkpt>
      <trkpt lat="48.2582" lon="7.29203">
        <ele>389.5</ele>
        <time>2000-01-01T11:29:35.000Z</time>
      </trkpt>
      <trkpt lat="48.25824" lon="7.29226">
        <ele>369</ele>
        <time>2000-01-01T11:29:45.000Z</time>
      </trkpt>
      <trkpt lat="48.2583" lon="7.29253">
        <ele>369</ele>
        <time>2000-01-01T11:29:55.000Z</time>
      </trkpt>
      <trkpt lat="48.25839" lon="7.29279">
        <ele>368</ele>
        <time>2000-01-01T11:30:05.000Z</time>
      </trkpt>
      <trkpt lat="48.2584" lon="7.29284">
        <ele>373.5</ele>
        <time>2000-01-01T11:30:15.000Z</time>
      </trkpt>
      <trkpt lat="48.25841" lon="7.29288">
        <ele>373.7</ele>
        <time>2000-01-01T11:30:25.000Z</time>
      </trkpt>
      <trkpt lat="48.25856" lon="7.29301">
        <ele>368</ele>
        <time>2000-01-01T11:30:35.000Z</time>
      </trkpt>
      <trkpt lat="48.25862" lon="7.29306">
        <ele>373.3</ele>
        <time>2000-01-01T11:30:45.000Z</time>
      </trkpt>
      <trkpt lat="48.25873" lon="7.29316">
        <ele>363</ele>
        <time>2000-01-01T11:30:55.000Z</time>
      </trkpt>
      <trkpt lat="48.25883" lon="7.29326">
        <ele>370.7</ele>
        <time>2000-01-01T11:31:05.000Z</time>
      </trkpt>
      <trkpt lat="48.25891" lon="7.29333">
        <ele>359</ele>
        <time>2000-01-01T11:31:15.000Z</time>
      </trkpt>
      <trkpt lat="48.25904" lon="7.2935">
        <ele>370</ele>
        <time>2000-01-01T11:31:25.000Z</time>
      </trkpt>
      <trkpt lat="48.25913" lon="7.29358">
        <ele>356</ele>
        <time>2000-01-01T11:31:35.000Z</time>
      </trkpt>
      <trkpt lat="48.2592" lon="7.29364">
        <ele>362.5</ele>
        <time>2000-01-01T11:31:45.000Z</time>
      </trkpt>
      <trkpt lat="48.25927" lon="7.29369">
        <ele>362.5</ele>
        <time>2000-01-01T11:31:55.000Z</time>
      </trkpt>
      <trkpt lat="48.25934" lon="7.29375">
        <ele>354</ele>
        <time>2000-01-01T11:32:05.000Z</time>
      </trkpt>
      <trkpt lat="48.25938" lon="7.29378">
        <ele>362.4</ele>
        <time>2000-01-01T11:32:15.000Z</time>
      </trkpt>
      <trkpt lat="48.25942" lon="7.29381">
        <ele>362.2</ele>
        <time>2000-01-01T11:32:25.000Z</time>
      </trkpt>
      <trkpt lat="48.25948" lon="7.29389">
        <ele>361.9</ele>
        <time>2000-01-01T11:32:35.000Z</time>
      </trkpt>
      <trkpt lat="48.25958" lon="7.29404">
        <ele>353</ele>
        <time>2000-01-01T11:32:45.000Z</time>
      </trkpt>
      <trkpt lat="48.25963" lon="7.2941">
        <ele>360.2</ele>
        <time>2000-01-01T11:32:55.000Z</time>
      </trkpt>
      <trkpt lat="48.25973" lon="7.2942">
        <ele>350</ele>
        <time>2000-01-01T11:33:05.000Z</time>
      </trkpt>
      <trkpt lat="48.25982" lon="7.29426">
        <ele>359.3</ele>
        <time>2000-01-01T11:33:15.000Z</time>
      </trkpt>
      <trkpt lat="48.25998" lon="7.29435">
        <ele>345</ele>
        <time>2000-01-01T11:33:25.000Z</time>
      </trkpt>
      <trkpt lat="48.26007" lon="7.29437">
        <ele>351.3</ele>
        <time>2000-01-01T11:33:35.000Z</time>
      </trkpt>
      <trkpt lat="48.26017" lon="7.29441">
        <ele>343</ele>
        <time>2000-01-01T11:33:45.000Z</time>
      </trkpt>
      <trkpt lat="48.26028" lon="7.29446">
        <ele>350.9</ele>
        <time>2000-01-01T11:33:55.000Z</time>
      </trkpt>
      <trkpt lat="48.2604" lon="7.29448">
        <ele>340</ele>
        <time>2000-01-01T11:34:05.000Z</time>
      </trkpt>
      <trkpt lat="48.26055" lon="7.29452">
        <ele>349.4</ele>
        <time>2000-01-01T11:34:15.000Z</time>
      </trkpt>
      <trkpt lat="48.26071" lon="7.29455">
        <ele>335</ele>
        <time>2000-01-01T11:34:25.000Z</time>
      </trkpt>
      <trkpt lat="48.26082" lon="7.29457">
        <ele>348.5</ele>
        <time>2000-01-01T11:34:35.000Z</time>
      </trkpt>
      <trkpt lat="48.26099" lon="7.29463">
        <ele>334</ele>
        <time>2000-01-01T11:34:45.000Z</time>
      </trkpt>
      <trkpt lat="48.26114" lon="7.29468">
        <ele>342.9</ele>
        <time>2000-01-01T11:34:55.000Z</time>
      </trkpt>
      <trkpt lat="48.26126" lon="7.29469">
        <ele>334</ele>
        <time>2000-01-01T11:35:05.000Z</time>
      </trkpt>
      <trkpt lat="48.26139" lon="7.2947">
        <ele>342.1</ele>
        <time>2000-01-01T11:35:15.000Z</time>
      </trkpt>
      <trkpt lat="48.26153" lon="7.29466">
        <ele>334</ele>
        <time>2000-01-01T11:35:25.000Z</time>
      </trkpt>
      <trkpt lat="48.26167" lon="7.29464">
        <ele>337.4</ele>
        <time>2000-01-01T11:35:35.000Z</time>
      </trkpt>
      <trkpt lat="48.26184" lon="7.2946">
        <ele>333</ele>
        <time>2000-01-01T11:35:45.000Z</time>
      </trkpt>
      <trkpt lat="48.26202" lon="7.29453">
        <ele>333</ele>
        <time>2000-01-01T11:35:55.000Z</time>
      </trkpt>
      <trkpt lat="48.26217" lon="7.29447">
        <ele>335</ele>
        <time>2000-01-01T11:36:05.000Z</time>
      </trkpt>
      <trkpt lat="48.26232" lon="7.29445">
        <ele>333</ele>
        <time>2000-01-01T11:36:15.000Z</time>
      </trkpt>
      <trkpt lat="48.26243" lon="7.29456">
        <ele>334.7</ele>
        <time>2000-01-01T11:36:25.000Z</time>
      </trkpt>
      <trkpt lat="48.26247" lon="7.29467">
        <ele>328</ele>
        <time>2000-01-01T11:36:35.000Z</time>
      </trkpt>
      <trkpt lat="48.26251" lon="7.29477">
        <ele>332.2</ele>
        <time>2000-01-01T11:36:45.000Z</time>
      </trkpt>
      <trkpt lat="48.26257" lon="7.29484">
        <ele>332.3</ele>
        <time>2000-01-01T11:36:55.000Z</time>
      </trkpt>
      <trkpt lat="48.26261" lon="7.29489">
        <ele>324</ele>
        <time>2000-01-01T11:37:05.000Z</time>
      </trkpt>
      <trkpt lat="48.26266" lon="7.29493">
        <ele>332.1</ele>
        <time>2000-01-01T11:37:15.000Z</time>
      </trkpt>
      <trkpt lat="48.26273" lon="7.29498">
        <ele>331.6</ele>
        <time>2000-01-01T11:37:25.000Z</time>
      </trkpt>
      <trkpt lat="48.26281" lon="7.29505">
        <ele>322</ele>
        <time>2000-01-01T11:37:35.000Z</time>
      </trkpt>
      <trkpt lat="48.26291" lon="7.29512">
        <ele>327.2</ele>
        <time>2000-01-01T11:37:45.000Z</time>
      </trkpt>
      <trkpt lat="48.26293" lon="7.29514">
        <ele>327</ele>
        <time>2000-01-01T11:37:55.000Z</time>
      </trkpt>
      <trkpt lat="48.26292" lon="7.29516">
        <ele>327.1</ele>
        <time>2000-01-01T11:38:05.000Z</time>
      </trkpt>
      <trkpt lat="48.26289" lon="7.29518">
        <ele>327.4</ele>
        <time>2000-01-01T11:38:15.000Z</time>
      </trkpt>
      <trkpt lat="48.26282" lon="7.2952">
        <ele>324</ele>
        <time>2000-01-01T11:38:25.000Z</time>
      </trkpt>
      <trkpt lat="48.26276" lon="7.29522">
        <ele>328.6</ele>
        <time>2000-01-01T11:38:35.000Z</time>
      </trkpt>
      <trkpt lat="48.26272" lon="7.29524">
        <ele>328.9</ele>
        <time>2000-01-01T11:38:45.000Z</time>
      </trkpt>
      <trkpt lat="48.26266" lon="7.29526">
        <ele>329.2</ele>
        <time>2000-01-01T11:38:55.000Z</time>
      </trkpt>
      <trkpt lat="48.26261" lon="7.29526">
        <ele>326</ele>
        <time>2000-01-01T11:39:05.000Z</time>
      </trkpt>
      <trkpt lat="48.26259" lon="7.29525">
        <ele>329.8</ele>
        <time>2000-01-01T11:39:15.000Z</time>
      </trkpt>
      <trkpt lat="48.26256" lon="7.29525">
        <ele>329.9</ele>
        <time>2000-01-01T11:39:25.000Z</time>
      </trkpt>
      <trkpt lat="48.2625" lon="7.29523">
        <ele>330.3</ele>
        <time>2000-01-01T11:39:35.000Z</time>
      </trkpt>
      <trkpt lat="48.26244" lon="7.29526">
        <ele>337.1</ele>
        <time>2000-01-01T11:39:45.000Z</time>
      </trkpt>
      <trkpt lat="48.26242" lon="7.29528">
        <ele>333</ele>
        <time>2000-01-01T11:39:55.000Z</time>
      </trkpt>
      <trkpt lat="48.2624" lon="7.29528">
        <ele>337.4</ele>
        <time>2000-01-01T11:40:05.000Z</time>
      </trkpt>
      <trkpt lat="48.26238" lon="7.2953">
        <ele>337.5</ele>
        <time>2000-01-01T11:40:15.000Z</time>
      </trkpt>
      <trkpt lat="48.26237" lon="7.29532">
        <ele>337.6</ele>
        <time>2000-01-01T11:40:25.000Z</time>
      </trkpt>
      <trkpt lat="48.26236" lon="7.29532">
        <ele>337.7</ele>
        <time>2000-01-01T11:40:35.000Z</time>
      </trkpt>
      <trkpt lat="48.26234" lon="7.29533">
        <ele>337.8</ele>
        <time>2000-01-01T11:40:45.000Z</time>
      </trkpt>
      <trkpt lat="48.26231" lon="7.29535">
        <ele>338</ele>
        <time>2000-01-01T11:40:55.000Z</time>
      </trkpt>
      <trkpt lat="48.26228" lon="7.29536">
        <ele>338.2</ele>
        <time>2000-01-01T11:41:05.000Z</time>
      </trkpt>
      <trkpt lat="48.26224" lon="7.29539">
        <ele>339</ele>
        <time>2000-01-01T11:41:15.000Z</time>
      </trkpt>
      <trkpt lat="48.26221" lon="7.2954">
        <ele>338.6</ele>
        <time>2000-01-01T11:41:25.000Z</time>
      </trkpt>
      <trkpt lat="48.26214" lon="7.29541">
        <ele>339.1</ele>
        <time>2000-01-01T11:41:35.000Z</time>
      </trkpt>
      <trkpt lat="48.26211" lon="7.29541">
        <ele>339.3</ele>
        <time>2000-01-01T11:41:45.000Z</time>
      </trkpt>
      <trkpt lat="48.26204" lon="7.2954">
        <ele>343</ele>
        <time>2000-01-01T11:41:55.000Z</time>
      </trkpt>
      <trkpt lat="48.26198" lon="7.29538">
        <ele>340.2</ele>
        <time>2000-01-01T11:42:05.000Z</time>
      </trkpt>
      <trkpt lat="48.26193" lon="7.29538">
        <ele>340.6</ele>
        <time>2000-01-01T11:42:15.000Z</time>
      </trkpt>
      <trkpt lat="48.26189" lon="7.29539">
        <ele>340.8</ele>
        <time>2000-01-01T11:42:25.000Z</time>
      </trkpt>
      <trkpt lat="48.26184" lon="7.29537">
        <ele>346</ele>
        <time>2000-01-01T11:42:35.000Z</time>
      </trkpt>
      <trkpt lat="48.26178" lon="7.29537">
        <ele>341.4</ele>
        <time>2000-01-01T11:42:45.000Z</time>
      </trkpt>
      <trkpt lat="48.26176" lon="7.29537">
        <ele>341.5</ele>
        <time>2000-01-01T11:42:55.000Z</time>
      </trkpt>
      <trkpt lat="48.26171" lon="7.29536">
        <ele>341.7</ele>
        <time>2000-01-01T11:43:05.000Z</time>
      </trkpt>
      <trkpt lat="48.26163" lon="7.29535">
        <ele>348</ele>
        <time>2000-01-01T11:43:15.000Z</time>
      </trkpt>
      <trkpt lat="48.26153" lon="7.29536">
        <ele>348.2</ele>
        <time>2000-01-01T11:43:25.000Z</time>
      </trkpt>
      <trkpt lat="48.2615" lon="7.29538">
        <ele>348.3</ele>
        <time>2000-01-01T11:43:35.000Z</time>
      </trkpt>
      <trkpt lat="48.26141" lon="7.29537">
        <ele>352</ele>
        <time>2000-01-01T11:43:45.000Z</time>
      </trkpt>
      <trkpt lat="48.26133" lon="7.29537">
        <ele>349</ele>
        <time>2000-01-01T11:43:55.000Z</time>
      </trkpt>
      <trkpt lat="48.26128" lon="7.29539">
        <ele>349.3</ele>
        <time>2000-01-01T11:44:05.000Z</time>
      </trkpt>
      <trkpt lat="48.26118" lon="7.29538">
        <ele>354</ele>
        <time>2000-01-01T11:44:15.000Z</time>
      </trkpt>
      <trkpt lat="48.2611" lon="7.29539">
        <ele>350.1</ele>
        <time>2000-01-01T11:44:25.000Z</time>
      </trkpt>
      <trkpt lat="48.261" lon="7.29543">
        <ele>359</ele>
        <time>2000-01-01T11:44:35.000Z</time>
      </trkpt>
      <trkpt lat="48.26097" lon="7.29544">
        <ele>350.8</ele>
        <time>2000-01-01T11:44:45.000Z</time>
      </trkpt>
      <trkpt lat="48.26092" lon="7.29546">
        <ele>351.1</ele>
        <time>2000-01-01T11:44:55.000Z</time>
      </trkpt>
      <trkpt lat="48.26081" lon="7.29549">
        <ele>361</ele>
        <time>2000-01-01T11:45:05.000Z</time>
      </trkpt>
      <trkpt lat="48.26079" lon="7.2955">
        <ele>358.7</ele>
        <time>2000-01-01T11:45:15.000Z</time>
      </trkpt>
      <trkpt lat="48.26074" lon="7.29551">
        <ele>359</ele>
        <time>2000-01-01T11:45:25.000Z</time>
      </trkpt>
      <trkpt lat="48.26072" lon="7.29552">
        <ele>359.1</ele>
        <time>2000-01-01T11:45:35.000Z</time>
      </trkpt>
      <trkpt lat="48.26065" lon="7.29555">
        <ele>359.6</ele>
        <time>2000-01-01T11:45:45.000Z</time>
      </trkpt>
      <trkpt lat="48.26059" lon="7.29554">
        <ele>367</ele>
        <time>2000-01-01T11:45:55.000Z</time>
      </trkpt>
      <trkpt lat="48.26051" lon="7.29555">
        <ele>360.8</ele>
        <time>2000-01-01T11:46:05.000Z</time>
      </trkpt>
      <trkpt lat="48.26048" lon="7.29556">
        <ele>361.2</ele>
        <time>2000-01-01T11:46:15.000Z</time>
      </trkpt>
      <trkpt lat="48.26045" lon="7.29558">
        <ele>361.6</ele>
        <time>2000-01-01T11:46:25.000Z</time>
      </trkpt>
      <trkpt lat="48.26037" lon="7.29557">
        <ele>373</ele>
        <time>2000-01-01T11:46:35.000Z</time>
      </trkpt>
      <trkpt lat="48.26035" lon="7.29557">
        <ele>362.7</ele>
        <time>2000-01-01T11:46:45.000Z</time>
      </trkpt>
      <trkpt lat="48.26034" lon="7.29557">
        <ele>362.8</ele>
        <time>2000-01-01T11:46:55.000Z</time>
      </trkpt>
      <trkpt lat="48.26029" lon="7.29555">
        <ele>363.2</ele>
        <time>2000-01-01T11:47:05.000Z</time>
      </trkpt>
      <trkpt lat="48.26018" lon="7.29554">
        <ele>378</ele>
        <time>2000-01-01T11:47:15.000Z</time>
      </trkpt>
      <trkpt lat="48.26015" lon="7.29554">
        <ele>364.6</ele>
        <time>2000-01-01T11:47:25.000Z</time>
      </trkpt>
      <trkpt lat="48.26012" lon="7.29554">
        <ele>364.9</ele>
        <time>2000-01-01T11:47:35.000Z</time>
      </trkpt>
      <trkpt lat="48.26008" lon="7.29554">
        <ele>365.2</ele>
        <time>2000-01-01T11:47:45.000Z</time>
      </trkpt>
      <trkpt lat="48.26007" lon="7.29554">
        <ele>365.2</ele>
        <time>2000-01-01T11:47:55.000Z</time>
      </trkpt>
      <trkpt lat="48.26003" lon="7.29554">
        <ele>365.5</ele>
        <time>2000-01-01T11:48:05.000Z</time>
      </trkpt>
      <trkpt lat="48.25995" lon="7.29554">
        <ele>381</ele>
        <time>2000-01-01T11:48:15.000Z</time>
      </trkpt>
      <trkpt lat="48.25985" lon="7.29552">
        <ele>375.5</ele>
        <time>2000-01-01T11:48:25.000Z</time>
      </trkpt>
      <trkpt lat="48.25976" lon="7.2955">
        <ele>385</ele>
        <time>2000-01-01T11:48:35.000Z</time>
      </trkpt>
      <trkpt lat="48.25964" lon="7.29546">
        <ele>376.9</ele>
        <time>2000-01-01T11:48:45.000Z</time>
      </trkpt>
      <trkpt lat="48.25952" lon="7.29543">
        <ele>387</ele>
        <time>2000-01-01T11:48:55.000Z</time>
      </trkpt>
      <trkpt lat="48.25941" lon="7.2954">
        <ele>378.9</ele>
        <time>2000-01-01T11:49:05.000Z</time>
      </trkpt>
      <trkpt lat="48.25926" lon="7.29539">
        <ele>390</ele>
        <time>2000-01-01T11:49:15.000Z</time>
      </trkpt>
      <trkpt lat="48.25918" lon="7.29536">
        <ele>380.3</ele>
        <time>2000-01-01T11:49:25.000Z</time>
      </trkpt>
      <trkpt lat="48.25914" lon="7.29535">
        <ele>393.5</ele>
        <time>2000-01-01T11:49:35.000Z</time>
      </trkpt>
      <trkpt lat="48.2591" lon="7.29535">
        <ele>393.8</ele>
        <time>2000-01-01T11:49:45.000Z</time>
      </trkpt>
      <trkpt lat="48.25899" lon="7.29531">
        <ele>394</ele>
        <time>2000-01-01T11:49:55.000Z</time>
      </trkpt>
      <trkpt lat="48.2589" lon="7.29528">
        <ele>395.7</ele>
        <time>2000-01-01T11:50:05.000Z</time>
      </trkpt>
      <trkpt lat="48.25881" lon="7.29528">
        <ele>397.2</ele>
        <time>2000-01-01T11:50:15.000Z</time>
      </trkpt>
      <trkpt lat="48.25873" lon="7.29525">
        <ele>397</ele>
        <time>2000-01-01T11:50:25.000Z</time>
      </trkpt>
      <trkpt lat="48.25865" lon="7.29524">
        <ele>399.7</ele>
        <time>2000-01-01T11:50:35.000Z</time>
      </trkpt>
      <trkpt lat="48.25862" lon="7.29524">
        <ele>400.1</ele>
        <time>2000-01-01T11:50:45.000Z</time>
      </trkpt>
      <trkpt lat="48.25859" lon="7.29522">
        <ele>400.6</ele>
        <time>2000-01-01T11:50:55.000Z</time>
      </trkpt>
      <trkpt lat="48.25852" lon="7.29521">
        <ele>401</ele>
        <time>2000-01-01T11:51:05.000Z</time>
      </trkpt>
      <trkpt lat="48.25843" lon="7.2952">
        <ele>402.7</ele>
        <time>2000-01-01T11:51:15.000Z</time>
      </trkpt>
      <trkpt lat="48.25842" lon="7.2952">
        <ele>402.8</ele>
        <time>2000-01-01T11:51:25.000Z</time>
      </trkpt>
      <trkpt lat="48.25841" lon="7.29519">
        <ele>403</ele>
        <time>2000-01-01T11:51:35.000Z</time>
      </trkpt>
      <trkpt lat="48.25839" lon="7.29517">
        <ele>403.3</ele>
        <time>2000-01-01T11:51:45.000Z</time>
      </trkpt>
      <trkpt lat="48.25835" lon="7.29516">
        <ele>407</ele>
        <time>2000-01-01T11:51:55.000Z</time>
      </trkpt>
      <trkpt lat="48.25828" lon="7.29516">
        <ele>414.4</ele>
        <time>2000-01-01T11:52:05.000Z</time>
      </trkpt>
      <trkpt lat="48.25818" lon="7.29518">
        <ele>416.5</ele>
        <time>2000-01-01T11:52:15.000Z</time>
      </trkpt>
      <trkpt lat="48.25816" lon="7.29518">
        <ele>412</ele>
        <time>2000-01-01T11:52:25.000Z</time>
      </trkpt>
      <trkpt lat="48.2581" lon="7.29517">
        <ele>417.9</ele>
        <time>2000-01-01T11:52:35.000Z</time>
      </trkpt>
      <trkpt lat="48.25803" lon="7.29515">
        <ele>419.2</ele>
        <time>2000-01-01T11:52:45.000Z</time>
      </trkpt>
      <trkpt lat="48.258" lon="7.29515">
        <ele>419.8</ele>
        <time>2000-01-01T11:52:55.000Z</time>
      </trkpt>
      <trkpt lat="48.25792" lon="7.29513">
        <ele>418</ele>
        <time>2000-01-01T11:53:05.000Z</time>
      </trkpt>
      <trkpt lat="48.25784" lon="7.2951">
        <ele>422.6</ele>
        <time>2000-01-01T11:53:15.000Z</time>
      </trkpt>
      <trkpt lat="48.25783" lon="7.2951">
        <ele>422.8</ele>
        <time>2000-01-01T11:53:25.000Z</time>
      </trkpt>
      <trkpt lat="48.2578" lon="7.29511">
        <ele>423.4</ele>
        <time>2000-01-01T11:53:35.000Z</time>
      </trkpt>
      <trkpt lat="48.25779" lon="7.2951">
        <ele>423.5</ele>
        <time>2000-01-01T11:53:45.000Z</time>
      </trkpt>
      <trkpt lat="48.25776" lon="7.29509">
        <ele>424.1</ele>
        <time>2000-01-01T11:53:55.000Z</time>
      </trkpt>
      <trkpt lat="48.25772" lon="7.29508">
        <ele>422</ele>
        <time>2000-01-01T11:54:05.000Z</time>
      </trkpt>
      <trkpt lat="48.2577" lon="7.29508">
        <ele>425.1</ele>
        <time>2000-01-01T11:54:15.000Z</time>
      </trkpt>
      <trkpt lat="48.25766" lon="7.29507">
        <ele>425.9</ele>
        <time>2000-01-01T11:54:25.000Z</time>
      </trkpt>
      <trkpt lat="48.25761" lon="7.29507">
        <ele>426.8</ele>
        <time>2000-01-01T11:54:35.000Z</time>
      </trkpt>
      <trkpt lat="48.25755" lon="7.29505">
        <ele>428.1</ele>
        <time>2000-01-01T11:54:45.000Z</time>
      </trkpt>
      <trkpt lat="48.2575" lon="7.29503">
        <ele>430</ele>
        <time>2000-01-01T11:54:55.000Z</time>
      </trkpt>
      <trkpt lat="48.25746" lon="7.29503">
        <ele>432.6</ele>
        <time>2000-01-01T11:55:05.000Z</time>
      </trkpt>
      <trkpt lat="48.25742" lon="7.29502">
        <ele>434</ele>
        <time>2000-01-01T11:55:15.000Z</time>
      </trkpt>
      <trkpt lat="48.25739" lon="7.29502">
        <ele>435.2</ele>
        <time>2000-01-01T11:55:25.000Z</time>
      </trkpt>
      <trkpt lat="48.25736" lon="7.29501">
        <ele>436.2</ele>
        <time>2000-01-01T11:55:35.000Z</time>
      </trkpt>
      <trkpt lat="48.2573" lon="7.295">
        <ele>432</ele>
        <time>2000-01-01T11:55:45.000Z</time>
      </trkpt>
      <trkpt lat="48.25723" lon="7.29499">
        <ele>437.7</ele>
        <time>2000-01-01T11:55:55.000Z</time>
      </trkpt>
      <trkpt lat="48.25717" lon="7.29498">
        <ele>439.1</ele>
        <time>2000-01-01T11:56:05.000Z</time>
      </trkpt>
      <trkpt lat="48.25714" lon="7.29499">
        <ele>439.8</ele>
        <time>2000-01-01T11:56:15.000Z</time>
      </trkpt>
      <trkpt lat="48.25711" lon="7.29497">
        <ele>437</ele>
        <time>2000-01-01T11:56:25.000Z</time>
      </trkpt>
      <trkpt lat="48.2571" lon="7.29497">
        <ele>440.7</ele>
        <time>2000-01-01T11:56:35.000Z</time>
      </trkpt>
      <trkpt lat="48.25702" lon="7.29498">
        <ele>442.8</ele>
        <time>2000-01-01T11:56:45.000Z</time>
      </trkpt>
      <trkpt lat="48.25697" lon="7.29498">
        <ele>444.1</ele>
        <time>2000-01-01T11:56:55.000Z</time>
      </trkpt>
      <trkpt lat="48.25693" lon="7.29496">
        <ele>445.2</ele>
        <time>2000-01-01T11:57:05.000Z</time>
      </trkpt>
      <trkpt lat="48.2569" lon="7.29495">
        <ele>442</ele>
        <time>2000-01-01T11:57:15.000Z</time>
      </trkpt>
      <trkpt lat="48.25686" lon="7.29491">
        <ele>447</ele>
        <time>2000-01-01T11:57:25.000Z</time>
      </trkpt>
      <trkpt lat="48.25682" lon="7.29489">
        <ele>447.9</ele>
        <time>2000-01-01T11:57:35.000Z</time>
      </trkpt>
      <trkpt lat="48.2568" lon="7.29485">
        <ele>447.6</ele>
        <time>2000-01-01T11:57:45.000Z</time>
      </trkpt>
      <trkpt lat="48.25675" lon="7.29482">
        <ele>448</ele>
        <time>2000-01-01T11:57:55.000Z</time>
      </trkpt>
      <trkpt lat="48.25672" lon="7.2948">
        <ele>447</ele>
        <time>2000-01-01T11:58:05.000Z</time>
      </trkpt>
      <trkpt lat="48.25671" lon="7.29479">
        <ele>447.8</ele>
        <time>2000-01-01T11:58:15.000Z</time>
      </trkpt>
      <trkpt lat="48.25669" lon="7.29479">
        <ele>448</ele>
        <time>2000-01-01T11:58:25.000Z</time>
      </trkpt>
      <trkpt lat="48.25663" lon="7.29476">
        <ele>461.5</ele>
        <time>2000-01-01T11:58:35.000Z</time>
      </trkpt>
      <trkpt lat="48.25662" lon="7.29475">
        <ele>461.6</ele>
        <time>2000-01-01T11:58:45.000Z</time>
      </trkpt>
      <trkpt lat="48.25657" lon="7.29474">
        <ele>462</ele>
        <time>2000-01-01T11:58:55.000Z</time>
      </trkpt>
      <trkpt lat="48.2565" lon="7.29471">
        <ele>453</ele>
        <time>2000-01-01T11:59:05.000Z</time>
      </trkpt>
      <trkpt lat="48.25649" lon="7.2947">
        <ele>462.9</ele>
        <time>2000-01-01T11:59:15.000Z</time>
      </trkpt>
      <trkpt lat="48.25647" lon="7.29468">
        <ele>463.2</ele>
        <time>2000-01-01T11:59:25.000Z</time>
      </trkpt>
      <trkpt lat="48.25646" lon="7.29467">
        <ele>463.3</ele>
        <time>2000-01-01T11:59:35.000Z</time>
      </trkpt>
      <trkpt lat="48.25643" lon="7.29466">
        <ele>463.6</ele>
        <time>2000-01-01T11:59:45.000Z</time>
      </trkpt>
      <trkpt lat="48.2564" lon="7.29465">
        <ele>464</ele>
        <time>2000-01-01T11:59:55.000Z</time>
      </trkpt>
      <trkpt lat="48.25637" lon="7.29462">
        <ele>464.4</ele>
        <time>2000-01-01T12:00:05.000Z</time>
      </trkpt>
      <trkpt lat="48.25635" lon="7.29461">
        <ele>464.6</ele>
        <time>2000-01-01T12:00:15.000Z</time>
      </trkpt>
      <trkpt lat="48.25634" lon="7.2946">
        <ele>459</ele>
        <time>2000-01-01T12:00:25.000Z</time>
      </trkpt>
      <trkpt lat="48.2563" lon="7.29457">
        <ele>465.3</ele>
        <time>2000-01-01T12:00:35.000Z</time>
      </trkpt>
      <trkpt lat="48.25626" lon="7.29452">
        <ele>466</ele>
        <time>2000-01-01T12:00:45.000Z</time>
      </trkpt>
      <trkpt lat="48.25624" lon="7.29451">
        <ele>466.3</ele>
        <time>2000-01-01T12:00:55.000Z</time>
      </trkpt>
      <trkpt lat="48.25621" lon="7.29449">
        <ele>466.8</ele>
        <time>2000-01-01T12:01:05.000Z</time>
      </trkpt>
      <trkpt lat="48.25618" lon="7.29448">
        <ele>467.3</ele>
        <time>2000-01-01T12:01:15.000Z</time>
      </trkpt>
      <trkpt lat="48.25616" lon="7.29447">
        <ele>465</ele>
        <time>2000-01-01T12:01:25.000Z</time>
      </trkpt>
      <trkpt lat="48.25614" lon="7.29445">
        <ele>468.2</ele>
        <time>2000-01-01T12:01:35.000Z</time>
      </trkpt>
      <trkpt lat="48.25606" lon="7.29442">
        <ele>469.8</ele>
        <time>2000-01-01T12:01:45.000Z</time>
      </trkpt>
      <trkpt lat="48.25604" lon="7.29441">
        <ele>470.3</ele>
        <time>2000-01-01T12:01:55.000Z</time>
      </trkpt>
      <trkpt lat="48.25601" lon="7.2944">
        <ele>470.9</ele>
        <time>2000-01-01T12:02:05.000Z</time>
      </trkpt>
      <trkpt lat="48.25597" lon="7.29438">
        <ele>472</ele>
        <time>2000-01-01T12:02:15.000Z</time>
      </trkpt>
      <trkpt lat="48.25593" lon="7.29436">
        <ele>473.1</ele>
        <time>2000-01-01T12:02:25.000Z</time>
      </trkpt>
      <trkpt lat="48.2559" lon="7.29433">
        <ele>474.3</ele>
        <time>2000-01-01T12:02:35.000Z</time>
      </trkpt>
      <trkpt lat="48.25586" lon="7.29431">
        <ele>475.5</ele>
        <time>2000-01-01T12:02:45.000Z</time>
      </trkpt>
      <trkpt lat="48.2558" lon="7.29428">
        <ele>477</ele>
        <time>2000-01-01T12:02:55.000Z</time>
      </trkpt>
      <trkpt lat="48.25577" lon="7.29426">
        <ele>483.2</ele>
        <time>2000-01-01T12:03:05.000Z</time>
      </trkpt>
      <trkpt lat="48.25573" lon="7.29424">
        <ele>483.4</ele>
        <time>2000-01-01T12:03:15.000Z</time>
      </trkpt>
      <trkpt lat="48.25569" lon="7.29421">
        <ele>483.6</ele>
        <time>2000-01-01T12:03:25.000Z</time>
      </trkpt>
      <trkpt lat="48.25565" lon="7.29418">
        <ele>484</ele>
        <time>2000-01-01T12:03:35.000Z</time>
      </trkpt>
      <trkpt lat="48.25564" lon="7.29417">
        <ele>484.1</ele>
        <time>2000-01-01T12:03:45.000Z</time>
      </trkpt>
      <trkpt lat="48.25561" lon="7.29416">
        <ele>482</ele>
        <time>2000-01-01T12:03:55.000Z</time>
      </trkpt>
      <trkpt lat="48.2556" lon="7.29414">
        <ele>488.6</ele>
        <time>2000-01-01T12:04:05.000Z</time>
      </trkpt>
      <trkpt lat="48.25555" lon="7.29413">
        <ele>489.5</ele>
        <time>2000-01-01T12:04:15.000Z</time>
      </trkpt>
      <trkpt lat="48.25553" lon="7.29412">
        <ele>489.8</ele>
        <time>2000-01-01T12:04:25.000Z</time>
      </trkpt>
      <trkpt lat="48.25549" lon="7.29411">
        <ele>490.5</ele>
        <time>2000-01-01T12:04:35.000Z</time>
      </trkpt>
      <trkpt lat="48.25544" lon="7.2941">
        <ele>491.3</ele>
        <time>2000-01-01T12:04:45.000Z</time>
      </trkpt>
      <trkpt lat="48.25539" lon="7.29409">
        <ele>489</ele>
        <time>2000-01-01T12:04:55.000Z</time>
      </trkpt>
      <trkpt lat="48.25534" lon="7.29404">
        <ele>492.8</ele>
        <time>2000-01-01T12:05:05.000Z</time>
      </trkpt>
      <trkpt lat="48.25531" lon="7.29402">
        <ele>493.3</ele>
        <time>2000-01-01T12:05:15.000Z</time>
      </trkpt>
      <trkpt lat="48.25524" lon="7.29398">
        <ele>494.1</ele>
        <time>2000-01-01T12:05:25.000Z</time>
      </trkpt>
      <trkpt lat="48.25519" lon="7.29394">
        <ele>492</ele>
        <time>2000-01-01T12:05:35.000Z</time>
      </trkpt>
      <trkpt lat="48.25515" lon="7.29391">
        <ele>494.8</ele>
        <time>2000-01-01T12:05:45.000Z</time>
      </trkpt>
      <trkpt lat="48.25509" lon="7.29389">
        <ele>495.2</ele>
        <time>2000-01-01T12:05:55.000Z</time>
      </trkpt>
      <trkpt lat="48.25507" lon="7.29389">
        <ele>495.4</ele>
        <time>2000-01-01T12:06:05.000Z</time>
      </trkpt>
      <trkpt lat="48.25503" lon="7.29386">
        <ele>495.4</ele>
        <time>2000-01-01T12:06:15.000Z</time>
      </trkpt>
      <trkpt lat="48.25501" lon="7.29385">
        <ele>495</ele>
        <time>2000-01-01T12:06:25.000Z</time>
      </trkpt>
      <trkpt lat="48.25501" lon="7.29384">
        <ele>495.4</ele>
        <time>2000-01-01T12:06:35.000Z</time>
      </trkpt>
      <trkpt lat="48.25497" lon="7.29382">
        <ele>506.5</ele>
        <time>2000-01-01T12:06:45.000Z</time>
      </trkpt>
      <trkpt lat="48.2549" lon="7.29379">
        <ele>507</ele>
        <time>2000-01-01T12:06:55.000Z</time>
      </trkpt>
      <trkpt lat="48.25482" lon="7.29378">
        <ele>498</ele>
        <time>2000-01-01T12:07:05.000Z</time>
      </trkpt>
      <trkpt lat="48.2548" lon="7.29378">
        <ele>507.7</ele>
        <time>2000-01-01T12:07:15.000Z</time>
      </trkpt>
      <trkpt lat="48.25465" lon="7.29374">
        <ele>509.1</ele>
        <time>2000-01-01T12:07:25.000Z</time>
      </trkpt>
      <trkpt lat="48.25455" lon="7.29372">
        <ele>503</ele>
        <time>2000-01-01T12:07:35.000Z</time>
      </trkpt>
      <trkpt lat="48.2545" lon="7.29372">
        <ele>510.6</ele>
        <time>2000-01-01T12:07:45.000Z</time>
      </trkpt>
      <trkpt lat="48.25445" lon="7.29371">
        <ele>511.1</ele>
        <time>2000-01-01T12:07:55.000Z</time>
      </trkpt>
      <trkpt lat="48.25439" lon="7.29371">
        <ele>511.7</ele>
        <time>2000-01-01T12:08:05.000Z</time>
      </trkpt>
      <trkpt lat="48.25437" lon="7.2937">
        <ele>511.9</ele>
        <time>2000-01-01T12:08:15.000Z</time>
      </trkpt>
      <trkpt lat="48.25431" lon="7.2937">
        <ele>506</ele>
        <time>2000-01-01T12:08:25.000Z</time>
      </trkpt>
      <trkpt lat="48.25425" lon="7.29371">
        <ele>512.7</ele>
        <time>2000-01-01T12:08:35.000Z</time>
      </trkpt>
      <trkpt lat="48.25419" lon="7.29369">
        <ele>513.1</ele>
        <time>2000-01-01T12:08:45.000Z</time>
      </trkpt>
      <trkpt lat="48.25413" lon="7.29368">
        <ele>510</ele>
        <time>2000-01-01T12:08:55.000Z</time>
      </trkpt>
      <trkpt lat="48.25405" lon="7.29367">
        <ele>524.5</ele>
        <time>2000-01-01T12:09:05.000Z</time>
      </trkpt>
      <trkpt lat="48.25401" lon="7.29365">
        <ele>524.8</ele>
        <time>2000-01-01T12:09:15.000Z</time>
      </trkpt>
      <trkpt lat="48.25399" lon="7.29365">
        <ele>525</ele>
        <time>2000-01-01T12:09:25.000Z</time>
      </trkpt>
      <trkpt lat="48.25395" lon="7.29363">
        <ele>516</ele>
        <time>2000-01-01T12:09:35.000Z</time>
      </trkpt>
      <trkpt lat="48.25393" lon="7.29362">
        <ele>525.6</ele>
        <time>2000-01-01T12:09:45.000Z</time>
      </trkpt>
      <trkpt lat="48.25384" lon="7.29357">
        <ele>526.7</ele>
        <time>2000-01-01T12:09:55.000Z</time>
      </trkpt>
      <trkpt lat="48.25381" lon="7.29356">
        <ele>527.1</ele>
        <time>2000-01-01T12:10:05.000Z</time>
      </trkpt>
      <trkpt lat="48.25377" lon="7.29354">
        <ele>521</ele>
        <time>2000-01-01T12:10:15.000Z</time>
      </trkpt>
      <trkpt lat="48.25375" lon="7.29354">
        <ele>528</ele>
        <time>2000-01-01T12:10:25.000Z</time>
      </trkpt>
      <trkpt lat="48.25371" lon="7.29355">
        <ele>528.6</ele>
        <time>2000-01-01T12:10:35.000Z</time>
      </trkpt>
      <trkpt lat="48.25367" lon="7.29355">
        <ele>529.2</ele>
        <time>2000-01-01T12:10:45.000Z</time>
      </trkpt>
      <trkpt lat="48.25364" lon="7.29354">
        <ele>529.7</ele>
        <time>2000-01-01T12:10:55.000Z</time>
      </trkpt>
      <trkpt lat="48.25362" lon="7.29355">
        <ele>529.9</ele>
        <time>2000-01-01T12:11:05.000Z</time>
      </trkpt>
      <trkpt lat="48.2536" lon="7.29354">
        <ele>530.3</ele>
        <time>2000-01-01T12:11:15.000Z</time>
      </trkpt>
      <trkpt lat="48.25355" lon="7.2935">
        <ele>525</ele>
        <time>2000-01-01T12:11:25.000Z</time>
      </trkpt>
      <trkpt lat="48.25351" lon="7.29348">
        <ele>532.5</ele>
        <time>2000-01-01T12:11:35.000Z</time>
      </trkpt>
      <trkpt lat="48.25345" lon="7.29345">
        <ele>534.3</ele>
        <time>2000-01-01T12:11:45.000Z</time>
      </trkpt>
      <trkpt lat="48.25334" lon="7.29342">
        <ele>531</ele>
        <time>2000-01-01T12:11:55.000Z</time>
      </trkpt>
      <trkpt lat="48.25333" lon="7.29342">
        <ele>542</ele>
        <time>2000-01-01T12:12:05.000Z</time>
      </trkpt>
      <trkpt lat="48.25332" lon="7.29344">
        <ele>542.2</ele>
        <time>2000-01-01T12:12:15.000Z</time>
      </trkpt>
      <trkpt lat="48.25328" lon="7.29346">
        <ele>542.5</ele>
        <time>2000-01-01T12:12:25.000Z</time>
      </trkpt>
      <trkpt lat="48.25324" lon="7.29349">
        <ele>542.9</ele>
        <time>2000-01-01T12:12:35.000Z</time>
      </trkpt>
      <trkpt lat="48.25324" lon="7.29349">
        <ele>542.9</ele>
        <time>2000-01-01T12:12:45.000Z</time>
      </trkpt>
      <trkpt lat="48.25321" lon="7.29349">
        <ele>543.1</ele>
        <time>2000-01-01T12:12:55.000Z</time>
      </trkpt>
      <trkpt lat="48.25315" lon="7.29353">
        <ele>537</ele>
        <time>2000-01-01T12:13:05.000Z</time>
      </trkpt>
      <trkpt lat="48.25313" lon="7.29354">
        <ele>543.8</ele>
        <time>2000-01-01T12:13:15.000Z</time>
      </trkpt>
      <trkpt lat="48.25309" lon="7.29355">
        <ele>544.1</ele>
        <time>2000-01-01T12:13:25.000Z</time>
      </trkpt>
      <trkpt lat="48.25306" lon="7.29355">
        <ele>544.4</ele>
        <time>2000-01-01T12:13:35.000Z</time>
      </trkpt>
      <trkpt lat="48.253" lon="7.29356">
        <ele>545</ele>
        <time>2000-01-01T12:13:45.000Z</time>
      </trkpt>
      <trkpt lat="48.25294" lon="7.29357">
        <ele>540</ele>
        <time>2000-01-01T12:13:55.000Z</time>
      </trkpt>
      <trkpt lat="48.25293" lon="7.29357">
        <ele>545.8</ele>
        <time>2000-01-01T12:14:05.000Z</time>
      </trkpt>
      <trkpt lat="48.25284" lon="7.29356">
        <ele>546.9</ele>
        <time>2000-01-01T12:14:15.000Z</time>
      </trkpt>
      <trkpt lat="48.25276" lon="7.29348">
        <ele>545</ele>
        <time>2000-01-01T12:14:25.000Z</time>
      </trkpt>
      <trkpt lat="48.25275" lon="7.29347">
        <ele>548.9</ele>
        <time>2000-01-01T12:14:35.000Z</time>
      </trkpt>
      <trkpt lat="48.25275" lon="7.29346">
        <ele>549</ele>
        <time>2000-01-01T12:14:45.000Z</time>
      </trkpt>
      <trkpt lat="48.25256" lon="7.29331">
        <ele>549</ele>
        <time>2000-01-01T12:14:55.000Z</time>
      </trkpt>
      <trkpt lat="48.25255" lon="7.29331">
        <ele>555</ele>
        <time>2000-01-01T12:15:05.000Z</time>
      </trkpt>
      <trkpt lat="48.25254" lon="7.29331">
        <ele>555.4</ele>
        <time>2000-01-01T12:15:15.000Z</time>
      </trkpt>
      <trkpt lat="48.2525" lon="7.29332">
        <ele>558.2</ele>
        <time>2000-01-01T12:15:25.000Z</time>
      </trkpt>
      <trkpt lat="48.2524" lon="7.29333">
        <ele>559.5</ele>
        <time>2000-01-01T12:15:35.000Z</time>
      </trkpt>
      <trkpt lat="48.25239" lon="7.29333">
        <ele>559.6</ele>
        <time>2000-01-01T12:15:45.000Z</time>
      </trkpt>
      <trkpt lat="48.25233" lon="7.2933">
        <ele>552</ele>
        <time>2000-01-01T12:15:55.000Z</time>
      </trkpt>
      <trkpt lat="48.2523" lon="7.29327">
        <ele>560.8</ele>
        <time>2000-01-01T12:16:05.000Z</time>
      </trkpt>
      <trkpt lat="48.25223" lon="7.29322">
        <ele>561.6</ele>
        <time>2000-01-01T12:16:15.000Z</time>
      </trkpt>
      <trkpt lat="48.25216" lon="7.29321">
        <ele>559</ele>
        <time>2000-01-01T12:16:25.000Z</time>
      </trkpt>
      <trkpt lat="48.25208" lon="7.29323">
        <ele>563.7</ele>
        <time>2000-01-01T12:16:35.000Z</time>
      </trkpt>
      <trkpt lat="48.25204" lon="7.29324">
        <ele>564.3</ele>
        <time>2000-01-01T12:16:45.000Z</time>
      </trkpt>
      <trkpt lat="48.2519" lon="7.29326">
        <ele>563</ele>
        <time>2000-01-01T12:16:55.000Z</time>
      </trkpt>
      <trkpt lat="48.25189" lon="7.29326">
        <ele>567.2</ele>
        <time>2000-01-01T12:17:05.000Z</time>
      </trkpt>
      <trkpt lat="48.25182" lon="7.29328">
        <ele>569</ele>
        <time>2000-01-01T12:17:15.000Z</time>
      </trkpt>
      <trkpt lat="48.25182" lon="7.29328">
        <ele>569</ele>
        <time>2000-01-01T12:17:25.000Z</time>
      </trkpt>
      <trkpt lat="48.25178" lon="7.2933">
        <ele>570.3</ele>
        <time>2000-01-01T12:17:35.000Z</time>
      </trkpt>
      <trkpt lat="48.25177" lon="7.2933">
        <ele>570.6</ele>
        <time>2000-01-01T12:17:45.000Z</time>
      </trkpt>
      <trkpt lat="48.25174" lon="7.2933">
        <ele>571.5</ele>
        <time>2000-01-01T12:17:55.000Z</time>
      </trkpt>
      <trkpt lat="48.25172" lon="7.2933">
        <ele>569</ele>
        <time>2000-01-01T12:18:05.000Z</time>
      </trkpt>
      <trkpt lat="48.2517" lon="7.2933">
        <ele>572.8</ele>
        <time>2000-01-01T12:18:15.000Z</time>
      </trkpt>
      <trkpt lat="48.25163" lon="7.29328">
        <ele>578.4</ele>
        <time>2000-01-01T12:18:25.000Z</time>
      </trkpt>
      <trkpt lat="48.25162" lon="7.29329">
        <ele>578.4</ele>
        <time>2000-01-01T12:18:35.000Z</time>
      </trkpt>
      <trkpt lat="48.25159" lon="7.29328">
        <ele>579.7</ele>
        <time>2000-01-01T12:18:45.000Z</time>
      </trkpt>
      <trkpt lat="48.25155" lon="7.29331">
        <ele>580.9</ele>
        <time>2000-01-01T12:18:55.000Z</time>
      </trkpt>
      <trkpt lat="48.25152" lon="7.29331">
        <ele>576</ele>
        <time>2000-01-01T12:19:05.000Z</time>
      </trkpt>
      <trkpt lat="48.25142" lon="7.29333">
        <ele>585.6</ele>
        <time>2000-01-01T12:19:15.000Z</time>
      </trkpt>
      <trkpt lat="48.25136" lon="7.29335">
        <ele>585.9</ele>
        <time>2000-01-01T12:19:25.000Z</time>
      </trkpt>
      <trkpt lat="48.25131" lon="7.29339">
        <ele>583</ele>
        <time>2000-01-01T12:19:35.000Z</time>
      </trkpt>
      <trkpt lat="48.2513" lon="7.2934">
        <ele>587.6</ele>
        <time>2000-01-01T12:19:45.000Z</time>
      </trkpt>
      <trkpt lat="48.25126" lon="7.29339">
        <ele>588.8</ele>
        <time>2000-01-01T12:19:55.000Z</time>
      </trkpt>
      <trkpt lat="48.25124" lon="7.29341">
        <ele>589.4</ele>
        <time>2000-01-01T12:20:05.000Z</time>
      </trkpt>
      <trkpt lat="48.25122" lon="7.29342">
        <ele>589.9</ele>
        <time>2000-01-01T12:20:15.000Z</time>
      </trkpt>
      <trkpt lat="48.25121" lon="7.29344">
        <ele>590.1</ele>
        <time>2000-01-01T12:20:25.000Z</time>
      </trkpt>
      <trkpt lat="48.25117" lon="7.29345">
        <ele>591.3</ele>
        <time>2000-01-01T12:20:35.000Z</time>
      </trkpt>
      <trkpt lat="48.2511" lon="7.29339">
        <ele>593</ele>
        <time>2000-01-01T12:20:45.000Z</time>
      </trkpt>
      <trkpt lat="48.25105" lon="7.29336">
        <ele>596.4</ele>
        <time>2000-01-01T12:20:55.000Z</time>
      </trkpt>
      <trkpt lat="48.25098" lon="7.29329">
        <ele>600.6</ele>
        <time>2000-01-01T12:21:05.000Z</time>
      </trkpt>
      <trkpt lat="48.25095" lon="7.29329">
        <ele>602</ele>
        <time>2000-01-01T12:21:15.000Z</time>
      </trkpt>
      <trkpt lat="48.25089" lon="7.29328">
        <ele>598</ele>
        <time>2000-01-01T12:21:25.000Z</time>
      </trkpt>
      <trkpt lat="48.25081" lon="7.29323">
        <ele>614</ele>
        <time>2000-01-01T12:21:35.000Z</time>
      </trkpt>
      <trkpt lat="48.25077" lon="7.2932">
        <ele>615.1</ele>
        <time>2000-01-01T12:21:45.000Z</time>
      </trkpt>
      <trkpt lat="48.25074" lon="7.29319">
        <ele>615.8</ele>
        <time>2000-01-01T12:21:55.000Z</time>
      </trkpt>
      <trkpt lat="48.25069" lon="7.29317">
        <ele>605</ele>
        <time>2000-01-01T12:22:05.000Z</time>
      </trkpt>
      <trkpt lat="48.25064" lon="7.29316">
        <ele>618</ele>
        <time>2000-01-01T12:22:15.000Z</time>
      </trkpt>
      <trkpt lat="48.25061" lon="7.29315">
        <ele>618.7</ele>
        <time>2000-01-01T12:22:25.000Z</time>
      </trkpt>
      <trkpt lat="48.25057" lon="7.29314">
        <ele>619.5</ele>
        <time>2000-01-01T12:22:35.000Z</time>
      </trkpt>
      <trkpt lat="48.25054" lon="7.29312">
        <ele>620.1</ele>
        <time>2000-01-01T12:22:45.000Z</time>
      </trkpt>
      <trkpt lat="48.25053" lon="7.29312">
        <ele>620.3</ele>
        <time>2000-01-01T12:22:55.000Z</time>
      </trkpt>
      <trkpt lat="48.25051" lon="7.2931">
        <ele>608</ele>
        <time>2000-01-01T12:23:05.000Z</time>
      </trkpt>
      <trkpt lat="48.25047" lon="7.29308">
        <ele>621.5</ele>
        <time>2000-01-01T12:23:15.000Z</time>
      </trkpt>
      <trkpt lat="48.25044" lon="7.29306">
        <ele>622.1</ele>
        <time>2000-01-01T12:23:25.000Z</time>
      </trkpt>
      <trkpt lat="48.25037" lon="7.29305">
        <ele>623.4</ele>
        <time>2000-01-01T12:23:35.000Z</time>
      </trkpt>
      <trkpt lat="48.25034" lon="7.29303">
        <ele>623.9</ele>
        <time>2000-01-01T12:23:45.000Z</time>
      </trkpt>
      <trkpt lat="48.2503" lon="7.29302">
        <ele>618</ele>
        <time>2000-01-01T12:23:55.000Z</time>
      </trkpt>
      <trkpt lat="48.25029" lon="7.29302">
        <ele>624.8</ele>
        <time>2000-01-01T12:24:05.000Z</time>
      </trkpt>
      <trkpt lat="48.25026" lon="7.29302">
        <ele>625.3</ele>
        <time>2000-01-01T12:24:15.000Z</time>
      </trkpt>
      <trkpt lat="48.25021" lon="7.29304">
        <ele>626.3</ele>
        <time>2000-01-01T12:24:25.000Z</time>
      </trkpt>
      <trkpt lat="48.2502" lon="7.29304">
        <ele>626.4</ele>
        <time>2000-01-01T12:24:35.000Z</time>
      </trkpt>
      <trkpt lat="48.25019" lon="7.29304">
        <ele>626.6</ele>
        <time>2000-01-01T12:24:45.000Z</time>
      </trkpt>
      <trkpt lat="48.25017" lon="7.29305">
        <ele>627</ele>
        <time>2000-01-01T12:24:55.000Z</time>
      </trkpt>
      <trkpt lat="48.25016" lon="7.29305">
        <ele>627.1</ele>
        <time>2000-01-01T12:25:05.000Z</time>
      </trkpt>
      <trkpt lat="48.25012" lon="7.29309">
        <ele>621</ele>
        <time>2000-01-01T12:25:15.000Z</time>
      </trkpt>
      <trkpt lat="48.25007" lon="7.29315">
        <ele>629.9</ele>
        <time>2000-01-01T12:25:25.000Z</time>
      </trkpt>
      <trkpt lat="48.25006" lon="7.29317">
        <ele>630.5</ele>
        <time>2000-01-01T12:25:35.000Z</time>
      </trkpt>
      <trkpt lat="48.25003" lon="7.2932">
        <ele>631.7</ele>
        <time>2000-01-01T12:25:45.000Z</time>
      </trkpt>
      <trkpt lat="48.25" lon="7.29322">
        <ele>637.7</ele>
        <time>2000-01-01T12:25:55.000Z</time>
      </trkpt>
      <trkpt lat="48.24995" lon="7.29324">
        <ele>627</ele>
        <time>2000-01-01T12:26:05.000Z</time>
      </trkpt>
      <trkpt lat="48.24991" lon="7.29325">
        <ele>640.2</ele>
        <time>2000-01-01T12:26:15.000Z</time>
      </trkpt>
      <trkpt lat="48.2499" lon="7.29324">
        <ele>640.4</ele>
        <time>2000-01-01T12:26:25.000Z</time>
      </trkpt>
      <trkpt lat="48.24987" lon="7.29326">
        <ele>640.6</ele>
        <time>2000-01-01T12:26:35.000Z</time>
      </trkpt>
      <trkpt lat="48.24985" lon="7.29328">
        <ele>640.8</ele>
        <time>2000-01-01T12:26:45.000Z</time>
      </trkpt>
      <trkpt lat="48.24983" lon="7.29331">
        <ele>640.9</ele>
        <time>2000-01-01T12:26:55.000Z</time>
      </trkpt>
      <trkpt lat="48.2498" lon="7.29335">
        <ele>638.6</ele>
        <time>2000-01-01T12:27:05.000Z</time>
      </trkpt>
      <trkpt lat="48.24977" lon="7.2934">
        <ele>633</ele>
        <time>2000-01-01T12:27:15.000Z</time>
      </trkpt>
      <trkpt lat="48.24973" lon="7.29345">
        <ele>638.7</ele>
        <time>2000-01-01T12:27:25.000Z</time>
      </trkpt>
      <trkpt lat="48.24972" lon="7.29346">
        <ele>638.8</ele>
        <time>2000-01-01T12:27:35.000Z</time>
      </trkpt>
      <trkpt lat="48.24971" lon="7.29348">
        <ele>638.8</ele>
        <time>2000-01-01T12:27:45.000Z</time>
      </trkpt>
      <trkpt lat="48.24969" lon="7.29349">
        <ele>638.9</ele>
        <time>2000-01-01T12:27:55.000Z</time>
      </trkpt>
      <trkpt lat="48.24968" lon="7.29351">
        <ele>638.9</ele>
        <time>2000-01-01T12:28:05.000Z</time>
      </trkpt>
      <trkpt lat="48.24966" lon="7.29352">
        <ele>638.9</ele>
        <time>2000-01-01T12:28:15.000Z</time>
      </trkpt>
      <trkpt lat="48.2496" lon="7.29356">
        <ele>635</ele>
        <time>2000-01-01T12:28:25.000Z</time>
      </trkpt>
      <trkpt lat="48.2495" lon="7.29359">
        <ele>639.7</ele>
        <time>2000-01-01T12:28:35.000Z</time>
      </trkpt>
      <trkpt lat="48.24944" lon="7.29358">
        <ele>640.3</ele>
        <time>2000-01-01T12:28:45.000Z</time>
      </trkpt>
      <trkpt lat="48.24934" lon="7.2936">
        <ele>641</ele>
        <time>2000-01-01T12:28:55.000Z</time>
      </trkpt>
      <trkpt lat="48.24928" lon="7.29362">
        <ele>641</ele>
        <time>2000-01-01T12:29:05.000Z</time>
      </trkpt>
      <trkpt lat="48.2492" lon="7.29363">
        <ele>641.3</ele>
        <time>2000-01-01T12:29:15.000Z</time>
      </trkpt>
      <trkpt lat="48.24909" lon="7.29361">
        <ele>644</ele>
        <time>2000-01-01T12:29:25.000Z</time>
      </trkpt>
      <trkpt lat="48.24897" lon="7.29359">
        <ele>646.7</ele>
        <time>2000-01-01T12:29:35.000Z</time>
      </trkpt>
      <trkpt lat="48.24896" lon="7.29359">
        <ele>646.7</ele>
        <time>2000-01-01T12:29:45.000Z</time>
      </trkpt>
      <trkpt lat="48.2489" lon="7.29357">
        <ele>647</ele>
        <time>2000-01-01T12:29:55.000Z</time>
      </trkpt>
      <trkpt lat="48.24882" lon="7.29352">
        <ele>647.5</ele>
        <time>2000-01-01T12:30:05.000Z</time>
      </trkpt>
      <trkpt lat="48.24877" lon="7.29349">
        <ele>647.9</ele>
        <time>2000-01-01T12:30:15.000Z</time>
      </trkpt>
      <trkpt lat="48.24869" lon="7.29346">
        <ele>650</ele>
        <time>2000-01-01T12:30:25.000Z</time>
      </trkpt>
      <trkpt lat="48.24854" lon="7.29337">
        <ele>650.7</ele>
        <time>2000-01-01T12:30:35.000Z</time>
      </trkpt>
      <trkpt lat="48.24847" lon="7.2933">
        <ele>652</ele>
        <time>2000-01-01T12:30:45.000Z</time>
      </trkpt>
      <trkpt lat="48.24844" lon="7.29328">
        <ele>655.9</ele>
        <time>2000-01-01T12:30:55.000Z</time>
      </trkpt>
      <trkpt lat="48.24837" lon="7.29321">
        <ele>656.1</ele>
        <time>2000-01-01T12:31:05.000Z</time>
      </trkpt>
      <trkpt lat="48.24829" lon="7.29314">
        <ele>655</ele>
        <time>2000-01-01T12:31:15.000Z</time>
      </trkpt>
      <trkpt lat="48.24823" lon="7.29307">
        <ele>662.9</ele>
        <time>2000-01-01T12:31:25.000Z</time>
      </trkpt>
      <trkpt lat="48.24814" lon="7.29298">
        <ele>658</ele>
        <time>2000-01-01T12:31:35.000Z</time>
      </trkpt>
      <trkpt lat="48.24809" lon="7.29294">
        <ele>665</ele>
        <time>2000-01-01T12:31:45.000Z</time>
      </trkpt>
      <trkpt lat="48.24805" lon="7.29292">
        <ele>665.3</ele>
        <time>2000-01-01T12:31:55.000Z</time>
      </trkpt>
      <trkpt lat="48.248" lon="7.29287">
        <ele>665.9</ele>
        <time>2000-01-01T12:32:05.000Z</time>
      </trkpt>
      <trkpt lat="48.24792" lon="7.2928">
        <ele>662</ele>
        <time>2000-01-01T12:32:15.000Z</time>
      </trkpt>
      <trkpt lat="48.24788" lon="7.29273">
        <ele>667.6</ele>
        <time>2000-01-01T12:32:25.000Z</time>
      </trkpt>
      <trkpt lat="48.24778" lon="7.29264">
        <ele>669.2</ele>
        <time>2000-01-01T12:32:35.000Z</time>
      </trkpt>
      <trkpt lat="48.24775" lon="7.29263">
        <ele>665</ele>
        <time>2000-01-01T12:32:45.000Z</time>
      </trkpt>
      <trkpt lat="48.24769" lon="7.29263">
        <ele>670.5</ele>
        <time>2000-01-01T12:32:55.000Z</time>
      </trkpt>
      <trkpt lat="48.24763" lon="7.29261">
        <ele>671.7</ele>
        <time>2000-01-01T12:33:05.000Z</time>
      </trkpt>
      <trkpt lat="48.24758" lon="7.29259">
        <ele>672.9</ele>
        <time>2000-01-01T12:33:15.000Z</time>
      </trkpt>
      <trkpt lat="48.24753" lon="7.29256">
        <ele>667</ele>
        <time>2000-01-01T12:33:25.000Z</time>
      </trkpt>
      <trkpt lat="48.24748" lon="7.29255">
        <ele>677.2</ele>
        <time>2000-01-01T12:33:35.000Z</time>
      </trkpt>
      <trkpt lat="48.24746" lon="7.29255">
        <ele>677.3</ele>
        <time>2000-01-01T12:33:45.000Z</time>
      </trkpt>
      <trkpt lat="48.24737" lon="7.2925">
        <ele>677.8</ele>
        <time>2000-01-01T12:33:55.000Z</time>
      </trkpt>
      <trkpt lat="48.24723" lon="7.29249">
        <ele>671</ele>
        <time>2000-01-01T12:34:05.000Z</time>
      </trkpt>
      <trkpt lat="48.24713" lon="7.29249">
        <ele>686.5</ele>
        <time>2000-01-01T12:34:15.000Z</time>
      </trkpt>
      <trkpt lat="48.24708" lon="7.29252">
        <ele>680.2</ele>
        <time>2000-01-01T12:34:25.000Z</time>
      </trkpt>
      <trkpt lat="48.24698" lon="7.29253">
        <ele>675</ele>
        <time>2000-01-01T12:34:35.000Z</time>
      </trkpt>
      <trkpt lat="48.24691" lon="7.29255">
        <ele>682.6</ele>
        <time>2000-01-01T12:34:45.000Z</time>
      </trkpt>
      <trkpt lat="48.24688" lon="7.29255">
        <ele>683.2</ele>
        <time>2000-01-01T12:34:55.000Z</time>
      </trkpt>
      <trkpt lat="48.24687" lon="7.29255">
        <ele>683.4</ele>
        <time>2000-01-01T12:35:05.000Z</time>
      </trkpt>
      <trkpt lat="48.24686" lon="7.29256">
        <ele>683.5</ele>
        <time>2000-01-01T12:35:15.000Z</time>
      </trkpt>
      <trkpt lat="48.24678" lon="7.29257">
        <ele>675</ele>
        <time>2000-01-01T12:35:25.000Z</time>
      </trkpt>
      <trkpt lat="48.24664" lon="7.29267">
        <ele>688.9</ele>
        <time>2000-01-01T12:35:35.000Z</time>
      </trkpt>
      <trkpt lat="48.24656" lon="7.29272">
        <ele>676</ele>
        <time>2000-01-01T12:35:45.000Z</time>
      </trkpt>
      <trkpt lat="48.24638" lon="7.29273">
        <ele>689</ele>
        <time>2000-01-01T12:35:55.000Z</time>
      </trkpt>
      <trkpt lat="48.24628" lon="7.29272">
        <ele>678</ele>
        <time>2000-01-01T12:36:05.000Z</time>
      </trkpt>
      <trkpt lat="48.24609" lon="7.29273">
        <ele>678</ele>
        <time>2000-01-01T12:36:15.000Z</time>
      </trkpt>
      <trkpt lat="48.24588" lon="7.29279">
        <ele>678</ele>
        <time>2000-01-01T12:36:25.000Z</time>
      </trkpt>
      <trkpt lat="48.2457" lon="7.29284">
        <ele>678</ele>
        <time>2000-01-01T12:36:35.000Z</time>
      </trkpt>
      <trkpt lat="48.24549" lon="7.29283">
        <ele>679</ele>
        <time>2000-01-01T12:36:45.000Z</time>
      </trkpt>
      <trkpt lat="48.2453" lon="7.29286">
        <ele>679</ele>
        <time>2000-01-01T12:36:55.000Z</time>
      </trkpt>
      <trkpt lat="48.24511" lon="7.29291">
        <ele>678</ele>
        <time>2000-01-01T12:37:05.000Z</time>
      </trkpt>
      <trkpt lat="48.24491" lon="7.29294">
        <ele>678</ele>
        <time>2000-01-01T12:37:15.000Z</time>
      </trkpt>
      <trkpt lat="48.2448" lon="7.29293">
        <ele>698</ele>
        <time>2000-01-01T12:37:25.000Z</time>
      </trkpt>
      <trkpt lat="48.2446" lon="7.29297">
        <ele>680</ele>
        <time>2000-01-01T12:37:35.000Z</time>
      </trkpt>
      <trkpt lat="48.24436" lon="7.293">
        <ele>680</ele>
        <time>2000-01-01T12:37:45.000Z</time>
      </trkpt>
      <trkpt lat="48.24418" lon="7.29306">
        <ele>679</ele>
        <time>2000-01-01T12:37:55.000Z</time>
      </trkpt>
      <trkpt lat="48.24404" lon="7.2931">
        <ele>694</ele>
        <time>2000-01-01T12:38:05.000Z</time>
      </trkpt>
      <trkpt lat="48.24381" lon="7.29313">
        <ele>678</ele>
        <time>2000-01-01T12:38:15.000Z</time>
      </trkpt>
      <trkpt lat="48.2437" lon="7.29318">
        <ele>693.1</ele>
        <time>2000-01-01T12:38:25.000Z</time>
      </trkpt>
      <trkpt lat="48.24353" lon="7.29328">
        <ele>677</ele>
        <time>2000-01-01T12:38:35.000Z</time>
      </trkpt>
      <trkpt lat="48.24342" lon="7.2934">
        <ele>684.9</ele>
        <time>2000-01-01T12:38:45.000Z</time>
      </trkpt>
      <trkpt lat="48.24321" lon="7.29344">
        <ele>675</ele>
        <time>2000-01-01T12:38:55.000Z</time>
      </trkpt>
      <trkpt lat="48.24318" lon="7.29346">
        <ele>681.2</ele>
        <time>2000-01-01T12:39:05.000Z</time>
      </trkpt>
      <trkpt lat="48.24315" lon="7.29346">
        <ele>680.7</ele>
        <time>2000-01-01T12:39:15.000Z</time>
      </trkpt>
      <trkpt lat="48.24305" lon="7.29342">
        <ele>679.5</ele>
        <time>2000-01-01T12:39:25.000Z</time>
      </trkpt>
      <trkpt lat="48.24274" lon="7.29314">
        <ele>675</ele>
        <time>2000-01-01T12:39:35.000Z</time>
      </trkpt>
      <trkpt lat="48.24274" lon="7.2931">
        <ele>681</ele>
        <time>2000-01-01T12:39:45.000Z</time>
      </trkpt>
      <trkpt lat="48.24276" lon="7.2928">
        <ele>676</ele>
        <time>2000-01-01T12:39:55.000Z</time>
      </trkpt>
      <trkpt lat="48.24276" lon="7.29262">
        <ele>682.7</ele>
        <time>2000-01-01T12:40:05.000Z</time>
      </trkpt>
      <trkpt lat="48.24276" lon="7.29235">
        <ele>678</ele>
        <time>2000-01-01T12:40:15.000Z</time>
      </trkpt>
      <trkpt lat="48.24279" lon="7.29213">
        <ele>687.6</ele>
        <time>2000-01-01T12:40:25.000Z</time>
      </trkpt>
      <trkpt lat="48.24278" lon="7.29186">
        <ele>679</ele>
        <time>2000-01-01T12:40:35.000Z</time>
      </trkpt>
      <trkpt lat="48.24279" lon="7.2917">
        <ele>687.2</ele>
        <time>2000-01-01T12:40:45.000Z</time>
      </trkpt>
      <trkpt lat="48.24282" lon="7.29141">
        <ele>679</ele>
        <time>2000-01-01T12:40:55.000Z</time>
      </trkpt>
      <trkpt lat="48.24283" lon="7.29125">
        <ele>689.7</ele>
        <time>2000-01-01T12:41:05.000Z</time>
      </trkpt>
      <trkpt lat="48.24287" lon="7.29097">
        <ele>679</ele>
        <time>2000-01-01T12:41:15.000Z</time>
      </trkpt>
      <trkpt lat="48.24291" lon="7.29075">
        <ele>689</ele>
        <time>2000-01-01T12:41:25.000Z</time>
      </trkpt>
      <trkpt lat="48.24296" lon="7.29048">
        <ele>679</ele>
        <time>2000-01-01T12:41:35.000Z</time>
      </trkpt>
      <trkpt lat="48.24299" lon="7.29027">
        <ele>689</ele>
        <time>2000-01-01T12:41:45.000Z</time>
      </trkpt>
      <trkpt lat="48.24308" lon="7.29004">
        <ele>679</ele>
        <time>2000-01-01T12:41:55.000Z</time>
      </trkpt>
      <trkpt lat="48.24313" lon="7.28987">
        <ele>688.1</ele>
        <time>2000-01-01T12:42:05.000Z</time>
      </trkpt>
      <trkpt lat="48.24316" lon="7.28959">
        <ele>679</ele>
        <time>2000-01-01T12:42:15.000Z</time>
      </trkpt>
      <trkpt lat="48.24315" lon="7.28923">
        <ele>679</ele>
        <time>2000-01-01T12:42:25.000Z</time>
      </trkpt>
      <trkpt lat="48.24321" lon="7.28894">
        <ele>679</ele>
        <time>2000-01-01T12:42:35.000Z</time>
      </trkpt>
      <trkpt lat="48.2432" lon="7.28877">
        <ele>678.1</ele>
        <time>2000-01-01T12:42:45.000Z</time>
      </trkpt>
      <trkpt lat="48.24328" lon="7.28851">
        <ele>677</ele>
        <time>2000-01-01T12:42:55.000Z</time>
      </trkpt>
      <trkpt lat="48.24335" lon="7.28836">
        <ele>682.1</ele>
        <time>2000-01-01T12:43:05.000Z</time>
      </trkpt>
      <trkpt lat="48.24347" lon="7.28814">
        <ele>677</ele>
        <time>2000-01-01T12:43:15.000Z</time>
      </trkpt>
      <trkpt lat="48.24363" lon="7.28794">
        <ele>679</ele>
        <time>2000-01-01T12:43:25.000Z</time>
      </trkpt>
      <trkpt lat="48.24382" lon="7.28772">
        <ele>680</ele>
        <time>2000-01-01T12:43:35.000Z</time>
      </trkpt>
      <trkpt lat="48.24384" lon="7.2877">
        <ele>682.3</ele>
        <time>2000-01-01T12:43:45.000Z</time>
      </trkpt>
      <trkpt lat="48.244" lon="7.28754">
        <ele>680</ele>
        <time>2000-01-01T12:43:55.000Z</time>
      </trkpt>
      <trkpt lat="48.24418" lon="7.28744">
        <ele>681</ele>
        <time>2000-01-01T12:44:05.000Z</time>
      </trkpt>
      <trkpt lat="48.24432" lon="7.28727">
        <ele>682</ele>
        <time>2000-01-01T12:44:15.000Z</time>
      </trkpt>
      <trkpt lat="48.24432" lon="7.28723">
        <ele>686.4</ele>
        <time>2000-01-01T12:44:25.000Z</time>
      </trkpt>
      <trkpt lat="48.24445" lon="7.287">
        <ele>682</ele>
        <time>2000-01-01T12:44:35.000Z</time>
      </trkpt>
      <trkpt lat="48.24459" lon="7.28681">
        <ele>682</ele>
        <time>2000-01-01T12:44:45.000Z</time>
      </trkpt>
      <trkpt lat="48.24468" lon="7.28669">
        <ele>687.7</ele>
        <time>2000-01-01T12:44:55.000Z</time>
      </trkpt>
      <trkpt lat="48.24487" lon="7.28647">
        <ele>684</ele>
        <time>2000-01-01T12:45:05.000Z</time>
      </trkpt>
      <trkpt lat="48.24493" lon="7.28642">
        <ele>683.3</ele>
        <time>2000-01-01T12:45:15.000Z</time>
      </trkpt>
      <trkpt lat="48.24501" lon="7.28631">
        <ele>696.7</ele>
        <time>2000-01-01T12:45:25.000Z</time>
      </trkpt>
      <trkpt lat="48.24503" lon="7.28627">
        <ele>686</ele>
        <time>2000-01-01T12:45:35.000Z</time>
      </trkpt>
      <trkpt lat="48.24506" lon="7.28625">
        <ele>696.7</ele>
        <time>2000-01-01T12:45:45.000Z</time>
      </trkpt>
      <trkpt lat="48.24513" lon="7.28612">
        <ele>696.1</ele>
        <time>2000-01-01T12:45:55.000Z</time>
      </trkpt>
      <trkpt lat="48.24524" lon="7.28601">
        <ele>689</ele>
        <time>2000-01-01T12:46:05.000Z</time>
      </trkpt>
      <trkpt lat="48.24528" lon="7.28595">
        <ele>697.1</ele>
        <time>2000-01-01T12:46:15.000Z</time>
      </trkpt>
      <trkpt lat="48.24533" lon="7.28586">
        <ele>698.1</ele>
        <time>2000-01-01T12:46:25.000Z</time>
      </trkpt>
      <trkpt lat="48.24538" lon="7.28582">
        <ele>689</ele>
        <time>2000-01-01T12:46:35.000Z</time>
      </trkpt>
      <trkpt lat="48.24546" lon="7.28578">
        <ele>700.6</ele>
        <time>2000-01-01T12:46:45.000Z</time>
      </trkpt>
      <trkpt lat="48.24554" lon="7.28564">
        <ele>692</ele>
        <time>2000-01-01T12:46:55.000Z</time>
      </trkpt>
      <trkpt lat="48.24561" lon="7.28552">
        <ele>703.2</ele>
        <time>2000-01-01T12:47:05.000Z</time>
      </trkpt>
      <trkpt lat="48.24562" lon="7.2854">
        <ele>695</ele>
        <time>2000-01-01T12:47:15.000Z</time>
      </trkpt>
      <trkpt lat="48.24558" lon="7.28521">
        <ele>703.8</ele>
        <time>2000-01-01T12:47:25.000Z</time>
      </trkpt>
      <trkpt lat="48.24554" lon="7.28508">
        <ele>695</ele>
        <time>2000-01-01T12:47:35.000Z</time>
      </trkpt>
      <trkpt lat="48.24552" lon="7.28488">
        <ele>709.4</ele>
        <time>2000-01-01T12:47:45.000Z</time>
      </trkpt>
      <trkpt lat="48.24551" lon="7.28478">
        <ele>700</ele>
        <time>2000-01-01T12:47:55.000Z</time>
      </trkpt>
      <trkpt lat="48.2455" lon="7.28471">
        <ele>709.9</ele>
        <time>2000-01-01T12:48:05.000Z</time>
      </trkpt>
      <trkpt lat="48.2455" lon="7.28467">
        <ele>710.2</ele>
        <time>2000-01-01T12:48:15.000Z</time>
      </trkpt>
      <trkpt lat="48.24547" lon="7.28456">
        <ele>710.7</ele>
        <time>2000-01-01T12:48:25.000Z</time>
      </trkpt>
      <trkpt lat="48.24542" lon="7.28443">
        <ele>703</ele>
        <time>2000-01-01T12:48:35.000Z</time>
      </trkpt>
      <trkpt lat="48.24537" lon="7.28434">
        <ele>711.3</ele>
        <time>2000-01-01T12:48:45.000Z</time>
      </trkpt>
      <trkpt lat="48.2453" lon="7.28428">
        <ele>710.7</ele>
        <time>2000-01-01T12:48:55.000Z</time>
      </trkpt>
      <trkpt lat="48.24521" lon="7.28421">
        <ele>703</ele>
        <time>2000-01-01T12:49:05.000Z</time>
      </trkpt>
      <trkpt lat="48.24519" lon="7.28418">
        <ele>710</ele>
        <time>2000-01-01T12:49:15.000Z</time>
      </trkpt>
      <trkpt lat="48.24509" lon="7.28408">
        <ele>715.3</ele>
        <time>2000-01-01T12:49:25.000Z</time>
      </trkpt>
      <trkpt lat="48.24501" lon="7.28401">
        <ele>704</ele>
        <time>2000-01-01T12:49:35.000Z</time>
      </trkpt>
      <trkpt lat="48.24498" lon="7.28397">
        <ele>708.8</ele>
        <time>2000-01-01T12:49:45.000Z</time>
      </trkpt>
      <trkpt lat="48.24494" lon="7.28392">
        <ele>708.9</ele>
        <time>2000-01-01T12:49:55.000Z</time>
      </trkpt>
      <trkpt lat="48.24483" lon="7.28373">
        <ele>710</ele>
        <time>2000-01-01T12:50:05.000Z</time>
      </trkpt>
      <trkpt lat="48.2448" lon="7.28367">
        <ele>711.1</ele>
        <time>2000-01-01T12:50:15.000Z</time>
      </trkpt>
      <trkpt lat="48.24479" lon="7.28366">
        <ele>711.2</ele>
        <time>2000-01-01T12:50:25.000Z</time>
      </trkpt>
      <trkpt lat="48.24473" lon="7.28356">
        <ele>712</ele>
        <time>2000-01-01T12:50:35.000Z</time>
      </trkpt>
      <trkpt lat="48.24471" lon="7.28353">
        <ele>711</ele>
        <time>2000-01-01T12:50:45.000Z</time>
      </trkpt>
      <trkpt lat="48.24468" lon="7.28345">
        <ele>712.5</ele>
        <time>2000-01-01T12:50:55.000Z</time>
      </trkpt>
      <trkpt lat="48.24465" lon="7.28333">
        <ele>723.3</ele>
        <time>2000-01-01T12:51:05.000Z</time>
      </trkpt>
      <trkpt lat="48.24462" lon="7.28327">
        <ele>715</ele>
        <time>2000-01-01T12:51:15.000Z</time>
      </trkpt>
      <trkpt lat="48.24459" lon="7.28321">
        <ele>722.9</ele>
        <time>2000-01-01T12:51:25.000Z</time>
      </trkpt>
      <trkpt lat="48.24457" lon="7.28317">
        <ele>722.9</ele>
        <time>2000-01-01T12:51:35.000Z</time>
      </trkpt>
      <trkpt lat="48.24453" lon="7.28308">
        <ele>723</ele>
        <time>2000-01-01T12:51:45.000Z</time>
      </trkpt>
      <trkpt lat="48.24451" lon="7.28291">
        <ele>717</ele>
        <time>2000-01-01T12:51:55.000Z</time>
      </trkpt>
      <trkpt lat="48.24451" lon="7.28289">
        <ele>724.5</ele>
        <time>2000-01-01T12:52:05.000Z</time>
      </trkpt>
      <trkpt lat="48.24451" lon="7.28277">
        <ele>725.5</ele>
        <time>2000-01-01T12:52:15.000Z</time>
      </trkpt>
      <trkpt lat="48.2445" lon="7.28253">
        <ele>721</ele>
        <time>2000-01-01T12:52:25.000Z</time>
      </trkpt>
      <trkpt lat="48.24449" lon="7.2825">
        <ele>731.6</ele>
        <time>2000-01-01T12:52:35.000Z</time>
      </trkpt>
      <trkpt lat="48.24447" lon="7.28242">
        <ele>731.7</ele>
        <time>2000-01-01T12:52:45.000Z</time>
      </trkpt>
      <trkpt lat="48.24443" lon="7.28229">
        <ele>731.9</ele>
        <time>2000-01-01T12:52:55.000Z</time>
      </trkpt>
      <trkpt lat="48.24442" lon="7.28217">
        <ele>723</ele>
        <time>2000-01-01T12:53:05.000Z</time>
      </trkpt>
      <trkpt lat="48.2444" lon="7.28208">
        <ele>732.7</ele>
        <time>2000-01-01T12:53:15.000Z</time>
      </trkpt>
      <trkpt lat="48.2443" lon="7.28184">
        <ele>725</ele>
        <time>2000-01-01T12:53:25.000Z</time>
      </trkpt>
      <trkpt lat="48.24425" lon="7.28177">
        <ele>735.5</ele>
        <time>2000-01-01T12:53:35.000Z</time>
      </trkpt>
      <trkpt lat="48.24419" lon="7.28166">
        <ele>737.5</ele>
        <time>2000-01-01T12:53:45.000Z</time>
      </trkpt>
      <trkpt lat="48.24413" lon="7.28147">
        <ele>727</ele>
        <time>2000-01-01T12:53:55.000Z</time>
      </trkpt>
      <trkpt lat="48.24407" lon="7.28125">
        <ele>742.4</ele>
        <time>2000-01-01T12:54:05.000Z</time>
      </trkpt>
      <trkpt lat="48.24402" lon="7.28105">
        <ele>730</ele>
        <time>2000-01-01T12:54:15.000Z</time>
      </trkpt>
      <trkpt lat="48.24403" lon="7.28083">
        <ele>743.1</ele>
        <time>2000-01-01T12:54:25.000Z</time>
      </trkpt>
      <trkpt lat="48.244" lon="7.28061">
        <ele>733</ele>
        <time>2000-01-01T12:54:35.000Z</time>
      </trkpt>
      <trkpt lat="48.24396" lon="7.28043">
        <ele>747.8</ele>
        <time>2000-01-01T12:54:45.000Z</time>
      </trkpt>
      <trkpt lat="48.24391" lon="7.28031">
        <ele>735</ele>
        <time>2000-01-01T12:54:55.000Z</time>
      </trkpt>
      <trkpt lat="48.2439" lon="7.28016">
        <ele>748.7</ele>
        <time>2000-01-01T12:55:05.000Z</time>
      </trkpt>
      <trkpt lat="48.24393" lon="7.27996">
        <ele>739</ele>
        <time>2000-01-01T12:55:15.000Z</time>
      </trkpt>
      <trkpt lat="48.24393" lon="7.27987">
        <ele>753.8</ele>
        <time>2000-01-01T12:55:25.000Z</time>
      </trkpt>
      <trkpt lat="48.24396" lon="7.27977">
        <ele>754.4</ele>
        <time>2000-01-01T12:55:35.000Z</time>
      </trkpt>
      <trkpt lat="48.24398" lon="7.27959">
        <ele>741</ele>
        <time>2000-01-01T12:55:45.000Z</time>
      </trkpt>
      <trkpt lat="48.24401" lon="7.27932">
        <ele>743</ele>
        <time>2000-01-01T12:55:55.000Z</time>
      </trkpt>
      <trkpt lat="48.24401" lon="7.27919">
        <ele>755.5</ele>
        <time>2000-01-01T12:56:05.000Z</time>
      </trkpt>
      <trkpt lat="48.24405" lon="7.27904">
        <ele>746</ele>
        <time>2000-01-01T12:56:15.000Z</time>
      </trkpt>
      <trkpt lat="48.24406" lon="7.27902">
        <ele>758.9</ele>
        <time>2000-01-01T12:56:25.000Z</time>
      </trkpt>
      <trkpt lat="48.24405" lon="7.27894">
        <ele>760.5</ele>
        <time>2000-01-01T12:56:35.000Z</time>
      </trkpt>
      <trkpt lat="48.24404" lon="7.27893">
        <ele>760.8</ele>
        <time>2000-01-01T12:56:45.000Z</time>
      </trkpt>
      <trkpt lat="48.24406" lon="7.27881">
        <ele>761.7</ele>
        <time>2000-01-01T12:56:55.000Z</time>
      </trkpt>
      <trkpt lat="48.24404" lon="7.27863">
        <ele>749</ele>
        <time>2000-01-01T12:57:05.000Z</time>
      </trkpt>
      <trkpt lat="48.24401" lon="7.2785">
        <ele>761.5</ele>
        <time>2000-01-01T12:57:15.000Z</time>
      </trkpt>
      <trkpt lat="48.24401" lon="7.2784">
        <ele>760.4</ele>
        <time>2000-01-01T12:57:25.000Z</time>
      </trkpt>
      <trkpt lat="48.244" lon="7.27834">
        <ele>749</ele>
        <time>2000-01-01T12:57:35.000Z</time>
      </trkpt>
      <trkpt lat="48.244" lon="7.27825">
        <ele>761.3</ele>
        <time>2000-01-01T12:57:45.000Z</time>
      </trkpt>
      <trkpt lat="48.24397" lon="7.27819">
        <ele>762.6</ele>
        <time>2000-01-01T12:57:55.000Z</time>
      </trkpt>
      <trkpt lat="48.24396" lon="7.27814">
        <ele>763.2</ele>
        <time>2000-01-01T12:58:05.000Z</time>
      </trkpt>
      <trkpt lat="48.24395" lon="7.27806">
        <ele>750</ele>
        <time>2000-01-01T12:58:15.000Z</time>
      </trkpt>
      <trkpt lat="48.24396" lon="7.27805">
        <ele>763.8</ele>
        <time>2000-01-01T12:58:25.000Z</time>
      </trkpt>
      <trkpt lat="48.24393" lon="7.27789">
        <ele>764.5</ele>
        <time>2000-01-01T12:58:35.000Z</time>
      </trkpt>
      <trkpt lat="48.24392" lon="7.2778">
        <ele>752</ele>
        <time>2000-01-01T12:58:45.000Z</time>
      </trkpt>
      <trkpt lat="48.24391" lon="7.27776">
        <ele>764.4</ele>
        <time>2000-01-01T12:58:55.000Z</time>
      </trkpt>
      <trkpt lat="48.2439" lon="7.27767">
        <ele>764.1</ele>
        <time>2000-01-01T12:59:05.000Z</time>
      </trkpt>
      <trkpt lat="48.24386" lon="7.27752">
        <ele>755</ele>
        <time>2000-01-01T12:59:15.000Z</time>
      </trkpt>
      <trkpt lat="48.24381" lon="7.27737">
        <ele>763.2</ele>
        <time>2000-01-01T12:59:25.000Z</time>
      </trkpt>
      <trkpt lat="48.24377" lon="7.27728">
        <ele>758</ele>
        <time>2000-01-01T12:59:35.000Z</time>
      </trkpt>
      <trkpt lat="48.24375" lon="7.27721">
        <ele>763.9</ele>
        <time>2000-01-01T12:59:45.000Z</time>
      </trkpt>
      <trkpt lat="48.24369" lon="7.2771">
        <ele>764.4</ele>
        <time>2000-01-01T12:59:55.000Z</time>
      </trkpt>
      <trkpt lat="48.24368" lon="7.27704">
        <ele>759</ele>
        <time>2000-01-01T13:00:05.000Z</time>
      </trkpt>
      <trkpt lat="48.24364" lon="7.27696">
        <ele>764.5</ele>
        <time>2000-01-01T13:00:15.000Z</time>
      </trkpt>
      <trkpt lat="48.24363" lon="7.27687">
        <ele>764.5</ele>
        <time>2000-01-01T13:00:25.000Z</time>
      </trkpt>
      <trkpt lat="48.24358" lon="7.27678">
        <ele>759</ele>
        <time>2000-01-01T13:00:35.000Z</time>
      </trkpt>
      <trkpt lat="48.24354" lon="7.27671">
        <ele>765.9</ele>
        <time>2000-01-01T13:00:45.000Z</time>
      </trkpt>
      <trkpt lat="48.24349" lon="7.27663">
        <ele>763.4</ele>
        <time>2000-01-01T13:00:55.000Z</time>
      </trkpt>
      <trkpt lat="48.24341" lon="7.27651">
        <ele>761</ele>
        <time>2000-01-01T13:01:05.000Z</time>
      </trkpt>
      <trkpt lat="48.24336" lon="7.27643">
        <ele>762</ele>
        <time>2000-01-01T13:01:15.000Z</time>
      </trkpt>
      <trkpt lat="48.24329" lon="7.27634">
        <ele>774.5</ele>
        <time>2000-01-01T13:01:25.000Z</time>
      </trkpt>
      <trkpt lat="48.24326" lon="7.27629">
        <ele>764</ele>
        <time>2000-01-01T13:01:35.000Z</time>
      </trkpt>
      <trkpt lat="48.24319" lon="7.27618">
        <ele>774.2</ele>
        <time>2000-01-01T13:01:45.000Z</time>
      </trkpt>
      <trkpt lat="48.24313" lon="7.2761">
        <ele>774</ele>
        <time>2000-01-01T13:01:55.000Z</time>
      </trkpt>
      <trkpt lat="48.24312" lon="7.27609">
        <ele>765</ele>
        <time>2000-01-01T13:02:05.000Z</time>
      </trkpt>
      <trkpt lat="48.24303" lon="7.276">
        <ele>774.8</ele>
        <time>2000-01-01T13:02:15.000Z</time>
      </trkpt>
      <trkpt lat="48.24296" lon="7.27593">
        <ele>769</ele>
        <time>2000-01-01T13:02:25.000Z</time>
      </trkpt>
      <trkpt lat="48.24292" lon="7.27586">
        <ele>776.5</ele>
        <time>2000-01-01T13:02:35.000Z</time>
      </trkpt>
      <trkpt lat="48.24289" lon="7.27583">
        <ele>768.8</ele>
        <time>2000-01-01T13:02:45.000Z</time>
      </trkpt>
      <trkpt lat="48.24279" lon="7.27573">
        <ele>770</ele>
        <time>2000-01-01T13:02:55.000Z</time>
      </trkpt>
      <trkpt lat="48.24271" lon="7.27566">
        <ele>771.6</ele>
        <time>2000-01-01T13:03:05.000Z</time>
      </trkpt>
      <trkpt lat="48.2427" lon="7.27564">
        <ele>771.5</ele>
        <time>2000-01-01T13:03:15.000Z</time>
      </trkpt>
      <trkpt lat="48.2427" lon="7.27553">
        <ele>769</ele>
        <time>2000-01-01T13:03:25.000Z</time>
      </trkpt>
      <trkpt lat="48.24286" lon="7.2757">
        <ele>769</ele>
        <time>2000-01-01T13:03:35.000Z</time>
      </trkpt>
      <trkpt lat="48.24281" lon="7.27558">
        <ele>768.5</ele>
        <time>2000-01-01T13:03:45.000Z</time>
      </trkpt>
      <trkpt lat="48.24273" lon="7.2755">
        <ele>770</ele>
        <time>2000-01-01T13:03:55.000Z</time>
      </trkpt>
      <trkpt lat="48.24266" lon="7.27549">
        <ele>769.4</ele>
        <time>2000-01-01T13:04:05.000Z</time>
      </trkpt>
      <trkpt lat="48.24261" lon="7.27547">
        <ele>769.5</ele>
        <time>2000-01-01T13:04:15.000Z</time>
      </trkpt>
      <trkpt lat="48.24257" lon="7.27545">
        <ele>769.5</ele>
        <time>2000-01-01T13:04:25.000Z</time>
      </trkpt>
      <trkpt lat="48.24245" lon="7.2754">
        <ele>774</ele>
        <time>2000-01-01T13:04:35.000Z</time>
      </trkpt>
      <trkpt lat="48.24231" lon="7.27533">
        <ele>784.2</ele>
        <time>2000-01-01T13:04:45.000Z</time>
      </trkpt>
      <trkpt lat="48.24229" lon="7.27531">
        <ele>784.1</ele>
        <time>2000-01-01T13:04:55.000Z</time>
      </trkpt>
      <trkpt lat="48.24224" lon="7.27528">
        <ele>778</ele>
        <time>2000-01-01T13:05:05.000Z</time>
      </trkpt>
      <trkpt lat="48.24218" lon="7.27523">
        <ele>784.9</ele>
        <time>2000-01-01T13:05:15.000Z</time>
      </trkpt>
      <trkpt lat="48.2421" lon="7.27518">
        <ele>785.9</ele>
        <time>2000-01-01T13:05:25.000Z</time>
      </trkpt>
      <trkpt lat="48.24204" lon="7.27515">
        <ele>779</ele>
        <time>2000-01-01T13:05:35.000Z</time>
      </trkpt>
      <trkpt lat="48.24201" lon="7.27511">
        <ele>787</ele>
        <time>2000-01-01T13:05:45.000Z</time>
      </trkpt>
      <trkpt lat="48.24197" lon="7.27506">
        <ele>787.5</ele>
        <time>2000-01-01T13:05:55.000Z</time>
      </trkpt>
      <trkpt lat="48.2419" lon="7.27493">
        <ele>780</ele>
        <time>2000-01-01T13:06:05.000Z</time>
      </trkpt>
      <trkpt lat="48.2418" lon="7.2749">
        <ele>780.7</ele>
        <time>2000-01-01T13:06:15.000Z</time>
      </trkpt>
      <trkpt lat="48.24174" lon="7.27487">
        <ele>781.6</ele>
        <time>2000-01-01T13:06:25.000Z</time>
      </trkpt>
      <trkpt lat="48.24169" lon="7.27483">
        <ele>786</ele>
        <time>2000-01-01T13:06:35.000Z</time>
      </trkpt>
      <trkpt lat="48.24165" lon="7.2748">
        <ele>792.9</ele>
        <time>2000-01-01T13:06:45.000Z</time>
      </trkpt>
      <trkpt lat="48.24156" lon="7.27476">
        <ele>793.5</ele>
        <time>2000-01-01T13:06:55.000Z</time>
      </trkpt>
      <trkpt lat="48.24152" lon="7.27475">
        <ele>793.9</ele>
        <time>2000-01-01T13:07:05.000Z</time>
      </trkpt>
      <trkpt lat="48.24138" lon="7.27462">
        <ele>789</ele>
        <time>2000-01-01T13:07:15.000Z</time>
      </trkpt>
      <trkpt lat="48.24129" lon="7.2745">
        <ele>794.8</ele>
        <time>2000-01-01T13:07:25.000Z</time>
      </trkpt>
      <trkpt lat="48.24126" lon="7.27444">
        <ele>794.7</ele>
        <time>2000-01-01T13:07:35.000Z</time>
      </trkpt>
      <trkpt lat="48.24119" lon="7.27436">
        <ele>792</ele>
        <time>2000-01-01T13:07:45.000Z</time>
      </trkpt>
      <trkpt lat="48.24112" lon="7.27424">
        <ele>796.3</ele>
        <time>2000-01-01T13:07:55.000Z</time>
      </trkpt>
      <trkpt lat="48.24107" lon="7.27413">
        <ele>792</ele>
        <time>2000-01-01T13:08:05.000Z</time>
      </trkpt>
      <trkpt lat="48.24101" lon="7.27404">
        <ele>788.6</ele>
        <time>2000-01-01T13:08:15.000Z</time>
      </trkpt>
      <trkpt lat="48.24099" lon="7.27401">
        <ele>788.5</ele>
        <time>2000-01-01T13:08:25.000Z</time>
      </trkpt>
      <trkpt lat="48.241" lon="7.274">
        <ele>788</ele>
        <time>2000-01-01T13:08:35.000Z</time>
      </trkpt>
      <trkpt lat="48.24091" lon="7.27386">
        <ele>792</ele>
        <time>2000-01-01T13:08:45.000Z</time>
      </trkpt>
      <trkpt lat="48.24089" lon="7.2738">
        <ele>785.5</ele>
        <time>2000-01-01T13:08:55.000Z</time>
      </trkpt>
      <trkpt lat="48.24088" lon="7.27377">
        <ele>785.2</ele>
        <time>2000-01-01T13:09:05.000Z</time>
      </trkpt>
      <trkpt lat="48.24094" lon="7.27366">
        <ele>783.6</ele>
        <time>2000-01-01T13:09:15.000Z</time>
      </trkpt>
      <trkpt lat="48.24088" lon="7.27352">
        <ele>792</ele>
        <time>2000-01-01T13:09:25.000Z</time>
      </trkpt>
      <trkpt lat="48.24085" lon="7.27346">
        <ele>785.9</ele>
        <time>2000-01-01T13:09:35.000Z</time>
      </trkpt>
      <trkpt lat="48.24077" lon="7.27333">
        <ele>794.7</ele>
        <time>2000-01-01T13:09:45.000Z</time>
      </trkpt>
      <trkpt lat="48.24075" lon="7.27331">
        <ele>796</ele>
        <time>2000-01-01T13:09:55.000Z</time>
      </trkpt>
      <trkpt lat="48.24068" lon="7.27315">
        <ele>802.4</ele>
        <time>2000-01-01T13:10:05.000Z</time>
      </trkpt>
      <trkpt lat="48.24066" lon="7.27311">
        <ele>803.5</ele>
        <time>2000-01-01T13:10:15.000Z</time>
      </trkpt>
      <trkpt lat="48.24058" lon="7.27287">
        <ele>798</ele>
        <time>2000-01-01T13:10:25.000Z</time>
      </trkpt>
      <trkpt lat="48.24058" lon="7.27275">
        <ele>803.9</ele>
        <time>2000-01-01T13:10:35.000Z</time>
      </trkpt>
      <trkpt lat="48.24057" lon="7.27248">
        <ele>801</ele>
        <time>2000-01-01T13:10:45.000Z</time>
      </trkpt>
      <trkpt lat="48.24055" lon="7.2724">
        <ele>798</ele>
        <time>2000-01-01T13:10:55.000Z</time>
      </trkpt>
      <trkpt lat="48.2405" lon="7.27227">
        <ele>800.6</ele>
        <time>2000-01-01T13:11:05.000Z</time>
      </trkpt>
      <trkpt lat="48.24049" lon="7.27224">
        <ele>801</ele>
        <time>2000-01-01T13:11:15.000Z</time>
      </trkpt>
      <trkpt lat="48.24044" lon="7.272">
        <ele>804</ele>
        <time>2000-01-01T13:11:25.000Z</time>
      </trkpt>
      <trkpt lat="48.24043" lon="7.27186">
        <ele>801.6</ele>
        <time>2000-01-01T13:11:35.000Z</time>
      </trkpt>
      <trkpt lat="48.24042" lon="7.27174">
        <ele>801.6</ele>
        <time>2000-01-01T13:11:45.000Z</time>
      </trkpt>
      <trkpt lat="48.24038" lon="7.27159">
        <ele>805</ele>
        <time>2000-01-01T13:11:55.000Z</time>
      </trkpt>
      <trkpt lat="48.24037" lon="7.27152">
        <ele>800</ele>
        <time>2000-01-01T13:12:05.000Z</time>
      </trkpt>
      <trkpt lat="48.24036" lon="7.27144">
        <ele>800</ele>
        <time>2000-01-01T13:12:15.000Z</time>
      </trkpt>
      <trkpt lat="48.24035" lon="7.27139">
        <ele>800.1</ele>
        <time>2000-01-01T13:12:25.000Z</time>
      </trkpt>
      <trkpt lat="48.24032" lon="7.27133">
        <ele>807</ele>
        <time>2000-01-01T13:12:35.000Z</time>
      </trkpt>
      <trkpt lat="48.24029" lon="7.27119">
        <ele>801.1</ele>
        <time>2000-01-01T13:12:45.000Z</time>
      </trkpt>
      <trkpt lat="48.24025" lon="7.27107">
        <ele>807</ele>
        <time>2000-01-01T13:12:55.000Z</time>
      </trkpt>
      <trkpt lat="48.24023" lon="7.27096">
        <ele>804.2</ele>
        <time>2000-01-01T13:13:05.000Z</time>
      </trkpt>
      <trkpt lat="48.2402" lon="7.27075">
        <ele>808</ele>
        <time>2000-01-01T13:13:15.000Z</time>
      </trkpt>
      <trkpt lat="48.24017" lon="7.27053">
        <ele>801.8</ele>
        <time>2000-01-01T13:13:25.000Z</time>
      </trkpt>
      <trkpt lat="48.24018" lon="7.27048">
        <ele>811</ele>
        <time>2000-01-01T13:13:35.000Z</time>
      </trkpt>
      <trkpt lat="48.2402" lon="7.2703">
        <ele>800.7</ele>
        <time>2000-01-01T13:13:45.000Z</time>
      </trkpt>
      <trkpt lat="48.2402" lon="7.27024">
        <ele>801.3</ele>
        <time>2000-01-01T13:13:55.000Z</time>
      </trkpt>
      <trkpt lat="48.24017" lon="7.27008">
        <ele>815</ele>
        <time>2000-01-01T13:14:05.000Z</time>
      </trkpt>
      <trkpt lat="48.24013" lon="7.26989">
        <ele>804.1</ele>
        <time>2000-01-01T13:14:15.000Z</time>
      </trkpt>
      <trkpt lat="48.24008" lon="7.26973">
        <ele>818</ele>
        <time>2000-01-01T13:14:25.000Z</time>
      </trkpt>
      <trkpt lat="48.24004" lon="7.2696">
        <ele>799.3</ele>
        <time>2000-01-01T13:14:35.000Z</time>
      </trkpt>
      <trkpt lat="48.24002" lon="7.26952">
        <ele>799.2</ele>
        <time>2000-01-01T13:14:45.000Z</time>
      </trkpt>
      <trkpt lat="48.23994" lon="7.26929">
        <ele>819</ele>
        <time>2000-01-01T13:14:55.000Z</time>
      </trkpt>
      <trkpt lat="48.23991" lon="7.26924">
        <ele>819.8</ele>
        <time>2000-01-01T13:15:05.000Z</time>
      </trkpt>
      <trkpt lat="48.23986" lon="7.26907">
        <ele>818.8</ele>
        <time>2000-01-01T13:15:15.000Z</time>
      </trkpt>
      <trkpt lat="48.23986" lon="7.26898">
        <ele>821</ele>
        <time>2000-01-01T13:15:25.000Z</time>
      </trkpt>
      <trkpt lat="48.23979" lon="7.2687">
        <ele>820</ele>
        <time>2000-01-01T13:15:35.000Z</time>
      </trkpt>
      <trkpt lat="48.23975" lon="7.26864">
        <ele>822.6</ele>
        <time>2000-01-01T13:15:45.000Z</time>
      </trkpt>
      <trkpt lat="48.23974" lon="7.2686">
        <ele>822.4</ele>
        <time>2000-01-01T13:15:55.000Z</time>
      </trkpt>
      <trkpt lat="48.23972" lon="7.26846">
        <ele>820</ele>
        <time>2000-01-01T13:16:05.000Z</time>
      </trkpt>
      <trkpt lat="48.23971" lon="7.26844">
        <ele>821.4</ele>
        <time>2000-01-01T13:16:15.000Z</time>
      </trkpt>
      <trkpt lat="48.23966" lon="7.26833">
        <ele>817.7</ele>
        <time>2000-01-01T13:16:25.000Z</time>
      </trkpt>
      <trkpt lat="48.2396" lon="7.26817">
        <ele>820</ele>
        <time>2000-01-01T13:16:35.000Z</time>
      </trkpt>
      <trkpt lat="48.23957" lon="7.26808">
        <ele>820.5</ele>
        <time>2000-01-01T13:16:45.000Z</time>
      </trkpt>
      <trkpt lat="48.23955" lon="7.268">
        <ele>820.6</ele>
        <time>2000-01-01T13:16:55.000Z</time>
      </trkpt>
      <trkpt lat="48.23949" lon="7.26788">
        <ele>827</ele>
        <time>2000-01-01T13:17:05.000Z</time>
      </trkpt>
      <trkpt lat="48.23944" lon="7.2678">
        <ele>822.8</ele>
        <time>2000-01-01T13:17:15.000Z</time>
      </trkpt>
      <trkpt lat="48.23939" lon="7.26767">
        <ele>824.7</ele>
        <time>2000-01-01T13:17:25.000Z</time>
      </trkpt>
      <trkpt lat="48.23934" lon="7.26755">
        <ele>828</ele>
        <time>2000-01-01T13:17:35.000Z</time>
      </trkpt>
      <trkpt lat="48.23924" lon="7.2673">
        <ele>830</ele>
        <time>2000-01-01T13:17:45.000Z</time>
      </trkpt>
      <trkpt lat="48.2392" lon="7.26709">
        <ele>820.4</ele>
        <time>2000-01-01T13:17:55.000Z</time>
      </trkpt>
      <trkpt lat="48.23918" lon="7.26696">
        <ele>830</ele>
        <time>2000-01-01T13:18:05.000Z</time>
      </trkpt>
      <trkpt lat="48.23916" lon="7.2669">
        <ele>846.6</ele>
        <time>2000-01-01T13:18:15.000Z</time>
      </trkpt>
      <trkpt lat="48.23913" lon="7.26669">
        <ele>831</ele>
        <time>2000-01-01T13:18:25.000Z</time>
      </trkpt>
      <trkpt lat="48.2391" lon="7.26657">
        <ele>837.8</ele>
        <time>2000-01-01T13:18:35.000Z</time>
      </trkpt>
      <trkpt lat="48.23906" lon="7.26648">
        <ele>841.4</ele>
        <time>2000-01-01T13:18:45.000Z</time>
      </trkpt>
      <trkpt lat="48.23902" lon="7.26634">
        <ele>834</ele>
        <time>2000-01-01T13:18:55.000Z</time>
      </trkpt>
      <trkpt lat="48.23891" lon="7.26609">
        <ele>837</ele>
        <time>2000-01-01T13:19:05.000Z</time>
      </trkpt>
      <trkpt lat="48.23884" lon="7.26592">
        <ele>845.3</ele>
        <time>2000-01-01T13:19:15.000Z</time>
      </trkpt>
      <trkpt lat="48.23883" lon="7.26587">
        <ele>845.5</ele>
        <time>2000-01-01T13:19:25.000Z</time>
      </trkpt>
      <trkpt lat="48.23879" lon="7.26579">
        <ele>844</ele>
        <time>2000-01-01T13:19:35.000Z</time>
      </trkpt>
      <trkpt lat="48.23876" lon="7.26567">
        <ele>842.8</ele>
        <time>2000-01-01T13:19:45.000Z</time>
      </trkpt>
      <trkpt lat="48.23875" lon="7.26563">
        <ele>843.1</ele>
        <time>2000-01-01T13:19:55.000Z</time>
      </trkpt>
      <trkpt lat="48.23876" lon="7.26554">
        <ele>842.3</ele>
        <time>2000-01-01T13:20:05.000Z</time>
      </trkpt>
      <trkpt lat="48.23867" lon="7.26533">
        <ele>846</ele>
        <time>2000-01-01T13:20:15.000Z</time>
      </trkpt>
      <trkpt lat="48.23861" lon="7.26521">
        <ele>845.9</ele>
        <time>2000-01-01T13:20:25.000Z</time>
      </trkpt>
      <trkpt lat="48.23857" lon="7.26507">
        <ele>846</ele>
        <time>2000-01-01T13:20:35.000Z</time>
      </trkpt>
      <trkpt lat="48.23855" lon="7.265">
        <ele>844.6</ele>
        <time>2000-01-01T13:20:45.000Z</time>
      </trkpt>
      <trkpt lat="48.23852" lon="7.26486">
        <ele>844.1</ele>
        <time>2000-01-01T13:20:55.000Z</time>
      </trkpt>
      <trkpt lat="48.23851" lon="7.26478">
        <ele>846</ele>
        <time>2000-01-01T13:21:05.000Z</time>
      </trkpt>
      <trkpt lat="48.23849" lon="7.26465">
        <ele>840.7</ele>
        <time>2000-01-01T13:21:15.000Z</time>
      </trkpt>
      <trkpt lat="48.2385" lon="7.26452">
        <ele>839.6</ele>
        <time>2000-01-01T13:21:25.000Z</time>
      </trkpt>
      <trkpt lat="48.23851" lon="7.26445">
        <ele>846</ele>
        <time>2000-01-01T13:21:35.000Z</time>
      </trkpt>
      <trkpt lat="48.23848" lon="7.26429">
        <ele>842.5</ele>
        <time>2000-01-01T13:21:45.000Z</time>
      </trkpt>
      <trkpt lat="48.23843" lon="7.26413">
        <ele>846</ele>
        <time>2000-01-01T13:21:55.000Z</time>
      </trkpt>
      <trkpt lat="48.23835" lon="7.26395">
        <ele>838.7</ele>
        <time>2000-01-01T13:22:05.000Z</time>
      </trkpt>
      <trkpt lat="48.23835" lon="7.26383">
        <ele>850</ele>
        <time>2000-01-01T13:22:15.000Z</time>
      </trkpt>
      <trkpt lat="48.23831" lon="7.26366">
        <ele>868.1</ele>
        <time>2000-01-01T13:22:25.000Z</time>
      </trkpt>
      <trkpt lat="48.23828" lon="7.26356">
        <ele>853</ele>
        <time>2000-01-01T13:22:35.000Z</time>
      </trkpt>
      <trkpt lat="48.23825" lon="7.2634">
        <ele>858.7</ele>
        <time>2000-01-01T13:22:45.000Z</time>
      </trkpt>
      <trkpt lat="48.2382" lon="7.26326">
        <ele>855</ele>
        <time>2000-01-01T13:22:55.000Z</time>
      </trkpt>
      <trkpt lat="48.23812" lon="7.26304">
        <ele>864.4</ele>
        <time>2000-01-01T13:23:05.000Z</time>
      </trkpt>
      <trkpt lat="48.23806" lon="7.26285">
        <ele>859</ele>
        <time>2000-01-01T13:23:15.000Z</time>
      </trkpt>
      <trkpt lat="48.23805" lon="7.26282">
        <ele>865.2</ele>
        <time>2000-01-01T13:23:25.000Z</time>
      </trkpt>
      <trkpt lat="48.23805" lon="7.2628">
        <ele>865</ele>
        <time>2000-01-01T13:23:35.000Z</time>
      </trkpt>
      <trkpt lat="48.23801" lon="7.26281">
        <ele>866.5</ele>
        <time>2000-01-01T13:23:45.000Z</time>
      </trkpt>
      <trkpt lat="48.23802" lon="7.26284">
        <ele>866.5</ele>
        <time>2000-01-01T13:23:55.000Z</time>
      </trkpt>
      <trkpt lat="48.23804" lon="7.2629">
        <ele>866.4</ele>
        <time>2000-01-01T13:24:05.000Z</time>
      </trkpt>
      <trkpt lat="48.23806" lon="7.26294">
        <ele>866</ele>
        <time>2000-01-01T13:24:15.000Z</time>
      </trkpt>
      <trkpt lat="48.23806" lon="7.26298">
        <ele>860</ele>
        <time>2000-01-01T13:24:25.000Z</time>
      </trkpt>
      <trkpt lat="48.23807" lon="7.26305">
        <ele>866</ele>
        <time>2000-01-01T13:24:35.000Z</time>
      </trkpt>
      <trkpt lat="48.23806" lon="7.26314">
        <ele>866.1</ele>
        <time>2000-01-01T13:24:45.000Z</time>
      </trkpt>
      <trkpt lat="48.23804" lon="7.26318">
        <ele>866.8</ele>
        <time>2000-01-01T13:24:55.000Z</time>
      </trkpt>
      <trkpt lat="48.23805" lon="7.26321">
        <ele>866.2</ele>
        <time>2000-01-01T13:25:05.000Z</time>
      </trkpt>
      <trkpt lat="48.23807" lon="7.2633">
        <ele>866</ele>
        <time>2000-01-01T13:25:15.000Z</time>
      </trkpt>
      <trkpt lat="48.23807" lon="7.26341">
        <ele>870.8</ele>
        <time>2000-01-01T13:25:25.000Z</time>
      </trkpt>
      <trkpt lat="48.23809" lon="7.26357">
        <ele>864</ele>
        <time>2000-01-01T13:25:35.000Z</time>
      </trkpt>
      <trkpt lat="48.23809" lon="7.26366">
        <ele>873.8</ele>
        <time>2000-01-01T13:25:45.000Z</time>
      </trkpt>
      <trkpt lat="48.23812" lon="7.26389">
        <ele>869</ele>
        <time>2000-01-01T13:25:55.000Z</time>
      </trkpt>
      <trkpt lat="48.23812" lon="7.26407">
        <ele>871.3</ele>
        <time>2000-01-01T13:26:05.000Z</time>
      </trkpt>
      <trkpt lat="48.23811" lon="7.26411">
        <ele>871.5</ele>
        <time>2000-01-01T13:26:15.000Z</time>
      </trkpt>
      <trkpt lat="48.23809" lon="7.26424">
        <ele>869</ele>
        <time>2000-01-01T13:26:25.000Z</time>
      </trkpt>
      <trkpt lat="48.23809" lon="7.26433">
        <ele>880</ele>
        <time>2000-01-01T13:26:35.000Z</time>
      </trkpt>
      <trkpt lat="48.2381" lon="7.26436">
        <ele>880.2</ele>
        <time>2000-01-01T13:26:45.000Z</time>
      </trkpt>
      <trkpt lat="48.23809" lon="7.26437">
        <ele>880.9</ele>
        <time>2000-01-01T13:26:55.000Z</time>
      </trkpt>
      <trkpt lat="48.23811" lon="7.26439">
        <ele>880.4</ele>
        <time>2000-01-01T13:27:05.000Z</time>
      </trkpt>
      <trkpt lat="48.2381" lon="7.26439">
        <ele>880.8</ele>
        <time>2000-01-01T13:27:15.000Z</time>
      </trkpt>
      <trkpt lat="48.23811" lon="7.26453">
        <ele>870</ele>
        <time>2000-01-01T13:27:25.000Z</time>
      </trkpt>
      <trkpt lat="48.23811" lon="7.26465">
        <ele>883.6</ele>
        <time>2000-01-01T13:27:35.000Z</time>
      </trkpt>
      <trkpt lat="48.23811" lon="7.26478">
        <ele>882.9</ele>
        <time>2000-01-01T13:27:45.000Z</time>
      </trkpt>
      <trkpt lat="48.23814" lon="7.26489">
        <ele>873</ele>
        <time>2000-01-01T13:27:55.000Z</time>
      </trkpt>
      <trkpt lat="48.23815" lon="7.26511">
        <ele>884.4</ele>
        <time>2000-01-01T13:28:05.000Z</time>
      </trkpt>
      <trkpt lat="48.23814" lon="7.26523">
        <ele>877</ele>
        <time>2000-01-01T13:28:15.000Z</time>
      </trkpt>
      <trkpt lat="48.23816" lon="7.26539">
        <ele>890.8</ele>
        <time>2000-01-01T13:28:25.000Z</time>
      </trkpt>
      <trkpt lat="48.23813" lon="7.26558">
        <ele>880</ele>
        <time>2000-01-01T13:28:35.000Z</time>
      </trkpt>
      <trkpt lat="48.23815" lon="7.26571">
        <ele>889.3</ele>
        <time>2000-01-01T13:28:45.000Z</time>
      </trkpt>
      <trkpt lat="48.23816" lon="7.26579">
        <ele>887.6</ele>
        <time>2000-01-01T13:28:55.000Z</time>
      </trkpt>
      <trkpt lat="48.23815" lon="7.26594">
        <ele>884</ele>
        <time>2000-01-01T13:29:05.000Z</time>
      </trkpt>
      <trkpt lat="48.23812" lon="7.26608">
        <ele>897.1</ele>
        <time>2000-01-01T13:29:15.000Z</time>
      </trkpt>
      <trkpt lat="48.23808" lon="7.2663">
        <ele>888</ele>
        <time>2000-01-01T13:29:25.000Z</time>
      </trkpt>
      <trkpt lat="48.23806" lon="7.26642">
        <ele>900.9</ele>
        <time>2000-01-01T13:29:35.000Z</time>
      </trkpt>
      <trkpt lat="48.23805" lon="7.26656">
        <ele>900.5</ele>
        <time>2000-01-01T13:29:45.000Z</time>
      </trkpt>
      <trkpt lat="48.23806" lon="7.26661">
        <ele>893</ele>
        <time>2000-01-01T13:29:55.000Z</time>
      </trkpt>
      <trkpt lat="48.23807" lon="7.26669">
        <ele>902.9</ele>
        <time>2000-01-01T13:30:05.000Z</time>
      </trkpt>
      <trkpt lat="48.23805" lon="7.26673">
        <ele>904.2</ele>
        <time>2000-01-01T13:30:15.000Z</time>
      </trkpt>
      <trkpt lat="48.23801" lon="7.2667">
        <ele>906.1</ele>
        <time>2000-01-01T13:30:25.000Z</time>
      </trkpt>
      <trkpt lat="48.23798" lon="7.26659">
        <ele>899</ele>
        <time>2000-01-01T13:30:35.000Z</time>
      </trkpt>
      <trkpt lat="48.23797" lon="7.26652">
        <ele>904.1</ele>
        <time>2000-01-01T13:30:45.000Z</time>
      </trkpt>
      <trkpt lat="48.23796" lon="7.26646">
        <ele>904.5</ele>
        <time>2000-01-01T13:30:55.000Z</time>
      </trkpt>
      <trkpt lat="48.23793" lon="7.26637">
        <ele>905.5</ele>
        <time>2000-01-01T13:31:05.000Z</time>
      </trkpt>
      <trkpt lat="48.23792" lon="7.26635">
        <ele>905.7</ele>
        <time>2000-01-01T13:31:15.000Z</time>
      </trkpt>
      <trkpt lat="48.2379" lon="7.26628">
        <ele>902</ele>
        <time>2000-01-01T13:31:25.000Z</time>
      </trkpt>
      <trkpt lat="48.23788" lon="7.26626">
        <ele>906.7</ele>
        <time>2000-01-01T13:31:35.000Z</time>
      </trkpt>
      <trkpt lat="48.23787" lon="7.26621">
        <ele>906.9</ele>
        <time>2000-01-01T13:31:45.000Z</time>
      </trkpt>
      <trkpt lat="48.2379" lon="7.26617">
        <ele>905.8</ele>
        <time>2000-01-01T13:31:55.000Z</time>
      </trkpt>
      <trkpt lat="48.2379" lon="7.26616">
        <ele>905.8</ele>
        <time>2000-01-01T13:32:05.000Z</time>
      </trkpt>
      <trkpt lat="48.23784" lon="7.26606">
        <ele>905</ele>
        <time>2000-01-01T13:32:15.000Z</time>
      </trkpt>
      <trkpt lat="48.23776" lon="7.26591">
        <ele>912.2</ele>
        <time>2000-01-01T13:32:25.000Z</time>
      </trkpt>
      <trkpt lat="48.23776" lon="7.2659">
        <ele>912.3</ele>
        <time>2000-01-01T13:32:35.000Z</time>
      </trkpt>
      <trkpt lat="48.23775" lon="7.26581">
        <ele>914</ele>
        <time>2000-01-01T13:32:45.000Z</time>
      </trkpt>
      <trkpt lat="48.23773" lon="7.26574">
        <ele>910.3</ele>
        <time>2000-01-01T13:32:55.000Z</time>
      </trkpt>
      <trkpt lat="48.23772" lon="7.26571">
        <ele>910.4</ele>
        <time>2000-01-01T13:33:05.000Z</time>
      </trkpt>
      <trkpt lat="48.23771" lon="7.26568">
        <ele>910.3</ele>
        <time>2000-01-01T13:33:15.000Z</time>
      </trkpt>
      <trkpt lat="48.23766" lon="7.2656">
        <ele>910.6</ele>
        <time>2000-01-01T13:33:25.000Z</time>
      </trkpt>
      <trkpt lat="48.23766" lon="7.26549">
        <ele>916</ele>
        <time>2000-01-01T13:33:35.000Z</time>
      </trkpt>
      <trkpt lat="48.23765" lon="7.26539">
        <ele>908.6</ele>
        <time>2000-01-01T13:33:45.000Z</time>
      </trkpt>
      <trkpt lat="48.23759" lon="7.26526">
        <ele>911.7</ele>
        <time>2000-01-01T13:33:55.000Z</time>
      </trkpt>
      <trkpt lat="48.23754" lon="7.26518">
        <ele>919</ele>
        <time>2000-01-01T13:34:05.000Z</time>
      </trkpt>
      <trkpt lat="48.23752" lon="7.26515">
        <ele>917.6</ele>
        <time>2000-01-01T13:34:15.000Z</time>
      </trkpt>
      <trkpt lat="48.23749" lon="7.26505">
        <ele>933.4</ele>
        <time>2000-01-01T13:34:25.000Z</time>
      </trkpt>
      <trkpt lat="48.23748" lon="7.26504">
        <ele>933.2</ele>
        <time>2000-01-01T13:34:35.000Z</time>
      </trkpt>
      <trkpt lat="48.23744" lon="7.26499">
        <ele>933.3</ele>
        <time>2000-01-01T13:34:45.000Z</time>
      </trkpt>
      <trkpt lat="48.2374" lon="7.26494">
        <ele>925</ele>
        <time>2000-01-01T13:34:55.000Z</time>
      </trkpt>
      <trkpt lat="48.23739" lon="7.26487">
        <ele>936.1</ele>
        <time>2000-01-01T13:35:05.000Z</time>
      </trkpt>
      <trkpt lat="48.23738" lon="7.26479">
        <ele>936.9</ele>
        <time>2000-01-01T13:35:15.000Z</time>
      </trkpt>
      <trkpt lat="48.23736" lon="7.26472">
        <ele>937.3</ele>
        <time>2000-01-01T13:35:25.000Z</time>
      </trkpt>
      <trkpt lat="48.23733" lon="7.26467">
        <ele>927</ele>
        <time>2000-01-01T13:35:35.000Z</time>
      </trkpt>
      <trkpt lat="48.23731" lon="7.26463">
        <ele>937.8</ele>
        <time>2000-01-01T13:35:45.000Z</time>
      </trkpt>
      <trkpt lat="48.23728" lon="7.26456">
        <ele>937.7</ele>
        <time>2000-01-01T13:35:55.000Z</time>
      </trkpt>
      <trkpt lat="48.23728" lon="7.26455">
        <ele>937.6</ele>
        <time>2000-01-01T13:36:05.000Z</time>
      </trkpt>
      <trkpt lat="48.23723" lon="7.26445">
        <ele>930</ele>
        <time>2000-01-01T13:36:15.000Z</time>
      </trkpt>
      <trkpt lat="48.23719" lon="7.2644">
        <ele>938.2</ele>
        <time>2000-01-01T13:36:25.000Z</time>
      </trkpt>
      <trkpt lat="48.23718" lon="7.26439">
        <ele>938.4</ele>
        <time>2000-01-01T13:36:35.000Z</time>
      </trkpt>
      <trkpt lat="48.23716" lon="7.26435">
        <ele>938.8</ele>
        <time>2000-01-01T13:36:45.000Z</time>
      </trkpt>
      <trkpt lat="48.23711" lon="7.26425">
        <ele>935</ele>
        <time>2000-01-01T13:36:55.000Z</time>
      </trkpt>
      <trkpt lat="48.2371" lon="7.26423">
        <ele>940.4</ele>
        <time>2000-01-01T13:37:05.000Z</time>
      </trkpt>
      <trkpt lat="48.23708" lon="7.26421">
        <ele>941.2</ele>
        <time>2000-01-01T13:37:15.000Z</time>
      </trkpt>
      <trkpt lat="48.23707" lon="7.26421">
        <ele>941.6</ele>
        <time>2000-01-01T13:37:25.000Z</time>
      </trkpt>
      <trkpt lat="48.23707" lon="7.2642">
        <ele>941.6</ele>
        <time>2000-01-01T13:37:35.000Z</time>
      </trkpt>
      <trkpt lat="48.23703" lon="7.26414">
        <ele>939</ele>
        <time>2000-01-01T13:37:45.000Z</time>
      </trkpt>
      <trkpt lat="48.23699" lon="7.26408">
        <ele>940.5</ele>
        <time>2000-01-01T13:37:55.000Z</time>
      </trkpt>
      <trkpt lat="48.23699" lon="7.26407">
        <ele>940.4</ele>
        <time>2000-01-01T13:38:05.000Z</time>
      </trkpt>
      <trkpt lat="48.23694" lon="7.26402">
        <ele>941</ele>
        <time>2000-01-01T13:38:15.000Z</time>
      </trkpt>
      <trkpt lat="48.23692" lon="7.26399">
        <ele>942.5</ele>
        <time>2000-01-01T13:38:25.000Z</time>
      </trkpt>
      <trkpt lat="48.23689" lon="7.26394">
        <ele>942.8</ele>
        <time>2000-01-01T13:38:35.000Z</time>
      </trkpt>
      <trkpt lat="48.23687" lon="7.26391">
        <ele>942.9</ele>
        <time>2000-01-01T13:38:45.000Z</time>
      </trkpt>
      <trkpt lat="48.23685" lon="7.26383">
        <ele>942.3</ele>
        <time>2000-01-01T13:38:55.000Z</time>
      </trkpt>
      <trkpt lat="48.23682" lon="7.26378">
        <ele>945</ele>
        <time>2000-01-01T13:39:05.000Z</time>
      </trkpt>
      <trkpt lat="48.2368" lon="7.26377">
        <ele>942.8</ele>
        <time>2000-01-01T13:39:15.000Z</time>
      </trkpt>
      <trkpt lat="48.23678" lon="7.26375">
        <ele>943.1</ele>
        <time>2000-01-01T13:39:25.000Z</time>
      </trkpt>
      <trkpt lat="48.23677" lon="7.26373">
        <ele>943.2</ele>
        <time>2000-01-01T13:39:35.000Z</time>
      </trkpt>
      <trkpt lat="48.23675" lon="7.26371">
        <ele>943.5</ele>
        <time>2000-01-01T13:39:45.000Z</time>
      </trkpt>
      <trkpt lat="48.23674" lon="7.2637">
        <ele>943.6</ele>
        <time>2000-01-01T13:39:55.000Z</time>
      </trkpt>
      <trkpt lat="48.23672" lon="7.26371">
        <ele>943.9</ele>
        <time>2000-01-01T13:40:05.000Z</time>
      </trkpt>
      <trkpt lat="48.23665" lon="7.26362">
        <ele>950</ele>
        <time>2000-01-01T13:40:15.000Z</time>
      </trkpt>
      <trkpt lat="48.2366" lon="7.26355">
        <ele>961.8</ele>
        <time>2000-01-01T13:40:25.000Z</time>
      </trkpt>
      <trkpt lat="48.23655" lon="7.26335">
        <ele>953</ele>
        <time>2000-01-01T13:40:35.000Z</time>
      </trkpt>
      <trkpt lat="48.23652" lon="7.26325">
        <ele>960</ele>
        <time>2000-01-01T13:40:45.000Z</time>
      </trkpt>
      <trkpt lat="48.23649" lon="7.26306">
        <ele>952</ele>
        <time>2000-01-01T13:40:55.000Z</time>
      </trkpt>
      <trkpt lat="48.23645" lon="7.26294">
        <ele>960.9</ele>
        <time>2000-01-01T13:41:05.000Z</time>
      </trkpt>
      <trkpt lat="48.23643" lon="7.26277">
        <ele>951</ele>
        <time>2000-01-01T13:41:15.000Z</time>
      </trkpt>
      <trkpt lat="48.2364" lon="7.26262">
        <ele>959.5</ele>
        <time>2000-01-01T13:41:25.000Z</time>
      </trkpt>
      <trkpt lat="48.23639" lon="7.26244">
        <ele>951</ele>
        <time>2000-01-01T13:41:35.000Z</time>
      </trkpt>
      <trkpt lat="48.23638" lon="7.2623">
        <ele>956.1</ele>
        <time>2000-01-01T13:41:45.000Z</time>
      </trkpt>
      <trkpt lat="48.23637" lon="7.26227">
        <ele>956.2</ele>
        <time>2000-01-01T13:41:55.000Z</time>
      </trkpt>
      <trkpt lat="48.23634" lon="7.262">
        <ele>950</ele>
        <time>2000-01-01T13:42:05.000Z</time>
      </trkpt>
      <trkpt lat="48.23633" lon="7.26187">
        <ele>954.9</ele>
        <time>2000-01-01T13:42:15.000Z</time>
      </trkpt>
      <trkpt lat="48.23629" lon="7.26149">
        <ele>950</ele>
        <time>2000-01-01T13:42:25.000Z</time>
      </trkpt>
      <trkpt lat="48.2363" lon="7.26134">
        <ele>951.2</ele>
        <time>2000-01-01T13:42:35.000Z</time>
      </trkpt>
      <trkpt lat="48.23629" lon="7.26105">
        <ele>950</ele>
        <time>2000-01-01T13:42:45.000Z</time>
      </trkpt>
      <trkpt lat="48.23625" lon="7.26077">
        <ele>949</ele>
        <time>2000-01-01T13:42:55.000Z</time>
      </trkpt>
      <trkpt lat="48.23625" lon="7.2605">
        <ele>948</ele>
        <time>2000-01-01T13:43:05.000Z</time>
      </trkpt>
      <trkpt lat="48.23624" lon="7.26021">
        <ele>948</ele>
        <time>2000-01-01T13:43:15.000Z</time>
      </trkpt>
      <trkpt lat="48.23624" lon="7.25998">
        <ele>947.6</ele>
        <time>2000-01-01T13:43:25.000Z</time>
      </trkpt>
      <trkpt lat="48.23617" lon="7.25971">
        <ele>948</ele>
        <time>2000-01-01T13:43:35.000Z</time>
      </trkpt>
      <trkpt lat="48.23617" lon="7.25943">
        <ele>947</ele>
        <time>2000-01-01T13:43:45.000Z</time>
      </trkpt>
      <trkpt lat="48.23617" lon="7.25915">
        <ele>947</ele>
        <time>2000-01-01T13:43:55.000Z</time>
      </trkpt>
      <trkpt lat="48.23615" lon="7.25897">
        <ele>950.4</ele>
        <time>2000-01-01T13:44:05.000Z</time>
      </trkpt>
      <trkpt lat="48.23609" lon="7.25871">
        <ele>948</ele>
        <time>2000-01-01T13:44:15.000Z</time>
      </trkpt>
      <trkpt lat="48.23605" lon="7.25844">
        <ele>948</ele>
        <time>2000-01-01T13:44:25.000Z</time>
      </trkpt>
      <trkpt lat="48.23605" lon="7.25816">
        <ele>948</ele>
        <time>2000-01-01T13:44:35.000Z</time>
      </trkpt>
      <trkpt lat="48.23605" lon="7.25802">
        <ele>954.2</ele>
        <time>2000-01-01T13:44:45.000Z</time>
      </trkpt>
      <trkpt lat="48.2361" lon="7.25775">
        <ele>947</ele>
        <time>2000-01-01T13:44:55.000Z</time>
      </trkpt>
      <trkpt lat="48.23616" lon="7.25747">
        <ele>947</ele>
        <time>2000-01-01T13:45:05.000Z</time>
      </trkpt>
      <trkpt lat="48.23615" lon="7.25734">
        <ele>955.1</ele>
        <time>2000-01-01T13:45:15.000Z</time>
      </trkpt>
      <trkpt lat="48.23624" lon="7.25709">
        <ele>949</ele>
        <time>2000-01-01T13:45:25.000Z</time>
      </trkpt>
      <trkpt lat="48.23627" lon="7.2569">
        <ele>952.4</ele>
        <time>2000-01-01T13:45:35.000Z</time>
      </trkpt>
      <trkpt lat="48.23629" lon="7.25676">
        <ele>949</ele>
        <time>2000-01-01T13:45:45.000Z</time>
      </trkpt>
      <trkpt lat="48.23636" lon="7.25657">
        <ele>951.9</ele>
        <time>2000-01-01T13:45:55.000Z</time>
      </trkpt>
      <trkpt lat="48.23638" lon="7.25652">
        <ele>949</ele>
        <time>2000-01-01T13:46:05.000Z</time>
      </trkpt>
      <trkpt lat="48.23645" lon="7.25625">
        <ele>946</ele>
        <time>2000-01-01T13:46:15.000Z</time>
      </trkpt>
      <trkpt lat="48.23651" lon="7.25604">
        <ele>951.1</ele>
        <time>2000-01-01T13:46:25.000Z</time>
      </trkpt>
      <trkpt lat="48.23657" lon="7.25582">
        <ele>944</ele>
        <time>2000-01-01T13:46:35.000Z</time>
      </trkpt>
      <trkpt lat="48.2366" lon="7.2557">
        <ele>947.4</ele>
        <time>2000-01-01T13:46:45.000Z</time>
      </trkpt>
      <trkpt lat="48.23665" lon="7.25553">
        <ele>939</ele>
        <time>2000-01-01T13:46:55.000Z</time>
      </trkpt>
      <trkpt lat="48.2367" lon="7.25544">
        <ele>928.1</ele>
        <time>2000-01-01T13:47:05.000Z</time>
      </trkpt>
      <trkpt lat="48.23672" lon="7.25531">
        <ele>927.8</ele>
        <time>2000-01-01T13:47:15.000Z</time>
      </trkpt>
      <trkpt lat="48.23671" lon="7.25523">
        <ele>931</ele>
        <time>2000-01-01T13:47:25.000Z</time>
      </trkpt>
      <trkpt lat="48.23672" lon="7.255">
        <ele>931.8</ele>
        <time>2000-01-01T13:47:35.000Z</time>
      </trkpt>
      <trkpt lat="48.23673" lon="7.25488">
        <ele>929</ele>
        <time>2000-01-01T13:47:45.000Z</time>
      </trkpt>
      <trkpt lat="48.23668" lon="7.25472">
        <ele>919.7</ele>
        <time>2000-01-01T13:47:55.000Z</time>
      </trkpt>
      <trkpt lat="48.23663" lon="7.2546">
        <ele>928</ele>
        <time>2000-01-01T13:48:05.000Z</time>
      </trkpt>
      <trkpt lat="48.23657" lon="7.25452">
        <ele>931.2</ele>
        <time>2000-01-01T13:48:15.000Z</time>
      </trkpt>
      <trkpt lat="48.23648" lon="7.2544">
        <ele>925</ele>
        <time>2000-01-01T13:48:25.000Z</time>
      </trkpt>
      <trkpt lat="48.23641" lon="7.25432">
        <ele>929.4</ele>
        <time>2000-01-01T13:48:35.000Z</time>
      </trkpt>
      <trkpt lat="48.23632" lon="7.25421">
        <ele>924</ele>
        <time>2000-01-01T13:48:45.000Z</time>
      </trkpt>
      <trkpt lat="48.2362" lon="7.25407">
        <ele>912.1</ele>
        <time>2000-01-01T13:48:55.000Z</time>
      </trkpt>
      <trkpt lat="48.23613" lon="7.25404">
        <ele>918</ele>
        <time>2000-01-01T13:49:05.000Z</time>
      </trkpt>
      <trkpt lat="48.23604" lon="7.25395">
        <ele>912.7</ele>
        <time>2000-01-01T13:49:15.000Z</time>
      </trkpt>
      <trkpt lat="48.23591" lon="7.25387">
        <ele>911</ele>
        <time>2000-01-01T13:49:25.000Z</time>
      </trkpt>
      <trkpt lat="48.23583" lon="7.25385">
        <ele>918.7</ele>
        <time>2000-01-01T13:49:35.000Z</time>
      </trkpt>
      <trkpt lat="48.23575" lon="7.25383">
        <ele>918.2</ele>
        <time>2000-01-01T13:49:45.000Z</time>
      </trkpt>
      <trkpt lat="48.23568" lon="7.25378">
        <ele>908</ele>
        <time>2000-01-01T13:49:55.000Z</time>
      </trkpt>
      <trkpt lat="48.2356" lon="7.25375">
        <ele>916.5</ele>
        <time>2000-01-01T13:50:05.000Z</time>
      </trkpt>
      <trkpt lat="48.2355" lon="7.25371">
        <ele>908</ele>
        <time>2000-01-01T13:50:15.000Z</time>
      </trkpt>
      <trkpt lat="48.23543" lon="7.25364">
        <ele>915.2</ele>
        <time>2000-01-01T13:50:25.000Z</time>
      </trkpt>
      <trkpt lat="48.23536" lon="7.25359">
        <ele>914.7</ele>
        <time>2000-01-01T13:50:35.000Z</time>
      </trkpt>
      <trkpt lat="48.23526" lon="7.25353">
        <ele>902</ele>
        <time>2000-01-01T13:50:45.000Z</time>
      </trkpt>
      <trkpt lat="48.23517" lon="7.25347">
        <ele>912.4</ele>
        <time>2000-01-01T13:50:55.000Z</time>
      </trkpt>
      <trkpt lat="48.23507" lon="7.2534">
        <ele>900</ele>
        <time>2000-01-01T13:51:05.000Z</time>
      </trkpt>
      <trkpt lat="48.23498" lon="7.25339">
        <ele>912</ele>
        <time>2000-01-01T13:51:15.000Z</time>
      </trkpt>
      <trkpt lat="48.23493" lon="7.25338">
        <ele>914</ele>
        <time>2000-01-01T13:51:25.000Z</time>
      </trkpt>
      <trkpt lat="48.23486" lon="7.25331">
        <ele>900</ele>
        <time>2000-01-01T13:51:35.000Z</time>
      </trkpt>
      <trkpt lat="48.23479" lon="7.25325">
        <ele>907.2</ele>
        <time>2000-01-01T13:51:45.000Z</time>
      </trkpt>
      <trkpt lat="48.23468" lon="7.25308">
        <ele>897</ele>
        <time>2000-01-01T13:51:55.000Z</time>
      </trkpt>
      <trkpt lat="48.23463" lon="7.25302">
        <ele>907.3</ele>
        <time>2000-01-01T13:52:05.000Z</time>
      </trkpt>
      <trkpt lat="48.23452" lon="7.25288">
        <ele>896</ele>
        <time>2000-01-01T13:52:15.000Z</time>
      </trkpt>
      <trkpt lat="48.23446" lon="7.25277">
        <ele>907</ele>
        <time>2000-01-01T13:52:25.000Z</time>
      </trkpt>
      <trkpt lat="48.23438" lon="7.25256">
        <ele>896</ele>
        <time>2000-01-01T13:52:35.000Z</time>
      </trkpt>
      <trkpt lat="48.23429" lon="7.25232">
        <ele>894</ele>
        <time>2000-01-01T13:52:45.000Z</time>
      </trkpt>
      <trkpt lat="48.23425" lon="7.25221">
        <ele>890</ele>
        <time>2000-01-01T13:52:55.000Z</time>
      </trkpt>
      <trkpt lat="48.2342" lon="7.25209">
        <ele>887</ele>
        <time>2000-01-01T13:53:05.000Z</time>
      </trkpt>
      <trkpt lat="48.23418" lon="7.25196">
        <ele>891</ele>
        <time>2000-01-01T13:53:15.000Z</time>
      </trkpt>
      <trkpt lat="48.23415" lon="7.2518">
        <ele>900.3</ele>
        <time>2000-01-01T13:53:25.000Z</time>
      </trkpt>
      <trkpt lat="48.2341" lon="7.25166">
        <ele>883</ele>
        <time>2000-01-01T13:53:35.000Z</time>
      </trkpt>
      <trkpt lat="48.23406" lon="7.25152">
        <ele>893.4</ele>
        <time>2000-01-01T13:53:45.000Z</time>
      </trkpt>
      <trkpt lat="48.23403" lon="7.25141">
        <ele>894.6</ele>
        <time>2000-01-01T13:53:55.000Z</time>
      </trkpt>
      <trkpt lat="48.23399" lon="7.25125">
        <ele>883</ele>
        <time>2000-01-01T13:54:05.000Z</time>
      </trkpt>
      <trkpt lat="48.23397" lon="7.25113">
        <ele>892.5</ele>
        <time>2000-01-01T13:54:15.000Z</time>
      </trkpt>
      <trkpt lat="48.23393" lon="7.25099">
        <ele>881</ele>
        <time>2000-01-01T13:54:25.000Z</time>
      </trkpt>
      <trkpt lat="48.2339" lon="7.25082">
        <ele>881</ele>
        <time>2000-01-01T13:54:35.000Z</time>
      </trkpt>
      <trkpt lat="48.23387" lon="7.25067">
        <ele>879</ele>
        <time>2000-01-01T13:54:45.000Z</time>
      </trkpt>
      <trkpt lat="48.23385" lon="7.25053">
        <ele>882.4</ele>
        <time>2000-01-01T13:54:55.000Z</time>
      </trkpt>
      <trkpt lat="48.23383" lon="7.25042">
        <ele>882.1</ele>
        <time>2000-01-01T13:55:05.000Z</time>
      </trkpt>
      <trkpt lat="48.23378" lon="7.25022">
        <ele>875</ele>
        <time>2000-01-01T13:55:15.000Z</time>
      </trkpt>
      <trkpt lat="48.23374" lon="7.25009">
        <ele>882.5</ele>
        <time>2000-01-01T13:55:25.000Z</time>
      </trkpt>
      <trkpt lat="48.23373" lon="7.24996">
        <ele>868</ele>
        <time>2000-01-01T13:55:35.000Z</time>
      </trkpt>
      <trkpt lat="48.23371" lon="7.2498">
        <ele>873.9</ele>
        <time>2000-01-01T13:55:45.000Z</time>
      </trkpt>
      <trkpt lat="48.23368" lon="7.24967">
        <ele>868</ele>
        <time>2000-01-01T13:55:55.000Z</time>
      </trkpt>
      <trkpt lat="48.23363" lon="7.2493">
        <ele>865</ele>
        <time>2000-01-01T13:56:05.000Z</time>
      </trkpt>
      <trkpt lat="48.23361" lon="7.24919">
        <ele>875.2</ele>
        <time>2000-01-01T13:56:15.000Z</time>
      </trkpt>
      <trkpt lat="48.23358" lon="7.24903">
        <ele>862</ele>
        <time>2000-01-01T13:56:25.000Z</time>
      </trkpt>
      <trkpt lat="48.23355" lon="7.24885">
        <ele>864.8</ele>
        <time>2000-01-01T13:56:35.000Z</time>
      </trkpt>
      <trkpt lat="48.23353" lon="7.2487">
        <ele>862</ele>
        <time>2000-01-01T13:56:45.000Z</time>
      </trkpt>
      <trkpt lat="48.23351" lon="7.24858">
        <ele>864</ele>
        <time>2000-01-01T13:56:55.000Z</time>
      </trkpt>
      <trkpt lat="48.23347" lon="7.24839">
        <ele>862</ele>
        <time>2000-01-01T13:57:05.000Z</time>
      </trkpt>
      <trkpt lat="48.23345" lon="7.24824">
        <ele>862.6</ele>
        <time>2000-01-01T13:57:15.000Z</time>
      </trkpt>
      <trkpt lat="48.23345" lon="7.24808">
        <ele>861</ele>
        <time>2000-01-01T13:57:25.000Z</time>
      </trkpt>
      <trkpt lat="48.23342" lon="7.24788">
        <ele>853.3</ele>
        <time>2000-01-01T13:57:35.000Z</time>
      </trkpt>
      <trkpt lat="48.23339" lon="7.24776">
        <ele>861</ele>
        <time>2000-01-01T13:57:45.000Z</time>
      </trkpt>
      <trkpt lat="48.23338" lon="7.2476">
        <ele>859.6</ele>
        <time>2000-01-01T13:57:55.000Z</time>
      </trkpt>
      <trkpt lat="48.23329" lon="7.24739">
        <ele>861</ele>
        <time>2000-01-01T13:58:05.000Z</time>
      </trkpt>
      <trkpt lat="48.23325" lon="7.24713">
        <ele>859</ele>
        <time>2000-01-01T13:58:15.000Z</time>
      </trkpt>
      <trkpt lat="48.23323" lon="7.24703">
        <ele>876.2</ele>
        <time>2000-01-01T13:58:25.000Z</time>
      </trkpt>
      <trkpt lat="48.23331" lon="7.24678">
        <ele>849</ele>
        <time>2000-01-01T13:58:35.000Z</time>
      </trkpt>
      <trkpt lat="48.23338" lon="7.24666">
        <ele>853.5</ele>
        <time>2000-01-01T13:58:45.000Z</time>
      </trkpt>
      <trkpt lat="48.23343" lon="7.24645">
        <ele>842</ele>
        <time>2000-01-01T13:58:55.000Z</time>
      </trkpt>
      <trkpt lat="48.23345" lon="7.24633">
        <ele>841.2</ele>
        <time>2000-01-01T13:59:05.000Z</time>
      </trkpt>
      <trkpt lat="48.23347" lon="7.24621">
        <ele>840.9</ele>
        <time>2000-01-01T13:59:15.000Z</time>
      </trkpt>
      <trkpt lat="48.23353" lon="7.246">
        <ele>832</ele>
        <time>2000-01-01T13:59:25.000Z</time>
      </trkpt>
      <trkpt lat="48.23354" lon="7.24587">
        <ele>844.6</ele>
        <time>2000-01-01T13:59:35.000Z</time>
      </trkpt>
      <trkpt lat="48.23356" lon="7.24578">
        <ele>844.8</ele>
        <time>2000-01-01T13:59:45.000Z</time>
      </trkpt>
      <trkpt lat="48.2336" lon="7.24568">
        <ele>829</ele>
        <time>2000-01-01T13:59:55.000Z</time>
      </trkpt>
      <trkpt lat="48.23365" lon="7.24552">
        <ele>838.6</ele>
        <time>2000-01-01T14:00:05.000Z</time>
      </trkpt>
      <trkpt lat="48.23369" lon="7.24537">
        <ele>827</ele>
        <time>2000-01-01T14:00:15.000Z</time>
      </trkpt>
      <trkpt lat="48.2337" lon="7.24526">
        <ele>837.3</ele>
        <time>2000-01-01T14:00:25.000Z</time>
      </trkpt>
      <trkpt lat="48.23375" lon="7.24506">
        <ele>826</ele>
        <time>2000-01-01T14:00:35.000Z</time>
      </trkpt>
      <trkpt lat="48.23377" lon="7.24495">
        <ele>834.3</ele>
        <time>2000-01-01T14:00:45.000Z</time>
      </trkpt>
      <trkpt lat="48.2338" lon="7.24484">
        <ele>833</ele>
        <time>2000-01-01T14:00:55.000Z</time>
      </trkpt>
      <trkpt lat="48.23383" lon="7.24467">
        <ele>826</ele>
        <time>2000-01-01T14:01:05.000Z</time>
      </trkpt>
      <trkpt lat="48.23386" lon="7.24451">
        <ele>831.1</ele>
        <time>2000-01-01T14:01:15.000Z</time>
      </trkpt>
      <trkpt lat="48.23388" lon="7.24439">
        <ele>826</ele>
        <time>2000-01-01T14:01:25.000Z</time>
      </trkpt>
      <trkpt lat="48.23389" lon="7.24424">
        <ele>828</ele>
        <time>2000-01-01T14:01:35.000Z</time>
      </trkpt>
      <trkpt lat="48.23387" lon="7.24412">
        <ele>824</ele>
        <time>2000-01-01T14:01:45.000Z</time>
      </trkpt>
      <trkpt lat="48.23384" lon="7.24399">
        <ele>826</ele>
        <time>2000-01-01T14:01:55.000Z</time>
      </trkpt>
      <trkpt lat="48.23382" lon="7.24385">
        <ele>816</ele>
        <time>2000-01-01T14:02:05.000Z</time>
      </trkpt>
      <trkpt lat="48.23378" lon="7.24372">
        <ele>826.8</ele>
        <time>2000-01-01T14:02:15.000Z</time>
      </trkpt>
      <trkpt lat="48.23375" lon="7.2436">
        <ele>826.9</ele>
        <time>2000-01-01T14:02:25.000Z</time>
      </trkpt>
      <trkpt lat="48.23372" lon="7.24345">
        <ele>813</ele>
        <time>2000-01-01T14:02:35.000Z</time>
      </trkpt>
      <trkpt lat="48.23372" lon="7.24334">
        <ele>827</ele>
        <time>2000-01-01T14:02:45.000Z</time>
      </trkpt>
      <trkpt lat="48.23369" lon="7.24321">
        <ele>819.9</ele>
        <time>2000-01-01T14:02:55.000Z</time>
      </trkpt>
      <trkpt lat="48.23367" lon="7.24309">
        <ele>811</ele>
        <time>2000-01-01T14:03:05.000Z</time>
      </trkpt>
      <trkpt lat="48.23366" lon="7.24298">
        <ele>818.3</ele>
        <time>2000-01-01T14:03:15.000Z</time>
      </trkpt>
      <trkpt lat="48.23365" lon="7.24287">
        <ele>817.5</ele>
        <time>2000-01-01T14:03:25.000Z</time>
      </trkpt>
      <trkpt lat="48.23362" lon="7.24272">
        <ele>805</ele>
        <time>2000-01-01T14:03:35.000Z</time>
      </trkpt>
      <trkpt lat="48.23358" lon="7.24255">
        <ele>818.5</ele>
        <time>2000-01-01T14:03:45.000Z</time>
      </trkpt>
      <trkpt lat="48.23355" lon="7.24243">
        <ele>802</ele>
        <time>2000-01-01T14:03:55.000Z</time>
      </trkpt>
      <trkpt lat="48.23351" lon="7.24231">
        <ele>809.2</ele>
        <time>2000-01-01T14:04:05.000Z</time>
      </trkpt>
      <trkpt lat="48.23346" lon="7.24217">
        <ele>801</ele>
        <time>2000-01-01T14:04:15.000Z</time>
      </trkpt>
      <trkpt lat="48.23344" lon="7.24205">
        <ele>805</ele>
        <time>2000-01-01T14:04:25.000Z</time>
      </trkpt>
      <trkpt lat="48.23341" lon="7.24189">
        <ele>795</ele>
        <time>2000-01-01T14:04:35.000Z</time>
      </trkpt>
      <trkpt lat="48.23338" lon="7.24175">
        <ele>806.6</ele>
        <time>2000-01-01T14:04:45.000Z</time>
      </trkpt>
      <trkpt lat="48.23335" lon="7.2416">
        <ele>794</ele>
        <time>2000-01-01T14:04:55.000Z</time>
      </trkpt>
      <trkpt lat="48.23333" lon="7.24148">
        <ele>816.4</ele>
        <time>2000-01-01T14:05:05.000Z</time>
      </trkpt>
      <trkpt lat="48.23332" lon="7.24133">
        <ele>790</ele>
        <time>2000-01-01T14:05:15.000Z</time>
      </trkpt>
      <trkpt lat="48.2333" lon="7.24121">
        <ele>817.2</ele>
        <time>2000-01-01T14:05:25.000Z</time>
      </trkpt>
      <trkpt lat="48.23329" lon="7.2411">
        <ele>815.5</ele>
        <time>2000-01-01T14:05:35.000Z</time>
      </trkpt>
      <trkpt lat="48.23329" lon="7.24096">
        <ele>790</ele>
        <time>2000-01-01T14:05:45.000Z</time>
      </trkpt>
      <trkpt lat="48.2333" lon="7.2408">
        <ele>804.9</ele>
        <time>2000-01-01T14:05:55.000Z</time>
      </trkpt>
      <trkpt lat="48.23332" lon="7.24062">
        <ele>785</ele>
        <time>2000-01-01T14:06:05.000Z</time>
      </trkpt>
      <trkpt lat="48.23331" lon="7.24049">
        <ele>811.7</ele>
        <time>2000-01-01T14:06:15.000Z</time>
      </trkpt>
      <trkpt lat="48.23331" lon="7.24023">
        <ele>782</ele>
        <time>2000-01-01T14:06:25.000Z</time>
      </trkpt>
      <trkpt lat="48.23332" lon="7.2401">
        <ele>803.4</ele>
        <time>2000-01-01T14:06:35.000Z</time>
      </trkpt>
      <trkpt lat="48.23332" lon="7.23996">
        <ele>779</ele>
        <time>2000-01-01T14:06:45.000Z</time>
      </trkpt>
      <trkpt lat="48.23332" lon="7.23984">
        <ele>804.4</ele>
        <time>2000-01-01T14:06:55.000Z</time>
      </trkpt>
      <trkpt lat="48.23333" lon="7.2397">
        <ele>807</ele>
        <time>2000-01-01T14:07:05.000Z</time>
      </trkpt>
      <trkpt lat="48.23336" lon="7.23955">
        <ele>776</ele>
        <time>2000-01-01T14:07:15.000Z</time>
      </trkpt>
      <trkpt lat="48.23336" lon="7.23943">
        <ele>780.5</ele>
        <time>2000-01-01T14:07:25.000Z</time>
      </trkpt>
      <trkpt lat="48.23338" lon="7.23929">
        <ele>776</ele>
        <time>2000-01-01T14:07:35.000Z</time>
      </trkpt>
      <trkpt lat="48.23341" lon="7.23906">
        <ele>782.5</ele>
        <time>2000-01-01T14:07:45.000Z</time>
      </trkpt>
      <trkpt lat="48.23343" lon="7.23893">
        <ele>773</ele>
        <time>2000-01-01T14:07:55.000Z</time>
      </trkpt>
      <trkpt lat="48.23346" lon="7.23881">
        <ele>775.7</ele>
        <time>2000-01-01T14:08:05.000Z</time>
      </trkpt>
      <trkpt lat="48.23345" lon="7.23867">
        <ele>776</ele>
        <time>2000-01-01T14:08:15.000Z</time>
      </trkpt>
      <trkpt lat="48.23345" lon="7.23859">
        <ele>770</ele>
        <time>2000-01-01T14:08:25.000Z</time>
      </trkpt>
      <trkpt lat="48.23345" lon="7.23845">
        <ele>780.5</ele>
        <time>2000-01-01T14:08:35.000Z</time>
      </trkpt>
      <trkpt lat="48.23349" lon="7.23833">
        <ele>770</ele>
        <time>2000-01-01T14:08:45.000Z</time>
      </trkpt>
      <trkpt lat="48.23354" lon="7.23817">
        <ele>773.2</ele>
        <time>2000-01-01T14:08:55.000Z</time>
      </trkpt>
      <trkpt lat="48.23356" lon="7.23802">
        <ele>761</ele>
        <time>2000-01-01T14:09:05.000Z</time>
      </trkpt>
      <trkpt lat="48.23358" lon="7.23788">
        <ele>768.6</ele>
        <time>2000-01-01T14:09:15.000Z</time>
      </trkpt>
      <trkpt lat="48.23359" lon="7.23775">
        <ele>761</ele>
        <time>2000-01-01T14:09:25.000Z</time>
      </trkpt>
      <trkpt lat="48.2336" lon="7.23755">
        <ele>769.5</ele>
        <time>2000-01-01T14:09:35.000Z</time>
      </trkpt>
      <trkpt lat="48.23359" lon="7.23736">
        <ele>760</ele>
        <time>2000-01-01T14:09:45.000Z</time>
      </trkpt>
      <trkpt lat="48.23358" lon="7.23722">
        <ele>763.5</ele>
        <time>2000-01-01T14:09:55.000Z</time>
      </trkpt>
      <trkpt lat="48.23353" lon="7.23696">
        <ele>757</ele>
        <time>2000-01-01T14:10:05.000Z</time>
      </trkpt>
      <trkpt lat="48.2335" lon="7.23666">
        <ele>755</ele>
        <time>2000-01-01T14:10:15.000Z</time>
      </trkpt>
      <trkpt lat="48.23349" lon="7.23643">
        <ele>760</ele>
        <time>2000-01-01T14:10:25.000Z</time>
      </trkpt>
      <trkpt lat="48.23344" lon="7.23605">
        <ele>755</ele>
        <time>2000-01-01T14:10:35.000Z</time>
      </trkpt>
      <trkpt lat="48.23339" lon="7.23575">
        <ele>755</ele>
        <time>2000-01-01T14:10:45.000Z</time>
      </trkpt>
      <trkpt lat="48.23334" lon="7.23562">
        <ele>754.7</ele>
        <time>2000-01-01T14:10:55.000Z</time>
      </trkpt>
      <trkpt lat="48.23323" lon="7.23538">
        <ele>751</ele>
        <time>2000-01-01T14:11:05.000Z</time>
      </trkpt>
      <trkpt lat="48.23318" lon="7.23529">
        <ele>765.1</ele>
        <time>2000-01-01T14:11:15.000Z</time>
      </trkpt>
      <trkpt lat="48.23304" lon="7.23509">
        <ele>751</ele>
        <time>2000-01-01T14:11:25.000Z</time>
      </trkpt>
      <trkpt lat="48.23295" lon="7.235">
        <ele>765.7</ele>
        <time>2000-01-01T14:11:35.000Z</time>
      </trkpt>
      <trkpt lat="48.23276" lon="7.23491">
        <ele>751</ele>
        <time>2000-01-01T14:11:45.000Z</time>
      </trkpt>
      <trkpt lat="48.23269" lon="7.23486">
        <ele>758.7</ele>
        <time>2000-01-01T14:11:55.000Z</time>
      </trkpt>
      <trkpt lat="48.23252" lon="7.23476">
        <ele>747</ele>
        <time>2000-01-01T14:12:05.000Z</time>
      </trkpt>
      <trkpt lat="48.23235" lon="7.23466">
        <ele>746</ele>
        <time>2000-01-01T14:12:15.000Z</time>
      </trkpt>
      <trkpt lat="48.23217" lon="7.23462">
        <ele>758.4</ele>
        <time>2000-01-01T14:12:25.000Z</time>
      </trkpt>
      <trkpt lat="48.23209" lon="7.23459">
        <ele>745</ele>
        <time>2000-01-01T14:12:35.000Z</time>
      </trkpt>
      <trkpt lat="48.23185" lon="7.23465">
        <ele>745</ele>
        <time>2000-01-01T14:12:45.000Z</time>
      </trkpt>
      <trkpt lat="48.23167" lon="7.23472">
        <ele>744</ele>
        <time>2000-01-01T14:12:55.000Z</time>
      </trkpt>
      <trkpt lat="48.2315" lon="7.23471">
        <ele>759.2</ele>
        <time>2000-01-01T14:13:05.000Z</time>
      </trkpt>
      <trkpt lat="48.23136" lon="7.23473">
        <ele>743</ele>
        <time>2000-01-01T14:13:15.000Z</time>
      </trkpt>
      <trkpt lat="48.23117" lon="7.23476">
        <ele>743</ele>
        <time>2000-01-01T14:13:25.000Z</time>
      </trkpt>
      <trkpt lat="48.23094" lon="7.23481">
        <ele>743</ele>
        <time>2000-01-01T14:13:35.000Z</time>
      </trkpt>
      <trkpt lat="48.23075" lon="7.23482">
        <ele>741</ele>
        <time>2000-01-01T14:13:45.000Z</time>
      </trkpt>
      <trkpt lat="48.23066" lon="7.23484">
        <ele>755.1</ele>
        <time>2000-01-01T14:13:55.000Z</time>
      </trkpt>
      <trkpt lat="48.23054" lon="7.23485">
        <ele>740</ele>
        <time>2000-01-01T14:14:05.000Z</time>
      </trkpt>
      <trkpt lat="48.23035" lon="7.23479">
        <ele>739</ele>
        <time>2000-01-01T14:14:15.000Z</time>
      </trkpt>
      <trkpt lat="48.23028" lon="7.23476">
        <ele>752.2</ele>
        <time>2000-01-01T14:14:25.000Z</time>
      </trkpt>
      <trkpt lat="48.2301" lon="7.23486">
        <ele>739</ele>
        <time>2000-01-01T14:14:35.000Z</time>
      </trkpt>
      <trkpt lat="48.23004" lon="7.23489">
        <ele>753.5</ele>
        <time>2000-01-01T14:14:45.000Z</time>
      </trkpt>
      <trkpt lat="48.22997" lon="7.23492">
        <ele>753.5</ele>
        <time>2000-01-01T14:14:55.000Z</time>
      </trkpt>
      <trkpt lat="48.22984" lon="7.23492">
        <ele>739</ele>
        <time>2000-01-01T14:15:05.000Z</time>
      </trkpt>
      <trkpt lat="48.22973" lon="7.23495">
        <ele>751.9</ele>
        <time>2000-01-01T14:15:15.000Z</time>
      </trkpt>
      <trkpt lat="48.22953" lon="7.23499">
        <ele>737</ele>
        <time>2000-01-01T14:15:25.000Z</time>
      </trkpt>
      <trkpt lat="48.22934" lon="7.23519">
        <ele>737</ele>
        <time>2000-01-01T14:15:35.000Z</time>
      </trkpt>
      <trkpt lat="48.22932" lon="7.23529">
        <ele>754.5</ele>
        <time>2000-01-01T14:15:45.000Z</time>
      </trkpt>
      <trkpt lat="48.22931" lon="7.23538">
        <ele>754.7</ele>
        <time>2000-01-01T14:15:55.000Z</time>
      </trkpt>
      <trkpt lat="48.22933" lon="7.23542">
        <ele>754.8</ele>
        <time>2000-01-01T14:16:05.000Z</time>
      </trkpt>
      <trkpt lat="48.22938" lon="7.23552">
        <ele>740</ele>
        <time>2000-01-01T14:16:15.000Z</time>
      </trkpt>
      <trkpt lat="48.22942" lon="7.23561">
        <ele>755.5</ele>
        <time>2000-01-01T14:16:25.000Z</time>
      </trkpt>
      <trkpt lat="48.22947" lon="7.23566">
        <ele>756</ele>
        <time>2000-01-01T14:16:35.000Z</time>
      </trkpt>
      <trkpt lat="48.2295" lon="7.2357">
        <ele>756.4</ele>
        <time>2000-01-01T14:16:45.000Z</time>
      </trkpt>
      <trkpt lat="48.22951" lon="7.23576">
        <ele>745</ele>
        <time>2000-01-01T14:16:55.000Z</time>
      </trkpt>
      <trkpt lat="48.22953" lon="7.23583">
        <ele>757</ele>
        <time>2000-01-01T14:17:05.000Z</time>
      </trkpt>
      <trkpt lat="48.22956" lon="7.23592">
        <ele>759.6</ele>
        <time>2000-01-01T14:17:15.000Z</time>
      </trkpt>
      <trkpt lat="48.22959" lon="7.23596">
        <ele>760.1</ele>
        <time>2000-01-01T14:17:25.000Z</time>
      </trkpt>
      <trkpt lat="48.22961" lon="7.23597">
        <ele>760.5</ele>
        <time>2000-01-01T14:17:35.000Z</time>
      </trkpt>
      <trkpt lat="48.22963" lon="7.236">
        <ele>750</ele>
        <time>2000-01-01T14:17:45.000Z</time>
      </trkpt>
      <trkpt lat="48.22967" lon="7.23604">
        <ele>761.5</ele>
        <time>2000-01-01T14:17:55.000Z</time>
      </trkpt>
      <trkpt lat="48.2297" lon="7.23609">
        <ele>761.9</ele>
        <time>2000-01-01T14:18:05.000Z</time>
      </trkpt>
      <trkpt lat="48.22972" lon="7.23612">
        <ele>762.1</ele>
        <time>2000-01-01T14:18:15.000Z</time>
      </trkpt>
      <trkpt lat="48.22974" lon="7.23616">
        <ele>762.4</ele>
        <time>2000-01-01T14:18:25.000Z</time>
      </trkpt>
      <trkpt lat="48.22976" lon="7.23622">
        <ele>752</ele>
        <time>2000-01-01T14:18:35.000Z</time>
      </trkpt>
      <trkpt lat="48.22982" lon="7.2363">
        <ele>763.9</ele>
        <time>2000-01-01T14:18:45.000Z</time>
      </trkpt>
      <trkpt lat="48.22982" lon="7.23631">
        <ele>764</ele>
        <time>2000-01-01T14:18:55.000Z</time>
      </trkpt>
      <trkpt lat="48.22986" lon="7.23634">
        <ele>764.8</ele>
        <time>2000-01-01T14:19:05.000Z</time>
      </trkpt>
      <trkpt lat="48.22988" lon="7.23639">
        <ele>765.7</ele>
        <time>2000-01-01T14:19:15.000Z</time>
      </trkpt>
      <trkpt lat="48.22989" lon="7.23642">
        <ele>755</ele>
        <time>2000-01-01T14:19:25.000Z</time>
      </trkpt>
      <trkpt lat="48.22989" lon="7.23643">
        <ele>766.5</ele>
        <time>2000-01-01T14:19:35.000Z</time>
      </trkpt>
      <trkpt lat="48.22996" lon="7.23654">
        <ele>770.6</ele>
        <time>2000-01-01T14:19:45.000Z</time>
      </trkpt>
      <trkpt lat="48.23002" lon="7.23659">
        <ele>779.8</ele>
        <time>2000-01-01T14:19:55.000Z</time>
      </trkpt>
      <trkpt lat="48.23007" lon="7.23667">
        <ele>764</ele>
        <time>2000-01-01T14:20:05.000Z</time>
      </trkpt>
      <trkpt lat="48.23009" lon="7.2367">
        <ele>783.1</ele>
        <time>2000-01-01T14:20:15.000Z</time>
      </trkpt>
      <trkpt lat="48.23011" lon="7.23675">
        <ele>784.7</ele>
        <time>2000-01-01T14:20:25.000Z</time>
      </trkpt>
      <trkpt lat="48.23012" lon="7.23678">
        <ele>785.6</ele>
        <time>2000-01-01T14:20:35.000Z</time>
      </trkpt>
      <trkpt lat="48.23013" lon="7.23678">
        <ele>785.8</ele>
        <time>2000-01-01T14:20:45.000Z</time>
      </trkpt>
      <trkpt lat="48.23014" lon="7.23682">
        <ele>786.8</ele>
        <time>2000-01-01T14:20:55.000Z</time>
      </trkpt>
      <trkpt lat="48.23016" lon="7.23685">
        <ele>787.7</ele>
        <time>2000-01-01T14:21:05.000Z</time>
      </trkpt>
      <trkpt lat="48.23024" lon="7.23694">
        <ele>772</ele>
        <time>2000-01-01T14:21:15.000Z</time>
      </trkpt>
      <trkpt lat="48.23028" lon="7.23699">
        <ele>791.2</ele>
        <time>2000-01-01T14:21:25.000Z</time>
      </trkpt>
      <trkpt lat="48.23033" lon="7.23705">
        <ele>792.3</ele>
        <time>2000-01-01T14:21:35.000Z</time>
      </trkpt>
      <trkpt lat="48.23035" lon="7.2371">
        <ele>792.9</ele>
        <time>2000-01-01T14:21:45.000Z</time>
      </trkpt>
      <trkpt lat="48.23041" lon="7.23718">
        <ele>778</ele>
        <time>2000-01-01T14:21:55.000Z</time>
      </trkpt>
      <trkpt lat="48.23044" lon="7.23722">
        <ele>795</ele>
        <time>2000-01-01T14:22:05.000Z</time>
      </trkpt>
      <trkpt lat="48.23046" lon="7.23725">
        <ele>795.5</ele>
        <time>2000-01-01T14:22:15.000Z</time>
      </trkpt>
      <trkpt lat="48.23048" lon="7.23727">
        <ele>796.1</ele>
        <time>2000-01-01T14:22:25.000Z</time>
      </trkpt>
      <trkpt lat="48.23049" lon="7.23728">
        <ele>796.4</ele>
        <time>2000-01-01T14:22:35.000Z</time>
      </trkpt>
      <trkpt lat="48.23052" lon="7.23731">
        <ele>797.3</ele>
        <time>2000-01-01T14:22:45.000Z</time>
      </trkpt>
      <trkpt lat="48.23055" lon="7.23734">
        <ele>798.4</ele>
        <time>2000-01-01T14:22:55.000Z</time>
      </trkpt>
      <trkpt lat="48.23056" lon="7.2374">
        <ele>782</ele>
        <time>2000-01-01T14:23:05.000Z</time>
      </trkpt>
      <trkpt lat="48.2306" lon="7.23749">
        <ele>801.2</ele>
        <time>2000-01-01T14:23:15.000Z</time>
      </trkpt>
      <trkpt lat="48.2306" lon="7.23752">
        <ele>802.8</ele>
        <time>2000-01-01T14:23:25.000Z</time>
      </trkpt>
      <trkpt lat="48.23064" lon="7.23756">
        <ele>804.1</ele>
        <time>2000-01-01T14:23:35.000Z</time>
      </trkpt>
      <trkpt lat="48.23065" lon="7.23766">
        <ele>786</ele>
        <time>2000-01-01T14:23:45.000Z</time>
      </trkpt>
      <trkpt lat="48.23068" lon="7.23769">
        <ele>803.5</ele>
        <time>2000-01-01T14:23:55.000Z</time>
      </trkpt>
      <trkpt lat="48.23069" lon="7.23771">
        <ele>803.4</ele>
        <time>2000-01-01T14:24:05.000Z</time>
      </trkpt>
      <trkpt lat="48.23069" lon="7.23772">
        <ele>803.3</ele>
        <time>2000-01-01T14:24:15.000Z</time>
      </trkpt>
      <trkpt lat="48.23072" lon="7.23777">
        <ele>803.1</ele>
        <time>2000-01-01T14:24:25.000Z</time>
      </trkpt>
      <trkpt lat="48.23074" lon="7.23778">
        <ele>803.3</ele>
        <time>2000-01-01T14:24:35.000Z</time>
      </trkpt>
      <trkpt lat="48.23074" lon="7.23779">
        <ele>803.2</ele>
        <time>2000-01-01T14:24:45.000Z</time>
      </trkpt>
      <trkpt lat="48.23073" lon="7.23793">
        <ele>789</ele>
        <time>2000-01-01T14:24:55.000Z</time>
      </trkpt>
      <trkpt lat="48.23074" lon="7.23796">
        <ele>802.5</ele>
        <time>2000-01-01T14:25:05.000Z</time>
      </trkpt>
      <trkpt lat="48.23074" lon="7.23798">
        <ele>802.6</ele>
        <time>2000-01-01T14:25:15.000Z</time>
      </trkpt>
      <trkpt lat="48.23077" lon="7.23802">
        <ele>803.1</ele>
        <time>2000-01-01T14:25:25.000Z</time>
      </trkpt>
      <trkpt lat="48.23078" lon="7.23806">
        <ele>803.6</ele>
        <time>2000-01-01T14:25:35.000Z</time>
      </trkpt>
      <trkpt lat="48.23081" lon="7.23808">
        <ele>804.2</ele>
        <time>2000-01-01T14:25:45.000Z</time>
      </trkpt>
      <trkpt lat="48.23083" lon="7.23807">
        <ele>804.2</ele>
        <time>2000-01-01T14:25:55.000Z</time>
      </trkpt>
      <trkpt lat="48.23083" lon="7.23808">
        <ele>804.3</ele>
        <time>2000-01-01T14:26:05.000Z</time>
      </trkpt>
      <trkpt lat="48.23083" lon="7.23808">
        <ele>804.3</ele>
        <time>2000-01-01T14:26:15.000Z</time>
      </trkpt>
      <trkpt lat="48.23087" lon="7.23818">
        <ele>794</ele>
        <time>2000-01-01T14:26:25.000Z</time>
      </trkpt>
      <trkpt lat="48.23087" lon="7.23819">
        <ele>818.9</ele>
        <time>2000-01-01T14:26:35.000Z</time>
      </trkpt>
      <trkpt lat="48.2309" lon="7.23827">
        <ele>817.3</ele>
        <time>2000-01-01T14:26:45.000Z</time>
      </trkpt>
      <trkpt lat="48.23092" lon="7.23832">
        <ele>817.2</ele>
        <time>2000-01-01T14:26:55.000Z</time>
      </trkpt>
      <trkpt lat="48.23095" lon="7.23835">
        <ele>818.5</ele>
        <time>2000-01-01T14:27:05.000Z</time>
      </trkpt>
      <trkpt lat="48.23098" lon="7.23848">
        <ele>797</ele>
        <time>2000-01-01T14:27:15.000Z</time>
      </trkpt>
      <trkpt lat="48.23097" lon="7.23851">
        <ele>821.2</ele>
        <time>2000-01-01T14:27:25.000Z</time>
      </trkpt>
      <trkpt lat="48.23098" lon="7.23854">
        <ele>821.8</ele>
        <time>2000-01-01T14:27:35.000Z</time>
      </trkpt>
      <trkpt lat="48.23099" lon="7.23856">
        <ele>822.2</ele>
        <time>2000-01-01T14:27:45.000Z</time>
      </trkpt>
      <trkpt lat="48.23101" lon="7.23856">
        <ele>822.5</ele>
        <time>2000-01-01T14:27:55.000Z</time>
      </trkpt>
      <trkpt lat="48.23104" lon="7.23863">
        <ele>823.5</ele>
        <time>2000-01-01T14:28:05.000Z</time>
      </trkpt>
      <trkpt lat="48.23102" lon="7.2387">
        <ele>801</ele>
        <time>2000-01-01T14:28:15.000Z</time>
      </trkpt>
      <trkpt lat="48.23106" lon="7.23887">
        <ele>823.8</ele>
        <time>2000-01-01T14:28:25.000Z</time>
      </trkpt>
      <trkpt lat="48.23108" lon="7.23897">
        <ele>802</ele>
        <time>2000-01-01T14:28:35.000Z</time>
      </trkpt>
      <trkpt lat="48.23111" lon="7.23909">
        <ele>823.7</ele>
        <time>2000-01-01T14:28:45.000Z</time>
      </trkpt>
      <trkpt lat="48.23116" lon="7.23916">
        <ele>824.7</ele>
        <time>2000-01-01T14:28:55.000Z</time>
      </trkpt>
      <trkpt lat="48.23118" lon="7.23923">
        <ele>807</ele>
        <time>2000-01-01T14:29:05.000Z</time>
      </trkpt>
      <trkpt lat="48.23118" lon="7.2393">
        <ele>826.5</ele>
        <time>2000-01-01T14:29:15.000Z</time>
      </trkpt>
      <trkpt lat="48.23121" lon="7.23942">
        <ele>827.5</ele>
        <time>2000-01-01T14:29:25.000Z</time>
      </trkpt>
      <trkpt lat="48.23121" lon="7.23948">
        <ele>827.7</ele>
        <time>2000-01-01T14:29:35.000Z</time>
      </trkpt>
      <trkpt lat="48.23125" lon="7.23963">
        <ele>809</ele>
        <time>2000-01-01T14:29:45.000Z</time>
      </trkpt>
      <trkpt lat="48.23128" lon="7.23978">
        <ele>829.4</ele>
        <time>2000-01-01T14:29:55.000Z</time>
      </trkpt>
      <trkpt lat="48.23133" lon="7.23984">
        <ele>830.2</ele>
        <time>2000-01-01T14:30:05.000Z</time>
      </trkpt>
      <trkpt lat="48.23133" lon="7.23991">
        <ele>811</ele>
        <time>2000-01-01T14:30:15.000Z</time>
      </trkpt>
      <trkpt lat="48.23137" lon="7.24004">
        <ele>834.2</ele>
        <time>2000-01-01T14:30:25.000Z</time>
      </trkpt>
      <trkpt lat="48.23137" lon="7.24008">
        <ele>834.3</ele>
        <time>2000-01-01T14:30:35.000Z</time>
      </trkpt>
      <trkpt lat="48.2314" lon="7.24021">
        <ele>815</ele>
        <time>2000-01-01T14:30:45.000Z</time>
      </trkpt>
      <trkpt lat="48.23142" lon="7.24046">
        <ele>835.2</ele>
        <time>2000-01-01T14:30:55.000Z</time>
      </trkpt>
      <trkpt lat="48.23141" lon="7.24057">
        <ele>817</ele>
        <time>2000-01-01T14:31:05.000Z</time>
      </trkpt>
      <trkpt lat="48.2314" lon="7.2406">
        <ele>835.7</ele>
        <time>2000-01-01T14:31:15.000Z</time>
      </trkpt>
      <trkpt lat="48.23134" lon="7.24072">
        <ele>835.7</ele>
        <time>2000-01-01T14:31:25.000Z</time>
      </trkpt>
      <trkpt lat="48.23125" lon="7.2408">
        <ele>817</ele>
        <time>2000-01-01T14:31:35.000Z</time>
      </trkpt>
      <trkpt lat="48.23122" lon="7.24086">
        <ele>840.8</ele>
        <time>2000-01-01T14:31:45.000Z</time>
      </trkpt>
      <trkpt lat="48.23118" lon="7.24095">
        <ele>840.8</ele>
        <time>2000-01-01T14:31:55.000Z</time>
      </trkpt>
      <trkpt lat="48.23115" lon="7.24101">
        <ele>841</ele>
        <time>2000-01-01T14:32:05.000Z</time>
      </trkpt>
      <trkpt lat="48.23109" lon="7.24107">
        <ele>820</ele>
        <time>2000-01-01T14:32:15.000Z</time>
      </trkpt>
      <trkpt lat="48.23107" lon="7.24109">
        <ele>841</ele>
        <time>2000-01-01T14:32:25.000Z</time>
      </trkpt>
      <trkpt lat="48.231" lon="7.24117">
        <ele>841.6</ele>
        <time>2000-01-01T14:32:35.000Z</time>
      </trkpt>
      <trkpt lat="48.23098" lon="7.24122">
        <ele>842.1</ele>
        <time>2000-01-01T14:32:45.000Z</time>
      </trkpt>
      <trkpt lat="48.23091" lon="7.24125">
        <ele>821</ele>
        <time>2000-01-01T14:32:55.000Z</time>
      </trkpt>
      <trkpt lat="48.23077" lon="7.24125">
        <ele>838.5</ele>
        <time>2000-01-01T14:33:05.000Z</time>
      </trkpt>
      <trkpt lat="48.23075" lon="7.24125">
        <ele>838.5</ele>
        <time>2000-01-01T14:33:15.000Z</time>
      </trkpt>
      <trkpt lat="48.23064" lon="7.24121">
        <ele>820</ele>
        <time>2000-01-01T14:33:25.000Z</time>
      </trkpt>
      <trkpt lat="48.23056" lon="7.2412">
        <ele>837.6</ele>
        <time>2000-01-01T14:33:35.000Z</time>
      </trkpt>
      <trkpt lat="48.23049" lon="7.2412">
        <ele>837.4</ele>
        <time>2000-01-01T14:33:45.000Z</time>
      </trkpt>
      <trkpt lat="48.23036" lon="7.24113">
        <ele>819</ele>
        <time>2000-01-01T14:33:55.000Z</time>
      </trkpt>
      <trkpt lat="48.23028" lon="7.24109">
        <ele>835.6</ele>
        <time>2000-01-01T14:34:05.000Z</time>
      </trkpt>
      <trkpt lat="48.23018" lon="7.24105">
        <ele>816</ele>
        <time>2000-01-01T14:34:15.000Z</time>
      </trkpt>
      <trkpt lat="48.23004" lon="7.24099">
        <ele>832.2</ele>
        <time>2000-01-01T14:34:25.000Z</time>
      </trkpt>
      <trkpt lat="48.22985" lon="7.24093">
        <ele>813</ele>
        <time>2000-01-01T14:34:35.000Z</time>
      </trkpt>
      <trkpt lat="48.22972" lon="7.24088">
        <ele>830.4</ele>
        <time>2000-01-01T14:34:45.000Z</time>
      </trkpt>
      <trkpt lat="48.22962" lon="7.24084">
        <ele>809</ele>
        <time>2000-01-01T14:34:55.000Z</time>
      </trkpt>
      <trkpt lat="48.22955" lon="7.24085">
        <ele>830</ele>
        <time>2000-01-01T14:35:05.000Z</time>
      </trkpt>
      <trkpt lat="48.22947" lon="7.24082">
        <ele>817.6</ele>
        <time>2000-01-01T14:35:15.000Z</time>
      </trkpt>
      <trkpt lat="48.22935" lon="7.24082">
        <ele>806</ele>
        <time>2000-01-01T14:35:25.000Z</time>
      </trkpt>
      <trkpt lat="48.22917" lon="7.24077">
        <ele>802</ele>
        <time>2000-01-01T14:35:35.000Z</time>
      </trkpt>
      <trkpt lat="48.22909" lon="7.24076">
        <ele>817.1</ele>
        <time>2000-01-01T14:35:45.000Z</time>
      </trkpt>
      <trkpt lat="48.22897" lon="7.24077">
        <ele>801</ele>
        <time>2000-01-01T14:35:55.000Z</time>
      </trkpt>
      <trkpt lat="48.22887" lon="7.24076">
        <ele>812.7</ele>
        <time>2000-01-01T14:36:05.000Z</time>
      </trkpt>
      <trkpt lat="48.22877" lon="7.24069">
        <ele>798</ele>
        <time>2000-01-01T14:36:15.000Z</time>
      </trkpt>
      <trkpt lat="48.22862" lon="7.24064">
        <ele>810.3</ele>
        <time>2000-01-01T14:36:25.000Z</time>
      </trkpt>
      <trkpt lat="48.22858" lon="7.24063">
        <ele>797</ele>
        <time>2000-01-01T14:36:35.000Z</time>
      </trkpt>
      <trkpt lat="48.22844" lon="7.24058">
        <ele>809.8</ele>
        <time>2000-01-01T14:36:45.000Z</time>
      </trkpt>
      <trkpt lat="48.22836" lon="7.24055">
        <ele>793</ele>
        <time>2000-01-01T14:36:55.000Z</time>
      </trkpt>
      <trkpt lat="48.22826" lon="7.24053">
        <ele>806.4</ele>
        <time>2000-01-01T14:37:05.000Z</time>
      </trkpt>
      <trkpt lat="48.22816" lon="7.24051">
        <ele>792</ele>
        <time>2000-01-01T14:37:15.000Z</time>
      </trkpt>
      <trkpt lat="48.22807" lon="7.24051">
        <ele>805.4</ele>
        <time>2000-01-01T14:37:25.000Z</time>
      </trkpt>
      <trkpt lat="48.22791" lon="7.24047">
        <ele>789</ele>
        <time>2000-01-01T14:37:35.000Z</time>
      </trkpt>
      <trkpt lat="48.22784" lon="7.24043">
        <ele>803.8</ele>
        <time>2000-01-01T14:37:45.000Z</time>
      </trkpt>
      <trkpt lat="48.22773" lon="7.24039">
        <ele>787</ele>
        <time>2000-01-01T14:37:55.000Z</time>
      </trkpt>
      <trkpt lat="48.22761" lon="7.24037">
        <ele>802.4</ele>
        <time>2000-01-01T14:38:05.000Z</time>
      </trkpt>
      <trkpt lat="48.22753" lon="7.24036">
        <ele>786</ele>
        <time>2000-01-01T14:38:15.000Z</time>
      </trkpt>
      <trkpt lat="48.22745" lon="7.24035">
        <ele>799.2</ele>
        <time>2000-01-01T14:38:25.000Z</time>
      </trkpt>
      <trkpt lat="48.22731" lon="7.24035">
        <ele>784</ele>
        <time>2000-01-01T14:38:35.000Z</time>
      </trkpt>
      <trkpt lat="48.22721" lon="7.24032">
        <ele>798.5</ele>
        <time>2000-01-01T14:38:45.000Z</time>
      </trkpt>
      <trkpt lat="48.22711" lon="7.2403">
        <ele>778</ele>
        <time>2000-01-01T14:38:55.000Z</time>
      </trkpt>
      <trkpt lat="48.22695" lon="7.24025">
        <ele>796.5</ele>
        <time>2000-01-01T14:39:05.000Z</time>
      </trkpt>
      <trkpt lat="48.22683" lon="7.2402">
        <ele>774</ele>
        <time>2000-01-01T14:39:15.000Z</time>
      </trkpt>
      <trkpt lat="48.22673" lon="7.24017">
        <ele>792.6</ele>
        <time>2000-01-01T14:39:25.000Z</time>
      </trkpt>
      <trkpt lat="48.22661" lon="7.24013">
        <ele>773</ele>
        <time>2000-01-01T14:39:35.000Z</time>
      </trkpt>
      <trkpt lat="48.22651" lon="7.24011">
        <ele>790.3</ele>
        <time>2000-01-01T14:39:45.000Z</time>
      </trkpt>
      <trkpt lat="48.22636" lon="7.24007">
        <ele>770</ele>
        <time>2000-01-01T14:39:55.000Z</time>
      </trkpt>
      <trkpt lat="48.22624" lon="7.24004">
        <ele>791</ele>
        <time>2000-01-01T14:40:05.000Z</time>
      </trkpt>
      <trkpt lat="48.22615" lon="7.24002">
        <ele>768</ele>
        <time>2000-01-01T14:40:15.000Z</time>
      </trkpt>
      <trkpt lat="48.22608" lon="7.23999">
        <ele>776.9</ele>
        <time>2000-01-01T14:40:25.000Z</time>
      </trkpt>
      <trkpt lat="48.22596" lon="7.23995">
        <ele>765</ele>
        <time>2000-01-01T14:40:35.000Z</time>
      </trkpt>
      <trkpt lat="48.22588" lon="7.23994">
        <ele>779.4</ele>
        <time>2000-01-01T14:40:45.000Z</time>
      </trkpt>
      <trkpt lat="48.22576" lon="7.23993">
        <ele>763</ele>
        <time>2000-01-01T14:40:55.000Z</time>
      </trkpt>
      <trkpt lat="48.2256" lon="7.23993">
        <ele>773.4</ele>
        <time>2000-01-01T14:41:05.000Z</time>
      </trkpt>
      <trkpt lat="48.22547" lon="7.23991">
        <ele>761</ele>
        <time>2000-01-01T14:41:15.000Z</time>
      </trkpt>
      <trkpt lat="48.22537" lon="7.23985">
        <ele>770.6</ele>
        <time>2000-01-01T14:41:25.000Z</time>
      </trkpt>
      <trkpt lat="48.22527" lon="7.23979">
        <ele>757</ele>
        <time>2000-01-01T14:41:35.000Z</time>
      </trkpt>
      <trkpt lat="48.22517" lon="7.23974">
        <ele>769.4</ele>
        <time>2000-01-01T14:41:45.000Z</time>
      </trkpt>
      <trkpt lat="48.22511" lon="7.2397">
        <ele>752</ele>
        <time>2000-01-01T14:41:55.000Z</time>
      </trkpt>
      <trkpt lat="48.225" lon="7.23965">
        <ele>767.7</ele>
        <time>2000-01-01T14:42:05.000Z</time>
      </trkpt>
      <trkpt lat="48.22489" lon="7.23964">
        <ele>750</ele>
        <time>2000-01-01T14:42:15.000Z</time>
      </trkpt>
      <trkpt lat="48.22479" lon="7.23963">
        <ele>763.2</ele>
        <time>2000-01-01T14:42:25.000Z</time>
      </trkpt>
      <trkpt lat="48.22469" lon="7.23967">
        <ele>749</ele>
        <time>2000-01-01T14:42:35.000Z</time>
      </trkpt>
      <trkpt lat="48.22458" lon="7.23969">
        <ele>763.2</ele>
        <time>2000-01-01T14:42:45.000Z</time>
      </trkpt>
      <trkpt lat="48.22451" lon="7.2397">
        <ele>763.1</ele>
        <time>2000-01-01T14:42:55.000Z</time>
      </trkpt>
      <trkpt lat="48.2244" lon="7.23968">
        <ele>746</ele>
        <time>2000-01-01T14:43:05.000Z</time>
      </trkpt>
      <trkpt lat="48.22431" lon="7.23968">
        <ele>762.6</ele>
        <time>2000-01-01T14:43:15.000Z</time>
      </trkpt>
      <trkpt lat="48.22419" lon="7.23964">
        <ele>744</ele>
        <time>2000-01-01T14:43:25.000Z</time>
      </trkpt>
      <trkpt lat="48.22409" lon="7.23961">
        <ele>757.9</ele>
        <time>2000-01-01T14:43:35.000Z</time>
      </trkpt>
      <trkpt lat="48.22401" lon="7.23961">
        <ele>743</ele>
        <time>2000-01-01T14:43:45.000Z</time>
      </trkpt>
      <trkpt lat="48.22392" lon="7.2396">
        <ele>757.2</ele>
        <time>2000-01-01T14:43:55.000Z</time>
      </trkpt>
      <trkpt lat="48.22375" lon="7.23959">
        <ele>739</ele>
        <time>2000-01-01T14:44:05.000Z</time>
      </trkpt>
      <trkpt lat="48.22363" lon="7.23955">
        <ele>755.7</ele>
        <time>2000-01-01T14:44:15.000Z</time>
      </trkpt>
      <trkpt lat="48.22352" lon="7.23951">
        <ele>738</ele>
        <time>2000-01-01T14:44:25.000Z</time>
      </trkpt>
      <trkpt lat="48.22342" lon="7.2395">
        <ele>754</ele>
        <time>2000-01-01T14:44:35.000Z</time>
      </trkpt>
      <trkpt lat="48.2233" lon="7.2395">
        <ele>734</ele>
        <time>2000-01-01T14:44:45.000Z</time>
      </trkpt>
      <trkpt lat="48.22319" lon="7.23948">
        <ele>749.3</ele>
        <time>2000-01-01T14:44:55.000Z</time>
      </trkpt>
      <trkpt lat="48.22305" lon="7.23949">
        <ele>731</ele>
        <time>2000-01-01T14:45:05.000Z</time>
      </trkpt>
      <trkpt lat="48.22297" lon="7.23948">
        <ele>748.7</ele>
        <time>2000-01-01T14:45:15.000Z</time>
      </trkpt>
      <trkpt lat="48.22286" lon="7.23947">
        <ele>729</ele>
        <time>2000-01-01T14:45:25.000Z</time>
      </trkpt>
      <trkpt lat="48.22273" lon="7.2395">
        <ele>747.6</ele>
        <time>2000-01-01T14:45:35.000Z</time>
      </trkpt>
      <trkpt lat="48.22263" lon="7.23951">
        <ele>729</ele>
        <time>2000-01-01T14:45:45.000Z</time>
      </trkpt>
      <trkpt lat="48.22254" lon="7.23954">
        <ele>747.4</ele>
        <time>2000-01-01T14:45:55.000Z</time>
      </trkpt>
      <trkpt lat="48.22233" lon="7.23959">
        <ele>726</ele>
        <time>2000-01-01T14:46:05.000Z</time>
      </trkpt>
      <trkpt lat="48.22212" lon="7.23963">
        <ele>725</ele>
        <time>2000-01-01T14:46:15.000Z</time>
      </trkpt>
      <trkpt lat="48.22197" lon="7.23969">
        <ele>739.7</ele>
        <time>2000-01-01T14:46:25.000Z</time>
      </trkpt>
      <trkpt lat="48.22184" lon="7.23973">
        <ele>723</ele>
        <time>2000-01-01T14:46:35.000Z</time>
      </trkpt>
      <trkpt lat="48.22163" lon="7.23977">
        <ele>720</ele>
        <time>2000-01-01T14:46:45.000Z</time>
      </trkpt>
      <trkpt lat="48.22144" lon="7.23984">
        <ele>720</ele>
        <time>2000-01-01T14:46:55.000Z</time>
      </trkpt>
      <trkpt lat="48.22131" lon="7.23992">
        <ele>729.6</ele>
        <time>2000-01-01T14:47:05.000Z</time>
      </trkpt>
      <trkpt lat="48.22112" lon="7.24004">
        <ele>719</ele>
        <time>2000-01-01T14:47:15.000Z</time>
      </trkpt>
      <trkpt lat="48.22103" lon="7.24012">
        <ele>738.2</ele>
        <time>2000-01-01T14:47:25.000Z</time>
      </trkpt>
      <trkpt lat="48.22095" lon="7.24017">
        <ele>716</ele>
        <time>2000-01-01T14:47:35.000Z</time>
      </trkpt>
      <trkpt lat="48.22077" lon="7.2403">
        <ele>714</ele>
        <time>2000-01-01T14:47:45.000Z</time>
      </trkpt>
      <trkpt lat="48.22065" lon="7.24037">
        <ele>730.7</ele>
        <time>2000-01-01T14:47:55.000Z</time>
      </trkpt>
      <trkpt lat="48.22051" lon="7.24042">
        <ele>712</ele>
        <time>2000-01-01T14:48:05.000Z</time>
      </trkpt>
      <trkpt lat="48.22036" lon="7.24051">
        <ele>729.9</ele>
        <time>2000-01-01T14:48:15.000Z</time>
      </trkpt>
      <trkpt lat="48.22025" lon="7.24058">
        <ele>710</ele>
        <time>2000-01-01T14:48:25.000Z</time>
      </trkpt>
      <trkpt lat="48.22014" lon="7.24061">
        <ele>729.6</ele>
        <time>2000-01-01T14:48:35.000Z</time>
      </trkpt>
      <trkpt lat="48.22001" lon="7.24063">
        <ele>709</ele>
        <time>2000-01-01T14:48:45.000Z</time>
      </trkpt>
      <trkpt lat="48.21988" lon="7.24069">
        <ele>722.7</ele>
        <time>2000-01-01T14:48:55.000Z</time>
      </trkpt>
      <trkpt lat="48.21972" lon="7.24077">
        <ele>707</ele>
        <time>2000-01-01T14:49:05.000Z</time>
      </trkpt>
      <trkpt lat="48.21956" lon="7.2409">
        <ele>706</ele>
        <time>2000-01-01T14:49:15.000Z</time>
      </trkpt>
      <trkpt lat="48.21946" lon="7.24098">
        <ele>728.6</ele>
        <time>2000-01-01T14:49:25.000Z</time>
      </trkpt>
      <trkpt lat="48.21942" lon="7.24103">
        <ele>728.5</ele>
        <time>2000-01-01T14:49:35.000Z</time>
      </trkpt>
      <trkpt lat="48.21934" lon="7.24109">
        <ele>703</ele>
        <time>2000-01-01T14:49:45.000Z</time>
      </trkpt>
      <trkpt lat="48.21925" lon="7.24112">
        <ele>727.9</ele>
        <time>2000-01-01T14:49:55.000Z</time>
      </trkpt>
      <trkpt lat="48.21909" lon="7.2412">
        <ele>702</ele>
        <time>2000-01-01T14:50:05.000Z</time>
      </trkpt>
      <trkpt lat="48.21899" lon="7.24125">
        <ele>717.1</ele>
        <time>2000-01-01T14:50:15.000Z</time>
      </trkpt>
      <trkpt lat="48.21887" lon="7.24136">
        <ele>698</ele>
        <time>2000-01-01T14:50:25.000Z</time>
      </trkpt>
      <trkpt lat="48.21878" lon="7.2414">
        <ele>716.5</ele>
        <time>2000-01-01T14:50:35.000Z</time>
      </trkpt>
      <trkpt lat="48.21865" lon="7.24146">
        <ele>695</ele>
        <time>2000-01-01T14:50:45.000Z</time>
      </trkpt>
      <trkpt lat="48.21852" lon="7.24154">
        <ele>714.3</ele>
        <time>2000-01-01T14:50:55.000Z</time>
      </trkpt>
      <trkpt lat="48.21838" lon="7.24163">
        <ele>692</ele>
        <time>2000-01-01T14:51:05.000Z</time>
      </trkpt>
      <trkpt lat="48.21831" lon="7.24172">
        <ele>712.3</ele>
        <time>2000-01-01T14:51:15.000Z</time>
      </trkpt>
      <trkpt lat="48.21825" lon="7.24178">
        <ele>711.6</ele>
        <time>2000-01-01T14:51:25.000Z</time>
      </trkpt>
      <trkpt lat="48.21813" lon="7.24188">
        <ele>692</ele>
        <time>2000-01-01T14:51:35.000Z</time>
      </trkpt>
      <trkpt lat="48.21803" lon="7.24194">
        <ele>709.8</ele>
        <time>2000-01-01T14:51:45.000Z</time>
      </trkpt>
      <trkpt lat="48.21793" lon="7.242">
        <ele>687</ele>
        <time>2000-01-01T14:51:55.000Z</time>
      </trkpt>
      <trkpt lat="48.21782" lon="7.24207">
        <ele>708.1</ele>
        <time>2000-01-01T14:52:05.000Z</time>
      </trkpt>
      <trkpt lat="48.21772" lon="7.2421">
        <ele>685</ele>
        <time>2000-01-01T14:52:15.000Z</time>
      </trkpt>
      <trkpt lat="48.21762" lon="7.24217">
        <ele>707</ele>
        <time>2000-01-01T14:52:25.000Z</time>
      </trkpt>
      <trkpt lat="48.21751" lon="7.24224">
        <ele>683</ele>
        <time>2000-01-01T14:52:35.000Z</time>
      </trkpt>
      <trkpt lat="48.21742" lon="7.24229">
        <ele>696.4</ele>
        <time>2000-01-01T14:52:45.000Z</time>
      </trkpt>
      <trkpt lat="48.21736" lon="7.24232">
        <ele>696.2</ele>
        <time>2000-01-01T14:52:55.000Z</time>
      </trkpt>
      <trkpt lat="48.21726" lon="7.24244">
        <ele>680</ele>
        <time>2000-01-01T14:53:05.000Z</time>
      </trkpt>
      <trkpt lat="48.21717" lon="7.24248">
        <ele>694</ele>
        <time>2000-01-01T14:53:15.000Z</time>
      </trkpt>
      <trkpt lat="48.21707" lon="7.24249">
        <ele>675</ele>
        <time>2000-01-01T14:53:25.000Z</time>
      </trkpt>
      <trkpt lat="48.2169" lon="7.2426">
        <ele>699.1</ele>
        <time>2000-01-01T14:53:35.000Z</time>
      </trkpt>
      <trkpt lat="48.21683" lon="7.24263">
        <ele>674</ele>
        <time>2000-01-01T14:53:45.000Z</time>
      </trkpt>
      <trkpt lat="48.2168" lon="7.24263">
        <ele>697.3</ele>
        <time>2000-01-01T14:53:55.000Z</time>
      </trkpt>
      <trkpt lat="48.2166" lon="7.24249">
        <ele>670</ele>
        <time>2000-01-01T14:54:05.000Z</time>
      </trkpt>
      <trkpt lat="48.21649" lon="7.24259">
        <ele>687.6</ele>
        <time>2000-01-01T14:54:15.000Z</time>
      </trkpt>
      <trkpt lat="48.21636" lon="7.2427">
        <ele>667</ele>
        <time>2000-01-01T14:54:25.000Z</time>
      </trkpt>
      <trkpt lat="48.21628" lon="7.24279">
        <ele>686.3</ele>
        <time>2000-01-01T14:54:35.000Z</time>
      </trkpt>
      <trkpt lat="48.21619" lon="7.24292">
        <ele>666</ele>
        <time>2000-01-01T14:54:45.000Z</time>
      </trkpt>
      <trkpt lat="48.21614" lon="7.243">
        <ele>686.1</ele>
        <time>2000-01-01T14:54:55.000Z</time>
      </trkpt>
      <trkpt lat="48.21605" lon="7.24314">
        <ele>666</ele>
        <time>2000-01-01T14:55:05.000Z</time>
      </trkpt>
      <trkpt lat="48.21602" lon="7.24322">
        <ele>685.2</ele>
        <time>2000-01-01T14:55:15.000Z</time>
      </trkpt>
      <trkpt lat="48.21598" lon="7.24338">
        <ele>688.7</ele>
        <time>2000-01-01T14:55:25.000Z</time>
      </trkpt>
      <trkpt lat="48.21598" lon="7.24348">
        <ele>667</ele>
        <time>2000-01-01T14:55:35.000Z</time>
      </trkpt>
      <trkpt lat="48.216" lon="7.24358">
        <ele>692</ele>
        <time>2000-01-01T14:55:45.000Z</time>
      </trkpt>
      <trkpt lat="48.21599" lon="7.24368">
        <ele>693</ele>
        <time>2000-01-01T14:55:55.000Z</time>
      </trkpt>
      <trkpt lat="48.21598" lon="7.2437">
        <ele>693.1</ele>
        <time>2000-01-01T14:56:05.000Z</time>
      </trkpt>
      <trkpt lat="48.21595" lon="7.2438">
        <ele>670</ele>
        <time>2000-01-01T14:56:15.000Z</time>
      </trkpt>
      <trkpt lat="48.21594" lon="7.24396">
        <ele>693.4</ele>
        <time>2000-01-01T14:56:25.000Z</time>
      </trkpt>
      <trkpt lat="48.21593" lon="7.24402">
        <ele>692.9</ele>
        <time>2000-01-01T14:56:35.000Z</time>
      </trkpt>
      <trkpt lat="48.2159" lon="7.2442">
        <ele>673</ele>
        <time>2000-01-01T14:56:45.000Z</time>
      </trkpt>
      <trkpt lat="48.21589" lon="7.24431">
        <ele>697.1</ele>
        <time>2000-01-01T14:56:55.000Z</time>
      </trkpt>
      <trkpt lat="48.21588" lon="7.24451">
        <ele>679</ele>
        <time>2000-01-01T14:57:05.000Z</time>
      </trkpt>
      <trkpt lat="48.21585" lon="7.24461">
        <ele>702.3</ele>
        <time>2000-01-01T14:57:15.000Z</time>
      </trkpt>
      <trkpt lat="48.21585" lon="7.2447">
        <ele>702.6</ele>
        <time>2000-01-01T14:57:25.000Z</time>
      </trkpt>
      <trkpt lat="48.21583" lon="7.24479">
        <ele>681</ele>
        <time>2000-01-01T14:57:35.000Z</time>
      </trkpt>
      <trkpt lat="48.21584" lon="7.24486">
        <ele>701.5</ele>
        <time>2000-01-01T14:57:45.000Z</time>
      </trkpt>
      <trkpt lat="48.21584" lon="7.24491">
        <ele>700.6</ele>
        <time>2000-01-01T14:57:55.000Z</time>
      </trkpt>
      <trkpt lat="48.21584" lon="7.24494">
        <ele>699.9</ele>
        <time>2000-01-01T14:58:05.000Z</time>
      </trkpt>
      <trkpt lat="48.21584" lon="7.245">
        <ele>698.5</ele>
        <time>2000-01-01T14:58:15.000Z</time>
      </trkpt>
      <trkpt lat="48.21585" lon="7.24514">
        <ele>687</ele>
        <time>2000-01-01T14:58:25.000Z</time>
      </trkpt>
      <trkpt lat="48.21584" lon="7.24521">
        <ele>708.1</ele>
        <time>2000-01-01T14:58:35.000Z</time>
      </trkpt>
      <trkpt lat="48.21585" lon="7.24541">
        <ele>689</ele>
        <time>2000-01-01T14:58:45.000Z</time>
      </trkpt>
      <trkpt lat="48.21586" lon="7.24546">
        <ele>711.7</ele>
        <time>2000-01-01T14:58:55.000Z</time>
      </trkpt>
      <trkpt lat="48.21585" lon="7.24558">
        <ele>711.3</ele>
        <time>2000-01-01T14:59:05.000Z</time>
      </trkpt>
      <trkpt lat="48.21587" lon="7.24578">
        <ele>693</ele>
        <time>2000-01-01T14:59:15.000Z</time>
      </trkpt>
      <trkpt lat="48.21586" lon="7.24585">
        <ele>706.5</ele>
        <time>2000-01-01T14:59:25.000Z</time>
      </trkpt>
      <trkpt lat="48.21581" lon="7.24606">
        <ele>693</ele>
        <time>2000-01-01T14:59:35.000Z</time>
      </trkpt>
      <trkpt lat="48.21581" lon="7.2461">
        <ele>695.8</ele>
        <time>2000-01-01T14:59:45.000Z</time>
      </trkpt>
      <trkpt lat="48.21578" lon="7.24628">
        <ele>694.9</ele>
        <time>2000-01-01T14:59:55.000Z</time>
      </trkpt>
      <trkpt lat="48.21575" lon="7.24648">
        <ele>693</ele>
        <time>2000-01-01T15:00:05.000Z</time>
      </trkpt>
      <trkpt lat="48.21577" lon="7.24663">
        <ele>701.7</ele>
        <time>2000-01-01T15:00:15.000Z</time>
      </trkpt>
      <trkpt lat="48.21578" lon="7.24671">
        <ele>702.6</ele>
        <time>2000-01-01T15:00:25.000Z</time>
      </trkpt>
      <trkpt lat="48.21578" lon="7.24699">
        <ele>696</ele>
        <time>2000-01-01T15:00:35.000Z</time>
      </trkpt>
      <trkpt lat="48.21579" lon="7.24705">
        <ele>697.7</ele>
        <time>2000-01-01T15:00:45.000Z</time>
      </trkpt>
      <trkpt lat="48.21576" lon="7.24717">
        <ele>698</ele>
        <time>2000-01-01T15:00:55.000Z</time>
      </trkpt>
      <trkpt lat="48.21575" lon="7.24736">
        <ele>696</ele>
        <time>2000-01-01T15:01:05.000Z</time>
      </trkpt>
      <trkpt lat="48.21575" lon="7.24737">
        <ele>701.5</ele>
        <time>2000-01-01T15:01:15.000Z</time>
      </trkpt>
      <trkpt lat="48.21573" lon="7.24753">
        <ele>703.9</ele>
        <time>2000-01-01T15:01:25.000Z</time>
      </trkpt>
      <trkpt lat="48.21574" lon="7.24758">
        <ele>703.5</ele>
        <time>2000-01-01T15:01:35.000Z</time>
      </trkpt>
      <trkpt lat="48.21577" lon="7.24776">
        <ele>697</ele>
        <time>2000-01-01T15:01:45.000Z</time>
      </trkpt>
      <trkpt lat="48.21586" lon="7.24805">
        <ele>699</ele>
        <time>2000-01-01T15:01:55.000Z</time>
      </trkpt>
      <trkpt lat="48.2159" lon="7.24816">
        <ele>718.8</ele>
        <time>2000-01-01T15:02:05.000Z</time>
      </trkpt>
      <trkpt lat="48.21592" lon="7.24843">
        <ele>699</ele>
        <time>2000-01-01T15:02:15.000Z</time>
      </trkpt>
      <trkpt lat="48.21597" lon="7.2487">
        <ele>700</ele>
        <time>2000-01-01T15:02:25.000Z</time>
      </trkpt>
      <trkpt lat="48.21602" lon="7.24891">
        <ele>720.1</ele>
        <time>2000-01-01T15:02:35.000Z</time>
      </trkpt>
      <trkpt lat="48.21601" lon="7.24899">
        <ele>698</ele>
        <time>2000-01-01T15:02:45.000Z</time>
      </trkpt>
      <trkpt lat="48.21598" lon="7.24905">
        <ele>717.3</ele>
        <time>2000-01-01T15:02:55.000Z</time>
      </trkpt>
      <trkpt lat="48.216" lon="7.24919">
        <ele>712.9</ele>
        <time>2000-01-01T15:03:05.000Z</time>
      </trkpt>
      <trkpt lat="48.21607" lon="7.24931">
        <ele>699</ele>
        <time>2000-01-01T15:03:15.000Z</time>
      </trkpt>
      <trkpt lat="48.21622" lon="7.2495">
        <ele>699</ele>
        <time>2000-01-01T15:03:25.000Z</time>
      </trkpt>
      <trkpt lat="48.21624" lon="7.24951">
        <ele>716.1</ele>
        <time>2000-01-01T15:03:35.000Z</time>
      </trkpt>
      <trkpt lat="48.21638" lon="7.24972">
        <ele>700</ele>
        <time>2000-01-01T15:03:45.000Z</time>
      </trkpt>
      <trkpt lat="48.21644" lon="7.24983">
        <ele>717.1</ele>
        <time>2000-01-01T15:03:55.000Z</time>
      </trkpt>
      <trkpt lat="48.21651" lon="7.24993">
        <ele>702</ele>
        <time>2000-01-01T15:04:05.000Z</time>
      </trkpt>
      <trkpt lat="48.21665" lon="7.25007">
        <ele>716.4</ele>
        <time>2000-01-01T15:04:15.000Z</time>
      </trkpt>
      <trkpt lat="48.21673" lon="7.25011">
        <ele>702</ele>
        <time>2000-01-01T15:04:25.000Z</time>
      </trkpt>
      <trkpt lat="48.21689" lon="7.2502">
        <ele>722.7</ele>
        <time>2000-01-01T15:04:35.000Z</time>
      </trkpt>
      <trkpt lat="48.21693" lon="7.25022">
        <ele>704</ele>
        <time>2000-01-01T15:04:45.000Z</time>
      </trkpt>
      <trkpt lat="48.21703" lon="7.25026">
        <ele>723.9</ele>
        <time>2000-01-01T15:04:55.000Z</time>
      </trkpt>
      <trkpt lat="48.21722" lon="7.25036">
        <ele>705</ele>
        <time>2000-01-01T15:05:05.000Z</time>
      </trkpt>
      <trkpt lat="48.21735" lon="7.25036">
        <ele>726.8</ele>
        <time>2000-01-01T15:05:15.000Z</time>
      </trkpt>
      <trkpt lat="48.2174" lon="7.25037">
        <ele>727</ele>
        <time>2000-01-01T15:05:25.000Z</time>
      </trkpt>
      <trkpt lat="48.21745" lon="7.25039">
        <ele>706</ele>
        <time>2000-01-01T15:05:35.000Z</time>
      </trkpt>
      <trkpt lat="48.21747" lon="7.2504">
        <ele>726.7</ele>
        <time>2000-01-01T15:05:45.000Z</time>
      </trkpt>
      <trkpt lat="48.21754" lon="7.25045">
        <ele>735.3</ele>
        <time>2000-01-01T15:05:55.000Z</time>
      </trkpt>
      <trkpt lat="48.21762" lon="7.25051">
        <ele>707</ele>
        <time>2000-01-01T15:06:05.000Z</time>
      </trkpt>
      <trkpt lat="48.21774" lon="7.2505">
        <ele>735.4</ele>
        <time>2000-01-01T15:06:15.000Z</time>
      </trkpt>
      <trkpt lat="48.2178" lon="7.25051">
        <ele>706</ele>
        <time>2000-01-01T15:06:25.000Z</time>
      </trkpt>
      <trkpt lat="48.21785" lon="7.25059">
        <ele>734.8</ele>
        <time>2000-01-01T15:06:35.000Z</time>
      </trkpt>
      <trkpt lat="48.21796" lon="7.25066">
        <ele>706</ele>
        <time>2000-01-01T15:06:45.000Z</time>
      </trkpt>
      <trkpt lat="48.21807" lon="7.25071">
        <ele>734.2</ele>
        <time>2000-01-01T15:06:55.000Z</time>
      </trkpt>
      <trkpt lat="48.21814" lon="7.25076">
        <ele>702</ele>
        <time>2000-01-01T15:07:05.000Z</time>
      </trkpt>
      <trkpt lat="48.2183" lon="7.25091">
        <ele>699</ele>
        <time>2000-01-01T15:07:15.000Z</time>
      </trkpt>
      <trkpt lat="48.21838" lon="7.25098">
        <ele>721.6</ele>
        <time>2000-01-01T15:07:25.000Z</time>
      </trkpt>
      <trkpt lat="48.21859" lon="7.2511">
        <ele>696</ele>
        <time>2000-01-01T15:07:35.000Z</time>
      </trkpt>
      <trkpt lat="48.21868" lon="7.25118">
        <ele>715.8</ele>
        <time>2000-01-01T15:07:45.000Z</time>
      </trkpt>
      <trkpt lat="48.21876" lon="7.25124">
        <ele>694</ele>
        <time>2000-01-01T15:07:55.000Z</time>
      </trkpt>
      <trkpt lat="48.2189" lon="7.25132">
        <ele>713.8</ele>
        <time>2000-01-01T15:08:05.000Z</time>
      </trkpt>
      <trkpt lat="48.21895" lon="7.25137">
        <ele>693</ele>
        <time>2000-01-01T15:08:15.000Z</time>
      </trkpt>
      <trkpt lat="48.219" lon="7.25141">
        <ele>711.9</ele>
        <time>2000-01-01T15:08:25.000Z</time>
      </trkpt>
      <trkpt lat="48.21909" lon="7.25144">
        <ele>710.8</ele>
        <time>2000-01-01T15:08:35.000Z</time>
      </trkpt>
      <trkpt lat="48.21919" lon="7.2515">
        <ele>692</ele>
        <time>2000-01-01T15:08:45.000Z</time>
      </trkpt>
      <trkpt lat="48.21927" lon="7.25157">
        <ele>709.3</ele>
        <time>2000-01-01T15:08:55.000Z</time>
      </trkpt>
      <trkpt lat="48.21941" lon="7.2516">
        <ele>692</ele>
        <time>2000-01-01T15:09:05.000Z</time>
      </trkpt>
      <trkpt lat="48.21948" lon="7.25165">
        <ele>712.1</ele>
        <time>2000-01-01T15:09:15.000Z</time>
      </trkpt>
      <trkpt lat="48.21955" lon="7.25169">
        <ele>694.4</ele>
        <time>2000-01-01T15:09:25.000Z</time>
      </trkpt>
      <trkpt lat="48.21963" lon="7.25173">
        <ele>686</ele>
        <time>2000-01-01T15:09:35.000Z</time>
      </trkpt>
      <trkpt lat="48.21972" lon="7.25174">
        <ele>695.1</ele>
        <time>2000-01-01T15:09:45.000Z</time>
      </trkpt>
      <trkpt lat="48.21983" lon="7.25177">
        <ele>685</ele>
        <time>2000-01-01T15:09:55.000Z</time>
      </trkpt>
      <trkpt lat="48.2199" lon="7.25182">
        <ele>696.8</ele>
        <time>2000-01-01T15:10:05.000Z</time>
      </trkpt>
      <trkpt lat="48.21999" lon="7.25189">
        <ele>694.8</ele>
        <time>2000-01-01T15:10:15.000Z</time>
      </trkpt>
      <trkpt lat="48.22006" lon="7.25191">
        <ele>678</ele>
        <time>2000-01-01T15:10:25.000Z</time>
      </trkpt>
      <trkpt lat="48.22018" lon="7.25195">
        <ele>685.9</ele>
        <time>2000-01-01T15:10:35.000Z</time>
      </trkpt>
      <trkpt lat="48.2203" lon="7.25197">
        <ele>677</ele>
        <time>2000-01-01T15:10:45.000Z</time>
      </trkpt>
      <trkpt lat="48.22037" lon="7.25199">
        <ele>682.3</ele>
        <time>2000-01-01T15:10:55.000Z</time>
      </trkpt>
      <trkpt lat="48.22049" lon="7.25204">
        <ele>673</ele>
        <time>2000-01-01T15:11:05.000Z</time>
      </trkpt>
      <trkpt lat="48.22066" lon="7.25207">
        <ele>678.2</ele>
        <time>2000-01-01T15:11:15.000Z</time>
      </trkpt>
      <trkpt lat="48.22074" lon="7.25206">
        <ele>669</ele>
        <time>2000-01-01T15:11:25.000Z</time>
      </trkpt>
      <trkpt lat="48.22082" lon="7.25204">
        <ele>678.4</ele>
        <time>2000-01-01T15:11:35.000Z</time>
      </trkpt>
      <trkpt lat="48.22102" lon="7.25197">
        <ele>662</ele>
        <time>2000-01-01T15:11:45.000Z</time>
      </trkpt>
      <trkpt lat="48.22112" lon="7.2519">
        <ele>665.9</ele>
        <time>2000-01-01T15:11:55.000Z</time>
      </trkpt>
      <trkpt lat="48.22116" lon="7.25191">
        <ele>664.7</ele>
        <time>2000-01-01T15:12:05.000Z</time>
      </trkpt>
      <trkpt lat="48.22124" lon="7.2519">
        <ele>658</ele>
        <time>2000-01-01T15:12:15.000Z</time>
      </trkpt>
      <trkpt lat="48.22128" lon="7.25188">
        <ele>662.9</ele>
        <time>2000-01-01T15:12:25.000Z</time>
      </trkpt>
      <trkpt lat="48.22139" lon="7.25184">
        <ele>661.9</ele>
        <time>2000-01-01T15:12:35.000Z</time>
      </trkpt>
      <trkpt lat="48.22147" lon="7.25181">
        <ele>656</ele>
        <time>2000-01-01T15:12:45.000Z</time>
      </trkpt>
      <trkpt lat="48.22157" lon="7.25179">
        <ele>661.6</ele>
        <time>2000-01-01T15:12:55.000Z</time>
      </trkpt>
      <trkpt lat="48.22165" lon="7.25179">
        <ele>654</ele>
        <time>2000-01-01T15:13:05.000Z</time>
      </trkpt>
      <trkpt lat="48.22177" lon="7.25179">
        <ele>652.1</ele>
        <time>2000-01-01T15:13:15.000Z</time>
      </trkpt>
      <trkpt lat="48.2219" lon="7.25179">
        <ele>647</ele>
        <time>2000-01-01T15:13:25.000Z</time>
      </trkpt>
      <trkpt lat="48.22202" lon="7.25183">
        <ele>644.5</ele>
        <time>2000-01-01T15:13:35.000Z</time>
      </trkpt>
      <trkpt lat="48.22213" lon="7.25183">
        <ele>640</ele>
        <time>2000-01-01T15:13:45.000Z</time>
      </trkpt>
      <trkpt lat="48.22223" lon="7.25186">
        <ele>641.9</ele>
        <time>2000-01-01T15:13:55.000Z</time>
      </trkpt>
      <trkpt lat="48.22239" lon="7.25185">
        <ele>638</ele>
        <time>2000-01-01T15:14:05.000Z</time>
      </trkpt>
      <trkpt lat="48.22248" lon="7.25185">
        <ele>641.9</ele>
        <time>2000-01-01T15:14:15.000Z</time>
      </trkpt>
      <trkpt lat="48.22254" lon="7.25187">
        <ele>637.2</ele>
        <time>2000-01-01T15:14:25.000Z</time>
      </trkpt>
      <trkpt lat="48.22264" lon="7.25187">
        <ele>634</ele>
        <time>2000-01-01T15:14:35.000Z</time>
      </trkpt>
      <trkpt lat="48.22271" lon="7.25187">
        <ele>635.4</ele>
        <time>2000-01-01T15:14:45.000Z</time>
      </trkpt>
      <trkpt lat="48.22288" lon="7.25185">
        <ele>634</ele>
        <time>2000-01-01T15:14:55.000Z</time>
      </trkpt>
      <trkpt lat="48.22305" lon="7.25175">
        <ele>634</ele>
        <time>2000-01-01T15:15:05.000Z</time>
      </trkpt>
      <trkpt lat="48.22326" lon="7.2517">
        <ele>634</ele>
        <time>2000-01-01T15:15:15.000Z</time>
      </trkpt>
      <trkpt lat="48.22336" lon="7.25169">
        <ele>634.6</ele>
        <time>2000-01-01T15:15:25.000Z</time>
      </trkpt>
      <trkpt lat="48.2235" lon="7.25166">
        <ele>632</ele>
        <time>2000-01-01T15:15:35.000Z</time>
      </trkpt>
      <trkpt lat="48.22369" lon="7.25158">
        <ele>632</ele>
        <time>2000-01-01T15:15:45.000Z</time>
      </trkpt>
      <trkpt lat="48.22385" lon="7.25145">
        <ele>631</ele>
        <time>2000-01-01T15:15:55.000Z</time>
      </trkpt>
      <trkpt lat="48.2239" lon="7.25144">
        <ele>644.1</ele>
        <time>2000-01-01T15:16:05.000Z</time>
      </trkpt>
      <trkpt lat="48.22394" lon="7.25157">
        <ele>643</ele>
        <time>2000-01-01T15:16:15.000Z</time>
      </trkpt>
      <trkpt lat="48.22389" lon="7.25167">
        <ele>629</ele>
        <time>2000-01-01T15:16:25.000Z</time>
      </trkpt>
      <trkpt lat="48.22381" lon="7.25177">
        <ele>638.9</ele>
        <time>2000-01-01T15:16:35.000Z</time>
      </trkpt>
      <trkpt lat="48.22372" lon="7.25184">
        <ele>626</ele>
        <time>2000-01-01T15:16:45.000Z</time>
      </trkpt>
      <trkpt lat="48.22365" lon="7.25191">
        <ele>638</ele>
        <time>2000-01-01T15:16:55.000Z</time>
      </trkpt>
      <trkpt lat="48.22352" lon="7.25204">
        <ele>622</ele>
        <time>2000-01-01T15:17:05.000Z</time>
      </trkpt>
      <trkpt lat="48.22347" lon="7.25208">
        <ele>636.6</ele>
        <time>2000-01-01T15:17:15.000Z</time>
      </trkpt>
      <trkpt lat="48.22334" lon="7.25217">
        <ele>620</ele>
        <time>2000-01-01T15:17:25.000Z</time>
      </trkpt>
      <trkpt lat="48.22327" lon="7.25225">
        <ele>629.8</ele>
        <time>2000-01-01T15:17:35.000Z</time>
      </trkpt>
      <trkpt lat="48.2232" lon="7.25234">
        <ele>629.1</ele>
        <time>2000-01-01T15:17:45.000Z</time>
      </trkpt>
      <trkpt lat="48.22312" lon="7.25257">
        <ele>616</ele>
        <time>2000-01-01T15:17:55.000Z</time>
      </trkpt>
      <trkpt lat="48.22297" lon="7.25272">
        <ele>616</ele>
        <time>2000-01-01T15:18:05.000Z</time>
      </trkpt>
      <trkpt lat="48.22283" lon="7.2529">
        <ele>616</ele>
        <time>2000-01-01T15:18:15.000Z</time>
      </trkpt>
      <trkpt lat="48.22262" lon="7.25313">
        <ele>615</ele>
        <time>2000-01-01T15:18:25.000Z</time>
      </trkpt>
      <trkpt lat="48.22247" lon="7.25328">
        <ele>615</ele>
        <time>2000-01-01T15:18:35.000Z</time>
      </trkpt>
      <trkpt lat="48.22232" lon="7.25346">
        <ele>614</ele>
        <time>2000-01-01T15:18:45.000Z</time>
      </trkpt>
      <trkpt lat="48.22219" lon="7.25365">
        <ele>616</ele>
        <time>2000-01-01T15:18:55.000Z</time>
      </trkpt>
      <trkpt lat="48.22209" lon="7.25381">
        <ele>624.7</ele>
        <time>2000-01-01T15:19:05.000Z</time>
      </trkpt>
      <trkpt lat="48.22202" lon="7.25407">
        <ele>619</ele>
        <time>2000-01-01T15:19:15.000Z</time>
      </trkpt>
      <trkpt lat="48.222" lon="7.25427">
        <ele>637</ele>
        <time>2000-01-01T15:19:25.000Z</time>
      </trkpt>
      <trkpt lat="48.22191" lon="7.25445">
        <ele>620</ele>
        <time>2000-01-01T15:19:35.000Z</time>
      </trkpt>
      <trkpt lat="48.2219" lon="7.25451">
        <ele>638.3</ele>
        <time>2000-01-01T15:19:45.000Z</time>
      </trkpt>
      <trkpt lat="48.22178" lon="7.25466">
        <ele>620</ele>
        <time>2000-01-01T15:19:55.000Z</time>
      </trkpt>
      <trkpt lat="48.2216" lon="7.25495">
        <ele>620</ele>
        <time>2000-01-01T15:20:05.000Z</time>
      </trkpt>
      <trkpt lat="48.22143" lon="7.25515">
        <ele>621</ele>
        <time>2000-01-01T15:20:15.000Z</time>
      </trkpt>
      <trkpt lat="48.22124" lon="7.25533">
        <ele>622</ele>
        <time>2000-01-01T15:20:25.000Z</time>
      </trkpt>
      <trkpt lat="48.22114" lon="7.25539">
        <ele>632.3</ele>
        <time>2000-01-01T15:20:35.000Z</time>
      </trkpt>
      <trkpt lat="48.22104" lon="7.25549">
        <ele>622</ele>
        <time>2000-01-01T15:20:45.000Z</time>
      </trkpt>
      <trkpt lat="48.22099" lon="7.25553">
        <ele>632.7</ele>
        <time>2000-01-01T15:20:55.000Z</time>
      </trkpt>
      <trkpt lat="48.22085" lon="7.25571">
        <ele>622</ele>
        <time>2000-01-01T15:21:05.000Z</time>
      </trkpt>
      <trkpt lat="48.22084" lon="7.25571">
        <ele>633.7</ele>
        <time>2000-01-01T15:21:15.000Z</time>
      </trkpt>
      <trkpt lat="48.22083" lon="7.25571">
        <ele>627.1</ele>
        <time>2000-01-01T15:21:25.000Z</time>
      </trkpt>
      <trkpt lat="48.22069" lon="7.25579">
        <ele>626.3</ele>
        <time>2000-01-01T15:21:35.000Z</time>
      </trkpt>
      <trkpt lat="48.2205" lon="7.25589">
        <ele>622</ele>
        <time>2000-01-01T15:21:45.000Z</time>
      </trkpt>
      <trkpt lat="48.22046" lon="7.25593">
        <ele>637.2</ele>
        <time>2000-01-01T15:21:55.000Z</time>
      </trkpt>
      <trkpt lat="48.22031" lon="7.25598">
        <ele>624</ele>
        <time>2000-01-01T15:22:05.000Z</time>
      </trkpt>
      <trkpt lat="48.22012" lon="7.25604">
        <ele>624</ele>
        <time>2000-01-01T15:22:15.000Z</time>
      </trkpt>
      <trkpt lat="48.22007" lon="7.25605">
        <ele>634.3</ele>
        <time>2000-01-01T15:22:25.000Z</time>
      </trkpt>
      <trkpt lat="48.21985" lon="7.25622">
        <ele>628</ele>
        <time>2000-01-01T15:22:35.000Z</time>
      </trkpt>
      <trkpt lat="48.21983" lon="7.25624">
        <ele>632.3</ele>
        <time>2000-01-01T15:22:45.000Z</time>
      </trkpt>
      <trkpt lat="48.21977" lon="7.25651">
        <ele>631</ele>
        <time>2000-01-01T15:22:55.000Z</time>
      </trkpt>
      <trkpt lat="48.21974" lon="7.25672">
        <ele>643.9</ele>
        <time>2000-01-01T15:23:05.000Z</time>
      </trkpt>
      <trkpt lat="48.21971" lon="7.25684">
        <ele>633</ele>
        <time>2000-01-01T15:23:15.000Z</time>
      </trkpt>
      <trkpt lat="48.21975" lon="7.25687">
        <ele>644.3</ele>
        <time>2000-01-01T15:23:25.000Z</time>
      </trkpt>
      <trkpt lat="48.21977" lon="7.25696">
        <ele>644.8</ele>
        <time>2000-01-01T15:23:35.000Z</time>
      </trkpt>
      <trkpt lat="48.21974" lon="7.25708">
        <ele>635</ele>
        <time>2000-01-01T15:23:45.000Z</time>
      </trkpt>
      <trkpt lat="48.21974" lon="7.25711">
        <ele>645.6</ele>
        <time>2000-01-01T15:23:55.000Z</time>
      </trkpt>
      <trkpt lat="48.21971" lon="7.25727">
        <ele>646.5</ele>
        <time>2000-01-01T15:24:05.000Z</time>
      </trkpt>
      <trkpt lat="48.21971" lon="7.25739">
        <ele>636</ele>
        <time>2000-01-01T15:24:15.000Z</time>
      </trkpt>
      <trkpt lat="48.21973" lon="7.25747">
        <ele>648.3</ele>
        <time>2000-01-01T15:24:25.000Z</time>
      </trkpt>
      <trkpt lat="48.21974" lon="7.2576">
        <ele>651.7</ele>
        <time>2000-01-01T15:24:35.000Z</time>
      </trkpt>
      <trkpt lat="48.21975" lon="7.25773">
        <ele>637</ele>
        <time>2000-01-01T15:24:45.000Z</time>
      </trkpt>
      <trkpt lat="48.21979" lon="7.258">
        <ele>638</ele>
        <time>2000-01-01T15:24:55.000Z</time>
      </trkpt>
      <trkpt lat="48.21978" lon="7.25817">
        <ele>653.6</ele>
        <time>2000-01-01T15:25:05.000Z</time>
      </trkpt>
      <trkpt lat="48.21984" lon="7.25839">
        <ele>640</ele>
        <time>2000-01-01T15:25:15.000Z</time>
      </trkpt>
      <trkpt lat="48.21985" lon="7.2585">
        <ele>656.1</ele>
        <time>2000-01-01T15:25:25.000Z</time>
      </trkpt>
      <trkpt lat="48.21975" lon="7.25878">
        <ele>640</ele>
        <time>2000-01-01T15:25:35.000Z</time>
      </trkpt>
      <trkpt lat="48.2197" lon="7.25896">
        <ele>653.4</ele>
        <time>2000-01-01T15:25:45.000Z</time>
      </trkpt>
      <trkpt lat="48.21969" lon="7.25923">
        <ele>642</ele>
        <time>2000-01-01T15:25:55.000Z</time>
      </trkpt>
      <trkpt lat="48.2197" lon="7.2593">
        <ele>653.6</ele>
        <time>2000-01-01T15:26:05.000Z</time>
      </trkpt>
      <trkpt lat="48.21969" lon="7.25938">
        <ele>653.1</ele>
        <time>2000-01-01T15:26:15.000Z</time>
      </trkpt>
      <trkpt lat="48.21976" lon="7.25954">
        <ele>644</ele>
        <time>2000-01-01T15:26:25.000Z</time>
      </trkpt>
      <trkpt lat="48.21977" lon="7.25959">
        <ele>653.7</ele>
        <time>2000-01-01T15:26:35.000Z</time>
      </trkpt>
      <trkpt lat="48.21977" lon="7.25991">
        <ele>646</ele>
        <time>2000-01-01T15:26:45.000Z</time>
      </trkpt>
      <trkpt lat="48.21976" lon="7.25996">
        <ele>654.9</ele>
        <time>2000-01-01T15:26:55.000Z</time>
      </trkpt>
      <trkpt lat="48.21975" lon="7.2601">
        <ele>655.7</ele>
        <time>2000-01-01T15:27:05.000Z</time>
      </trkpt>
      <trkpt lat="48.21974" lon="7.26041">
        <ele>649</ele>
        <time>2000-01-01T15:27:15.000Z</time>
      </trkpt>
      <trkpt lat="48.21974" lon="7.26072">
        <ele>649</ele>
        <time>2000-01-01T15:27:25.000Z</time>
      </trkpt>
      <trkpt lat="48.21972" lon="7.26087">
        <ele>660.9</ele>
        <time>2000-01-01T15:27:35.000Z</time>
      </trkpt>
      <trkpt lat="48.21971" lon="7.26106">
        <ele>651</ele>
        <time>2000-01-01T15:27:45.000Z</time>
      </trkpt>
      <trkpt lat="48.2197" lon="7.2611">
        <ele>660.7</ele>
        <time>2000-01-01T15:27:55.000Z</time>
      </trkpt>
      <trkpt lat="48.21962" lon="7.26134">
        <ele>651</ele>
        <time>2000-01-01T15:28:05.000Z</time>
      </trkpt>
      <trkpt lat="48.21952" lon="7.26159">
        <ele>651</ele>
        <time>2000-01-01T15:28:15.000Z</time>
      </trkpt>
      <trkpt lat="48.21948" lon="7.2617">
        <ele>663.3</ele>
        <time>2000-01-01T15:28:25.000Z</time>
      </trkpt>
      <trkpt lat="48.21936" lon="7.26185">
        <ele>651</ele>
        <time>2000-01-01T15:28:35.000Z</time>
      </trkpt>
      <trkpt lat="48.21934" lon="7.26189">
        <ele>662.3</ele>
        <time>2000-01-01T15:28:45.000Z</time>
      </trkpt>
      <trkpt lat="48.21919" lon="7.26212">
        <ele>651</ele>
        <time>2000-01-01T15:28:55.000Z</time>
      </trkpt>
      <trkpt lat="48.21911" lon="7.26217">
        <ele>654.6</ele>
        <time>2000-01-01T15:29:05.000Z</time>
      </trkpt>
      <trkpt lat="48.21901" lon="7.26217">
        <ele>649</ele>
        <time>2000-01-01T15:29:15.000Z</time>
      </trkpt>
      <trkpt lat="48.21888" lon="7.26217">
        <ele>653.2</ele>
        <time>2000-01-01T15:29:25.000Z</time>
      </trkpt>
      <trkpt lat="48.21878" lon="7.2622">
        <ele>647</ele>
        <time>2000-01-01T15:29:35.000Z</time>
      </trkpt>
      <trkpt lat="48.21873" lon="7.26234">
        <ele>652.8</ele>
        <time>2000-01-01T15:29:45.000Z</time>
      </trkpt>
      <trkpt lat="48.21873" lon="7.26257">
        <ele>647</ele>
        <time>2000-01-01T15:29:55.000Z</time>
      </trkpt>
      <trkpt lat="48.21877" lon="7.26275">
        <ele>654.3</ele>
        <time>2000-01-01T15:30:05.000Z</time>
      </trkpt>
      <trkpt lat="48.21876" lon="7.26295">
        <ele>647</ele>
        <time>2000-01-01T15:30:15.000Z</time>
      </trkpt>
      <trkpt lat="48.21883" lon="7.2632">
        <ele>647</ele>
        <time>2000-01-01T15:30:25.000Z</time>
      </trkpt>
      <trkpt lat="48.21897" lon="7.26339">
        <ele>646</ele>
        <time>2000-01-01T15:30:35.000Z</time>
      </trkpt>
      <trkpt lat="48.21905" lon="7.26343">
        <ele>652</ele>
        <time>2000-01-01T15:30:45.000Z</time>
      </trkpt>
      <trkpt lat="48.21918" lon="7.26358">
        <ele>644</ele>
        <time>2000-01-01T15:30:55.000Z</time>
      </trkpt>
      <trkpt lat="48.21921" lon="7.26369">
        <ele>655.9</ele>
        <time>2000-01-01T15:31:05.000Z</time>
      </trkpt>
      <trkpt lat="48.21924" lon="7.26386">
        <ele>641</ele>
        <time>2000-01-01T15:31:15.000Z</time>
      </trkpt>
      <trkpt lat="48.21925" lon="7.26398">
        <ele>652.9</ele>
        <time>2000-01-01T15:31:25.000Z</time>
      </trkpt>
      <trkpt lat="48.21928" lon="7.2642">
        <ele>639</ele>
        <time>2000-01-01T15:31:35.000Z</time>
      </trkpt>
      <trkpt lat="48.21925" lon="7.2643">
        <ele>645.2</ele>
        <time>2000-01-01T15:31:45.000Z</time>
      </trkpt>
      <trkpt lat="48.21925" lon="7.26442">
        <ele>643.9</ele>
        <time>2000-01-01T15:31:55.000Z</time>
      </trkpt>
      <trkpt lat="48.21937" lon="7.26464">
        <ele>638</ele>
        <time>2000-01-01T15:32:05.000Z</time>
      </trkpt>
      <trkpt lat="48.21944" lon="7.26474">
        <ele>640.6</ele>
        <time>2000-01-01T15:32:15.000Z</time>
      </trkpt>
      <trkpt lat="48.21946" lon="7.26485">
        <ele>639.6</ele>
        <time>2000-01-01T15:32:25.000Z</time>
      </trkpt>
      <trkpt lat="48.21957" lon="7.26497">
        <ele>632</ele>
        <time>2000-01-01T15:32:35.000Z</time>
      </trkpt>
      <trkpt lat="48.2197" lon="7.26505">
        <ele>627.2</ele>
        <time>2000-01-01T15:32:45.000Z</time>
      </trkpt>
      <trkpt lat="48.21982" lon="7.26511">
        <ele>625</ele>
        <time>2000-01-01T15:32:55.000Z</time>
      </trkpt>
      <trkpt lat="48.21987" lon="7.26517">
        <ele>627.8</ele>
        <time>2000-01-01T15:33:05.000Z</time>
      </trkpt>
      <trkpt lat="48.21991" lon="7.26519">
        <ele>627.7</ele>
        <time>2000-01-01T15:33:15.000Z</time>
      </trkpt>
      <trkpt lat="48.22008" lon="7.26516">
        <ele>623</ele>
        <time>2000-01-01T15:33:25.000Z</time>
      </trkpt>
      <trkpt lat="48.22017" lon="7.26514">
        <ele>622.7</ele>
        <time>2000-01-01T15:33:35.000Z</time>
      </trkpt>
      <trkpt lat="48.2203" lon="7.26509">
        <ele>622</ele>
        <time>2000-01-01T15:33:45.000Z</time>
      </trkpt>
      <trkpt lat="48.22038" lon="7.26505">
        <ele>618.9</ele>
        <time>2000-01-01T15:33:55.000Z</time>
      </trkpt>
      <trkpt lat="48.2205" lon="7.26498">
        <ele>617</ele>
        <time>2000-01-01T15:34:05.000Z</time>
      </trkpt>
      <trkpt lat="48.22063" lon="7.26493">
        <ele>632</ele>
        <time>2000-01-01T15:34:15.000Z</time>
      </trkpt>
      <trkpt lat="48.22074" lon="7.26486">
        <ele>617</ele>
        <time>2000-01-01T15:34:25.000Z</time>
      </trkpt>
      <trkpt lat="48.22085" lon="7.26478">
        <ele>627.4</ele>
        <time>2000-01-01T15:34:35.000Z</time>
      </trkpt>
      <trkpt lat="48.22098" lon="7.26469">
        <ele>611</ele>
        <time>2000-01-01T15:34:45.000Z</time>
      </trkpt>
      <trkpt lat="48.22105" lon="7.2646">
        <ele>632.1</ele>
        <time>2000-01-01T15:34:55.000Z</time>
      </trkpt>
      <trkpt lat="48.22129" lon="7.2646">
        <ele>605</ele>
        <time>2000-01-01T15:35:05.000Z</time>
      </trkpt>
      <trkpt lat="48.22135" lon="7.26463">
        <ele>629.7</ele>
        <time>2000-01-01T15:35:15.000Z</time>
      </trkpt>
      <trkpt lat="48.2215" lon="7.26476">
        <ele>601</ele>
        <time>2000-01-01T15:35:25.000Z</time>
      </trkpt>
      <trkpt lat="48.22155" lon="7.26479">
        <ele>624.3</ele>
        <time>2000-01-01T15:35:35.000Z</time>
      </trkpt>
      <trkpt lat="48.22163" lon="7.26485">
        <ele>621.3</ele>
        <time>2000-01-01T15:35:45.000Z</time>
      </trkpt>
      <trkpt lat="48.22167" lon="7.26496">
        <ele>594</ele>
        <time>2000-01-01T15:35:55.000Z</time>
      </trkpt>
      <trkpt lat="48.22171" lon="7.26508">
        <ele>613</ele>
        <time>2000-01-01T15:36:05.000Z</time>
      </trkpt>
      <trkpt lat="48.2218" lon="7.26518">
        <ele>591</ele>
        <time>2000-01-01T15:36:15.000Z</time>
      </trkpt>
      <trkpt lat="48.22185" lon="7.26531">
        <ele>612</ele>
        <time>2000-01-01T15:36:25.000Z</time>
      </trkpt>
      <trkpt lat="48.22189" lon="7.26552">
        <ele>588</ele>
        <time>2000-01-01T15:36:35.000Z</time>
      </trkpt>
      <trkpt lat="48.22187" lon="7.26568">
        <ele>604.7</ele>
        <time>2000-01-01T15:36:45.000Z</time>
      </trkpt>
      <trkpt lat="48.2218" lon="7.26589">
        <ele>586</ele>
        <time>2000-01-01T15:36:55.000Z</time>
      </trkpt>
      <trkpt lat="48.22178" lon="7.26604">
        <ele>590.4</ele>
        <time>2000-01-01T15:37:05.000Z</time>
      </trkpt>
      <trkpt lat="48.22176" lon="7.26622">
        <ele>577</ele>
        <time>2000-01-01T15:37:15.000Z</time>
      </trkpt>
      <trkpt lat="48.22174" lon="7.26634">
        <ele>586.2</ele>
        <time>2000-01-01T15:37:25.000Z</time>
      </trkpt>
      <trkpt lat="48.2217" lon="7.26645">
        <ele>582.5</ele>
        <time>2000-01-01T15:37:35.000Z</time>
      </trkpt>
      <trkpt lat="48.22169" lon="7.26668">
        <ele>572</ele>
        <time>2000-01-01T15:37:45.000Z</time>
      </trkpt>
      <trkpt lat="48.22171" lon="7.26682">
        <ele>571.4</ele>
        <time>2000-01-01T15:37:55.000Z</time>
      </trkpt>
      <trkpt lat="48.22177" lon="7.26699">
        <ele>568</ele>
        <time>2000-01-01T15:38:05.000Z</time>
      </trkpt>
      <trkpt lat="48.22186" lon="7.26716">
        <ele>571</ele>
        <time>2000-01-01T15:38:15.000Z</time>
      </trkpt>
      <trkpt lat="48.2219" lon="7.2673">
        <ele>563</ele>
        <time>2000-01-01T15:38:25.000Z</time>
      </trkpt>
      <trkpt lat="48.22191" lon="7.26749">
        <ele>567.7</ele>
        <time>2000-01-01T15:38:35.000Z</time>
      </trkpt>
      <trkpt lat="48.22193" lon="7.26763">
        <ele>563</ele>
        <time>2000-01-01T15:38:45.000Z</time>
      </trkpt>
      <trkpt lat="48.22197" lon="7.26787">
        <ele>558</ele>
        <time>2000-01-01T15:38:55.000Z</time>
      </trkpt>
      <trkpt lat="48.22202" lon="7.2681">
        <ele>559</ele>
        <time>2000-01-01T15:39:05.000Z</time>
      </trkpt>
      <trkpt lat="48.22206" lon="7.2682">
        <ele>556</ele>
        <time>2000-01-01T15:39:15.000Z</time>
      </trkpt>
      <trkpt lat="48.22211" lon="7.26834">
        <ele>558</ele>
        <time>2000-01-01T15:39:25.000Z</time>
      </trkpt>
      <trkpt lat="48.22217" lon="7.26845">
        <ele>547.3</ele>
        <time>2000-01-01T15:39:35.000Z</time>
      </trkpt>
      <trkpt lat="48.22225" lon="7.26867">
        <ele>555</ele>
        <time>2000-01-01T15:39:45.000Z</time>
      </trkpt>
      <trkpt lat="48.22233" lon="7.26879">
        <ele>545.4</ele>
        <time>2000-01-01T15:39:55.000Z</time>
      </trkpt>
      <trkpt lat="48.22238" lon="7.2689">
        <ele>553</ele>
        <time>2000-01-01T15:40:05.000Z</time>
      </trkpt>
      <trkpt lat="48.22247" lon="7.26901">
        <ele>543.5</ele>
        <time>2000-01-01T15:40:15.000Z</time>
      </trkpt>
      <trkpt lat="48.22254" lon="7.26913">
        <ele>549</ele>
        <time>2000-01-01T15:40:25.000Z</time>
      </trkpt>
      <trkpt lat="48.2226" lon="7.26925">
        <ele>538</ele>
        <time>2000-01-01T15:40:35.000Z</time>
      </trkpt>
      <trkpt lat="48.22266" lon="7.26929">
        <ele>536.6</ele>
        <time>2000-01-01T15:40:45.000Z</time>
      </trkpt>
      <trkpt lat="48.2227" lon="7.26929">
        <ele>545</ele>
        <time>2000-01-01T15:40:55.000Z</time>
      </trkpt>
      <trkpt lat="48.22277" lon="7.26925">
        <ele>535.5</ele>
        <time>2000-01-01T15:41:05.000Z</time>
      </trkpt>
      <trkpt lat="48.22291" lon="7.26906">
        <ele>542</ele>
        <time>2000-01-01T15:41:15.000Z</time>
      </trkpt>
      <trkpt lat="48.22295" lon="7.26899">
        <ele>542.8</ele>
        <time>2000-01-01T15:41:25.000Z</time>
      </trkpt>
      <trkpt lat="48.223" lon="7.26889">
        <ele>543.3</ele>
        <time>2000-01-01T15:41:35.000Z</time>
      </trkpt>
      <trkpt lat="48.22304" lon="7.26883">
        <ele>539</ele>
        <time>2000-01-01T15:41:45.000Z</time>
      </trkpt>
      <trkpt lat="48.22313" lon="7.26878">
        <ele>543.7</ele>
        <time>2000-01-01T15:41:55.000Z</time>
      </trkpt>
      <trkpt lat="48.22319" lon="7.26879">
        <ele>543.3</ele>
        <time>2000-01-01T15:42:05.000Z</time>
      </trkpt>
      <trkpt lat="48.2233" lon="7.26894">
        <ele>537</ele>
        <time>2000-01-01T15:42:15.000Z</time>
      </trkpt>
      <trkpt lat="48.22332" lon="7.26904">
        <ele>537.3</ele>
        <time>2000-01-01T15:42:25.000Z</time>
      </trkpt>
      <trkpt lat="48.22331" lon="7.26911">
        <ele>534.9</ele>
        <time>2000-01-01T15:42:35.000Z</time>
      </trkpt>
      <trkpt lat="48.22319" lon="7.26926">
        <ele>533</ele>
        <time>2000-01-01T15:42:45.000Z</time>
      </trkpt>
      <trkpt lat="48.22317" lon="7.26938">
        <ele>532.7</ele>
        <time>2000-01-01T15:42:55.000Z</time>
      </trkpt>
      <trkpt lat="48.22313" lon="7.2695">
        <ele>532.6</ele>
        <time>2000-01-01T15:43:05.000Z</time>
      </trkpt>
      <trkpt lat="48.22309" lon="7.26962">
        <ele>530</ele>
        <time>2000-01-01T15:43:15.000Z</time>
      </trkpt>
      <trkpt lat="48.22309" lon="7.26973">
        <ele>531.9</ele>
        <time>2000-01-01T15:43:25.000Z</time>
      </trkpt>
      <trkpt lat="48.22309" lon="7.26975">
        <ele>531.8</ele>
        <time>2000-01-01T15:43:35.000Z</time>
      </trkpt>
      <trkpt lat="48.22308" lon="7.26979">
        <ele>531.7</ele>
        <time>2000-01-01T15:43:45.000Z</time>
      </trkpt>
      <trkpt lat="48.22311" lon="7.26983">
        <ele>531.5</ele>
        <time>2000-01-01T15:43:55.000Z</time>
      </trkpt>
      <trkpt lat="48.22315" lon="7.2699">
        <ele>529</ele>
        <time>2000-01-01T15:44:05.000Z</time>
      </trkpt>
      <trkpt lat="48.22318" lon="7.26995">
        <ele>531</ele>
        <time>2000-01-01T15:44:15.000Z</time>
      </trkpt>
      <trkpt lat="48.22318" lon="7.26998">
        <ele>530.9</ele>
        <time>2000-01-01T15:44:25.000Z</time>
      </trkpt>
      <trkpt lat="48.22319" lon="7.27001">
        <ele>529.3</ele>
        <time>2000-01-01T15:44:35.000Z</time>
      </trkpt>
      <trkpt lat="48.22313" lon="7.27008">
        <ele>529.1</ele>
        <time>2000-01-01T15:44:45.000Z</time>
      </trkpt>
      <trkpt lat="48.22309" lon="7.27012">
        <ele>526</ele>
        <time>2000-01-01T15:44:55.000Z</time>
      </trkpt>
      <trkpt lat="48.223" lon="7.27024">
        <ele>528.6</ele>
        <time>2000-01-01T15:45:05.000Z</time>
      </trkpt>
      <trkpt lat="48.22291" lon="7.27032">
        <ele>524</ele>
        <time>2000-01-01T15:45:15.000Z</time>
      </trkpt>
      <trkpt lat="48.22283" lon="7.27038">
        <ele>527.9</ele>
        <time>2000-01-01T15:45:25.000Z</time>
      </trkpt>
      <trkpt lat="48.22273" lon="7.27043">
        <ele>520</ele>
        <time>2000-01-01T15:45:35.000Z</time>
      </trkpt>
      <trkpt lat="48.22264" lon="7.27046">
        <ele>527</ele>
        <time>2000-01-01T15:45:45.000Z</time>
      </trkpt>
      <trkpt lat="48.22256" lon="7.27045">
        <ele>526.8</ele>
        <time>2000-01-01T15:45:55.000Z</time>
      </trkpt>
      <trkpt lat="48.22247" lon="7.27052">
        <ele>517</ele>
        <time>2000-01-01T15:46:05.000Z</time>
      </trkpt>
      <trkpt lat="48.22232" lon="7.27049">
        <ele>520</ele>
        <time>2000-01-01T15:46:15.000Z</time>
      </trkpt>
      <trkpt lat="48.22218" lon="7.27051">
        <ele>513</ele>
        <time>2000-01-01T15:46:25.000Z</time>
      </trkpt>
      <trkpt lat="48.2221" lon="7.27054">
        <ele>518.5</ele>
        <time>2000-01-01T15:46:35.000Z</time>
      </trkpt>
      <trkpt lat="48.22196" lon="7.2706">
        <ele>509</ele>
        <time>2000-01-01T15:46:45.000Z</time>
      </trkpt>
      <trkpt lat="48.22183" lon="7.27064">
        <ele>515.9</ele>
        <time>2000-01-01T15:46:55.000Z</time>
      </trkpt>
      <trkpt lat="48.22179" lon="7.27064">
        <ele>515.6</ele>
        <time>2000-01-01T15:47:05.000Z</time>
      </trkpt>
      <trkpt lat="48.22168" lon="7.27062">
        <ele>506</ele>
        <time>2000-01-01T15:47:15.000Z</time>
      </trkpt>
      <trkpt lat="48.22156" lon="7.27061">
        <ele>511.5</ele>
        <time>2000-01-01T15:47:25.000Z</time>
      </trkpt>
      <trkpt lat="48.22148" lon="7.2706">
        <ele>504</ele>
        <time>2000-01-01T15:47:35.000Z</time>
      </trkpt>
      <trkpt lat="48.22132" lon="7.27057">
        <ele>511.3</ele>
        <time>2000-01-01T15:47:45.000Z</time>
      </trkpt>
      <trkpt lat="48.2212" lon="7.27053">
        <ele>501</ele>
        <time>2000-01-01T15:47:55.000Z</time>
      </trkpt>
      <trkpt lat="48.22102" lon="7.27048">
        <ele>500</ele>
        <time>2000-01-01T15:48:05.000Z</time>
      </trkpt>
      <trkpt lat="48.22083" lon="7.27038">
        <ele>500</ele>
        <time>2000-01-01T15:48:15.000Z</time>
      </trkpt>
      <trkpt lat="48.22068" lon="7.2703">
        <ele>513.2</ele>
        <time>2000-01-01T15:48:25.000Z</time>
      </trkpt>
      <trkpt lat="48.22048" lon="7.27036">
        <ele>500</ele>
        <time>2000-01-01T15:48:35.000Z</time>
      </trkpt>
      <trkpt lat="48.22028" lon="7.27053">
        <ele>497</ele>
        <time>2000-01-01T15:48:45.000Z</time>
      </trkpt>
      <trkpt lat="48.22009" lon="7.27074">
        <ele>493</ele>
        <time>2000-01-01T15:48:55.000Z</time>
      </trkpt>
      <trkpt lat="48.21997" lon="7.27085">
        <ele>503.9</ele>
        <time>2000-01-01T15:49:05.000Z</time>
      </trkpt>
      <trkpt lat="48.21987" lon="7.2709">
        <ele>490</ele>
        <time>2000-01-01T15:49:15.000Z</time>
      </trkpt>
      <trkpt lat="48.21972" lon="7.27097">
        <ele>503.3</ele>
        <time>2000-01-01T15:49:25.000Z</time>
      </trkpt>
      <trkpt lat="48.21962" lon="7.27108">
        <ele>490</ele>
        <time>2000-01-01T15:49:35.000Z</time>
      </trkpt>
      <trkpt lat="48.21954" lon="7.27121">
        <ele>502.5</ele>
        <time>2000-01-01T15:49:45.000Z</time>
      </trkpt>
      <trkpt lat="48.21944" lon="7.27134">
        <ele>487</ele>
        <time>2000-01-01T15:49:55.000Z</time>
      </trkpt>
      <trkpt lat="48.21923" lon="7.27143">
        <ele>486</ele>
        <time>2000-01-01T15:50:05.000Z</time>
      </trkpt>
      <trkpt lat="48.21911" lon="7.27147">
        <ele>496.9</ele>
        <time>2000-01-01T15:50:15.000Z</time>
      </trkpt>
      <trkpt lat="48.21893" lon="7.27147">
        <ele>485</ele>
        <time>2000-01-01T15:50:25.000Z</time>
      </trkpt>
      <trkpt lat="48.21887" lon="7.27148">
        <ele>497.4</ele>
        <time>2000-01-01T15:50:35.000Z</time>
      </trkpt>
      <trkpt lat="48.21883" lon="7.27152">
        <ele>497.2</ele>
        <time>2000-01-01T15:50:45.000Z</time>
      </trkpt>
      <trkpt lat="48.21876" lon="7.27148">
        <ele>484</ele>
        <time>2000-01-01T15:50:55.000Z</time>
      </trkpt>
      <trkpt lat="48.21881" lon="7.27142">
        <ele>497.8</ele>
        <time>2000-01-01T15:51:05.000Z</time>
      </trkpt>
      <trkpt lat="48.2188" lon="7.2714">
        <ele>497.9</ele>
        <time>2000-01-01T15:51:15.000Z</time>
      </trkpt>
      <trkpt lat="48.21878" lon="7.27139">
        <ele>497.9</ele>
        <time>2000-01-01T15:51:25.000Z</time>
      </trkpt>
      <trkpt lat="48.21875" lon="7.27142">
        <ele>497.7</ele>
        <time>2000-01-01T15:51:35.000Z</time>
      </trkpt>
      <trkpt lat="48.21868" lon="7.27146">
        <ele>483</ele>
        <time>2000-01-01T15:51:45.000Z</time>
      </trkpt>
      <trkpt lat="48.21867" lon="7.27146">
        <ele>497.4</ele>
        <time>2000-01-01T15:51:55.000Z</time>
      </trkpt>
      <trkpt lat="48.21858" lon="7.27145">
        <ele>497.2</ele>
        <time>2000-01-01T15:52:05.000Z</time>
      </trkpt>
      <trkpt lat="48.21847" lon="7.27146">
        <ele>481</ele>
        <time>2000-01-01T15:52:15.000Z</time>
      </trkpt>
      <trkpt lat="48.21839" lon="7.27142">
        <ele>496.9</ele>
        <time>2000-01-01T15:52:25.000Z</time>
      </trkpt>
      <trkpt lat="48.21833" lon="7.27139">
        <ele>495.6</ele>
        <time>2000-01-01T15:52:35.000Z</time>
      </trkpt>
      <trkpt lat="48.21816" lon="7.27133">
        <ele>478</ele>
        <time>2000-01-01T15:52:45.000Z</time>
      </trkpt>
      <trkpt lat="48.21812" lon="7.27132">
        <ele>496</ele>
        <time>2000-01-01T15:52:55.000Z</time>
      </trkpt>
      <trkpt lat="48.21806" lon="7.27128">
        <ele>496.1</ele>
        <time>2000-01-01T15:53:05.000Z</time>
      </trkpt>
      <trkpt lat="48.21802" lon="7.27131">
        <ele>495.9</ele>
        <time>2000-01-01T15:53:15.000Z</time>
      </trkpt>
      <trkpt lat="48.21801" lon="7.2713">
        <ele>495.9</ele>
        <time>2000-01-01T15:53:25.000Z</time>
      </trkpt>
      <trkpt lat="48.21795" lon="7.27127">
        <ele>478</ele>
        <time>2000-01-01T15:53:35.000Z</time>
      </trkpt>
      <trkpt lat="48.21793" lon="7.27125">
        <ele>496</ele>
        <time>2000-01-01T15:53:45.000Z</time>
      </trkpt>
      <trkpt lat="48.21786" lon="7.27115">
        <ele>496.5</ele>
        <time>2000-01-01T15:53:55.000Z</time>
      </trkpt>
      <trkpt lat="48.21781" lon="7.27106">
        <ele>485</ele>
        <time>2000-01-01T15:54:05.000Z</time>
      </trkpt>
      <trkpt lat="48.2178" lon="7.27104">
        <ele>496.9</ele>
        <time>2000-01-01T15:54:15.000Z</time>
      </trkpt>
      <trkpt lat="48.2178" lon="7.27076">
        <ele>494</ele>
        <time>2000-01-01T15:54:25.000Z</time>
      </trkpt>
      <trkpt lat="48.21781" lon="7.2707">
        <ele>508.2</ele>
        <time>2000-01-01T15:54:35.000Z</time>
      </trkpt>
      <trkpt lat="48.21775" lon="7.27051">
        <ele>510.3</ele>
        <time>2000-01-01T15:54:45.000Z</time>
      </trkpt>
      <trkpt lat="48.21768" lon="7.27042">
        <ele>495</ele>
        <time>2000-01-01T15:54:55.000Z</time>
      </trkpt>
      <trkpt lat="48.21766" lon="7.27039">
        <ele>511.9</ele>
        <time>2000-01-01T15:55:05.000Z</time>
      </trkpt>
      <trkpt lat="48.21753" lon="7.27032">
        <ele>513</ele>
        <time>2000-01-01T15:55:15.000Z</time>
      </trkpt>
      <trkpt lat="48.21746" lon="7.27028">
        <ele>502</ele>
        <time>2000-01-01T15:55:25.000Z</time>
      </trkpt>
      <trkpt lat="48.21737" lon="7.27025">
        <ele>506</ele>
        <time>2000-01-01T15:55:35.000Z</time>
      </trkpt>
      <trkpt lat="48.21729" lon="7.27024">
        <ele>504.9</ele>
        <time>2000-01-01T15:55:45.000Z</time>
      </trkpt>
      <trkpt lat="48.2172" lon="7.27013">
        <ele>502</ele>
        <time>2000-01-01T15:55:55.000Z</time>
      </trkpt>
      <trkpt lat="48.21714" lon="7.27002">
        <ele>504.2</ele>
        <time>2000-01-01T15:56:05.000Z</time>
      </trkpt>
      <trkpt lat="48.21707" lon="7.26988">
        <ele>503</ele>
        <time>2000-01-01T15:56:15.000Z</time>
      </trkpt>
      <trkpt lat="48.21706" lon="7.26976">
        <ele>509</ele>
        <time>2000-01-01T15:56:25.000Z</time>
      </trkpt>
      <trkpt lat="48.2171" lon="7.26959">
        <ele>504</ele>
        <time>2000-01-01T15:56:35.000Z</time>
      </trkpt>
      <trkpt lat="48.21715" lon="7.2695">
        <ele>510.5</ele>
        <time>2000-01-01T15:56:45.000Z</time>
      </trkpt>
      <trkpt lat="48.2173" lon="7.26925">
        <ele>510</ele>
        <time>2000-01-01T15:56:55.000Z</time>
      </trkpt>
      <trkpt lat="48.21741" lon="7.26902">
        <ele>514</ele>
        <time>2000-01-01T15:57:05.000Z</time>
      </trkpt>
      <trkpt lat="48.21742" lon="7.26901">
        <ele>516.3</ele>
        <time>2000-01-01T15:57:15.000Z</time>
      </trkpt>
      <trkpt lat="48.21752" lon="7.26884">
        <ele>527</ele>
        <time>2000-01-01T15:57:25.000Z</time>
      </trkpt>
      <trkpt lat="48.21758" lon="7.26866">
        <ele>515</ele>
        <time>2000-01-01T15:57:35.000Z</time>
      </trkpt>
      <trkpt lat="48.21759" lon="7.26864">
        <ele>526.8</ele>
        <time>2000-01-01T15:57:45.000Z</time>
      </trkpt>
      <trkpt lat="48.21766" lon="7.2685">
        <ele>526.1</ele>
        <time>2000-01-01T15:57:55.000Z</time>
      </trkpt>
      <trkpt lat="48.2177" lon="7.26842">
        <ele>520</ele>
        <time>2000-01-01T15:58:05.000Z</time>
      </trkpt>
      <trkpt lat="48.21779" lon="7.26821">
        <ele>531.2</ele>
        <time>2000-01-01T15:58:15.000Z</time>
      </trkpt>
      <trkpt lat="48.21786" lon="7.26806">
        <ele>520</ele>
        <time>2000-01-01T15:58:25.000Z</time>
      </trkpt>
      <trkpt lat="48.21793" lon="7.26791">
        <ele>535.7</ele>
        <time>2000-01-01T15:58:35.000Z</time>
      </trkpt>
      <trkpt lat="48.21799" lon="7.26778">
        <ele>521</ele>
        <time>2000-01-01T15:58:45.000Z</time>
      </trkpt>
      <trkpt lat="48.2181" lon="7.26766">
        <ele>539.6</ele>
        <time>2000-01-01T15:58:55.000Z</time>
      </trkpt>
      <trkpt lat="48.21816" lon="7.26749">
        <ele>528</ele>
        <time>2000-01-01T15:59:05.000Z</time>
      </trkpt>
      <trkpt lat="48.21819" lon="7.26738">
        <ele>548.1</ele>
        <time>2000-01-01T15:59:15.000Z</time>
      </trkpt>
      <trkpt lat="48.21818" lon="7.26721">
        <ele>529</ele>
        <time>2000-01-01T15:59:25.000Z</time>
      </trkpt>
      <trkpt lat="48.2181" lon="7.2671">
        <ele>549.9</ele>
        <time>2000-01-01T15:59:35.000Z</time>
      </trkpt>
      <trkpt lat="48.21802" lon="7.26709">
        <ele>534</ele>
        <time>2000-01-01T15:59:45.000Z</time>
      </trkpt>
      <trkpt lat="48.21795" lon="7.26711">
        <ele>548.7</ele>
        <time>2000-01-01T15:59:55.000Z</time>
      </trkpt>
      <trkpt lat="48.2178" lon="7.26716">
        <ele>533</ele>
        <time>2000-01-01T16:00:05.000Z</time>
      </trkpt>
      <trkpt lat="48.21772" lon="7.26712">
        <ele>546.8</ele>
        <time>2000-01-01T16:00:15.000Z</time>
      </trkpt>
      <trkpt lat="48.2177" lon="7.26712">
        <ele>546.6</ele>
        <time>2000-01-01T16:00:25.000Z</time>
      </trkpt>
      <trkpt lat="48.21764" lon="7.26706">
        <ele>547.3</ele>
        <time>2000-01-01T16:00:35.000Z</time>
      </trkpt>
      <trkpt lat="48.21758" lon="7.26693">
        <ele>533</ele>
        <time>2000-01-01T16:00:45.000Z</time>
      </trkpt>
      <trkpt lat="48.21753" lon="7.26672">
        <ele>552.7</ele>
        <time>2000-01-01T16:00:55.000Z</time>
      </trkpt>
      <trkpt lat="48.21745" lon="7.26656">
        <ele>534</ele>
        <time>2000-01-01T16:01:05.000Z</time>
      </trkpt>
      <trkpt lat="48.21743" lon="7.26646">
        <ele>560.3</ele>
        <time>2000-01-01T16:01:15.000Z</time>
      </trkpt>
      <trkpt lat="48.2174" lon="7.26635">
        <ele>562.6</ele>
        <time>2000-01-01T16:01:25.000Z</time>
      </trkpt>
      <trkpt lat="48.21738" lon="7.26626">
        <ele>536</ele>
        <time>2000-01-01T16:01:35.000Z</time>
      </trkpt>
      <trkpt lat="48.21735" lon="7.26615">
        <ele>566</ele>
        <time>2000-01-01T16:01:45.000Z</time>
      </trkpt>
      <trkpt lat="48.21734" lon="7.26607">
        <ele>567.3</ele>
        <time>2000-01-01T16:01:55.000Z</time>
      </trkpt>
      <trkpt lat="48.2173" lon="7.26597">
        <ele>539</ele>
        <time>2000-01-01T16:02:05.000Z</time>
      </trkpt>
      <trkpt lat="48.2173" lon="7.26592">
        <ele>569</ele>
        <time>2000-01-01T16:02:15.000Z</time>
      </trkpt>
      <trkpt lat="48.2173" lon="7.2658">
        <ele>581.7</ele>
        <time>2000-01-01T16:02:25.000Z</time>
      </trkpt>
      <trkpt lat="48.2173" lon="7.26579">
        <ele>581.8</ele>
        <time>2000-01-01T16:02:35.000Z</time>
      </trkpt>
      <trkpt lat="48.21724" lon="7.26579">
        <ele>582.8</ele>
        <time>2000-01-01T16:02:45.000Z</time>
      </trkpt>
      <trkpt lat="48.21723" lon="7.26585">
        <ele>541</ele>
        <time>2000-01-01T16:02:55.000Z</time>
      </trkpt>
      <trkpt lat="48.21721" lon="7.26589">
        <ele>568.6</ele>
        <time>2000-01-01T16:03:05.000Z</time>
      </trkpt>
      <trkpt lat="48.21717" lon="7.26591">
        <ele>568.4</ele>
        <time>2000-01-01T16:03:15.000Z</time>
      </trkpt>
      <trkpt lat="48.21712" lon="7.26593">
        <ele>568.2</ele>
        <time>2000-01-01T16:03:25.000Z</time>
      </trkpt>
      <trkpt lat="48.21711" lon="7.2659">
        <ele>568.4</ele>
        <time>2000-01-01T16:03:35.000Z</time>
      </trkpt>
      <trkpt lat="48.21702" lon="7.26592">
        <ele>547</ele>
        <time>2000-01-01T16:03:45.000Z</time>
      </trkpt>
      <trkpt lat="48.21693" lon="7.26596">
        <ele>569</ele>
        <time>2000-01-01T16:03:55.000Z</time>
      </trkpt>
      <trkpt lat="48.21681" lon="7.26598">
        <ele>548</ele>
        <time>2000-01-01T16:04:05.000Z</time>
      </trkpt>
      <trkpt lat="48.21675" lon="7.26601">
        <ele>570.3</ele>
        <time>2000-01-01T16:04:15.000Z</time>
      </trkpt>
      <trkpt lat="48.21676" lon="7.26606">
        <ele>569</ele>
        <time>2000-01-01T16:04:25.000Z</time>
      </trkpt>
      <trkpt lat="48.21675" lon="7.26608">
        <ele>568.5</ele>
        <time>2000-01-01T16:04:35.000Z</time>
      </trkpt>
      <trkpt lat="48.2167" lon="7.26617">
        <ele>550</ele>
        <time>2000-01-01T16:04:45.000Z</time>
      </trkpt>
      <trkpt lat="48.21665" lon="7.26621">
        <ele>572.6</ele>
        <time>2000-01-01T16:04:55.000Z</time>
      </trkpt>
      <trkpt lat="48.21658" lon="7.26639">
        <ele>555</ele>
        <time>2000-01-01T16:05:05.000Z</time>
      </trkpt>
      <trkpt lat="48.21649" lon="7.26646">
        <ele>567.7</ele>
        <time>2000-01-01T16:05:15.000Z</time>
      </trkpt>
      <trkpt lat="48.21641" lon="7.26654">
        <ele>555</ele>
        <time>2000-01-01T16:05:25.000Z</time>
      </trkpt>
      <trkpt lat="48.21629" lon="7.26661">
        <ele>569.8</ele>
        <time>2000-01-01T16:05:35.000Z</time>
      </trkpt>
      <trkpt lat="48.21616" lon="7.26667">
        <ele>565</ele>
        <time>2000-01-01T16:05:45.000Z</time>
      </trkpt>
      <trkpt lat="48.21608" lon="7.26665">
        <ele>572</ele>
        <time>2000-01-01T16:05:55.000Z</time>
      </trkpt>
      <trkpt lat="48.21603" lon="7.26662">
        <ele>572.3</ele>
        <time>2000-01-01T16:06:05.000Z</time>
      </trkpt>
      <trkpt lat="48.21593" lon="7.26659">
        <ele>570</ele>
        <time>2000-01-01T16:06:15.000Z</time>
      </trkpt>
      <trkpt lat="48.21585" lon="7.26658">
        <ele>572</ele>
        <time>2000-01-01T16:06:25.000Z</time>
      </trkpt>
      <trkpt lat="48.2158" lon="7.26657">
        <ele>577.6</ele>
        <time>2000-01-01T16:06:35.000Z</time>
      </trkpt>
      <trkpt lat="48.21574" lon="7.26653">
        <ele>570</ele>
        <time>2000-01-01T16:06:45.000Z</time>
      </trkpt>
      <trkpt lat="48.21562" lon="7.26646">
        <ele>585.9</ele>
        <time>2000-01-01T16:06:55.000Z</time>
      </trkpt>
      <trkpt lat="48.21555" lon="7.2664">
        <ele>573</ele>
        <time>2000-01-01T16:07:05.000Z</time>
      </trkpt>
      <trkpt lat="48.21545" lon="7.26636">
        <ele>590.2</ele>
        <time>2000-01-01T16:07:15.000Z</time>
      </trkpt>
      <trkpt lat="48.21538" lon="7.26634">
        <ele>574</ele>
        <time>2000-01-01T16:07:25.000Z</time>
      </trkpt>
      <trkpt lat="48.21519" lon="7.26628">
        <ele>577</ele>
        <time>2000-01-01T16:07:35.000Z</time>
      </trkpt>
      <trkpt lat="48.21515" lon="7.26625">
        <ele>594.2</ele>
        <time>2000-01-01T16:07:45.000Z</time>
      </trkpt>
      <trkpt lat="48.2151" lon="7.26625">
        <ele>594.5</ele>
        <time>2000-01-01T16:07:55.000Z</time>
      </trkpt>
      <trkpt lat="48.215" lon="7.26623">
        <ele>579</ele>
        <time>2000-01-01T16:08:05.000Z</time>
      </trkpt>
      <trkpt lat="48.21497" lon="7.26624">
        <ele>605.9</ele>
        <time>2000-01-01T16:08:15.000Z</time>
      </trkpt>
      <trkpt lat="48.21494" lon="7.26626">
        <ele>605.5</ele>
        <time>2000-01-01T16:08:25.000Z</time>
      </trkpt>
      <trkpt lat="48.21488" lon="7.26632">
        <ele>604.5</ele>
        <time>2000-01-01T16:08:35.000Z</time>
      </trkpt>
      <trkpt lat="48.21476" lon="7.26644">
        <ele>583</ele>
        <time>2000-01-01T16:08:45.000Z</time>
      </trkpt>
      <trkpt lat="48.21473" lon="7.2665">
        <ele>603.1</ele>
        <time>2000-01-01T16:08:55.000Z</time>
      </trkpt>
      <trkpt lat="48.21466" lon="7.26664">
        <ele>603.5</ele>
        <time>2000-01-01T16:09:05.000Z</time>
      </trkpt>
      <trkpt lat="48.21465" lon="7.2667">
        <ele>583</ele>
        <time>2000-01-01T16:09:15.000Z</time>
      </trkpt>
      <trkpt lat="48.21465" lon="7.26679">
        <ele>591.3</ele>
        <time>2000-01-01T16:09:25.000Z</time>
      </trkpt>
      <trkpt lat="48.21463" lon="7.26685">
        <ele>591.4</ele>
        <time>2000-01-01T16:09:35.000Z</time>
      </trkpt>
      <trkpt lat="48.21466" lon="7.26701">
        <ele>583</ele>
        <time>2000-01-01T16:09:45.000Z</time>
      </trkpt>
      <trkpt lat="48.21463" lon="7.26711">
        <ele>589.2</ele>
        <time>2000-01-01T16:09:55.000Z</time>
      </trkpt>
      <trkpt lat="48.21453" lon="7.26724">
        <ele>585</ele>
        <time>2000-01-01T16:10:05.000Z</time>
      </trkpt>
      <trkpt lat="48.21444" lon="7.26741">
        <ele>590.2</ele>
        <time>2000-01-01T16:10:15.000Z</time>
      </trkpt>
      <trkpt lat="48.21437" lon="7.26757">
        <ele>590</ele>
        <time>2000-01-01T16:10:25.000Z</time>
      </trkpt>
      <trkpt lat="48.21436" lon="7.2676">
        <ele>582.5</ele>
        <time>2000-01-01T16:10:35.000Z</time>
      </trkpt>
      <trkpt lat="48.21432" lon="7.26767">
        <ele>582.1</ele>
        <time>2000-01-01T16:10:45.000Z</time>
      </trkpt>
      <trkpt lat="48.21417" lon="7.26766">
        <ele>592</ele>
        <time>2000-01-01T16:10:55.000Z</time>
      </trkpt>
      <trkpt lat="48.21405" lon="7.26767">
        <ele>589.9</ele>
        <time>2000-01-01T16:11:05.000Z</time>
      </trkpt>
      <trkpt lat="48.21391" lon="7.26766">
        <ele>592</ele>
        <time>2000-01-01T16:11:15.000Z</time>
      </trkpt>
      <trkpt lat="48.2138" lon="7.26759">
        <ele>590.4</ele>
        <time>2000-01-01T16:11:25.000Z</time>
      </trkpt>
      <trkpt lat="48.21375" lon="7.26753">
        <ele>591</ele>
        <time>2000-01-01T16:11:35.000Z</time>
      </trkpt>
      <trkpt lat="48.21365" lon="7.26743">
        <ele>606.3</ele>
        <time>2000-01-01T16:11:45.000Z</time>
      </trkpt>
      <trkpt lat="48.21342" lon="7.26736">
        <ele>591</ele>
        <time>2000-01-01T16:11:55.000Z</time>
      </trkpt>
      <trkpt lat="48.21329" lon="7.26741">
        <ele>609.2</ele>
        <time>2000-01-01T16:12:05.000Z</time>
      </trkpt>
      <trkpt lat="48.21316" lon="7.26758">
        <ele>589</ele>
        <time>2000-01-01T16:12:15.000Z</time>
      </trkpt>
      <trkpt lat="48.21309" lon="7.26778">
        <ele>601.2</ele>
        <time>2000-01-01T16:12:25.000Z</time>
      </trkpt>
      <trkpt lat="48.21295" lon="7.268">
        <ele>589</ele>
        <time>2000-01-01T16:12:35.000Z</time>
      </trkpt>
      <trkpt lat="48.21286" lon="7.26818">
        <ele>600.2</ele>
        <time>2000-01-01T16:12:45.000Z</time>
      </trkpt>
      <trkpt lat="48.21282" lon="7.26834">
        <ele>589</ele>
        <time>2000-01-01T16:12:55.000Z</time>
      </trkpt>
      <trkpt lat="48.21287" lon="7.26865">
        <ele>587</ele>
        <time>2000-01-01T16:13:05.000Z</time>
      </trkpt>
      <trkpt lat="48.21285" lon="7.26886">
        <ele>582.5</ele>
        <time>2000-01-01T16:13:15.000Z</time>
      </trkpt>
      <trkpt lat="48.2128" lon="7.26911">
        <ele>584</ele>
        <time>2000-01-01T16:13:25.000Z</time>
      </trkpt>
      <trkpt lat="48.21277" lon="7.26921">
        <ele>570.3</ele>
        <time>2000-01-01T16:13:35.000Z</time>
      </trkpt>
      <trkpt lat="48.21268" lon="7.26938">
        <ele>582</ele>
        <time>2000-01-01T16:13:45.000Z</time>
      </trkpt>
      <trkpt lat="48.21257" lon="7.26953">
        <ele>567.6</ele>
        <time>2000-01-01T16:13:55.000Z</time>
      </trkpt>
      <trkpt lat="48.21247" lon="7.26965">
        <ele>575</ele>
        <time>2000-01-01T16:14:05.000Z</time>
      </trkpt>
      <trkpt lat="48.21236" lon="7.26968">
        <ele>563.9</ele>
        <time>2000-01-01T16:14:15.000Z</time>
      </trkpt>
      <trkpt lat="48.21223" lon="7.2696">
        <ele>569</ele>
        <time>2000-01-01T16:14:25.000Z</time>
      </trkpt>
      <trkpt lat="48.21214" lon="7.26945">
        <ele>565.3</ele>
        <time>2000-01-01T16:14:35.000Z</time>
      </trkpt>
      <trkpt lat="48.21208" lon="7.26931">
        <ele>566</ele>
        <time>2000-01-01T16:14:45.000Z</time>
      </trkpt>
      <trkpt lat="48.21199" lon="7.26921">
        <ele>565.6</ele>
        <time>2000-01-01T16:14:55.000Z</time>
      </trkpt>
      <trkpt lat="48.21186" lon="7.26912">
        <ele>559</ele>
        <time>2000-01-01T16:15:05.000Z</time>
      </trkpt>
      <trkpt lat="48.2117" lon="7.26897">
        <ele>557</ele>
        <time>2000-01-01T16:15:15.000Z</time>
      </trkpt>
      <trkpt lat="48.21162" lon="7.26878">
        <ele>577.4</ele>
        <time>2000-01-01T16:15:25.000Z</time>
      </trkpt>
      <trkpt lat="48.21156" lon="7.26853">
        <ele>557</ele>
        <time>2000-01-01T16:15:35.000Z</time>
      </trkpt>
      <trkpt lat="48.21148" lon="7.26847">
        <ele>584.6</ele>
        <time>2000-01-01T16:15:45.000Z</time>
      </trkpt>
      <trkpt lat="48.21136" lon="7.26846">
        <ele>558</ele>
        <time>2000-01-01T16:15:55.000Z</time>
      </trkpt>
      <trkpt lat="48.2112" lon="7.26849">
        <ele>582.7</ele>
        <time>2000-01-01T16:16:05.000Z</time>
      </trkpt>
      <trkpt lat="48.21111" lon="7.2685">
        <ele>561</ele>
        <time>2000-01-01T16:16:15.000Z</time>
      </trkpt>
      <trkpt lat="48.21101" lon="7.26854">
        <ele>583.4</ele>
        <time>2000-01-01T16:16:25.000Z</time>
      </trkpt>
      <trkpt lat="48.21086" lon="7.26866">
        <ele>563</ele>
        <time>2000-01-01T16:16:35.000Z</time>
      </trkpt>
      <trkpt lat="48.21078" lon="7.26873">
        <ele>580.6</ele>
        <time>2000-01-01T16:16:45.000Z</time>
      </trkpt>
      <trkpt lat="48.21067" lon="7.26882">
        <ele>566</ele>
        <time>2000-01-01T16:16:55.000Z</time>
      </trkpt>
      <trkpt lat="48.21055" lon="7.26886">
        <ele>578.2</ele>
        <time>2000-01-01T16:17:05.000Z</time>
      </trkpt>
      <trkpt lat="48.21053" lon="7.26888">
        <ele>578</ele>
        <time>2000-01-01T16:17:15.000Z</time>
      </trkpt>
      <trkpt lat="48.21045" lon="7.26889">
        <ele>566</ele>
        <time>2000-01-01T16:17:25.000Z</time>
      </trkpt>
      <trkpt lat="48.21036" lon="7.26898">
        <ele>577.9</ele>
        <time>2000-01-01T16:17:35.000Z</time>
      </trkpt>
      <trkpt lat="48.21032" lon="7.26902">
        <ele>577.6</ele>
        <time>2000-01-01T16:17:45.000Z</time>
      </trkpt>
      <trkpt lat="48.21023" lon="7.2692">
        <ele>558</ele>
        <time>2000-01-01T16:17:55.000Z</time>
      </trkpt>
      <trkpt lat="48.21018" lon="7.26947">
        <ele>551</ele>
        <time>2000-01-01T16:18:05.000Z</time>
      </trkpt>
      <trkpt lat="48.2102" lon="7.26966">
        <ele>550.5</ele>
        <time>2000-01-01T16:18:15.000Z</time>
      </trkpt>
      <trkpt lat="48.21022" lon="7.26986">
        <ele>548</ele>
        <time>2000-01-01T16:18:25.000Z</time>
      </trkpt>
      <trkpt lat="48.21021" lon="7.2701">
        <ele>534.5</ele>
        <time>2000-01-01T16:18:35.000Z</time>
      </trkpt>
      <trkpt lat="48.21017" lon="7.27026">
        <ele>545</ele>
        <time>2000-01-01T16:18:45.000Z</time>
      </trkpt>
      <trkpt lat="48.21017" lon="7.27027">
        <ele>531.8</ele>
        <time>2000-01-01T16:18:55.000Z</time>
      </trkpt>
      <trkpt lat="48.21017" lon="7.27027">
        <ele>531.8</ele>
        <time>2000-01-01T16:19:05.000Z</time>
      </trkpt>
      <trkpt lat="48.21015" lon="7.27026">
        <ele>532.4</ele>
        <time>2000-01-01T16:19:15.000Z</time>
      </trkpt>
      <trkpt lat="48.21011" lon="7.27026">
        <ele>533</ele>
        <time>2000-01-01T16:19:25.000Z</time>
      </trkpt>
      <trkpt lat="48.20999" lon="7.27025">
        <ele>545</ele>
        <time>2000-01-01T16:19:35.000Z</time>
      </trkpt>
      <trkpt lat="48.20979" lon="7.27026">
        <ele>543</ele>
        <time>2000-01-01T16:19:45.000Z</time>
      </trkpt>
      <trkpt lat="48.20961" lon="7.27031">
        <ele>543</ele>
        <time>2000-01-01T16:19:55.000Z</time>
      </trkpt>
      <trkpt lat="48.20949" lon="7.27037">
        <ele>549.8</ele>
        <time>2000-01-01T16:20:05.000Z</time>
      </trkpt>
      <trkpt lat="48.20941" lon="7.27042">
        <ele>543</ele>
        <time>2000-01-01T16:20:15.000Z</time>
      </trkpt>
      <trkpt lat="48.20928" lon="7.27049">
        <ele>549.4</ele>
        <time>2000-01-01T16:20:25.000Z</time>
      </trkpt>
      <trkpt lat="48.20911" lon="7.27067">
        <ele>542</ele>
        <time>2000-01-01T16:20:35.000Z</time>
      </trkpt>
      <trkpt lat="48.20901" lon="7.27082">
        <ele>550</ele>
        <time>2000-01-01T16:20:45.000Z</time>
      </trkpt>
      <trkpt lat="48.2089" lon="7.27095">
        <ele>542</ele>
        <time>2000-01-01T16:20:55.000Z</time>
      </trkpt>
      <trkpt lat="48.20883" lon="7.27105">
        <ele>534.1</ele>
        <time>2000-01-01T16:21:05.000Z</time>
      </trkpt>
      <trkpt lat="48.20873" lon="7.27117">
        <ele>540</ele>
        <time>2000-01-01T16:21:15.000Z</time>
      </trkpt>
      <trkpt lat="48.20861" lon="7.27125">
        <ele>531.6</ele>
        <time>2000-01-01T16:21:25.000Z</time>
      </trkpt>
      <trkpt lat="48.20847" lon="7.27138">
        <ele>540</ele>
        <time>2000-01-01T16:21:35.000Z</time>
      </trkpt>
      <trkpt lat="48.20838" lon="7.27146">
        <ele>527.3</ele>
        <time>2000-01-01T16:21:45.000Z</time>
      </trkpt>
      <trkpt lat="48.20823" lon="7.27149">
        <ele>528</ele>
        <time>2000-01-01T16:21:55.000Z</time>
      </trkpt>
      <trkpt lat="48.20817" lon="7.27144">
        <ele>526.8</ele>
        <time>2000-01-01T16:22:05.000Z</time>
      </trkpt>
      <trkpt lat="48.20814" lon="7.27138">
        <ele>527.8</ele>
        <time>2000-01-01T16:22:15.000Z</time>
      </trkpt>
      <trkpt lat="48.20798" lon="7.2714">
        <ele>513</ele>
        <time>2000-01-01T16:22:25.000Z</time>
      </trkpt>
      <trkpt lat="48.20776" lon="7.27141">
        <ele>508</ele>
        <time>2000-01-01T16:22:35.000Z</time>
      </trkpt>
      <trkpt lat="48.20762" lon="7.27139">
        <ele>523.3</ele>
        <time>2000-01-01T16:22:45.000Z</time>
      </trkpt>
      <trkpt lat="48.20759" lon="7.2714">
        <ele>522.8</ele>
        <time>2000-01-01T16:22:55.000Z</time>
      </trkpt>
      <trkpt lat="48.20756" lon="7.2714">
        <ele>522.6</ele>
        <time>2000-01-01T16:23:05.000Z</time>
      </trkpt>
      <trkpt lat="48.20756" lon="7.2714">
        <ele>523</ele>
        <time>2000-01-01T16:23:15.000Z</time>
      </trkpt>
      <trkpt lat="48.2075" lon="7.2714">
        <ele>522.3</ele>
        <time>2000-01-01T16:23:25.000Z</time>
      </trkpt>
      <trkpt lat="48.20742" lon="7.27137">
        <ele>515</ele>
        <time>2000-01-01T16:23:35.000Z</time>
      </trkpt>
      <trkpt lat="48.20728" lon="7.27133">
        <ele>505</ele>
        <time>2000-01-01T16:23:45.000Z</time>
      </trkpt>
      <trkpt lat="48.20723" lon="7.27132">
        <ele>515</ele>
        <time>2000-01-01T16:23:55.000Z</time>
      </trkpt>
      <trkpt lat="48.20721" lon="7.27129">
        <ele>515.2</ele>
        <time>2000-01-01T16:24:05.000Z</time>
      </trkpt>
      <trkpt lat="48.20716" lon="7.27125">
        <ele>515.3</ele>
        <time>2000-01-01T16:24:15.000Z</time>
      </trkpt>
      <trkpt lat="48.20713" lon="7.27123">
        <ele>515.3</ele>
        <time>2000-01-01T16:24:25.000Z</time>
      </trkpt>
      <trkpt lat="48.207" lon="7.27121">
        <ele>502</ele>
        <time>2000-01-01T16:24:35.000Z</time>
      </trkpt>
      <trkpt lat="48.20687" lon="7.27122">
        <ele>513.6</ele>
        <time>2000-01-01T16:24:45.000Z</time>
      </trkpt>
      <trkpt lat="48.20678" lon="7.27125">
        <ele>500</ele>
        <time>2000-01-01T16:24:55.000Z</time>
      </trkpt>
      <trkpt lat="48.2066" lon="7.27133">
        <ele>498</ele>
        <time>2000-01-01T16:25:05.000Z</time>
      </trkpt>
      <trkpt lat="48.20643" lon="7.27139">
        <ele>500.6</ele>
        <time>2000-01-01T16:25:15.000Z</time>
      </trkpt>
      <trkpt lat="48.20631" lon="7.27132">
        <ele>497</ele>
        <time>2000-01-01T16:25:25.000Z</time>
      </trkpt>
      <trkpt lat="48.2063" lon="7.2713">
        <ele>500.1</ele>
        <time>2000-01-01T16:25:35.000Z</time>
      </trkpt>
      <trkpt lat="48.20621" lon="7.27121">
        <ele>499.9</ele>
        <time>2000-01-01T16:25:45.000Z</time>
      </trkpt>
      <trkpt lat="48.20614" lon="7.27111">
        <ele>494</ele>
        <time>2000-01-01T16:25:55.000Z</time>
      </trkpt>
      <trkpt lat="48.20605" lon="7.27091">
        <ele>499.1</ele>
        <time>2000-01-01T16:26:05.000Z</time>
      </trkpt>
      <trkpt lat="48.20599" lon="7.27082">
        <ele>488</ele>
        <time>2000-01-01T16:26:15.000Z</time>
      </trkpt>
      <trkpt lat="48.20595" lon="7.27081">
        <ele>499.7</ele>
        <time>2000-01-01T16:26:25.000Z</time>
      </trkpt>
      <trkpt lat="48.20586" lon="7.27087">
        <ele>496.7</ele>
        <time>2000-01-01T16:26:35.000Z</time>
      </trkpt>
      <trkpt lat="48.20582" lon="7.2709">
        <ele>485</ele>
        <time>2000-01-01T16:26:45.000Z</time>
      </trkpt>
      <trkpt lat="48.20582" lon="7.27085">
        <ele>494.6</ele>
        <time>2000-01-01T16:26:55.000Z</time>
      </trkpt>
      <trkpt lat="48.2058" lon="7.27078">
        <ele>493.3</ele>
        <time>2000-01-01T16:27:05.000Z</time>
      </trkpt>
      <trkpt lat="48.20575" lon="7.27082">
        <ele>492.4</ele>
        <time>2000-01-01T16:27:15.000Z</time>
      </trkpt>
      <trkpt lat="48.20565" lon="7.27094">
        <ele>477</ele>
        <time>2000-01-01T16:27:25.000Z</time>
      </trkpt>
      <trkpt lat="48.20561" lon="7.27098">
        <ele>484.6</ele>
        <time>2000-01-01T16:27:35.000Z</time>
      </trkpt>
      <trkpt lat="48.20556" lon="7.2709">
        <ele>484</ele>
        <time>2000-01-01T16:27:45.000Z</time>
      </trkpt>
      <trkpt lat="48.20554" lon="7.27083">
        <ele>486.4</ele>
        <time>2000-01-01T16:27:55.000Z</time>
      </trkpt>
      <trkpt lat="48.20552" lon="7.27079">
        <ele>473</ele>
        <time>2000-01-01T16:28:05.000Z</time>
      </trkpt>
      <trkpt lat="48.20549" lon="7.27077">
        <ele>485.2</ele>
        <time>2000-01-01T16:28:15.000Z</time>
      </trkpt>
      <trkpt lat="48.2054" lon="7.27087">
        <ele>480</ele>
        <time>2000-01-01T16:28:25.000Z</time>
      </trkpt>
      <trkpt lat="48.20537" lon="7.27089">
        <ele>479.3</ele>
        <time>2000-01-01T16:28:35.000Z</time>
      </trkpt>
      <trkpt lat="48.20535" lon="7.27086">
        <ele>464</ele>
        <time>2000-01-01T16:28:45.000Z</time>
      </trkpt>
      <trkpt lat="48.20528" lon="7.27093">
        <ele>477.3</ele>
        <time>2000-01-01T16:28:55.000Z</time>
      </trkpt>
      <trkpt lat="48.20521" lon="7.27107">
        <ele>460</ele>
        <time>2000-01-01T16:29:05.000Z</time>
      </trkpt>
      <trkpt lat="48.20515" lon="7.27118">
        <ele>475.9</ele>
        <time>2000-01-01T16:29:15.000Z</time>
      </trkpt>
      <trkpt lat="48.20511" lon="7.27133">
        <ele>455</ele>
        <time>2000-01-01T16:29:25.000Z</time>
      </trkpt>
      <trkpt lat="48.20506" lon="7.27144">
        <ele>473</ele>
        <time>2000-01-01T16:29:35.000Z</time>
      </trkpt>
      <trkpt lat="48.20502" lon="7.27154">
        <ele>470.4</ele>
        <time>2000-01-01T16:29:45.000Z</time>
      </trkpt>
      <trkpt lat="48.20495" lon="7.27166">
        <ele>447</ele>
        <time>2000-01-01T16:29:55.000Z</time>
      </trkpt>
      <trkpt lat="48.20487" lon="7.27172">
        <ele>454.7</ele>
        <time>2000-01-01T16:30:05.000Z</time>
      </trkpt>
      <trkpt lat="48.20478" lon="7.27177">
        <ele>443</ele>
        <time>2000-01-01T16:30:15.000Z</time>
      </trkpt>
      <trkpt lat="48.20471" lon="7.27185">
        <ele>446.6</ele>
        <time>2000-01-01T16:30:25.000Z</time>
      </trkpt>
      <trkpt lat="48.20464" lon="7.27193">
        <ele>444</ele>
        <time>2000-01-01T16:30:35.000Z</time>
      </trkpt>
      <trkpt lat="48.20457" lon="7.27198">
        <ele>442</ele>
        <time>2000-01-01T16:30:45.000Z</time>
      </trkpt>
      <trkpt lat="48.20454" lon="7.272">
        <ele>441.5</ele>
        <time>2000-01-01T16:30:55.000Z</time>
      </trkpt>
      <trkpt lat="48.20448" lon="7.27206">
        <ele>440</ele>
        <time>2000-01-01T16:31:05.000Z</time>
      </trkpt>
      <trkpt lat="48.20447" lon="7.27199">
        <ele>440.3</ele>
        <time>2000-01-01T16:31:15.000Z</time>
      </trkpt>
      <trkpt lat="48.20444" lon="7.27189">
        <ele>438</ele>
        <time>2000-01-01T16:31:25.000Z</time>
      </trkpt>
      <trkpt lat="48.20437" lon="7.27194">
        <ele>439</ele>
        <time>2000-01-01T16:31:35.000Z</time>
      </trkpt>
      <trkpt lat="48.20426" lon="7.272">
        <ele>431</ele>
        <time>2000-01-01T16:31:45.000Z</time>
      </trkpt>
      <trkpt lat="48.20418" lon="7.27206">
        <ele>436.5</ele>
        <time>2000-01-01T16:31:55.000Z</time>
      </trkpt>
      <trkpt lat="48.20408" lon="7.27214">
        <ele>423</ele>
        <time>2000-01-01T16:32:05.000Z</time>
      </trkpt>
      <trkpt lat="48.20402" lon="7.27221">
        <ele>417.1</ele>
        <time>2000-01-01T16:32:15.000Z</time>
      </trkpt>
      <trkpt lat="48.204" lon="7.2723">
        <ele>417</ele>
        <time>2000-01-01T16:32:25.000Z</time>
      </trkpt>
      <trkpt lat="48.20399" lon="7.27238">
        <ele>421</ele>
        <time>2000-01-01T16:32:35.000Z</time>
      </trkpt>
      <trkpt lat="48.20399" lon="7.27245">
        <ele>417.4</ele>
        <time>2000-01-01T16:32:45.000Z</time>
      </trkpt>
      <trkpt lat="48.20402" lon="7.27249">
        <ele>418.1</ele>
        <time>2000-01-01T16:32:55.000Z</time>
      </trkpt>
      <trkpt lat="48.20402" lon="7.2725">
        <ele>418.1</ele>
        <time>2000-01-01T16:33:05.000Z</time>
      </trkpt>
      <trkpt lat="48.20397" lon="7.27252">
        <ele>410</ele>
        <time>2000-01-01T16:33:15.000Z</time>
      </trkpt>
      <trkpt lat="48.20394" lon="7.27252">
        <ele>408.9</ele>
        <time>2000-01-01T16:33:25.000Z</time>
      </trkpt>
      <trkpt lat="48.20394" lon="7.27258">
        <ele>418</ele>
        <time>2000-01-01T16:33:35.000Z</time>
      </trkpt>
      <trkpt lat="48.20396" lon="7.27261">
        <ele>408.3</ele>
        <time>2000-01-01T16:33:45.000Z</time>
      </trkpt>
      <trkpt lat="48.20395" lon="7.27263">
        <ele>407.6</ele>
        <time>2000-01-01T16:33:55.000Z</time>
      </trkpt>
      <trkpt lat="48.20395" lon="7.27265">
        <ele>407.2</ele>
        <time>2000-01-01T16:34:05.000Z</time>
      </trkpt>
      <trkpt lat="48.20393" lon="7.27267">
        <ele>406.3</ele>
        <time>2000-01-01T16:34:15.000Z</time>
      </trkpt>
      <trkpt lat="48.20388" lon="7.27268">
        <ele>405</ele>
        <time>2000-01-01T16:34:25.000Z</time>
      </trkpt>
      <trkpt lat="48.20388" lon="7.27271">
        <ele>404.5</ele>
        <time>2000-01-01T16:34:35.000Z</time>
      </trkpt>
      <trkpt lat="48.20386" lon="7.2727">
        <ele>404.3</ele>
        <time>2000-01-01T16:34:45.000Z</time>
      </trkpt>
      <trkpt lat="48.20383" lon="7.27269">
        <ele>409</ele>
        <time>2000-01-01T16:34:55.000Z</time>
      </trkpt>
      <trkpt lat="48.2038" lon="7.2727">
        <ele>403.3</ele>
        <time>2000-01-01T16:35:05.000Z</time>
      </trkpt>
      <trkpt lat="48.20378" lon="7.27275">
        <ele>402.3</ele>
        <time>2000-01-01T16:35:15.000Z</time>
      </trkpt>
      <trkpt lat="48.20377" lon="7.27281">
        <ele>401.4</ele>
        <time>2000-01-01T16:35:25.000Z</time>
      </trkpt>
      <trkpt lat="48.20374" lon="7.27285">
        <ele>400.5</ele>
        <time>2000-01-01T16:35:35.000Z</time>
      </trkpt>
      <trkpt lat="48.20372" lon="7.27291">
        <ele>400</ele>
        <time>2000-01-01T16:35:45.000Z</time>
      </trkpt>
      <trkpt lat="48.20371" lon="7.27291">
        <ele>399.4</ele>
        <time>2000-01-01T16:35:55.000Z</time>
      </trkpt>
      <trkpt lat="48.20367" lon="7.2729">
        <ele>399.2</ele>
        <time>2000-01-01T16:36:05.000Z</time>
      </trkpt>
      <trkpt lat="48.20364" lon="7.27292">
        <ele>398.6</ele>
        <time>2000-01-01T16:36:15.000Z</time>
      </trkpt>
      <trkpt lat="48.2036" lon="7.27302">
        <ele>396.9</ele>
        <time>2000-01-01T16:36:25.000Z</time>
      </trkpt>
      <trkpt lat="48.20357" lon="7.27308">
        <ele>389</ele>
        <time>2000-01-01T16:36:35.000Z</time>
      </trkpt>
      <trkpt lat="48.20354" lon="7.27308">
        <ele>395.2</ele>
        <time>2000-01-01T16:36:45.000Z</time>
      </trkpt>
      <trkpt lat="48.20354" lon="7.27306">
        <ele>395.6</ele>
        <time>2000-01-01T16:36:55.000Z</time>
      </trkpt>
      <trkpt lat="48.20351" lon="7.27313">
        <ele>393.9</ele>
        <time>2000-01-01T16:37:05.000Z</time>
      </trkpt>
      <trkpt lat="48.20351" lon="7.27323">
        <ele>392</ele>
        <time>2000-01-01T16:37:15.000Z</time>
      </trkpt>
      <trkpt lat="48.20349" lon="7.27331">
        <ele>379</ele>
        <time>2000-01-01T16:37:25.000Z</time>
      </trkpt>
      <trkpt lat="48.20347" lon="7.27338">
        <ele>381.8</ele>
        <time>2000-01-01T16:37:35.000Z</time>
      </trkpt>
      <trkpt lat="48.20346" lon="7.27341">
        <ele>381.7</ele>
        <time>2000-01-01T16:37:45.000Z</time>
      </trkpt>
      <trkpt lat="48.20347" lon="7.27344">
        <ele>381.4</ele>
        <time>2000-01-01T16:37:55.000Z</time>
      </trkpt>
      <trkpt lat="48.20346" lon="7.27347">
        <ele>381.2</ele>
        <time>2000-01-01T16:38:05.000Z</time>
      </trkpt>
      <trkpt lat="48.20339" lon="7.27344">
        <ele>378</ele>
        <time>2000-01-01T16:38:15.000Z</time>
      </trkpt>
      <trkpt lat="48.20336" lon="7.27346">
        <ele>381.4</ele>
        <time>2000-01-01T16:38:25.000Z</time>
      </trkpt>
      <trkpt lat="48.20337" lon="7.2736">
        <ele>379.6</ele>
        <time>2000-01-01T16:38:35.000Z</time>
      </trkpt>
      <trkpt lat="48.2034" lon="7.2737">
        <ele>377</ele>
        <time>2000-01-01T16:38:45.000Z</time>
      </trkpt>
      <trkpt lat="48.20346" lon="7.27377">
        <ele>377.4</ele>
        <time>2000-01-01T16:38:55.000Z</time>
      </trkpt>
      <trkpt lat="48.20346" lon="7.27379">
        <ele>377</ele>
        <time>2000-01-01T16:39:05.000Z</time>
      </trkpt>
      <trkpt lat="48.20346" lon="7.2738">
        <ele>376.8</ele>
        <time>2000-01-01T16:39:15.000Z</time>
      </trkpt>
      <trkpt lat="48.20346" lon="7.27382">
        <ele>376.5</ele>
        <time>2000-01-01T16:39:25.000Z</time>
      </trkpt>
      <trkpt lat="48.20347" lon="7.27384">
        <ele>376.2</ele>
        <time>2000-01-01T16:39:35.000Z</time>
      </trkpt>
      <trkpt lat="48.2035" lon="7.27396">
        <ele>367</ele>
        <time>2000-01-01T16:39:45.000Z</time>
      </trkpt>
      <trkpt lat="48.20351" lon="7.274">
        <ele>373.4</ele>
        <time>2000-01-01T16:39:55.000Z</time>
      </trkpt>
      <trkpt lat="48.20357" lon="7.27407">
        <ele>373.7</ele>
        <time>2000-01-01T16:40:05.000Z</time>
      </trkpt>
      <trkpt lat="48.20364" lon="7.27405">
        <ele>366</ele>
        <time>2000-01-01T16:40:15.000Z</time>
      </trkpt>
      <trkpt lat="48.20369" lon="7.27405">
        <ele>376.4</ele>
        <time>2000-01-01T16:40:25.000Z</time>
      </trkpt>
      <trkpt lat="48.20366" lon="7.27409">
        <ele>375.5</ele>
        <time>2000-01-01T16:40:35.000Z</time>
      </trkpt>
      <trkpt lat="48.20371" lon="7.27419">
        <ele>373.6</ele>
        <time>2000-01-01T16:40:45.000Z</time>
      </trkpt>
      <trkpt lat="48.20377" lon="7.27428">
        <ele>372</ele>
        <time>2000-01-01T16:40:55.000Z</time>
      </trkpt>
      <trkpt lat="48.20386" lon="7.27438">
        <ele>376.6</ele>
        <time>2000-01-01T16:41:05.000Z</time>
      </trkpt>
      <trkpt lat="48.20386" lon="7.27439">
        <ele>376.6</ele>
        <time>2000-01-01T16:41:15.000Z</time>
      </trkpt>
      <trkpt lat="48.20411" lon="7.27508">
        <ele>374</ele>
        <time>2000-01-01T16:41:25.000Z</time>
      </trkpt>
      <trkpt lat="48.20408" lon="7.27513">
        <ele>391.3</ele>
        <time>2000-01-01T16:41:35.000Z</time>
      </trkpt>
      <trkpt lat="48.20405" lon="7.27517">
        <ele>390.2</ele>
        <time>2000-01-01T16:41:45.000Z</time>
      </trkpt>
      <trkpt lat="48.20401" lon="7.27529">
        <ele>388.7</ele>
        <time>2000-01-01T16:41:55.000Z</time>
      </trkpt>
      <trkpt lat="48.20405" lon="7.27544">
        <ele>377</ele>
        <time>2000-01-01T16:42:05.000Z</time>
      </trkpt>
      <trkpt lat="48.20407" lon="7.27551">
        <ele>390.7</ele>
        <time>2000-01-01T16:42:15.000Z</time>
      </trkpt>
      <trkpt lat="48.20408" lon="7.27556">
        <ele>391.7</ele>
        <time>2000-01-01T16:42:25.000Z</time>
      </trkpt>
      <trkpt lat="48.20409" lon="7.27559">
        <ele>392.5</ele>
        <time>2000-01-01T16:42:35.000Z</time>
      </trkpt>
      <trkpt lat="48.20409" lon="7.27563">
        <ele>393.5</ele>
        <time>2000-01-01T16:42:45.000Z</time>
      </trkpt>
      <trkpt lat="48.20407" lon="7.27567">
        <ele>394.2</ele>
        <time>2000-01-01T16:42:55.000Z</time>
      </trkpt>
      <trkpt lat="48.20407" lon="7.27572">
        <ele>384</ele>
        <time>2000-01-01T16:43:05.000Z</time>
      </trkpt>
      <trkpt lat="48.20407" lon="7.27573">
        <ele>396</ele>
        <time>2000-01-01T16:43:15.000Z</time>
      </trkpt>
      <trkpt lat="48.20408" lon="7.27577">
        <ele>397.7</ele>
        <time>2000-01-01T16:43:25.000Z</time>
      </trkpt>
      <trkpt lat="48.20409" lon="7.27584">
        <ele>402.1</ele>
        <time>2000-01-01T16:43:35.000Z</time>
      </trkpt>
      <trkpt lat="48.20408" lon="7.27587">
        <ele>401.6</ele>
        <time>2000-01-01T16:43:45.000Z</time>
      </trkpt>
      <trkpt lat="48.20408" lon="7.27588">
        <ele>401.5</ele>
        <time>2000-01-01T16:43:55.000Z</time>
      </trkpt>
      <trkpt lat="48.20409" lon="7.27593">
        <ele>401.1</ele>
        <time>2000-01-01T16:44:05.000Z</time>
      </trkpt>
      <trkpt lat="48.2041" lon="7.27602">
        <ele>386</ele>
        <time>2000-01-01T16:44:15.000Z</time>
      </trkpt>
      <trkpt lat="48.2041" lon="7.27603">
        <ele>400</ele>
        <time>2000-01-01T16:44:25.000Z</time>
      </trkpt>
      <trkpt lat="48.20409" lon="7.27606">
        <ele>399.7</ele>
        <time>2000-01-01T16:44:35.000Z</time>
      </trkpt>
      <trkpt lat="48.20408" lon="7.27607">
        <ele>399.5</ele>
        <time>2000-01-01T16:44:45.000Z</time>
      </trkpt>
      <trkpt lat="48.20409" lon="7.27612">
        <ele>399.5</ele>
        <time>2000-01-01T16:44:55.000Z</time>
      </trkpt>
      <trkpt lat="48.2041" lon="7.27619">
        <ele>399.8</ele>
        <time>2000-01-01T16:45:05.000Z</time>
      </trkpt>
      <trkpt lat="48.2041" lon="7.27624">
        <ele>400.1</ele>
        <time>2000-01-01T16:45:15.000Z</time>
      </trkpt>
      <trkpt lat="48.20409" lon="7.27629">
        <ele>389</ele>
        <time>2000-01-01T16:45:25.000Z</time>
      </trkpt>
      <trkpt lat="48.20409" lon="7.27631">
        <ele>400.8</ele>
        <time>2000-01-01T16:45:35.000Z</time>
      </trkpt>
      <trkpt lat="48.20408" lon="7.27634">
        <ele>401.2</ele>
        <time>2000-01-01T16:45:45.000Z</time>
      </trkpt>
      <trkpt lat="48.20409" lon="7.27636">
        <ele>401.6</ele>
        <time>2000-01-01T16:45:55.000Z</time>
      </trkpt>
      <trkpt lat="48.20408" lon="7.27639">
        <ele>402.1</ele>
        <time>2000-01-01T16:46:05.000Z</time>
      </trkpt>
      <trkpt lat="48.20408" lon="7.2764">
        <ele>402.3</ele>
        <time>2000-01-01T16:46:15.000Z</time>
      </trkpt>
      <trkpt lat="48.20407" lon="7.27642">
        <ele>402.6</ele>
        <time>2000-01-01T16:46:25.000Z</time>
      </trkpt>
      <trkpt lat="48.20407" lon="7.27644">
        <ele>403</ele>
        <time>2000-01-01T16:46:35.000Z</time>
      </trkpt>
      <trkpt lat="48.20406" lon="7.27652">
        <ele>405</ele>
        <time>2000-01-01T16:46:45.000Z</time>
      </trkpt>
      <trkpt lat="48.20405" lon="7.27657">
        <ele>398</ele>
        <time>2000-01-01T16:46:55.000Z</time>
      </trkpt>
      <trkpt lat="48.20403" lon="7.27663">
        <ele>406.5</ele>
        <time>2000-01-01T16:47:05.000Z</time>
      </trkpt>
      <trkpt lat="48.20399" lon="7.27682">
        <ele>411.4</ele>
        <time>2000-01-01T16:47:15.000Z</time>
      </trkpt>
      <trkpt lat="48.20396" lon="7.2769">
        <ele>404</ele>
        <time>2000-01-01T16:47:25.000Z</time>
      </trkpt>
      <trkpt lat="48.20396" lon="7.27701">
        <ele>411.7</ele>
        <time>2000-01-01T16:47:35.000Z</time>
      </trkpt>
      <trkpt lat="48.20393" lon="7.27708">
        <ele>411.9</ele>
        <time>2000-01-01T16:47:45.000Z</time>
      </trkpt>
      <trkpt lat="48.20392" lon="7.27716">
        <ele>406</ele>
        <time>2000-01-01T16:47:55.000Z</time>
      </trkpt>
      <trkpt lat="48.20387" lon="7.27725">
        <ele>412.9</ele>
        <time>2000-01-01T16:48:05.000Z</time>
      </trkpt>
      <trkpt lat="48.20384" lon="7.27728">
        <ele>412.7</ele>
        <time>2000-01-01T16:48:15.000Z</time>
      </trkpt>
      <trkpt lat="48.20382" lon="7.27731">
        <ele>412.6</ele>
        <time>2000-01-01T16:48:25.000Z</time>
      </trkpt>
      <trkpt lat="48.20386" lon="7.27736">
        <ele>406</ele>
        <time>2000-01-01T16:48:35.000Z</time>
      </trkpt>
      <trkpt lat="48.20386" lon="7.27742">
        <ele>414.4</ele>
        <time>2000-01-01T16:48:45.000Z</time>
      </trkpt>
      <trkpt lat="48.20381" lon="7.27753">
        <ele>421.8</ele>
        <time>2000-01-01T16:48:55.000Z</time>
      </trkpt>
      <trkpt lat="48.20377" lon="7.27765">
        <ele>408</ele>
        <time>2000-01-01T16:49:05.000Z</time>
      </trkpt>
      <trkpt lat="48.20376" lon="7.27774">
        <ele>421.7</ele>
        <time>2000-01-01T16:49:15.000Z</time>
      </trkpt>
      <trkpt lat="48.20372" lon="7.27783">
        <ele>421.7</ele>
        <time>2000-01-01T16:49:25.000Z</time>
      </trkpt>
      <trkpt lat="48.20369" lon="7.27788">
        <ele>421.6</ele>
        <time>2000-01-01T16:49:35.000Z</time>
      </trkpt>
      <trkpt lat="48.20368" lon="7.27793">
        <ele>414</ele>
        <time>2000-01-01T16:49:45.000Z</time>
      </trkpt>
      <trkpt lat="48.20368" lon="7.27794">
        <ele>421.9</ele>
        <time>2000-01-01T16:49:55.000Z</time>
      </trkpt>
      <trkpt lat="48.2037" lon="7.27799">
        <ele>422.5</ele>
        <time>2000-01-01T16:50:05.000Z</time>
      </trkpt>
      <trkpt lat="48.20373" lon="7.27797">
        <ele>422.8</ele>
        <time>2000-01-01T16:50:15.000Z</time>
      </trkpt>
      <trkpt lat="48.20389" lon="7.27795">
        <ele>416</ele>
        <time>2000-01-01T16:50:25.000Z</time>
      </trkpt>
      <trkpt lat="48.20391" lon="7.27794">
        <ele>425.2</ele>
        <time>2000-01-01T16:50:35.000Z</time>
      </trkpt>
      <trkpt lat="48.20393" lon="7.27793">
        <ele>425.4</ele>
        <time>2000-01-01T16:50:45.000Z</time>
      </trkpt>
      <trkpt lat="48.20401" lon="7.27794">
        <ele>426.5</ele>
        <time>2000-01-01T16:50:55.000Z</time>
      </trkpt>
      <trkpt lat="48.20402" lon="7.27794">
        <ele>426.6</ele>
        <time>2000-01-01T16:51:05.000Z</time>
      </trkpt>
      <trkpt lat="48.20403" lon="7.27806">
        <ele>421</ele>
        <time>2000-01-01T16:51:15.000Z</time>
      </trkpt>
      <trkpt lat="48.20404" lon="7.27817">
        <ele>431.1</ele>
        <time>2000-01-01T16:51:25.000Z</time>
      </trkpt>
      <trkpt lat="48.20404" lon="7.27823">
        <ele>432.6</ele>
        <time>2000-01-01T16:51:35.000Z</time>
      </trkpt>
      <trkpt lat="48.20404" lon="7.27825">
        <ele>433.1</ele>
        <time>2000-01-01T16:51:45.000Z</time>
      </trkpt>
      <trkpt lat="48.20404" lon="7.27831">
        <ele>434.2</ele>
        <time>2000-01-01T16:51:55.000Z</time>
      </trkpt>
      <trkpt lat="48.20405" lon="7.27832">
        <ele>434.7</ele>
        <time>2000-01-01T16:52:05.000Z</time>
      </trkpt>
      <trkpt lat="48.20402" lon="7.27839">
        <ele>427</ele>
        <time>2000-01-01T16:52:15.000Z</time>
      </trkpt>
      <trkpt lat="48.20403" lon="7.27841">
        <ele>435.5</ele>
        <time>2000-01-01T16:52:25.000Z</time>
      </trkpt>
      <trkpt lat="48.20406" lon="7.27844">
        <ele>435.9</ele>
        <time>2000-01-01T16:52:35.000Z</time>
      </trkpt>
      <trkpt lat="48.20409" lon="7.27846">
        <ele>436.2</ele>
        <time>2000-01-01T16:52:45.000Z</time>
      </trkpt>
      <trkpt lat="48.20409" lon="7.27848">
        <ele>435.7</ele>
        <time>2000-01-01T16:52:55.000Z</time>
      </trkpt>
      <trkpt lat="48.20412" lon="7.27858">
        <ele>434.6</ele>
        <time>2000-01-01T16:53:05.000Z</time>
      </trkpt>
      <trkpt lat="48.20412" lon="7.27862">
        <ele>435</ele>
        <time>2000-01-01T16:53:15.000Z</time>
      </trkpt>
      <trkpt lat="48.20416" lon="7.27868">
        <ele>434.2</ele>
        <time>2000-01-01T16:53:25.000Z</time>
      </trkpt>
      <trkpt lat="48.20417" lon="7.27872">
        <ele>451.6</ele>
        <time>2000-01-01T16:53:35.000Z</time>
      </trkpt>
      <trkpt lat="48.20413" lon="7.27879">
        <ele>434.2</ele>
        <time>2000-01-01T16:53:45.000Z</time>
      </trkpt>
      <trkpt lat="48.20411" lon="7.27883">
        <ele>438</ele>
        <time>2000-01-01T16:53:55.000Z</time>
      </trkpt>
      <trkpt lat="48.2041" lon="7.27889">
        <ele>435.1</ele>
        <time>2000-01-01T16:54:05.000Z</time>
      </trkpt>
      <trkpt lat="48.20406" lon="7.27898">
        <ele>436.2</ele>
        <time>2000-01-01T16:54:15.000Z</time>
      </trkpt>
      <trkpt lat="48.20405" lon="7.27914">
        <ele>441</ele>
        <time>2000-01-01T16:54:25.000Z</time>
      </trkpt>
      <trkpt lat="48.20406" lon="7.27917">
        <ele>439.8</ele>
        <time>2000-01-01T16:54:35.000Z</time>
      </trkpt>
      <trkpt lat="48.20405" lon="7.27922">
        <ele>438.7</ele>
        <time>2000-01-01T16:54:45.000Z</time>
      </trkpt>
      <trkpt lat="48.20408" lon="7.27929">
        <ele>438</ele>
        <time>2000-01-01T16:54:55.000Z</time>
      </trkpt>
      <trkpt lat="48.20409" lon="7.27932">
        <ele>437.3</ele>
        <time>2000-01-01T16:55:05.000Z</time>
      </trkpt>
      <trkpt lat="48.2041" lon="7.27933">
        <ele>437.2</ele>
        <time>2000-01-01T16:55:15.000Z</time>
      </trkpt>
      <trkpt lat="48.20418" lon="7.27923">
        <ele>443</ele>
        <time>2000-01-01T16:55:25.000Z</time>
      </trkpt>
      <trkpt lat="48.20418" lon="7.27922">
        <ele>449.9</ele>
        <time>2000-01-01T16:55:35.000Z</time>
      </trkpt>
      <trkpt lat="48.20432" lon="7.27909">
        <ele>451.9</ele>
        <time>2000-01-01T16:55:45.000Z</time>
      </trkpt>
      <trkpt lat="48.20436" lon="7.27903">
        <ele>446</ele>
        <time>2000-01-01T16:55:55.000Z</time>
      </trkpt>
      <trkpt lat="48.20439" lon="7.27896">
        <ele>453.8</ele>
        <time>2000-01-01T16:56:05.000Z</time>
      </trkpt>
      <trkpt lat="48.2044" lon="7.27896">
        <ele>454</ele>
        <time>2000-01-01T16:56:15.000Z</time>
      </trkpt>
      <trkpt lat="48.20437" lon="7.27907">
        <ele>453.1</ele>
        <time>2000-01-01T16:56:25.000Z</time>
      </trkpt>
      <trkpt lat="48.20436" lon="7.27932">
        <ele>449</ele>
        <time>2000-01-01T16:56:35.000Z</time>
      </trkpt>
      <trkpt lat="48.20437" lon="7.27936">
        <ele>457</ele>
        <time>2000-01-01T16:56:45.000Z</time>
      </trkpt>
      <trkpt lat="48.20435" lon="7.27949">
        <ele>457.8</ele>
        <time>2000-01-01T16:56:55.000Z</time>
      </trkpt>
      <trkpt lat="48.20439" lon="7.27962">
        <ele>452</ele>
        <time>2000-01-01T16:57:05.000Z</time>
      </trkpt>
      <trkpt lat="48.20442" lon="7.27971">
        <ele>459.1</ele>
        <time>2000-01-01T16:57:15.000Z</time>
      </trkpt>
      <trkpt lat="48.20443" lon="7.27975">
        <ele>459.2</ele>
        <time>2000-01-01T16:57:25.000Z</time>
      </trkpt>
      <trkpt lat="48.20446" lon="7.27986">
        <ele>459.4</ele>
        <time>2000-01-01T16:57:35.000Z</time>
      </trkpt>
      <trkpt lat="48.20447" lon="7.27997">
        <ele>454</ele>
        <time>2000-01-01T16:57:45.000Z</time>
      </trkpt>
      <trkpt lat="48.20453" lon="7.2801">
        <ele>462.5</ele>
        <time>2000-01-01T16:57:55.000Z</time>
      </trkpt>
      <trkpt lat="48.20454" lon="7.28011">
        <ele>462.8</ele>
        <time>2000-01-01T16:58:05.000Z</time>
      </trkpt>
      <trkpt lat="48.20461" lon="7.28021">
        <ele>460</ele>
        <time>2000-01-01T16:58:15.000Z</time>
      </trkpt>
      <trkpt lat="48.20471" lon="7.28029">
        <ele>466.4</ele>
        <time>2000-01-01T16:58:25.000Z</time>
      </trkpt>
      <trkpt lat="48.20473" lon="7.28045">
        <ele>460</ele>
        <time>2000-01-01T16:58:35.000Z</time>
      </trkpt>
      <trkpt lat="48.20471" lon="7.28057">
        <ele>466.8</ele>
        <time>2000-01-01T16:58:45.000Z</time>
      </trkpt>
      <trkpt lat="48.20473" lon="7.28069">
        <ele>468</ele>
        <time>2000-01-01T16:58:55.000Z</time>
      </trkpt>
      <trkpt lat="48.20478" lon="7.28084">
        <ele>461</ele>
        <time>2000-01-01T16:59:05.000Z</time>
      </trkpt>
      <trkpt lat="48.20483" lon="7.28103">
        <ele>470.4</ele>
        <time>2000-01-01T16:59:15.000Z</time>
      </trkpt>
      <trkpt lat="48.20492" lon="7.28118">
        <ele>468</ele>
        <time>2000-01-01T16:59:25.000Z</time>
      </trkpt>
      <trkpt lat="48.20496" lon="7.28123">
        <ele>470.7</ele>
        <time>2000-01-01T16:59:35.000Z</time>
      </trkpt>
      <trkpt lat="48.20501" lon="7.28131">
        <ele>490.4</ele>
        <time>2000-01-01T16:59:45.000Z</time>
      </trkpt>
      <trkpt lat="48.20506" lon="7.28144">
        <ele>469</ele>
        <time>2000-01-01T16:59:55.000Z</time>
      </trkpt>
      <trkpt lat="48.20509" lon="7.28162">
        <ele>487.2</ele>
        <time>2000-01-01T17:00:05.000Z</time>
      </trkpt>
      <trkpt lat="48.20516" lon="7.28172">
        <ele>470</ele>
        <time>2000-01-01T17:00:15.000Z</time>
      </trkpt>
      <trkpt lat="48.20518" lon="7.28178">
        <ele>487.1</ele>
        <time>2000-01-01T17:00:25.000Z</time>
      </trkpt>
      <trkpt lat="48.20518" lon="7.28181">
        <ele>487.1</ele>
        <time>2000-01-01T17:00:35.000Z</time>
      </trkpt>
      <trkpt lat="48.20524" lon="7.28187">
        <ele>488</ele>
        <time>2000-01-01T17:00:45.000Z</time>
      </trkpt>
      <trkpt lat="48.20529" lon="7.28192">
        <ele>471</ele>
        <time>2000-01-01T17:00:55.000Z</time>
      </trkpt>
      <trkpt lat="48.20534" lon="7.28199">
        <ele>489</ele>
        <time>2000-01-01T17:01:05.000Z</time>
      </trkpt>
      <trkpt lat="48.20543" lon="7.28208">
        <ele>489.8</ele>
        <time>2000-01-01T17:01:15.000Z</time>
      </trkpt>
      <trkpt lat="48.20551" lon="7.28215">
        <ele>480</ele>
        <time>2000-01-01T17:01:25.000Z</time>
      </trkpt>
      <trkpt lat="48.20566" lon="7.2823">
        <ele>492.2</ele>
        <time>2000-01-01T17:01:35.000Z</time>
      </trkpt>
      <trkpt lat="48.20574" lon="7.28238">
        <ele>481</ele>
        <time>2000-01-01T17:01:45.000Z</time>
      </trkpt>
      <trkpt lat="48.2058" lon="7.28247">
        <ele>495.7</ele>
        <time>2000-01-01T17:01:55.000Z</time>
      </trkpt>
      <trkpt lat="48.20589" lon="7.28251">
        <ele>482</ele>
        <time>2000-01-01T17:02:05.000Z</time>
      </trkpt>
      <trkpt lat="48.20598" lon="7.28256">
        <ele>497.8</ele>
        <time>2000-01-01T17:02:15.000Z</time>
      </trkpt>
      <trkpt lat="48.20606" lon="7.2826">
        <ele>498.4</ele>
        <time>2000-01-01T17:02:25.000Z</time>
      </trkpt>
      <trkpt lat="48.20608" lon="7.2826">
        <ele>486</ele>
        <time>2000-01-01T17:02:35.000Z</time>
      </trkpt>
      <trkpt lat="48.20611" lon="7.2826">
        <ele>499</ele>
        <time>2000-01-01T17:02:45.000Z</time>
      </trkpt>
      <trkpt lat="48.20621" lon="7.28266">
        <ele>500.2</ele>
        <time>2000-01-01T17:02:55.000Z</time>
      </trkpt>
      <trkpt lat="48.20626" lon="7.28269">
        <ele>492</ele>
        <time>2000-01-01T17:03:05.000Z</time>
      </trkpt>
      <trkpt lat="48.20625" lon="7.28266">
        <ele>500.8</ele>
        <time>2000-01-01T17:03:15.000Z</time>
      </trkpt>
      <trkpt lat="48.20628" lon="7.28267">
        <ele>501.3</ele>
        <time>2000-01-01T17:03:25.000Z</time>
      </trkpt>
      <trkpt lat="48.20637" lon="7.2827">
        <ele>502.7</ele>
        <time>2000-01-01T17:03:35.000Z</time>
      </trkpt>
      <trkpt lat="48.20647" lon="7.28272">
        <ele>492</ele>
        <time>2000-01-01T17:03:45.000Z</time>
      </trkpt>
      <trkpt lat="48.20648" lon="7.28269">
        <ele>505.2</ele>
        <time>2000-01-01T17:03:55.000Z</time>
      </trkpt>
      <trkpt lat="48.20651" lon="7.28269">
        <ele>505.8</ele>
        <time>2000-01-01T17:04:05.000Z</time>
      </trkpt>
      <trkpt lat="48.20666" lon="7.28271">
        <ele>496</ele>
        <time>2000-01-01T17:04:15.000Z</time>
      </trkpt>
      <trkpt lat="48.20672" lon="7.28271">
        <ele>519.7</ele>
        <time>2000-01-01T17:04:25.000Z</time>
      </trkpt>
      <trkpt lat="48.20675" lon="7.28272">
        <ele>519.9</ele>
        <time>2000-01-01T17:04:35.000Z</time>
      </trkpt>
      <trkpt lat="48.20683" lon="7.2827">
        <ele>520.6</ele>
        <time>2000-01-01T17:04:45.000Z</time>
      </trkpt>
      <trkpt lat="48.20697" lon="7.28267">
        <ele>498</ele>
        <time>2000-01-01T17:04:55.000Z</time>
      </trkpt>
      <trkpt lat="48.20701" lon="7.28267">
        <ele>522.8</ele>
        <time>2000-01-01T17:05:05.000Z</time>
      </trkpt>
      <trkpt lat="48.20703" lon="7.28268">
        <ele>523.1</ele>
        <time>2000-01-01T17:05:15.000Z</time>
      </trkpt>
      <trkpt lat="48.20706" lon="7.28268">
        <ele>523.6</ele>
        <time>2000-01-01T17:05:25.000Z</time>
      </trkpt>
      <trkpt lat="48.20713" lon="7.28277">
        <ele>497</ele>
        <time>2000-01-01T17:05:35.000Z</time>
      </trkpt>
      <trkpt lat="48.2072" lon="7.28291">
        <ele>524.1</ele>
        <time>2000-01-01T17:05:45.000Z</time>
      </trkpt>
      <trkpt lat="48.20722" lon="7.283">
        <ele>497</ele>
        <time>2000-01-01T17:05:55.000Z</time>
      </trkpt>
      <trkpt lat="48.20723" lon="7.28304">
        <ele>523.9</ele>
        <time>2000-01-01T17:06:05.000Z</time>
      </trkpt>
      <trkpt lat="48.20722" lon="7.28307">
        <ele>523.6</ele>
        <time>2000-01-01T17:06:15.000Z</time>
      </trkpt>
      <trkpt lat="48.20731" lon="7.28324">
        <ele>498</ele>
        <time>2000-01-01T17:06:25.000Z</time>
      </trkpt>
      <trkpt lat="48.20731" lon="7.28334">
        <ele>525.8</ele>
        <time>2000-01-01T17:06:35.000Z</time>
      </trkpt>
      <trkpt lat="48.20729" lon="7.28339">
        <ele>525.4</ele>
        <time>2000-01-01T17:06:45.000Z</time>
      </trkpt>
      <trkpt lat="48.20728" lon="7.28341">
        <ele>525.3</ele>
        <time>2000-01-01T17:06:55.000Z</time>
      </trkpt>
      <trkpt lat="48.20726" lon="7.28351">
        <ele>500</ele>
        <time>2000-01-01T17:07:05.000Z</time>
      </trkpt>
      <trkpt lat="48.20711" lon="7.28364">
        <ele>523.1</ele>
        <time>2000-01-01T17:07:15.000Z</time>
      </trkpt>
      <trkpt lat="48.20694" lon="7.28377">
        <ele>502</ele>
        <time>2000-01-01T17:07:25.000Z</time>
      </trkpt>
      <trkpt lat="48.20685" lon="7.28383">
        <ele>520.8</ele>
        <time>2000-01-01T17:07:35.000Z</time>
      </trkpt>
      <trkpt lat="48.20677" lon="7.28389">
        <ele>502</ele>
        <time>2000-01-01T17:07:45.000Z</time>
      </trkpt>
      <trkpt lat="48.20673" lon="7.28391">
        <ele>520</ele>
        <time>2000-01-01T17:07:55.000Z</time>
      </trkpt>
      <trkpt lat="48.20666" lon="7.28396">
        <ele>504.7</ele>
        <time>2000-01-01T17:08:05.000Z</time>
      </trkpt>
      <trkpt lat="48.20665" lon="7.28398">
        <ele>505.3</ele>
        <time>2000-01-01T17:08:15.000Z</time>
      </trkpt>
      <trkpt lat="48.20662" lon="7.28401">
        <ele>506.1</ele>
        <time>2000-01-01T17:08:25.000Z</time>
      </trkpt>
      <trkpt lat="48.20658" lon="7.28427">
        <ele>505</ele>
        <time>2000-01-01T17:08:35.000Z</time>
      </trkpt>
      <trkpt lat="48.20657" lon="7.28429">
        <ele>514</ele>
        <time>2000-01-01T17:08:45.000Z</time>
      </trkpt>
      <trkpt lat="48.20651" lon="7.28442">
        <ele>513.3</ele>
        <time>2000-01-01T17:08:55.000Z</time>
      </trkpt>
      <trkpt lat="48.20641" lon="7.2847">
        <ele>506</ele>
        <time>2000-01-01T17:09:05.000Z</time>
      </trkpt>
      <trkpt lat="48.20638" lon="7.28477">
        <ele>516.2</ele>
        <time>2000-01-01T17:09:15.000Z</time>
      </trkpt>
      <trkpt lat="48.20632" lon="7.28489">
        <ele>516.2</ele>
        <time>2000-01-01T17:09:25.000Z</time>
      </trkpt>
      <trkpt lat="48.20624" lon="7.28506">
        <ele>506</ele>
        <time>2000-01-01T17:09:35.000Z</time>
      </trkpt>
      <trkpt lat="48.20604" lon="7.28528">
        <ele>507</ele>
        <time>2000-01-01T17:09:45.000Z</time>
      </trkpt>
      <trkpt lat="48.20593" lon="7.28549">
        <ele>507</ele>
        <time>2000-01-01T17:09:55.000Z</time>
      </trkpt>
      <trkpt lat="48.20581" lon="7.28577">
        <ele>509</ele>
        <time>2000-01-01T17:10:05.000Z</time>
      </trkpt>
      <trkpt lat="48.20576" lon="7.28602">
        <ele>525.9</ele>
        <time>2000-01-01T17:10:15.000Z</time>
      </trkpt>
      <trkpt lat="48.20567" lon="7.28612">
        <ele>512</ele>
        <time>2000-01-01T17:10:25.000Z</time>
      </trkpt>
      <trkpt lat="48.20558" lon="7.28617">
        <ele>525.7</ele>
        <time>2000-01-01T17:10:35.000Z</time>
      </trkpt>
      <trkpt lat="48.20557" lon="7.28617">
        <ele>525.6</ele>
        <time>2000-01-01T17:10:45.000Z</time>
      </trkpt>
      <trkpt lat="48.20537" lon="7.28628">
        <ele>513</ele>
        <time>2000-01-01T17:10:55.000Z</time>
      </trkpt>
      <trkpt lat="48.20532" lon="7.28632">
        <ele>524</ele>
        <time>2000-01-01T17:11:05.000Z</time>
      </trkpt>
      <trkpt lat="48.20527" lon="7.2864">
        <ele>524.1</ele>
        <time>2000-01-01T17:11:15.000Z</time>
      </trkpt>
      <trkpt lat="48.20525" lon="7.28642">
        <ele>524</ele>
        <time>2000-01-01T17:11:25.000Z</time>
      </trkpt>
      <trkpt lat="48.20526" lon="7.28645">
        <ele>524.4</ele>
        <time>2000-01-01T17:11:35.000Z</time>
      </trkpt>
      <trkpt lat="48.20523" lon="7.2865">
        <ele>519</ele>
        <time>2000-01-01T17:11:45.000Z</time>
      </trkpt>
      <trkpt lat="48.20514" lon="7.28656">
        <ele>523.5</ele>
        <time>2000-01-01T17:11:55.000Z</time>
      </trkpt>
      <trkpt lat="48.20505" lon="7.28665">
        <ele>520</ele>
        <time>2000-01-01T17:12:05.000Z</time>
      </trkpt>
      <trkpt lat="48.20496" lon="7.2867">
        <ele>520.5</ele>
        <time>2000-01-01T17:12:15.000Z</time>
      </trkpt>
      <trkpt lat="48.20482" lon="7.28683">
        <ele>520</ele>
        <time>2000-01-01T17:12:25.000Z</time>
      </trkpt>
      <trkpt lat="48.20465" lon="7.28703">
        <ele>516</ele>
        <time>2000-01-01T17:12:35.000Z</time>
      </trkpt>
      <trkpt lat="48.20458" lon="7.28726">
        <ele>514.7</ele>
        <time>2000-01-01T17:12:45.000Z</time>
      </trkpt>
      <trkpt lat="48.2045" lon="7.28753">
        <ele>517</ele>
        <time>2000-01-01T17:12:55.000Z</time>
      </trkpt>
      <trkpt lat="48.20452" lon="7.28772">
        <ele>518.4</ele>
        <time>2000-01-01T17:13:05.000Z</time>
      </trkpt>
      <trkpt lat="48.20453" lon="7.2878">
        <ele>519</ele>
        <time>2000-01-01T17:13:15.000Z</time>
      </trkpt>
      <trkpt lat="48.20463" lon="7.2881">
        <ele>523</ele>
        <time>2000-01-01T17:13:25.000Z</time>
      </trkpt>
      <trkpt lat="48.20465" lon="7.28837">
        <ele>523</ele>
        <time>2000-01-01T17:13:35.000Z</time>
      </trkpt>
      <trkpt lat="48.20471" lon="7.28856">
        <ele>525.2</ele>
        <time>2000-01-01T17:13:45.000Z</time>
      </trkpt>
      <trkpt lat="48.2047" lon="7.28888">
        <ele>524</ele>
        <time>2000-01-01T17:13:55.000Z</time>
      </trkpt>
      <trkpt lat="48.20479" lon="7.28923">
        <ele>526</ele>
        <time>2000-01-01T17:14:05.000Z</time>
      </trkpt>
      <trkpt lat="48.20481" lon="7.28945">
        <ele>524.2</ele>
        <time>2000-01-01T17:14:15.000Z</time>
      </trkpt>
      <trkpt lat="48.20485" lon="7.28959">
        <ele>528</ele>
        <time>2000-01-01T17:14:25.000Z</time>
      </trkpt>
      <trkpt lat="48.20487" lon="7.28991">
        <ele>531</ele>
        <time>2000-01-01T17:14:35.000Z</time>
      </trkpt>
      <trkpt lat="48.20488" lon="7.28995">
        <ele>527.9</ele>
        <time>2000-01-01T17:14:45.000Z</time>
      </trkpt>
      <trkpt lat="48.20497" lon="7.29017">
        <ele>533</ele>
        <time>2000-01-01T17:14:55.000Z</time>
      </trkpt>
      <trkpt lat="48.20504" lon="7.29033">
        <ele>530.8</ele>
        <time>2000-01-01T17:15:05.000Z</time>
      </trkpt>
      <trkpt lat="48.20508" lon="7.29035">
        <ele>530.6</ele>
        <time>2000-01-01T17:15:15.000Z</time>
      </trkpt>
      <trkpt lat="48.2051" lon="7.29035">
        <ele>533</ele>
        <time>2000-01-01T17:15:25.000Z</time>
      </trkpt>
      <trkpt lat="48.20511" lon="7.29041">
        <ele>529.8</ele>
        <time>2000-01-01T17:15:35.000Z</time>
      </trkpt>
      <trkpt lat="48.20515" lon="7.29039">
        <ele>530.2</ele>
        <time>2000-01-01T17:15:45.000Z</time>
      </trkpt>
      <trkpt lat="48.20519" lon="7.29046">
        <ele>529.4</ele>
        <time>2000-01-01T17:15:55.000Z</time>
      </trkpt>
      <trkpt lat="48.20519" lon="7.29048">
        <ele>529.1</ele>
        <time>2000-01-01T17:16:05.000Z</time>
      </trkpt>
      <trkpt lat="48.2052" lon="7.29051">
        <ele>528.7</ele>
        <time>2000-01-01T17:16:15.000Z</time>
      </trkpt>
      <trkpt lat="48.20526" lon="7.29049">
        <ele>533</ele>
        <time>2000-01-01T17:16:25.000Z</time>
      </trkpt>
      <trkpt lat="48.20535" lon="7.29042">
        <ele>530.6</ele>
        <time>2000-01-01T17:16:35.000Z</time>
      </trkpt>
      <trkpt lat="48.20541" lon="7.29037">
        <ele>531.6</ele>
        <time>2000-01-01T17:16:45.000Z</time>
      </trkpt>
      <trkpt lat="48.20549" lon="7.29035">
        <ele>530</ele>
        <time>2000-01-01T17:16:55.000Z</time>
      </trkpt>
      <trkpt lat="48.20557" lon="7.2903">
        <ele>534</ele>
        <time>2000-01-01T17:17:05.000Z</time>
      </trkpt>
      <trkpt lat="48.20581" lon="7.29031">
        <ele>529</ele>
        <time>2000-01-01T17:17:15.000Z</time>
      </trkpt>
      <trkpt lat="48.20597" lon="7.29034">
        <ele>540</ele>
        <time>2000-01-01T17:17:25.000Z</time>
      </trkpt>
      <trkpt lat="48.20621" lon="7.29044">
        <ele>529</ele>
        <time>2000-01-01T17:17:35.000Z</time>
      </trkpt>
      <trkpt lat="48.20637" lon="7.29055">
        <ele>538.1</ele>
        <time>2000-01-01T17:17:45.000Z</time>
      </trkpt>
      <trkpt lat="48.20655" lon="7.29065">
        <ele>526</ele>
        <time>2000-01-01T17:17:55.000Z</time>
      </trkpt>
      <trkpt lat="48.20675" lon="7.2907">
        <ele>525</ele>
        <time>2000-01-01T17:18:05.000Z</time>
      </trkpt>
      <trkpt lat="48.20691" lon="7.29071">
        <ele>538.3</ele>
        <time>2000-01-01T17:18:15.000Z</time>
      </trkpt>
      <trkpt lat="48.20714" lon="7.29073">
        <ele>523</ele>
        <time>2000-01-01T17:18:25.000Z</time>
      </trkpt>
      <trkpt lat="48.2072" lon="7.29078">
        <ele>536.7</ele>
        <time>2000-01-01T17:18:35.000Z</time>
      </trkpt>
      <trkpt lat="48.20722" lon="7.29078">
        <ele>536.5</ele>
        <time>2000-01-01T17:18:45.000Z</time>
      </trkpt>
      <trkpt lat="48.20741" lon="7.29077">
        <ele>523</ele>
        <time>2000-01-01T17:18:55.000Z</time>
      </trkpt>
      <trkpt lat="48.20742" lon="7.29076">
        <ele>532.3</ele>
        <time>2000-01-01T17:19:05.000Z</time>
      </trkpt>
      <trkpt lat="48.20763" lon="7.29056">
        <ele>523</ele>
        <time>2000-01-01T17:19:15.000Z</time>
      </trkpt>
      <trkpt lat="48.20778" lon="7.29042">
        <ele>537.4</ele>
        <time>2000-01-01T17:19:25.000Z</time>
      </trkpt>
      <trkpt lat="48.20791" lon="7.29019">
        <ele>518</ele>
        <time>2000-01-01T17:19:35.000Z</time>
      </trkpt>
      <trkpt lat="48.20794" lon="7.29013">
        <ele>540.2</ele>
        <time>2000-01-01T17:19:45.000Z</time>
      </trkpt>
      <trkpt lat="48.20799" lon="7.29011">
        <ele>540.1</ele>
        <time>2000-01-01T17:19:55.000Z</time>
      </trkpt>
      <trkpt lat="48.20813" lon="7.29025">
        <ele>513</ele>
        <time>2000-01-01T17:20:05.000Z</time>
      </trkpt>
      <trkpt lat="48.20817" lon="7.29045">
        <ele>535.7</ele>
        <time>2000-01-01T17:20:15.000Z</time>
      </trkpt>
      <trkpt lat="48.20819" lon="7.29071">
        <ele>509</ele>
        <time>2000-01-01T17:20:25.000Z</time>
      </trkpt>
      <trkpt lat="48.2082" lon="7.29073">
        <ele>530.7</ele>
        <time>2000-01-01T17:20:35.000Z</time>
      </trkpt>
      <trkpt lat="48.2082" lon="7.29081">
        <ele>529.6</ele>
        <time>2000-01-01T17:20:45.000Z</time>
      </trkpt>
      <trkpt lat="48.20848" lon="7.29148">
        <ele>508</ele>
        <time>2000-01-01T17:20:55.000Z</time>
      </trkpt>
      <trkpt lat="48.20854" lon="7.29178">
        <ele>508</ele>
        <time>2000-01-01T17:21:05.000Z</time>
      </trkpt>
      <trkpt lat="48.20851" lon="7.29209">
        <ele>506</ele>
        <time>2000-01-01T17:21:15.000Z</time>
      </trkpt>
      <trkpt lat="48.20849" lon="7.29217">
        <ele>527.6</ele>
        <time>2000-01-01T17:21:25.000Z</time>
      </trkpt>
      <trkpt lat="48.20844" lon="7.2923">
        <ele>524.5</ele>
        <time>2000-01-01T17:21:35.000Z</time>
      </trkpt>
      <trkpt lat="48.20844" lon="7.29233">
        <ele>523.8</ele>
        <time>2000-01-01T17:21:45.000Z</time>
      </trkpt>
      <trkpt lat="48.20836" lon="7.29251">
        <ele>505</ele>
        <time>2000-01-01T17:21:55.000Z</time>
      </trkpt>
      <trkpt lat="48.20833" lon="7.29266">
        <ele>504.6</ele>
        <time>2000-01-01T17:22:05.000Z</time>
      </trkpt>
      <trkpt lat="48.20831" lon="7.29303">
        <ele>505</ele>
        <time>2000-01-01T17:22:15.000Z</time>
      </trkpt>
      <trkpt lat="48.20832" lon="7.29319">
        <ele>501.7</ele>
        <time>2000-01-01T17:22:25.000Z</time>
      </trkpt>
      <trkpt lat="48.20841" lon="7.29329">
        <ele>507</ele>
        <time>2000-01-01T17:22:35.000Z</time>
      </trkpt>
      <trkpt lat="48.20845" lon="7.29331">
        <ele>513.9</ele>
        <time>2000-01-01T17:22:45.000Z</time>
      </trkpt>
      <trkpt lat="48.20847" lon="7.29333">
        <ele>514.7</ele>
        <time>2000-01-01T17:22:55.000Z</time>
      </trkpt>
      <trkpt lat="48.20864" lon="7.29338">
        <ele>507</ele>
        <time>2000-01-01T17:23:05.000Z</time>
      </trkpt>
      <trkpt lat="48.20879" lon="7.29342">
        <ele>512.9</ele>
        <time>2000-01-01T17:23:15.000Z</time>
      </trkpt>
      <trkpt lat="48.20897" lon="7.29355">
        <ele>505</ele>
        <time>2000-01-01T17:23:25.000Z</time>
      </trkpt>
      <trkpt lat="48.20905" lon="7.2936">
        <ele>515.6</ele>
        <time>2000-01-01T17:23:35.000Z</time>
      </trkpt>
      <trkpt lat="48.20922" lon="7.29376">
        <ele>505</ele>
        <time>2000-01-01T17:23:45.000Z</time>
      </trkpt>
      <trkpt lat="48.20942" lon="7.29393">
        <ele>504</ele>
        <time>2000-01-01T17:23:55.000Z</time>
      </trkpt>
      <trkpt lat="48.20954" lon="7.29407">
        <ele>524.5</ele>
        <time>2000-01-01T17:24:05.000Z</time>
      </trkpt>
      <trkpt lat="48.20957" lon="7.29418">
        <ele>501</ele>
        <time>2000-01-01T17:24:15.000Z</time>
      </trkpt>
      <trkpt lat="48.20967" lon="7.29442">
        <ele>497</ele>
        <time>2000-01-01T17:24:25.000Z</time>
      </trkpt>
      <trkpt lat="48.20969" lon="7.29452">
        <ele>514.2</ele>
        <time>2000-01-01T17:24:35.000Z</time>
      </trkpt>
      <trkpt lat="48.20976" lon="7.2946">
        <ele>514.6</ele>
        <time>2000-01-01T17:24:45.000Z</time>
      </trkpt>
      <trkpt lat="48.20975" lon="7.29464">
        <ele>491</ele>
        <time>2000-01-01T17:24:55.000Z</time>
      </trkpt>
      <trkpt lat="48.20972" lon="7.29464">
        <ele>514</ele>
        <time>2000-01-01T17:25:05.000Z</time>
      </trkpt>
      <trkpt lat="48.20961" lon="7.29462">
        <ele>512.7</ele>
        <time>2000-01-01T17:25:15.000Z</time>
      </trkpt>
      <trkpt lat="48.20956" lon="7.29459">
        <ele>490</ele>
        <time>2000-01-01T17:25:25.000Z</time>
      </trkpt>
      <trkpt lat="48.20948" lon="7.29452">
        <ele>511.4</ele>
        <time>2000-01-01T17:25:35.000Z</time>
      </trkpt>
      <trkpt lat="48.20941" lon="7.29444">
        <ele>489</ele>
        <time>2000-01-01T17:25:45.000Z</time>
      </trkpt>
      <trkpt lat="48.20927" lon="7.29436">
        <ele>508.7</ele>
        <time>2000-01-01T17:25:55.000Z</time>
      </trkpt>
      <trkpt lat="48.20919" lon="7.29436">
        <ele>479</ele>
        <time>2000-01-01T17:26:05.000Z</time>
      </trkpt>
      <trkpt lat="48.20903" lon="7.29431">
        <ele>498.2</ele>
        <time>2000-01-01T17:26:15.000Z</time>
      </trkpt>
      <trkpt lat="48.20897" lon="7.2943">
        <ele>472</ele>
        <time>2000-01-01T17:26:25.000Z</time>
      </trkpt>
      <trkpt lat="48.2089" lon="7.29429">
        <ele>496.1</ele>
        <time>2000-01-01T17:26:35.000Z</time>
      </trkpt>
      <trkpt lat="48.20888" lon="7.29427">
        <ele>495.9</ele>
        <time>2000-01-01T17:26:45.000Z</time>
      </trkpt>
      <trkpt lat="48.20874" lon="7.29423">
        <ele>472</ele>
        <time>2000-01-01T17:26:55.000Z</time>
      </trkpt>
      <trkpt lat="48.20865" lon="7.29419">
        <ele>491.8</ele>
        <time>2000-01-01T17:27:05.000Z</time>
      </trkpt>
      <trkpt lat="48.20851" lon="7.29409">
        <ele>472</ele>
        <time>2000-01-01T17:27:15.000Z</time>
      </trkpt>
      <trkpt lat="48.20842" lon="7.29406">
        <ele>493.1</ele>
        <time>2000-01-01T17:27:25.000Z</time>
      </trkpt>
      <trkpt lat="48.2084" lon="7.29406">
        <ele>492.5</ele>
        <time>2000-01-01T17:27:35.000Z</time>
      </trkpt>
      <trkpt lat="48.20832" lon="7.29406">
        <ele>466</ele>
        <time>2000-01-01T17:27:45.000Z</time>
      </trkpt>
      <trkpt lat="48.20826" lon="7.29406">
        <ele>483.3</ele>
        <time>2000-01-01T17:27:55.000Z</time>
      </trkpt>
      <trkpt lat="48.20822" lon="7.29406">
        <ele>483.2</ele>
        <time>2000-01-01T17:28:05.000Z</time>
      </trkpt>
      <trkpt lat="48.20814" lon="7.29404">
        <ele>465</ele>
        <time>2000-01-01T17:28:15.000Z</time>
      </trkpt>
      <trkpt lat="48.20804" lon="7.29404">
        <ele>482.1</ele>
        <time>2000-01-01T17:28:25.000Z</time>
      </trkpt>
      <trkpt lat="48.20791" lon="7.294">
        <ele>461</ele>
        <time>2000-01-01T17:28:35.000Z</time>
      </trkpt>
      <trkpt lat="48.20787" lon="7.294">
        <ele>480.1</ele>
        <time>2000-01-01T17:28:45.000Z</time>
      </trkpt>
      <trkpt lat="48.20781" lon="7.294">
        <ele>479.1</ele>
        <time>2000-01-01T17:28:55.000Z</time>
      </trkpt>
      <trkpt lat="48.20777" lon="7.29396">
        <ele>478.8</ele>
        <time>2000-01-01T17:29:05.000Z</time>
      </trkpt>
      <trkpt lat="48.20769" lon="7.29397">
        <ele>451</ele>
        <time>2000-01-01T17:29:15.000Z</time>
      </trkpt>
      <trkpt lat="48.20758" lon="7.29394">
        <ele>476.3</ele>
        <time>2000-01-01T17:29:25.000Z</time>
      </trkpt>
      <trkpt lat="48.20745" lon="7.29383">
        <ele>446</ele>
        <time>2000-01-01T17:29:35.000Z</time>
      </trkpt>
      <trkpt lat="48.20733" lon="7.29374">
        <ele>466.1</ele>
        <time>2000-01-01T17:29:45.000Z</time>
      </trkpt>
      <trkpt lat="48.20723" lon="7.29367">
        <ele>443</ele>
        <time>2000-01-01T17:29:55.000Z</time>
      </trkpt>
      <trkpt lat="48.20716" lon="7.2936">
        <ele>464.9</ele>
        <time>2000-01-01T17:30:05.000Z</time>
      </trkpt>
      <trkpt lat="48.20705" lon="7.29355">
        <ele>437</ele>
        <time>2000-01-01T17:30:15.000Z</time>
      </trkpt>
      <trkpt lat="48.20697" lon="7.29348">
        <ele>461.9</ele>
        <time>2000-01-01T17:30:25.000Z</time>
      </trkpt>
      <trkpt lat="48.20679" lon="7.29341">
        <ele>433</ele>
        <time>2000-01-01T17:30:35.000Z</time>
      </trkpt>
      <trkpt lat="48.20673" lon="7.29337">
        <ele>454.7</ele>
        <time>2000-01-01T17:30:45.000Z</time>
      </trkpt>
      <trkpt lat="48.2067" lon="7.29334">
        <ele>452.8</ele>
        <time>2000-01-01T17:30:55.000Z</time>
      </trkpt>
      <trkpt lat="48.20663" lon="7.29331">
        <ele>451.6</ele>
        <time>2000-01-01T17:31:05.000Z</time>
      </trkpt>
      <trkpt lat="48.20641" lon="7.29325">
        <ele>430</ele>
        <time>2000-01-01T17:31:15.000Z</time>
      </trkpt>
      <trkpt lat="48.20633" lon="7.2932">
        <ele>452.5</ele>
        <time>2000-01-01T17:31:25.000Z</time>
      </trkpt>
      <trkpt lat="48.20622" lon="7.29314">
        <ele>427</ele>
        <time>2000-01-01T17:31:35.000Z</time>
      </trkpt>
      <trkpt lat="48.20608" lon="7.29309">
        <ele>451.2</ele>
        <time>2000-01-01T17:31:45.000Z</time>
      </trkpt>
      <trkpt lat="48.20596" lon="7.29306">
        <ele>423</ele>
        <time>2000-01-01T17:31:55.000Z</time>
      </trkpt>
      <trkpt lat="48.20584" lon="7.293">
        <ele>450.8</ele>
        <time>2000-01-01T17:32:05.000Z</time>
      </trkpt>
      <trkpt lat="48.20579" lon="7.29299">
        <ele>443.8</ele>
        <time>2000-01-01T17:32:15.000Z</time>
      </trkpt>
      <trkpt lat="48.20575" lon="7.293">
        <ele>422</ele>
        <time>2000-01-01T17:32:25.000Z</time>
      </trkpt>
      <trkpt lat="48.20568" lon="7.29296">
        <ele>443.7</ele>
        <time>2000-01-01T17:32:35.000Z</time>
      </trkpt>
      <trkpt lat="48.20561" lon="7.29287">
        <ele>444.4</ele>
        <time>2000-01-01T17:32:45.000Z</time>
      </trkpt>
      <trkpt lat="48.20556" lon="7.29283">
        <ele>420</ele>
        <time>2000-01-01T17:32:55.000Z</time>
      </trkpt>
      <trkpt lat="48.2055" lon="7.2928">
        <ele>444.5</ele>
        <time>2000-01-01T17:33:05.000Z</time>
      </trkpt>
      <trkpt lat="48.20541" lon="7.29276">
        <ele>444.3</ele>
        <time>2000-01-01T17:33:15.000Z</time>
      </trkpt>
      <trkpt lat="48.20539" lon="7.29275">
        <ele>417</ele>
        <time>2000-01-01T17:33:25.000Z</time>
      </trkpt>
      <trkpt lat="48.20532" lon="7.2927">
        <ele>444.4</ele>
        <time>2000-01-01T17:33:35.000Z</time>
      </trkpt>
      <trkpt lat="48.20523" lon="7.29271">
        <ele>444.1</ele>
        <time>2000-01-01T17:33:45.000Z</time>
      </trkpt>
      <trkpt lat="48.20509" lon="7.29281">
        <ele>414</ele>
        <time>2000-01-01T17:33:55.000Z</time>
      </trkpt>
      <trkpt lat="48.20504" lon="7.29284">
        <ele>442.2</ele>
        <time>2000-01-01T17:34:05.000Z</time>
      </trkpt>
      <trkpt lat="48.20497" lon="7.29288">
        <ele>437.3</ele>
        <time>2000-01-01T17:34:15.000Z</time>
      </trkpt>
      <trkpt lat="48.20491" lon="7.29292">
        <ele>416</ele>
        <time>2000-01-01T17:34:25.000Z</time>
      </trkpt>
      <trkpt lat="48.2049" lon="7.29291">
        <ele>436.6</ele>
        <time>2000-01-01T17:34:35.000Z</time>
      </trkpt>
      <trkpt lat="48.20491" lon="7.29291">
        <ele>436.6</ele>
        <time>2000-01-01T17:34:45.000Z</time>
      </trkpt>
      <trkpt lat="48.20489" lon="7.29291">
        <ele>436.6</ele>
        <time>2000-01-01T17:34:55.000Z</time>
      </trkpt>
      <trkpt lat="48.20486" lon="7.2929">
        <ele>436.8</ele>
        <time>2000-01-01T17:35:05.000Z</time>
      </trkpt>
      <trkpt lat="48.20483" lon="7.2929">
        <ele>436.7</ele>
        <time>2000-01-01T17:35:15.000Z</time>
      </trkpt>
      <trkpt lat="48.20463" lon="7.29287">
        <ele>410</ele>
        <time>2000-01-01T17:35:25.000Z</time>
      </trkpt>
      <trkpt lat="48.20453" lon="7.29294">
        <ele>435.5</ele>
        <time>2000-01-01T17:35:35.000Z</time>
      </trkpt>
      <trkpt lat="48.20441" lon="7.29313">
        <ele>405</ele>
        <time>2000-01-01T17:35:45.000Z</time>
      </trkpt>
      <trkpt lat="48.2044" lon="7.29314">
        <ele>430.4</ele>
        <time>2000-01-01T17:35:55.000Z</time>
      </trkpt>
      <trkpt lat="48.20441" lon="7.29321">
        <ele>429.2</ele>
        <time>2000-01-01T17:36:05.000Z</time>
      </trkpt>
      <trkpt lat="48.20443" lon="7.29323">
        <ele>429.3</ele>
        <time>2000-01-01T17:36:15.000Z</time>
      </trkpt>
      <trkpt lat="48.20457" lon="7.2933">
        <ele>405</ele>
        <time>2000-01-01T17:36:25.000Z</time>
      </trkpt>
      <trkpt lat="48.20461" lon="7.29333">
        <ele>430.7</ele>
        <time>2000-01-01T17:36:35.000Z</time>
      </trkpt>
      <trkpt lat="48.20465" lon="7.29377">
        <ele>405</ele>
        <time>2000-01-01T17:36:45.000Z</time>
      </trkpt>
      <trkpt lat="48.20475" lon="7.29371">
        <ele>424</ele>
        <time>2000-01-01T17:36:55.000Z</time>
      </trkpt>
      <trkpt lat="48.20487" lon="7.29352">
        <ele>404</ele>
        <time>2000-01-01T17:37:05.000Z</time>
      </trkpt>
      <trkpt lat="48.2049" lon="7.29334">
        <ele>425.6</ele>
        <time>2000-01-01T17:37:15.000Z</time>
      </trkpt>
      <trkpt lat="48.20473" lon="7.29308">
        <ele>404</ele>
        <time>2000-01-01T17:37:25.000Z</time>
      </trkpt>
      <trkpt lat="48.20465" lon="7.29299">
        <ele>434.9</ele>
        <time>2000-01-01T17:37:35.000Z</time>
      </trkpt>
      <trkpt lat="48.20462" lon="7.29284">
        <ele>418</ele>
        <time>2000-01-01T17:37:45.000Z</time>
      </trkpt>
      <trkpt lat="48.2047" lon="7.29271">
        <ele>439.5</ele>
        <time>2000-01-01T17:37:55.000Z</time>
      </trkpt>
      <trkpt lat="48.20471" lon="7.2927">
        <ele>439.7</ele>
        <time>2000-01-01T17:38:05.000Z</time>
      </trkpt>
      <trkpt lat="48.20474" lon="7.29268">
        <ele>440.1</ele>
        <time>2000-01-01T17:38:15.000Z</time>
      </trkpt>
      <trkpt lat="48.20494" lon="7.29269">
        <ele>416</ele>
        <time>2000-01-01T17:38:25.000Z</time>
      </trkpt>
      <trkpt lat="48.2051" lon="7.29277">
        <ele>443.3</ele>
        <time>2000-01-01T17:38:35.000Z</time>
      </trkpt>
      <trkpt lat="48.20523" lon="7.29286">
        <ele>418</ele>
        <time>2000-01-01T17:38:45.000Z</time>
      </trkpt>
      <trkpt lat="48.20531" lon="7.29287">
        <ele>442.6</ele>
        <time>2000-01-01T17:38:55.000Z</time>
      </trkpt>
      <trkpt lat="48.20548" lon="7.29289">
        <ele>420</ele>
        <time>2000-01-01T17:39:05.000Z</time>
      </trkpt>
      <trkpt lat="48.20552" lon="7.29291">
        <ele>443.5</ele>
        <time>2000-01-01T17:39:15.000Z</time>
      </trkpt>
      <trkpt lat="48.20555" lon="7.29298">
        <ele>442.9</ele>
        <time>2000-01-01T17:39:25.000Z</time>
      </trkpt>
      <trkpt lat="48.20557" lon="7.293">
        <ele>442.8</ele>
        <time>2000-01-01T17:39:35.000Z</time>
      </trkpt>
      <trkpt lat="48.20561" lon="7.29301">
        <ele>442.9</ele>
        <time>2000-01-01T17:39:45.000Z</time>
      </trkpt>
      <trkpt lat="48.20565" lon="7.29302">
        <ele>421</ele>
        <time>2000-01-01T17:39:55.000Z</time>
      </trkpt>
      <trkpt lat="48.20569" lon="7.29301">
        <ele>443.3</ele>
        <time>2000-01-01T17:40:05.000Z</time>
      </trkpt>
      <trkpt lat="48.2057" lon="7.29302">
        <ele>443.2</ele>
        <time>2000-01-01T17:40:15.000Z</time>
      </trkpt>
      <trkpt lat="48.20571" lon="7.29303">
        <ele>443.1</ele>
        <time>2000-01-01T17:40:25.000Z</time>
      </trkpt>
      <trkpt lat="48.20571" lon="7.29305">
        <ele>442.9</ele>
        <time>2000-01-01T17:40:35.000Z</time>
      </trkpt>
      <trkpt lat="48.20576" lon="7.29309">
        <ele>442.7</ele>
        <time>2000-01-01T17:40:45.000Z</time>
      </trkpt>
      <trkpt lat="48.20586" lon="7.29313">
        <ele>424</ele>
        <time>2000-01-01T17:40:55.000Z</time>
      </trkpt>
      <trkpt lat="48.20593" lon="7.29314">
        <ele>448.7</ele>
        <time>2000-01-01T17:41:05.000Z</time>
      </trkpt>
      <trkpt lat="48.20595" lon="7.29316">
        <ele>448.5</ele>
        <time>2000-01-01T17:41:15.000Z</time>
      </trkpt>
      <trkpt lat="48.20596" lon="7.2932">
        <ele>447.9</ele>
        <time>2000-01-01T17:41:25.000Z</time>
      </trkpt>
      <trkpt lat="48.20598" lon="7.29323">
        <ele>447.7</ele>
        <time>2000-01-01T17:41:35.000Z</time>
      </trkpt>
      <trkpt lat="48.20602" lon="7.29328">
        <ele>426</ele>
        <time>2000-01-01T17:41:45.000Z</time>
      </trkpt>
      <trkpt lat="48.20603" lon="7.29332">
        <ele>448</ele>
        <time>2000-01-01T17:41:55.000Z</time>
      </trkpt>
      <trkpt lat="48.20613" lon="7.29337">
        <ele>450.5</ele>
        <time>2000-01-01T17:42:05.000Z</time>
      </trkpt>
      <trkpt lat="48.20617" lon="7.29338">
        <ele>430</ele>
        <time>2000-01-01T17:42:15.000Z</time>
      </trkpt>
      <trkpt lat="48.20619" lon="7.29338">
        <ele>451.3</ele>
        <time>2000-01-01T17:42:25.000Z</time>
      </trkpt>
      <trkpt lat="48.20621" lon="7.29338">
        <ele>451.6</ele>
        <time>2000-01-01T17:42:35.000Z</time>
      </trkpt>
      <trkpt lat="48.20623" lon="7.2934">
        <ele>451.9</ele>
        <time>2000-01-01T17:42:45.000Z</time>
      </trkpt>
      <trkpt lat="48.20626" lon="7.29345">
        <ele>452.4</ele>
        <time>2000-01-01T17:42:55.000Z</time>
      </trkpt>
      <trkpt lat="48.20627" lon="7.29349">
        <ele>452.8</ele>
        <time>2000-01-01T17:43:05.000Z</time>
      </trkpt>
      <trkpt lat="48.20628" lon="7.2935">
        <ele>452.9</ele>
        <time>2000-01-01T17:43:15.000Z</time>
      </trkpt>
      <trkpt lat="48.2063" lon="7.29349">
        <ele>453</ele>
        <time>2000-01-01T17:43:25.000Z</time>
      </trkpt>
      <trkpt lat="48.20635" lon="7.29355">
        <ele>437</ele>
        <time>2000-01-01T17:43:35.000Z</time>
      </trkpt>
      <trkpt lat="48.20641" lon="7.29363">
        <ele>454.6</ele>
        <time>2000-01-01T17:43:45.000Z</time>
      </trkpt>
      <trkpt lat="48.20643" lon="7.2937">
        <ele>455.3</ele>
        <time>2000-01-01T17:43:55.000Z</time>
      </trkpt>
      <trkpt lat="48.20647" lon="7.29371">
        <ele>455.6</ele>
        <time>2000-01-01T17:44:05.000Z</time>
      </trkpt>
      <trkpt lat="48.20647" lon="7.29371">
        <ele>455.6</ele>
        <time>2000-01-01T17:44:15.000Z</time>
      </trkpt>
      <trkpt lat="48.20647" lon="7.29371">
        <ele>455.6</ele>
        <time>2000-01-01T17:44:25.000Z</time>
      </trkpt>
      <trkpt lat="48.20647" lon="7.29374">
        <ele>440</ele>
        <time>2000-01-01T17:44:35.000Z</time>
      </trkpt>
      <trkpt lat="48.20651" lon="7.29372">
        <ele>455.8</ele>
        <time>2000-01-01T17:44:45.000Z</time>
      </trkpt>
      <trkpt lat="48.20653" lon="7.2937">
        <ele>455.6</ele>
        <time>2000-01-01T17:44:55.000Z</time>
      </trkpt>
      <trkpt lat="48.20654" lon="7.29369">
        <ele>455.5</ele>
        <time>2000-01-01T17:45:05.000Z</time>
      </trkpt>
      <trkpt lat="48.20656" lon="7.29369">
        <ele>455.5</ele>
        <time>2000-01-01T17:45:15.000Z</time>
      </trkpt>
      <trkpt lat="48.20657" lon="7.2937">
        <ele>455.7</ele>
        <time>2000-01-01T17:45:25.000Z</time>
      </trkpt>
      <trkpt lat="48.20657" lon="7.2937">
        <ele>455.7</ele>
        <time>2000-01-01T17:45:35.000Z</time>
      </trkpt>
      <trkpt lat="48.20658" lon="7.2937">
        <ele>455.7</ele>
        <time>2000-01-01T17:45:45.000Z</time>
      </trkpt>
      <trkpt lat="48.20659" lon="7.2937">
        <ele>455.7</ele>
        <time>2000-01-01T17:45:55.000Z</time>
      </trkpt>
      <trkpt lat="48.20662" lon="7.29374">
        <ele>456.3</ele>
        <time>2000-01-01T17:46:05.000Z</time>
      </trkpt>
      <trkpt lat="48.20663" lon="7.29378">
        <ele>443</ele>
        <time>2000-01-01T17:46:15.000Z</time>
      </trkpt>
      <trkpt lat="48.20663" lon="7.29379">
        <ele>457</ele>
        <time>2000-01-01T17:46:25.000Z</time>
      </trkpt>
      <trkpt lat="48.20669" lon="7.29377">
        <ele>462.5</ele>
        <time>2000-01-01T17:46:35.000Z</time>
      </trkpt>
      <trkpt lat="48.20672" lon="7.29375">
        <ele>462.4</ele>
        <time>2000-01-01T17:46:45.000Z</time>
      </trkpt>
      <trkpt lat="48.20676" lon="7.29378">
        <ele>462.8</ele>
        <time>2000-01-01T17:46:55.000Z</time>
      </trkpt>
      <trkpt lat="48.20678" lon="7.29382">
        <ele>447</ele>
        <time>2000-01-01T17:47:05.000Z</time>
      </trkpt>
      <trkpt lat="48.20684" lon="7.29387">
        <ele>463.8</ele>
        <time>2000-01-01T17:47:15.000Z</time>
      </trkpt>
      <trkpt lat="48.20688" lon="7.29394">
        <ele>464.4</ele>
        <time>2000-01-01T17:47:25.000Z</time>
      </trkpt>
      <trkpt lat="48.20689" lon="7.29397">
        <ele>464.5</ele>
        <time>2000-01-01T17:47:35.000Z</time>
      </trkpt>
      <trkpt lat="48.20693" lon="7.29406">
        <ele>454</ele>
        <time>2000-01-01T17:47:45.000Z</time>
      </trkpt>
      <trkpt lat="48.20694" lon="7.29406">
        <ele>464.9</ele>
        <time>2000-01-01T17:47:55.000Z</time>
      </trkpt>
      <trkpt lat="48.20696" lon="7.29411">
        <ele>465.1</ele>
        <time>2000-01-01T17:48:05.000Z</time>
      </trkpt>
      <trkpt lat="48.20698" lon="7.29416">
        <ele>465.2</ele>
        <time>2000-01-01T17:48:15.000Z</time>
      </trkpt>
      <trkpt lat="48.207" lon="7.29423">
        <ele>474.1</ele>
        <time>2000-01-01T17:48:25.000Z</time>
      </trkpt>
      <trkpt lat="48.20703" lon="7.29428">
        <ele>474.6</ele>
        <time>2000-01-01T17:48:35.000Z</time>
      </trkpt>
      <trkpt lat="48.20705" lon="7.29429">
        <ele>460</ele>
        <time>2000-01-01T17:48:45.000Z</time>
      </trkpt>
      <trkpt lat="48.20707" lon="7.2943">
        <ele>474.9</ele>
        <time>2000-01-01T17:48:55.000Z</time>
      </trkpt>
      <trkpt lat="48.20715" lon="7.29439">
        <ele>475.7</ele>
        <time>2000-01-01T17:49:05.000Z</time>
      </trkpt>
      <trkpt lat="48.20718" lon="7.2944">
        <ele>475.7</ele>
        <time>2000-01-01T17:49:15.000Z</time>
      </trkpt>
      <trkpt lat="48.20721" lon="7.29442">
        <ele>463</ele>
        <time>2000-01-01T17:49:25.000Z</time>
      </trkpt>
      <trkpt lat="48.20722" lon="7.29444">
        <ele>476</ele>
        <time>2000-01-01T17:49:35.000Z</time>
      </trkpt>
      <trkpt lat="48.20723" lon="7.29446">
        <ele>476.2</ele>
        <time>2000-01-01T17:49:45.000Z</time>
      </trkpt>
      <trkpt lat="48.20726" lon="7.29449">
        <ele>476.5</ele>
        <time>2000-01-01T17:49:55.000Z</time>
      </trkpt>
      <trkpt lat="48.20724" lon="7.29452">
        <ele>476.9</ele>
        <time>2000-01-01T17:50:05.000Z</time>
      </trkpt>
      <trkpt lat="48.20724" lon="7.29453">
        <ele>477.1</ele>
        <time>2000-01-01T17:50:15.000Z</time>
      </trkpt>
      <trkpt lat="48.20725" lon="7.29457">
        <ele>477.6</ele>
        <time>2000-01-01T17:50:25.000Z</time>
      </trkpt>
      <trkpt lat="48.20723" lon="7.29467">
        <ele>470</ele>
        <time>2000-01-01T17:50:35.000Z</time>
      </trkpt>
      <trkpt lat="48.20723" lon="7.29472">
        <ele>479.4</ele>
        <time>2000-01-01T17:50:45.000Z</time>
      </trkpt>
      <trkpt lat="48.20721" lon="7.29476">
        <ele>479.9</ele>
        <time>2000-01-01T17:50:55.000Z</time>
      </trkpt>
      <trkpt lat="48.20719" lon="7.29481">
        <ele>480.5</ele>
        <time>2000-01-01T17:51:05.000Z</time>
      </trkpt>
      <trkpt lat="48.2072" lon="7.29482">
        <ele>480.5</ele>
        <time>2000-01-01T17:51:15.000Z</time>
      </trkpt>
      <trkpt lat="48.20722" lon="7.29484">
        <ele>480.6</ele>
        <time>2000-01-01T17:51:25.000Z</time>
      </trkpt>
      <trkpt lat="48.20723" lon="7.29487">
        <ele>480.8</ele>
        <time>2000-01-01T17:51:35.000Z</time>
      </trkpt>
      <trkpt lat="48.20718" lon="7.29488">
        <ele>479</ele>
        <time>2000-01-01T17:51:45.000Z</time>
      </trkpt>
      <trkpt lat="48.20717" lon="7.29489">
        <ele>481.2</ele>
        <time>2000-01-01T17:51:55.000Z</time>
      </trkpt>
      <trkpt lat="48.20712" lon="7.29492">
        <ele>481.7</ele>
        <time>2000-01-01T17:52:05.000Z</time>
      </trkpt>
      <trkpt lat="48.20706" lon="7.29493">
        <ele>482.4</ele>
        <time>2000-01-01T17:52:15.000Z</time>
      </trkpt>
      <trkpt lat="48.20704" lon="7.29493">
        <ele>482.6</ele>
        <time>2000-01-01T17:52:25.000Z</time>
      </trkpt>
      <trkpt lat="48.20692" lon="7.29496">
        <ele>484</ele>
        <time>2000-01-01T17:52:35.000Z</time>
      </trkpt>
      <trkpt lat="48.20688" lon="7.29496">
        <ele>485.9</ele>
        <time>2000-01-01T17:52:45.000Z</time>
      </trkpt>
      <trkpt lat="48.20682" lon="7.29497">
        <ele>487.8</ele>
        <time>2000-01-01T17:52:55.000Z</time>
      </trkpt>
      <trkpt lat="48.20678" lon="7.29499">
        <ele>489.5</ele>
        <time>2000-01-01T17:53:05.000Z</time>
      </trkpt>
      <trkpt lat="48.20678" lon="7.295">
        <ele>489.6</ele>
        <time>2000-01-01T17:53:15.000Z</time>
      </trkpt>
      <trkpt lat="48.2067" lon="7.29501">
        <ele>488</ele>
        <time>2000-01-01T17:53:25.000Z</time>
      </trkpt>
      <trkpt lat="48.20669" lon="7.29501">
        <ele>496.8</ele>
        <time>2000-01-01T17:53:35.000Z</time>
      </trkpt>
      <trkpt lat="48.20665" lon="7.29504">
        <ele>497.4</ele>
        <time>2000-01-01T17:53:45.000Z</time>
      </trkpt>
      <trkpt lat="48.20666" lon="7.29506">
        <ele>498</ele>
        <time>2000-01-01T17:53:55.000Z</time>
      </trkpt>
      <trkpt lat="48.20664" lon="7.29506">
        <ele>498.1</ele>
        <time>2000-01-01T17:54:05.000Z</time>
      </trkpt>
      <trkpt lat="48.2066" lon="7.29508">
        <ele>499</ele>
        <time>2000-01-01T17:54:15.000Z</time>
      </trkpt>
      <trkpt lat="48.20657" lon="7.29509">
        <ele>499.6</ele>
        <time>2000-01-01T17:54:25.000Z</time>
      </trkpt>
      <trkpt lat="48.20655" lon="7.2951">
        <ele>488</ele>
        <time>2000-01-01T17:54:35.000Z</time>
      </trkpt>
      <trkpt lat="48.20653" lon="7.29511">
        <ele>500.3</ele>
        <time>2000-01-01T17:54:45.000Z</time>
      </trkpt>
      <trkpt lat="48.20651" lon="7.29512">
        <ele>500.6</ele>
        <time>2000-01-01T17:54:55.000Z</time>
      </trkpt>
      <trkpt lat="48.20646" lon="7.29512">
        <ele>501</ele>
        <time>2000-01-01T17:55:05.000Z</time>
      </trkpt>
      <trkpt lat="48.20642" lon="7.29515">
        <ele>501.5</ele>
        <time>2000-01-01T17:55:15.000Z</time>
      </trkpt>
      <trkpt lat="48.20635" lon="7.29518">
        <ele>494</ele>
        <time>2000-01-01T17:55:25.000Z</time>
      </trkpt>
      <trkpt lat="48.20629" lon="7.29519">
        <ele>501.7</ele>
        <time>2000-01-01T17:55:35.000Z</time>
      </trkpt>
      <trkpt lat="48.20623" lon="7.2952">
        <ele>501.5</ele>
        <time>2000-01-01T17:55:45.000Z</time>
      </trkpt>
      <trkpt lat="48.20623" lon="7.29521">
        <ele>501.7</ele>
        <time>2000-01-01T17:55:55.000Z</time>
      </trkpt>
      <trkpt lat="48.20623" lon="7.2952">
        <ele>501.5</ele>
        <time>2000-01-01T17:56:05.000Z</time>
      </trkpt>
      <trkpt lat="48.20622" lon="7.29525">
        <ele>502.1</ele>
        <time>2000-01-01T17:56:15.000Z</time>
      </trkpt>
      <trkpt lat="48.20623" lon="7.29526">
        <ele>502.3</ele>
        <time>2000-01-01T17:56:25.000Z</time>
      </trkpt>
      <trkpt lat="48.20622" lon="7.29527">
        <ele>498</ele>
        <time>2000-01-01T17:56:35.000Z</time>
      </trkpt>
      <trkpt lat="48.20627" lon="7.29531">
        <ele>503.2</ele>
        <time>2000-01-01T17:56:45.000Z</time>
      </trkpt>
      <trkpt lat="48.20625" lon="7.29533">
        <ele>503.4</ele>
        <time>2000-01-01T17:56:55.000Z</time>
      </trkpt>
      <trkpt lat="48.20618" lon="7.29537">
        <ele>503.7</ele>
        <time>2000-01-01T17:57:05.000Z</time>
      </trkpt>
      <trkpt lat="48.20617" lon="7.29539">
        <ele>503.9</ele>
        <time>2000-01-01T17:57:15.000Z</time>
      </trkpt>
      <trkpt lat="48.20616" lon="7.2954">
        <ele>500</ele>
        <time>2000-01-01T17:57:25.000Z</time>
      </trkpt>
      <trkpt lat="48.20605" lon="7.29543">
        <ele>504</ele>
        <time>2000-01-01T17:57:35.000Z</time>
      </trkpt>
      <trkpt lat="48.20599" lon="7.29549">
        <ele>502</ele>
        <time>2000-01-01T17:57:45.000Z</time>
      </trkpt>
      <trkpt lat="48.20596" lon="7.29552">
        <ele>505.5</ele>
        <time>2000-01-01T17:57:55.000Z</time>
      </trkpt>
      <trkpt lat="48.20595" lon="7.29555">
        <ele>506.1</ele>
        <time>2000-01-01T17:58:05.000Z</time>
      </trkpt>
      <trkpt lat="48.20592" lon="7.29563">
        <ele>507.6</ele>
        <time>2000-01-01T17:58:15.000Z</time>
      </trkpt>
      <trkpt lat="48.20592" lon="7.29566">
        <ele>508.2</ele>
        <time>2000-01-01T17:58:25.000Z</time>
      </trkpt>
      <trkpt lat="48.20592" lon="7.29572">
        <ele>505</ele>
        <time>2000-01-01T17:58:35.000Z</time>
      </trkpt>
      <trkpt lat="48.20593" lon="7.29578">
        <ele>510.2</ele>
        <time>2000-01-01T17:58:45.000Z</time>
      </trkpt>
      <trkpt lat="48.20592" lon="7.29582">
        <ele>510.7</ele>
        <time>2000-01-01T17:58:55.000Z</time>
      </trkpt>
      <trkpt lat="48.20586" lon="7.29591">
        <ele>517.8</ele>
        <time>2000-01-01T17:59:05.000Z</time>
      </trkpt>
      <trkpt lat="48.20584" lon="7.29592">
        <ele>518</ele>
        <time>2000-01-01T17:59:15.000Z</time>
      </trkpt>
      <trkpt lat="48.20579" lon="7.29599">
        <ele>509</ele>
        <time>2000-01-01T17:59:25.000Z</time>
      </trkpt>
      <trkpt lat="48.20575" lon="7.29608">
        <ele>513.8</ele>
        <time>2000-01-01T17:59:35.000Z</time>
      </trkpt>
      <trkpt lat="48.20569" lon="7.29613">
        <ele>514</ele>
        <time>2000-01-01T17:59:45.000Z</time>
      </trkpt>
      <trkpt lat="48.20567" lon="7.29614">
        <ele>513.9</ele>
        <time>2000-01-01T17:59:55.000Z</time>
      </trkpt>
      <trkpt lat="48.20558" lon="7.29613">
        <ele>510</ele>
        <time>2000-01-01T18:00:05.000Z</time>
      </trkpt>
      <trkpt lat="48.20558" lon="7.29611">
        <ele>512.5</ele>
        <time>2000-01-01T18:00:15.000Z</time>
      </trkpt>
      <trkpt lat="48.20548" lon="7.29614">
        <ele>511.4</ele>
        <time>2000-01-01T18:00:25.000Z</time>
      </trkpt>
      <trkpt lat="48.20545" lon="7.2962">
        <ele>511.8</ele>
        <time>2000-01-01T18:00:35.000Z</time>
      </trkpt>
      <trkpt lat="48.20546" lon="7.29628">
        <ele>510</ele>
        <time>2000-01-01T18:00:45.000Z</time>
      </trkpt>
      <trkpt lat="48.20549" lon="7.29633">
        <ele>514.5</ele>
        <time>2000-01-01T18:00:55.000Z</time>
      </trkpt>
      <trkpt lat="48.20554" lon="7.29644">
        <ele>517.5</ele>
        <time>2000-01-01T18:01:05.000Z</time>
      </trkpt>
      <trkpt lat="48.20554" lon="7.29648">
        <ele>518.3</ele>
        <time>2000-01-01T18:01:15.000Z</time>
      </trkpt>
      <trkpt lat="48.20554" lon="7.29651">
        <ele>518.8</ele>
        <time>2000-01-01T18:01:25.000Z</time>
      </trkpt>
      <trkpt lat="48.20558" lon="7.29662">
        <ele>526</ele>
        <time>2000-01-01T18:01:35.000Z</time>
      </trkpt>
      <trkpt lat="48.20557" lon="7.29664">
        <ele>521.6</ele>
        <time>2000-01-01T18:01:45.000Z</time>
      </trkpt>
      <trkpt lat="48.2055" lon="7.2967">
        <ele>530.7</ele>
        <time>2000-01-01T18:01:55.000Z</time>
      </trkpt>
      <trkpt lat="48.20548" lon="7.29674">
        <ele>530.3</ele>
        <time>2000-01-01T18:02:05.000Z</time>
      </trkpt>
      <trkpt lat="48.20546" lon="7.29676">
        <ele>529.9</ele>
        <time>2000-01-01T18:02:15.000Z</time>
      </trkpt>
      <trkpt lat="48.20545" lon="7.29682">
        <ele>526</ele>
        <time>2000-01-01T18:02:25.000Z</time>
      </trkpt>
      <trkpt lat="48.20542" lon="7.29693">
        <ele>529.8</ele>
        <time>2000-01-01T18:02:35.000Z</time>
      </trkpt>
      <trkpt lat="48.20535" lon="7.29699">
        <ele>528.8</ele>
        <time>2000-01-01T18:02:45.000Z</time>
      </trkpt>
      <trkpt lat="48.20534" lon="7.297">
        <ele>528.7</ele>
        <time>2000-01-01T18:02:55.000Z</time>
      </trkpt>
      <trkpt lat="48.20527" lon="7.29698">
        <ele>527</ele>
        <time>2000-01-01T18:03:05.000Z</time>
      </trkpt>
      <trkpt lat="48.20518" lon="7.29697">
        <ele>525.4</ele>
        <time>2000-01-01T18:03:15.000Z</time>
      </trkpt>
      <trkpt lat="48.20514" lon="7.29705">
        <ele>525.7</ele>
        <time>2000-01-01T18:03:25.000Z</time>
      </trkpt>
      <trkpt lat="48.20513" lon="7.29706">
        <ele>525.6</ele>
        <time>2000-01-01T18:03:35.000Z</time>
      </trkpt>
      <trkpt lat="48.20513" lon="7.29714">
        <ele>532</ele>
        <time>2000-01-01T18:03:45.000Z</time>
      </trkpt>
      <trkpt lat="48.20517" lon="7.29727">
        <ele>526.5</ele>
        <time>2000-01-01T18:03:55.000Z</time>
      </trkpt>
      <trkpt lat="48.20521" lon="7.29744">
        <ele>531</ele>
        <time>2000-01-01T18:04:05.000Z</time>
      </trkpt>
      <trkpt lat="48.20526" lon="7.29771">
        <ele>531</ele>
        <time>2000-01-01T18:04:15.000Z</time>
      </trkpt>
      <trkpt lat="48.20525" lon="7.29784">
        <ele>528.3</ele>
        <time>2000-01-01T18:04:25.000Z</time>
      </trkpt>
      <trkpt lat="48.20535" lon="7.29802">
        <ele>530</ele>
        <time>2000-01-01T18:04:35.000Z</time>
      </trkpt>
      <trkpt lat="48.20548" lon="7.29824">
        <ele>530</ele>
        <time>2000-01-01T18:04:45.000Z</time>
      </trkpt>
      <trkpt lat="48.20548" lon="7.29828">
        <ele>533.2</ele>
        <time>2000-01-01T18:04:55.000Z</time>
      </trkpt>
      <trkpt lat="48.20552" lon="7.29838">
        <ele>526.9</ele>
        <time>2000-01-01T18:05:05.000Z</time>
      </trkpt>
      <trkpt lat="48.2056" lon="7.29863">
        <ele>527</ele>
        <time>2000-01-01T18:05:15.000Z</time>
      </trkpt>
      <trkpt lat="48.20569" lon="7.29879">
        <ele>526</ele>
        <time>2000-01-01T18:05:25.000Z</time>
      </trkpt>
      <trkpt lat="48.20577" lon="7.29907">
        <ele>527</ele>
        <time>2000-01-01T18:05:35.000Z</time>
      </trkpt>
      <trkpt lat="48.20588" lon="7.29932">
        <ele>527</ele>
        <time>2000-01-01T18:05:45.000Z</time>
      </trkpt>
      <trkpt lat="48.20592" lon="7.29958">
        <ele>544.8</ele>
        <time>2000-01-01T18:05:55.000Z</time>
      </trkpt>
      <trkpt lat="48.20592" lon="7.29977">
        <ele>527</ele>
        <time>2000-01-01T18:06:05.000Z</time>
      </trkpt>
      <trkpt lat="48.20597" lon="7.29999">
        <ele>536.5</ele>
        <time>2000-01-01T18:06:15.000Z</time>
      </trkpt>
      <trkpt lat="48.20606" lon="7.30027">
        <ele>526</ele>
        <time>2000-01-01T18:06:25.000Z</time>
      </trkpt>
      <trkpt lat="48.20608" lon="7.30055">
        <ele>525</ele>
        <time>2000-01-01T18:06:35.000Z</time>
      </trkpt>
      <trkpt lat="48.20607" lon="7.30082">
        <ele>523</ele>
        <time>2000-01-01T18:06:45.000Z</time>
      </trkpt>
      <trkpt lat="48.20609" lon="7.30117">
        <ele>522</ele>
        <time>2000-01-01T18:06:55.000Z</time>
      </trkpt>
      <trkpt lat="48.20614" lon="7.30141">
        <ele>533.7</ele>
        <time>2000-01-01T18:07:05.000Z</time>
      </trkpt>
      <trkpt lat="48.20617" lon="7.3018">
        <ele>524</ele>
        <time>2000-01-01T18:07:15.000Z</time>
      </trkpt>
      <trkpt lat="48.20618" lon="7.30203">
        <ele>539.3</ele>
        <time>2000-01-01T18:07:25.000Z</time>
      </trkpt>
      <trkpt lat="48.20621" lon="7.30234">
        <ele>523</ele>
        <time>2000-01-01T18:07:35.000Z</time>
      </trkpt>
      <trkpt lat="48.20605" lon="7.30248">
        <ele>537.9</ele>
        <time>2000-01-01T18:07:45.000Z</time>
      </trkpt>
      <trkpt lat="48.20586" lon="7.30253">
        <ele>523</ele>
        <time>2000-01-01T18:07:55.000Z</time>
      </trkpt>
      <trkpt lat="48.20566" lon="7.30257">
        <ele>521</ele>
        <time>2000-01-01T18:08:05.000Z</time>
      </trkpt>
      <trkpt lat="48.20548" lon="7.30257">
        <ele>523</ele>
        <time>2000-01-01T18:08:15.000Z</time>
      </trkpt>
      <trkpt lat="48.20528" lon="7.30261">
        <ele>525</ele>
        <time>2000-01-01T18:08:25.000Z</time>
      </trkpt>
      <trkpt lat="48.20518" lon="7.30262">
        <ele>533.4</ele>
        <time>2000-01-01T18:08:35.000Z</time>
      </trkpt>
      <trkpt lat="48.20499" lon="7.30261">
        <ele>525</ele>
        <time>2000-01-01T18:08:45.000Z</time>
      </trkpt>
      <trkpt lat="48.20481" lon="7.30267">
        <ele>523</ele>
        <time>2000-01-01T18:08:55.000Z</time>
      </trkpt>
      <trkpt lat="48.20469" lon="7.30285">
        <ele>524.8</ele>
        <time>2000-01-01T18:09:05.000Z</time>
      </trkpt>
      <trkpt lat="48.20455" lon="7.30309">
        <ele>523</ele>
        <time>2000-01-01T18:09:15.000Z</time>
      </trkpt>
      <trkpt lat="48.20445" lon="7.30332">
        <ele>521</ele>
        <time>2000-01-01T18:09:25.000Z</time>
      </trkpt>
      <trkpt lat="48.20439" lon="7.30341">
        <ele>538.3</ele>
        <time>2000-01-01T18:09:35.000Z</time>
      </trkpt>
      <trkpt lat="48.20426" lon="7.30348">
        <ele>521</ele>
        <time>2000-01-01T18:09:45.000Z</time>
      </trkpt>
      <trkpt lat="48.20415" lon="7.3037">
        <ele>522</ele>
        <time>2000-01-01T18:09:55.000Z</time>
      </trkpt>
      <trkpt lat="48.20401" lon="7.30384">
        <ele>521.8</ele>
        <time>2000-01-01T18:10:05.000Z</time>
      </trkpt>
      <trkpt lat="48.20394" lon="7.30393">
        <ele>525</ele>
        <time>2000-01-01T18:10:15.000Z</time>
      </trkpt>
      <trkpt lat="48.20382" lon="7.3041">
        <ele>521.3</ele>
        <time>2000-01-01T18:10:25.000Z</time>
      </trkpt>
      <trkpt lat="48.20376" lon="7.30431">
        <ele>529</ele>
        <time>2000-01-01T18:10:35.000Z</time>
      </trkpt>
      <trkpt lat="48.2037" lon="7.30446">
        <ele>532.5</ele>
        <time>2000-01-01T18:10:45.000Z</time>
      </trkpt>
      <trkpt lat="48.20362" lon="7.30471">
        <ele>525</ele>
        <time>2000-01-01T18:10:55.000Z</time>
      </trkpt>
      <trkpt lat="48.2036" lon="7.30474">
        <ele>532.9</ele>
        <time>2000-01-01T18:11:05.000Z</time>
      </trkpt>
      <trkpt lat="48.20356" lon="7.3048">
        <ele>532.2</ele>
        <time>2000-01-01T18:11:15.000Z</time>
      </trkpt>
      <trkpt lat="48.20349" lon="7.3049">
        <ele>524</ele>
        <time>2000-01-01T18:11:25.000Z</time>
      </trkpt>
      <trkpt lat="48.20341" lon="7.30497">
        <ele>527.9</ele>
        <time>2000-01-01T18:11:35.000Z</time>
      </trkpt>
      <trkpt lat="48.20337" lon="7.30515">
        <ele>524</ele>
        <time>2000-01-01T18:11:45.000Z</time>
      </trkpt>
      <trkpt lat="48.2034" lon="7.30524">
        <ele>532.3</ele>
        <time>2000-01-01T18:11:55.000Z</time>
      </trkpt>
      <trkpt lat="48.20346" lon="7.30529">
        <ele>533.3</ele>
        <time>2000-01-01T18:12:05.000Z</time>
      </trkpt>
      <trkpt lat="48.20348" lon="7.3053">
        <ele>533.7</ele>
        <time>2000-01-01T18:12:15.000Z</time>
      </trkpt>
      <trkpt lat="48.20349" lon="7.30532">
        <ele>533.8</ele>
        <time>2000-01-01T18:12:25.000Z</time>
      </trkpt>
      <trkpt lat="48.20355" lon="7.3053">
        <ele>528</ele>
        <time>2000-01-01T18:12:35.000Z</time>
      </trkpt>
      <trkpt lat="48.20357" lon="7.3053">
        <ele>535.3</ele>
        <time>2000-01-01T18:12:45.000Z</time>
      </trkpt>
      <trkpt lat="48.20359" lon="7.30529">
        <ele>535.7</ele>
        <time>2000-01-01T18:12:55.000Z</time>
      </trkpt>
      <trkpt lat="48.20359" lon="7.3053">
        <ele>535.7</ele>
        <time>2000-01-01T18:13:05.000Z</time>
      </trkpt>
      <trkpt lat="48.20358" lon="7.3053">
        <ele>535.5</ele>
        <time>2000-01-01T18:13:15.000Z</time>
      </trkpt>
      <trkpt lat="48.20361" lon="7.30534">
        <ele>536</ele>
        <time>2000-01-01T18:13:25.000Z</time>
      </trkpt>
      <trkpt lat="48.20365" lon="7.30536">
        <ele>536.8</ele>
        <time>2000-01-01T18:13:35.000Z</time>
      </trkpt>
      <trkpt lat="48.20367" lon="7.30541">
        <ele>537</ele>
        <time>2000-01-01T18:13:45.000Z</time>
      </trkpt>
      <trkpt lat="48.20368" lon="7.30545">
        <ele>529</ele>
        <time>2000-01-01T18:13:55.000Z</time>
      </trkpt>
      <trkpt lat="48.20374" lon="7.30551">
        <ele>538.1</ele>
        <time>2000-01-01T18:14:05.000Z</time>
      </trkpt>
      <trkpt lat="48.20379" lon="7.30552">
        <ele>539.3</ele>
        <time>2000-01-01T18:14:15.000Z</time>
      </trkpt>
      <trkpt lat="48.20381" lon="7.30553">
        <ele>539.7</ele>
        <time>2000-01-01T18:14:25.000Z</time>
      </trkpt>
      <trkpt lat="48.20383" lon="7.30554">
        <ele>540.2</ele>
        <time>2000-01-01T18:14:35.000Z</time>
      </trkpt>
      <trkpt lat="48.20385" lon="7.30555">
        <ele>535</ele>
        <time>2000-01-01T18:14:45.000Z</time>
      </trkpt>
      <trkpt lat="48.20387" lon="7.30556">
        <ele>541.1</ele>
        <time>2000-01-01T18:14:55.000Z</time>
      </trkpt>
      <trkpt lat="48.20389" lon="7.30556">
        <ele>541.6</ele>
        <time>2000-01-01T18:15:05.000Z</time>
      </trkpt>
      <trkpt lat="48.2039" lon="7.30561">
        <ele>542</ele>
        <time>2000-01-01T18:15:15.000Z</time>
      </trkpt>
      <trkpt lat="48.2039" lon="7.30562">
        <ele>542</ele>
        <time>2000-01-01T18:15:25.000Z</time>
      </trkpt>
      <trkpt lat="48.2039" lon="7.30559">
        <ele>541.9</ele>
        <time>2000-01-01T18:15:35.000Z</time>
      </trkpt>
      <trkpt lat="48.20394" lon="7.30558">
        <ele>542.8</ele>
        <time>2000-01-01T18:15:45.000Z</time>
      </trkpt>
      <trkpt lat="48.20396" lon="7.30557">
        <ele>543.2</ele>
        <time>2000-01-01T18:15:55.000Z</time>
      </trkpt>
      <trkpt lat="48.20397" lon="7.30559">
        <ele>543.5</ele>
        <time>2000-01-01T18:16:05.000Z</time>
      </trkpt>
      <trkpt lat="48.204" lon="7.30563">
        <ele>544</ele>
        <time>2000-01-01T18:16:15.000Z</time>
      </trkpt>
      <trkpt lat="48.20402" lon="7.30567">
        <ele>545.5</ele>
        <time>2000-01-01T18:16:25.000Z</time>
      </trkpt>
      <trkpt lat="48.20407" lon="7.30573">
        <ele>547.9</ele>
        <time>2000-01-01T18:16:35.000Z</time>
      </trkpt>
      <trkpt lat="48.20415" lon="7.3058">
        <ele>546</ele>
        <time>2000-01-01T18:16:45.000Z</time>
      </trkpt>
      <trkpt lat="48.20417" lon="7.3058">
        <ele>558.2</ele>
        <time>2000-01-01T18:16:55.000Z</time>
      </trkpt>
      <trkpt lat="48.20417" lon="7.30581">
        <ele>557.3</ele>
        <time>2000-01-01T18:17:05.000Z</time>
      </trkpt>
      <trkpt lat="48.2042" lon="7.30581">
        <ele>558.8</ele>
        <time>2000-01-01T18:17:15.000Z</time>
      </trkpt>
      <trkpt lat="48.2042" lon="7.3058">
        <ele>559.4</ele>
        <time>2000-01-01T18:17:25.000Z</time>
      </trkpt>
      <trkpt lat="48.20421" lon="7.30582">
        <ele>559.3</ele>
        <time>2000-01-01T18:17:35.000Z</time>
      </trkpt>
      <trkpt lat="48.20423" lon="7.30589">
        <ele>561.4</ele>
        <time>2000-01-01T18:17:45.000Z</time>
      </trkpt>
      <trkpt lat="48.20426" lon="7.30594">
        <ele>564.5</ele>
        <time>2000-01-01T18:17:55.000Z</time>
      </trkpt>
      <trkpt lat="48.20428" lon="7.30593">
        <ele>550</ele>
        <time>2000-01-01T18:18:05.000Z</time>
      </trkpt>
      <trkpt lat="48.20428" lon="7.30588">
        <ele>563.8</ele>
        <time>2000-01-01T18:18:15.000Z</time>
      </trkpt>
      <trkpt lat="48.2043" lon="7.30588">
        <ele>564.8</ele>
        <time>2000-01-01T18:18:25.000Z</time>
      </trkpt>
      <trkpt lat="48.2043" lon="7.3059">
        <ele>565.2</ele>
        <time>2000-01-01T18:18:35.000Z</time>
      </trkpt>
      <trkpt lat="48.20434" lon="7.30592">
        <ele>567.4</ele>
        <time>2000-01-01T18:18:45.000Z</time>
      </trkpt>
      <trkpt lat="48.20435" lon="7.30597">
        <ele>568.6</ele>
        <time>2000-01-01T18:18:55.000Z</time>
      </trkpt>
      <trkpt lat="48.20444" lon="7.30602">
        <ele>559</ele>
        <time>2000-01-01T18:19:05.000Z</time>
      </trkpt>
      <trkpt lat="48.20449" lon="7.30613">
        <ele>574.4</ele>
        <time>2000-01-01T18:19:15.000Z</time>
      </trkpt>
      <trkpt lat="48.2045" lon="7.30614">
        <ele>574.7</ele>
        <time>2000-01-01T18:19:25.000Z</time>
      </trkpt>
      <trkpt lat="48.20453" lon="7.30611">
        <ele>575.5</ele>
        <time>2000-01-01T18:19:35.000Z</time>
      </trkpt>
      <trkpt lat="48.20454" lon="7.30607">
        <ele>575.8</ele>
        <time>2000-01-01T18:19:45.000Z</time>
      </trkpt>
      <trkpt lat="48.20453" lon="7.30603">
        <ele>569</ele>
        <time>2000-01-01T18:19:55.000Z</time>
      </trkpt>
      <trkpt lat="48.2045" lon="7.30598">
        <ele>574.3</ele>
        <time>2000-01-01T18:20:05.000Z</time>
      </trkpt>
      <trkpt lat="48.20447" lon="7.30597">
        <ele>573.1</ele>
        <time>2000-01-01T18:20:15.000Z</time>
      </trkpt>
      <trkpt lat="48.20445" lon="7.30591">
        <ele>572.1</ele>
        <time>2000-01-01T18:20:25.000Z</time>
      </trkpt>
      <trkpt lat="48.20445" lon="7.30588">
        <ele>571.9</ele>
        <time>2000-01-01T18:20:35.000Z</time>
      </trkpt>
      <trkpt lat="48.20443" lon="7.30577">
        <ele>571</ele>
        <time>2000-01-01T18:20:45.000Z</time>
      </trkpt>
      <trkpt lat="48.20438" lon="7.30565">
        <ele>572.4</ele>
        <time>2000-01-01T18:20:55.000Z</time>
      </trkpt>
      <trkpt lat="48.20438" lon="7.30558">
        <ele>573.5</ele>
        <time>2000-01-01T18:21:05.000Z</time>
      </trkpt>
      <trkpt lat="48.20442" lon="7.3055">
        <ele>575</ele>
        <time>2000-01-01T18:21:15.000Z</time>
      </trkpt>
      <trkpt lat="48.20445" lon="7.30543">
        <ele>576.5</ele>
        <time>2000-01-01T18:21:25.000Z</time>
      </trkpt>
      <trkpt lat="48.20447" lon="7.30538">
        <ele>577</ele>
        <time>2000-01-01T18:21:35.000Z</time>
      </trkpt>
      <trkpt lat="48.20448" lon="7.30534">
        <ele>577.3</ele>
        <time>2000-01-01T18:21:45.000Z</time>
      </trkpt>
      <trkpt lat="48.20449" lon="7.3053">
        <ele>577.5</ele>
        <time>2000-01-01T18:21:55.000Z</time>
      </trkpt>
      <trkpt lat="48.20451" lon="7.30526">
        <ele>581</ele>
        <time>2000-01-01T18:22:05.000Z</time>
      </trkpt>
      <trkpt lat="48.20452" lon="7.30525">
        <ele>578.3</ele>
        <time>2000-01-01T18:22:15.000Z</time>
      </trkpt>
      <trkpt lat="48.20455" lon="7.30525">
        <ele>579.2</ele>
        <time>2000-01-01T18:22:25.000Z</time>
      </trkpt>
      <trkpt lat="48.20455" lon="7.30524">
        <ele>579.2</ele>
        <time>2000-01-01T18:22:35.000Z</time>
      </trkpt>
      <trkpt lat="48.20466" lon="7.30543">
        <ele>587</ele>
        <time>2000-01-01T18:22:45.000Z</time>
      </trkpt>
      <trkpt lat="48.20466" lon="7.30551">
        <ele>582.1</ele>
        <time>2000-01-01T18:22:55.000Z</time>
      </trkpt>
      <trkpt lat="48.20466" lon="7.30553">
        <ele>582.1</ele>
        <time>2000-01-01T18:23:05.000Z</time>
      </trkpt>
      <trkpt lat="48.20466" lon="7.30559">
        <ele>582.3</ele>
        <time>2000-01-01T18:23:15.000Z</time>
      </trkpt>
      <trkpt lat="48.20467" lon="7.30564">
        <ele>582.8</ele>
        <time>2000-01-01T18:23:25.000Z</time>
      </trkpt>
      <trkpt lat="48.20475" lon="7.30577">
        <ele>590</ele>
        <time>2000-01-01T18:23:35.000Z</time>
      </trkpt>
      <trkpt lat="48.20477" lon="7.30579">
        <ele>587.8</ele>
        <time>2000-01-01T18:23:45.000Z</time>
      </trkpt>
      <trkpt lat="48.20483" lon="7.30587">
        <ele>589.3</ele>
        <time>2000-01-01T18:23:55.000Z</time>
      </trkpt>
      <trkpt lat="48.20493" lon="7.3059">
        <ele>598</ele>
        <time>2000-01-01T18:24:05.000Z</time>
      </trkpt>
      <trkpt lat="48.20492" lon="7.30589">
        <ele>594.3</ele>
        <time>2000-01-01T18:24:15.000Z</time>
      </trkpt>
      <trkpt lat="48.20486" lon="7.30576">
        <ele>591.8</ele>
        <time>2000-01-01T18:24:25.000Z</time>
      </trkpt>
      <trkpt lat="48.20487" lon="7.30575">
        <ele>592.1</ele>
        <time>2000-01-01T18:24:35.000Z</time>
      </trkpt>
      <trkpt lat="48.20487" lon="7.3057">
        <ele>590.8</ele>
        <time>2000-01-01T18:24:45.000Z</time>
      </trkpt>
      <trkpt lat="48.20489" lon="7.30567">
        <ele>599</ele>
        <time>2000-01-01T18:24:55.000Z</time>
      </trkpt>
      <trkpt lat="48.20491" lon="7.3057">
        <ele>592.2</ele>
        <time>2000-01-01T18:25:05.000Z</time>
      </trkpt>
      <trkpt lat="48.20492" lon="7.30572">
        <ele>593.3</ele>
        <time>2000-01-01T18:25:15.000Z</time>
      </trkpt>
      <trkpt lat="48.20494" lon="7.30573">
        <ele>594.4</ele>
        <time>2000-01-01T18:25:25.000Z</time>
      </trkpt>
      <trkpt lat="48.20509" lon="7.30586">
        <ele>606</ele>
        <time>2000-01-01T18:25:35.000Z</time>
      </trkpt>
      <trkpt lat="48.20517" lon="7.30591">
        <ele>607.2</ele>
        <time>2000-01-01T18:25:45.000Z</time>
      </trkpt>
      <trkpt lat="48.20521" lon="7.30595">
        <ele>608</ele>
        <time>2000-01-01T18:25:55.000Z</time>
      </trkpt>
      <trkpt lat="48.20523" lon="7.30603">
        <ele>611</ele>
        <time>2000-01-01T18:26:05.000Z</time>
      </trkpt>
      <trkpt lat="48.20523" lon="7.30608">
        <ele>608.1</ele>
        <time>2000-01-01T18:26:15.000Z</time>
      </trkpt>
      <trkpt lat="48.20524" lon="7.30611">
        <ele>608.1</ele>
        <time>2000-01-01T18:26:25.000Z</time>
      </trkpt>
      <trkpt lat="48.20525" lon="7.30615">
        <ele>608</ele>
        <time>2000-01-01T18:26:35.000Z</time>
      </trkpt>
      <trkpt lat="48.2053" lon="7.30618">
        <ele>608.4</ele>
        <time>2000-01-01T18:26:45.000Z</time>
      </trkpt>
      <trkpt lat="48.20534" lon="7.30619">
        <ele>613</ele>
        <time>2000-01-01T18:26:55.000Z</time>
      </trkpt>
      <trkpt lat="48.20538" lon="7.30621">
        <ele>609.2</ele>
        <time>2000-01-01T18:27:05.000Z</time>
      </trkpt>
      <trkpt lat="48.20542" lon="7.30619">
        <ele>610</ele>
        <time>2000-01-01T18:27:15.000Z</time>
      </trkpt>
      <trkpt lat="48.20539" lon="7.30614">
        <ele>610.1</ele>
        <time>2000-01-01T18:27:25.000Z</time>
      </trkpt>
      <trkpt lat="48.20537" lon="7.30613">
        <ele>609.9</ele>
        <time>2000-01-01T18:27:35.000Z</time>
      </trkpt>
      <trkpt lat="48.20537" lon="7.30607">
        <ele>616</ele>
        <time>2000-01-01T18:27:45.000Z</time>
      </trkpt>
      <trkpt lat="48.20539" lon="7.30594">
        <ele>611.7</ele>
        <time>2000-01-01T18:27:55.000Z</time>
      </trkpt>
      <trkpt lat="48.20538" lon="7.30589">
        <ele>611.8</ele>
        <time>2000-01-01T18:28:05.000Z</time>
      </trkpt>
      <trkpt lat="48.20537" lon="7.30573">
        <ele>623</ele>
        <time>2000-01-01T18:28:15.000Z</time>
      </trkpt>
      <trkpt lat="48.2054" lon="7.30568">
        <ele>616.6</ele>
        <time>2000-01-01T18:28:25.000Z</time>
      </trkpt>
      <trkpt lat="48.20544" lon="7.30564">
        <ele>617.5</ele>
        <time>2000-01-01T18:28:35.000Z</time>
      </trkpt>
      <trkpt lat="48.20545" lon="7.30565">
        <ele>617.7</ele>
        <time>2000-01-01T18:28:45.000Z</time>
      </trkpt>
      <trkpt lat="48.20546" lon="7.30565">
        <ele>618</ele>
        <time>2000-01-01T18:28:55.000Z</time>
      </trkpt>
      <trkpt lat="48.20546" lon="7.30567">
        <ele>618.1</ele>
        <time>2000-01-01T18:29:05.000Z</time>
      </trkpt>
      <trkpt lat="48.20552" lon="7.30568">
        <ele>629</ele>
        <time>2000-01-01T18:29:15.000Z</time>
      </trkpt>
      <trkpt lat="48.2056" lon="7.30566">
        <ele>621.5</ele>
        <time>2000-01-01T18:29:25.000Z</time>
      </trkpt>
      <trkpt lat="48.20569" lon="7.30562">
        <ele>622.9</ele>
        <time>2000-01-01T18:29:35.000Z</time>
      </trkpt>
      <trkpt lat="48.20574" lon="7.30558">
        <ele>634</ele>
        <time>2000-01-01T18:29:45.000Z</time>
      </trkpt>
      <trkpt lat="48.20578" lon="7.30554">
        <ele>622.7</ele>
        <time>2000-01-01T18:29:55.000Z</time>
      </trkpt>
      <trkpt lat="48.20582" lon="7.30549">
        <ele>622.2</ele>
        <time>2000-01-01T18:30:05.000Z</time>
      </trkpt>
      <trkpt lat="48.20585" lon="7.30546">
        <ele>630.5</ele>
        <time>2000-01-01T18:30:15.000Z</time>
      </trkpt>
      <trkpt lat="48.20588" lon="7.3055">
        <ele>630.9</ele>
        <time>2000-01-01T18:30:25.000Z</time>
      </trkpt>
      <trkpt lat="48.20598" lon="7.30549">
        <ele>637</ele>
        <time>2000-01-01T18:30:35.000Z</time>
      </trkpt>
      <trkpt lat="48.206" lon="7.30549">
        <ele>630.7</ele>
        <time>2000-01-01T18:30:45.000Z</time>
      </trkpt>
      <trkpt lat="48.20602" lon="7.30547">
        <ele>630.6</ele>
        <time>2000-01-01T18:30:55.000Z</time>
      </trkpt>
      <trkpt lat="48.20604" lon="7.30546">
        <ele>630.5</ele>
        <time>2000-01-01T18:31:05.000Z</time>
      </trkpt>
      <trkpt lat="48.20605" lon="7.30545">
        <ele>630.4</ele>
        <time>2000-01-01T18:31:15.000Z</time>
      </trkpt>
      <trkpt lat="48.20605" lon="7.30543">
        <ele>630.3</ele>
        <time>2000-01-01T18:31:25.000Z</time>
      </trkpt>
      <trkpt lat="48.20617" lon="7.30532">
        <ele>639</ele>
        <time>2000-01-01T18:31:35.000Z</time>
      </trkpt>
      <trkpt lat="48.20622" lon="7.30535">
        <ele>629.9</ele>
        <time>2000-01-01T18:31:45.000Z</time>
      </trkpt>
      <trkpt lat="48.20624" lon="7.30538">
        <ele>630</ele>
        <time>2000-01-01T18:31:55.000Z</time>
      </trkpt>
      <trkpt lat="48.20633" lon="7.30544">
        <ele>643</ele>
        <time>2000-01-01T18:32:05.000Z</time>
      </trkpt>
      <trkpt lat="48.20637" lon="7.30553">
        <ele>631</ele>
        <time>2000-01-01T18:32:15.000Z</time>
      </trkpt>
      <trkpt lat="48.20647" lon="7.30557">
        <ele>631.4</ele>
        <time>2000-01-01T18:32:25.000Z</time>
      </trkpt>
      <trkpt lat="48.20648" lon="7.30556">
        <ele>643</ele>
        <time>2000-01-01T18:32:35.000Z</time>
      </trkpt>
      <trkpt lat="48.20653" lon="7.30552">
        <ele>631.1</ele>
        <time>2000-01-01T18:32:45.000Z</time>
      </trkpt>
      <trkpt lat="48.20655" lon="7.30552">
        <ele>631.1</ele>
        <time>2000-01-01T18:32:55.000Z</time>
      </trkpt>
      <trkpt lat="48.20657" lon="7.30542">
        <ele>630.4</ele>
        <time>2000-01-01T18:33:05.000Z</time>
      </trkpt>
      <trkpt lat="48.20659" lon="7.30524">
        <ele>635</ele>
        <time>2000-01-01T18:33:15.000Z</time>
      </trkpt>
      <trkpt lat="48.20658" lon="7.30518">
        <ele>628.4</ele>
        <time>2000-01-01T18:33:25.000Z</time>
      </trkpt>
      <trkpt lat="48.20658" lon="7.30515">
        <ele>628.2</ele>
        <time>2000-01-01T18:33:35.000Z</time>
      </trkpt>
      <trkpt lat="48.20657" lon="7.30513">
        <ele>628</ele>
        <time>2000-01-01T18:33:45.000Z</time>
      </trkpt>
      <trkpt lat="48.20654" lon="7.30509">
        <ele>627.9</ele>
        <time>2000-01-01T18:33:55.000Z</time>
      </trkpt>
      <trkpt lat="48.20653" lon="7.30507">
        <ele>627.9</ele>
        <time>2000-01-01T18:34:05.000Z</time>
      </trkpt>
      <trkpt lat="48.20649" lon="7.30506">
        <ele>628</ele>
        <time>2000-01-01T18:34:15.000Z</time>
      </trkpt>
      <trkpt lat="48.20646" lon="7.30508">
        <ele>634</ele>
        <time>2000-01-01T18:34:25.000Z</time>
      </trkpt>
      <trkpt lat="48.2064" lon="7.30505">
        <ele>628.4</ele>
        <time>2000-01-01T18:34:35.000Z</time>
      </trkpt>
      <trkpt lat="48.20639" lon="7.30503">
        <ele>628.4</ele>
        <time>2000-01-01T18:34:45.000Z</time>
      </trkpt>
      <trkpt lat="48.20627" lon="7.30505">
        <ele>634</ele>
        <time>2000-01-01T18:34:55.000Z</time>
      </trkpt>
      <trkpt lat="48.20611" lon="7.30513">
        <ele>628.5</ele>
        <time>2000-01-01T18:35:05.000Z</time>
      </trkpt>
      <trkpt lat="48.20611" lon="7.30514">
        <ele>628.6</ele>
        <time>2000-01-01T18:35:15.000Z</time>
      </trkpt>
      <trkpt lat="48.20603" lon="7.30519">
        <ele>633</ele>
        <time>2000-01-01T18:35:25.000Z</time>
      </trkpt>
      <trkpt lat="48.20596" lon="7.30528">
        <ele>629</ele>
        <time>2000-01-01T18:35:35.000Z</time>
      </trkpt>
      <trkpt lat="48.20588" lon="7.30533">
        <ele>632</ele>
        <time>2000-01-01T18:35:45.000Z</time>
      </trkpt>
      <trkpt lat="48.20582" lon="7.30533">
        <ele>621</ele>
        <time>2000-01-01T18:35:55.000Z</time>
      </trkpt>
      <trkpt lat="48.20575" lon="7.30533">
        <ele>620.5</ele>
        <time>2000-01-01T18:36:05.000Z</time>
      </trkpt>
      <trkpt lat="48.20574" lon="7.30533">
        <ele>620.4</ele>
        <time>2000-01-01T18:36:15.000Z</time>
      </trkpt>
      <trkpt lat="48.20569" lon="7.30528">
        <ele>626</ele>
        <time>2000-01-01T18:36:25.000Z</time>
      </trkpt>
      <trkpt lat="48.20572" lon="7.30519">
        <ele>620.4</ele>
        <time>2000-01-01T18:36:35.000Z</time>
      </trkpt>
      <trkpt lat="48.20577" lon="7.30514">
        <ele>621.4</ele>
        <time>2000-01-01T18:36:45.000Z</time>
      </trkpt>
      <trkpt lat="48.20585" lon="7.30509">
        <ele>626</ele>
        <time>2000-01-01T18:36:55.000Z</time>
      </trkpt>
      <trkpt lat="48.20592" lon="7.30505">
        <ele>626.7</ele>
        <time>2000-01-01T18:37:05.000Z</time>
      </trkpt>
      <trkpt lat="48.2061" lon="7.30498">
        <ele>626</ele>
        <time>2000-01-01T18:37:15.000Z</time>
      </trkpt>
      <trkpt lat="48.2062" lon="7.30491">
        <ele>616.5</ele>
        <time>2000-01-01T18:37:25.000Z</time>
      </trkpt>
      <trkpt lat="48.20624" lon="7.30487">
        <ele>616.1</ele>
        <time>2000-01-01T18:37:35.000Z</time>
      </trkpt>
      <trkpt lat="48.20633" lon="7.30487">
        <ele>626</ele>
        <time>2000-01-01T18:37:45.000Z</time>
      </trkpt>
      <trkpt lat="48.2064" lon="7.30485">
        <ele>616.7</ele>
        <time>2000-01-01T18:37:55.000Z</time>
      </trkpt>
      <trkpt lat="48.20658" lon="7.30481">
        <ele>626</ele>
        <time>2000-01-01T18:38:05.000Z</time>
      </trkpt>
      <trkpt lat="48.20664" lon="7.30483">
        <ele>618.9</ele>
        <time>2000-01-01T18:38:15.000Z</time>
      </trkpt>
      <trkpt lat="48.20679" lon="7.30478">
        <ele>620</ele>
        <time>2000-01-01T18:38:25.000Z</time>
      </trkpt>
      <trkpt lat="48.20691" lon="7.30475">
        <ele>613.9</ele>
        <time>2000-01-01T18:38:35.000Z</time>
      </trkpt>
      <trkpt lat="48.20695" lon="7.30471">
        <ele>613</ele>
        <time>2000-01-01T18:38:45.000Z</time>
      </trkpt>
      <trkpt lat="48.20694" lon="7.30471">
        <ele>613.1</ele>
        <time>2000-01-01T18:38:55.000Z</time>
      </trkpt>
      <trkpt lat="48.20694" lon="7.30471">
        <ele>613.1</ele>
        <time>2000-01-01T18:39:05.000Z</time>
      </trkpt>
      <trkpt lat="48.20695" lon="7.30469">
        <ele>617</ele>
        <time>2000-01-01T18:39:15.000Z</time>
      </trkpt>
      <trkpt lat="48.20704" lon="7.30465">
        <ele>611.8</ele>
        <time>2000-01-01T18:39:25.000Z</time>
      </trkpt>
      <trkpt lat="48.20712" lon="7.30463">
        <ele>611.3</ele>
        <time>2000-01-01T18:39:35.000Z</time>
      </trkpt>
      <trkpt lat="48.20722" lon="7.30458">
        <ele>612</ele>
        <time>2000-01-01T18:39:45.000Z</time>
      </trkpt>
      <trkpt lat="48.20726" lon="7.30453">
        <ele>610.1</ele>
        <time>2000-01-01T18:39:55.000Z</time>
      </trkpt>
      <trkpt lat="48.2073" lon="7.3045">
        <ele>609.8</ele>
        <time>2000-01-01T18:40:05.000Z</time>
      </trkpt>
      <trkpt lat="48.20739" lon="7.30439">
        <ele>607</ele>
        <time>2000-01-01T18:40:15.000Z</time>
      </trkpt>
      <trkpt lat="48.20751" lon="7.30423">
        <ele>605.3</ele>
        <time>2000-01-01T18:40:25.000Z</time>
      </trkpt>
      <trkpt lat="48.20758" lon="7.30411">
        <ele>604</ele>
        <time>2000-01-01T18:40:35.000Z</time>
      </trkpt>
      <trkpt lat="48.20772" lon="7.30391">
        <ele>604</ele>
        <time>2000-01-01T18:40:45.000Z</time>
      </trkpt>
      <trkpt lat="48.20781" lon="7.30369">
        <ele>603.6</ele>
        <time>2000-01-01T18:40:55.000Z</time>
      </trkpt>
      <trkpt lat="48.20776" lon="7.30342">
        <ele>604</ele>
        <time>2000-01-01T18:41:05.000Z</time>
      </trkpt>
      <trkpt lat="48.20779" lon="7.30323">
        <ele>603</ele>
        <time>2000-01-01T18:41:15.000Z</time>
      </trkpt>
      <trkpt lat="48.20784" lon="7.30304">
        <ele>608</ele>
        <time>2000-01-01T18:41:25.000Z</time>
      </trkpt>
      <trkpt lat="48.20787" lon="7.30296">
        <ele>603.7</ele>
        <time>2000-01-01T18:41:35.000Z</time>
      </trkpt>
      <trkpt lat="48.20787" lon="7.30293">
        <ele>603.7</ele>
        <time>2000-01-01T18:41:45.000Z</time>
      </trkpt>
      <trkpt lat="48.20792" lon="7.30284">
        <ele>604</ele>
        <time>2000-01-01T18:41:55.000Z</time>
      </trkpt>
      <trkpt lat="48.208" lon="7.30272">
        <ele>611</ele>
        <time>2000-01-01T18:42:05.000Z</time>
      </trkpt>
      <trkpt lat="48.20817" lon="7.30253">
        <ele>613</ele>
        <time>2000-01-01T18:42:15.000Z</time>
      </trkpt>
      <trkpt lat="48.20828" lon="7.30246">
        <ele>610.7</ele>
        <time>2000-01-01T18:42:25.000Z</time>
      </trkpt>
      <trkpt lat="48.20845" lon="7.30228">
        <ele>615</ele>
        <time>2000-01-01T18:42:35.000Z</time>
      </trkpt>
      <trkpt lat="48.20855" lon="7.30217">
        <ele>618</ele>
        <time>2000-01-01T18:42:45.000Z</time>
      </trkpt>
      <trkpt lat="48.20872" lon="7.302">
        <ele>618</ele>
        <time>2000-01-01T18:42:55.000Z</time>
      </trkpt>
      <trkpt lat="48.20875" lon="7.30197">
        <ele>620</ele>
        <time>2000-01-01T18:43:05.000Z</time>
      </trkpt>
      <trkpt lat="48.20882" lon="7.30189">
        <ele>620.8</ele>
        <time>2000-01-01T18:43:15.000Z</time>
      </trkpt>
      <trkpt lat="48.20887" lon="7.30182">
        <ele>619</ele>
        <time>2000-01-01T18:43:25.000Z</time>
      </trkpt>
      <trkpt lat="48.2089" lon="7.3018">
        <ele>621.9</ele>
        <time>2000-01-01T18:43:35.000Z</time>
      </trkpt>
      <trkpt lat="48.20898" lon="7.30175">
        <ele>623.1</ele>
        <time>2000-01-01T18:43:45.000Z</time>
      </trkpt>
      <trkpt lat="48.20902" lon="7.30169">
        <ele>622</ele>
        <time>2000-01-01T18:43:55.000Z</time>
      </trkpt>
      <trkpt lat="48.20907" lon="7.30164">
        <ele>627.5</ele>
        <time>2000-01-01T18:44:05.000Z</time>
      </trkpt>
      <trkpt lat="48.20915" lon="7.30151">
        <ele>627.6</ele>
        <time>2000-01-01T18:44:15.000Z</time>
      </trkpt>
      <trkpt lat="48.20926" lon="7.30138">
        <ele>625</ele>
        <time>2000-01-01T18:44:25.000Z</time>
      </trkpt>
      <trkpt lat="48.2093" lon="7.30134">
        <ele>630.5</ele>
        <time>2000-01-01T18:44:35.000Z</time>
      </trkpt>
      <trkpt lat="48.20934" lon="7.30126">
        <ele>630.8</ele>
        <time>2000-01-01T18:44:45.000Z</time>
      </trkpt>
      <trkpt lat="48.20935" lon="7.30125">
        <ele>630.9</ele>
        <time>2000-01-01T18:44:55.000Z</time>
      </trkpt>
      <trkpt lat="48.20943" lon="7.30114">
        <ele>626</ele>
        <time>2000-01-01T18:45:05.000Z</time>
      </trkpt>
      <trkpt lat="48.20951" lon="7.30107">
        <ele>631.6</ele>
        <time>2000-01-01T18:45:15.000Z</time>
      </trkpt>
      <trkpt lat="48.20954" lon="7.30104">
        <ele>631.7</ele>
        <time>2000-01-01T18:45:25.000Z</time>
      </trkpt>
      <trkpt lat="48.20967" lon="7.30092">
        <ele>630</ele>
        <time>2000-01-01T18:45:35.000Z</time>
      </trkpt>
      <trkpt lat="48.20968" lon="7.30091">
        <ele>632.2</ele>
        <time>2000-01-01T18:45:45.000Z</time>
      </trkpt>
      <trkpt lat="48.2097" lon="7.30086">
        <ele>632.4</ele>
        <time>2000-01-01T18:45:55.000Z</time>
      </trkpt>
      <trkpt lat="48.20974" lon="7.3008">
        <ele>634.2</ele>
        <time>2000-01-01T18:46:05.000Z</time>
      </trkpt>
      <trkpt lat="48.20981" lon="7.30076">
        <ele>634</ele>
        <time>2000-01-01T18:46:15.000Z</time>
      </trkpt>
      <trkpt lat="48.2099" lon="7.30068">
        <ele>634.5</ele>
        <time>2000-01-01T18:46:25.000Z</time>
      </trkpt>
      <trkpt lat="48.20996" lon="7.30065">
        <ele>634.5</ele>
        <time>2000-01-01T18:46:35.000Z</time>
      </trkpt>
      <trkpt lat="48.21006" lon="7.30056">
        <ele>636</ele>
        <time>2000-01-01T18:46:45.000Z</time>
      </trkpt>
      <trkpt lat="48.21013" lon="7.3005">
        <ele>638.3</ele>
        <time>2000-01-01T18:46:55.000Z</time>
      </trkpt>
      <trkpt lat="48.21017" lon="7.30045">
        <ele>638.5</ele>
        <time>2000-01-01T18:47:05.000Z</time>
      </trkpt>
      <trkpt lat="48.21021" lon="7.3004">
        <ele>637</ele>
        <time>2000-01-01T18:47:15.000Z</time>
      </trkpt>
      <trkpt lat="48.21028" lon="7.30034">
        <ele>638.9</ele>
        <time>2000-01-01T18:47:25.000Z</time>
      </trkpt>
      <trkpt lat="48.21044" lon="7.30023">
        <ele>636</ele>
        <time>2000-01-01T18:47:35.000Z</time>
      </trkpt>
      <trkpt lat="48.21062" lon="7.30009">
        <ele>635</ele>
        <time>2000-01-01T18:47:45.000Z</time>
      </trkpt>
      <trkpt lat="48.21065" lon="7.30006">
        <ele>639.3</ele>
        <time>2000-01-01T18:47:55.000Z</time>
      </trkpt>
      <trkpt lat="48.21082" lon="7.29999">
        <ele>633</ele>
        <time>2000-01-01T18:48:05.000Z</time>
      </trkpt>
      <trkpt lat="48.21083" lon="7.29998">
        <ele>638.2</ele>
        <time>2000-01-01T18:48:15.000Z</time>
      </trkpt>
      <trkpt lat="48.21086" lon="7.29996">
        <ele>637.7</ele>
        <time>2000-01-01T18:48:25.000Z</time>
      </trkpt>
      <trkpt lat="48.21088" lon="7.29996">
        <ele>637.4</ele>
        <time>2000-01-01T18:48:35.000Z</time>
      </trkpt>
      <trkpt lat="48.21096" lon="7.29991">
        <ele>635.8</ele>
        <time>2000-01-01T18:48:45.000Z</time>
      </trkpt>
      <trkpt lat="48.21105" lon="7.29992">
        <ele>633</ele>
        <time>2000-01-01T18:48:55.000Z</time>
      </trkpt>
      <trkpt lat="48.2111" lon="7.29991">
        <ele>635</ele>
        <time>2000-01-01T18:49:05.000Z</time>
      </trkpt>
      <trkpt lat="48.21112" lon="7.29989">
        <ele>634.9</ele>
        <time>2000-01-01T18:49:15.000Z</time>
      </trkpt>
      <trkpt lat="48.2112" lon="7.29989">
        <ele>635</ele>
        <time>2000-01-01T18:49:25.000Z</time>
      </trkpt>
      <trkpt lat="48.21124" lon="7.29989">
        <ele>629</ele>
        <time>2000-01-01T18:49:35.000Z</time>
      </trkpt>
      <trkpt lat="48.21132" lon="7.29988">
        <ele>635.6</ele>
        <time>2000-01-01T18:49:45.000Z</time>
      </trkpt>
      <trkpt lat="48.21147" lon="7.29986">
        <ele>628</ele>
        <time>2000-01-01T18:49:55.000Z</time>
      </trkpt>
      <trkpt lat="48.21164" lon="7.29977">
        <ele>637</ele>
        <time>2000-01-01T18:50:05.000Z</time>
      </trkpt>
      <trkpt lat="48.21175" lon="7.29973">
        <ele>627</ele>
        <time>2000-01-01T18:50:15.000Z</time>
      </trkpt>
      <trkpt lat="48.21193" lon="7.29959">
        <ele>626</ele>
        <time>2000-01-01T18:50:25.000Z</time>
      </trkpt>
      <trkpt lat="48.21198" lon="7.29958">
        <ele>636.6</ele>
        <time>2000-01-01T18:50:35.000Z</time>
      </trkpt>
      <trkpt lat="48.21212" lon="7.2995">
        <ele>626</ele>
        <time>2000-01-01T18:50:45.000Z</time>
      </trkpt>
      <trkpt lat="48.21214" lon="7.2995">
        <ele>636.1</ele>
        <time>2000-01-01T18:50:55.000Z</time>
      </trkpt>
      <trkpt lat="48.21222" lon="7.29947">
        <ele>635.9</ele>
        <time>2000-01-01T18:51:05.000Z</time>
      </trkpt>
      <trkpt lat="48.21233" lon="7.29943">
        <ele>626</ele>
        <time>2000-01-01T18:51:15.000Z</time>
      </trkpt>
      <trkpt lat="48.21252" lon="7.29935">
        <ele>626</ele>
        <time>2000-01-01T18:51:25.000Z</time>
      </trkpt>
      <trkpt lat="48.21271" lon="7.29931">
        <ele>629</ele>
        <time>2000-01-01T18:51:35.000Z</time>
      </trkpt>
      <trkpt lat="48.21287" lon="7.29933">
        <ele>631.4</ele>
        <time>2000-01-01T18:51:45.000Z</time>
      </trkpt>
      <trkpt lat="48.2129" lon="7.29935">
        <ele>629</ele>
        <time>2000-01-01T18:51:55.000Z</time>
      </trkpt>
      <trkpt lat="48.21296" lon="7.29937">
        <ele>631</ele>
        <time>2000-01-01T18:52:05.000Z</time>
      </trkpt>
      <trkpt lat="48.21313" lon="7.29936">
        <ele>628</ele>
        <time>2000-01-01T18:52:15.000Z</time>
      </trkpt>
      <trkpt lat="48.21319" lon="7.29938">
        <ele>629.3</ele>
        <time>2000-01-01T18:52:25.000Z</time>
      </trkpt>
      <trkpt lat="48.2133" lon="7.29938">
        <ele>628.7</ele>
        <time>2000-01-01T18:52:35.000Z</time>
      </trkpt>
      <trkpt lat="48.21349" lon="7.29935">
        <ele>626</ele>
        <time>2000-01-01T18:52:45.000Z</time>
      </trkpt>
      <trkpt lat="48.21364" lon="7.29917">
        <ele>625</ele>
        <time>2000-01-01T18:52:55.000Z</time>
      </trkpt>
      <trkpt lat="48.21377" lon="7.29892">
        <ele>625</ele>
        <time>2000-01-01T18:53:05.000Z</time>
      </trkpt>
      <trkpt lat="48.21384" lon="7.29865">
        <ele>625</ele>
        <time>2000-01-01T18:53:15.000Z</time>
      </trkpt>
      <trkpt lat="48.21388" lon="7.29838">
        <ele>625</ele>
        <time>2000-01-01T18:53:25.000Z</time>
      </trkpt>
      <trkpt lat="48.21395" lon="7.29813">
        <ele>626</ele>
        <time>2000-01-01T18:53:35.000Z</time>
      </trkpt>
      <trkpt lat="48.214" lon="7.29801">
        <ele>626.8</ele>
        <time>2000-01-01T18:53:45.000Z</time>
      </trkpt>
      <trkpt lat="48.21414" lon="7.2978">
        <ele>628</ele>
        <time>2000-01-01T18:53:55.000Z</time>
      </trkpt>
      <trkpt lat="48.21419" lon="7.29772">
        <ele>636.5</ele>
        <time>2000-01-01T18:54:05.000Z</time>
      </trkpt>
      <trkpt lat="48.21426" lon="7.29752">
        <ele>629</ele>
        <time>2000-01-01T18:54:15.000Z</time>
      </trkpt>
      <trkpt lat="48.2143" lon="7.29737">
        <ele>639.3</ele>
        <time>2000-01-01T18:54:25.000Z</time>
      </trkpt>
      <trkpt lat="48.21436" lon="7.29721">
        <ele>632</ele>
        <time>2000-01-01T18:54:35.000Z</time>
      </trkpt>
      <trkpt lat="48.21439" lon="7.297">
        <ele>640.7</ele>
        <time>2000-01-01T18:54:45.000Z</time>
      </trkpt>
      <trkpt lat="48.21445" lon="7.29685">
        <ele>632</ele>
        <time>2000-01-01T18:54:55.000Z</time>
      </trkpt>
      <trkpt lat="48.21448" lon="7.29666">
        <ele>638.9</ele>
        <time>2000-01-01T18:55:05.000Z</time>
      </trkpt>
      <trkpt lat="48.21455" lon="7.29653">
        <ele>635</ele>
        <time>2000-01-01T18:55:15.000Z</time>
      </trkpt>
      <trkpt lat="48.21461" lon="7.29637">
        <ele>639.9</ele>
        <time>2000-01-01T18:55:25.000Z</time>
      </trkpt>
      <trkpt lat="48.21466" lon="7.29624">
        <ele>637</ele>
        <time>2000-01-01T18:55:35.000Z</time>
      </trkpt>
      <trkpt lat="48.2147" lon="7.29608">
        <ele>639.8</ele>
        <time>2000-01-01T18:55:45.000Z</time>
      </trkpt>
      <trkpt lat="48.21471" lon="7.29604">
        <ele>639.9</ele>
        <time>2000-01-01T18:55:55.000Z</time>
      </trkpt>
      <trkpt lat="48.21477" lon="7.29592">
        <ele>637</ele>
        <time>2000-01-01T18:56:05.000Z</time>
      </trkpt>
      <trkpt lat="48.21482" lon="7.29584">
        <ele>641.9</ele>
        <time>2000-01-01T18:56:15.000Z</time>
      </trkpt>
      <trkpt lat="48.21488" lon="7.29579">
        <ele>640.1</ele>
        <time>2000-01-01T18:56:25.000Z</time>
      </trkpt>
      <trkpt lat="48.21488" lon="7.29579">
        <ele>640.1</ele>
        <time>2000-01-01T18:56:35.000Z</time>
      </trkpt>
      <trkpt lat="48.21496" lon="7.29576">
        <ele>641</ele>
        <time>2000-01-01T18:56:45.000Z</time>
      </trkpt>
      <trkpt lat="48.21498" lon="7.29575">
        <ele>641.9</ele>
        <time>2000-01-01T18:56:55.000Z</time>
      </trkpt>
      <trkpt lat="48.21505" lon="7.29578">
        <ele>647.9</ele>
        <time>2000-01-01T18:57:05.000Z</time>
      </trkpt>
      <trkpt lat="48.21505" lon="7.29579">
        <ele>647.8</ele>
        <time>2000-01-01T18:57:15.000Z</time>
      </trkpt>
      <trkpt lat="48.21511" lon="7.29582">
        <ele>648.8</ele>
        <time>2000-01-01T18:57:25.000Z</time>
      </trkpt>
      <trkpt lat="48.21514" lon="7.29583">
        <ele>645</ele>
        <time>2000-01-01T18:57:35.000Z</time>
      </trkpt>
      <trkpt lat="48.21522" lon="7.29585">
        <ele>650.5</ele>
        <time>2000-01-01T18:57:45.000Z</time>
      </trkpt>
      <trkpt lat="48.21524" lon="7.29585">
        <ele>650.8</ele>
        <time>2000-01-01T18:57:55.000Z</time>
      </trkpt>
      <trkpt lat="48.21532" lon="7.29581">
        <ele>647</ele>
        <time>2000-01-01T18:58:05.000Z</time>
      </trkpt>
      <trkpt lat="48.21543" lon="7.29559">
        <ele>654.1</ele>
        <time>2000-01-01T18:58:15.000Z</time>
      </trkpt>
      <trkpt lat="48.21543" lon="7.29557">
        <ele>649</ele>
        <time>2000-01-01T18:58:25.000Z</time>
      </trkpt>
      <trkpt lat="48.21547" lon="7.29547">
        <ele>654.6</ele>
        <time>2000-01-01T18:58:35.000Z</time>
      </trkpt>
      <trkpt lat="48.2155" lon="7.29537">
        <ele>655.1</ele>
        <time>2000-01-01T18:58:45.000Z</time>
      </trkpt>
      <trkpt lat="48.21552" lon="7.2953">
        <ele>653</ele>
        <time>2000-01-01T18:58:55.000Z</time>
      </trkpt>
      <trkpt lat="48.21551" lon="7.29509">
        <ele>656.3</ele>
        <time>2000-01-01T18:59:05.000Z</time>
      </trkpt>
      <trkpt lat="48.2155" lon="7.29499">
        <ele>653</ele>
        <time>2000-01-01T18:59:15.000Z</time>
      </trkpt>
      <trkpt lat="48.21547" lon="7.29483">
        <ele>656.4</ele>
        <time>2000-01-01T18:59:25.000Z</time>
      </trkpt>
      <trkpt lat="48.21547" lon="7.29472">
        <ele>653</ele>
        <time>2000-01-01T18:59:35.000Z</time>
      </trkpt>
      <trkpt lat="48.21547" lon="7.29467">
        <ele>656.4</ele>
        <time>2000-01-01T18:59:45.000Z</time>
      </trkpt>
      <trkpt lat="48.21548" lon="7.29462">
        <ele>656.6</ele>
        <time>2000-01-01T18:59:55.000Z</time>
      </trkpt>
      <trkpt lat="48.2155" lon="7.29455">
        <ele>657.1</ele>
        <time>2000-01-01T19:00:05.000Z</time>
      </trkpt>
      <trkpt lat="48.21551" lon="7.29448">
        <ele>657.5</ele>
        <time>2000-01-01T19:00:15.000Z</time>
      </trkpt>
      <trkpt lat="48.21553" lon="7.29438">
        <ele>658</ele>
        <time>2000-01-01T19:00:25.000Z</time>
      </trkpt>
      <trkpt lat="48.21555" lon="7.29424">
        <ele>659.7</ele>
        <time>2000-01-01T19:00:35.000Z</time>
      </trkpt>
      <trkpt lat="48.2156" lon="7.29414">
        <ele>663.1</ele>
        <time>2000-01-01T19:00:45.000Z</time>
      </trkpt>
      <trkpt lat="48.21564" lon="7.29403">
        <ele>661</ele>
        <time>2000-01-01T19:00:55.000Z</time>
      </trkpt>
      <trkpt lat="48.21568" lon="7.29392">
        <ele>663.5</ele>
        <time>2000-01-01T19:01:05.000Z</time>
      </trkpt>
      <trkpt lat="48.21571" lon="7.29378">
        <ele>663</ele>
        <time>2000-01-01T19:01:15.000Z</time>
      </trkpt>
      <trkpt lat="48.21572" lon="7.29363">
        <ele>664.5</ele>
        <time>2000-01-01T19:01:25.000Z</time>
      </trkpt>
      <trkpt lat="48.21575" lon="7.29351">
        <ele>665</ele>
        <time>2000-01-01T19:01:35.000Z</time>
      </trkpt>
      <trkpt lat="48.21576" lon="7.29347">
        <ele>668.6</ele>
        <time>2000-01-01T19:01:45.000Z</time>
      </trkpt>
      <trkpt lat="48.21585" lon="7.29328">
        <ele>666</ele>
        <time>2000-01-01T19:01:55.000Z</time>
      </trkpt>
      <trkpt lat="48.21587" lon="7.29324">
        <ele>684.3</ele>
        <time>2000-01-01T19:02:05.000Z</time>
      </trkpt>
      <trkpt lat="48.21592" lon="7.29306">
        <ele>691.3</ele>
        <time>2000-01-01T19:02:15.000Z</time>
      </trkpt>
      <trkpt lat="48.21592" lon="7.29298">
        <ele>670</ele>
        <time>2000-01-01T19:02:25.000Z</time>
      </trkpt>
      <trkpt lat="48.21592" lon="7.29288">
        <ele>693.3</ele>
        <time>2000-01-01T19:02:35.000Z</time>
      </trkpt>
      <trkpt lat="48.21593" lon="7.29279">
        <ele>693.3</ele>
        <time>2000-01-01T19:02:45.000Z</time>
      </trkpt>
      <trkpt lat="48.21593" lon="7.29275">
        <ele>693</ele>
        <time>2000-01-01T19:02:55.000Z</time>
      </trkpt>
      <trkpt lat="48.21592" lon="7.29267">
        <ele>675</ele>
        <time>2000-01-01T19:03:05.000Z</time>
      </trkpt>
      <trkpt lat="48.21589" lon="7.29261">
        <ele>689.9</ele>
        <time>2000-01-01T19:03:15.000Z</time>
      </trkpt>
      <trkpt lat="48.21585" lon="7.29254">
        <ele>686.5</ele>
        <time>2000-01-01T19:03:25.000Z</time>
      </trkpt>
      <trkpt lat="48.21583" lon="7.29246">
        <ele>683.9</ele>
        <time>2000-01-01T19:03:35.000Z</time>
      </trkpt>
      <trkpt lat="48.2158" lon="7.29242">
        <ele>678</ele>
        <time>2000-01-01T19:03:45.000Z</time>
      </trkpt>
      <trkpt lat="48.21575" lon="7.29237">
        <ele>683.9</ele>
        <time>2000-01-01T19:03:55.000Z</time>
      </trkpt>
      <trkpt lat="48.21564" lon="7.29219">
        <ele>683</ele>
        <time>2000-01-01T19:04:05.000Z</time>
      </trkpt>
      <trkpt lat="48.21562" lon="7.29213">
        <ele>685.2</ele>
        <time>2000-01-01T19:04:15.000Z</time>
      </trkpt>
      <trkpt lat="48.21559" lon="7.29206">
        <ele>685.8</ele>
        <time>2000-01-01T19:04:25.000Z</time>
      </trkpt>
      <trkpt lat="48.21558" lon="7.29193">
        <ele>683</ele>
        <time>2000-01-01T19:04:35.000Z</time>
      </trkpt>
      <trkpt lat="48.21557" lon="7.29187">
        <ele>688.5</ele>
        <time>2000-01-01T19:04:45.000Z</time>
      </trkpt>
      <trkpt lat="48.21554" lon="7.29179">
        <ele>689</ele>
        <time>2000-01-01T19:04:55.000Z</time>
      </trkpt>
      <trkpt lat="48.21547" lon="7.2916">
        <ele>684</ele>
        <time>2000-01-01T19:05:05.000Z</time>
      </trkpt>
      <trkpt lat="48.21546" lon="7.29154">
        <ele>700.3</ele>
        <time>2000-01-01T19:05:15.000Z</time>
      </trkpt>
      <trkpt lat="48.21542" lon="7.29142">
        <ele>700.7</ele>
        <time>2000-01-01T19:05:25.000Z</time>
      </trkpt>
      <trkpt lat="48.21539" lon="7.29131">
        <ele>686</ele>
        <time>2000-01-01T19:05:35.000Z</time>
      </trkpt>
      <trkpt lat="48.21536" lon="7.29119">
        <ele>702.4</ele>
        <time>2000-01-01T19:05:45.000Z</time>
      </trkpt>
      <trkpt lat="48.21533" lon="7.29099">
        <ele>695</ele>
        <time>2000-01-01T19:05:55.000Z</time>
      </trkpt>
      <trkpt lat="48.21531" lon="7.29097">
        <ele>704</ele>
        <time>2000-01-01T19:06:05.000Z</time>
      </trkpt>
      <trkpt lat="48.21526" lon="7.29087">
        <ele>704.4</ele>
        <time>2000-01-01T19:06:15.000Z</time>
      </trkpt>
      <trkpt lat="48.21524" lon="7.29085">
        <ele>704.4</ele>
        <time>2000-01-01T19:06:25.000Z</time>
      </trkpt>
      <trkpt lat="48.21521" lon="7.29073">
        <ele>698</ele>
        <time>2000-01-01T19:06:35.000Z</time>
      </trkpt>
      <trkpt lat="48.21516" lon="7.29063">
        <ele>711.7</ele>
        <time>2000-01-01T19:06:45.000Z</time>
      </trkpt>
      <trkpt lat="48.2151" lon="7.29056">
        <ele>712.1</ele>
        <time>2000-01-01T19:06:55.000Z</time>
      </trkpt>
      <trkpt lat="48.21503" lon="7.29045">
        <ele>701</ele>
        <time>2000-01-01T19:07:05.000Z</time>
      </trkpt>
      <trkpt lat="48.21502" lon="7.29042">
        <ele>713.1</ele>
        <time>2000-01-01T19:07:15.000Z</time>
      </trkpt>
      <trkpt lat="48.21497" lon="7.29042">
        <ele>712.4</ele>
        <time>2000-01-01T19:07:25.000Z</time>
      </trkpt>
      <trkpt lat="48.21493" lon="7.29039">
        <ele>712.7</ele>
        <time>2000-01-01T19:07:35.000Z</time>
      </trkpt>
      <trkpt lat="48.21486" lon="7.29026">
        <ele>702</ele>
        <time>2000-01-01T19:07:45.000Z</time>
      </trkpt>
      <trkpt lat="48.21483" lon="7.29003">
        <ele>714.5</ele>
        <time>2000-01-01T19:07:55.000Z</time>
      </trkpt>
      <trkpt lat="48.21482" lon="7.28991">
        <ele>707</ele>
        <time>2000-01-01T19:08:05.000Z</time>
      </trkpt>
      <trkpt lat="48.21479" lon="7.28978">
        <ele>716.1</ele>
        <time>2000-01-01T19:08:15.000Z</time>
      </trkpt>
      <trkpt lat="48.21477" lon="7.28976">
        <ele>716.1</ele>
        <time>2000-01-01T19:08:25.000Z</time>
      </trkpt>
      <trkpt lat="48.21477" lon="7.28975">
        <ele>716.1</ele>
        <time>2000-01-01T19:08:35.000Z</time>
      </trkpt>
      <trkpt lat="48.21477" lon="7.28978">
        <ele>716.1</ele>
        <time>2000-01-01T19:08:45.000Z</time>
      </trkpt>
      <trkpt lat="48.21474" lon="7.28992">
        <ele>706</ele>
        <time>2000-01-01T19:08:55.000Z</time>
      </trkpt>
      <trkpt lat="48.21469" lon="7.29008">
        <ele>714.6</ele>
        <time>2000-01-01T19:09:05.000Z</time>
      </trkpt>
      <trkpt lat="48.21463" lon="7.29033">
        <ele>705</ele>
        <time>2000-01-01T19:09:15.000Z</time>
      </trkpt>
      <trkpt lat="48.21458" lon="7.29055">
        <ele>712.8</ele>
        <time>2000-01-01T19:09:25.000Z</time>
      </trkpt>
      <trkpt lat="48.21451" lon="7.29088">
        <ele>701</ele>
        <time>2000-01-01T19:09:35.000Z</time>
      </trkpt>
      <trkpt lat="48.21448" lon="7.291">
        <ele>702.8</ele>
        <time>2000-01-01T19:09:45.000Z</time>
      </trkpt>
      <trkpt lat="48.21443" lon="7.29116">
        <ele>701</ele>
        <time>2000-01-01T19:09:55.000Z</time>
      </trkpt>
      <trkpt lat="48.21435" lon="7.2914">
        <ele>698.7</ele>
        <time>2000-01-01T19:10:05.000Z</time>
      </trkpt>
      <trkpt lat="48.21424" lon="7.29162">
        <ele>695</ele>
        <time>2000-01-01T19:10:15.000Z</time>
      </trkpt>
      <trkpt lat="48.21416" lon="7.29169">
        <ele>693.3</ele>
        <time>2000-01-01T19:10:25.000Z</time>
      </trkpt>
      <trkpt lat="48.21404" lon="7.29173">
        <ele>695</ele>
        <time>2000-01-01T19:10:35.000Z</time>
      </trkpt>
      <trkpt lat="48.21389" lon="7.29173">
        <ele>683.1</ele>
        <time>2000-01-01T19:10:45.000Z</time>
      </trkpt>
      <trkpt lat="48.21379" lon="7.29167">
        <ele>693</ele>
        <time>2000-01-01T19:10:55.000Z</time>
      </trkpt>
      <trkpt lat="48.21369" lon="7.29153">
        <ele>690.1</ele>
        <time>2000-01-01T19:11:05.000Z</time>
      </trkpt>
      <trkpt lat="48.21362" lon="7.29137">
        <ele>692</ele>
        <time>2000-01-01T19:11:15.000Z</time>
      </trkpt>
      <trkpt lat="48.21353" lon="7.29119">
        <ele>691.7</ele>
        <time>2000-01-01T19:11:25.000Z</time>
      </trkpt>
      <trkpt lat="48.21349" lon="7.29104">
        <ele>684</ele>
        <time>2000-01-01T19:11:35.000Z</time>
      </trkpt>
      <trkpt lat="48.21343" lon="7.29081">
        <ele>696.8</ele>
        <time>2000-01-01T19:11:45.000Z</time>
      </trkpt>
      <trkpt lat="48.21338" lon="7.29062">
        <ele>683</ele>
        <time>2000-01-01T19:11:55.000Z</time>
      </trkpt>
      <trkpt lat="48.21332" lon="7.29052">
        <ele>691.8</ele>
        <time>2000-01-01T19:12:05.000Z</time>
      </trkpt>
      <trkpt lat="48.21319" lon="7.29037">
        <ele>682</ele>
        <time>2000-01-01T19:12:15.000Z</time>
      </trkpt>
      <trkpt lat="48.21301" lon="7.2903">
        <ele>681</ele>
        <time>2000-01-01T19:12:25.000Z</time>
      </trkpt>
      <trkpt lat="48.21287" lon="7.29026">
        <ele>690.2</ele>
        <time>2000-01-01T19:12:35.000Z</time>
      </trkpt>
      <trkpt lat="48.21272" lon="7.29022">
        <ele>681</ele>
        <time>2000-01-01T19:12:45.000Z</time>
      </trkpt>
      <trkpt lat="48.21263" lon="7.29021">
        <ele>688.3</ele>
        <time>2000-01-01T19:12:55.000Z</time>
      </trkpt>
      <trkpt lat="48.21247" lon="7.2903">
        <ele>681</ele>
        <time>2000-01-01T19:13:05.000Z</time>
      </trkpt>
      <trkpt lat="48.21234" lon="7.29036">
        <ele>673.1</ele>
        <time>2000-01-01T19:13:15.000Z</time>
      </trkpt>
      <trkpt lat="48.21221" lon="7.29041">
        <ele>674</ele>
        <time>2000-01-01T19:13:25.000Z</time>
      </trkpt>
      <trkpt lat="48.21204" lon="7.29045">
        <ele>669.3</ele>
        <time>2000-01-01T19:13:35.000Z</time>
      </trkpt>
      <trkpt lat="48.21193" lon="7.29033">
        <ele>671</ele>
        <time>2000-01-01T19:13:45.000Z</time>
      </trkpt>
      <trkpt lat="48.21186" lon="7.29016">
        <ele>669.4</ele>
        <time>2000-01-01T19:13:55.000Z</time>
      </trkpt>
      <trkpt lat="48.21182" lon="7.29001">
        <ele>669</ele>
        <time>2000-01-01T19:14:05.000Z</time>
      </trkpt>
      <trkpt lat="48.21179" lon="7.28978">
        <ele>674.7</ele>
        <time>2000-01-01T19:14:15.000Z</time>
      </trkpt>
      <trkpt lat="48.21175" lon="7.28956">
        <ele>664</ele>
        <time>2000-01-01T19:14:25.000Z</time>
      </trkpt>
      <trkpt lat="48.21173" lon="7.28939">
        <ele>673.9</ele>
        <time>2000-01-01T19:14:35.000Z</time>
      </trkpt>
      <trkpt lat="48.21172" lon="7.28921">
        <ele>663</ele>
        <time>2000-01-01T19:14:45.000Z</time>
      </trkpt>
      <trkpt lat="48.2117" lon="7.28899">
        <ele>673.6</ele>
        <time>2000-01-01T19:14:55.000Z</time>
      </trkpt>
      <trkpt lat="48.21168" lon="7.28882">
        <ele>653</ele>
        <time>2000-01-01T19:15:05.000Z</time>
      </trkpt>
      <trkpt lat="48.21166" lon="7.28868">
        <ele>656.3</ele>
        <time>2000-01-01T19:15:15.000Z</time>
      </trkpt>
      <trkpt lat="48.21166" lon="7.28851">
        <ele>651</ele>
        <time>2000-01-01T19:15:25.000Z</time>
      </trkpt>
      <trkpt lat="48.21166" lon="7.28829">
        <ele>663.5</ele>
        <time>2000-01-01T19:15:35.000Z</time>
      </trkpt>
      <trkpt lat="48.21167" lon="7.28813">
        <ele>650</ele>
        <time>2000-01-01T19:15:45.000Z</time>
      </trkpt>
      <trkpt lat="48.21167" lon="7.28796">
        <ele>677.9</ele>
        <time>2000-01-01T19:15:55.000Z</time>
      </trkpt>
      <trkpt lat="48.21166" lon="7.28777">
        <ele>650</ele>
        <time>2000-01-01T19:16:05.000Z</time>
      </trkpt>
      <trkpt lat="48.21157" lon="7.28757">
        <ele>665.2</ele>
        <time>2000-01-01T19:16:15.000Z</time>
      </trkpt>
      <trkpt lat="48.21149" lon="7.28753">
        <ele>649</ele>
        <time>2000-01-01T19:16:25.000Z</time>
      </trkpt>
      <trkpt lat="48.21132" lon="7.2875">
        <ele>665.8</ele>
        <time>2000-01-01T19:16:35.000Z</time>
      </trkpt>
      <trkpt lat="48.21123" lon="7.2875">
        <ele>649</ele>
        <time>2000-01-01T19:16:45.000Z</time>
      </trkpt>
      <trkpt lat="48.21112" lon="7.2875">
        <ele>661.5</ele>
        <time>2000-01-01T19:16:55.000Z</time>
      </trkpt>
      <trkpt lat="48.21099" lon="7.28753">
        <ele>645</ele>
        <time>2000-01-01T19:17:05.000Z</time>
      </trkpt>
      <trkpt lat="48.21087" lon="7.28751">
        <ele>649.9</ele>
        <time>2000-01-01T19:17:15.000Z</time>
      </trkpt>
      <trkpt lat="48.21081" lon="7.28741">
        <ele>644</ele>
        <time>2000-01-01T19:17:25.000Z</time>
      </trkpt>
      <trkpt lat="48.21074" lon="7.28731">
        <ele>647.8</ele>
        <time>2000-01-01T19:17:35.000Z</time>
      </trkpt>
      <trkpt lat="48.21062" lon="7.28722">
        <ele>640</ele>
        <time>2000-01-01T19:17:45.000Z</time>
      </trkpt>
      <trkpt lat="48.21053" lon="7.28716">
        <ele>646.7</ele>
        <time>2000-01-01T19:17:55.000Z</time>
      </trkpt>
      <trkpt lat="48.21033" lon="7.2871">
        <ele>639</ele>
        <time>2000-01-01T19:18:05.000Z</time>
      </trkpt>
      <trkpt lat="48.21022" lon="7.28705">
        <ele>644.1</ele>
        <time>2000-01-01T19:18:15.000Z</time>
      </trkpt>
      <trkpt lat="48.21017" lon="7.28696">
        <ele>637</ele>
        <time>2000-01-01T19:18:25.000Z</time>
      </trkpt>
      <trkpt lat="48.21012" lon="7.28686">
        <ele>643.8</ele>
        <time>2000-01-01T19:18:35.000Z</time>
      </trkpt>
      <trkpt lat="48.21004" lon="7.28669">
        <ele>635</ele>
        <time>2000-01-01T19:18:45.000Z</time>
      </trkpt>
      <trkpt lat="48.20998" lon="7.28657">
        <ele>637</ele>
        <time>2000-01-01T19:18:55.000Z</time>
      </trkpt>
      <trkpt lat="48.20991" lon="7.28641">
        <ele>633</ele>
        <time>2000-01-01T19:19:05.000Z</time>
      </trkpt>
      <trkpt lat="48.2098" lon="7.2862">
        <ele>629</ele>
        <time>2000-01-01T19:19:15.000Z</time>
      </trkpt>
      <trkpt lat="48.20974" lon="7.28603">
        <ele>630.1</ele>
        <time>2000-01-01T19:19:25.000Z</time>
      </trkpt>
      <trkpt lat="48.20968" lon="7.28587">
        <ele>628</ele>
        <time>2000-01-01T19:19:35.000Z</time>
      </trkpt>
      <trkpt lat="48.20966" lon="7.28574">
        <ele>624.2</ele>
        <time>2000-01-01T19:19:45.000Z</time>
      </trkpt>
      <trkpt lat="48.20967" lon="7.28556">
        <ele>622</ele>
        <time>2000-01-01T19:19:55.000Z</time>
      </trkpt>
      <trkpt lat="48.20972" lon="7.28539">
        <ele>622.6</ele>
        <time>2000-01-01T19:20:05.000Z</time>
      </trkpt>
      <trkpt lat="48.20975" lon="7.28523">
        <ele>619</ele>
        <time>2000-01-01T19:20:15.000Z</time>
      </trkpt>
      <trkpt lat="48.20977" lon="7.28508">
        <ele>622.5</ele>
        <time>2000-01-01T19:20:25.000Z</time>
      </trkpt>
      <trkpt lat="48.20979" lon="7.28489">
        <ele>615</ele>
        <time>2000-01-01T19:20:35.000Z</time>
      </trkpt>
      <trkpt lat="48.2098" lon="7.28476">
        <ele>618.8</ele>
        <time>2000-01-01T19:20:45.000Z</time>
      </trkpt>
      <trkpt lat="48.20977" lon="7.28461">
        <ele>614</ele>
        <time>2000-01-01T19:20:55.000Z</time>
      </trkpt>
      <trkpt lat="48.20972" lon="7.28443">
        <ele>617.4</ele>
        <time>2000-01-01T19:21:05.000Z</time>
      </trkpt>
      <trkpt lat="48.2097" lon="7.28432">
        <ele>611</ele>
        <time>2000-01-01T19:21:15.000Z</time>
      </trkpt>
      <trkpt lat="48.20967" lon="7.28417">
        <ele>617.1</ele>
        <time>2000-01-01T19:21:25.000Z</time>
      </trkpt>
      <trkpt lat="48.20964" lon="7.284">
        <ele>611</ele>
        <time>2000-01-01T19:21:35.000Z</time>
      </trkpt>
      <trkpt lat="48.20959" lon="7.28379">
        <ele>613.4</ele>
        <time>2000-01-01T19:21:45.000Z</time>
      </trkpt>
      <trkpt lat="48.20959" lon="7.28363">
        <ele>605</ele>
        <time>2000-01-01T19:21:55.000Z</time>
      </trkpt>
      <trkpt lat="48.20959" lon="7.28343">
        <ele>613</ele>
        <time>2000-01-01T19:22:05.000Z</time>
      </trkpt>
      <trkpt lat="48.20959" lon="7.28329">
        <ele>603</ele>
        <time>2000-01-01T19:22:15.000Z</time>
      </trkpt>
      <trkpt lat="48.20958" lon="7.28311">
        <ele>613.1</ele>
        <time>2000-01-01T19:22:25.000Z</time>
      </trkpt>
      <trkpt lat="48.20959" lon="7.28295">
        <ele>600</ele>
        <time>2000-01-01T19:22:35.000Z</time>
      </trkpt>
      <trkpt lat="48.20957" lon="7.28275">
        <ele>613.5</ele>
        <time>2000-01-01T19:22:45.000Z</time>
      </trkpt>
      <trkpt lat="48.20958" lon="7.28254">
        <ele>598</ele>
        <time>2000-01-01T19:22:55.000Z</time>
      </trkpt>
      <trkpt lat="48.20957" lon="7.28239">
        <ele>618.9</ele>
        <time>2000-01-01T19:23:05.000Z</time>
      </trkpt>
      <trkpt lat="48.2095" lon="7.28225">
        <ele>597</ele>
        <time>2000-01-01T19:23:15.000Z</time>
      </trkpt>
      <trkpt lat="48.20942" lon="7.28213">
        <ele>618.1</ele>
        <time>2000-01-01T19:23:25.000Z</time>
      </trkpt>
      <trkpt lat="48.20935" lon="7.28205">
        <ele>597</ele>
        <time>2000-01-01T19:23:35.000Z</time>
      </trkpt>
      <trkpt lat="48.2092" lon="7.28185">
        <ele>595</ele>
        <time>2000-01-01T19:23:45.000Z</time>
      </trkpt>
      <trkpt lat="48.20911" lon="7.28181">
        <ele>603.5</ele>
        <time>2000-01-01T19:23:55.000Z</time>
      </trkpt>
      <trkpt lat="48.20901" lon="7.28178">
        <ele>594</ele>
        <time>2000-01-01T19:24:05.000Z</time>
      </trkpt>
      <trkpt lat="48.2089" lon="7.28177">
        <ele>598.2</ele>
        <time>2000-01-01T19:24:15.000Z</time>
      </trkpt>
      <trkpt lat="48.20879" lon="7.28171">
        <ele>591</ele>
        <time>2000-01-01T19:24:25.000Z</time>
      </trkpt>
      <trkpt lat="48.20869" lon="7.28165">
        <ele>598.2</ele>
        <time>2000-01-01T19:24:35.000Z</time>
      </trkpt>
      <trkpt lat="48.20858" lon="7.28159">
        <ele>588</ele>
        <time>2000-01-01T19:24:45.000Z</time>
      </trkpt>
      <trkpt lat="48.20844" lon="7.28153">
        <ele>592.5</ele>
        <time>2000-01-01T19:24:55.000Z</time>
      </trkpt>
      <trkpt lat="48.20835" lon="7.28146">
        <ele>586</ele>
        <time>2000-01-01T19:25:05.000Z</time>
      </trkpt>
      <trkpt lat="48.20826" lon="7.2813">
        <ele>575.7</ele>
        <time>2000-01-01T19:25:15.000Z</time>
      </trkpt>
      <trkpt lat="48.20826" lon="7.28127">
        <ele>575.7</ele>
        <time>2000-01-01T19:25:25.000Z</time>
      </trkpt>
      <trkpt lat="48.20827" lon="7.28116">
        <ele>582</ele>
        <time>2000-01-01T19:25:35.000Z</time>
      </trkpt>
      <trkpt lat="48.20831" lon="7.28092">
        <ele>582</ele>
        <time>2000-01-01T19:25:45.000Z</time>
      </trkpt>
      <trkpt lat="48.20833" lon="7.28074">
        <ele>580</ele>
        <time>2000-01-01T19:25:55.000Z</time>
      </trkpt>
      <trkpt lat="48.20835" lon="7.28052">
        <ele>593.2</ele>
        <time>2000-01-01T19:26:05.000Z</time>
      </trkpt>
      <trkpt lat="48.20836" lon="7.28032">
        <ele>577</ele>
        <time>2000-01-01T19:26:15.000Z</time>
      </trkpt>
      <trkpt lat="48.20833" lon="7.28015">
        <ele>577.5</ele>
        <time>2000-01-01T19:26:25.000Z</time>
      </trkpt>
      <trkpt lat="48.20829" lon="7.28">
        <ele>575</ele>
        <time>2000-01-01T19:26:35.000Z</time>
      </trkpt>
      <trkpt lat="48.20825" lon="7.27984">
        <ele>572.6</ele>
        <time>2000-01-01T19:26:45.000Z</time>
      </trkpt>
      <trkpt lat="48.20825" lon="7.2797">
        <ele>572</ele>
        <time>2000-01-01T19:26:55.000Z</time>
      </trkpt>
      <trkpt lat="48.20833" lon="7.27962">
        <ele>567.8</ele>
        <time>2000-01-01T19:27:05.000Z</time>
      </trkpt>
      <trkpt lat="48.20841" lon="7.27956">
        <ele>571</ele>
        <time>2000-01-01T19:27:15.000Z</time>
      </trkpt>
      <trkpt lat="48.2085" lon="7.27952">
        <ele>579.9</ele>
        <time>2000-01-01T19:27:25.000Z</time>
      </trkpt>
      <trkpt lat="48.2086" lon="7.27945">
        <ele>570</ele>
        <time>2000-01-01T19:27:35.000Z</time>
      </trkpt>
      <trkpt lat="48.20881" lon="7.27935">
        <ele>569</ele>
        <time>2000-01-01T19:27:45.000Z</time>
      </trkpt>
      <trkpt lat="48.20889" lon="7.27935">
        <ele>582</ele>
        <time>2000-01-01T19:27:55.000Z</time>
      </trkpt>
      <trkpt lat="48.20897" lon="7.27924">
        <ele>566</ele>
        <time>2000-01-01T19:28:05.000Z</time>
      </trkpt>
      <trkpt lat="48.20906" lon="7.27912">
        <ele>571.3</ele>
        <time>2000-01-01T19:28:15.000Z</time>
      </trkpt>
      <trkpt lat="48.20916" lon="7.27891">
        <ele>563</ele>
        <time>2000-01-01T19:28:25.000Z</time>
      </trkpt>
      <trkpt lat="48.20926" lon="7.27877">
        <ele>569.9</ele>
        <time>2000-01-01T19:28:35.000Z</time>
      </trkpt>
      <trkpt lat="48.20933" lon="7.27868">
        <ele>559</ele>
        <time>2000-01-01T19:28:45.000Z</time>
      </trkpt>
      <trkpt lat="48.20943" lon="7.27854">
        <ele>565.9</ele>
        <time>2000-01-01T19:28:55.000Z</time>
      </trkpt>
      <trkpt lat="48.20954" lon="7.27849">
        <ele>557</ele>
        <time>2000-01-01T19:29:05.000Z</time>
      </trkpt>
      <trkpt lat="48.20963" lon="7.27851">
        <ele>568.2</ele>
        <time>2000-01-01T19:29:15.000Z</time>
      </trkpt>
      <trkpt lat="48.20971" lon="7.27855">
        <ele>569.3</ele>
        <time>2000-01-01T19:29:25.000Z</time>
      </trkpt>
      <trkpt lat="48.2098" lon="7.27857">
        <ele>556</ele>
        <time>2000-01-01T19:29:35.000Z</time>
      </trkpt>
      <trkpt lat="48.20984" lon="7.27857">
        <ele>569.9</ele>
        <time>2000-01-01T19:29:45.000Z</time>
      </trkpt>
      <trkpt lat="48.20996" lon="7.27863">
        <ele>571.4</ele>
        <time>2000-01-01T19:29:55.000Z</time>
      </trkpt>
      <trkpt lat="48.21015" lon="7.27849">
        <ele>544</ele>
        <time>2000-01-01T19:30:05.000Z</time>
      </trkpt>
      <trkpt lat="48.21025" lon="7.27841">
        <ele>576.6</ele>
        <time>2000-01-01T19:30:15.000Z</time>
      </trkpt>
      <trkpt lat="48.21038" lon="7.27829">
        <ele>543</ele>
        <time>2000-01-01T19:30:25.000Z</time>
      </trkpt>
      <trkpt lat="48.21048" lon="7.2781">
        <ele>561.6</ele>
        <time>2000-01-01T19:30:35.000Z</time>
      </trkpt>
      <trkpt lat="48.2105" lon="7.27796">
        <ele>534</ele>
        <time>2000-01-01T19:30:45.000Z</time>
      </trkpt>
      <trkpt lat="48.21051" lon="7.27778">
        <ele>557.9</ele>
        <time>2000-01-01T19:30:55.000Z</time>
      </trkpt>
      <trkpt lat="48.21051" lon="7.27754">
        <ele>534</ele>
        <time>2000-01-01T19:31:05.000Z</time>
      </trkpt>
      <trkpt lat="48.21053" lon="7.27744">
        <ele>544</ele>
        <time>2000-01-01T19:31:15.000Z</time>
      </trkpt>
      <trkpt lat="48.21055" lon="7.27729">
        <ele>542.8</ele>
        <time>2000-01-01T19:31:25.000Z</time>
      </trkpt>
      <trkpt lat="48.21058" lon="7.2771">
        <ele>531</ele>
        <time>2000-01-01T19:31:35.000Z</time>
      </trkpt>
      <trkpt lat="48.2106" lon="7.27693">
        <ele>539.4</ele>
        <time>2000-01-01T19:31:45.000Z</time>
      </trkpt>
      <trkpt lat="48.21058" lon="7.27682">
        <ele>532</ele>
        <time>2000-01-01T19:31:55.000Z</time>
      </trkpt>
      <trkpt lat="48.21054" lon="7.27665">
        <ele>527.1</ele>
        <time>2000-01-01T19:32:05.000Z</time>
      </trkpt>
      <trkpt lat="48.2105" lon="7.27649">
        <ele>531</ele>
        <time>2000-01-01T19:32:15.000Z</time>
      </trkpt>
      <trkpt lat="48.21049" lon="7.27637">
        <ele>522.7</ele>
        <time>2000-01-01T19:32:25.000Z</time>
      </trkpt>
      <trkpt lat="48.21056" lon="7.27628">
        <ele>522.7</ele>
        <time>2000-01-01T19:32:35.000Z</time>
      </trkpt>
      <trkpt lat="48.21064" lon="7.27627">
        <ele>531</ele>
        <time>2000-01-01T19:32:45.000Z</time>
      </trkpt>
      <trkpt lat="48.21074" lon="7.27624">
        <ele>524.1</ele>
        <time>2000-01-01T19:32:55.000Z</time>
      </trkpt>
      <trkpt lat="48.21082" lon="7.27625">
        <ele>530</ele>
        <time>2000-01-01T19:33:05.000Z</time>
      </trkpt>
      <trkpt lat="48.21091" lon="7.27624">
        <ele>529.8</ele>
        <time>2000-01-01T19:33:15.000Z</time>
      </trkpt>
      <trkpt lat="48.21098" lon="7.27625">
        <ele>529.8</ele>
        <time>2000-01-01T19:33:25.000Z</time>
      </trkpt>
      <trkpt lat="48.21105" lon="7.27629">
        <ele>527</ele>
        <time>2000-01-01T19:33:35.000Z</time>
      </trkpt>
      <trkpt lat="48.21107" lon="7.27629">
        <ele>530.2</ele>
        <time>2000-01-01T19:33:45.000Z</time>
      </trkpt>
      <trkpt lat="48.21116" lon="7.27625">
        <ele>529.2</ele>
        <time>2000-01-01T19:33:55.000Z</time>
      </trkpt>
      <trkpt lat="48.21117" lon="7.27625">
        <ele>529.1</ele>
        <time>2000-01-01T19:34:05.000Z</time>
      </trkpt>
      <trkpt lat="48.21128" lon="7.27628">
        <ele>522</ele>
        <time>2000-01-01T19:34:15.000Z</time>
      </trkpt>
      <trkpt lat="48.21139" lon="7.27624">
        <ele>528</ele>
        <time>2000-01-01T19:34:25.000Z</time>
      </trkpt>
      <trkpt lat="48.21149" lon="7.27622">
        <ele>520</ele>
        <time>2000-01-01T19:34:35.000Z</time>
      </trkpt>
      <trkpt lat="48.21158" lon="7.27622">
        <ele>526.9</ele>
        <time>2000-01-01T19:34:45.000Z</time>
      </trkpt>
      <trkpt lat="48.21166" lon="7.27626">
        <ele>527.5</ele>
        <time>2000-01-01T19:34:55.000Z</time>
      </trkpt>
      <trkpt lat="48.21172" lon="7.27635">
        <ele>520</ele>
        <time>2000-01-01T19:35:05.000Z</time>
      </trkpt>
      <trkpt lat="48.21179" lon="7.27654">
        <ele>525.4</ele>
        <time>2000-01-01T19:35:15.000Z</time>
      </trkpt>
      <trkpt lat="48.21184" lon="7.27666">
        <ele>520</ele>
        <time>2000-01-01T19:35:25.000Z</time>
      </trkpt>
      <trkpt lat="48.21186" lon="7.2767">
        <ele>533.7</ele>
        <time>2000-01-01T19:35:35.000Z</time>
      </trkpt>
      <trkpt lat="48.21191" lon="7.27683">
        <ele>533.2</ele>
        <time>2000-01-01T19:35:45.000Z</time>
      </trkpt>
      <trkpt lat="48.21196" lon="7.27692">
        <ele>520</ele>
        <time>2000-01-01T19:35:55.000Z</time>
      </trkpt>
      <trkpt lat="48.21196" lon="7.27695">
        <ele>533</ele>
        <time>2000-01-01T19:36:05.000Z</time>
      </trkpt>
      <trkpt lat="48.21193" lon="7.27715">
        <ele>535.5</ele>
        <time>2000-01-01T19:36:15.000Z</time>
      </trkpt>
      <trkpt lat="48.21192" lon="7.2773">
        <ele>518</ele>
        <time>2000-01-01T19:36:25.000Z</time>
      </trkpt>
      <trkpt lat="48.21209" lon="7.27742">
        <ele>517</ele>
        <time>2000-01-01T19:36:35.000Z</time>
      </trkpt>
      <trkpt lat="48.21211" lon="7.27746">
        <ele>534.4</ele>
        <time>2000-01-01T19:36:45.000Z</time>
      </trkpt>
      <trkpt lat="48.21218" lon="7.27751">
        <ele>540.6</ele>
        <time>2000-01-01T19:36:55.000Z</time>
      </trkpt>
      <trkpt lat="48.21228" lon="7.27758">
        <ele>509</ele>
        <time>2000-01-01T19:37:05.000Z</time>
      </trkpt>
      <trkpt lat="48.21235" lon="7.27765">
        <ele>536.7</ele>
        <time>2000-01-01T19:37:15.000Z</time>
      </trkpt>
      <trkpt lat="48.21245" lon="7.27769">
        <ele>509</ele>
        <time>2000-01-01T19:37:25.000Z</time>
      </trkpt>
      <trkpt lat="48.21255" lon="7.27768">
        <ele>532.2</ele>
        <time>2000-01-01T19:37:35.000Z</time>
      </trkpt>
      <trkpt lat="48.21257" lon="7.27762">
        <ele>530.9</ele>
        <time>2000-01-01T19:37:45.000Z</time>
      </trkpt>
      <trkpt lat="48.21258" lon="7.27759">
        <ele>530.4</ele>
        <time>2000-01-01T19:37:55.000Z</time>
      </trkpt>
      <trkpt lat="48.21263" lon="7.27752">
        <ele>507</ele>
        <time>2000-01-01T19:38:05.000Z</time>
      </trkpt>
      <trkpt lat="48.21267" lon="7.27741">
        <ele>525.4</ele>
        <time>2000-01-01T19:38:15.000Z</time>
      </trkpt>
      <trkpt lat="48.21268" lon="7.27739">
        <ele>525.4</ele>
        <time>2000-01-01T19:38:25.000Z</time>
      </trkpt>
      <trkpt lat="48.21272" lon="7.27735">
        <ele>525.4</ele>
        <time>2000-01-01T19:38:35.000Z</time>
      </trkpt>
      <trkpt lat="48.21277" lon="7.27729">
        <ele>508</ele>
        <time>2000-01-01T19:38:45.000Z</time>
      </trkpt>
      <trkpt lat="48.21285" lon="7.2772">
        <ele>525.5</ele>
        <time>2000-01-01T19:38:55.000Z</time>
      </trkpt>
      <trkpt lat="48.21295" lon="7.27706">
        <ele>509</ele>
        <time>2000-01-01T19:39:05.000Z</time>
      </trkpt>
      <trkpt lat="48.21302" lon="7.27699">
        <ele>524.9</ele>
        <time>2000-01-01T19:39:15.000Z</time>
      </trkpt>
      <trkpt lat="48.21307" lon="7.27694">
        <ele>524.8</ele>
        <time>2000-01-01T19:39:25.000Z</time>
      </trkpt>
      <trkpt lat="48.21309" lon="7.27692">
        <ele>524.7</ele>
        <time>2000-01-01T19:39:35.000Z</time>
      </trkpt>
      <trkpt lat="48.2131" lon="7.27692">
        <ele>514</ele>
        <time>2000-01-01T19:39:45.000Z</time>
      </trkpt>
      <trkpt lat="48.21312" lon="7.27689">
        <ele>524.6</ele>
        <time>2000-01-01T19:39:55.000Z</time>
      </trkpt>
      <trkpt lat="48.21317" lon="7.27685">
        <ele>524.4</ele>
        <time>2000-01-01T19:40:05.000Z</time>
      </trkpt>
      <trkpt lat="48.21318" lon="7.27683">
        <ele>524.3</ele>
        <time>2000-01-01T19:40:15.000Z</time>
      </trkpt>
      <trkpt lat="48.21332" lon="7.2768">
        <ele>518</ele>
        <time>2000-01-01T19:40:25.000Z</time>
      </trkpt>
      <trkpt lat="48.21346" lon="7.27685">
        <ele>526.2</ele>
        <time>2000-01-01T19:40:35.000Z</time>
      </trkpt>
      <trkpt lat="48.21355" lon="7.27693">
        <ele>523</ele>
        <time>2000-01-01T19:40:45.000Z</time>
      </trkpt>
      <trkpt lat="48.21365" lon="7.27707">
        <ele>528.5</ele>
        <time>2000-01-01T19:40:55.000Z</time>
      </trkpt>
      <trkpt lat="48.21369" lon="7.27718">
        <ele>525</ele>
        <time>2000-01-01T19:41:05.000Z</time>
      </trkpt>
      <trkpt lat="48.2137" lon="7.27726">
        <ele>530.4</ele>
        <time>2000-01-01T19:41:15.000Z</time>
      </trkpt>
      <trkpt lat="48.21371" lon="7.27732">
        <ele>531</ele>
        <time>2000-01-01T19:41:25.000Z</time>
      </trkpt>
      <trkpt lat="48.21375" lon="7.27738">
        <ele>531.3</ele>
        <time>2000-01-01T19:41:35.000Z</time>
      </trkpt>
      <trkpt lat="48.21378" lon="7.27747">
        <ele>531</ele>
        <time>2000-01-01T19:41:45.000Z</time>
      </trkpt>
      <trkpt lat="48.21389" lon="7.27762">
        <ele>542.7</ele>
        <time>2000-01-01T19:41:55.000Z</time>
      </trkpt>
      <trkpt lat="48.2139" lon="7.27762">
        <ele>542.6</ele>
        <time>2000-01-01T19:42:05.000Z</time>
      </trkpt>
      <trkpt lat="48.21385" lon="7.27752">
        <ele>532</ele>
        <time>2000-01-01T19:42:15.000Z</time>
      </trkpt>
      <trkpt lat="48.21393" lon="7.27759">
        <ele>542.1</ele>
        <time>2000-01-01T19:42:25.000Z</time>
      </trkpt>
      <trkpt lat="48.21395" lon="7.2777">
        <ele>543</ele>
        <time>2000-01-01T19:42:35.000Z</time>
      </trkpt>
      <trkpt lat="48.214" lon="7.27783">
        <ele>535</ele>
        <time>2000-01-01T19:42:45.000Z</time>
      </trkpt>
      <trkpt lat="48.21402" lon="7.27786">
        <ele>544.7</ele>
        <time>2000-01-01T19:42:55.000Z</time>
      </trkpt>
      <trkpt lat="48.21408" lon="7.27803">
        <ele>546.8</ele>
        <time>2000-01-01T19:43:05.000Z</time>
      </trkpt>
      <trkpt lat="48.21415" lon="7.27811">
        <ele>536</ele>
        <time>2000-01-01T19:43:15.000Z</time>
      </trkpt>
      <trkpt lat="48.21419" lon="7.27814">
        <ele>541.2</ele>
        <time>2000-01-01T19:43:25.000Z</time>
      </trkpt>
      <trkpt lat="48.2143" lon="7.27831">
        <ele>537</ele>
        <time>2000-01-01T19:43:35.000Z</time>
      </trkpt>
      <trkpt lat="48.21431" lon="7.27832">
        <ele>543.1</ele>
        <time>2000-01-01T19:43:45.000Z</time>
      </trkpt>
      <trkpt lat="48.21441" lon="7.27844">
        <ele>548.5</ele>
        <time>2000-01-01T19:43:55.000Z</time>
      </trkpt>
      <trkpt lat="48.21442" lon="7.27847">
        <ele>548.5</ele>
        <time>2000-01-01T19:44:05.000Z</time>
      </trkpt>
      <trkpt lat="48.21444" lon="7.2785">
        <ele>540</ele>
        <time>2000-01-01T19:44:15.000Z</time>
      </trkpt>
      <trkpt lat="48.21447" lon="7.27856">
        <ele>548.2</ele>
        <time>2000-01-01T19:44:25.000Z</time>
      </trkpt>
      <trkpt lat="48.21451" lon="7.27865">
        <ele>548.2</ele>
        <time>2000-01-01T19:44:35.000Z</time>
      </trkpt>
      <trkpt lat="48.21453" lon="7.27869">
        <ele>548.3</ele>
        <time>2000-01-01T19:44:45.000Z</time>
      </trkpt>
      <trkpt lat="48.21456" lon="7.27877">
        <ele>540</ele>
        <time>2000-01-01T19:44:55.000Z</time>
      </trkpt>
      <trkpt lat="48.21456" lon="7.27888">
        <ele>549.7</ele>
        <time>2000-01-01T19:45:05.000Z</time>
      </trkpt>
      <trkpt lat="48.21457" lon="7.27895">
        <ele>550.1</ele>
        <time>2000-01-01T19:45:15.000Z</time>
      </trkpt>
      <trkpt lat="48.2146" lon="7.27912">
        <ele>540</ele>
        <time>2000-01-01T19:45:25.000Z</time>
      </trkpt>
      <trkpt lat="48.2146" lon="7.27927">
        <ele>559.3</ele>
        <time>2000-01-01T19:45:35.000Z</time>
      </trkpt>
      <trkpt lat="48.21461" lon="7.2793">
        <ele>559.2</ele>
        <time>2000-01-01T19:45:45.000Z</time>
      </trkpt>
      <trkpt lat="48.21462" lon="7.27934">
        <ele>559.1</ele>
        <time>2000-01-01T19:45:55.000Z</time>
      </trkpt>
      <trkpt lat="48.21464" lon="7.27949">
        <ele>543</ele>
        <time>2000-01-01T19:46:05.000Z</time>
      </trkpt>
      <trkpt lat="48.21462" lon="7.27962">
        <ele>561</ele>
        <time>2000-01-01T19:46:15.000Z</time>
      </trkpt>
      <trkpt lat="48.21465" lon="7.27977">
        <ele>546</ele>
        <time>2000-01-01T19:46:25.000Z</time>
      </trkpt>
      <trkpt lat="48.21462" lon="7.27998">
        <ele>562.4</ele>
        <time>2000-01-01T19:46:35.000Z</time>
      </trkpt>
      <trkpt lat="48.21458" lon="7.28012">
        <ele>547</ele>
        <time>2000-01-01T19:46:45.000Z</time>
      </trkpt>
      <trkpt lat="48.2146" lon="7.28033">
        <ele>573.1</ele>
        <time>2000-01-01T19:46:55.000Z</time>
      </trkpt>
      <trkpt lat="48.21462" lon="7.28037">
        <ele>573</ele>
        <time>2000-01-01T19:47:05.000Z</time>
      </trkpt>
      <trkpt lat="48.21464" lon="7.28039">
        <ele>548</ele>
        <time>2000-01-01T19:47:15.000Z</time>
      </trkpt>
      <trkpt lat="48.21467" lon="7.28045">
        <ele>572.6</ele>
        <time>2000-01-01T19:47:25.000Z</time>
      </trkpt>
      <trkpt lat="48.21467" lon="7.28045">
        <ele>572.6</ele>
        <time>2000-01-01T19:47:35.000Z</time>
      </trkpt>
      <trkpt lat="48.2147" lon="7.28043">
        <ele>571.8</ele>
        <time>2000-01-01T19:47:45.000Z</time>
      </trkpt>
      <trkpt lat="48.21472" lon="7.28044">
        <ele>571.5</ele>
        <time>2000-01-01T19:47:55.000Z</time>
      </trkpt>
      <trkpt lat="48.21478" lon="7.28053">
        <ele>553</ele>
        <time>2000-01-01T19:48:05.000Z</time>
      </trkpt>
      <trkpt lat="48.21485" lon="7.28077">
        <ele>568.4</ele>
        <time>2000-01-01T19:48:15.000Z</time>
      </trkpt>
      <trkpt lat="48.21488" lon="7.28085">
        <ele>559</ele>
        <time>2000-01-01T19:48:25.000Z</time>
      </trkpt>
      <trkpt lat="48.21494" lon="7.28107">
        <ele>578.1</ele>
        <time>2000-01-01T19:48:35.000Z</time>
      </trkpt>
      <trkpt lat="48.21496" lon="7.28116">
        <ele>559</ele>
        <time>2000-01-01T19:48:45.000Z</time>
      </trkpt>
      <trkpt lat="48.21497" lon="7.2813">
        <ele>582.9</ele>
        <time>2000-01-01T19:48:55.000Z</time>
      </trkpt>
      <trkpt lat="48.21499" lon="7.28148">
        <ele>559</ele>
        <time>2000-01-01T19:49:05.000Z</time>
      </trkpt>
      <trkpt lat="48.215" lon="7.28158">
        <ele>574.4</ele>
        <time>2000-01-01T19:49:15.000Z</time>
      </trkpt>
      <trkpt lat="48.215" lon="7.28159">
        <ele>575</ele>
        <time>2000-01-01T19:49:25.000Z</time>
      </trkpt>
      <trkpt lat="48.21495" lon="7.28175">
        <ele>559</ele>
        <time>2000-01-01T19:49:35.000Z</time>
      </trkpt>
      <trkpt lat="48.21485" lon="7.28196">
        <ele>595</ele>
        <time>2000-01-01T19:49:45.000Z</time>
      </trkpt>
      <trkpt lat="48.21484" lon="7.28201">
        <ele>562</ele>
        <time>2000-01-01T19:49:55.000Z</time>
      </trkpt>
      <trkpt lat="48.21484" lon="7.28205">
        <ele>596.3</ele>
        <time>2000-01-01T19:50:05.000Z</time>
      </trkpt>
      <trkpt lat="48.2149" lon="7.2822">
        <ele>596.2</ele>
        <time>2000-01-01T19:50:15.000Z</time>
      </trkpt>
      <trkpt lat="48.21491" lon="7.28225">
        <ele>595.9</ele>
        <time>2000-01-01T19:50:25.000Z</time>
      </trkpt>
      <trkpt lat="48.21492" lon="7.28231">
        <ele>569</ele>
        <time>2000-01-01T19:50:35.000Z</time>
      </trkpt>
      <trkpt lat="48.21496" lon="7.28235">
        <ele>594.2</ele>
        <time>2000-01-01T19:50:45.000Z</time>
      </trkpt>
      <trkpt lat="48.21503" lon="7.28255">
        <ele>571</ele>
        <time>2000-01-01T19:50:55.000Z</time>
      </trkpt>
      <trkpt lat="48.21506" lon="7.28271">
        <ele>586.2</ele>
        <time>2000-01-01T19:51:05.000Z</time>
      </trkpt>
      <trkpt lat="48.21504" lon="7.28283">
        <ele>572</ele>
        <time>2000-01-01T19:51:15.000Z</time>
      </trkpt>
      <trkpt lat="48.21499" lon="7.28301">
        <ele>602.3</ele>
        <time>2000-01-01T19:51:25.000Z</time>
      </trkpt>
      <trkpt lat="48.21494" lon="7.28315">
        <ele>574</ele>
        <time>2000-01-01T19:51:35.000Z</time>
      </trkpt>
      <trkpt lat="48.21493" lon="7.28329">
        <ele>597.1</ele>
        <time>2000-01-01T19:51:45.000Z</time>
      </trkpt>
      <trkpt lat="48.21497" lon="7.28337">
        <ele>596.7</ele>
        <time>2000-01-01T19:51:55.000Z</time>
      </trkpt>
      <trkpt lat="48.21498" lon="7.28339">
        <ele>597.7</ele>
        <time>2000-01-01T19:52:05.000Z</time>
      </trkpt>
      <trkpt lat="48.21503" lon="7.28345">
        <ele>579</ele>
        <time>2000-01-01T19:52:15.000Z</time>
      </trkpt>
      <trkpt lat="48.21506" lon="7.28357">
        <ele>594.7</ele>
        <time>2000-01-01T19:52:25.000Z</time>
      </trkpt>
      <trkpt lat="48.21507" lon="7.28374">
        <ele>581</ele>
        <time>2000-01-01T19:52:35.000Z</time>
      </trkpt>
      <trkpt lat="48.21508" lon="7.28378">
        <ele>597.1</ele>
        <time>2000-01-01T19:52:45.000Z</time>
      </trkpt>
      <trkpt lat="48.2151" lon="7.2839">
        <ele>598.7</ele>
        <time>2000-01-01T19:52:55.000Z</time>
      </trkpt>
      <trkpt lat="48.21512" lon="7.28395">
        <ele>599.3</ele>
        <time>2000-01-01T19:53:05.000Z</time>
      </trkpt>
      <trkpt lat="48.21514" lon="7.28397">
        <ele>599.5</ele>
        <time>2000-01-01T19:53:15.000Z</time>
      </trkpt>
      <trkpt lat="48.21518" lon="7.284">
        <ele>584</ele>
        <time>2000-01-01T19:53:25.000Z</time>
      </trkpt>
      <trkpt lat="48.21524" lon="7.28404">
        <ele>599.2</ele>
        <time>2000-01-01T19:53:35.000Z</time>
      </trkpt>
      <trkpt lat="48.21534" lon="7.28415">
        <ele>587</ele>
        <time>2000-01-01T19:53:45.000Z</time>
      </trkpt>
      <trkpt lat="48.21541" lon="7.2843">
        <ele>611.2</ele>
        <time>2000-01-01T19:53:55.000Z</time>
      </trkpt>
      <trkpt lat="48.21544" lon="7.28436">
        <ele>611.7</ele>
        <time>2000-01-01T19:54:05.000Z</time>
      </trkpt>
      <trkpt lat="48.21549" lon="7.28441">
        <ele>587</ele>
        <time>2000-01-01T19:54:15.000Z</time>
      </trkpt>
      <trkpt lat="48.21557" lon="7.28447">
        <ele>612.4</ele>
        <time>2000-01-01T19:54:25.000Z</time>
      </trkpt>
      <trkpt lat="48.21559" lon="7.28447">
        <ele>612.3</ele>
        <time>2000-01-01T19:54:35.000Z</time>
      </trkpt>
      <trkpt lat="48.21569" lon="7.28443">
        <ele>587</ele>
        <time>2000-01-01T19:54:45.000Z</time>
      </trkpt>
      <trkpt lat="48.21576" lon="7.28436">
        <ele>608.5</ele>
        <time>2000-01-01T19:54:55.000Z</time>
      </trkpt>
      <trkpt lat="48.21584" lon="7.28429">
        <ele>608.2</ele>
        <time>2000-01-01T19:55:05.000Z</time>
      </trkpt>
      <trkpt lat="48.21599" lon="7.2843">
        <ele>590</ele>
        <time>2000-01-01T19:55:15.000Z</time>
      </trkpt>
      <trkpt lat="48.21607" lon="7.28431">
        <ele>614.4</ele>
        <time>2000-01-01T19:55:25.000Z</time>
      </trkpt>
      <trkpt lat="48.21615" lon="7.2844">
        <ele>595</ele>
        <time>2000-01-01T19:55:35.000Z</time>
      </trkpt>
      <trkpt lat="48.21628" lon="7.28443">
        <ele>619.7</ele>
        <time>2000-01-01T19:55:45.000Z</time>
      </trkpt>
      <trkpt lat="48.21633" lon="7.28441">
        <ele>595</ele>
        <time>2000-01-01T19:55:55.000Z</time>
      </trkpt>
      <trkpt lat="48.21636" lon="7.2844">
        <ele>620.4</ele>
        <time>2000-01-01T19:56:05.000Z</time>
      </trkpt>
      <trkpt lat="48.21646" lon="7.28422">
        <ele>596</ele>
        <time>2000-01-01T19:56:15.000Z</time>
      </trkpt>
      <trkpt lat="48.21648" lon="7.28417">
        <ele>620.2</ele>
        <time>2000-01-01T19:56:25.000Z</time>
      </trkpt>
      <trkpt lat="48.21649" lon="7.28401">
        <ele>611</ele>
        <time>2000-01-01T19:56:35.000Z</time>
      </trkpt>
      <trkpt lat="48.2165" lon="7.28381">
        <ele>600</ele>
        <time>2000-01-01T19:56:45.000Z</time>
      </trkpt>
      <trkpt lat="48.2165" lon="7.28376">
        <ele>608</ele>
        <time>2000-01-01T19:56:55.000Z</time>
      </trkpt>
      <trkpt lat="48.21649" lon="7.28367">
        <ele>607.4</ele>
        <time>2000-01-01T19:57:05.000Z</time>
      </trkpt>
      <trkpt lat="48.21651" lon="7.28356">
        <ele>607.5</ele>
        <time>2000-01-01T19:57:15.000Z</time>
      </trkpt>
      <trkpt lat="48.21657" lon="7.28344">
        <ele>600</ele>
        <time>2000-01-01T19:57:25.000Z</time>
      </trkpt>
      <trkpt lat="48.21666" lon="7.28339">
        <ele>611.3</ele>
        <time>2000-01-01T19:57:35.000Z</time>
      </trkpt>
      <trkpt lat="48.21679" lon="7.28328">
        <ele>604</ele>
        <time>2000-01-01T19:57:45.000Z</time>
      </trkpt>
      <trkpt lat="48.21687" lon="7.28318">
        <ele>610.9</ele>
        <time>2000-01-01T19:57:55.000Z</time>
      </trkpt>
      <trkpt lat="48.2169" lon="7.28315">
        <ele>610.7</ele>
        <time>2000-01-01T19:58:05.000Z</time>
      </trkpt>
      <trkpt lat="48.21704" lon="7.28317">
        <ele>610</ele>
        <time>2000-01-01T19:58:15.000Z</time>
      </trkpt>
      <trkpt lat="48.21706" lon="7.28318">
        <ele>611.4</ele>
        <time>2000-01-01T19:58:25.000Z</time>
      </trkpt>
      <trkpt lat="48.21717" lon="7.28328">
        <ele>613</ele>
        <time>2000-01-01T19:58:35.000Z</time>
      </trkpt>
      <trkpt lat="48.21726" lon="7.28335">
        <ele>614</ele>
        <time>2000-01-01T19:58:45.000Z</time>
      </trkpt>
      <trkpt lat="48.21736" lon="7.28345">
        <ele>623.6</ele>
        <time>2000-01-01T19:58:55.000Z</time>
      </trkpt>
      <trkpt lat="48.21741" lon="7.28349">
        <ele>623.9</ele>
        <time>2000-01-01T19:59:05.000Z</time>
      </trkpt>
      <trkpt lat="48.21752" lon="7.28358">
        <ele>614</ele>
        <time>2000-01-01T19:59:15.000Z</time>
      </trkpt>
      <trkpt lat="48.21755" lon="7.28361">
        <ele>630.4</ele>
        <time>2000-01-01T19:59:25.000Z</time>
      </trkpt>
      <trkpt lat="48.21762" lon="7.28367">
        <ele>631.7</ele>
        <time>2000-01-01T19:59:35.000Z</time>
      </trkpt>
      <trkpt lat="48.21768" lon="7.28368">
        <ele>632.1</ele>
        <time>2000-01-01T19:59:45.000Z</time>
      </trkpt>
      <trkpt lat="48.21769" lon="7.28369">
        <ele>617</ele>
        <time>2000-01-01T19:59:55.000Z</time>
      </trkpt>
      <trkpt lat="48.21781" lon="7.28373">
        <ele>633.1</ele>
        <time>2000-01-01T20:00:05.000Z</time>
      </trkpt>
      <trkpt lat="48.2179" lon="7.28376">
        <ele>617</ele>
        <time>2000-01-01T20:00:15.000Z</time>
      </trkpt>
      <trkpt lat="48.21799" lon="7.28374">
        <ele>633.4</ele>
        <time>2000-01-01T20:00:25.000Z</time>
      </trkpt>
      <trkpt lat="48.21808" lon="7.28369">
        <ele>620</ele>
        <time>2000-01-01T20:00:35.000Z</time>
      </trkpt>
      <trkpt lat="48.21817" lon="7.28365">
        <ele>631.9</ele>
        <time>2000-01-01T20:00:45.000Z</time>
      </trkpt>
      <trkpt lat="48.21825" lon="7.2836">
        <ele>630.6</ele>
        <time>2000-01-01T20:00:55.000Z</time>
      </trkpt>
      <trkpt lat="48.21837" lon="7.28356">
        <ele>624</ele>
        <time>2000-01-01T20:01:05.000Z</time>
      </trkpt>
      <trkpt lat="48.21838" lon="7.28356">
        <ele>628.4</ele>
        <time>2000-01-01T20:01:15.000Z</time>
      </trkpt>
      <trkpt lat="48.21852" lon="7.28363">
        <ele>630</ele>
        <time>2000-01-01T20:01:25.000Z</time>
      </trkpt>
      <trkpt lat="48.21854" lon="7.28366">
        <ele>628</ele>
        <time>2000-01-01T20:01:35.000Z</time>
      </trkpt>
      <trkpt lat="48.21865" lon="7.28382">
        <ele>633.1</ele>
        <time>2000-01-01T20:01:45.000Z</time>
      </trkpt>
      <trkpt lat="48.21868" lon="7.28388">
        <ele>632</ele>
        <time>2000-01-01T20:01:55.000Z</time>
      </trkpt>
      <trkpt lat="48.21876" lon="7.28394">
        <ele>634.5</ele>
        <time>2000-01-01T20:02:05.000Z</time>
      </trkpt>
      <trkpt lat="48.21885" lon="7.28399">
        <ele>632</ele>
        <time>2000-01-01T20:02:15.000Z</time>
      </trkpt>
      <trkpt lat="48.21894" lon="7.28402">
        <ele>636</ele>
        <time>2000-01-01T20:02:25.000Z</time>
      </trkpt>
      <trkpt lat="48.21902" lon="7.28406">
        <ele>637.6</ele>
        <time>2000-01-01T20:02:35.000Z</time>
      </trkpt>
      <trkpt lat="48.21916" lon="7.28412">
        <ele>637</ele>
        <time>2000-01-01T20:02:45.000Z</time>
      </trkpt>
      <trkpt lat="48.21917" lon="7.28414">
        <ele>642.2</ele>
        <time>2000-01-01T20:02:55.000Z</time>
      </trkpt>
      <trkpt lat="48.2192" lon="7.28415">
        <ele>641.6</ele>
        <time>2000-01-01T20:03:05.000Z</time>
      </trkpt>
      <trkpt lat="48.2193" lon="7.28417">
        <ele>649</ele>
        <time>2000-01-01T20:03:15.000Z</time>
      </trkpt>
      <trkpt lat="48.21933" lon="7.28419">
        <ele>649.8</ele>
        <time>2000-01-01T20:03:25.000Z</time>
      </trkpt>
      <trkpt lat="48.21949" lon="7.28423">
        <ele>639</ele>
        <time>2000-01-01T20:03:35.000Z</time>
      </trkpt>
      <trkpt lat="48.21955" lon="7.28422">
        <ele>651.9</ele>
        <time>2000-01-01T20:03:45.000Z</time>
      </trkpt>
      <trkpt lat="48.21962" lon="7.28425">
        <ele>651.9</ele>
        <time>2000-01-01T20:03:55.000Z</time>
      </trkpt>
      <trkpt lat="48.21971" lon="7.28427">
        <ele>643</ele>
        <time>2000-01-01T20:04:05.000Z</time>
      </trkpt>
      <trkpt lat="48.21976" lon="7.28428">
        <ele>650.7</ele>
        <time>2000-01-01T20:04:15.000Z</time>
      </trkpt>
      <trkpt lat="48.21981" lon="7.2843">
        <ele>650.2</ele>
        <time>2000-01-01T20:04:25.000Z</time>
      </trkpt>
      <trkpt lat="48.21989" lon="7.28438">
        <ele>645</ele>
        <time>2000-01-01T20:04:35.000Z</time>
      </trkpt>
      <trkpt lat="48.21997" lon="7.28452">
        <ele>654.7</ele>
        <time>2000-01-01T20:04:45.000Z</time>
      </trkpt>
      <trkpt lat="48.22004" lon="7.28468">
        <ele>649</ele>
        <time>2000-01-01T20:04:55.000Z</time>
      </trkpt>
      <trkpt lat="48.22011" lon="7.28485">
        <ele>659.9</ele>
        <time>2000-01-01T20:05:05.000Z</time>
      </trkpt>
      <trkpt lat="48.22017" lon="7.28498">
        <ele>648</ele>
        <time>2000-01-01T20:05:15.000Z</time>
      </trkpt>
      <trkpt lat="48.22021" lon="7.285">
        <ele>676.9</ele>
        <time>2000-01-01T20:05:25.000Z</time>
      </trkpt>
      <trkpt lat="48.22028" lon="7.28504">
        <ele>677.9</ele>
        <time>2000-01-01T20:05:35.000Z</time>
      </trkpt>
      <trkpt lat="48.22033" lon="7.28507">
        <ele>678.5</ele>
        <time>2000-01-01T20:05:45.000Z</time>
      </trkpt>
      <trkpt lat="48.22039" lon="7.28507">
        <ele>650</ele>
        <time>2000-01-01T20:05:55.000Z</time>
      </trkpt>
      <trkpt lat="48.22042" lon="7.28507">
        <ele>678.3</ele>
        <time>2000-01-01T20:06:05.000Z</time>
      </trkpt>
      <trkpt lat="48.22048" lon="7.28518">
        <ele>679.3</ele>
        <time>2000-01-01T20:06:15.000Z</time>
      </trkpt>
      <trkpt lat="48.22063" lon="7.28516">
        <ele>653</ele>
        <time>2000-01-01T20:06:25.000Z</time>
      </trkpt>
      <trkpt lat="48.22069" lon="7.28516">
        <ele>675.5</ele>
        <time>2000-01-01T20:06:35.000Z</time>
      </trkpt>
      <trkpt lat="48.22072" lon="7.28517">
        <ele>675.3</ele>
        <time>2000-01-01T20:06:45.000Z</time>
      </trkpt>
      <trkpt lat="48.22083" lon="7.28515">
        <ele>656</ele>
        <time>2000-01-01T20:06:55.000Z</time>
      </trkpt>
      <trkpt lat="48.22092" lon="7.28516">
        <ele>674.1</ele>
        <time>2000-01-01T20:07:05.000Z</time>
      </trkpt>
      <trkpt lat="48.22102" lon="7.2852">
        <ele>657</ele>
        <time>2000-01-01T20:07:15.000Z</time>
      </trkpt>
      <trkpt lat="48.22117" lon="7.28524">
        <ele>679.9</ele>
        <time>2000-01-01T20:07:25.000Z</time>
      </trkpt>
      <trkpt lat="48.2213" lon="7.28532">
        <ele>661</ele>
        <time>2000-01-01T20:07:35.000Z</time>
      </trkpt>
      <trkpt lat="48.2214" lon="7.28537">
        <ele>683.1</ele>
        <time>2000-01-01T20:07:45.000Z</time>
      </trkpt>
      <trkpt lat="48.22145" lon="7.28539">
        <ele>683.7</ele>
        <time>2000-01-01T20:07:55.000Z</time>
      </trkpt>
      <trkpt lat="48.22153" lon="7.28539">
        <ele>659</ele>
        <time>2000-01-01T20:08:05.000Z</time>
      </trkpt>
      <trkpt lat="48.22158" lon="7.28537">
        <ele>683.3</ele>
        <time>2000-01-01T20:08:15.000Z</time>
      </trkpt>
      <trkpt lat="48.22169" lon="7.28529">
        <ele>658</ele>
        <time>2000-01-01T20:08:25.000Z</time>
      </trkpt>
      <trkpt lat="48.22171" lon="7.28526">
        <ele>691.2</ele>
        <time>2000-01-01T20:08:35.000Z</time>
      </trkpt>
      <trkpt lat="48.22173" lon="7.28517">
        <ele>687.1</ele>
        <time>2000-01-01T20:08:45.000Z</time>
      </trkpt>
      <trkpt lat="48.2218" lon="7.28507">
        <ele>655</ele>
        <time>2000-01-01T20:08:55.000Z</time>
      </trkpt>
      <trkpt lat="48.22192" lon="7.28495">
        <ele>675.1</ele>
        <time>2000-01-01T20:09:05.000Z</time>
      </trkpt>
      <trkpt lat="48.22198" lon="7.28489">
        <ele>655</ele>
        <time>2000-01-01T20:09:15.000Z</time>
      </trkpt>
      <trkpt lat="48.22198" lon="7.28487">
        <ele>675.9</ele>
        <time>2000-01-01T20:09:25.000Z</time>
      </trkpt>
      <trkpt lat="48.22198" lon="7.28476">
        <ele>674.8</ele>
        <time>2000-01-01T20:09:35.000Z</time>
      </trkpt>
      <trkpt lat="48.22197" lon="7.28474">
        <ele>674.4</ele>
        <time>2000-01-01T20:09:45.000Z</time>
      </trkpt>
      <trkpt lat="48.22197" lon="7.2846">
        <ele>653</ele>
        <time>2000-01-01T20:09:55.000Z</time>
      </trkpt>
      <trkpt lat="48.22201" lon="7.2844">
        <ele>669.4</ele>
        <time>2000-01-01T20:10:05.000Z</time>
      </trkpt>
      <trkpt lat="48.22207" lon="7.28426">
        <ele>653</ele>
        <time>2000-01-01T20:10:15.000Z</time>
      </trkpt>
      <trkpt lat="48.22218" lon="7.28421">
        <ele>671.7</ele>
        <time>2000-01-01T20:10:25.000Z</time>
      </trkpt>
      <trkpt lat="48.2223" lon="7.28412">
        <ele>651</ele>
        <time>2000-01-01T20:10:35.000Z</time>
      </trkpt>
      <trkpt lat="48.22233" lon="7.28408">
        <ele>662.6</ele>
        <time>2000-01-01T20:10:45.000Z</time>
      </trkpt>
      <trkpt lat="48.22239" lon="7.284">
        <ele>662.4</ele>
        <time>2000-01-01T20:10:55.000Z</time>
      </trkpt>
      <trkpt lat="48.2225" lon="7.28383">
        <ele>649</ele>
        <time>2000-01-01T20:11:05.000Z</time>
      </trkpt>
      <trkpt lat="48.22254" lon="7.28377">
        <ele>681.8</ele>
        <time>2000-01-01T20:11:15.000Z</time>
      </trkpt>
      <trkpt lat="48.22256" lon="7.28367">
        <ele>680.1</ele>
        <time>2000-01-01T20:11:25.000Z</time>
      </trkpt>
      <trkpt lat="48.22259" lon="7.28339">
        <ele>637</ele>
        <time>2000-01-01T20:11:35.000Z</time>
      </trkpt>
      <trkpt lat="48.22258" lon="7.28333">
        <ele>665.1</ele>
        <time>2000-01-01T20:11:45.000Z</time>
      </trkpt>
      <trkpt lat="48.22252" lon="7.28322">
        <ele>666.7</ele>
        <time>2000-01-01T20:11:55.000Z</time>
      </trkpt>
      <trkpt lat="48.2225" lon="7.28313">
        <ele>632</ele>
        <time>2000-01-01T20:12:05.000Z</time>
      </trkpt>
      <trkpt lat="48.22247" lon="7.28299">
        <ele>646.8</ele>
        <time>2000-01-01T20:12:15.000Z</time>
      </trkpt>
      <trkpt lat="48.22245" lon="7.28288">
        <ele>646.4</ele>
        <time>2000-01-01T20:12:25.000Z</time>
      </trkpt>
      <trkpt lat="48.22245" lon="7.28281">
        <ele>627</ele>
        <time>2000-01-01T20:12:35.000Z</time>
      </trkpt>
      <trkpt lat="48.22245" lon="7.28278">
        <ele>647.4</ele>
        <time>2000-01-01T20:12:45.000Z</time>
      </trkpt>
      <trkpt lat="48.22233" lon="7.28261">
        <ele>626</ele>
        <time>2000-01-01T20:12:55.000Z</time>
      </trkpt>
      <trkpt lat="48.2223" lon="7.28253">
        <ele>647.5</ele>
        <time>2000-01-01T20:13:05.000Z</time>
      </trkpt>
      <trkpt lat="48.22213" lon="7.28226">
        <ele>625</ele>
        <time>2000-01-01T20:13:15.000Z</time>
      </trkpt>
      <trkpt lat="48.2221" lon="7.28221">
        <ele>643.2</ele>
        <time>2000-01-01T20:13:25.000Z</time>
      </trkpt>
      <trkpt lat="48.22204" lon="7.28215">
        <ele>641.9</ele>
        <time>2000-01-01T20:13:35.000Z</time>
      </trkpt>
      <trkpt lat="48.22198" lon="7.28203">
        <ele>622</ele>
        <time>2000-01-01T20:13:45.000Z</time>
      </trkpt>
      <trkpt lat="48.22189" lon="7.2818">
        <ele>638.8</ele>
        <time>2000-01-01T20:13:55.000Z</time>
      </trkpt>
      <trkpt lat="48.22186" lon="7.28176">
        <ele>619</ele>
        <time>2000-01-01T20:14:05.000Z</time>
      </trkpt>
      <trkpt lat="48.2218" lon="7.28158">
        <ele>639.3</ele>
        <time>2000-01-01T20:14:15.000Z</time>
      </trkpt>
      <trkpt lat="48.22175" lon="7.28143">
        <ele>617</ele>
        <time>2000-01-01T20:14:25.000Z</time>
      </trkpt>
      <trkpt lat="48.22171" lon="7.28133">
        <ele>643.2</ele>
        <time>2000-01-01T20:14:35.000Z</time>
      </trkpt>
      <trkpt lat="48.22168" lon="7.28122">
        <ele>643.6</ele>
        <time>2000-01-01T20:14:45.000Z</time>
      </trkpt>
      <trkpt lat="48.22165" lon="7.28111">
        <ele>613</ele>
        <time>2000-01-01T20:14:55.000Z</time>
      </trkpt>
      <trkpt lat="48.22164" lon="7.28095">
        <ele>624.4</ele>
        <time>2000-01-01T20:15:05.000Z</time>
      </trkpt>
      <trkpt lat="48.22158" lon="7.28075">
        <ele>607</ele>
        <time>2000-01-01T20:15:15.000Z</time>
      </trkpt>
      <trkpt lat="48.22156" lon="7.28063">
        <ele>625.6</ele>
        <time>2000-01-01T20:15:25.000Z</time>
      </trkpt>
      <trkpt lat="48.22157" lon="7.28056">
        <ele>625.5</ele>
        <time>2000-01-01T20:15:35.000Z</time>
      </trkpt>
      <trkpt lat="48.22155" lon="7.28045">
        <ele>607</ele>
        <time>2000-01-01T20:15:45.000Z</time>
      </trkpt>
      <trkpt lat="48.22142" lon="7.28035">
        <ele>624.4</ele>
        <time>2000-01-01T20:15:55.000Z</time>
      </trkpt>
      <trkpt lat="48.22139" lon="7.28029">
        <ele>599</ele>
        <time>2000-01-01T20:16:05.000Z</time>
      </trkpt>
      <trkpt lat="48.22131" lon="7.28022">
        <ele>623.1</ele>
        <time>2000-01-01T20:16:15.000Z</time>
      </trkpt>
      <trkpt lat="48.22131" lon="7.28022">
        <ele>623.1</ele>
        <time>2000-01-01T20:16:25.000Z</time>
      </trkpt>
      <trkpt lat="48.22129" lon="7.28024">
        <ele>622.3</ele>
        <time>2000-01-01T20:16:35.000Z</time>
      </trkpt>
      <trkpt lat="48.22127" lon="7.28022">
        <ele>621.9</ele>
        <time>2000-01-01T20:16:45.000Z</time>
      </trkpt>
      <trkpt lat="48.22124" lon="7.28022">
        <ele>621.1</ele>
        <time>2000-01-01T20:16:55.000Z</time>
      </trkpt>
      <trkpt lat="48.22115" lon="7.28013">
        <ele>593</ele>
        <time>2000-01-01T20:17:05.000Z</time>
      </trkpt>
      <trkpt lat="48.22109" lon="7.28002">
        <ele>616.7</ele>
        <time>2000-01-01T20:17:15.000Z</time>
      </trkpt>
      <trkpt lat="48.22105" lon="7.27997">
        <ele>620.6</ele>
        <time>2000-01-01T20:17:25.000Z</time>
      </trkpt>
      <trkpt lat="48.22088" lon="7.27988">
        <ele>589</ele>
        <time>2000-01-01T20:17:35.000Z</time>
      </trkpt>
      <trkpt lat="48.22077" lon="7.27982">
        <ele>600.9</ele>
        <time>2000-01-01T20:17:45.000Z</time>
      </trkpt>
      <trkpt lat="48.22073" lon="7.27971">
        <ele>589</ele>
        <time>2000-01-01T20:17:55.000Z</time>
      </trkpt>
      <trkpt lat="48.22065" lon="7.27934">
        <ele>589</ele>
        <time>2000-01-01T20:18:05.000Z</time>
      </trkpt>
      <trkpt lat="48.22062" lon="7.27926">
        <ele>602.2</ele>
        <time>2000-01-01T20:18:15.000Z</time>
      </trkpt>
      <trkpt lat="48.22061" lon="7.27925">
        <ele>602</ele>
        <time>2000-01-01T20:18:25.000Z</time>
      </trkpt>
      <trkpt lat="48.22059" lon="7.27918">
        <ele>601.8</ele>
        <time>2000-01-01T20:18:35.000Z</time>
      </trkpt>
      <trkpt lat="48.22061" lon="7.27907">
        <ele>589</ele>
        <time>2000-01-01T20:18:45.000Z</time>
      </trkpt>
      <trkpt lat="48.22057" lon="7.27895">
        <ele>604.7</ele>
        <time>2000-01-01T20:18:55.000Z</time>
      </trkpt>
      <trkpt lat="48.22056" lon="7.27892">
        <ele>604.4</ele>
        <time>2000-01-01T20:19:05.000Z</time>
      </trkpt>
      <trkpt lat="48.22056" lon="7.2789">
        <ele>604.4</ele>
        <time>2000-01-01T20:19:15.000Z</time>
      </trkpt>
      <trkpt lat="48.22056" lon="7.2789">
        <ele>604.4</ele>
        <time>2000-01-01T20:19:25.000Z</time>
      </trkpt>
      <trkpt lat="48.22053" lon="7.27884">
        <ele>604</ele>
        <time>2000-01-01T20:19:35.000Z</time>
      </trkpt>
      <trkpt lat="48.22047" lon="7.27867">
        <ele>589</ele>
        <time>2000-01-01T20:19:45.000Z</time>
      </trkpt>
      <trkpt lat="48.22046" lon="7.27857">
        <ele>603.8</ele>
        <time>2000-01-01T20:19:55.000Z</time>
      </trkpt>
      <trkpt lat="48.22039" lon="7.27833">
        <ele>589</ele>
        <time>2000-01-01T20:20:05.000Z</time>
      </trkpt>
      <trkpt lat="48.22035" lon="7.27809">
        <ele>605.5</ele>
        <time>2000-01-01T20:20:15.000Z</time>
      </trkpt>
      <trkpt lat="48.22032" lon="7.278">
        <ele>589</ele>
        <time>2000-01-01T20:20:25.000Z</time>
      </trkpt>
      <trkpt lat="48.22029" lon="7.27792">
        <ele>605.4</ele>
        <time>2000-01-01T20:20:35.000Z</time>
      </trkpt>
      <trkpt lat="48.22028" lon="7.27788">
        <ele>605.4</ele>
        <time>2000-01-01T20:20:45.000Z</time>
      </trkpt>
      <trkpt lat="48.22022" lon="7.27764">
        <ele>587</ele>
        <time>2000-01-01T20:20:55.000Z</time>
      </trkpt>
      <trkpt lat="48.22023" lon="7.27761">
        <ele>604.8</ele>
        <time>2000-01-01T20:21:05.000Z</time>
      </trkpt>
      <trkpt lat="48.22019" lon="7.27743">
        <ele>604.8</ele>
        <time>2000-01-01T20:21:15.000Z</time>
      </trkpt>
      <trkpt lat="48.22018" lon="7.27741">
        <ele>604.7</ele>
        <time>2000-01-01T20:21:25.000Z</time>
      </trkpt>
      <trkpt lat="48.22008" lon="7.2772">
        <ele>583</ele>
        <time>2000-01-01T20:21:35.000Z</time>
      </trkpt>
      <trkpt lat="48.22007" lon="7.27718">
        <ele>605.1</ele>
        <time>2000-01-01T20:21:45.000Z</time>
      </trkpt>
      <trkpt lat="48.21999" lon="7.27702">
        <ele>596.7</ele>
        <time>2000-01-01T20:21:55.000Z</time>
      </trkpt>
      <trkpt lat="48.21993" lon="7.27686">
        <ele>583</ele>
        <time>2000-01-01T20:22:05.000Z</time>
      </trkpt>
      <trkpt lat="48.21985" lon="7.27673">
        <ele>597.5</ele>
        <time>2000-01-01T20:22:15.000Z</time>
      </trkpt>
      <trkpt lat="48.21979" lon="7.27648">
        <ele>581</ele>
        <time>2000-01-01T20:22:25.000Z</time>
      </trkpt>
      <trkpt lat="48.21978" lon="7.27618">
        <ele>581</ele>
        <time>2000-01-01T20:22:35.000Z</time>
      </trkpt>
      <trkpt lat="48.2198" lon="7.27595">
        <ele>596.6</ele>
        <time>2000-01-01T20:22:45.000Z</time>
      </trkpt>
      <trkpt lat="48.21986" lon="7.27574">
        <ele>579</ele>
        <time>2000-01-01T20:22:55.000Z</time>
      </trkpt>
      <trkpt lat="48.21987" lon="7.27559">
        <ele>595</ele>
        <time>2000-01-01T20:23:05.000Z</time>
      </trkpt>
      <trkpt lat="48.2199" lon="7.27549">
        <ele>594.5</ele>
        <time>2000-01-01T20:23:15.000Z</time>
      </trkpt>
      <trkpt lat="48.21994" lon="7.27543">
        <ele>576</ele>
        <time>2000-01-01T20:23:25.000Z</time>
      </trkpt>
      <trkpt lat="48.22002" lon="7.27532">
        <ele>591.5</ele>
        <time>2000-01-01T20:23:35.000Z</time>
      </trkpt>
      <trkpt lat="48.22009" lon="7.2751">
        <ele>572</ele>
        <time>2000-01-01T20:23:45.000Z</time>
      </trkpt>
      <trkpt lat="48.22011" lon="7.27493">
        <ele>584</ele>
        <time>2000-01-01T20:23:55.000Z</time>
      </trkpt>
      <trkpt lat="48.22013" lon="7.27473">
        <ele>571</ele>
        <time>2000-01-01T20:24:05.000Z</time>
      </trkpt>
      <trkpt lat="48.22023" lon="7.27463">
        <ele>578</ele>
        <time>2000-01-01T20:24:15.000Z</time>
      </trkpt>
      <trkpt lat="48.22032" lon="7.2746">
        <ele>570</ele>
        <time>2000-01-01T20:24:25.000Z</time>
      </trkpt>
      <trkpt lat="48.22043" lon="7.27458">
        <ele>576.7</ele>
        <time>2000-01-01T20:24:35.000Z</time>
      </trkpt>
      <trkpt lat="48.22053" lon="7.27458">
        <ele>569</ele>
        <time>2000-01-01T20:24:45.000Z</time>
      </trkpt>
      <trkpt lat="48.22062" lon="7.27457">
        <ele>576</ele>
        <time>2000-01-01T20:24:55.000Z</time>
      </trkpt>
      <trkpt lat="48.22074" lon="7.27456">
        <ele>565</ele>
        <time>2000-01-01T20:25:05.000Z</time>
      </trkpt>
      <trkpt lat="48.22085" lon="7.27451">
        <ele>577.1</ele>
        <time>2000-01-01T20:25:15.000Z</time>
      </trkpt>
      <trkpt lat="48.22096" lon="7.27446">
        <ele>561</ele>
        <time>2000-01-01T20:25:25.000Z</time>
      </trkpt>
      <trkpt lat="48.22103" lon="7.27434">
        <ele>575.7</ele>
        <time>2000-01-01T20:25:35.000Z</time>
      </trkpt>
      <trkpt lat="48.22106" lon="7.27425">
        <ele>575.1</ele>
        <time>2000-01-01T20:25:45.000Z</time>
      </trkpt>
      <trkpt lat="48.22122" lon="7.27408">
        <ele>560</ele>
        <time>2000-01-01T20:25:55.000Z</time>
      </trkpt>
      <trkpt lat="48.22124" lon="7.27395">
        <ele>568.2</ele>
        <time>2000-01-01T20:26:05.000Z</time>
      </trkpt>
      <trkpt lat="48.22119" lon="7.27377">
        <ele>550</ele>
        <time>2000-01-01T20:26:15.000Z</time>
      </trkpt>
      <trkpt lat="48.22115" lon="7.27363">
        <ele>564.5</ele>
        <time>2000-01-01T20:26:25.000Z</time>
      </trkpt>
      <trkpt lat="48.22112" lon="7.27338">
        <ele>550</ele>
        <time>2000-01-01T20:26:35.000Z</time>
      </trkpt>
      <trkpt lat="48.22111" lon="7.27307">
        <ele>550</ele>
        <time>2000-01-01T20:26:45.000Z</time>
      </trkpt>
      <trkpt lat="48.22115" lon="7.27284">
        <ele>551.4</ele>
        <time>2000-01-01T20:26:55.000Z</time>
      </trkpt>
      <trkpt lat="48.22128" lon="7.27249">
        <ele>545</ele>
        <time>2000-01-01T20:27:05.000Z</time>
      </trkpt>
      <trkpt lat="48.22139" lon="7.27226">
        <ele>545</ele>
        <time>2000-01-01T20:27:15.000Z</time>
      </trkpt>
      <trkpt lat="48.22159" lon="7.27226">
        <ele>548</ele>
        <time>2000-01-01T20:27:25.000Z</time>
      </trkpt>
      <trkpt lat="48.22162" lon="7.27226">
        <ele>542.9</ele>
        <time>2000-01-01T20:27:35.000Z</time>
      </trkpt>
      <trkpt lat="48.22172" lon="7.27232">
        <ele>548.7</ele>
        <time>2000-01-01T20:27:45.000Z</time>
      </trkpt>
      <trkpt lat="48.2218" lon="7.27232">
        <ele>546</ele>
        <time>2000-01-01T20:27:55.000Z</time>
      </trkpt>
      <trkpt lat="48.22192" lon="7.27227">
        <ele>546.6</ele>
        <time>2000-01-01T20:28:05.000Z</time>
      </trkpt>
      <trkpt lat="48.22199" lon="7.27222">
        <ele>545</ele>
        <time>2000-01-01T20:28:15.000Z</time>
      </trkpt>
      <trkpt lat="48.22208" lon="7.27212">
        <ele>544.3</ele>
        <time>2000-01-01T20:28:25.000Z</time>
      </trkpt>
      <trkpt lat="48.22216" lon="7.27204">
        <ele>540</ele>
        <time>2000-01-01T20:28:35.000Z</time>
      </trkpt>
      <trkpt lat="48.2223" lon="7.272">
        <ele>542.6</ele>
        <time>2000-01-01T20:28:45.000Z</time>
      </trkpt>
      <trkpt lat="48.22242" lon="7.27202">
        <ele>539</ele>
        <time>2000-01-01T20:28:55.000Z</time>
      </trkpt>
      <trkpt lat="48.22254" lon="7.27203">
        <ele>550.1</ele>
        <time>2000-01-01T20:29:05.000Z</time>
      </trkpt>
      <trkpt lat="48.22271" lon="7.27196">
        <ele>536</ele>
        <time>2000-01-01T20:29:15.000Z</time>
      </trkpt>
      <trkpt lat="48.22287" lon="7.27176">
        <ele>531</ele>
        <time>2000-01-01T20:29:25.000Z</time>
      </trkpt>
      <trkpt lat="48.22287" lon="7.27158">
        <ele>536.7</ele>
        <time>2000-01-01T20:29:35.000Z</time>
      </trkpt>
      <trkpt lat="48.22287" lon="7.27139">
        <ele>530</ele>
        <time>2000-01-01T20:29:45.000Z</time>
      </trkpt>
      <trkpt lat="48.22309" lon="7.27116">
        <ele>528</ele>
        <time>2000-01-01T20:29:55.000Z</time>
      </trkpt>
      <trkpt lat="48.22313" lon="7.27107">
        <ele>535.1</ele>
        <time>2000-01-01T20:30:05.000Z</time>
      </trkpt>
      <trkpt lat="48.22318" lon="7.27089">
        <ele>525</ele>
        <time>2000-01-01T20:30:15.000Z</time>
      </trkpt>
      <trkpt lat="48.22319" lon="7.2707">
        <ele>530.7</ele>
        <time>2000-01-01T20:30:25.000Z</time>
      </trkpt>
      <trkpt lat="48.22315" lon="7.27042">
        <ele>525</ele>
        <time>2000-01-01T20:30:35.000Z</time>
      </trkpt>
      <trkpt lat="48.22303" lon="7.27015">
        <ele>526</ele>
        <time>2000-01-01T20:30:45.000Z</time>
      </trkpt>
      <trkpt lat="48.22304" lon="7.27001">
        <ele>528.8</ele>
        <time>2000-01-01T20:30:55.000Z</time>
      </trkpt>
      <trkpt lat="48.22312" lon="7.26994">
        <ele>528</ele>
        <time>2000-01-01T20:31:05.000Z</time>
      </trkpt>
      <trkpt lat="48.22316" lon="7.26998">
        <ele>531</ele>
        <time>2000-01-01T20:31:15.000Z</time>
      </trkpt>
      <trkpt lat="48.22319" lon="7.26999">
        <ele>530.9</ele>
        <time>2000-01-01T20:31:25.000Z</time>
      </trkpt>
      <trkpt lat="48.22321" lon="7.26996">
        <ele>530.8</ele>
        <time>2000-01-01T20:31:35.000Z</time>
      </trkpt>
      <trkpt lat="48.22324" lon="7.26993">
        <ele>530.8</ele>
        <time>2000-01-01T20:31:45.000Z</time>
      </trkpt>
      <trkpt lat="48.22332" lon="7.26985">
        <ele>531</ele>
        <time>2000-01-01T20:31:55.000Z</time>
      </trkpt>
      <trkpt lat="48.22336" lon="7.26979">
        <ele>534.8</ele>
        <time>2000-01-01T20:32:05.000Z</time>
      </trkpt>
      <trkpt lat="48.22344" lon="7.26968">
        <ele>536.1</ele>
        <time>2000-01-01T20:32:15.000Z</time>
      </trkpt>
      <trkpt lat="48.22347" lon="7.26962">
        <ele>533</ele>
        <time>2000-01-01T20:32:25.000Z</time>
      </trkpt>
      <trkpt lat="48.22347" lon="7.26961">
        <ele>536.6</ele>
        <time>2000-01-01T20:32:35.000Z</time>
      </trkpt>
      <trkpt lat="48.22346" lon="7.26961">
        <ele>536.5</ele>
        <time>2000-01-01T20:32:45.000Z</time>
      </trkpt>
      <trkpt lat="48.22346" lon="7.26959">
        <ele>536.5</ele>
        <time>2000-01-01T20:32:55.000Z</time>
      </trkpt>
      <trkpt lat="48.2236" lon="7.26948">
        <ele>535</ele>
        <time>2000-01-01T20:33:05.000Z</time>
      </trkpt>
      <trkpt lat="48.22373" lon="7.26941">
        <ele>538.7</ele>
        <time>2000-01-01T20:33:15.000Z</time>
      </trkpt>
      <trkpt lat="48.22376" lon="7.2694">
        <ele>539</ele>
        <time>2000-01-01T20:33:25.000Z</time>
      </trkpt>
      <trkpt lat="48.22377" lon="7.2694">
        <ele>536</ele>
        <time>2000-01-01T20:33:35.000Z</time>
      </trkpt>
      <trkpt lat="48.22384" lon="7.26937">
        <ele>539.8</ele>
        <time>2000-01-01T20:33:45.000Z</time>
      </trkpt>
      <trkpt lat="48.22399" lon="7.26938">
        <ele>541.2</ele>
        <time>2000-01-01T20:33:55.000Z</time>
      </trkpt>
      <trkpt lat="48.22399" lon="7.26938">
        <ele>541</ele>
        <time>2000-01-01T20:34:05.000Z</time>
      </trkpt>
      <trkpt lat="48.22407" lon="7.2694">
        <ele>541.7</ele>
        <time>2000-01-01T20:34:15.000Z</time>
      </trkpt>
      <trkpt lat="48.22414" lon="7.26945">
        <ele>541.9</ele>
        <time>2000-01-01T20:34:25.000Z</time>
      </trkpt>
      <trkpt lat="48.22425" lon="7.26951">
        <ele>545</ele>
        <time>2000-01-01T20:34:35.000Z</time>
      </trkpt>
      <trkpt lat="48.22427" lon="7.26954">
        <ele>552.9</ele>
        <time>2000-01-01T20:34:45.000Z</time>
      </trkpt>
      <trkpt lat="48.22437" lon="7.26971">
        <ele>554</ele>
        <time>2000-01-01T20:34:55.000Z</time>
      </trkpt>
      <trkpt lat="48.22429" lon="7.26987">
        <ele>546</ele>
        <time>2000-01-01T20:35:05.000Z</time>
      </trkpt>
      <trkpt lat="48.22426" lon="7.26992">
        <ele>551.7</ele>
        <time>2000-01-01T20:35:15.000Z</time>
      </trkpt>
      <trkpt lat="48.22421" lon="7.27003">
        <ele>551.4</ele>
        <time>2000-01-01T20:35:25.000Z</time>
      </trkpt>
      <trkpt lat="48.22418" lon="7.27028">
        <ele>549</ele>
        <time>2000-01-01T20:35:35.000Z</time>
      </trkpt>
      <trkpt lat="48.22416" lon="7.27041">
        <ele>546.1</ele>
        <time>2000-01-01T20:35:45.000Z</time>
      </trkpt>
      <trkpt lat="48.22416" lon="7.27053">
        <ele>547.2</ele>
        <time>2000-01-01T20:35:55.000Z</time>
      </trkpt>
      <trkpt lat="48.22415" lon="7.27063">
        <ele>554</ele>
        <time>2000-01-01T20:36:05.000Z</time>
      </trkpt>
      <trkpt lat="48.22414" lon="7.27074">
        <ele>551.6</ele>
        <time>2000-01-01T20:36:15.000Z</time>
      </trkpt>
      <trkpt lat="48.22414" lon="7.2708">
        <ele>553.8</ele>
        <time>2000-01-01T20:36:25.000Z</time>
      </trkpt>
      <trkpt lat="48.22414" lon="7.27085">
        <ele>555.6</ele>
        <time>2000-01-01T20:36:35.000Z</time>
      </trkpt>
      <trkpt lat="48.22411" lon="7.27096">
        <ele>557</ele>
        <time>2000-01-01T20:36:45.000Z</time>
      </trkpt>
      <trkpt lat="48.22413" lon="7.27104">
        <ele>554.9</ele>
        <time>2000-01-01T20:36:55.000Z</time>
      </trkpt>
      <trkpt lat="48.22414" lon="7.27113">
        <ele>555.4</ele>
        <time>2000-01-01T20:37:05.000Z</time>
      </trkpt>
      <trkpt lat="48.22413" lon="7.27118">
        <ele>555.7</ele>
        <time>2000-01-01T20:37:15.000Z</time>
      </trkpt>
      <trkpt lat="48.2241" lon="7.27127">
        <ele>560</ele>
        <time>2000-01-01T20:37:25.000Z</time>
      </trkpt>
      <trkpt lat="48.2241" lon="7.27128">
        <ele>556.7</ele>
        <time>2000-01-01T20:37:35.000Z</time>
      </trkpt>
      <trkpt lat="48.22406" lon="7.2714">
        <ele>558.4</ele>
        <time>2000-01-01T20:37:45.000Z</time>
      </trkpt>
      <trkpt lat="48.22407" lon="7.27146">
        <ele>559.9</ele>
        <time>2000-01-01T20:37:55.000Z</time>
      </trkpt>
      <trkpt lat="48.22408" lon="7.27148">
        <ele>560.5</ele>
        <time>2000-01-01T20:38:05.000Z</time>
      </trkpt>
      <trkpt lat="48.22415" lon="7.27148">
        <ele>563</ele>
        <time>2000-01-01T20:38:15.000Z</time>
      </trkpt>
      <trkpt lat="48.22421" lon="7.27144">
        <ele>570.5</ele>
        <time>2000-01-01T20:38:25.000Z</time>
      </trkpt>
      <trkpt lat="48.22425" lon="7.2714">
        <ele>570.4</ele>
        <time>2000-01-01T20:38:35.000Z</time>
      </trkpt>
      <trkpt lat="48.22426" lon="7.2714">
        <ele>570.5</ele>
        <time>2000-01-01T20:38:45.000Z</time>
      </trkpt>
      <trkpt lat="48.22428" lon="7.2714">
        <ele>570.6</ele>
        <time>2000-01-01T20:38:55.000Z</time>
      </trkpt>
      <trkpt lat="48.2243" lon="7.27138">
        <ele>570.6</ele>
        <time>2000-01-01T20:39:05.000Z</time>
      </trkpt>
      <trkpt lat="48.22434" lon="7.27134">
        <ele>567</ele>
        <time>2000-01-01T20:39:15.000Z</time>
      </trkpt>
      <trkpt lat="48.22439" lon="7.2713">
        <ele>570.7</ele>
        <time>2000-01-01T20:39:25.000Z</time>
      </trkpt>
      <trkpt lat="48.2244" lon="7.27129">
        <ele>570.7</ele>
        <time>2000-01-01T20:39:35.000Z</time>
      </trkpt>
      <trkpt lat="48.22448" lon="7.27122">
        <ele>570.9</ele>
        <time>2000-01-01T20:39:45.000Z</time>
      </trkpt>
      <trkpt lat="48.22453" lon="7.27119">
        <ele>570</ele>
        <time>2000-01-01T20:39:55.000Z</time>
      </trkpt>
      <trkpt lat="48.22457" lon="7.27114">
        <ele>571.3</ele>
        <time>2000-01-01T20:40:05.000Z</time>
      </trkpt>
      <trkpt lat="48.22463" lon="7.27112">
        <ele>571.9</ele>
        <time>2000-01-01T20:40:15.000Z</time>
      </trkpt>
      <trkpt lat="48.22475" lon="7.27106">
        <ele>572</ele>
        <time>2000-01-01T20:40:25.000Z</time>
      </trkpt>
      <trkpt lat="48.22483" lon="7.27102">
        <ele>573.6</ele>
        <time>2000-01-01T20:40:35.000Z</time>
      </trkpt>
      <trkpt lat="48.22489" lon="7.27095">
        <ele>574.2</ele>
        <time>2000-01-01T20:40:45.000Z</time>
      </trkpt>
      <trkpt lat="48.22499" lon="7.27085">
        <ele>574</ele>
        <time>2000-01-01T20:40:55.000Z</time>
      </trkpt>
      <trkpt lat="48.22509" lon="7.27068">
        <ele>576.8</ele>
        <time>2000-01-01T20:41:05.000Z</time>
      </trkpt>
      <trkpt lat="48.22512" lon="7.27066">
        <ele>576.9</ele>
        <time>2000-01-01T20:41:15.000Z</time>
      </trkpt>
      <trkpt lat="48.22519" lon="7.27063">
        <ele>581</ele>
        <time>2000-01-01T20:41:25.000Z</time>
      </trkpt>
      <trkpt lat="48.22527" lon="7.27063">
        <ele>577.8</ele>
        <time>2000-01-01T20:41:35.000Z</time>
      </trkpt>
      <trkpt lat="48.22539" lon="7.27067">
        <ele>584</ele>
        <time>2000-01-01T20:41:45.000Z</time>
      </trkpt>
      <trkpt lat="48.22552" lon="7.27076">
        <ele>580.3</ele>
        <time>2000-01-01T20:41:55.000Z</time>
      </trkpt>
      <trkpt lat="48.22555" lon="7.27083">
        <ele>587</ele>
        <time>2000-01-01T20:42:05.000Z</time>
      </trkpt>
      <trkpt lat="48.2256" lon="7.27093">
        <ele>585.5</ele>
        <time>2000-01-01T20:42:15.000Z</time>
      </trkpt>
      <trkpt lat="48.22567" lon="7.271">
        <ele>586</ele>
        <time>2000-01-01T20:42:25.000Z</time>
      </trkpt>
      <trkpt lat="48.2258" lon="7.27111">
        <ele>589</ele>
        <time>2000-01-01T20:42:35.000Z</time>
      </trkpt>
      <trkpt lat="48.22597" lon="7.27123">
        <ele>591</ele>
        <time>2000-01-01T20:42:45.000Z</time>
      </trkpt>
      <trkpt lat="48.22606" lon="7.27126">
        <ele>597.2</ele>
        <time>2000-01-01T20:42:55.000Z</time>
      </trkpt>
      <trkpt lat="48.22618" lon="7.27121">
        <ele>594</ele>
        <time>2000-01-01T20:43:05.000Z</time>
      </trkpt>
      <trkpt lat="48.22627" lon="7.27106">
        <ele>599</ele>
        <time>2000-01-01T20:43:15.000Z</time>
      </trkpt>
      <trkpt lat="48.22626" lon="7.27078">
        <ele>594</ele>
        <time>2000-01-01T20:43:25.000Z</time>
      </trkpt>
      <trkpt lat="48.22626" lon="7.27067">
        <ele>597.1</ele>
        <time>2000-01-01T20:43:35.000Z</time>
      </trkpt>
      <trkpt lat="48.22624" lon="7.27052">
        <ele>598</ele>
        <time>2000-01-01T20:43:45.000Z</time>
      </trkpt>
      <trkpt lat="48.22623" lon="7.27047">
        <ele>596.5</ele>
        <time>2000-01-01T20:43:55.000Z</time>
      </trkpt>
      <trkpt lat="48.22624" lon="7.27043">
        <ele>596.6</ele>
        <time>2000-01-01T20:44:05.000Z</time>
      </trkpt>
      <trkpt lat="48.22626" lon="7.2704">
        <ele>596.9</ele>
        <time>2000-01-01T20:44:15.000Z</time>
      </trkpt>
      <trkpt lat="48.22628" lon="7.27041">
        <ele>597.1</ele>
        <time>2000-01-01T20:44:25.000Z</time>
      </trkpt>
      <trkpt lat="48.2263" lon="7.27047">
        <ele>597.5</ele>
        <time>2000-01-01T20:44:35.000Z</time>
      </trkpt>
      <trkpt lat="48.22639" lon="7.27054">
        <ele>600</ele>
        <time>2000-01-01T20:44:45.000Z</time>
      </trkpt>
      <trkpt lat="48.2264" lon="7.27055">
        <ele>599.1</ele>
        <time>2000-01-01T20:44:55.000Z</time>
      </trkpt>
      <trkpt lat="48.22642" lon="7.27055">
        <ele>599.4</ele>
        <time>2000-01-01T20:45:05.000Z</time>
      </trkpt>
      <trkpt lat="48.22644" lon="7.27056">
        <ele>599.7</ele>
        <time>2000-01-01T20:45:15.000Z</time>
      </trkpt>
      <trkpt lat="48.22645" lon="7.27056">
        <ele>599.8</ele>
        <time>2000-01-01T20:45:25.000Z</time>
      </trkpt>
      <trkpt lat="48.22649" lon="7.27063">
        <ele>600.9</ele>
        <time>2000-01-01T20:45:35.000Z</time>
      </trkpt>
      <trkpt lat="48.22651" lon="7.27065">
        <ele>601.5</ele>
        <time>2000-01-01T20:45:45.000Z</time>
      </trkpt>
      <trkpt lat="48.22653" lon="7.27067">
        <ele>602</ele>
        <time>2000-01-01T20:45:55.000Z</time>
      </trkpt>
      <trkpt lat="48.22656" lon="7.27067">
        <ele>606</ele>
        <time>2000-01-01T20:46:05.000Z</time>
      </trkpt>
      <trkpt lat="48.22661" lon="7.27069">
        <ele>603.6</ele>
        <time>2000-01-01T20:46:15.000Z</time>
      </trkpt>
      <trkpt lat="48.22666" lon="7.27071">
        <ele>604.5</ele>
        <time>2000-01-01T20:46:25.000Z</time>
      </trkpt>
      <trkpt lat="48.22669" lon="7.27075">
        <ele>611.6</ele>
        <time>2000-01-01T20:46:35.000Z</time>
      </trkpt>
      <trkpt lat="48.22672" lon="7.27077">
        <ele>613</ele>
        <time>2000-01-01T20:46:45.000Z</time>
      </trkpt>
      <trkpt lat="48.22675" lon="7.27079">
        <ele>612</ele>
        <time>2000-01-01T20:46:55.000Z</time>
      </trkpt>
      <trkpt lat="48.22679" lon="7.2708">
        <ele>612.9</ele>
        <time>2000-01-01T20:47:05.000Z</time>
      </trkpt>
      <trkpt lat="48.22679" lon="7.2708">
        <ele>612.9</ele>
        <time>2000-01-01T20:47:15.000Z</time>
      </trkpt>
      <trkpt lat="48.22683" lon="7.27081">
        <ele>613.8</ele>
        <time>2000-01-01T20:47:25.000Z</time>
      </trkpt>
      <trkpt lat="48.22685" lon="7.27083">
        <ele>614.2</ele>
        <time>2000-01-01T20:47:35.000Z</time>
      </trkpt>
      <trkpt lat="48.22688" lon="7.27086">
        <ele>615.3</ele>
        <time>2000-01-01T20:47:45.000Z</time>
      </trkpt>
      <trkpt lat="48.22695" lon="7.27094">
        <ele>618</ele>
        <time>2000-01-01T20:47:55.000Z</time>
      </trkpt>
      <trkpt lat="48.22701" lon="7.27102">
        <ele>618.2</ele>
        <time>2000-01-01T20:48:05.000Z</time>
      </trkpt>
      <trkpt lat="48.22708" lon="7.2711">
        <ele>619.3</ele>
        <time>2000-01-01T20:48:15.000Z</time>
      </trkpt>
      <trkpt lat="48.22711" lon="7.27116">
        <ele>622</ele>
        <time>2000-01-01T20:48:25.000Z</time>
      </trkpt>
      <trkpt lat="48.22717" lon="7.27125">
        <ele>620.5</ele>
        <time>2000-01-01T20:48:35.000Z</time>
      </trkpt>
      <trkpt lat="48.22723" lon="7.27136">
        <ele>625</ele>
        <time>2000-01-01T20:48:45.000Z</time>
      </trkpt>
      <trkpt lat="48.22724" lon="7.27139">
        <ele>621.6</ele>
        <time>2000-01-01T20:48:55.000Z</time>
      </trkpt>
      <trkpt lat="48.22725" lon="7.27139">
        <ele>621.7</ele>
        <time>2000-01-01T20:49:05.000Z</time>
      </trkpt>
      <trkpt lat="48.22728" lon="7.27142">
        <ele>622.3</ele>
        <time>2000-01-01T20:49:15.000Z</time>
      </trkpt>
      <trkpt lat="48.2273" lon="7.27143">
        <ele>622.6</ele>
        <time>2000-01-01T20:49:25.000Z</time>
      </trkpt>
      <trkpt lat="48.22736" lon="7.27147">
        <ele>623.9</ele>
        <time>2000-01-01T20:49:35.000Z</time>
      </trkpt>
      <trkpt lat="48.22737" lon="7.27148">
        <ele>624.1</ele>
        <time>2000-01-01T20:49:45.000Z</time>
      </trkpt>
      <trkpt lat="48.22742" lon="7.27149">
        <ele>630</ele>
        <time>2000-01-01T20:49:55.000Z</time>
      </trkpt>
      <trkpt lat="48.22748" lon="7.27152">
        <ele>626.1</ele>
        <time>2000-01-01T20:50:05.000Z</time>
      </trkpt>
      <trkpt lat="48.22756" lon="7.27152">
        <ele>639.3</ele>
        <time>2000-01-01T20:50:15.000Z</time>
      </trkpt>
      <trkpt lat="48.22761" lon="7.2715">
        <ele>636</ele>
        <time>2000-01-01T20:50:25.000Z</time>
      </trkpt>
      <trkpt lat="48.22765" lon="7.2715">
        <ele>641.9</ele>
        <time>2000-01-01T20:50:35.000Z</time>
      </trkpt>
      <trkpt lat="48.22769" lon="7.27151">
        <ele>642.9</ele>
        <time>2000-01-01T20:50:45.000Z</time>
      </trkpt>
      <trkpt lat="48.22773" lon="7.27152">
        <ele>644</ele>
        <time>2000-01-01T20:50:55.000Z</time>
      </trkpt>
      <trkpt lat="48.22776" lon="7.27154">
        <ele>644.8</ele>
        <time>2000-01-01T20:51:05.000Z</time>
      </trkpt>
      <trkpt lat="48.22777" lon="7.27155">
        <ele>645</ele>
        <time>2000-01-01T20:51:15.000Z</time>
      </trkpt>
      <trkpt lat="48.22777" lon="7.27156">
        <ele>645</ele>
        <time>2000-01-01T20:51:25.000Z</time>
      </trkpt>
      <trkpt lat="48.22781" lon="7.27158">
        <ele>644</ele>
        <time>2000-01-01T20:51:35.000Z</time>
      </trkpt>
      <trkpt lat="48.22786" lon="7.27159">
        <ele>647.9</ele>
        <time>2000-01-01T20:51:45.000Z</time>
      </trkpt>
      <trkpt lat="48.22787" lon="7.27159">
        <ele>648.3</ele>
        <time>2000-01-01T20:51:55.000Z</time>
      </trkpt>
      <trkpt lat="48.22789" lon="7.27159">
        <ele>648.9</ele>
        <time>2000-01-01T20:52:05.000Z</time>
      </trkpt>
      <trkpt lat="48.2279" lon="7.27159">
        <ele>649.3</ele>
        <time>2000-01-01T20:52:15.000Z</time>
      </trkpt>
      <trkpt lat="48.22793" lon="7.27159">
        <ele>650.3</ele>
        <time>2000-01-01T20:52:25.000Z</time>
      </trkpt>
      <trkpt lat="48.22794" lon="7.27159">
        <ele>650.6</ele>
        <time>2000-01-01T20:52:35.000Z</time>
      </trkpt>
      <trkpt lat="48.22795" lon="7.27159">
        <ele>651</ele>
        <time>2000-01-01T20:52:45.000Z</time>
      </trkpt>
      <trkpt lat="48.22796" lon="7.2716">
        <ele>651.4</ele>
        <time>2000-01-01T20:52:55.000Z</time>
      </trkpt>
      <trkpt lat="48.22798" lon="7.2716">
        <ele>652.1</ele>
        <time>2000-01-01T20:53:05.000Z</time>
      </trkpt>
      <trkpt lat="48.22801" lon="7.27162">
        <ele>650</ele>
        <time>2000-01-01T20:53:15.000Z</time>
      </trkpt>
      <trkpt lat="48.22805" lon="7.2716">
        <ele>654.6</ele>
        <time>2000-01-01T20:53:25.000Z</time>
      </trkpt>
      <trkpt lat="48.22807" lon="7.27159">
        <ele>655.3</ele>
        <time>2000-01-01T20:53:35.000Z</time>
      </trkpt>
      <trkpt lat="48.22808" lon="7.2716">
        <ele>655.8</ele>
        <time>2000-01-01T20:53:45.000Z</time>
      </trkpt>
      <trkpt lat="48.22809" lon="7.2716">
        <ele>656.2</ele>
        <time>2000-01-01T20:53:55.000Z</time>
      </trkpt>
      <trkpt lat="48.2281" lon="7.27159">
        <ele>656.5</ele>
        <time>2000-01-01T20:54:05.000Z</time>
      </trkpt>
      <trkpt lat="48.2281" lon="7.27159">
        <ele>656.5</ele>
        <time>2000-01-01T20:54:15.000Z</time>
      </trkpt>
      <trkpt lat="48.22809" lon="7.27161">
        <ele>656.3</ele>
        <time>2000-01-01T20:54:25.000Z</time>
      </trkpt>
      <trkpt lat="48.22811" lon="7.2716">
        <ele>657</ele>
        <time>2000-01-01T20:54:35.000Z</time>
      </trkpt>
      <trkpt lat="48.22813" lon="7.27159">
        <ele>657.7</ele>
        <time>2000-01-01T20:54:45.000Z</time>
      </trkpt>
      <trkpt lat="48.22822" lon="7.27151">
        <ele>658</ele>
        <time>2000-01-01T20:54:55.000Z</time>
      </trkpt>
      <trkpt lat="48.22827" lon="7.27143">
        <ele>658.2</ele>
        <time>2000-01-01T20:55:05.000Z</time>
      </trkpt>
      <trkpt lat="48.22829" lon="7.27138">
        <ele>657.4</ele>
        <time>2000-01-01T20:55:15.000Z</time>
      </trkpt>
      <trkpt lat="48.22835" lon="7.27137">
        <ele>678.2</ele>
        <time>2000-01-01T20:55:25.000Z</time>
      </trkpt>
      <trkpt lat="48.22839" lon="7.27134">
        <ele>660</ele>
        <time>2000-01-01T20:55:35.000Z</time>
      </trkpt>
      <trkpt lat="48.22841" lon="7.27133">
        <ele>678.9</ele>
        <time>2000-01-01T20:55:45.000Z</time>
      </trkpt>
      <trkpt lat="48.22842" lon="7.27133">
        <ele>679</ele>
        <time>2000-01-01T20:55:55.000Z</time>
      </trkpt>
      <trkpt lat="48.22843" lon="7.27133">
        <ele>679.1</ele>
        <time>2000-01-01T20:56:05.000Z</time>
      </trkpt>
      <trkpt lat="48.22844" lon="7.27129">
        <ele>679.2</ele>
        <time>2000-01-01T20:56:15.000Z</time>
      </trkpt>
      <trkpt lat="48.22845" lon="7.27129">
        <ele>679.3</ele>
        <time>2000-01-01T20:56:25.000Z</time>
      </trkpt>
      <trkpt lat="48.22845" lon="7.27129">
        <ele>679.3</ele>
        <time>2000-01-01T20:56:35.000Z</time>
      </trkpt>
      <trkpt lat="48.22847" lon="7.27132">
        <ele>679.6</ele>
        <time>2000-01-01T20:56:45.000Z</time>
      </trkpt>
      <trkpt lat="48.22849" lon="7.2714">
        <ele>679.8</ele>
        <time>2000-01-01T20:56:55.000Z</time>
      </trkpt>
      <trkpt lat="48.22852" lon="7.27146">
        <ele>668</ele>
        <time>2000-01-01T20:57:05.000Z</time>
      </trkpt>
      <trkpt lat="48.22853" lon="7.27149">
        <ele>680</ele>
        <time>2000-01-01T20:57:15.000Z</time>
      </trkpt>
      <trkpt lat="48.22859" lon="7.27163">
        <ele>680.9</ele>
        <time>2000-01-01T20:57:25.000Z</time>
      </trkpt>
      <trkpt lat="48.22861" lon="7.27168">
        <ele>680.9</ele>
        <time>2000-01-01T20:57:35.000Z</time>
      </trkpt>
      <trkpt lat="48.22865" lon="7.27174">
        <ele>673</ele>
        <time>2000-01-01T20:57:45.000Z</time>
      </trkpt>
      <trkpt lat="48.22868" lon="7.2718">
        <ele>682.8</ele>
        <time>2000-01-01T20:57:55.000Z</time>
      </trkpt>
      <trkpt lat="48.22871" lon="7.27186">
        <ele>683.5</ele>
        <time>2000-01-01T20:58:05.000Z</time>
      </trkpt>
      <trkpt lat="48.22877" lon="7.27197">
        <ele>679</ele>
        <time>2000-01-01T20:58:15.000Z</time>
      </trkpt>
      <trkpt lat="48.22881" lon="7.27208">
        <ele>684.7</ele>
        <time>2000-01-01T20:58:25.000Z</time>
      </trkpt>
      <trkpt lat="48.22882" lon="7.2721">
        <ele>684.8</ele>
        <time>2000-01-01T20:58:35.000Z</time>
      </trkpt>
      <trkpt lat="48.22895" lon="7.27226">
        <ele>684</ele>
        <time>2000-01-01T20:58:45.000Z</time>
      </trkpt>
      <trkpt lat="48.22896" lon="7.27228">
        <ele>687.5</ele>
        <time>2000-01-01T20:58:55.000Z</time>
      </trkpt>
      <trkpt lat="48.22903" lon="7.27234">
        <ele>689.4</ele>
        <time>2000-01-01T20:59:05.000Z</time>
      </trkpt>
      <trkpt lat="48.22908" lon="7.27239">
        <ele>691.3</ele>
        <time>2000-01-01T20:59:15.000Z</time>
      </trkpt>
      <trkpt lat="48.22911" lon="7.27242">
        <ele>689</ele>
        <time>2000-01-01T20:59:25.000Z</time>
      </trkpt>
      <trkpt lat="48.2292" lon="7.27252">
        <ele>697.3</ele>
        <time>2000-01-01T20:59:35.000Z</time>
      </trkpt>
      <trkpt lat="48.22927" lon="7.27256">
        <ele>692</ele>
        <time>2000-01-01T20:59:45.000Z</time>
      </trkpt>
      <trkpt lat="48.22932" lon="7.2726">
        <ele>698.2</ele>
        <time>2000-01-01T20:59:55.000Z</time>
      </trkpt>
      <trkpt lat="48.22934" lon="7.27262">
        <ele>698.4</ele>
        <time>2000-01-01T21:00:05.000Z</time>
      </trkpt>
      <trkpt lat="48.22944" lon="7.27266">
        <ele>697</ele>
        <time>2000-01-01T21:00:15.000Z</time>
      </trkpt>
      <trkpt lat="48.22954" lon="7.27268">
        <ele>699.7</ele>
        <time>2000-01-01T21:00:25.000Z</time>
      </trkpt>
      <trkpt lat="48.22959" lon="7.27269">
        <ele>700.1</ele>
        <time>2000-01-01T21:00:35.000Z</time>
      </trkpt>
      <trkpt lat="48.2296" lon="7.27268">
        <ele>700.2</ele>
        <time>2000-01-01T21:00:45.000Z</time>
      </trkpt>
      <trkpt lat="48.22963" lon="7.27265">
        <ele>700</ele>
        <time>2000-01-01T21:00:55.000Z</time>
      </trkpt>
      <trkpt lat="48.22967" lon="7.27256">
        <ele>701</ele>
        <time>2000-01-01T21:01:05.000Z</time>
      </trkpt>
      <trkpt lat="48.22969" lon="7.27251">
        <ele>701.3</ele>
        <time>2000-01-01T21:01:15.000Z</time>
      </trkpt>
      <trkpt lat="48.22971" lon="7.27246">
        <ele>704.9</ele>
        <time>2000-01-01T21:01:25.000Z</time>
      </trkpt>
      <trkpt lat="48.22971" lon="7.27242">
        <ele>705</ele>
        <time>2000-01-01T21:01:35.000Z</time>
      </trkpt>
      <trkpt lat="48.2297" lon="7.27242">
        <ele>705</ele>
        <time>2000-01-01T21:01:45.000Z</time>
      </trkpt>
      <trkpt lat="48.22993" lon="7.27234">
        <ele>702</ele>
        <time>2000-01-01T21:01:55.000Z</time>
      </trkpt>
      <trkpt lat="48.22999" lon="7.27237">
        <ele>706</ele>
        <time>2000-01-01T21:02:05.000Z</time>
      </trkpt>
      <trkpt lat="48.23002" lon="7.27238">
        <ele>709.6</ele>
        <time>2000-01-01T21:02:15.000Z</time>
      </trkpt>
      <trkpt lat="48.23016" lon="7.27237">
        <ele>702</ele>
        <time>2000-01-01T21:02:25.000Z</time>
      </trkpt>
      <trkpt lat="48.23023" lon="7.27243">
        <ele>711.8</ele>
        <time>2000-01-01T21:02:35.000Z</time>
      </trkpt>
      <trkpt lat="48.23027" lon="7.2725">
        <ele>712.1</ele>
        <time>2000-01-01T21:02:45.000Z</time>
      </trkpt>
      <trkpt lat="48.23031" lon="7.27256">
        <ele>704</ele>
        <time>2000-01-01T21:02:55.000Z</time>
      </trkpt>
      <trkpt lat="48.23042" lon="7.2727">
        <ele>711.7</ele>
        <time>2000-01-01T21:03:05.000Z</time>
      </trkpt>
      <trkpt lat="48.23044" lon="7.27274">
        <ele>711.9</ele>
        <time>2000-01-01T21:03:15.000Z</time>
      </trkpt>
      <trkpt lat="48.23046" lon="7.27276">
        <ele>705</ele>
        <time>2000-01-01T21:03:25.000Z</time>
      </trkpt>
      <trkpt lat="48.23053" lon="7.27297">
        <ele>713</ele>
        <time>2000-01-01T21:03:35.000Z</time>
      </trkpt>
      <trkpt lat="48.23053" lon="7.27299">
        <ele>713</ele>
        <time>2000-01-01T21:03:45.000Z</time>
      </trkpt>
      <trkpt lat="48.23058" lon="7.27327">
        <ele>707</ele>
        <time>2000-01-01T21:03:55.000Z</time>
      </trkpt>
      <trkpt lat="48.23055" lon="7.27339">
        <ele>719</ele>
        <time>2000-01-01T21:04:05.000Z</time>
      </trkpt>
      <trkpt lat="48.23055" lon="7.27354">
        <ele>707</ele>
        <time>2000-01-01T21:04:15.000Z</time>
      </trkpt>
      <trkpt lat="48.23051" lon="7.27365">
        <ele>719.7</ele>
        <time>2000-01-01T21:04:25.000Z</time>
      </trkpt>
      <trkpt lat="48.2305" lon="7.27372">
        <ele>720.2</ele>
        <time>2000-01-01T21:04:35.000Z</time>
      </trkpt>
      <trkpt lat="48.23047" lon="7.27389">
        <ele>707</ele>
        <time>2000-01-01T21:04:45.000Z</time>
      </trkpt>
      <trkpt lat="48.23043" lon="7.27405">
        <ele>721.6</ele>
        <time>2000-01-01T21:04:55.000Z</time>
      </trkpt>
      <trkpt lat="48.23036" lon="7.27418">
        <ele>710</ele>
        <time>2000-01-01T21:05:05.000Z</time>
      </trkpt>
      <trkpt lat="48.23034" lon="7.27422">
        <ele>730</ele>
        <time>2000-01-01T21:05:15.000Z</time>
      </trkpt>
      <trkpt lat="48.23024" lon="7.27437">
        <ele>729.6</ele>
        <time>2000-01-01T21:05:25.000Z</time>
      </trkpt>
      <trkpt lat="48.23015" lon="7.27448">
        <ele>713</ele>
        <time>2000-01-01T21:05:35.000Z</time>
      </trkpt>
      <trkpt lat="48.23013" lon="7.27452">
        <ele>730.7</ele>
        <time>2000-01-01T21:05:45.000Z</time>
      </trkpt>
      <trkpt lat="48.23002" lon="7.27462">
        <ele>731.7</ele>
        <time>2000-01-01T21:05:55.000Z</time>
      </trkpt>
      <trkpt lat="48.22991" lon="7.2747">
        <ele>715</ele>
        <time>2000-01-01T21:06:05.000Z</time>
      </trkpt>
      <trkpt lat="48.22988" lon="7.27473">
        <ele>724.3</ele>
        <time>2000-01-01T21:06:15.000Z</time>
      </trkpt>
      <trkpt lat="48.22972" lon="7.27483">
        <ele>716</ele>
        <time>2000-01-01T21:06:25.000Z</time>
      </trkpt>
      <trkpt lat="48.22966" lon="7.27489">
        <ele>724.3</ele>
        <time>2000-01-01T21:06:35.000Z</time>
      </trkpt>
      <trkpt lat="48.22961" lon="7.2749">
        <ele>723.9</ele>
        <time>2000-01-01T21:06:45.000Z</time>
      </trkpt>
      <trkpt lat="48.22953" lon="7.27496">
        <ele>717</ele>
        <time>2000-01-01T21:06:55.000Z</time>
      </trkpt>
      <trkpt lat="48.22949" lon="7.275">
        <ele>737.2</ele>
        <time>2000-01-01T21:07:05.000Z</time>
      </trkpt>
      <trkpt lat="48.22948" lon="7.27501">
        <ele>737.1</ele>
        <time>2000-01-01T21:07:15.000Z</time>
      </trkpt>
      <trkpt lat="48.2294" lon="7.27505">
        <ele>736.1</ele>
        <time>2000-01-01T21:07:25.000Z</time>
      </trkpt>
      <trkpt lat="48.22934" lon="7.27509">
        <ele>717</ele>
        <time>2000-01-01T21:07:35.000Z</time>
      </trkpt>
      <trkpt lat="48.22925" lon="7.27517">
        <ele>735.5</ele>
        <time>2000-01-01T21:07:45.000Z</time>
      </trkpt>
      <trkpt lat="48.2292" lon="7.27522">
        <ele>736.5</ele>
        <time>2000-01-01T21:07:55.000Z</time>
      </trkpt>
      <trkpt lat="48.22904" lon="7.2753">
        <ele>720</ele>
        <time>2000-01-01T21:08:05.000Z</time>
      </trkpt>
      <trkpt lat="48.2289" lon="7.27543">
        <ele>735.7</ele>
        <time>2000-01-01T21:08:15.000Z</time>
      </trkpt>
      <trkpt lat="48.22884" lon="7.2755">
        <ele>724</ele>
        <time>2000-01-01T21:08:25.000Z</time>
      </trkpt>
      <trkpt lat="48.22877" lon="7.27556">
        <ele>737</ele>
        <time>2000-01-01T21:08:35.000Z</time>
      </trkpt>
      <trkpt lat="48.2287" lon="7.27563">
        <ele>737.6</ele>
        <time>2000-01-01T21:08:45.000Z</time>
      </trkpt>
      <trkpt lat="48.22864" lon="7.27571">
        <ele>727</ele>
        <time>2000-01-01T21:08:55.000Z</time>
      </trkpt>
      <trkpt lat="48.22859" lon="7.27576">
        <ele>738.9</ele>
        <time>2000-01-01T21:09:05.000Z</time>
      </trkpt>
      <trkpt lat="48.22842" lon="7.27583">
        <ele>730</ele>
        <time>2000-01-01T21:09:15.000Z</time>
      </trkpt>
      <trkpt lat="48.22841" lon="7.27585">
        <ele>748.7</ele>
        <time>2000-01-01T21:09:25.000Z</time>
      </trkpt>
      <trkpt lat="48.2283" lon="7.2759">
        <ele>746.7</ele>
        <time>2000-01-01T21:09:35.000Z</time>
      </trkpt>
      <trkpt lat="48.22825" lon="7.27591">
        <ele>730</ele>
        <time>2000-01-01T21:09:45.000Z</time>
      </trkpt>
      <trkpt lat="48.22819" lon="7.27593">
        <ele>748.9</ele>
        <time>2000-01-01T21:09:55.000Z</time>
      </trkpt>
      <trkpt lat="48.228" lon="7.27596">
        <ele>727</ele>
        <time>2000-01-01T21:10:05.000Z</time>
      </trkpt>
      <trkpt lat="48.2279" lon="7.27597">
        <ele>749.7</ele>
        <time>2000-01-01T21:10:15.000Z</time>
      </trkpt>
      <trkpt lat="48.22779" lon="7.276">
        <ele>727</ele>
        <time>2000-01-01T21:10:25.000Z</time>
      </trkpt>
      <trkpt lat="48.22766" lon="7.27605">
        <ele>748</ele>
        <time>2000-01-01T21:10:35.000Z</time>
      </trkpt>
      <trkpt lat="48.22761" lon="7.27609">
        <ele>727</ele>
        <time>2000-01-01T21:10:45.000Z</time>
      </trkpt>
      <trkpt lat="48.22757" lon="7.27613">
        <ele>749.3</ele>
        <time>2000-01-01T21:10:55.000Z</time>
      </trkpt>
      <trkpt lat="48.22753" lon="7.27619">
        <ele>750.9</ele>
        <time>2000-01-01T21:11:05.000Z</time>
      </trkpt>
      <trkpt lat="48.22751" lon="7.27623">
        <ele>751.9</ele>
        <time>2000-01-01T21:11:15.000Z</time>
      </trkpt>
      <trkpt lat="48.22751" lon="7.27624">
        <ele>752.2</ele>
        <time>2000-01-01T21:11:25.000Z</time>
      </trkpt>
      <trkpt lat="48.22745" lon="7.27628">
        <ele>729</ele>
        <time>2000-01-01T21:11:35.000Z</time>
      </trkpt>
      <trkpt lat="48.22742" lon="7.2763">
        <ele>749.3</ele>
        <time>2000-01-01T21:11:45.000Z</time>
      </trkpt>
      <trkpt lat="48.22733" lon="7.27634">
        <ele>749.9</ele>
        <time>2000-01-01T21:11:55.000Z</time>
      </trkpt>
      <trkpt lat="48.22727" lon="7.27635">
        <ele>733</ele>
        <time>2000-01-01T21:12:05.000Z</time>
      </trkpt>
      <trkpt lat="48.22725" lon="7.27637">
        <ele>750.1</ele>
        <time>2000-01-01T21:12:15.000Z</time>
      </trkpt>
      <trkpt lat="48.2271" lon="7.27641">
        <ele>735</ele>
        <time>2000-01-01T21:12:25.000Z</time>
      </trkpt>
      <trkpt lat="48.22705" lon="7.27642">
        <ele>750.1</ele>
        <time>2000-01-01T21:12:35.000Z</time>
      </trkpt>
      <trkpt lat="48.22703" lon="7.27642">
        <ele>750</ele>
        <time>2000-01-01T21:12:45.000Z</time>
      </trkpt>
      <trkpt lat="48.22701" lon="7.27641">
        <ele>749.9</ele>
        <time>2000-01-01T21:12:55.000Z</time>
      </trkpt>
      <trkpt lat="48.22694" lon="7.27643">
        <ele>750.3</ele>
        <time>2000-01-01T21:13:05.000Z</time>
      </trkpt>
      <trkpt lat="48.22691" lon="7.27644">
        <ele>736</ele>
        <time>2000-01-01T21:13:15.000Z</time>
      </trkpt>
      <trkpt lat="48.22687" lon="7.27645">
        <ele>750.9</ele>
        <time>2000-01-01T21:13:25.000Z</time>
      </trkpt>
      <trkpt lat="48.22686" lon="7.27645">
        <ele>751</ele>
        <time>2000-01-01T21:13:35.000Z</time>
      </trkpt>
      <trkpt lat="48.22674" lon="7.27648">
        <ele>752.5</ele>
        <time>2000-01-01T21:13:45.000Z</time>
      </trkpt>
      <trkpt lat="48.22669" lon="7.2765">
        <ele>741</ele>
        <time>2000-01-01T21:13:55.000Z</time>
      </trkpt>
      <trkpt lat="48.22663" lon="7.27653">
        <ele>754.3</ele>
        <time>2000-01-01T21:14:05.000Z</time>
      </trkpt>
      <trkpt lat="48.22654" lon="7.27655">
        <ele>753.8</ele>
        <time>2000-01-01T21:14:15.000Z</time>
      </trkpt>
      <trkpt lat="48.22652" lon="7.27653">
        <ele>753.1</ele>
        <time>2000-01-01T21:14:25.000Z</time>
      </trkpt>
      <trkpt lat="48.22648" lon="7.27655">
        <ele>742</ele>
        <time>2000-01-01T21:14:35.000Z</time>
      </trkpt>
      <trkpt lat="48.22645" lon="7.27654">
        <ele>752.5</ele>
        <time>2000-01-01T21:14:45.000Z</time>
      </trkpt>
      <trkpt lat="48.22644" lon="7.27655">
        <ele>752.6</ele>
        <time>2000-01-01T21:14:55.000Z</time>
      </trkpt>
      <trkpt lat="48.22641" lon="7.27654">
        <ele>752.2</ele>
        <time>2000-01-01T21:15:05.000Z</time>
      </trkpt>
      <trkpt lat="48.22634" lon="7.27657">
        <ele>752.2</ele>
        <time>2000-01-01T21:15:15.000Z</time>
      </trkpt>
      <trkpt lat="48.22629" lon="7.27659">
        <ele>743</ele>
        <time>2000-01-01T21:15:25.000Z</time>
      </trkpt>
      <trkpt lat="48.22627" lon="7.27661">
        <ele>752.6</ele>
        <time>2000-01-01T21:15:35.000Z</time>
      </trkpt>
      <trkpt lat="48.22615" lon="7.2766">
        <ele>753.3</ele>
        <time>2000-01-01T21:15:45.000Z</time>
      </trkpt>
      <trkpt lat="48.22601" lon="7.27657">
        <ele>745</ele>
        <time>2000-01-01T21:15:55.000Z</time>
      </trkpt>
      <trkpt lat="48.22594" lon="7.27659">
        <ele>757.4</ele>
        <time>2000-01-01T21:16:05.000Z</time>
      </trkpt>
      <trkpt lat="48.2259" lon="7.2766">
        <ele>758.8</ele>
        <time>2000-01-01T21:16:15.000Z</time>
      </trkpt>
      <trkpt lat="48.22572" lon="7.27657">
        <ele>745</ele>
        <time>2000-01-01T21:16:25.000Z</time>
      </trkpt>
      <trkpt lat="48.22566" lon="7.27654">
        <ele>754.6</ele>
        <time>2000-01-01T21:16:35.000Z</time>
      </trkpt>
      <trkpt lat="48.22558" lon="7.27655">
        <ele>753.4</ele>
        <time>2000-01-01T21:16:45.000Z</time>
      </trkpt>
      <trkpt lat="48.22546" lon="7.27661">
        <ele>746</ele>
        <time>2000-01-01T21:16:55.000Z</time>
      </trkpt>
      <trkpt lat="48.22528" lon="7.27661">
        <ele>746</ele>
        <time>2000-01-01T21:17:05.000Z</time>
      </trkpt>
      <trkpt lat="48.22509" lon="7.27663">
        <ele>746</ele>
        <time>2000-01-01T21:17:15.000Z</time>
      </trkpt>
      <trkpt lat="48.22502" lon="7.27667">
        <ele>759.4</ele>
        <time>2000-01-01T21:17:25.000Z</time>
      </trkpt>
      <trkpt lat="48.22485" lon="7.27678">
        <ele>745</ele>
        <time>2000-01-01T21:17:35.000Z</time>
      </trkpt>
      <trkpt lat="48.22471" lon="7.27682">
        <ele>758.9</ele>
        <time>2000-01-01T21:17:45.000Z</time>
      </trkpt>
      <trkpt lat="48.22463" lon="7.27687">
        <ele>741</ele>
        <time>2000-01-01T21:17:55.000Z</time>
      </trkpt>
      <trkpt lat="48.2245" lon="7.27698">
        <ele>758</ele>
        <time>2000-01-01T21:18:05.000Z</time>
      </trkpt>
      <trkpt lat="48.22448" lon="7.27699">
        <ele>757.9</ele>
        <time>2000-01-01T21:18:15.000Z</time>
      </trkpt>
      <trkpt lat="48.22428" lon="7.27713">
        <ele>741</ele>
        <time>2000-01-01T21:18:25.000Z</time>
      </trkpt>
      <trkpt lat="48.22409" lon="7.27736">
        <ele>739</ele>
        <time>2000-01-01T21:18:35.000Z</time>
      </trkpt>
      <trkpt lat="48.22394" lon="7.27756">
        <ele>738</ele>
        <time>2000-01-01T21:18:45.000Z</time>
      </trkpt>
      <trkpt lat="48.22378" lon="7.27772">
        <ele>736</ele>
        <time>2000-01-01T21:18:55.000Z</time>
      </trkpt>
      <trkpt lat="48.22364" lon="7.27789">
        <ele>747.4</ele>
        <time>2000-01-01T21:19:05.000Z</time>
      </trkpt>
      <trkpt lat="48.22355" lon="7.27801">
        <ele>734</ele>
        <time>2000-01-01T21:19:15.000Z</time>
      </trkpt>
      <trkpt lat="48.22342" lon="7.27823">
        <ele>732</ele>
        <time>2000-01-01T21:19:25.000Z</time>
      </trkpt>
      <trkpt lat="48.2234" lon="7.2785">
        <ele>733</ele>
        <time>2000-01-01T21:19:35.000Z</time>
      </trkpt>
      <trkpt lat="48.22344" lon="7.27883">
        <ele>734</ele>
        <time>2000-01-01T21:19:45.000Z</time>
      </trkpt>
      <trkpt lat="48.2235" lon="7.27911">
        <ele>736</ele>
        <time>2000-01-01T21:19:55.000Z</time>
      </trkpt>
      <trkpt lat="48.22354" lon="7.2794">
        <ele>735</ele>
        <time>2000-01-01T21:20:05.000Z</time>
      </trkpt>
      <trkpt lat="48.22354" lon="7.2796">
        <ele>760.1</ele>
        <time>2000-01-01T21:20:15.000Z</time>
      </trkpt>
      <trkpt lat="48.22355" lon="7.2799">
        <ele>735</ele>
        <time>2000-01-01T21:20:25.000Z</time>
      </trkpt>
      <trkpt lat="48.22362" lon="7.2802">
        <ele>740</ele>
        <time>2000-01-01T21:20:35.000Z</time>
      </trkpt>
      <trkpt lat="48.2237" lon="7.28046">
        <ele>740</ele>
        <time>2000-01-01T21:20:45.000Z</time>
      </trkpt>
      <trkpt lat="48.22377" lon="7.28072">
        <ele>738</ele>
        <time>2000-01-01T21:20:55.000Z</time>
      </trkpt>
      <trkpt lat="48.22379" lon="7.28091">
        <ele>750</ele>
        <time>2000-01-01T21:21:05.000Z</time>
      </trkpt>
      <trkpt lat="48.22384" lon="7.28118">
        <ele>737</ele>
        <time>2000-01-01T21:21:15.000Z</time>
      </trkpt>
      <trkpt lat="48.2239" lon="7.28149">
        <ele>736</ele>
        <time>2000-01-01T21:21:25.000Z</time>
      </trkpt>
      <trkpt lat="48.22396" lon="7.28176">
        <ele>735</ele>
        <time>2000-01-01T21:21:35.000Z</time>
      </trkpt>
      <trkpt lat="48.22401" lon="7.28187">
        <ele>746.6</ele>
        <time>2000-01-01T21:21:45.000Z</time>
      </trkpt>
      <trkpt lat="48.22411" lon="7.28212">
        <ele>732</ele>
        <time>2000-01-01T21:21:55.000Z</time>
      </trkpt>
      <trkpt lat="48.22413" lon="7.2824">
        <ele>727</ele>
        <time>2000-01-01T21:22:05.000Z</time>
      </trkpt>
      <trkpt lat="48.22406" lon="7.28269">
        <ele>721</ele>
        <time>2000-01-01T21:22:15.000Z</time>
      </trkpt>
      <trkpt lat="48.22402" lon="7.28294">
        <ele>736</ele>
        <time>2000-01-01T21:22:25.000Z</time>
      </trkpt>
      <trkpt lat="48.22396" lon="7.28319">
        <ele>721</ele>
        <time>2000-01-01T21:22:35.000Z</time>
      </trkpt>
      <trkpt lat="48.22391" lon="7.28348">
        <ele>721</ele>
        <time>2000-01-01T21:22:45.000Z</time>
      </trkpt>
      <trkpt lat="48.22378" lon="7.28369">
        <ele>712</ele>
        <time>2000-01-01T21:22:55.000Z</time>
      </trkpt>
      <trkpt lat="48.22364" lon="7.28389">
        <ele>709</ele>
        <time>2000-01-01T21:23:05.000Z</time>
      </trkpt>
      <trkpt lat="48.2235" lon="7.28416">
        <ele>709</ele>
        <time>2000-01-01T21:23:15.000Z</time>
      </trkpt>
      <trkpt lat="48.22346" lon="7.28446">
        <ele>713</ele>
        <time>2000-01-01T21:23:25.000Z</time>
      </trkpt>
      <trkpt lat="48.22337" lon="7.28472">
        <ele>718</ele>
        <time>2000-01-01T21:23:35.000Z</time>
      </trkpt>
      <trkpt lat="48.22332" lon="7.28503">
        <ele>727</ele>
        <time>2000-01-01T21:23:45.000Z</time>
      </trkpt>
      <trkpt lat="48.22332" lon="7.28518">
        <ele>740.6</ele>
        <time>2000-01-01T21:23:55.000Z</time>
      </trkpt>
      <trkpt lat="48.22315" lon="7.28542">
        <ele>734</ele>
        <time>2000-01-01T21:24:05.000Z</time>
      </trkpt>
      <trkpt lat="48.223" lon="7.2856">
        <ele>734</ele>
        <time>2000-01-01T21:24:15.000Z</time>
      </trkpt>
      <trkpt lat="48.22288" lon="7.28576">
        <ele>739.3</ele>
        <time>2000-01-01T21:24:25.000Z</time>
      </trkpt>
      <trkpt lat="48.22276" lon="7.28598">
        <ele>727</ele>
        <time>2000-01-01T21:24:35.000Z</time>
      </trkpt>
      <trkpt lat="48.22261" lon="7.28619">
        <ele>727</ele>
        <time>2000-01-01T21:24:45.000Z</time>
      </trkpt>
      <trkpt lat="48.22247" lon="7.28637">
        <ele>726</ele>
        <time>2000-01-01T21:24:55.000Z</time>
      </trkpt>
      <trkpt lat="48.22234" lon="7.28649">
        <ele>740.5</ele>
        <time>2000-01-01T21:25:05.000Z</time>
      </trkpt>
      <trkpt lat="48.22217" lon="7.28665">
        <ele>723</ele>
        <time>2000-01-01T21:25:15.000Z</time>
      </trkpt>
      <trkpt lat="48.22195" lon="7.28667">
        <ele>722</ele>
        <time>2000-01-01T21:25:25.000Z</time>
      </trkpt>
      <trkpt lat="48.22187" lon="7.28668">
        <ele>749</ele>
        <time>2000-01-01T21:25:35.000Z</time>
      </trkpt>
      <trkpt lat="48.22179" lon="7.28672">
        <ele>746</ele>
        <time>2000-01-01T21:25:45.000Z</time>
      </trkpt>
      <trkpt lat="48.2216" lon="7.28673">
        <ele>722</ele>
        <time>2000-01-01T21:25:55.000Z</time>
      </trkpt>
      <trkpt lat="48.22156" lon="7.28674">
        <ele>742.1</ele>
        <time>2000-01-01T21:26:05.000Z</time>
      </trkpt>
      <trkpt lat="48.22141" lon="7.28669">
        <ele>723</ele>
        <time>2000-01-01T21:26:15.000Z</time>
      </trkpt>
      <trkpt lat="48.22121" lon="7.28671">
        <ele>723</ele>
        <time>2000-01-01T21:26:25.000Z</time>
      </trkpt>
      <trkpt lat="48.22108" lon="7.2867">
        <ele>743.9</ele>
        <time>2000-01-01T21:26:35.000Z</time>
      </trkpt>
      <trkpt lat="48.22098" lon="7.2867">
        <ele>723</ele>
        <time>2000-01-01T21:26:45.000Z</time>
      </trkpt>
      <trkpt lat="48.22078" lon="7.28671">
        <ele>723</ele>
        <time>2000-01-01T21:26:55.000Z</time>
      </trkpt>
      <trkpt lat="48.22057" lon="7.28677">
        <ele>723</ele>
        <time>2000-01-01T21:27:05.000Z</time>
      </trkpt>
      <trkpt lat="48.22047" lon="7.28675">
        <ele>745.1</ele>
        <time>2000-01-01T21:27:15.000Z</time>
      </trkpt>
      <trkpt lat="48.22045" lon="7.28675">
        <ele>745.2</ele>
        <time>2000-01-01T21:27:25.000Z</time>
      </trkpt>
      <trkpt lat="48.22027" lon="7.28679">
        <ele>723</ele>
        <time>2000-01-01T21:27:35.000Z</time>
      </trkpt>
      <trkpt lat="48.22008" lon="7.2867">
        <ele>723</ele>
        <time>2000-01-01T21:27:45.000Z</time>
      </trkpt>
      <trkpt lat="48.2199" lon="7.28665">
        <ele>723</ele>
        <time>2000-01-01T21:27:55.000Z</time>
      </trkpt>
      <trkpt lat="48.21975" lon="7.28663">
        <ele>726.5</ele>
        <time>2000-01-01T21:28:05.000Z</time>
      </trkpt>
      <trkpt lat="48.21967" lon="7.28659">
        <ele>722</ele>
        <time>2000-01-01T21:28:15.000Z</time>
      </trkpt>
      <trkpt lat="48.21948" lon="7.28653">
        <ele>722</ele>
        <time>2000-01-01T21:28:25.000Z</time>
      </trkpt>
      <trkpt lat="48.21927" lon="7.2866">
        <ele>722</ele>
        <time>2000-01-01T21:28:35.000Z</time>
      </trkpt>
      <trkpt lat="48.21907" lon="7.28666">
        <ele>722</ele>
        <time>2000-01-01T21:28:45.000Z</time>
      </trkpt>
      <trkpt lat="48.21884" lon="7.28672">
        <ele>721</ele>
        <time>2000-01-01T21:28:55.000Z</time>
      </trkpt>
      <trkpt lat="48.21864" lon="7.28679">
        <ele>718</ele>
        <time>2000-01-01T21:29:05.000Z</time>
      </trkpt>
      <trkpt lat="48.21842" lon="7.28688">
        <ele>717</ele>
        <time>2000-01-01T21:29:15.000Z</time>
      </trkpt>
      <trkpt lat="48.21818" lon="7.287">
        <ele>716</ele>
        <time>2000-01-01T21:29:25.000Z</time>
      </trkpt>
      <trkpt lat="48.21814" lon="7.28702">
        <ele>727.6</ele>
        <time>2000-01-01T21:29:35.000Z</time>
      </trkpt>
      <trkpt lat="48.21798" lon="7.28718">
        <ele>716</ele>
        <time>2000-01-01T21:29:45.000Z</time>
      </trkpt>
      <trkpt lat="48.21782" lon="7.28731">
        <ele>721</ele>
        <time>2000-01-01T21:29:55.000Z</time>
      </trkpt>
      <trkpt lat="48.21767" lon="7.2875">
        <ele>721</ele>
        <time>2000-01-01T21:30:05.000Z</time>
      </trkpt>
      <trkpt lat="48.21752" lon="7.28765">
        <ele>721</ele>
        <time>2000-01-01T21:30:15.000Z</time>
      </trkpt>
      <trkpt lat="48.21736" lon="7.28785">
        <ele>718</ele>
        <time>2000-01-01T21:30:25.000Z</time>
      </trkpt>
      <trkpt lat="48.2172" lon="7.28799">
        <ele>717</ele>
        <time>2000-01-01T21:30:35.000Z</time>
      </trkpt>
      <trkpt lat="48.21706" lon="7.28815">
        <ele>732.6</ele>
        <time>2000-01-01T21:30:45.000Z</time>
      </trkpt>
      <trkpt lat="48.21686" lon="7.28819">
        <ele>715</ele>
        <time>2000-01-01T21:30:55.000Z</time>
      </trkpt>
      <trkpt lat="48.21668" lon="7.28829">
        <ele>715</ele>
        <time>2000-01-01T21:31:05.000Z</time>
      </trkpt>
      <trkpt lat="48.2165" lon="7.28841">
        <ele>714</ele>
        <time>2000-01-01T21:31:15.000Z</time>
      </trkpt>
      <trkpt lat="48.21642" lon="7.28842">
        <ele>730</ele>
        <time>2000-01-01T21:31:25.000Z</time>
      </trkpt>
      <trkpt lat="48.21623" lon="7.28837">
        <ele>714</ele>
        <time>2000-01-01T21:31:35.000Z</time>
      </trkpt>
      <trkpt lat="48.21613" lon="7.28836">
        <ele>726.4</ele>
        <time>2000-01-01T21:31:45.000Z</time>
      </trkpt>
      <trkpt lat="48.21589" lon="7.28852">
        <ele>713</ele>
        <time>2000-01-01T21:31:55.000Z</time>
      </trkpt>
      <trkpt lat="48.21572" lon="7.2886">
        <ele>716.4</ele>
        <time>2000-01-01T21:32:05.000Z</time>
      </trkpt>
      <trkpt lat="48.21558" lon="7.28854">
        <ele>713</ele>
        <time>2000-01-01T21:32:15.000Z</time>
      </trkpt>
      <trkpt lat="48.21544" lon="7.28852">
        <ele>714.4</ele>
        <time>2000-01-01T21:32:25.000Z</time>
      </trkpt>
      <trkpt lat="48.21526" lon="7.28863">
        <ele>712</ele>
        <time>2000-01-01T21:32:35.000Z</time>
      </trkpt>
      <trkpt lat="48.2151" lon="7.28883">
        <ele>711</ele>
        <time>2000-01-01T21:32:45.000Z</time>
      </trkpt>
      <trkpt lat="48.21501" lon="7.28895">
        <ele>713.2</ele>
        <time>2000-01-01T21:32:55.000Z</time>
      </trkpt>
      <trkpt lat="48.21489" lon="7.2892">
        <ele>711</ele>
        <time>2000-01-01T21:33:05.000Z</time>
      </trkpt>
      <trkpt lat="48.21487" lon="7.28941">
        <ele>715</ele>
        <time>2000-01-01T21:33:15.000Z</time>
      </trkpt>
      <trkpt lat="48.21488" lon="7.28942">
        <ele>715</ele>
        <time>2000-01-01T21:33:25.000Z</time>
      </trkpt>
      <trkpt lat="48.2149" lon="7.28946">
        <ele>709</ele>
        <time>2000-01-01T21:33:35.000Z</time>
      </trkpt>
      <trkpt lat="48.21491" lon="7.28946">
        <ele>715.1</ele>
        <time>2000-01-01T21:33:45.000Z</time>
      </trkpt>
      <trkpt lat="48.21492" lon="7.28949">
        <ele>715.2</ele>
        <time>2000-01-01T21:33:55.000Z</time>
      </trkpt>
      <trkpt lat="48.21492" lon="7.28948">
        <ele>715.1</ele>
        <time>2000-01-01T21:34:05.000Z</time>
      </trkpt>
      <trkpt lat="48.21483" lon="7.28968">
        <ele>709</ele>
        <time>2000-01-01T21:34:15.000Z</time>
      </trkpt>
      <trkpt lat="48.21486" lon="7.28951">
        <ele>715.4</ele>
        <time>2000-01-01T21:34:25.000Z</time>
      </trkpt>
      <trkpt lat="48.21481" lon="7.28959">
        <ele>709</ele>
        <time>2000-01-01T21:34:35.000Z</time>
      </trkpt>
      <trkpt lat="48.2147" lon="7.28976">
        <ele>716.3</ele>
        <time>2000-01-01T21:34:45.000Z</time>
      </trkpt>
      <trkpt lat="48.21471" lon="7.28973">
        <ele>709</ele>
        <time>2000-01-01T21:34:55.000Z</time>
      </trkpt>
      <trkpt lat="48.21475" lon="7.28974">
        <ele>716.2</ele>
        <time>2000-01-01T21:35:05.000Z</time>
      </trkpt>
      <trkpt lat="48.21483" lon="7.28962">
        <ele>715.8</ele>
        <time>2000-01-01T21:35:15.000Z</time>
      </trkpt>
      <trkpt lat="48.21496" lon="7.28948">
        <ele>709</ele>
        <time>2000-01-01T21:35:25.000Z</time>
      </trkpt>
      <trkpt lat="48.21501" lon="7.28941">
        <ele>715.8</ele>
        <time>2000-01-01T21:35:35.000Z</time>
      </trkpt>
      <trkpt lat="48.21511" lon="7.2893">
        <ele>712</ele>
        <time>2000-01-01T21:35:45.000Z</time>
      </trkpt>
      <trkpt lat="48.21527" lon="7.28912">
        <ele>713</ele>
        <time>2000-01-01T21:35:55.000Z</time>
      </trkpt>
      <trkpt lat="48.21534" lon="7.28906">
        <ele>715.2</ele>
        <time>2000-01-01T21:36:05.000Z</time>
      </trkpt>
      <trkpt lat="48.21541" lon="7.28902">
        <ele>715.8</ele>
        <time>2000-01-01T21:36:15.000Z</time>
      </trkpt>
      <trkpt lat="48.21554" lon="7.28893">
        <ele>716</ele>
        <time>2000-01-01T21:36:25.000Z</time>
      </trkpt>
      <trkpt lat="48.21568" lon="7.28906">
        <ele>719.2</ele>
        <time>2000-01-01T21:36:35.000Z</time>
      </trkpt>
      <trkpt lat="48.21573" lon="7.28918">
        <ele>718</ele>
        <time>2000-01-01T21:36:45.000Z</time>
      </trkpt>
      <trkpt lat="48.21578" lon="7.28926">
        <ele>722.1</ele>
        <time>2000-01-01T21:36:55.000Z</time>
      </trkpt>
      <trkpt lat="48.21579" lon="7.28928">
        <ele>721.9</ele>
        <time>2000-01-01T21:37:05.000Z</time>
      </trkpt>
      <trkpt lat="48.21584" lon="7.28933">
        <ele>729</ele>
        <time>2000-01-01T21:37:15.000Z</time>
      </trkpt>
      <trkpt lat="48.21591" lon="7.28937">
        <ele>723</ele>
        <time>2000-01-01T21:37:25.000Z</time>
      </trkpt>
      <trkpt lat="48.21599" lon="7.28941">
        <ele>731.5</ele>
        <time>2000-01-01T21:37:35.000Z</time>
      </trkpt>
      <trkpt lat="48.21602" lon="7.28945">
        <ele>732.2</ele>
        <time>2000-01-01T21:37:45.000Z</time>
      </trkpt>
      <trkpt lat="48.21608" lon="7.28953">
        <ele>725</ele>
        <time>2000-01-01T21:37:55.000Z</time>
      </trkpt>
      <trkpt lat="48.21616" lon="7.28959">
        <ele>734.2</ele>
        <time>2000-01-01T21:38:05.000Z</time>
      </trkpt>
      <trkpt lat="48.21625" lon="7.2897">
        <ele>728</ele>
        <time>2000-01-01T21:38:15.000Z</time>
      </trkpt>
      <trkpt lat="48.21633" lon="7.28979">
        <ele>736.8</ele>
        <time>2000-01-01T21:38:25.000Z</time>
      </trkpt>
      <trkpt lat="48.21639" lon="7.28988">
        <ele>731</ele>
        <time>2000-01-01T21:38:35.000Z</time>
      </trkpt>
      <trkpt lat="48.21647" lon="7.28996">
        <ele>740.3</ele>
        <time>2000-01-01T21:38:45.000Z</time>
      </trkpt>
      <trkpt lat="48.21654" lon="7.29007">
        <ele>734</ele>
        <time>2000-01-01T21:38:55.000Z</time>
      </trkpt>
      <trkpt lat="48.21664" lon="7.29023">
        <ele>738.6</ele>
        <time>2000-01-01T21:39:05.000Z</time>
      </trkpt>
      <trkpt lat="48.21666" lon="7.29028">
        <ele>738</ele>
        <time>2000-01-01T21:39:15.000Z</time>
      </trkpt>
      <trkpt lat="48.21667" lon="7.29047">
        <ele>753.9</ele>
        <time>2000-01-01T21:39:25.000Z</time>
      </trkpt>
      <trkpt lat="48.21671" lon="7.29069">
        <ele>741</ele>
        <time>2000-01-01T21:39:35.000Z</time>
      </trkpt>
      <trkpt lat="48.21674" lon="7.29078">
        <ele>747.7</ele>
        <time>2000-01-01T21:39:45.000Z</time>
      </trkpt>
      <trkpt lat="48.2168" lon="7.29108">
        <ele>742</ele>
        <time>2000-01-01T21:39:55.000Z</time>
      </trkpt>
      <trkpt lat="48.21683" lon="7.29141">
        <ele>743</ele>
        <time>2000-01-01T21:40:05.000Z</time>
      </trkpt>
      <trkpt lat="48.21684" lon="7.29157">
        <ele>747.8</ele>
        <time>2000-01-01T21:40:15.000Z</time>
      </trkpt>
      <trkpt lat="48.21687" lon="7.29164">
        <ele>748.3</ele>
        <time>2000-01-01T21:40:25.000Z</time>
      </trkpt>
      <trkpt lat="48.21694" lon="7.29181">
        <ele>745</ele>
        <time>2000-01-01T21:40:35.000Z</time>
      </trkpt>
      <trkpt lat="48.21703" lon="7.29205">
        <ele>745</ele>
        <time>2000-01-01T21:40:45.000Z</time>
      </trkpt>
      <trkpt lat="48.21708" lon="7.29223">
        <ele>748.8</ele>
        <time>2000-01-01T21:40:55.000Z</time>
      </trkpt>
      <trkpt lat="48.21715" lon="7.29251">
        <ele>746</ele>
        <time>2000-01-01T21:41:05.000Z</time>
      </trkpt>
      <trkpt lat="48.21721" lon="7.29286">
        <ele>746</ele>
        <time>2000-01-01T21:41:15.000Z</time>
      </trkpt>
      <trkpt lat="48.2173" lon="7.2931">
        <ele>746</ele>
        <time>2000-01-01T21:41:25.000Z</time>
      </trkpt>
      <trkpt lat="48.21737" lon="7.29325">
        <ele>746.4</ele>
        <time>2000-01-01T21:41:35.000Z</time>
      </trkpt>
      <trkpt lat="48.21747" lon="7.29338">
        <ele>747</ele>
        <time>2000-01-01T21:41:45.000Z</time>
      </trkpt>
      <trkpt lat="48.21752" lon="7.2935">
        <ele>756.3</ele>
        <time>2000-01-01T21:41:55.000Z</time>
      </trkpt>
      <trkpt lat="48.21759" lon="7.29358">
        <ele>749</ele>
        <time>2000-01-01T21:42:05.000Z</time>
      </trkpt>
      <trkpt lat="48.21767" lon="7.29368">
        <ele>757.8</ele>
        <time>2000-01-01T21:42:15.000Z</time>
      </trkpt>
      <trkpt lat="48.21773" lon="7.29378">
        <ele>751</ele>
        <time>2000-01-01T21:42:25.000Z</time>
      </trkpt>
      <trkpt lat="48.21781" lon="7.29384">
        <ele>758.4</ele>
        <time>2000-01-01T21:42:35.000Z</time>
      </trkpt>
      <trkpt lat="48.21793" lon="7.29397">
        <ele>754</ele>
        <time>2000-01-01T21:42:45.000Z</time>
      </trkpt>
      <trkpt lat="48.21807" lon="7.29415">
        <ele>754</ele>
        <time>2000-01-01T21:42:55.000Z</time>
      </trkpt>
      <trkpt lat="48.21813" lon="7.2942">
        <ele>754</ele>
        <time>2000-01-01T21:43:05.000Z</time>
      </trkpt>
      <trkpt lat="48.2182" lon="7.29428">
        <ele>755</ele>
        <time>2000-01-01T21:43:15.000Z</time>
      </trkpt>
      <trkpt lat="48.21824" lon="7.29432">
        <ele>756</ele>
        <time>2000-01-01T21:43:25.000Z</time>
      </trkpt>
      <trkpt lat="48.21827" lon="7.29435">
        <ele>754.4</ele>
        <time>2000-01-01T21:43:35.000Z</time>
      </trkpt>
      <trkpt lat="48.21843" lon="7.29451">
        <ele>756</ele>
        <time>2000-01-01T21:43:45.000Z</time>
      </trkpt>
      <trkpt lat="48.21854" lon="7.29466">
        <ele>762.9</ele>
        <time>2000-01-01T21:43:55.000Z</time>
      </trkpt>
      <trkpt lat="48.21863" lon="7.29474">
        <ele>756</ele>
        <time>2000-01-01T21:44:05.000Z</time>
      </trkpt>
      <trkpt lat="48.21878" lon="7.2949">
        <ele>763.7</ele>
        <time>2000-01-01T21:44:15.000Z</time>
      </trkpt>
      <trkpt lat="48.21896" lon="7.29514">
        <ele>754</ele>
        <time>2000-01-01T21:44:25.000Z</time>
      </trkpt>
      <trkpt lat="48.21899" lon="7.29518">
        <ele>752.2</ele>
        <time>2000-01-01T21:44:35.000Z</time>
      </trkpt>
      <trkpt lat="48.21911" lon="7.29531">
        <ele>753</ele>
        <time>2000-01-01T21:44:45.000Z</time>
      </trkpt>
      <trkpt lat="48.21925" lon="7.29548">
        <ele>757.7</ele>
        <time>2000-01-01T21:44:55.000Z</time>
      </trkpt>
      <trkpt lat="48.21939" lon="7.29568">
        <ele>751</ele>
        <time>2000-01-01T21:45:05.000Z</time>
      </trkpt>
      <trkpt lat="48.21946" lon="7.29575">
        <ele>755.5</ele>
        <time>2000-01-01T21:45:15.000Z</time>
      </trkpt>
      <trkpt lat="48.21957" lon="7.29589">
        <ele>750</ele>
        <time>2000-01-01T21:45:25.000Z</time>
      </trkpt>
      <trkpt lat="48.21958" lon="7.29592">
        <ele>743.8</ele>
        <time>2000-01-01T21:45:35.000Z</time>
      </trkpt>
      <trkpt lat="48.21966" lon="7.29604">
        <ele>744.2</ele>
        <time>2000-01-01T21:45:45.000Z</time>
      </trkpt>
      <trkpt lat="48.21972" lon="7.29612">
        <ele>746</ele>
        <time>2000-01-01T21:45:55.000Z</time>
      </trkpt>
      <trkpt lat="48.21979" lon="7.29621">
        <ele>743.8</ele>
        <time>2000-01-01T21:46:05.000Z</time>
      </trkpt>
      <trkpt lat="48.21982" lon="7.29625">
        <ele>743.5</ele>
        <time>2000-01-01T21:46:15.000Z</time>
      </trkpt>
      <trkpt lat="48.21994" lon="7.29645">
        <ele>742</ele>
        <time>2000-01-01T21:46:25.000Z</time>
      </trkpt>
      <trkpt lat="48.22002" lon="7.29657">
        <ele>743.5</ele>
        <time>2000-01-01T21:46:35.000Z</time>
      </trkpt>
      <trkpt lat="48.22005" lon="7.29663">
        <ele>742.6</ele>
        <time>2000-01-01T21:46:45.000Z</time>
      </trkpt>
      <trkpt lat="48.22004" lon="7.29681">
        <ele>738</ele>
        <time>2000-01-01T21:46:55.000Z</time>
      </trkpt>
      <trkpt lat="48.22002" lon="7.29686">
        <ele>736.8</ele>
        <time>2000-01-01T21:47:05.000Z</time>
      </trkpt>
      <trkpt lat="48.22002" lon="7.297">
        <ele>735.3</ele>
        <time>2000-01-01T21:47:15.000Z</time>
      </trkpt>
      <trkpt lat="48.22002" lon="7.29705">
        <ele>734.9</ele>
        <time>2000-01-01T21:47:25.000Z</time>
      </trkpt>
      <trkpt lat="48.22004" lon="7.29725">
        <ele>734</ele>
        <time>2000-01-01T21:47:35.000Z</time>
      </trkpt>
      <trkpt lat="48.22001" lon="7.29737">
        <ele>734.2</ele>
        <time>2000-01-01T21:47:45.000Z</time>
      </trkpt>
      <trkpt lat="48.21999" lon="7.29753">
        <ele>732</ele>
        <time>2000-01-01T21:47:55.000Z</time>
      </trkpt>
      <trkpt lat="48.21997" lon="7.29758">
        <ele>731.8</ele>
        <time>2000-01-01T21:48:05.000Z</time>
      </trkpt>
      <trkpt lat="48.21994" lon="7.29767">
        <ele>729.3</ele>
        <time>2000-01-01T21:48:15.000Z</time>
      </trkpt>
      <trkpt lat="48.21989" lon="7.29775">
        <ele>727.6</ele>
        <time>2000-01-01T21:48:25.000Z</time>
      </trkpt>
      <trkpt lat="48.21981" lon="7.29786">
        <ele>729</ele>
        <time>2000-01-01T21:48:35.000Z</time>
      </trkpt>
      <trkpt lat="48.21976" lon="7.29797">
        <ele>724.9</ele>
        <time>2000-01-01T21:48:45.000Z</time>
      </trkpt>
      <trkpt lat="48.21969" lon="7.29808">
        <ele>725</ele>
        <time>2000-01-01T21:48:55.000Z</time>
      </trkpt>
      <trkpt lat="48.21963" lon="7.29818">
        <ele>723.4</ele>
        <time>2000-01-01T21:49:05.000Z</time>
      </trkpt>
      <trkpt lat="48.2196" lon="7.29824">
        <ele>723</ele>
        <time>2000-01-01T21:49:15.000Z</time>
      </trkpt>
      <trkpt lat="48.21956" lon="7.2983">
        <ele>719</ele>
        <time>2000-01-01T21:49:25.000Z</time>
      </trkpt>
      <trkpt lat="48.21952" lon="7.29835">
        <ele>713.7</ele>
        <time>2000-01-01T21:49:35.000Z</time>
      </trkpt>
      <trkpt lat="48.21949" lon="7.29839">
        <ele>713.4</ele>
        <time>2000-01-01T21:49:45.000Z</time>
      </trkpt>
      <trkpt lat="48.21947" lon="7.29841">
        <ele>713.3</ele>
        <time>2000-01-01T21:49:55.000Z</time>
      </trkpt>
      <trkpt lat="48.21942" lon="7.29843">
        <ele>713.1</ele>
        <time>2000-01-01T21:50:05.000Z</time>
      </trkpt>
      <trkpt lat="48.21936" lon="7.29846">
        <ele>713</ele>
        <time>2000-01-01T21:50:15.000Z</time>
      </trkpt>
      <trkpt lat="48.2193" lon="7.29847">
        <ele>713.1</ele>
        <time>2000-01-01T21:50:25.000Z</time>
      </trkpt>
      <trkpt lat="48.21927" lon="7.29847">
        <ele>713.2</ele>
        <time>2000-01-01T21:50:35.000Z</time>
      </trkpt>
      <trkpt lat="48.21921" lon="7.29851">
        <ele>712.9</ele>
        <time>2000-01-01T21:50:45.000Z</time>
      </trkpt>
      <trkpt lat="48.21919" lon="7.29856">
        <ele>704</ele>
        <time>2000-01-01T21:50:55.000Z</time>
      </trkpt>
      <trkpt lat="48.21912" lon="7.29873">
        <ele>700.4</ele>
        <time>2000-01-01T21:51:05.000Z</time>
      </trkpt>
      <trkpt lat="48.21909" lon="7.29884">
        <ele>698</ele>
        <time>2000-01-01T21:51:15.000Z</time>
      </trkpt>
      <trkpt lat="48.21911" lon="7.29891">
        <ele>698.7</ele>
        <time>2000-01-01T21:51:25.000Z</time>
      </trkpt>
      <trkpt lat="48.21913" lon="7.29909">
        <ele>699</ele>
        <time>2000-01-01T21:51:35.000Z</time>
      </trkpt>
      <trkpt lat="48.2191" lon="7.29917">
        <ele>694</ele>
        <time>2000-01-01T21:51:45.000Z</time>
      </trkpt>
      <trkpt lat="48.21906" lon="7.29922">
        <ele>693.6</ele>
        <time>2000-01-01T21:51:55.000Z</time>
      </trkpt>
      <trkpt lat="48.21898" lon="7.29931">
        <ele>689.6</ele>
        <time>2000-01-01T21:52:05.000Z</time>
      </trkpt>
      <trkpt lat="48.21893" lon="7.29936">
        <ele>689</ele>
        <time>2000-01-01T21:52:15.000Z</time>
      </trkpt>
      <trkpt lat="48.2189" lon="7.29942">
        <ele>686.7</ele>
        <time>2000-01-01T21:52:25.000Z</time>
      </trkpt>
      <trkpt lat="48.21884" lon="7.29952">
        <ele>684.9</ele>
        <time>2000-01-01T21:52:35.000Z</time>
      </trkpt>
      <trkpt lat="48.21876" lon="7.29965">
        <ele>682</ele>
        <time>2000-01-01T21:52:45.000Z</time>
      </trkpt>
      <trkpt lat="48.21873" lon="7.29978">
        <ele>682.1</ele>
        <time>2000-01-01T21:52:55.000Z</time>
      </trkpt>
      <trkpt lat="48.21869" lon="7.29991">
        <ele>678</ele>
        <time>2000-01-01T21:53:05.000Z</time>
      </trkpt>
      <trkpt lat="48.21866" lon="7.30002">
        <ele>670.1</ele>
        <time>2000-01-01T21:53:15.000Z</time>
      </trkpt>
      <trkpt lat="48.21862" lon="7.30015">
        <ele>669.5</ele>
        <time>2000-01-01T21:53:25.000Z</time>
      </trkpt>
      <trkpt lat="48.21856" lon="7.30024">
        <ele>673</ele>
        <time>2000-01-01T21:53:35.000Z</time>
      </trkpt>
      <trkpt lat="48.2185" lon="7.30033">
        <ele>667.9</ele>
        <time>2000-01-01T21:53:45.000Z</time>
      </trkpt>
      <trkpt lat="48.21843" lon="7.30037">
        <ele>667.5</ele>
        <time>2000-01-01T21:53:55.000Z</time>
      </trkpt>
      <trkpt lat="48.21835" lon="7.30039">
        <ele>671</ele>
        <time>2000-01-01T21:54:05.000Z</time>
      </trkpt>
      <trkpt lat="48.21827" lon="7.30044">
        <ele>665.9</ele>
        <time>2000-01-01T21:54:15.000Z</time>
      </trkpt>
      <trkpt lat="48.2182" lon="7.30046">
        <ele>665.5</ele>
        <time>2000-01-01T21:54:25.000Z</time>
      </trkpt>
      <trkpt lat="48.21807" lon="7.30052">
        <ele>664</ele>
        <time>2000-01-01T21:54:35.000Z</time>
      </trkpt>
      <trkpt lat="48.21795" lon="7.3006">
        <ele>663.8</ele>
        <time>2000-01-01T21:54:45.000Z</time>
      </trkpt>
      <trkpt lat="48.21787" lon="7.30067">
        <ele>658</ele>
        <time>2000-01-01T21:54:55.000Z</time>
      </trkpt>
      <trkpt lat="48.21781" lon="7.30072">
        <ele>662.6</ele>
        <time>2000-01-01T21:55:05.000Z</time>
      </trkpt>
      <trkpt lat="48.2177" lon="7.30082">
        <ele>652</ele>
        <time>2000-01-01T21:55:15.000Z</time>
      </trkpt>
      <trkpt lat="48.2176" lon="7.30088">
        <ele>657</ele>
        <time>2000-01-01T21:55:25.000Z</time>
      </trkpt>
      <trkpt lat="48.21753" lon="7.30096">
        <ele>650</ele>
        <time>2000-01-01T21:55:35.000Z</time>
      </trkpt>
      <trkpt lat="48.21746" lon="7.30102">
        <ele>652.9</ele>
        <time>2000-01-01T21:55:45.000Z</time>
      </trkpt>
      <trkpt lat="48.21737" lon="7.30111">
        <ele>643</ele>
        <time>2000-01-01T21:55:55.000Z</time>
      </trkpt>
      <trkpt lat="48.21728" lon="7.30115">
        <ele>650.2</ele>
        <time>2000-01-01T21:56:05.000Z</time>
      </trkpt>
      <trkpt lat="48.21719" lon="7.30119">
        <ele>637</ele>
        <time>2000-01-01T21:56:15.000Z</time>
      </trkpt>
      <trkpt lat="48.21714" lon="7.30121">
        <ele>648.6</ele>
        <time>2000-01-01T21:56:25.000Z</time>
      </trkpt>
      <trkpt lat="48.21708" lon="7.30125">
        <ele>648</ele>
        <time>2000-01-01T21:56:35.000Z</time>
      </trkpt>
      <trkpt lat="48.21706" lon="7.30129">
        <ele>647.7</ele>
        <time>2000-01-01T21:56:45.000Z</time>
      </trkpt>
      <trkpt lat="48.21706" lon="7.30131">
        <ele>647.7</ele>
        <time>2000-01-01T21:56:55.000Z</time>
      </trkpt>
      <trkpt lat="48.21704" lon="7.30131">
        <ele>647.5</ele>
        <time>2000-01-01T21:57:05.000Z</time>
      </trkpt>
      <trkpt lat="48.21694" lon="7.30137">
        <ele>634</ele>
        <time>2000-01-01T21:57:15.000Z</time>
      </trkpt>
      <trkpt lat="48.21688" lon="7.30148">
        <ele>645.2</ele>
        <time>2000-01-01T21:57:25.000Z</time>
      </trkpt>
      <trkpt lat="48.21681" lon="7.30165">
        <ele>632</ele>
        <time>2000-01-01T21:57:35.000Z</time>
      </trkpt>
      <trkpt lat="48.21676" lon="7.30178">
        <ele>642</ele>
        <time>2000-01-01T21:57:45.000Z</time>
      </trkpt>
      <trkpt lat="48.21673" lon="7.30188">
        <ele>642.6</ele>
        <time>2000-01-01T21:57:55.000Z</time>
      </trkpt>
      <trkpt lat="48.21672" lon="7.30194">
        <ele>631</ele>
        <time>2000-01-01T21:58:05.000Z</time>
      </trkpt>
      <trkpt lat="48.21672" lon="7.30195">
        <ele>643</ele>
        <time>2000-01-01T21:58:15.000Z</time>
      </trkpt>
      <trkpt lat="48.21669" lon="7.302">
        <ele>643</ele>
        <time>2000-01-01T21:58:25.000Z</time>
      </trkpt>
      <trkpt lat="48.21664" lon="7.30205">
        <ele>636.5</ele>
        <time>2000-01-01T21:58:35.000Z</time>
      </trkpt>
      <trkpt lat="48.21658" lon="7.30209">
        <ele>627</ele>
        <time>2000-01-01T21:58:45.000Z</time>
      </trkpt>
      <trkpt lat="48.2165" lon="7.3021">
        <ele>636.1</ele>
        <time>2000-01-01T21:58:55.000Z</time>
      </trkpt>
      <trkpt lat="48.21645" lon="7.30208">
        <ele>636</ele>
        <time>2000-01-01T21:59:05.000Z</time>
      </trkpt>
      <trkpt lat="48.21644" lon="7.30208">
        <ele>636</ele>
        <time>2000-01-01T21:59:15.000Z</time>
      </trkpt>
      <trkpt lat="48.21636" lon="7.30224">
        <ele>624</ele>
        <time>2000-01-01T21:59:25.000Z</time>
      </trkpt>
      <trkpt lat="48.21635" lon="7.30229">
        <ele>635.6</ele>
        <time>2000-01-01T21:59:35.000Z</time>
      </trkpt>
      <trkpt lat="48.21636" lon="7.30232">
        <ele>635.6</ele>
        <time>2000-01-01T21:59:45.000Z</time>
      </trkpt>
      <trkpt lat="48.21638" lon="7.30238">
        <ele>635.7</ele>
        <time>2000-01-01T21:59:55.000Z</time>
      </trkpt>
      <trkpt lat="48.21639" lon="7.30245">
        <ele>635.8</ele>
        <time>2000-01-01T22:00:05.000Z</time>
      </trkpt>
      <trkpt lat="48.21636" lon="7.30262">
        <ele>623</ele>
        <time>2000-01-01T22:00:15.000Z</time>
      </trkpt>
      <trkpt lat="48.21633" lon="7.3028">
        <ele>631.4</ele>
        <time>2000-01-01T22:00:25.000Z</time>
      </trkpt>
      <trkpt lat="48.21632" lon="7.30304">
        <ele>620</ele>
        <time>2000-01-01T22:00:35.000Z</time>
      </trkpt>
      <trkpt lat="48.21633" lon="7.30319">
        <ele>629.7</ele>
        <time>2000-01-01T22:00:45.000Z</time>
      </trkpt>
      <trkpt lat="48.21635" lon="7.30333">
        <ele>618</ele>
        <time>2000-01-01T22:00:55.000Z</time>
      </trkpt>
      <trkpt lat="48.21636" lon="7.30347">
        <ele>624.1</ele>
        <time>2000-01-01T22:01:05.000Z</time>
      </trkpt>
      <trkpt lat="48.21637" lon="7.30358">
        <ele>623.5</ele>
        <time>2000-01-01T22:01:15.000Z</time>
      </trkpt>
      <trkpt lat="48.21642" lon="7.30374">
        <ele>614</ele>
        <time>2000-01-01T22:01:25.000Z</time>
      </trkpt>
      <trkpt lat="48.21652" lon="7.30393">
        <ele>621.9</ele>
        <time>2000-01-01T22:01:35.000Z</time>
      </trkpt>
      <trkpt lat="48.21661" lon="7.30409">
        <ele>613</ele>
        <time>2000-01-01T22:01:45.000Z</time>
      </trkpt>
      <trkpt lat="48.21665" lon="7.30419">
        <ele>619.9</ele>
        <time>2000-01-01T22:01:55.000Z</time>
      </trkpt>
      <trkpt lat="48.21674" lon="7.30437">
        <ele>610</ele>
        <time>2000-01-01T22:02:05.000Z</time>
      </trkpt>
      <trkpt lat="48.2168" lon="7.30455">
        <ele>616.6</ele>
        <time>2000-01-01T22:02:15.000Z</time>
      </trkpt>
      <trkpt lat="48.21684" lon="7.30467">
        <ele>606</ele>
        <time>2000-01-01T22:02:25.000Z</time>
      </trkpt>
      <trkpt lat="48.21692" lon="7.3049">
        <ele>613.8</ele>
        <time>2000-01-01T22:02:35.000Z</time>
      </trkpt>
      <trkpt lat="48.21697" lon="7.30508">
        <ele>605</ele>
        <time>2000-01-01T22:02:45.000Z</time>
      </trkpt>
      <trkpt lat="48.21698" lon="7.30513">
        <ele>603.8</ele>
        <time>2000-01-01T22:02:55.000Z</time>
      </trkpt>
      <trkpt lat="48.21707" lon="7.30527">
        <ele>602.7</ele>
        <time>2000-01-01T22:03:05.000Z</time>
      </trkpt>
      <trkpt lat="48.21713" lon="7.30536">
        <ele>600</ele>
        <time>2000-01-01T22:03:15.000Z</time>
      </trkpt>
      <trkpt lat="48.21718" lon="7.30544">
        <ele>601.5</ele>
        <time>2000-01-01T22:03:25.000Z</time>
      </trkpt>
      <trkpt lat="48.21726" lon="7.30557">
        <ele>598</ele>
        <time>2000-01-01T22:03:35.000Z</time>
      </trkpt>
      <trkpt lat="48.21732" lon="7.30571">
        <ele>600.2</ele>
        <time>2000-01-01T22:03:45.000Z</time>
      </trkpt>
      <trkpt lat="48.21741" lon="7.3058">
        <ele>596</ele>
        <time>2000-01-01T22:03:55.000Z</time>
      </trkpt>
      <trkpt lat="48.21751" lon="7.30583">
        <ele>599.9</ele>
        <time>2000-01-01T22:04:05.000Z</time>
      </trkpt>
      <trkpt lat="48.21769" lon="7.30593">
        <ele>592</ele>
        <time>2000-01-01T22:04:15.000Z</time>
      </trkpt>
      <trkpt lat="48.21779" lon="7.30601">
        <ele>589.3</ele>
        <time>2000-01-01T22:04:25.000Z</time>
      </trkpt>
      <trkpt lat="48.21792" lon="7.306">
        <ele>588</ele>
        <time>2000-01-01T22:04:35.000Z</time>
      </trkpt>
      <trkpt lat="48.21802" lon="7.30591">
        <ele>586.7</ele>
        <time>2000-01-01T22:04:45.000Z</time>
      </trkpt>
      <trkpt lat="48.21809" lon="7.30579">
        <ele>587</ele>
        <time>2000-01-01T22:04:55.000Z</time>
      </trkpt>
      <trkpt lat="48.21816" lon="7.30566">
        <ele>591.6</ele>
        <time>2000-01-01T22:05:05.000Z</time>
      </trkpt>
      <trkpt lat="48.21827" lon="7.30548">
        <ele>582</ele>
        <time>2000-01-01T22:05:15.000Z</time>
      </trkpt>
      <trkpt lat="48.21834" lon="7.30536">
        <ele>581.8</ele>
        <time>2000-01-01T22:05:25.000Z</time>
      </trkpt>
      <trkpt lat="48.21839" lon="7.30523">
        <ele>580</ele>
        <time>2000-01-01T22:05:35.000Z</time>
      </trkpt>
      <trkpt lat="48.21844" lon="7.30513">
        <ele>585.3</ele>
        <time>2000-01-01T22:05:45.000Z</time>
      </trkpt>
      <trkpt lat="48.21857" lon="7.30496">
        <ele>576</ele>
        <time>2000-01-01T22:05:55.000Z</time>
      </trkpt>
      <trkpt lat="48.21863" lon="7.30489">
        <ele>589.5</ele>
        <time>2000-01-01T22:06:05.000Z</time>
      </trkpt>
      <trkpt lat="48.21866" lon="7.30478">
        <ele>589.5</ele>
        <time>2000-01-01T22:06:15.000Z</time>
      </trkpt>
      <trkpt lat="48.21874" lon="7.30468">
        <ele>573</ele>
        <time>2000-01-01T22:06:25.000Z</time>
      </trkpt>
      <trkpt lat="48.21882" lon="7.3046">
        <ele>588.8</ele>
        <time>2000-01-01T22:06:35.000Z</time>
      </trkpt>
      <trkpt lat="48.21896" lon="7.30457">
        <ele>572</ele>
        <time>2000-01-01T22:06:45.000Z</time>
      </trkpt>
      <trkpt lat="48.21904" lon="7.30455">
        <ele>587.2</ele>
        <time>2000-01-01T22:06:55.000Z</time>
      </trkpt>
      <trkpt lat="48.21924" lon="7.30457">
        <ele>568</ele>
        <time>2000-01-01T22:07:05.000Z</time>
      </trkpt>
      <trkpt lat="48.21929" lon="7.3046">
        <ele>579.5</ele>
        <time>2000-01-01T22:07:15.000Z</time>
      </trkpt>
      <trkpt lat="48.21931" lon="7.30461">
        <ele>579.3</ele>
        <time>2000-01-01T22:07:25.000Z</time>
      </trkpt>
      <trkpt lat="48.21933" lon="7.30467">
        <ele>578.7</ele>
        <time>2000-01-01T22:07:35.000Z</time>
      </trkpt>
      <trkpt lat="48.21939" lon="7.30481">
        <ele>565</ele>
        <time>2000-01-01T22:07:45.000Z</time>
      </trkpt>
      <trkpt lat="48.21948" lon="7.30496">
        <ele>576.9</ele>
        <time>2000-01-01T22:07:55.000Z</time>
      </trkpt>
      <trkpt lat="48.2196" lon="7.30508">
        <ele>562</ele>
        <time>2000-01-01T22:08:05.000Z</time>
      </trkpt>
      <trkpt lat="48.21975" lon="7.3052">
        <ele>565.4</ele>
        <time>2000-01-01T22:08:15.000Z</time>
      </trkpt>
      <trkpt lat="48.21985" lon="7.30526">
        <ele>559</ele>
        <time>2000-01-01T22:08:25.000Z</time>
      </trkpt>
      <trkpt lat="48.21993" lon="7.30533">
        <ele>563.8</ele>
        <time>2000-01-01T22:08:35.000Z</time>
      </trkpt>
      <trkpt lat="48.22003" lon="7.3054">
        <ele>558</ele>
        <time>2000-01-01T22:08:45.000Z</time>
      </trkpt>
      <trkpt lat="48.22013" lon="7.30544">
        <ele>558</ele>
        <time>2000-01-01T22:08:55.000Z</time>
      </trkpt>
      <trkpt lat="48.22028" lon="7.30554">
        <ele>553</ele>
        <time>2000-01-01T22:09:05.000Z</time>
      </trkpt>
      <trkpt lat="48.22037" lon="7.3056">
        <ele>555.8</ele>
        <time>2000-01-01T22:09:15.000Z</time>
      </trkpt>
      <trkpt lat="48.22048" lon="7.30567">
        <ele>551</ele>
        <time>2000-01-01T22:09:25.000Z</time>
      </trkpt>
      <trkpt lat="48.22053" lon="7.30573">
        <ele>554.2</ele>
        <time>2000-01-01T22:09:35.000Z</time>
      </trkpt>
      <trkpt lat="48.22059" lon="7.30583">
        <ele>553.2</ele>
        <time>2000-01-01T22:09:45.000Z</time>
      </trkpt>
      <trkpt lat="48.22065" lon="7.30593">
        <ele>545</ele>
        <time>2000-01-01T22:09:55.000Z</time>
      </trkpt>
      <trkpt lat="48.22072" lon="7.30602">
        <ele>541.7</ele>
        <time>2000-01-01T22:10:05.000Z</time>
      </trkpt>
      <trkpt lat="48.22078" lon="7.3061">
        <ele>540.4</ele>
        <time>2000-01-01T22:10:15.000Z</time>
      </trkpt>
      <trkpt lat="48.22085" lon="7.30623">
        <ele>541</ele>
        <time>2000-01-01T22:10:25.000Z</time>
      </trkpt>
      <trkpt lat="48.22095" lon="7.3063">
        <ele>532.8</ele>
        <time>2000-01-01T22:10:35.000Z</time>
      </trkpt>
      <trkpt lat="48.22105" lon="7.30633">
        <ele>539</ele>
        <time>2000-01-01T22:10:45.000Z</time>
      </trkpt>
      <trkpt lat="48.22114" lon="7.30634">
        <ele>531.6</ele>
        <time>2000-01-01T22:10:55.000Z</time>
      </trkpt>
      <trkpt lat="48.22124" lon="7.30633">
        <ele>538</ele>
        <time>2000-01-01T22:11:05.000Z</time>
      </trkpt>
      <trkpt lat="48.22136" lon="7.30633">
        <ele>530.4</ele>
        <time>2000-01-01T22:11:15.000Z</time>
      </trkpt>
      <trkpt lat="48.22153" lon="7.30631">
        <ele>531</ele>
        <time>2000-01-01T22:11:25.000Z</time>
      </trkpt>
      <trkpt lat="48.22163" lon="7.30627">
        <ele>529.5</ele>
        <time>2000-01-01T22:11:35.000Z</time>
      </trkpt>
      <trkpt lat="48.22171" lon="7.30621">
        <ele>529</ele>
        <time>2000-01-01T22:11:45.000Z</time>
      </trkpt>
      <trkpt lat="48.2218" lon="7.30603">
        <ele>521.9</ele>
        <time>2000-01-01T22:11:55.000Z</time>
      </trkpt>
      <trkpt lat="48.22182" lon="7.30593">
        <ele>526</ele>
        <time>2000-01-01T22:12:05.000Z</time>
      </trkpt>
      <trkpt lat="48.22184" lon="7.30582">
        <ele>524.4</ele>
        <time>2000-01-01T22:12:15.000Z</time>
      </trkpt>
      <trkpt lat="48.22185" lon="7.3057">
        <ele>523.8</ele>
        <time>2000-01-01T22:12:25.000Z</time>
      </trkpt>
      <trkpt lat="48.22188" lon="7.30557">
        <ele>522</ele>
        <time>2000-01-01T22:12:35.000Z</time>
      </trkpt>
      <trkpt lat="48.22191" lon="7.30546">
        <ele>522.4</ele>
        <time>2000-01-01T22:12:45.000Z</time>
      </trkpt>
      <trkpt lat="48.22195" lon="7.30537">
        <ele>522.2</ele>
        <time>2000-01-01T22:12:55.000Z</time>
      </trkpt>
      <trkpt lat="48.22202" lon="7.30528">
        <ele>517</ele>
        <time>2000-01-01T22:13:05.000Z</time>
      </trkpt>
      <trkpt lat="48.2221" lon="7.30518">
        <ele>520.6</ele>
        <time>2000-01-01T22:13:15.000Z</time>
      </trkpt>
      <trkpt lat="48.2222" lon="7.30496">
        <ele>515</ele>
        <time>2000-01-01T22:13:25.000Z</time>
      </trkpt>
      <trkpt lat="48.22226" lon="7.30477">
        <ele>520.4</ele>
        <time>2000-01-01T22:13:35.000Z</time>
      </trkpt>
      <trkpt lat="48.22225" lon="7.30467">
        <ele>512</ele>
        <time>2000-01-01T22:13:45.000Z</time>
      </trkpt>
      <trkpt lat="48.22223" lon="7.30456">
        <ele>521.5</ele>
        <time>2000-01-01T22:13:55.000Z</time>
      </trkpt>
      <trkpt lat="48.22225" lon="7.30438">
        <ele>509</ele>
        <time>2000-01-01T22:14:05.000Z</time>
      </trkpt>
      <trkpt lat="48.22227" lon="7.30435">
        <ele>520.7</ele>
        <time>2000-01-01T22:14:15.000Z</time>
      </trkpt>
      <trkpt lat="48.22232" lon="7.30424">
        <ele>519.3</ele>
        <time>2000-01-01T22:14:25.000Z</time>
      </trkpt>
      <trkpt lat="48.22239" lon="7.30415">
        <ele>504</ele>
        <time>2000-01-01T22:14:35.000Z</time>
      </trkpt>
      <trkpt lat="48.22252" lon="7.30404">
        <ele>515.9</ele>
        <time>2000-01-01T22:14:45.000Z</time>
      </trkpt>
      <trkpt lat="48.22257" lon="7.30401">
        <ele>497</ele>
        <time>2000-01-01T22:14:55.000Z</time>
      </trkpt>
      <trkpt lat="48.2227" lon="7.30397">
        <ele>516.9</ele>
        <time>2000-01-01T22:15:05.000Z</time>
      </trkpt>
      <trkpt lat="48.22279" lon="7.30398">
        <ele>495</ele>
        <time>2000-01-01T22:15:15.000Z</time>
      </trkpt>
      <trkpt lat="48.2229" lon="7.30399">
        <ele>515.9</ele>
        <time>2000-01-01T22:15:25.000Z</time>
      </trkpt>
      <trkpt lat="48.22301" lon="7.304">
        <ele>493</ele>
        <time>2000-01-01T22:15:35.000Z</time>
      </trkpt>
      <trkpt lat="48.22311" lon="7.30399">
        <ele>513.4</ele>
        <time>2000-01-01T22:15:45.000Z</time>
      </trkpt>
      <trkpt lat="48.22321" lon="7.30399">
        <ele>492</ele>
        <time>2000-01-01T22:15:55.000Z</time>
      </trkpt>
      <trkpt lat="48.22339" lon="7.30397">
        <ele>506.2</ele>
        <time>2000-01-01T22:16:05.000Z</time>
      </trkpt>
      <trkpt lat="48.22349" lon="7.30396">
        <ele>491</ele>
        <time>2000-01-01T22:16:15.000Z</time>
      </trkpt>
      <trkpt lat="48.22357" lon="7.30398">
        <ele>506.3</ele>
        <time>2000-01-01T22:16:25.000Z</time>
      </trkpt>
      <trkpt lat="48.22369" lon="7.30405">
        <ele>487</ele>
        <time>2000-01-01T22:16:35.000Z</time>
      </trkpt>
      <trkpt lat="48.22379" lon="7.30417">
        <ele>492.2</ele>
        <time>2000-01-01T22:16:45.000Z</time>
      </trkpt>
      <trkpt lat="48.22385" lon="7.30426">
        <ele>482</ele>
        <time>2000-01-01T22:16:55.000Z</time>
      </trkpt>
      <trkpt lat="48.22393" lon="7.30432">
        <ele>490.9</ele>
        <time>2000-01-01T22:17:05.000Z</time>
      </trkpt>
      <trkpt lat="48.22404" lon="7.30438">
        <ele>481</ele>
        <time>2000-01-01T22:17:15.000Z</time>
      </trkpt>
      <trkpt lat="48.22408" lon="7.30442">
        <ele>489.8</ele>
        <time>2000-01-01T22:17:25.000Z</time>
      </trkpt>
      <trkpt lat="48.22407" lon="7.30445">
        <ele>489.4</ele>
        <time>2000-01-01T22:17:35.000Z</time>
      </trkpt>
      <trkpt lat="48.22406" lon="7.30443">
        <ele>489.7</ele>
        <time>2000-01-01T22:17:45.000Z</time>
      </trkpt>
      <trkpt lat="48.22404" lon="7.30441">
        <ele>490</ele>
        <time>2000-01-01T22:17:55.000Z</time>
      </trkpt>
      <trkpt lat="48.22384" lon="7.30442">
        <ele>479</ele>
        <time>2000-01-01T22:18:05.000Z</time>
      </trkpt>
      <trkpt lat="48.22377" lon="7.30441">
        <ele>490.7</ele>
        <time>2000-01-01T22:18:15.000Z</time>
      </trkpt>
      <trkpt lat="48.22372" lon="7.30438">
        <ele>491.3</ele>
        <time>2000-01-01T22:18:25.000Z</time>
      </trkpt>
      <trkpt lat="48.22359" lon="7.30435">
        <ele>480</ele>
        <time>2000-01-01T22:18:35.000Z</time>
      </trkpt>
      <trkpt lat="48.22353" lon="7.30433">
        <ele>493.8</ele>
        <time>2000-01-01T22:18:45.000Z</time>
      </trkpt>
      <trkpt lat="48.22344" lon="7.30435">
        <ele>494.6</ele>
        <time>2000-01-01T22:18:55.000Z</time>
      </trkpt>
      <trkpt lat="48.22332" lon="7.30443">
        <ele>479</ele>
        <time>2000-01-01T22:19:05.000Z</time>
      </trkpt>
      <trkpt lat="48.22332" lon="7.30446">
        <ele>501.2</ele>
        <time>2000-01-01T22:19:15.000Z</time>
      </trkpt>
      <trkpt lat="48.22344" lon="7.30472">
        <ele>481</ele>
        <time>2000-01-01T22:19:25.000Z</time>
      </trkpt>
      <trkpt lat="48.22341" lon="7.30483">
        <ele>487.8</ele>
        <time>2000-01-01T22:19:35.000Z</time>
      </trkpt>
      <trkpt lat="48.22336" lon="7.30492">
        <ele>486.9</ele>
        <time>2000-01-01T22:19:45.000Z</time>
      </trkpt>
      <trkpt lat="48.22318" lon="7.30514">
        <ele>484</ele>
        <time>2000-01-01T22:19:55.000Z</time>
      </trkpt>
      <trkpt lat="48.22315" lon="7.30524">
        <ele>493.4</ele>
        <time>2000-01-01T22:20:05.000Z</time>
      </trkpt>
      <trkpt lat="48.22314" lon="7.30528">
        <ele>493.7</ele>
        <time>2000-01-01T22:20:15.000Z</time>
      </trkpt>
      <trkpt lat="48.22303" lon="7.30542">
        <ele>484</ele>
        <time>2000-01-01T22:20:25.000Z</time>
      </trkpt>
      <trkpt lat="48.22297" lon="7.30553">
        <ele>495.8</ele>
        <time>2000-01-01T22:20:35.000Z</time>
      </trkpt>
      <trkpt lat="48.22297" lon="7.30557">
        <ele>495.6</ele>
        <time>2000-01-01T22:20:45.000Z</time>
      </trkpt>
      <trkpt lat="48.22299" lon="7.30564">
        <ele>485</ele>
        <time>2000-01-01T22:20:55.000Z</time>
      </trkpt>
      <trkpt lat="48.223" lon="7.30566">
        <ele>494.7</ele>
        <time>2000-01-01T22:21:05.000Z</time>
      </trkpt>
      <trkpt lat="48.22301" lon="7.30584">
        <ele>493.6</ele>
        <time>2000-01-01T22:21:15.000Z</time>
      </trkpt>
      <trkpt lat="48.22305" lon="7.30593">
        <ele>486</ele>
        <time>2000-01-01T22:21:25.000Z</time>
      </trkpt>
      <trkpt lat="48.22306" lon="7.30597">
        <ele>492.8</ele>
        <time>2000-01-01T22:21:35.000Z</time>
      </trkpt>
      <trkpt lat="48.22307" lon="7.30604">
        <ele>493.1</ele>
        <time>2000-01-01T22:21:45.000Z</time>
      </trkpt>
      <trkpt lat="48.22307" lon="7.30624">
        <ele>492</ele>
        <time>2000-01-01T22:21:55.000Z</time>
      </trkpt>
      <trkpt lat="48.22301" lon="7.30641">
        <ele>495.3</ele>
        <time>2000-01-01T22:22:05.000Z</time>
      </trkpt>
      <trkpt lat="48.22295" lon="7.30657">
        <ele>494</ele>
        <time>2000-01-01T22:22:15.000Z</time>
      </trkpt>
      <trkpt lat="48.22291" lon="7.30668">
        <ele>496.7</ele>
        <time>2000-01-01T22:22:25.000Z</time>
      </trkpt>
      <trkpt lat="48.2229" lon="7.3067">
        <ele>496.9</ele>
        <time>2000-01-01T22:22:35.000Z</time>
      </trkpt>
      <trkpt lat="48.22279" lon="7.30684">
        <ele>495</ele>
        <time>2000-01-01T22:22:45.000Z</time>
      </trkpt>
      <trkpt lat="48.22273" lon="7.30696">
        <ele>498.5</ele>
        <time>2000-01-01T22:22:55.000Z</time>
      </trkpt>
      <trkpt lat="48.22269" lon="7.30701">
        <ele>498.6</ele>
        <time>2000-01-01T22:23:05.000Z</time>
      </trkpt>
      <trkpt lat="48.22261" lon="7.30713">
        <ele>497</ele>
        <time>2000-01-01T22:23:15.000Z</time>
      </trkpt>
      <trkpt lat="48.2226" lon="7.30714">
        <ele>498.7</ele>
        <time>2000-01-01T22:23:25.000Z</time>
      </trkpt>
      <trkpt lat="48.22249" lon="7.30724">
        <ele>507.2</ele>
        <time>2000-01-01T22:23:35.000Z</time>
      </trkpt>
      <trkpt lat="48.2223" lon="7.30743">
        <ele>501</ele>
        <time>2000-01-01T22:23:45.000Z</time>
      </trkpt>
      <trkpt lat="48.22218" lon="7.30753">
        <ele>500.7</ele>
        <time>2000-01-01T22:23:55.000Z</time>
      </trkpt>
      <trkpt lat="48.22209" lon="7.30758">
        <ele>501</ele>
        <time>2000-01-01T22:24:05.000Z</time>
      </trkpt>
      <trkpt lat="48.22199" lon="7.30764">
        <ele>501.2</ele>
        <time>2000-01-01T22:24:15.000Z</time>
      </trkpt>
      <trkpt lat="48.2218" lon="7.30772">
        <ele>501</ele>
        <time>2000-01-01T22:24:25.000Z</time>
      </trkpt>
      <trkpt lat="48.22169" lon="7.30774">
        <ele>502.1</ele>
        <time>2000-01-01T22:24:35.000Z</time>
      </trkpt>
      <trkpt lat="48.22158" lon="7.30776">
        <ele>503</ele>
        <time>2000-01-01T22:24:45.000Z</time>
      </trkpt>
      <trkpt lat="48.22154" lon="7.30778">
        <ele>502.4</ele>
        <time>2000-01-01T22:24:55.000Z</time>
      </trkpt>
      <trkpt lat="48.22133" lon="7.30765">
        <ele>503</ele>
        <time>2000-01-01T22:25:05.000Z</time>
      </trkpt>
      <trkpt lat="48.22132" lon="7.30764">
        <ele>502.7</ele>
        <time>2000-01-01T22:25:15.000Z</time>
      </trkpt>
      <trkpt lat="48.22121" lon="7.30752">
        <ele>502.8</ele>
        <time>2000-01-01T22:25:25.000Z</time>
      </trkpt>
      <trkpt lat="48.22101" lon="7.30736">
        <ele>500</ele>
        <time>2000-01-01T22:25:35.000Z</time>
      </trkpt>
      <trkpt lat="48.22099" lon="7.30734">
        <ele>511.5</ele>
        <time>2000-01-01T22:25:45.000Z</time>
      </trkpt>
      <trkpt lat="48.22082" lon="7.30724">
        <ele>498</ele>
        <time>2000-01-01T22:25:55.000Z</time>
      </trkpt>
      <trkpt lat="48.22071" lon="7.30719">
        <ele>516.4</ele>
        <time>2000-01-01T22:26:05.000Z</time>
      </trkpt>
      <trkpt lat="48.22062" lon="7.30714">
        <ele>498</ele>
        <time>2000-01-01T22:26:15.000Z</time>
      </trkpt>
      <trkpt lat="48.22053" lon="7.3071">
        <ele>518.6</ele>
        <time>2000-01-01T22:26:25.000Z</time>
      </trkpt>
      <trkpt lat="48.22038" lon="7.30696">
        <ele>498</ele>
        <time>2000-01-01T22:26:35.000Z</time>
      </trkpt>
      <trkpt lat="48.22033" lon="7.30692">
        <ele>520.7</ele>
        <time>2000-01-01T22:26:45.000Z</time>
      </trkpt>
      <trkpt lat="48.22029" lon="7.3069">
        <ele>520.9</ele>
        <time>2000-01-01T22:26:55.000Z</time>
      </trkpt>
      <trkpt lat="48.22014" lon="7.30685">
        <ele>498</ele>
        <time>2000-01-01T22:27:05.000Z</time>
      </trkpt>
      <trkpt lat="48.22009" lon="7.30692">
        <ele>521.5</ele>
        <time>2000-01-01T22:27:15.000Z</time>
      </trkpt>
      <trkpt lat="48.22026" lon="7.30706">
        <ele>497</ele>
        <time>2000-01-01T22:27:25.000Z</time>
      </trkpt>
      <trkpt lat="48.22032" lon="7.30713">
        <ele>519.3</ele>
        <time>2000-01-01T22:27:35.000Z</time>
      </trkpt>
      <trkpt lat="48.22038" lon="7.3073">
        <ele>497</ele>
        <time>2000-01-01T22:27:45.000Z</time>
      </trkpt>
      <trkpt lat="48.22045" lon="7.30747">
        <ele>516.3</ele>
        <time>2000-01-01T22:27:55.000Z</time>
      </trkpt>
      <trkpt lat="48.22044" lon="7.30755">
        <ele>497</ele>
        <time>2000-01-01T22:28:05.000Z</time>
      </trkpt>
      <trkpt lat="48.22043" lon="7.30758">
        <ele>510.3</ele>
        <time>2000-01-01T22:28:15.000Z</time>
      </trkpt>
      <trkpt lat="48.22043" lon="7.30787">
        <ele>500</ele>
        <time>2000-01-01T22:28:25.000Z</time>
      </trkpt>
      <trkpt lat="48.22036" lon="7.30826">
        <ele>501</ele>
        <time>2000-01-01T22:28:35.000Z</time>
      </trkpt>
      <trkpt lat="48.22033" lon="7.30842">
        <ele>504.8</ele>
        <time>2000-01-01T22:28:45.000Z</time>
      </trkpt>
      <trkpt lat="48.22032" lon="7.30846">
        <ele>504.8</ele>
        <time>2000-01-01T22:28:55.000Z</time>
      </trkpt>
      <trkpt lat="48.22026" lon="7.3086">
        <ele>502</ele>
        <time>2000-01-01T22:29:05.000Z</time>
      </trkpt>
      <trkpt lat="48.22018" lon="7.30879">
        <ele>503.9</ele>
        <time>2000-01-01T22:29:15.000Z</time>
      </trkpt>
      <trkpt lat="48.22015" lon="7.30888">
        <ele>502</ele>
        <time>2000-01-01T22:29:25.000Z</time>
      </trkpt>
      <trkpt lat="48.2201" lon="7.30907">
        <ele>504.6</ele>
        <time>2000-01-01T22:29:35.000Z</time>
      </trkpt>
      <trkpt lat="48.21999" lon="7.30923">
        <ele>502</ele>
        <time>2000-01-01T22:29:45.000Z</time>
      </trkpt>
      <trkpt lat="48.21993" lon="7.30933">
        <ele>508</ele>
        <time>2000-01-01T22:29:55.000Z</time>
      </trkpt>
      <trkpt lat="48.21987" lon="7.30944">
        <ele>503</ele>
        <time>2000-01-01T22:30:05.000Z</time>
      </trkpt>
      <trkpt lat="48.21967" lon="7.30961">
        <ele>503</ele>
        <time>2000-01-01T22:30:15.000Z</time>
      </trkpt>
      <trkpt lat="48.21962" lon="7.30964">
        <ele>508.5</ele>
        <time>2000-01-01T22:30:25.000Z</time>
      </trkpt>
      <trkpt lat="48.2194" lon="7.30985">
        <ele>503</ele>
        <time>2000-01-01T22:30:35.000Z</time>
      </trkpt>
      <trkpt lat="48.21929" lon="7.3099">
        <ele>508</ele>
        <time>2000-01-01T22:30:45.000Z</time>
      </trkpt>
      <trkpt lat="48.21917" lon="7.30995">
        <ele>503</ele>
        <time>2000-01-01T22:30:55.000Z</time>
      </trkpt>
      <trkpt lat="48.21903" lon="7.30993">
        <ele>507.3</ele>
        <time>2000-01-01T22:31:05.000Z</time>
      </trkpt>
      <trkpt lat="48.21894" lon="7.30985">
        <ele>502</ele>
        <time>2000-01-01T22:31:15.000Z</time>
      </trkpt>
      <trkpt lat="48.21877" lon="7.30974">
        <ele>502</ele>
        <time>2000-01-01T22:31:25.000Z</time>
      </trkpt>
      <trkpt lat="48.2186" lon="7.30965">
        <ele>506.8</ele>
        <time>2000-01-01T22:31:35.000Z</time>
      </trkpt>
      <trkpt lat="48.21842" lon="7.30954">
        <ele>499</ele>
        <time>2000-01-01T22:31:45.000Z</time>
      </trkpt>
      <trkpt lat="48.2183" lon="7.30934">
        <ele>499</ele>
        <time>2000-01-01T22:31:55.000Z</time>
      </trkpt>
      <trkpt lat="48.21824" lon="7.30925">
        <ele>507.9</ele>
        <time>2000-01-01T22:32:05.000Z</time>
      </trkpt>
      <trkpt lat="48.21816" lon="7.30901">
        <ele>499</ele>
        <time>2000-01-01T22:32:15.000Z</time>
      </trkpt>
      <trkpt lat="48.21806" lon="7.30891">
        <ele>520.7</ele>
        <time>2000-01-01T22:32:25.000Z</time>
      </trkpt>
      <trkpt lat="48.2179" lon="7.30889">
        <ele>501</ele>
        <time>2000-01-01T22:32:35.000Z</time>
      </trkpt>
      <trkpt lat="48.21769" lon="7.309">
        <ele>500</ele>
        <time>2000-01-01T22:32:45.000Z</time>
      </trkpt>
      <trkpt lat="48.21752" lon="7.30906">
        <ele>501</ele>
        <time>2000-01-01T22:32:55.000Z</time>
      </trkpt>
      <trkpt lat="48.2174" lon="7.30908">
        <ele>509.3</ele>
        <time>2000-01-01T22:33:05.000Z</time>
      </trkpt>
      <trkpt lat="48.21727" lon="7.30912">
        <ele>503</ele>
        <time>2000-01-01T22:33:15.000Z</time>
      </trkpt>
      <trkpt lat="48.21723" lon="7.30912">
        <ele>509.9</ele>
        <time>2000-01-01T22:33:25.000Z</time>
      </trkpt>
      <trkpt lat="48.2172" lon="7.30913">
        <ele>509.8</ele>
        <time>2000-01-01T22:33:35.000Z</time>
      </trkpt>
      <trkpt lat="48.2171" lon="7.30908">
        <ele>509.6</ele>
        <time>2000-01-01T22:33:45.000Z</time>
      </trkpt>
      <trkpt lat="48.21691" lon="7.30892">
        <ele>506</ele>
        <time>2000-01-01T22:33:55.000Z</time>
      </trkpt>
      <trkpt lat="48.21674" lon="7.30869">
        <ele>506</ele>
        <time>2000-01-01T22:34:05.000Z</time>
      </trkpt>
      <trkpt lat="48.21663" lon="7.30842">
        <ele>506</ele>
        <time>2000-01-01T22:34:15.000Z</time>
      </trkpt>
      <trkpt lat="48.21656" lon="7.30823">
        <ele>516.4</ele>
        <time>2000-01-01T22:34:25.000Z</time>
      </trkpt>
      <trkpt lat="48.21654" lon="7.30818">
        <ele>507</ele>
        <time>2000-01-01T22:34:35.000Z</time>
      </trkpt>
      <trkpt lat="48.21646" lon="7.30788">
        <ele>510</ele>
        <time>2000-01-01T22:34:45.000Z</time>
      </trkpt>
      <trkpt lat="48.21643" lon="7.30782">
        <ele>518.1</ele>
        <time>2000-01-01T22:34:55.000Z</time>
      </trkpt>
      <trkpt lat="48.21632" lon="7.30754">
        <ele>510</ele>
        <time>2000-01-01T22:35:05.000Z</time>
      </trkpt>
      <trkpt lat="48.21624" lon="7.30727">
        <ele>510</ele>
        <time>2000-01-01T22:35:15.000Z</time>
      </trkpt>
      <trkpt lat="48.21618" lon="7.30715">
        <ele>536.2</ele>
        <time>2000-01-01T22:35:25.000Z</time>
      </trkpt>
      <trkpt lat="48.21617" lon="7.30714">
        <ele>536.2</ele>
        <time>2000-01-01T22:35:35.000Z</time>
      </trkpt>
      <trkpt lat="48.216" lon="7.30711">
        <ele>513</ele>
        <time>2000-01-01T22:35:45.000Z</time>
      </trkpt>
      <trkpt lat="48.21598" lon="7.30716">
        <ele>532.8</ele>
        <time>2000-01-01T22:35:55.000Z</time>
      </trkpt>
      <trkpt lat="48.21597" lon="7.3072">
        <ele>531.4</ele>
        <time>2000-01-01T22:36:05.000Z</time>
      </trkpt>
      <trkpt lat="48.21598" lon="7.30712">
        <ele>533.9</ele>
        <time>2000-01-01T22:36:15.000Z</time>
      </trkpt>
      <trkpt lat="48.21588" lon="7.30702">
        <ele>513</ele>
        <time>2000-01-01T22:36:25.000Z</time>
      </trkpt>
      <trkpt lat="48.2159" lon="7.30714">
        <ele>532.5</ele>
        <time>2000-01-01T22:36:35.000Z</time>
      </trkpt>
      <trkpt lat="48.21588" lon="7.30723">
        <ele>529.1</ele>
        <time>2000-01-01T22:36:45.000Z</time>
      </trkpt>
      <trkpt lat="48.21586" lon="7.30723">
        <ele>528.9</ele>
        <time>2000-01-01T22:36:55.000Z</time>
      </trkpt>
      <trkpt lat="48.21578" lon="7.30716">
        <ele>513</ele>
        <time>2000-01-01T22:37:05.000Z</time>
      </trkpt>
      <trkpt lat="48.21576" lon="7.30716">
        <ele>518.9</ele>
        <time>2000-01-01T22:37:15.000Z</time>
      </trkpt>
      <trkpt lat="48.21569" lon="7.30718">
        <ele>518.2</ele>
        <time>2000-01-01T22:37:25.000Z</time>
      </trkpt>
      <trkpt lat="48.21568" lon="7.30719">
        <ele>517.9</ele>
        <time>2000-01-01T22:37:35.000Z</time>
      </trkpt>
      <trkpt lat="48.21561" lon="7.30722">
        <ele>513</ele>
        <time>2000-01-01T22:37:45.000Z</time>
      </trkpt>
      <trkpt lat="48.21559" lon="7.30723">
        <ele>516.8</ele>
        <time>2000-01-01T22:37:55.000Z</time>
      </trkpt>
      <trkpt lat="48.21541" lon="7.30724">
        <ele>513</ele>
        <time>2000-01-01T22:38:05.000Z</time>
      </trkpt>
      <trkpt lat="48.21533" lon="7.30712">
        <ele>516.8</ele>
        <time>2000-01-01T22:38:15.000Z</time>
      </trkpt>
      <trkpt lat="48.21527" lon="7.30706">
        <ele>513</ele>
        <time>2000-01-01T22:38:25.000Z</time>
      </trkpt>
      <trkpt lat="48.21523" lon="7.30702">
        <ele>517.9</ele>
        <time>2000-01-01T22:38:35.000Z</time>
      </trkpt>
      <trkpt lat="48.21514" lon="7.30692">
        <ele>519.4</ele>
        <time>2000-01-01T22:38:45.000Z</time>
      </trkpt>
      <trkpt lat="48.21512" lon="7.3069">
        <ele>514</ele>
        <time>2000-01-01T22:38:55.000Z</time>
      </trkpt>
      <trkpt lat="48.21506" lon="7.30679">
        <ele>522</ele>
        <time>2000-01-01T22:39:05.000Z</time>
      </trkpt>
      <trkpt lat="48.21488" lon="7.30651">
        <ele>519</ele>
        <time>2000-01-01T22:39:15.000Z</time>
      </trkpt>
      <trkpt lat="48.21481" lon="7.30629">
        <ele>528.9</ele>
        <time>2000-01-01T22:39:25.000Z</time>
      </trkpt>
      <trkpt lat="48.21477" lon="7.30624">
        <ele>522</ele>
        <time>2000-01-01T22:39:35.000Z</time>
      </trkpt>
      <trkpt lat="48.21467" lon="7.30614">
        <ele>529.5</ele>
        <time>2000-01-01T22:39:45.000Z</time>
      </trkpt>
      <trkpt lat="48.21454" lon="7.30598">
        <ele>522</ele>
        <time>2000-01-01T22:39:55.000Z</time>
      </trkpt>
      <trkpt lat="48.2144" lon="7.30577">
        <ele>522</ele>
        <time>2000-01-01T22:40:05.000Z</time>
      </trkpt>
      <trkpt lat="48.21424" lon="7.30556">
        <ele>525</ele>
        <time>2000-01-01T22:40:15.000Z</time>
      </trkpt>
      <trkpt lat="48.21417" lon="7.30532">
        <ele>542.5</ele>
        <time>2000-01-01T22:40:25.000Z</time>
      </trkpt>
      <trkpt lat="48.21417" lon="7.30506">
        <ele>527</ele>
        <time>2000-01-01T22:40:35.000Z</time>
      </trkpt>
      <trkpt lat="48.21418" lon="7.30476">
        <ele>527</ele>
        <time>2000-01-01T22:40:45.000Z</time>
      </trkpt>
      <trkpt lat="48.21419" lon="7.30454">
        <ele>557.1</ele>
        <time>2000-01-01T22:40:55.000Z</time>
      </trkpt>
      <trkpt lat="48.21417" lon="7.30417">
        <ele>529</ele>
        <time>2000-01-01T22:41:05.000Z</time>
      </trkpt>
      <trkpt lat="48.21418" lon="7.30408">
        <ele>558</ele>
        <time>2000-01-01T22:41:15.000Z</time>
      </trkpt>
      <trkpt lat="48.2142" lon="7.30384">
        <ele>532</ele>
        <time>2000-01-01T22:41:25.000Z</time>
      </trkpt>
      <trkpt lat="48.21418" lon="7.30354">
        <ele>534</ele>
        <time>2000-01-01T22:41:35.000Z</time>
      </trkpt>
      <trkpt lat="48.21415" lon="7.30325">
        <ele>536</ele>
        <time>2000-01-01T22:41:45.000Z</time>
      </trkpt>
      <trkpt lat="48.21414" lon="7.30317">
        <ele>566.8</ele>
        <time>2000-01-01T22:41:55.000Z</time>
      </trkpt>
      <trkpt lat="48.21413" lon="7.30304">
        <ele>570.1</ele>
        <time>2000-01-01T22:42:05.000Z</time>
      </trkpt>
      <trkpt lat="48.21412" lon="7.30276">
        <ele>540</ele>
        <time>2000-01-01T22:42:15.000Z</time>
      </trkpt>
      <trkpt lat="48.21411" lon="7.30264">
        <ele>573.5</ele>
        <time>2000-01-01T22:42:25.000Z</time>
      </trkpt>
      <trkpt lat="48.21412" lon="7.30257">
        <ele>573.1</ele>
        <time>2000-01-01T22:42:35.000Z</time>
      </trkpt>
      <trkpt lat="48.21408" lon="7.3023">
        <ele>543</ele>
        <time>2000-01-01T22:42:45.000Z</time>
      </trkpt>
      <trkpt lat="48.21407" lon="7.30225">
        <ele>582.8</ele>
        <time>2000-01-01T22:42:55.000Z</time>
      </trkpt>
      <trkpt lat="48.21403" lon="7.3022">
        <ele>584.1</ele>
        <time>2000-01-01T22:43:05.000Z</time>
      </trkpt>
      <trkpt lat="48.21388" lon="7.30226">
        <ele>545</ele>
        <time>2000-01-01T22:43:15.000Z</time>
      </trkpt>
      <trkpt lat="48.21388" lon="7.30233">
        <ele>584.8</ele>
        <time>2000-01-01T22:43:25.000Z</time>
      </trkpt>
      <trkpt lat="48.21387" lon="7.30253">
        <ele>548</ele>
        <time>2000-01-01T22:43:35.000Z</time>
      </trkpt>
      <trkpt lat="48.21378" lon="7.30276">
        <ele>576.6</ele>
        <time>2000-01-01T22:43:45.000Z</time>
      </trkpt>
      <trkpt lat="48.21375" lon="7.30279">
        <ele>549</ele>
        <time>2000-01-01T22:43:55.000Z</time>
      </trkpt>
      <trkpt lat="48.21371" lon="7.30283">
        <ele>577</ele>
        <time>2000-01-01T22:44:05.000Z</time>
      </trkpt>
      <trkpt lat="48.21366" lon="7.3029">
        <ele>577</ele>
        <time>2000-01-01T22:44:15.000Z</time>
      </trkpt>
      <trkpt lat="48.21361" lon="7.30302">
        <ele>550</ele>
        <time>2000-01-01T22:44:25.000Z</time>
      </trkpt>
      <trkpt lat="48.21356" lon="7.30316">
        <ele>576.2</ele>
        <time>2000-01-01T22:44:35.000Z</time>
      </trkpt>
      <trkpt lat="48.21352" lon="7.3033">
        <ele>554</ele>
        <time>2000-01-01T22:44:45.000Z</time>
      </trkpt>
      <trkpt lat="48.2135" lon="7.30333">
        <ele>576.4</ele>
        <time>2000-01-01T22:44:55.000Z</time>
      </trkpt>
      <trkpt lat="48.2134" lon="7.3035">
        <ele>552</ele>
        <time>2000-01-01T22:45:05.000Z</time>
      </trkpt>
      <trkpt lat="48.21332" lon="7.30378">
        <ele>558</ele>
        <time>2000-01-01T22:45:15.000Z</time>
      </trkpt>
      <trkpt lat="48.21322" lon="7.30397">
        <ele>579.6</ele>
        <time>2000-01-01T22:45:25.000Z</time>
      </trkpt>
      <trkpt lat="48.2132" lon="7.30398">
        <ele>558</ele>
        <time>2000-01-01T22:45:35.000Z</time>
      </trkpt>
      <trkpt lat="48.21316" lon="7.30413">
        <ele>577.4</ele>
        <time>2000-01-01T22:45:45.000Z</time>
      </trkpt>
      <trkpt lat="48.21314" lon="7.30424">
        <ele>559</ele>
        <time>2000-01-01T22:45:55.000Z</time>
      </trkpt>
      <trkpt lat="48.21309" lon="7.30436">
        <ele>571.3</ele>
        <time>2000-01-01T22:46:05.000Z</time>
      </trkpt>
      <trkpt lat="48.213" lon="7.30468">
        <ele>560</ele>
        <time>2000-01-01T22:46:15.000Z</time>
      </trkpt>
      <trkpt lat="48.2129" lon="7.30487">
        <ele>572.2</ele>
        <time>2000-01-01T22:46:25.000Z</time>
      </trkpt>
      <trkpt lat="48.21285" lon="7.30498">
        <ele>560</ele>
        <time>2000-01-01T22:46:35.000Z</time>
      </trkpt>
      <trkpt lat="48.21276" lon="7.30526">
        <ele>560</ele>
        <time>2000-01-01T22:46:45.000Z</time>
      </trkpt>
      <trkpt lat="48.21276" lon="7.30546">
        <ele>565.9</ele>
        <time>2000-01-01T22:46:55.000Z</time>
      </trkpt>
      <trkpt lat="48.21277" lon="7.30551">
        <ele>565.5</ele>
        <time>2000-01-01T22:47:05.000Z</time>
      </trkpt>
      <trkpt lat="48.21277" lon="7.30558">
        <ele>561</ele>
        <time>2000-01-01T22:47:15.000Z</time>
      </trkpt>
      <trkpt lat="48.2128" lon="7.30572">
        <ele>565.1</ele>
        <time>2000-01-01T22:47:25.000Z</time>
      </trkpt>
      <trkpt lat="48.2128" lon="7.30586">
        <ele>563</ele>
        <time>2000-01-01T22:47:35.000Z</time>
      </trkpt>
      <trkpt lat="48.21276" lon="7.30598">
        <ele>563.8</ele>
        <time>2000-01-01T22:47:45.000Z</time>
      </trkpt>
      <trkpt lat="48.21275" lon="7.30609">
        <ele>563.1</ele>
        <time>2000-01-01T22:47:55.000Z</time>
      </trkpt>
      <trkpt lat="48.2127" lon="7.30618">
        <ele>564</ele>
        <time>2000-01-01T22:48:05.000Z</time>
      </trkpt>
      <trkpt lat="48.21269" lon="7.30622">
        <ele>563.5</ele>
        <time>2000-01-01T22:48:15.000Z</time>
      </trkpt>
      <trkpt lat="48.21264" lon="7.30635">
        <ele>564.4</ele>
        <time>2000-01-01T22:48:25.000Z</time>
      </trkpt>
      <trkpt lat="48.21261" lon="7.3064">
        <ele>565.3</ele>
        <time>2000-01-01T22:48:35.000Z</time>
      </trkpt>
      <trkpt lat="48.21256" lon="7.30642">
        <ele>570</ele>
        <time>2000-01-01T22:48:45.000Z</time>
      </trkpt>
      <trkpt lat="48.21244" lon="7.30648">
        <ele>575.4</ele>
        <time>2000-01-01T22:48:55.000Z</time>
      </trkpt>
      <trkpt lat="48.21239" lon="7.30652">
        <ele>570</ele>
        <time>2000-01-01T22:49:05.000Z</time>
      </trkpt>
      <trkpt lat="48.21234" lon="7.30669">
        <ele>570.6</ele>
        <time>2000-01-01T22:49:15.000Z</time>
      </trkpt>
      <trkpt lat="48.21234" lon="7.30685">
        <ele>570</ele>
        <time>2000-01-01T22:49:25.000Z</time>
      </trkpt>
      <trkpt lat="48.21241" lon="7.3071">
        <ele>569</ele>
        <time>2000-01-01T22:49:35.000Z</time>
      </trkpt>
      <trkpt lat="48.21249" lon="7.30725">
        <ele>568.1</ele>
        <time>2000-01-01T22:49:45.000Z</time>
      </trkpt>
      <trkpt lat="48.21264" lon="7.30755">
        <ele>568</ele>
        <time>2000-01-01T22:49:55.000Z</time>
      </trkpt>
      <trkpt lat="48.21272" lon="7.30785">
        <ele>566</ele>
        <time>2000-01-01T22:50:05.000Z</time>
      </trkpt>
      <trkpt lat="48.21277" lon="7.30811">
        <ele>564</ele>
        <time>2000-01-01T22:50:15.000Z</time>
      </trkpt>
      <trkpt lat="48.2128" lon="7.30827">
        <ele>559</ele>
        <time>2000-01-01T22:50:25.000Z</time>
      </trkpt>
      <trkpt lat="48.21284" lon="7.30854">
        <ele>564</ele>
        <time>2000-01-01T22:50:35.000Z</time>
      </trkpt>
      <trkpt lat="48.21286" lon="7.30887">
        <ele>562</ele>
        <time>2000-01-01T22:50:45.000Z</time>
      </trkpt>
      <trkpt lat="48.21291" lon="7.3091">
        <ele>557.4</ele>
        <time>2000-01-01T22:50:55.000Z</time>
      </trkpt>
      <trkpt lat="48.21295" lon="7.30937">
        <ele>562</ele>
        <time>2000-01-01T22:51:05.000Z</time>
      </trkpt>
      <trkpt lat="48.21297" lon="7.30948">
        <ele>554.8</ele>
        <time>2000-01-01T22:51:15.000Z</time>
      </trkpt>
      <trkpt lat="48.21299" lon="7.30959">
        <ele>554.6</ele>
        <time>2000-01-01T22:51:25.000Z</time>
      </trkpt>
      <trkpt lat="48.21311" lon="7.30991">
        <ele>562</ele>
        <time>2000-01-01T22:51:35.000Z</time>
      </trkpt>
      <trkpt lat="48.21319" lon="7.31019">
        <ele>561</ele>
        <time>2000-01-01T22:51:45.000Z</time>
      </trkpt>
      <trkpt lat="48.21324" lon="7.31046">
        <ele>561</ele>
        <time>2000-01-01T22:51:55.000Z</time>
      </trkpt>
      <trkpt lat="48.21328" lon="7.31066">
        <ele>553.9</ele>
        <time>2000-01-01T22:52:05.000Z</time>
      </trkpt>
      <trkpt lat="48.21336" lon="7.31099">
        <ele>560</ele>
        <time>2000-01-01T22:52:15.000Z</time>
      </trkpt>
      <trkpt lat="48.21338" lon="7.31132">
        <ele>559</ele>
        <time>2000-01-01T22:52:25.000Z</time>
      </trkpt>
      <trkpt lat="48.21341" lon="7.31156">
        <ele>552.2</ele>
        <time>2000-01-01T22:52:35.000Z</time>
      </trkpt>
      <trkpt lat="48.21348" lon="7.31184">
        <ele>558</ele>
        <time>2000-01-01T22:52:45.000Z</time>
      </trkpt>
      <trkpt lat="48.21351" lon="7.31203">
        <ele>545.7</ele>
        <time>2000-01-01T22:52:55.000Z</time>
      </trkpt>
      <trkpt lat="48.21356" lon="7.31222">
        <ele>554</ele>
        <time>2000-01-01T22:53:05.000Z</time>
      </trkpt>
      <trkpt lat="48.21367" lon="7.31253">
        <ele>554</ele>
        <time>2000-01-01T22:53:15.000Z</time>
      </trkpt>
      <trkpt lat="48.2137" lon="7.31273">
        <ele>541.8</ele>
        <time>2000-01-01T22:53:25.000Z</time>
      </trkpt>
      <trkpt lat="48.21373" lon="7.31301">
        <ele>552</ele>
        <time>2000-01-01T22:53:35.000Z</time>
      </trkpt>
      <trkpt lat="48.21371" lon="7.31327">
        <ele>541.8</ele>
        <time>2000-01-01T22:53:45.000Z</time>
      </trkpt>
      <trkpt lat="48.21367" lon="7.31361">
        <ele>548</ele>
        <time>2000-01-01T22:53:55.000Z</time>
      </trkpt>
      <trkpt lat="48.21367" lon="7.31377">
        <ele>543.5</ele>
        <time>2000-01-01T22:54:05.000Z</time>
      </trkpt>
      <trkpt lat="48.21368" lon="7.31387">
        <ele>543.7</ele>
        <time>2000-01-01T22:54:15.000Z</time>
      </trkpt>
      <trkpt lat="48.21367" lon="7.314">
        <ele>550</ele>
        <time>2000-01-01T22:54:25.000Z</time>
      </trkpt>
      <trkpt lat="48.21371" lon="7.31412">
        <ele>544.1</ele>
        <time>2000-01-01T22:54:35.000Z</time>
      </trkpt>
      <trkpt lat="48.21377" lon="7.3142">
        <ele>547.3</ele>
        <time>2000-01-01T22:54:45.000Z</time>
      </trkpt>
      <trkpt lat="48.21382" lon="7.31425">
        <ele>550</ele>
        <time>2000-01-01T22:54:55.000Z</time>
      </trkpt>
      <trkpt lat="48.21388" lon="7.31433">
        <ele>548.5</ele>
        <time>2000-01-01T22:55:05.000Z</time>
      </trkpt>
      <trkpt lat="48.21385" lon="7.31442">
        <ele>548.4</ele>
        <time>2000-01-01T22:55:15.000Z</time>
      </trkpt>
      <trkpt lat="48.21367" lon="7.31461">
        <ele>549</ele>
        <time>2000-01-01T22:55:25.000Z</time>
      </trkpt>
      <trkpt lat="48.21361" lon="7.31468">
        <ele>547.3</ele>
        <time>2000-01-01T22:55:35.000Z</time>
      </trkpt>
      <trkpt lat="48.21348" lon="7.31483">
        <ele>548</ele>
        <time>2000-01-01T22:55:45.000Z</time>
      </trkpt>
      <trkpt lat="48.21347" lon="7.31485">
        <ele>546.6</ele>
        <time>2000-01-01T22:55:55.000Z</time>
      </trkpt>
      <trkpt lat="48.21339" lon="7.31495">
        <ele>545.8</ele>
        <time>2000-01-01T22:56:05.000Z</time>
      </trkpt>
      <trkpt lat="48.21333" lon="7.31512">
        <ele>547</ele>
        <time>2000-01-01T22:56:15.000Z</time>
      </trkpt>
      <trkpt lat="48.21326" lon="7.31527">
        <ele>536.2</ele>
        <time>2000-01-01T22:56:25.000Z</time>
      </trkpt>
      <trkpt lat="48.21321" lon="7.31541">
        <ele>543</ele>
        <time>2000-01-01T22:56:35.000Z</time>
      </trkpt>
      <trkpt lat="48.21317" lon="7.31554">
        <ele>535.9</ele>
        <time>2000-01-01T22:56:45.000Z</time>
      </trkpt>
      <trkpt lat="48.21312" lon="7.31564">
        <ele>536.3</ele>
        <time>2000-01-01T22:56:55.000Z</time>
      </trkpt>
      <trkpt lat="48.21306" lon="7.31585">
        <ele>534</ele>
        <time>2000-01-01T22:57:05.000Z</time>
      </trkpt>
      <trkpt lat="48.213" lon="7.31604">
        <ele>536.5</ele>
        <time>2000-01-01T22:57:15.000Z</time>
      </trkpt>
      <trkpt lat="48.21296" lon="7.31633">
        <ele>533</ele>
        <time>2000-01-01T22:57:25.000Z</time>
      </trkpt>
      <trkpt lat="48.21294" lon="7.31642">
        <ele>535.8</ele>
        <time>2000-01-01T22:57:35.000Z</time>
      </trkpt>
      <trkpt lat="48.21292" lon="7.31672">
        <ele>532</ele>
        <time>2000-01-01T22:57:45.000Z</time>
      </trkpt>
      <trkpt lat="48.21287" lon="7.31699">
        <ele>529</ele>
        <time>2000-01-01T22:57:55.000Z</time>
      </trkpt>
      <trkpt lat="48.21283" lon="7.31718">
        <ele>536.5</ele>
        <time>2000-01-01T22:58:05.000Z</time>
      </trkpt>
      <trkpt lat="48.2128" lon="7.31732">
        <ele>529</ele>
        <time>2000-01-01T22:58:15.000Z</time>
      </trkpt>
      <trkpt lat="48.21277" lon="7.31758">
        <ele>530</ele>
        <time>2000-01-01T22:58:25.000Z</time>
      </trkpt>
      <trkpt lat="48.21274" lon="7.31788">
        <ele>533</ele>
        <time>2000-01-01T22:58:35.000Z</time>
      </trkpt>
      <trkpt lat="48.21273" lon="7.31803">
        <ele>539</ele>
        <time>2000-01-01T22:58:45.000Z</time>
      </trkpt>
      <trkpt lat="48.21275" lon="7.31825">
        <ele>534</ele>
        <time>2000-01-01T22:58:55.000Z</time>
      </trkpt>
      <trkpt lat="48.21278" lon="7.3183">
        <ele>539.7</ele>
        <time>2000-01-01T22:59:05.000Z</time>
      </trkpt>
      <trkpt lat="48.21281" lon="7.31837">
        <ele>543.4</ele>
        <time>2000-01-01T22:59:15.000Z</time>
      </trkpt>
      <trkpt lat="48.21282" lon="7.31837">
        <ele>543.6</ele>
        <time>2000-01-01T22:59:25.000Z</time>
      </trkpt>
      <trkpt lat="48.21285" lon="7.3184">
        <ele>544</ele>
        <time>2000-01-01T22:59:35.000Z</time>
      </trkpt>
      <trkpt lat="48.21287" lon="7.31846">
        <ele>537</ele>
        <time>2000-01-01T22:59:45.000Z</time>
      </trkpt>
      <trkpt lat="48.2129" lon="7.31857">
        <ele>545.2</ele>
        <time>2000-01-01T22:59:55.000Z</time>
      </trkpt>
      <trkpt lat="48.2129" lon="7.31859">
        <ele>545.2</ele>
        <time>2000-01-01T23:00:05.000Z</time>
      </trkpt>
      <trkpt lat="48.21294" lon="7.3187">
        <ele>545.9</ele>
        <time>2000-01-01T23:00:15.000Z</time>
      </trkpt>
      <trkpt lat="48.21301" lon="7.3188">
        <ele>541</ele>
        <time>2000-01-01T23:00:25.000Z</time>
      </trkpt>
      <trkpt lat="48.21306" lon="7.31887">
        <ele>547.1</ele>
        <time>2000-01-01T23:00:35.000Z</time>
      </trkpt>
      <trkpt lat="48.21316" lon="7.31896">
        <ele>543</ele>
        <time>2000-01-01T23:00:45.000Z</time>
      </trkpt>
      <trkpt lat="48.21323" lon="7.31902">
        <ele>548.7</ele>
        <time>2000-01-01T23:00:55.000Z</time>
      </trkpt>
      <trkpt lat="48.21324" lon="7.31904">
        <ele>548.9</ele>
        <time>2000-01-01T23:01:05.000Z</time>
      </trkpt>
      <trkpt lat="48.21324" lon="7.31908">
        <ele>549.2</ele>
        <time>2000-01-01T23:01:15.000Z</time>
      </trkpt>
      <trkpt lat="48.21314" lon="7.31918">
        <ele>545</ele>
        <time>2000-01-01T23:01:25.000Z</time>
      </trkpt>
      <trkpt lat="48.21306" lon="7.31923">
        <ele>552.7</ele>
        <time>2000-01-01T23:01:35.000Z</time>
      </trkpt>
      <trkpt lat="48.21297" lon="7.31927">
        <ele>546</ele>
        <time>2000-01-01T23:01:45.000Z</time>
      </trkpt>
      <trkpt lat="48.21283" lon="7.31927">
        <ele>552.4</ele>
        <time>2000-01-01T23:01:55.000Z</time>
      </trkpt>
      <trkpt lat="48.21273" lon="7.31926">
        <ele>548</ele>
        <time>2000-01-01T23:02:05.000Z</time>
      </trkpt>
      <trkpt lat="48.21267" lon="7.31925">
        <ele>551.3</ele>
        <time>2000-01-01T23:02:15.000Z</time>
      </trkpt>
      <trkpt lat="48.21265" lon="7.31925">
        <ele>551.1</ele>
        <time>2000-01-01T23:02:25.000Z</time>
      </trkpt>
      <trkpt lat="48.21253" lon="7.31927">
        <ele>550</ele>
        <time>2000-01-01T23:02:35.000Z</time>
      </trkpt>
      <trkpt lat="48.21246" lon="7.3193">
        <ele>549.6</ele>
        <time>2000-01-01T23:02:45.000Z</time>
      </trkpt>
      <trkpt lat="48.21245" lon="7.3193">
        <ele>549.6</ele>
        <time>2000-01-01T23:02:55.000Z</time>
      </trkpt>
      <trkpt lat="48.21238" lon="7.31938">
        <ele>550.4</ele>
        <time>2000-01-01T23:03:05.000Z</time>
      </trkpt>
      <trkpt lat="48.21236" lon="7.3194">
        <ele>554</ele>
        <time>2000-01-01T23:03:15.000Z</time>
      </trkpt>
      <trkpt lat="48.21238" lon="7.31944">
        <ele>550.8</ele>
        <time>2000-01-01T23:03:25.000Z</time>
      </trkpt>
      <trkpt lat="48.2124" lon="7.31946">
        <ele>550.9</ele>
        <time>2000-01-01T23:03:35.000Z</time>
      </trkpt>
      <trkpt lat="48.21244" lon="7.31949">
        <ele>551.2</ele>
        <time>2000-01-01T23:03:45.000Z</time>
      </trkpt>
      <trkpt lat="48.21245" lon="7.31951">
        <ele>551.4</ele>
        <time>2000-01-01T23:03:55.000Z</time>
      </trkpt>
      <trkpt lat="48.21248" lon="7.31957">
        <ele>552</ele>
        <time>2000-01-01T23:04:05.000Z</time>
      </trkpt>
      <trkpt lat="48.21252" lon="7.31964">
        <ele>559</ele>
        <time>2000-01-01T23:04:15.000Z</time>
      </trkpt>
      <trkpt lat="48.21255" lon="7.31973">
        <ele>555.7</ele>
        <time>2000-01-01T23:04:25.000Z</time>
      </trkpt>
      <trkpt lat="48.21257" lon="7.31981">
        <ele>556.6</ele>
        <time>2000-01-01T23:04:35.000Z</time>
      </trkpt>
      <trkpt lat="48.21257" lon="7.31983">
        <ele>556.8</ele>
        <time>2000-01-01T23:04:45.000Z</time>
      </trkpt>
      <trkpt lat="48.21258" lon="7.31991">
        <ele>563</ele>
        <time>2000-01-01T23:04:55.000Z</time>
      </trkpt>
      <trkpt lat="48.2126" lon="7.31998">
        <ele>558.1</ele>
        <time>2000-01-01T23:05:05.000Z</time>
      </trkpt>
      <trkpt lat="48.21261" lon="7.32002">
        <ele>560.4</ele>
        <time>2000-01-01T23:05:15.000Z</time>
      </trkpt>
      <trkpt lat="48.21262" lon="7.32007">
        <ele>560.5</ele>
        <time>2000-01-01T23:05:25.000Z</time>
      </trkpt>
      <trkpt lat="48.21263" lon="7.32008">
        <ele>560.5</ele>
        <time>2000-01-01T23:05:35.000Z</time>
      </trkpt>
      <trkpt lat="48.21267" lon="7.32012">
        <ele>560.6</ele>
        <time>2000-01-01T23:05:45.000Z</time>
      </trkpt>
      <trkpt lat="48.21274" lon="7.32017">
        <ele>567</ele>
        <time>2000-01-01T23:05:55.000Z</time>
      </trkpt>
      <trkpt lat="48.21276" lon="7.32019">
        <ele>560.8</ele>
        <time>2000-01-01T23:06:05.000Z</time>
      </trkpt>
      <trkpt lat="48.21281" lon="7.32024">
        <ele>560.9</ele>
        <time>2000-01-01T23:06:15.000Z</time>
      </trkpt>
      <trkpt lat="48.21284" lon="7.3203">
        <ele>561</ele>
        <time>2000-01-01T23:06:25.000Z</time>
      </trkpt>
      <trkpt lat="48.21286" lon="7.32036">
        <ele>561.2</ele>
        <time>2000-01-01T23:06:35.000Z</time>
      </trkpt>
      <trkpt lat="48.21288" lon="7.3204">
        <ele>574</ele>
        <time>2000-01-01T23:06:45.000Z</time>
      </trkpt>
      <trkpt lat="48.2129" lon="7.32045">
        <ele>561.4</ele>
        <time>2000-01-01T23:06:55.000Z</time>
      </trkpt>
      <trkpt lat="48.21295" lon="7.32054">
        <ele>561.5</ele>
        <time>2000-01-01T23:07:05.000Z</time>
      </trkpt>
      <trkpt lat="48.21299" lon="7.32064">
        <ele>573</ele>
        <time>2000-01-01T23:07:15.000Z</time>
      </trkpt>
      <trkpt lat="48.21299" lon="7.32092">
        <ele>573</ele>
        <time>2000-01-01T23:07:25.000Z</time>
      </trkpt>
      <trkpt lat="48.21299" lon="7.321">
        <ele>560.4</ele>
        <time>2000-01-01T23:07:35.000Z</time>
      </trkpt>
      <trkpt lat="48.21299" lon="7.32101">
        <ele>560.3</ele>
        <time>2000-01-01T23:07:45.000Z</time>
      </trkpt>
      <trkpt lat="48.213" lon="7.32099">
        <ele>560.4</ele>
        <time>2000-01-01T23:07:55.000Z</time>
      </trkpt>
      <trkpt lat="48.21298" lon="7.32116">
        <ele>571</ele>
        <time>2000-01-01T23:08:05.000Z</time>
      </trkpt>
      <trkpt lat="48.21293" lon="7.32131">
        <ele>558.9</ele>
        <time>2000-01-01T23:08:15.000Z</time>
      </trkpt>
      <trkpt lat="48.21282" lon="7.32144">
        <ele>567</ele>
        <time>2000-01-01T23:08:25.000Z</time>
      </trkpt>
      <trkpt lat="48.21276" lon="7.32155">
        <ele>558.2</ele>
        <time>2000-01-01T23:08:35.000Z</time>
      </trkpt>
      <trkpt lat="48.21275" lon="7.32162">
        <ele>558</ele>
        <time>2000-01-01T23:08:45.000Z</time>
      </trkpt>
      <trkpt lat="48.21274" lon="7.32169">
        <ele>561</ele>
        <time>2000-01-01T23:08:55.000Z</time>
      </trkpt>
      <trkpt lat="48.21274" lon="7.3218">
        <ele>553.3</ele>
        <time>2000-01-01T23:09:05.000Z</time>
      </trkpt>
      <trkpt lat="48.21276" lon="7.3219">
        <ele>552.7</ele>
        <time>2000-01-01T23:09:15.000Z</time>
      </trkpt>
      <trkpt lat="48.21276" lon="7.32194">
        <ele>552.6</ele>
        <time>2000-01-01T23:09:25.000Z</time>
      </trkpt>
      <trkpt lat="48.21274" lon="7.3221">
        <ele>556</ele>
        <time>2000-01-01T23:09:35.000Z</time>
      </trkpt>
      <trkpt lat="48.21271" lon="7.32225">
        <ele>551.6</ele>
        <time>2000-01-01T23:09:45.000Z</time>
      </trkpt>
      <trkpt lat="48.21268" lon="7.32232">
        <ele>551.7</ele>
        <time>2000-01-01T23:09:55.000Z</time>
      </trkpt>
      <trkpt lat="48.21264" lon="7.32241">
        <ele>553</ele>
        <time>2000-01-01T23:10:05.000Z</time>
      </trkpt>
      <trkpt lat="48.2126" lon="7.32247">
        <ele>552.2</ele>
        <time>2000-01-01T23:10:15.000Z</time>
      </trkpt>
      <trkpt lat="48.21242" lon="7.3226">
        <ele>551</ele>
        <time>2000-01-01T23:10:25.000Z</time>
      </trkpt>
      <trkpt lat="48.21228" lon="7.32274">
        <ele>544.4</ele>
        <time>2000-01-01T23:10:35.000Z</time>
      </trkpt>
      <trkpt lat="48.21229" lon="7.3229">
        <ele>551</ele>
        <time>2000-01-01T23:10:45.000Z</time>
      </trkpt>
      <trkpt lat="48.21231" lon="7.323">
        <ele>543.4</ele>
        <time>2000-01-01T23:10:55.000Z</time>
      </trkpt>
      <trkpt lat="48.21235" lon="7.32313">
        <ele>543.8</ele>
        <time>2000-01-01T23:11:05.000Z</time>
      </trkpt>
      <trkpt lat="48.21237" lon="7.3232">
        <ele>551</ele>
        <time>2000-01-01T23:11:15.000Z</time>
      </trkpt>
      <trkpt lat="48.21239" lon="7.32325">
        <ele>544.7</ele>
        <time>2000-01-01T23:11:25.000Z</time>
      </trkpt>
      <trkpt lat="48.2124" lon="7.32327">
        <ele>544.9</ele>
        <time>2000-01-01T23:11:35.000Z</time>
      </trkpt>
      <trkpt lat="48.21243" lon="7.32336">
        <ele>544.2</ele>
        <time>2000-01-01T23:11:45.000Z</time>
      </trkpt>
      <trkpt lat="48.21244" lon="7.32348">
        <ele>547</ele>
        <time>2000-01-01T23:11:55.000Z</time>
      </trkpt>
      <trkpt lat="48.21246" lon="7.32365">
        <ele>539.7</ele>
        <time>2000-01-01T23:12:05.000Z</time>
      </trkpt>
      <trkpt lat="48.21247" lon="7.3238">
        <ele>544</ele>
        <time>2000-01-01T23:12:15.000Z</time>
      </trkpt>
      <trkpt lat="48.21247" lon="7.32384">
        <ele>538.6</ele>
        <time>2000-01-01T23:12:25.000Z</time>
      </trkpt>
      <trkpt lat="48.21246" lon="7.32403">
        <ele>539</ele>
        <time>2000-01-01T23:12:35.000Z</time>
      </trkpt>
      <trkpt lat="48.21244" lon="7.3242">
        <ele>540</ele>
        <time>2000-01-01T23:12:45.000Z</time>
      </trkpt>
      <trkpt lat="48.21242" lon="7.32439">
        <ele>532.7</ele>
        <time>2000-01-01T23:12:55.000Z</time>
      </trkpt>
      <trkpt lat="48.21241" lon="7.32452">
        <ele>537</ele>
        <time>2000-01-01T23:13:05.000Z</time>
      </trkpt>
      <trkpt lat="48.21239" lon="7.32468">
        <ele>529.2</ele>
        <time>2000-01-01T23:13:15.000Z</time>
      </trkpt>
      <trkpt lat="48.21239" lon="7.32474">
        <ele>528.9</ele>
        <time>2000-01-01T23:13:25.000Z</time>
      </trkpt>
      <trkpt lat="48.21239" lon="7.32496">
        <ele>532</ele>
        <time>2000-01-01T23:13:35.000Z</time>
      </trkpt>
      <trkpt lat="48.21241" lon="7.32508">
        <ele>524.6</ele>
        <time>2000-01-01T23:13:45.000Z</time>
      </trkpt>
      <trkpt lat="48.21243" lon="7.32527">
        <ele>527</ele>
        <time>2000-01-01T23:13:55.000Z</time>
      </trkpt>
      <trkpt lat="48.21243" lon="7.32537">
        <ele>519.2</ele>
        <time>2000-01-01T23:14:05.000Z</time>
      </trkpt>
      <trkpt lat="48.21245" lon="7.32554">
        <ele>517.5</ele>
        <time>2000-01-01T23:14:15.000Z</time>
      </trkpt>
      <trkpt lat="48.21245" lon="7.32569">
        <ele>522</ele>
        <time>2000-01-01T23:14:25.000Z</time>
      </trkpt>
      <trkpt lat="48.21244" lon="7.32579">
        <ele>516.7</ele>
        <time>2000-01-01T23:14:35.000Z</time>
      </trkpt>
      <trkpt lat="48.21243" lon="7.3259">
        <ele>513.1</ele>
        <time>2000-01-01T23:14:45.000Z</time>
      </trkpt>
      <trkpt lat="48.21243" lon="7.32604">
        <ele>517</ele>
        <time>2000-01-01T23:14:55.000Z</time>
      </trkpt>
      <trkpt lat="48.21244" lon="7.32611">
        <ele>508.8</ele>
        <time>2000-01-01T23:15:05.000Z</time>
      </trkpt>
      <trkpt lat="48.21248" lon="7.32629">
        <ele>506.9</ele>
        <time>2000-01-01T23:15:15.000Z</time>
      </trkpt>
      <trkpt lat="48.21253" lon="7.32648">
        <ele>511</ele>
        <time>2000-01-01T23:15:25.000Z</time>
      </trkpt>
      <trkpt lat="48.21256" lon="7.32662">
        <ele>503</ele>
        <time>2000-01-01T23:15:35.000Z</time>
      </trkpt>
      <trkpt lat="48.2126" lon="7.32678">
        <ele>508</ele>
        <time>2000-01-01T23:15:45.000Z</time>
      </trkpt>
      <trkpt lat="48.21262" lon="7.32695">
        <ele>491.4</ele>
        <time>2000-01-01T23:15:55.000Z</time>
      </trkpt>
      <trkpt lat="48.21263" lon="7.327">
        <ele>490.4</ele>
        <time>2000-01-01T23:16:05.000Z</time>
      </trkpt>
      <trkpt lat="48.21263" lon="7.32707">
        <ele>503</ele>
        <time>2000-01-01T23:16:15.000Z</time>
      </trkpt>
      <trkpt lat="48.21263" lon="7.32714">
        <ele>489.2</ele>
        <time>2000-01-01T23:16:25.000Z</time>
      </trkpt>
      <trkpt lat="48.21263" lon="7.32727">
        <ele>489.2</ele>
        <time>2000-01-01T23:16:35.000Z</time>
      </trkpt>
      <trkpt lat="48.21259" lon="7.3275">
        <ele>499</ele>
        <time>2000-01-01T23:16:45.000Z</time>
      </trkpt>
      <trkpt lat="48.21255" lon="7.32771">
        <ele>484.2</ele>
        <time>2000-01-01T23:16:55.000Z</time>
      </trkpt>
      <trkpt lat="48.21255" lon="7.32782">
        <ele>493</ele>
        <time>2000-01-01T23:17:05.000Z</time>
      </trkpt>
      <trkpt lat="48.21256" lon="7.32799">
        <ele>479.3</ele>
        <time>2000-01-01T23:17:15.000Z</time>
      </trkpt>
      <trkpt lat="48.21258" lon="7.32812">
        <ele>488</ele>
        <time>2000-01-01T23:17:25.000Z</time>
      </trkpt>
      <trkpt lat="48.21261" lon="7.32826">
        <ele>479.6</ele>
        <time>2000-01-01T23:17:35.000Z</time>
      </trkpt>
      <trkpt lat="48.21261" lon="7.3284">
        <ele>481</ele>
        <time>2000-01-01T23:17:45.000Z</time>
      </trkpt>
      <trkpt lat="48.21262" lon="7.32845">
        <ele>473.4</ele>
        <time>2000-01-01T23:17:55.000Z</time>
      </trkpt>
      <trkpt lat="48.21264" lon="7.32854">
        <ele>470.6</ele>
        <time>2000-01-01T23:18:05.000Z</time>
      </trkpt>
      <trkpt lat="48.21266" lon="7.32864">
        <ele>468.4</ele>
        <time>2000-01-01T23:18:15.000Z</time>
      </trkpt>
      <trkpt lat="48.21266" lon="7.32871">
        <ele>474</ele>
        <time>2000-01-01T23:18:25.000Z</time>
      </trkpt>
      <trkpt lat="48.21261" lon="7.32881">
        <ele>466.7</ele>
        <time>2000-01-01T23:18:35.000Z</time>
      </trkpt>
      <trkpt lat="48.21251" lon="7.32884">
        <ele>473</ele>
        <time>2000-01-01T23:18:45.000Z</time>
      </trkpt>
      <trkpt lat="48.2124" lon="7.32886">
        <ele>470.3</ele>
        <time>2000-01-01T23:18:55.000Z</time>
      </trkpt>
      <trkpt lat="48.21231" lon="7.32886">
        <ele>472</ele>
        <time>2000-01-01T23:19:05.000Z</time>
      </trkpt>
      <trkpt lat="48.21227" lon="7.32886">
        <ele>469.9</ele>
        <time>2000-01-01T23:19:15.000Z</time>
      </trkpt>
      <trkpt lat="48.21224" lon="7.32885">
        <ele>469.8</ele>
        <time>2000-01-01T23:19:25.000Z</time>
      </trkpt>
      <trkpt lat="48.21214" lon="7.32881">
        <ele>469.6</ele>
        <time>2000-01-01T23:19:35.000Z</time>
      </trkpt>
      <trkpt lat="48.21205" lon="7.32877">
        <ele>468</ele>
        <time>2000-01-01T23:19:45.000Z</time>
      </trkpt>
      <trkpt lat="48.21195" lon="7.32871">
        <ele>469.3</ele>
        <time>2000-01-01T23:19:55.000Z</time>
      </trkpt>
      <trkpt lat="48.21186" lon="7.32865">
        <ele>465</ele>
        <time>2000-01-01T23:20:05.000Z</time>
      </trkpt>
      <trkpt lat="48.21171" lon="7.32851">
        <ele>470.8</ele>
        <time>2000-01-01T23:20:15.000Z</time>
      </trkpt>
      <trkpt lat="48.21168" lon="7.32847">
        <ele>463</ele>
        <time>2000-01-01T23:20:25.000Z</time>
      </trkpt>
      <trkpt lat="48.21164" lon="7.32843">
        <ele>468.1</ele>
        <time>2000-01-01T23:20:35.000Z</time>
      </trkpt>
      <trkpt lat="48.21149" lon="7.32838">
        <ele>462</ele>
        <time>2000-01-01T23:20:45.000Z</time>
      </trkpt>
      <trkpt lat="48.21137" lon="7.32838">
        <ele>462.9</ele>
        <time>2000-01-01T23:20:55.000Z</time>
      </trkpt>
      <trkpt lat="48.21117" lon="7.3284">
        <ele>455</ele>
        <time>2000-01-01T23:21:05.000Z</time>
      </trkpt>
      <trkpt lat="48.21112" lon="7.3284">
        <ele>459.9</ele>
        <time>2000-01-01T23:21:15.000Z</time>
      </trkpt>
      <trkpt lat="48.21107" lon="7.32849">
        <ele>459.2</ele>
        <time>2000-01-01T23:21:25.000Z</time>
      </trkpt>
      <trkpt lat="48.2111" lon="7.3287">
        <ele>443</ele>
        <time>2000-01-01T23:21:35.000Z</time>
      </trkpt>
      <trkpt lat="48.21114" lon="7.32876">
        <ele>457.7</ele>
        <time>2000-01-01T23:21:45.000Z</time>
      </trkpt>
      <trkpt lat="48.21117" lon="7.32886">
        <ele>457</ele>
        <time>2000-01-01T23:21:55.000Z</time>
      </trkpt>
      <trkpt lat="48.21122" lon="7.32894">
        <ele>440</ele>
        <time>2000-01-01T23:22:05.000Z</time>
      </trkpt>
      <trkpt lat="48.21129" lon="7.32904">
        <ele>456.5</ele>
        <time>2000-01-01T23:22:15.000Z</time>
      </trkpt>
      <trkpt lat="48.21133" lon="7.32906">
        <ele>456.6</ele>
        <time>2000-01-01T23:22:25.000Z</time>
      </trkpt>
      <trkpt lat="48.21128" lon="7.32901">
        <ele>439</ele>
        <time>2000-01-01T23:22:35.000Z</time>
      </trkpt>
      <trkpt lat="48.21123" lon="7.32896">
        <ele>456.6</ele>
        <time>2000-01-01T23:22:45.000Z</time>
      </trkpt>
      <trkpt lat="48.21118" lon="7.32891">
        <ele>456.6</ele>
        <time>2000-01-01T23:22:55.000Z</time>
      </trkpt>
      <trkpt lat="48.21111" lon="7.3289">
        <ele>438</ele>
        <time>2000-01-01T23:23:05.000Z</time>
      </trkpt>
      <trkpt lat="48.21109" lon="7.32891">
        <ele>455.9</ele>
        <time>2000-01-01T23:23:15.000Z</time>
      </trkpt>
      <trkpt lat="48.21099" lon="7.32896">
        <ele>454.3</ele>
        <time>2000-01-01T23:23:25.000Z</time>
      </trkpt>
      <trkpt lat="48.21091" lon="7.32903">
        <ele>433</ele>
        <time>2000-01-01T23:23:35.000Z</time>
      </trkpt>
      <trkpt lat="48.21073" lon="7.32913">
        <ele>432</ele>
        <time>2000-01-01T23:23:45.000Z</time>
      </trkpt>
      <trkpt lat="48.21064" lon="7.32924">
        <ele>438.7</ele>
        <time>2000-01-01T23:23:55.000Z</time>
      </trkpt>
      <trkpt lat="48.21056" lon="7.32925">
        <ele>430</ele>
        <time>2000-01-01T23:24:05.000Z</time>
      </trkpt>
      <trkpt lat="48.21043" lon="7.32925">
        <ele>435</ele>
        <time>2000-01-01T23:24:15.000Z</time>
      </trkpt>
      <trkpt lat="48.21033" lon="7.32929">
        <ele>428</ele>
        <time>2000-01-01T23:24:25.000Z</time>
      </trkpt>
      <trkpt lat="48.21024" lon="7.32932">
        <ele>433.1</ele>
        <time>2000-01-01T23:24:35.000Z</time>
      </trkpt>
      <trkpt lat="48.21015" lon="7.32935">
        <ele>424</ele>
        <time>2000-01-01T23:24:45.000Z</time>
      </trkpt>
      <trkpt lat="48.20996" lon="7.32938">
        <ele>422</ele>
        <time>2000-01-01T23:24:55.000Z</time>
      </trkpt>
      <trkpt lat="48.20991" lon="7.32942">
        <ele>422.6</ele>
        <time>2000-01-01T23:25:05.000Z</time>
      </trkpt>
      <trkpt lat="48.20989" lon="7.32948">
        <ele>421.4</ele>
        <time>2000-01-01T23:25:15.000Z</time>
      </trkpt>
      <trkpt lat="48.20989" lon="7.32967">
        <ele>416</ele>
        <time>2000-01-01T23:25:25.000Z</time>
      </trkpt>
      <trkpt lat="48.20991" lon="7.32973">
        <ele>419</ele>
        <time>2000-01-01T23:25:35.000Z</time>
      </trkpt>
      <trkpt lat="48.20995" lon="7.32995">
        <ele>414</ele>
        <time>2000-01-01T23:25:45.000Z</time>
      </trkpt>
      <trkpt lat="48.20996" lon="7.32997">
        <ele>419.5</ele>
        <time>2000-01-01T23:25:55.000Z</time>
      </trkpt>
      <trkpt lat="48.21" lon="7.33005">
        <ele>418.8</ele>
        <time>2000-01-01T23:26:05.000Z</time>
      </trkpt>
      <trkpt lat="48.21006" lon="7.33009">
        <ele>417.7</ele>
        <time>2000-01-01T23:26:15.000Z</time>
      </trkpt>
      <trkpt lat="48.21018" lon="7.33021">
        <ele>407</ele>
        <time>2000-01-01T23:26:25.000Z</time>
      </trkpt>
      <trkpt lat="48.21025" lon="7.33027">
        <ele>414.8</ele>
        <time>2000-01-01T23:26:35.000Z</time>
      </trkpt>
      <trkpt lat="48.21033" lon="7.33031">
        <ele>414.6</ele>
        <time>2000-01-01T23:26:45.000Z</time>
      </trkpt>
      <trkpt lat="48.21032" lon="7.33036">
        <ele>407</ele>
        <time>2000-01-01T23:26:55.000Z</time>
      </trkpt>
      <trkpt lat="48.21022" lon="7.33035">
        <ele>413.6</ele>
        <time>2000-01-01T23:27:05.000Z</time>
      </trkpt>
      <trkpt lat="48.21015" lon="7.33035">
        <ele>413.4</ele>
        <time>2000-01-01T23:27:15.000Z</time>
      </trkpt>
      <trkpt lat="48.21008" lon="7.33038">
        <ele>404</ele>
        <time>2000-01-01T23:27:25.000Z</time>
      </trkpt>
      <trkpt lat="48.21007" lon="7.33038">
        <ele>412.6</ele>
        <time>2000-01-01T23:27:35.000Z</time>
      </trkpt>
      <trkpt lat="48.21009" lon="7.33045">
        <ele>411.3</ele>
        <time>2000-01-01T23:27:45.000Z</time>
      </trkpt>
      <trkpt lat="48.21013" lon="7.33052">
        <ele>410.1</ele>
        <time>2000-01-01T23:27:55.000Z</time>
      </trkpt>
      <trkpt lat="48.21019" lon="7.3306">
        <ele>398</ele>
        <time>2000-01-01T23:28:05.000Z</time>
      </trkpt>
      <trkpt lat="48.21027" lon="7.33068">
        <ele>408.9</ele>
        <time>2000-01-01T23:28:15.000Z</time>
      </trkpt>
      <trkpt lat="48.21041" lon="7.33079">
        <ele>396</ele>
        <time>2000-01-01T23:28:25.000Z</time>
      </trkpt>
      <trkpt lat="48.21051" lon="7.3309">
        <ele>397.2</ele>
        <time>2000-01-01T23:28:35.000Z</time>
      </trkpt>
      <trkpt lat="48.21058" lon="7.331">
        <ele>387</ele>
        <time>2000-01-01T23:28:45.000Z</time>
      </trkpt>
      <trkpt lat="48.21066" lon="7.33109">
        <ele>396.8</ele>
        <time>2000-01-01T23:28:55.000Z</time>
      </trkpt>
      <trkpt lat="48.21063" lon="7.33111">
        <ele>396</ele>
        <time>2000-01-01T23:29:05.000Z</time>
      </trkpt>
      <trkpt lat="48.21061" lon="7.33115">
        <ele>395.1</ele>
        <time>2000-01-01T23:29:15.000Z</time>
      </trkpt>
      <trkpt lat="48.21065" lon="7.33127">
        <ele>383</ele>
        <time>2000-01-01T23:29:25.000Z</time>
      </trkpt>
      <trkpt lat="48.21068" lon="7.33133">
        <ele>392.6</ele>
        <time>2000-01-01T23:29:35.000Z</time>
      </trkpt>
      <trkpt lat="48.21066" lon="7.33132">
        <ele>392.7</ele>
        <time>2000-01-01T23:29:45.000Z</time>
      </trkpt>
      <trkpt lat="48.21064" lon="7.33135">
        <ele>392.1</ele>
        <time>2000-01-01T23:29:55.000Z</time>
      </trkpt>
      <trkpt lat="48.21058" lon="7.33133">
        <ele>392.2</ele>
        <time>2000-01-01T23:30:05.000Z</time>
      </trkpt>
      <trkpt lat="48.2105" lon="7.33127">
        <ele>380</ele>
        <time>2000-01-01T23:30:15.000Z</time>
      </trkpt>
      <trkpt lat="48.21043" lon="7.33118">
        <ele>393.2</ele>
        <time>2000-01-01T23:30:25.000Z</time>
      </trkpt>
      <trkpt lat="48.21035" lon="7.33111">
        <ele>377</ele>
        <time>2000-01-01T23:30:35.000Z</time>
      </trkpt>
      <trkpt lat="48.21034" lon="7.3311">
        <ele>393.6</ele>
        <time>2000-01-01T23:30:45.000Z</time>
      </trkpt>
      <trkpt lat="48.2103" lon="7.33113">
        <ele>393</ele>
        <time>2000-01-01T23:30:55.000Z</time>
      </trkpt>
      <trkpt lat="48.21019" lon="7.33127">
        <ele>374</ele>
        <time>2000-01-01T23:31:05.000Z</time>
      </trkpt>
      <trkpt lat="48.21014" lon="7.33129">
        <ele>389.8</ele>
        <time>2000-01-01T23:31:15.000Z</time>
      </trkpt>
      <trkpt lat="48.21002" lon="7.33131">
        <ele>388.9</ele>
        <time>2000-01-01T23:31:25.000Z</time>
      </trkpt>
      <trkpt lat="48.20992" lon="7.33129">
        <ele>373</ele>
        <time>2000-01-01T23:31:35.000Z</time>
      </trkpt>
      <trkpt lat="48.20984" lon="7.33124">
        <ele>383.6</ele>
        <time>2000-01-01T23:31:45.000Z</time>
      </trkpt>
      <trkpt lat="48.2098" lon="7.33123">
        <ele>383.6</ele>
        <time>2000-01-01T23:31:55.000Z</time>
      </trkpt>
      <trkpt lat="48.20981" lon="7.33125">
        <ele>383.3</ele>
        <time>2000-01-01T23:32:05.000Z</time>
      </trkpt>
      <trkpt lat="48.20983" lon="7.3313">
        <ele>368</ele>
        <time>2000-01-01T23:32:15.000Z</time>
      </trkpt>
      <trkpt lat="48.20988" lon="7.33138">
        <ele>381.5</ele>
        <time>2000-01-01T23:32:25.000Z</time>
      </trkpt>
      <trkpt lat="48.20993" lon="7.3314">
        <ele>381.2</ele>
        <time>2000-01-01T23:32:35.000Z</time>
      </trkpt>
      <trkpt lat="48.20997" lon="7.33142">
        <ele>380.9</ele>
        <time>2000-01-01T23:32:45.000Z</time>
      </trkpt>
      <trkpt lat="48.21003" lon="7.33149">
        <ele>367</ele>
        <time>2000-01-01T23:32:55.000Z</time>
      </trkpt>
      <trkpt lat="48.21007" lon="7.33157">
        <ele>382.2</ele>
        <time>2000-01-01T23:33:05.000Z</time>
      </trkpt>
      <trkpt lat="48.21013" lon="7.33171">
        <ele>374.5</ele>
        <time>2000-01-01T23:33:15.000Z</time>
      </trkpt>
      <trkpt lat="48.21021" lon="7.33179">
        <ele>362</ele>
        <time>2000-01-01T23:33:25.000Z</time>
      </trkpt>
      <trkpt lat="48.21034" lon="7.33188">
        <ele>373.4</ele>
        <time>2000-01-01T23:33:35.000Z</time>
      </trkpt>
      <trkpt lat="48.21048" lon="7.33203">
        <ele>358</ele>
        <time>2000-01-01T23:33:45.000Z</time>
      </trkpt>
      <trkpt lat="48.21054" lon="7.3321">
        <ele>371.8</ele>
        <time>2000-01-01T23:33:55.000Z</time>
      </trkpt>
      <trkpt lat="48.21064" lon="7.33215">
        <ele>358</ele>
        <time>2000-01-01T23:34:05.000Z</time>
      </trkpt>
      <trkpt lat="48.21066" lon="7.33215">
        <ele>371.3</ele>
        <time>2000-01-01T23:34:15.000Z</time>
      </trkpt>
      <trkpt lat="48.2107" lon="7.33222">
        <ele>370.1</ele>
        <time>2000-01-01T23:34:25.000Z</time>
      </trkpt>
      <trkpt lat="48.21068" lon="7.33223">
        <ele>370</ele>
        <time>2000-01-01T23:34:35.000Z</time>
      </trkpt>
      <trkpt lat="48.21053" lon="7.33216">
        <ele>357</ele>
        <time>2000-01-01T23:34:45.000Z</time>
      </trkpt>
      <trkpt lat="48.21047" lon="7.33214">
        <ele>371</ele>
        <time>2000-01-01T23:34:55.000Z</time>
      </trkpt>
      <trkpt lat="48.21038" lon="7.33206">
        <ele>371.6</ele>
        <time>2000-01-01T23:35:05.000Z</time>
      </trkpt>
      <trkpt lat="48.21031" lon="7.33204">
        <ele>357</ele>
        <time>2000-01-01T23:35:15.000Z</time>
      </trkpt>
      <trkpt lat="48.21028" lon="7.33202">
        <ele>371.7</ele>
        <time>2000-01-01T23:35:25.000Z</time>
      </trkpt>
      <trkpt lat="48.21027" lon="7.332">
        <ele>371.9</ele>
        <time>2000-01-01T23:35:35.000Z</time>
      </trkpt>
      <trkpt lat="48.21018" lon="7.33193">
        <ele>372.5</ele>
        <time>2000-01-01T23:35:45.000Z</time>
      </trkpt>
      <trkpt lat="48.21002" lon="7.33185">
        <ele>356</ele>
        <time>2000-01-01T23:35:55.000Z</time>
      </trkpt>
      <trkpt lat="48.20998" lon="7.3318">
        <ele>371.9</ele>
        <time>2000-01-01T23:36:05.000Z</time>
      </trkpt>
      <trkpt lat="48.20992" lon="7.33177">
        <ele>372</ele>
        <time>2000-01-01T23:36:15.000Z</time>
      </trkpt>
      <trkpt lat="48.20984" lon="7.33172">
        <ele>356</ele>
        <time>2000-01-01T23:36:25.000Z</time>
      </trkpt>
      <trkpt lat="48.20965" lon="7.3317">
        <ele>357</ele>
        <time>2000-01-01T23:36:35.000Z</time>
      </trkpt>
      <trkpt lat="48.20957" lon="7.33168">
        <ele>368.9</ele>
        <time>2000-01-01T23:36:45.000Z</time>
      </trkpt>
      <trkpt lat="48.20952" lon="7.33166">
        <ele>378.3</ele>
        <time>2000-01-01T23:36:55.000Z</time>
      </trkpt>
      <trkpt lat="48.20933" lon="7.33165">
        <ele>357</ele>
        <time>2000-01-01T23:37:05.000Z</time>
      </trkpt>
      <trkpt lat="48.20929" lon="7.33162">
        <ele>374.8</ele>
        <time>2000-01-01T23:37:15.000Z</time>
      </trkpt>
      <trkpt lat="48.20923" lon="7.3316">
        <ele>373.7</ele>
        <time>2000-01-01T23:37:25.000Z</time>
      </trkpt>
      <trkpt lat="48.20921" lon="7.3316">
        <ele>373.3</ele>
        <time>2000-01-01T23:37:35.000Z</time>
      </trkpt>
      <trkpt lat="48.20915" lon="7.33158">
        <ele>358</ele>
        <time>2000-01-01T23:37:45.000Z</time>
      </trkpt>
      <trkpt lat="48.20914" lon="7.33156">
        <ele>371.2</ele>
        <time>2000-01-01T23:37:55.000Z</time>
      </trkpt>
      <trkpt lat="48.20903" lon="7.33152">
        <ele>371.6</ele>
        <time>2000-01-01T23:38:05.000Z</time>
      </trkpt>
      <trkpt lat="48.20892" lon="7.33149">
        <ele>358</ele>
        <time>2000-01-01T23:38:15.000Z</time>
      </trkpt>
      <trkpt lat="48.20874" lon="7.33152">
        <ele>370.6</ele>
        <time>2000-01-01T23:38:25.000Z</time>
      </trkpt>
      <trkpt lat="48.20864" lon="7.33156">
        <ele>358</ele>
        <time>2000-01-01T23:38:35.000Z</time>
      </trkpt>
      <trkpt lat="48.20855" lon="7.3317">
        <ele>361.6</ele>
        <time>2000-01-01T23:38:45.000Z</time>
      </trkpt>
      <trkpt lat="48.20849" lon="7.33182">
        <ele>356</ele>
        <time>2000-01-01T23:38:55.000Z</time>
      </trkpt>
      <trkpt lat="48.20848" lon="7.33191">
        <ele>361</ele>
        <time>2000-01-01T23:39:05.000Z</time>
      </trkpt>
      <trkpt lat="48.20844" lon="7.33211">
        <ele>355</ele>
        <time>2000-01-01T23:39:15.000Z</time>
      </trkpt>
      <trkpt lat="48.20842" lon="7.33222">
        <ele>358.9</ele>
        <time>2000-01-01T23:39:25.000Z</time>
      </trkpt>
      <trkpt lat="48.20843" lon="7.33223">
        <ele>358.9</ele>
        <time>2000-01-01T23:39:35.000Z</time>
      </trkpt>
      <trkpt lat="48.20843" lon="7.33224">
        <ele>358.8</ele>
        <time>2000-01-01T23:39:45.000Z</time>
      </trkpt>
      <trkpt lat="48.20843" lon="7.33223">
        <ele>358.9</ele>
        <time>2000-01-01T23:39:55.000Z</time>
      </trkpt>
      <trkpt lat="48.20843" lon="7.33226">
        <ele>358.6</ele>
        <time>2000-01-01T23:40:05.000Z</time>
      </trkpt>
      <trkpt lat="48.20846" lon="7.33235">
        <ele>357.9</ele>
        <time>2000-01-01T23:40:15.000Z</time>
      </trkpt>
      <trkpt lat="48.20846" lon="7.33258">
        <ele>353</ele>
        <time>2000-01-01T23:40:25.000Z</time>
      </trkpt>
      <trkpt lat="48.20841" lon="7.3329">
        <ele>350</ele>
        <time>2000-01-01T23:40:35.000Z</time>
      </trkpt>
      <trkpt lat="48.20839" lon="7.33301">
        <ele>351.2</ele>
        <time>2000-01-01T23:40:45.000Z</time>
      </trkpt>
      <trkpt lat="48.20837" lon="7.33319">
        <ele>346</ele>
        <time>2000-01-01T23:40:55.000Z</time>
      </trkpt>
      <trkpt lat="48.20839" lon="7.33335">
        <ele>345.8</ele>
        <time>2000-01-01T23:41:05.000Z</time>
      </trkpt>
      <trkpt lat="48.20839" lon="7.33353">
        <ele>341</ele>
        <time>2000-01-01T23:41:15.000Z</time>
      </trkpt>
      <trkpt lat="48.20838" lon="7.33366">
        <ele>344.5</ele>
        <time>2000-01-01T23:41:25.000Z</time>
      </trkpt>
      <trkpt lat="48.20839" lon="7.33372">
        <ele>344.1</ele>
        <time>2000-01-01T23:41:35.000Z</time>
      </trkpt>
      <trkpt lat="48.20839" lon="7.33388">
        <ele>338</ele>
        <time>2000-01-01T23:41:45.000Z</time>
      </trkpt>
      <trkpt lat="48.20837" lon="7.33397">
        <ele>341.8</ele>
        <time>2000-01-01T23:41:55.000Z</time>
      </trkpt>
      <trkpt lat="48.20836" lon="7.33405">
        <ele>340.6</ele>
        <time>2000-01-01T23:42:05.000Z</time>
      </trkpt>
      <trkpt lat="48.20832" lon="7.33418">
        <ele>335</ele>
        <time>2000-01-01T23:42:15.000Z</time>
      </trkpt>
      <trkpt lat="48.20824" lon="7.33435">
        <ele>332.5</ele>
        <time>2000-01-01T23:42:25.000Z</time>
      </trkpt>
      <trkpt lat="48.20818" lon="7.33445">
        <ele>331</ele>
        <time>2000-01-01T23:42:35.000Z</time>
      </trkpt>
      <trkpt lat="48.20813" lon="7.33455">
        <ele>329.6</ele>
        <time>2000-01-01T23:42:45.000Z</time>
      </trkpt>
      <trkpt lat="48.20807" lon="7.33485">
        <ele>326</ele>
        <time>2000-01-01T23:42:55.000Z</time>
      </trkpt>
      <trkpt lat="48.20803" lon="7.33505">
        <ele>322.3</ele>
        <time>2000-01-01T23:43:05.000Z</time>
      </trkpt>
      <trkpt lat="48.208" lon="7.33516">
        <ele>324</ele>
        <time>2000-01-01T23:43:15.000Z</time>
      </trkpt>
      <trkpt lat="48.20795" lon="7.33537">
        <ele>320.3</ele>
        <time>2000-01-01T23:43:25.000Z</time>
      </trkpt>
      <trkpt lat="48.20792" lon="7.33552">
        <ele>320</ele>
        <time>2000-01-01T23:43:35.000Z</time>
      </trkpt>
      <trkpt lat="48.2079" lon="7.33563">
        <ele>319</ele>
        <time>2000-01-01T23:43:45.000Z</time>
      </trkpt>
      <trkpt lat="48.20788" lon="7.33575">
        <ele>318.6</ele>
        <time>2000-01-01T23:43:55.000Z</time>
      </trkpt>
      <trkpt lat="48.20781" lon="7.33586">
        <ele>317</ele>
        <time>2000-01-01T23:44:05.000Z</time>
      </trkpt>
      <trkpt lat="48.20772" lon="7.33604">
        <ele>312.4</ele>
        <time>2000-01-01T23:44:15.000Z</time>
      </trkpt>
      <trkpt lat="48.20769" lon="7.33614">
        <ele>315</ele>
        <time>2000-01-01T23:44:25.000Z</time>
      </trkpt>
      <trkpt lat="48.20763" lon="7.33635">
        <ele>310.2</ele>
        <time>2000-01-01T23:44:35.000Z</time>
      </trkpt>
      <trkpt lat="48.20762" lon="7.33646">
        <ele>313</ele>
        <time>2000-01-01T23:44:45.000Z</time>
      </trkpt>
      <trkpt lat="48.20758" lon="7.33657">
        <ele>308.4</ele>
        <time>2000-01-01T23:44:55.000Z</time>
      </trkpt>
      <trkpt lat="48.20753" lon="7.33666">
        <ele>307.4</ele>
        <time>2000-01-01T23:45:05.000Z</time>
      </trkpt>
      <trkpt lat="48.20753" lon="7.33667">
        <ele>306.3</ele>
        <time>2000-01-01T23:45:15.000Z</time>
      </trkpt>
      <trkpt lat="48.20755" lon="7.33667">
        <ele>313</ele>
        <time>2000-01-01T23:45:25.000Z</time>
      </trkpt>
      <trkpt lat="48.20757" lon="7.33668">
        <ele>305.6</ele>
        <time>2000-01-01T23:45:35.000Z</time>
      </trkpt>
      <trkpt lat="48.20777" lon="7.33668">
        <ele>311</ele>
        <time>2000-01-01T23:45:45.000Z</time>
      </trkpt>
      <trkpt lat="48.20786" lon="7.33671">
        <ele>302.8</ele>
        <time>2000-01-01T23:45:55.000Z</time>
      </trkpt>
      <trkpt lat="48.20795" lon="7.33673">
        <ele>308</ele>
        <time>2000-01-01T23:46:05.000Z</time>
      </trkpt>
      <trkpt lat="48.20806" lon="7.33675">
        <ele>302.3</ele>
        <time>2000-01-01T23:46:15.000Z</time>
      </trkpt>
      <trkpt lat="48.20816" lon="7.33679">
        <ele>306</ele>
        <time>2000-01-01T23:46:25.000Z</time>
      </trkpt>
      <trkpt lat="48.20824" lon="7.33682">
        <ele>302.3</ele>
        <time>2000-01-01T23:46:35.000Z</time>
      </trkpt>
      <trkpt lat="48.20837" lon="7.33689">
        <ele>304</ele>
        <time>2000-01-01T23:46:45.000Z</time>
      </trkpt>
      <trkpt lat="48.20844" lon="7.33694">
        <ele>300.6</ele>
        <time>2000-01-01T23:46:55.000Z</time>
      </trkpt>
      <trkpt lat="48.20856" lon="7.337">
        <ele>302</ele>
        <time>2000-01-01T23:47:05.000Z</time>
      </trkpt>
      <trkpt lat="48.2087" lon="7.33705">
        <ele>299.7</ele>
        <time>2000-01-01T23:47:15.000Z</time>
      </trkpt>
      <trkpt lat="48.2088" lon="7.3371">
        <ele>298</ele>
        <time>2000-01-01T23:47:25.000Z</time>
      </trkpt>
      <trkpt lat="48.209" lon="7.33716">
        <ele>298</ele>
        <time>2000-01-01T23:47:35.000Z</time>
      </trkpt>
      <trkpt lat="48.20919" lon="7.33718">
        <ele>297</ele>
        <time>2000-01-01T23:47:45.000Z</time>
      </trkpt>
      <trkpt lat="48.20945" lon="7.3372">
        <ele>297</ele>
        <time>2000-01-01T23:47:55.000Z</time>
      </trkpt>
      <trkpt lat="48.20963" lon="7.33722">
        <ele>296.2</ele>
        <time>2000-01-01T23:48:05.000Z</time>
      </trkpt>
      <trkpt lat="48.20974" lon="7.33727">
        <ele>293</ele>
        <time>2000-01-01T23:48:15.000Z</time>
      </trkpt>
      <trkpt lat="48.20989" lon="7.33736">
        <ele>292.9</ele>
        <time>2000-01-01T23:48:25.000Z</time>
      </trkpt>
      <trkpt lat="48.20999" lon="7.33741">
        <ele>290</ele>
        <time>2000-01-01T23:48:35.000Z</time>
      </trkpt>
      <trkpt lat="48.21008" lon="7.33745">
        <ele>290.2</ele>
        <time>2000-01-01T23:48:45.000Z</time>
      </trkpt>
      <trkpt lat="48.21019" lon="7.33748">
        <ele>288</ele>
        <time>2000-01-01T23:48:55.000Z</time>
      </trkpt>
      <trkpt lat="48.21027" lon="7.33751">
        <ele>284.1</ele>
        <time>2000-01-01T23:49:05.000Z</time>
      </trkpt>
      <trkpt lat="48.21038" lon="7.33755">
        <ele>285</ele>
        <time>2000-01-01T23:49:15.000Z</time>
      </trkpt>
      <trkpt lat="48.21049" lon="7.33758">
        <ele>283.1</ele>
        <time>2000-01-01T23:49:25.000Z</time>
      </trkpt>
      <trkpt lat="48.2106" lon="7.33765">
        <ele>283</ele>
        <time>2000-01-01T23:49:35.000Z</time>
      </trkpt>
      <trkpt lat="48.21066" lon="7.33773">
        <ele>282.5</ele>
        <time>2000-01-01T23:49:45.000Z</time>
      </trkpt>
      <trkpt lat="48.21075" lon="7.33779">
        <ele>282</ele>
        <time>2000-01-01T23:49:55.000Z</time>
      </trkpt>
      <trkpt lat="48.21088" lon="7.33782">
        <ele>280</ele>
        <time>2000-01-01T23:50:05.000Z</time>
      </trkpt>
      <trkpt lat="48.21101" lon="7.33788">
        <ele>277.3</ele>
        <time>2000-01-01T23:50:15.000Z</time>
      </trkpt>
      <trkpt lat="48.21114" lon="7.33791">
        <ele>277</ele>
        <time>2000-01-01T23:50:25.000Z</time>
      </trkpt>
      <trkpt lat="48.21135" lon="7.33794">
        <ele>276</ele>
        <time>2000-01-01T23:50:35.000Z</time>
      </trkpt>
      <trkpt lat="48.21146" lon="7.33795">
        <ele>274.9</ele>
        <time>2000-01-01T23:50:45.000Z</time>
      </trkpt>
      <trkpt lat="48.21163" lon="7.33798">
        <ele>275</ele>
        <time>2000-01-01T23:50:55.000Z</time>
      </trkpt>
      <trkpt lat="48.21182" lon="7.33801">
        <ele>272</ele>
        <time>2000-01-01T23:51:05.000Z</time>
      </trkpt>
      <trkpt lat="48.21195" lon="7.33801">
        <ele>271.4</ele>
        <time>2000-01-01T23:51:15.000Z</time>
      </trkpt>
      <trkpt lat="48.21217" lon="7.33803">
        <ele>270</ele>
        <time>2000-01-01T23:51:25.000Z</time>
      </trkpt>
      <trkpt lat="48.21233" lon="7.33804">
        <ele>270.5</ele>
        <time>2000-01-01T23:51:35.000Z</time>
      </trkpt>
      <trkpt lat="48.21247" lon="7.33807">
        <ele>268</ele>
        <time>2000-01-01T23:51:45.000Z</time>
      </trkpt>
      <trkpt lat="48.21261" lon="7.33808">
        <ele>266.1</ele>
        <time>2000-01-01T23:51:55.000Z</time>
      </trkpt>
      <trkpt lat="48.21276" lon="7.3381">
        <ele>265</ele>
        <time>2000-01-01T23:52:05.000Z</time>
      </trkpt>
      <trkpt lat="48.21287" lon="7.33815">
        <ele>265</ele>
        <time>2000-01-01T23:52:15.000Z</time>
      </trkpt>
      <trkpt lat="48.21295" lon="7.33819">
        <ele>263</ele>
        <time>2000-01-01T23:52:25.000Z</time>
      </trkpt>
      <trkpt lat="48.2131" lon="7.33824">
        <ele>262.8</ele>
        <time>2000-01-01T23:52:35.000Z</time>
      </trkpt>
      <trkpt lat="48.21319" lon="7.33827">
        <ele>260</ele>
        <time>2000-01-01T23:52:45.000Z</time>
      </trkpt>
      <trkpt lat="48.21335" lon="7.33822">
        <ele>260</ele>
        <time>2000-01-01T23:52:55.000Z</time>
      </trkpt>
      <trkpt lat="48.2135" lon="7.33803">
        <ele>258</ele>
        <time>2000-01-01T23:53:05.000Z</time>
      </trkpt>
      <trkpt lat="48.21363" lon="7.33783">
        <ele>258</ele>
        <time>2000-01-01T23:53:15.000Z</time>
      </trkpt>
      <trkpt lat="48.21372" lon="7.33774">
        <ele>264</ele>
        <time>2000-01-01T23:53:25.000Z</time>
      </trkpt>
      <trkpt lat="48.21372" lon="7.33776">
        <ele>263.9</ele>
        <time>2000-01-01T23:53:35.000Z</time>
      </trkpt>
      <trkpt lat="48.21369" lon="7.3378">
        <ele>263.7</ele>
        <time>2000-01-01T23:53:45.000Z</time>
      </trkpt>
      <trkpt lat="48.21368" lon="7.33779">
        <ele>263.7</ele>
        <time>2000-01-01T23:53:55.000Z</time>
      </trkpt>
      <trkpt lat="48.21369" lon="7.33789">
        <ele>258</ele>
        <time>2000-01-01T23:54:05.000Z</time>
      </trkpt>
      <trkpt lat="48.21374" lon="7.338">
        <ele>263.2</ele>
        <time>2000-01-01T23:54:15.000Z</time>
      </trkpt>
      <trkpt lat="48.21375" lon="7.33803">
        <ele>263.1</ele>
        <time>2000-01-01T23:54:25.000Z</time>
      </trkpt>
      <trkpt lat="48.21377" lon="7.33805">
        <ele>263.1</ele>
        <time>2000-01-01T23:54:35.000Z</time>
      </trkpt>
      <trkpt lat="48.21377" lon="7.33802">
        <ele>263.2</ele>
        <time>2000-01-01T23:54:45.000Z</time>
      </trkpt>
      <trkpt lat="48.21376" lon="7.33796">
        <ele>258</ele>
        <time>2000-01-01T23:54:55.000Z</time>
      </trkpt>
      <trkpt lat="48.21381" lon="7.33805">
        <ele>263.2</ele>
        <time>2000-01-01T23:55:05.000Z</time>
      </trkpt>
      <trkpt lat="48.21392" lon="7.33818">
        <ele>260</ele>
        <time>2000-01-01T23:55:15.000Z</time>
      </trkpt>
      <trkpt lat="48.21395" lon="7.3382">
        <ele>263.2</ele>
        <time>2000-01-01T23:55:25.000Z</time>
      </trkpt>
      <trkpt lat="48.2141" lon="7.33826">
        <ele>262</ele>
        <time>2000-01-01T23:55:35.000Z</time>
      </trkpt>
      <trkpt lat="48.21421" lon="7.33828">
        <ele>265.3</ele>
        <time>2000-01-01T23:55:45.000Z</time>
      </trkpt>
      <trkpt lat="48.21432" lon="7.3383">
        <ele>264</ele>
        <time>2000-01-01T23:55:55.000Z</time>
      </trkpt>
      <trkpt lat="48.21441" lon="7.33824">
        <ele>269.2</ele>
        <time>2000-01-01T23:56:05.000Z</time>
      </trkpt>
      <trkpt lat="48.21446" lon="7.33817">
        <ele>270.2</ele>
        <time>2000-01-01T23:56:15.000Z</time>
      </trkpt>
      <trkpt lat="48.21447" lon="7.33817">
        <ele>270.3</ele>
        <time>2000-01-01T23:56:25.000Z</time>
      </trkpt>
      <trkpt lat="48.21447" lon="7.33815">
        <ele>268</ele>
        <time>2000-01-01T23:56:35.000Z</time>
      </trkpt>
      <trkpt lat="48.21457" lon="7.33817">
        <ele>271.4</ele>
        <time>2000-01-01T23:56:45.000Z</time>
      </trkpt>
      <trkpt lat="48.21465" lon="7.33818">
        <ele>272.1</ele>
        <time>2000-01-01T23:56:55.000Z</time>
      </trkpt>
      <trkpt lat="48.21471" lon="7.33808">
        <ele>278</ele>
        <time>2000-01-01T23:57:05.000Z</time>
      </trkpt>
      <trkpt lat="48.21474" lon="7.33805">
        <ele>273</ele>
        <time>2000-01-01T23:57:15.000Z</time>
      </trkpt>
      <trkpt lat="48.21475" lon="7.33799">
        <ele>273.2</ele>
        <time>2000-01-01T23:57:25.000Z</time>
      </trkpt>
      <trkpt lat="48.21478" lon="7.33788">
        <ele>273.7</ele>
        <time>2000-01-01T23:57:35.000Z</time>
      </trkpt>
      <trkpt lat="48.21484" lon="7.33779">
        <ele>280</ele>
        <time>2000-01-01T23:57:45.000Z</time>
      </trkpt>
      <trkpt lat="48.21485" lon="7.33779">
        <ele>274.5</ele>
        <time>2000-01-01T23:57:55.000Z</time>
      </trkpt>
      <trkpt lat="48.2149" lon="7.33781">
        <ele>274.7</ele>
        <time>2000-01-01T23:58:05.000Z</time>
      </trkpt>
      <trkpt lat="48.21492" lon="7.33779">
        <ele>274.9</ele>
        <time>2000-01-01T23:58:15.000Z</time>
      </trkpt>
      <trkpt lat="48.21491" lon="7.3378">
        <ele>274.8</ele>
        <time>2000-01-01T23:58:25.000Z</time>
      </trkpt>
      <trkpt lat="48.21495" lon="7.33779">
        <ele>275</ele>
        <time>2000-01-01T23:58:35.000Z</time>
      </trkpt>
      <trkpt lat="48.21501" lon="7.33779">
        <ele>280</ele>
        <time>2000-01-01T23:58:45.000Z</time>
      </trkpt>
      <trkpt lat="48.21505" lon="7.33772">
        <ele>282.1</ele>
        <time>2000-01-01T23:58:55.000Z</time>
      </trkpt>
      <trkpt lat="48.21507" lon="7.33768">
        <ele>282</ele>
        <time>2000-01-01T23:59:05.000Z</time>
      </trkpt>
      <trkpt lat="48.21519" lon="7.33759">
        <ele>279</ele>
        <time>2000-01-01T23:59:15.000Z</time>
      </trkpt>
      <trkpt lat="48.21528" lon="7.33747">
        <ele>280</ele>
        <time>2000-01-01T23:59:25.000Z</time>
      </trkpt>
      <trkpt lat="48.21533" lon="7.3374">
        <ele>278</ele>
        <time>2000-01-01T23:59:35.000Z</time>
      </trkpt>
      <trkpt lat="48.21535" lon="7.3374">
        <ele>280.1</ele>
        <time>2000-01-01T23:59:45.000Z</time>
      </trkpt>
      <trkpt lat="48.21545" lon="7.33742">
        <ele>280.8</ele>
        <time>2000-01-01T23:59:55.000Z</time>
      </trkpt>
      <trkpt lat="48.21552" lon="7.3374">
        <ele>278</ele>
        <time>2000-01-02T00:00:05.000Z</time>
      </trkpt>
      <trkpt lat="48.21557" lon="7.33737">
        <ele>281.6</ele>
        <time>2000-01-02T00:00:15.000Z</time>
      </trkpt>
      <trkpt lat="48.21568" lon="7.33729">
        <ele>281.9</ele>
        <time>2000-01-02T00:00:25.000Z</time>
      </trkpt>
      <trkpt lat="48.21573" lon="7.33725">
        <ele>280</ele>
        <time>2000-01-02T00:00:35.000Z</time>
      </trkpt>
      <trkpt lat="48.21592" lon="7.33728">
        <ele>282</ele>
        <time>2000-01-02T00:00:45.000Z</time>
      </trkpt>
      <trkpt lat="48.21595" lon="7.33729">
        <ele>287.5</ele>
        <time>2000-01-02T00:00:55.000Z</time>
      </trkpt>
      <trkpt lat="48.21598" lon="7.33729">
        <ele>287.5</ele>
        <time>2000-01-02T00:01:05.000Z</time>
      </trkpt>
      <trkpt lat="48.21608" lon="7.33732">
        <ele>288</ele>
        <time>2000-01-02T00:01:15.000Z</time>
      </trkpt>
      <trkpt lat="48.21612" lon="7.33733">
        <ele>283</ele>
        <time>2000-01-02T00:01:25.000Z</time>
      </trkpt>
      <trkpt lat="48.21626" lon="7.33735">
        <ele>289.1</ele>
        <time>2000-01-02T00:01:35.000Z</time>
      </trkpt>
      <trkpt lat="48.2164" lon="7.33742">
        <ele>283</ele>
        <time>2000-01-02T00:01:45.000Z</time>
      </trkpt>
      <trkpt lat="48.21646" lon="7.33745">
        <ele>291.2</ele>
        <time>2000-01-02T00:01:55.000Z</time>
      </trkpt>
      <trkpt lat="48.21648" lon="7.33748">
        <ele>291.5</ele>
        <time>2000-01-02T00:02:05.000Z</time>
      </trkpt>
      <trkpt lat="48.21661" lon="7.33754">
        <ele>283</ele>
        <time>2000-01-02T00:02:15.000Z</time>
      </trkpt>
      <trkpt lat="48.21678" lon="7.33755">
        <ele>300.1</ele>
        <time>2000-01-02T00:02:25.000Z</time>
      </trkpt>
      <trkpt lat="48.21692" lon="7.33751">
        <ele>286</ele>
        <time>2000-01-02T00:02:35.000Z</time>
      </trkpt>
      <trkpt lat="48.21693" lon="7.33738">
        <ele>304.9</ele>
        <time>2000-01-02T00:02:45.000Z</time>
      </trkpt>
      <trkpt lat="48.21693" lon="7.33735">
        <ele>305</ele>
        <time>2000-01-02T00:02:55.000Z</time>
      </trkpt>
      <trkpt lat="48.21692" lon="7.33727">
        <ele>305.3</ele>
        <time>2000-01-02T00:03:05.000Z</time>
      </trkpt>
      <trkpt lat="48.2169" lon="7.33722">
        <ele>291</ele>
        <time>2000-01-02T00:03:15.000Z</time>
      </trkpt>
      <trkpt lat="48.21686" lon="7.33705">
        <ele>304.8</ele>
        <time>2000-01-02T00:03:25.000Z</time>
      </trkpt>
      <trkpt lat="48.21686" lon="7.33704">
        <ele>304.8</ele>
        <time>2000-01-02T00:03:35.000Z</time>
      </trkpt>
      <trkpt lat="48.21686" lon="7.33699">
        <ele>304.6</ele>
        <time>2000-01-02T00:03:45.000Z</time>
      </trkpt>
      <trkpt lat="48.21684" lon="7.33693">
        <ele>291</ele>
        <time>2000-01-02T00:03:55.000Z</time>
      </trkpt>
      <trkpt lat="48.21685" lon="7.33683">
        <ele>303</ele>
        <time>2000-01-02T00:04:05.000Z</time>
      </trkpt>
      <trkpt lat="48.21686" lon="7.33663">
        <ele>294</ele>
        <time>2000-01-02T00:04:15.000Z</time>
      </trkpt>
      <trkpt lat="48.21687" lon="7.33649">
        <ele>302.7</ele>
        <time>2000-01-02T00:04:25.000Z</time>
      </trkpt>
      <trkpt lat="48.21689" lon="7.33644">
        <ele>303.5</ele>
        <time>2000-01-02T00:04:35.000Z</time>
      </trkpt>
      <trkpt lat="48.21691" lon="7.33634">
        <ele>297</ele>
        <time>2000-01-02T00:04:45.000Z</time>
      </trkpt>
      <trkpt lat="48.21692" lon="7.33621">
        <ele>304.2</ele>
        <time>2000-01-02T00:04:55.000Z</time>
      </trkpt>
      <trkpt lat="48.21693" lon="7.33606">
        <ele>298</ele>
        <time>2000-01-02T00:05:05.000Z</time>
      </trkpt>
      <trkpt lat="48.21698" lon="7.33589">
        <ele>303.6</ele>
        <time>2000-01-02T00:05:15.000Z</time>
      </trkpt>
      <trkpt lat="48.21699" lon="7.33579">
        <ele>298</ele>
        <time>2000-01-02T00:05:25.000Z</time>
      </trkpt>
      <trkpt lat="48.21702" lon="7.3357">
        <ele>302.9</ele>
        <time>2000-01-02T00:05:35.000Z</time>
      </trkpt>
      <trkpt lat="48.21709" lon="7.33546">
        <ele>302</ele>
        <time>2000-01-02T00:05:45.000Z</time>
      </trkpt>
      <trkpt lat="48.21714" lon="7.33519">
        <ele>303</ele>
        <time>2000-01-02T00:05:55.000Z</time>
      </trkpt>
      <trkpt lat="48.21715" lon="7.3349">
        <ele>303</ele>
        <time>2000-01-02T00:06:05.000Z</time>
      </trkpt>
      <trkpt lat="48.21717" lon="7.33474">
        <ele>301.4</ele>
        <time>2000-01-02T00:06:15.000Z</time>
      </trkpt>
      <trkpt lat="48.21718" lon="7.33467">
        <ele>301</ele>
        <time>2000-01-02T00:06:25.000Z</time>
      </trkpt>
      <trkpt lat="48.21717" lon="7.33456">
        <ele>304</ele>
        <time>2000-01-02T00:06:35.000Z</time>
      </trkpt>
      <trkpt lat="48.21715" lon="7.33439">
        <ele>299.2</ele>
        <time>2000-01-02T00:06:45.000Z</time>
      </trkpt>
      <trkpt lat="48.21717" lon="7.33437">
        <ele>299.5</ele>
        <time>2000-01-02T00:06:55.000Z</time>
      </trkpt>
      <trkpt lat="48.21718" lon="7.33436">
        <ele>299.6</ele>
        <time>2000-01-02T00:07:05.000Z</time>
      </trkpt>
      <trkpt lat="48.21723" lon="7.33445">
        <ele>305</ele>
        <time>2000-01-02T00:07:15.000Z</time>
      </trkpt>
      <trkpt lat="48.21729" lon="7.33459">
        <ele>302.2</ele>
        <time>2000-01-02T00:07:25.000Z</time>
      </trkpt>
      <trkpt lat="48.2173" lon="7.33462">
        <ele>302.7</ele>
        <time>2000-01-02T00:07:35.000Z</time>
      </trkpt>
      <trkpt lat="48.21731" lon="7.33465">
        <ele>303.1</ele>
        <time>2000-01-02T00:07:45.000Z</time>
      </trkpt>
      <trkpt lat="48.21734" lon="7.33473">
        <ele>314</ele>
        <time>2000-01-02T00:07:55.000Z</time>
      </trkpt>
      <trkpt lat="48.21735" lon="7.33481">
        <ele>306.6</ele>
        <time>2000-01-02T00:08:05.000Z</time>
      </trkpt>
      <trkpt lat="48.21739" lon="7.33474">
        <ele>305.9</ele>
        <time>2000-01-02T00:08:15.000Z</time>
      </trkpt>
      <trkpt lat="48.21743" lon="7.33475">
        <ele>306.7</ele>
        <time>2000-01-02T00:08:25.000Z</time>
      </trkpt>
      <trkpt lat="48.21746" lon="7.33482">
        <ele>319</ele>
        <time>2000-01-02T00:08:35.000Z</time>
      </trkpt>
      <trkpt lat="48.21747" lon="7.33485">
        <ele>310.5</ele>
        <time>2000-01-02T00:08:45.000Z</time>
      </trkpt>
      <trkpt lat="48.21748" lon="7.33489">
        <ele>312.4</ele>
        <time>2000-01-02T00:08:55.000Z</time>
      </trkpt>
      <trkpt lat="48.2175" lon="7.33487">
        <ele>322</ele>
        <time>2000-01-02T00:09:05.000Z</time>
      </trkpt>
      <trkpt lat="48.21751" lon="7.33485">
        <ele>322.2</ele>
        <time>2000-01-02T00:09:15.000Z</time>
      </trkpt>
      <trkpt lat="48.21753" lon="7.33482">
        <ele>322.5</ele>
        <time>2000-01-02T00:09:25.000Z</time>
      </trkpt>
      <trkpt lat="48.21756" lon="7.33478">
        <ele>322.8</ele>
        <time>2000-01-02T00:09:35.000Z</time>
      </trkpt>
      <trkpt lat="48.21759" lon="7.33474">
        <ele>322</ele>
        <time>2000-01-02T00:09:45.000Z</time>
      </trkpt>
      <trkpt lat="48.21768" lon="7.33465">
        <ele>323.3</ele>
        <time>2000-01-02T00:09:55.000Z</time>
      </trkpt>
      <trkpt lat="48.21775" lon="7.33455">
        <ele>324</ele>
        <time>2000-01-02T00:10:05.000Z</time>
      </trkpt>
      <trkpt lat="48.21778" lon="7.33451">
        <ele>323.2</ele>
        <time>2000-01-02T00:10:15.000Z</time>
      </trkpt>
      <trkpt lat="48.21779" lon="7.3345">
        <ele>323.3</ele>
        <time>2000-01-02T00:10:25.000Z</time>
      </trkpt>
      <trkpt lat="48.21781" lon="7.33457">
        <ele>324.3</ele>
        <time>2000-01-02T00:10:35.000Z</time>
      </trkpt>
      <trkpt lat="48.21781" lon="7.33469">
        <ele>331</ele>
        <time>2000-01-02T00:10:45.000Z</time>
      </trkpt>
      <trkpt lat="48.2178" lon="7.33472">
        <ele>325.4</ele>
        <time>2000-01-02T00:10:55.000Z</time>
      </trkpt>
      <trkpt lat="48.21781" lon="7.33475">
        <ele>325.7</ele>
        <time>2000-01-02T00:11:05.000Z</time>
      </trkpt>
      <trkpt lat="48.21787" lon="7.33474">
        <ele>326.6</ele>
        <time>2000-01-02T00:11:15.000Z</time>
      </trkpt>
      <trkpt lat="48.2179" lon="7.33473">
        <ele>327.1</ele>
        <time>2000-01-02T00:11:25.000Z</time>
      </trkpt>
      <trkpt lat="48.21791" lon="7.33473">
        <ele>327.2</ele>
        <time>2000-01-02T00:11:35.000Z</time>
      </trkpt>
      <trkpt lat="48.21796" lon="7.3347">
        <ele>333</ele>
        <time>2000-01-02T00:11:45.000Z</time>
      </trkpt>
      <trkpt lat="48.21802" lon="7.33469">
        <ele>328.8</ele>
        <time>2000-01-02T00:11:55.000Z</time>
      </trkpt>
      <trkpt lat="48.21804" lon="7.33468">
        <ele>329</ele>
        <time>2000-01-02T00:12:05.000Z</time>
      </trkpt>
      <trkpt lat="48.21813" lon="7.33466">
        <ele>330.1</ele>
        <time>2000-01-02T00:12:15.000Z</time>
      </trkpt>
      <trkpt lat="48.21818" lon="7.33469">
        <ele>337</ele>
        <time>2000-01-02T00:12:25.000Z</time>
      </trkpt>
      <trkpt lat="48.2182" lon="7.33469">
        <ele>331.7</ele>
        <time>2000-01-02T00:12:35.000Z</time>
      </trkpt>
      <trkpt lat="48.21827" lon="7.33471">
        <ele>333</ele>
        <time>2000-01-02T00:12:45.000Z</time>
      </trkpt>
      <trkpt lat="48.21831" lon="7.33472">
        <ele>333.6</ele>
        <time>2000-01-02T00:12:55.000Z</time>
      </trkpt>
      <trkpt lat="48.21836" lon="7.33474">
        <ele>341</ele>
        <time>2000-01-02T00:13:05.000Z</time>
      </trkpt>
      <trkpt lat="48.21838" lon="7.33475">
        <ele>347.4</ele>
        <time>2000-01-02T00:13:15.000Z</time>
      </trkpt>
      <trkpt lat="48.21842" lon="7.33481">
        <ele>348</ele>
        <time>2000-01-02T00:13:25.000Z</time>
      </trkpt>
      <trkpt lat="48.21852" lon="7.33491">
        <ele>349</ele>
        <time>2000-01-02T00:13:35.000Z</time>
      </trkpt>
      <trkpt lat="48.21854" lon="7.33494">
        <ele>349.3</ele>
        <time>2000-01-02T00:13:45.000Z</time>
      </trkpt>
      <trkpt lat="48.21862" lon="7.33497">
        <ele>350.2</ele>
        <time>2000-01-02T00:13:55.000Z</time>
      </trkpt>
      <trkpt lat="48.21864" lon="7.33498">
        <ele>350.5</ele>
        <time>2000-01-02T00:14:05.000Z</time>
      </trkpt>
      <trkpt lat="48.21873" lon="7.33496">
        <ele>351</ele>
        <time>2000-01-02T00:14:15.000Z</time>
      </trkpt>
      <trkpt lat="48.21877" lon="7.33494">
        <ele>352.3</ele>
        <time>2000-01-02T00:14:25.000Z</time>
      </trkpt>
      <trkpt lat="48.21878" lon="7.33493">
        <ele>352.4</ele>
        <time>2000-01-02T00:14:35.000Z</time>
      </trkpt>
      <trkpt lat="48.21888" lon="7.33479">
        <ele>353</ele>
        <time>2000-01-02T00:14:45.000Z</time>
      </trkpt>
      <trkpt lat="48.21893" lon="7.33469">
        <ele>352.6</ele>
        <time>2000-01-02T00:14:55.000Z</time>
      </trkpt>
      <trkpt lat="48.21895" lon="7.33462">
        <ele>352.1</ele>
        <time>2000-01-02T00:15:05.000Z</time>
      </trkpt>
      <trkpt lat="48.21902" lon="7.33454">
        <ele>358</ele>
        <time>2000-01-02T00:15:15.000Z</time>
      </trkpt>
      <trkpt lat="48.21906" lon="7.33451">
        <ele>352</ele>
        <time>2000-01-02T00:15:25.000Z</time>
      </trkpt>
      <trkpt lat="48.21917" lon="7.33449">
        <ele>364.3</ele>
        <time>2000-01-02T00:15:35.000Z</time>
      </trkpt>
      <trkpt lat="48.21923" lon="7.3345">
        <ele>362</ele>
        <time>2000-01-02T00:15:45.000Z</time>
      </trkpt>
      <trkpt lat="48.21932" lon="7.33453">
        <ele>365.9</ele>
        <time>2000-01-02T00:15:55.000Z</time>
      </trkpt>
      <trkpt lat="48.21941" lon="7.33455">
        <ele>364</ele>
        <time>2000-01-02T00:16:05.000Z</time>
      </trkpt>
      <trkpt lat="48.21948" lon="7.33456">
        <ele>367.7</ele>
        <time>2000-01-02T00:16:15.000Z</time>
      </trkpt>
      <trkpt lat="48.21955" lon="7.33454">
        <ele>368.3</ele>
        <time>2000-01-02T00:16:25.000Z</time>
      </trkpt>
      <trkpt lat="48.21961" lon="7.33454">
        <ele>364</ele>
        <time>2000-01-02T00:16:35.000Z</time>
      </trkpt>
      <trkpt lat="48.21964" lon="7.33454">
        <ele>369.3</ele>
        <time>2000-01-02T00:16:45.000Z</time>
      </trkpt>
      <trkpt lat="48.21968" lon="7.33452">
        <ele>369.6</ele>
        <time>2000-01-02T00:16:55.000Z</time>
      </trkpt>
      <trkpt lat="48.2197" lon="7.33452">
        <ele>369.8</ele>
        <time>2000-01-02T00:17:05.000Z</time>
      </trkpt>
      <trkpt lat="48.21972" lon="7.33451">
        <ele>369.9</ele>
        <time>2000-01-02T00:17:15.000Z</time>
      </trkpt>
      <trkpt lat="48.21977" lon="7.33452">
        <ele>370.4</ele>
        <time>2000-01-02T00:17:25.000Z</time>
      </trkpt>
      <trkpt lat="48.21986" lon="7.33449">
        <ele>365</ele>
        <time>2000-01-02T00:17:35.000Z</time>
      </trkpt>
      <trkpt lat="48.21988" lon="7.33449">
        <ele>371</ele>
        <time>2000-01-02T00:17:45.000Z</time>
      </trkpt>
      <trkpt lat="48.21991" lon="7.33446">
        <ele>371</ele>
        <time>2000-01-02T00:17:55.000Z</time>
      </trkpt>
      <trkpt lat="48.21993" lon="7.33445">
        <ele>371.1</ele>
        <time>2000-01-02T00:18:05.000Z</time>
      </trkpt>
      <trkpt lat="48.21998" lon="7.33445">
        <ele>371.3</ele>
        <time>2000-01-02T00:18:15.000Z</time>
      </trkpt>
      <trkpt lat="48.22007" lon="7.33442">
        <ele>368</ele>
        <time>2000-01-02T00:18:25.000Z</time>
      </trkpt>
      <trkpt lat="48.22016" lon="7.33439">
        <ele>382.2</ele>
        <time>2000-01-02T00:18:35.000Z</time>
      </trkpt>
      <trkpt lat="48.22021" lon="7.33439">
        <ele>382.9</ele>
        <time>2000-01-02T00:18:45.000Z</time>
      </trkpt>
      <trkpt lat="48.22027" lon="7.33436">
        <ele>371</ele>
        <time>2000-01-02T00:18:55.000Z</time>
      </trkpt>
      <trkpt lat="48.22029" lon="7.33433">
        <ele>383.7</ele>
        <time>2000-01-02T00:19:05.000Z</time>
      </trkpt>
      <trkpt lat="48.22033" lon="7.33433">
        <ele>384.4</ele>
        <time>2000-01-02T00:19:15.000Z</time>
      </trkpt>
      <trkpt lat="48.22042" lon="7.33424">
        <ele>385.7</ele>
        <time>2000-01-02T00:19:25.000Z</time>
      </trkpt>
      <trkpt lat="48.22046" lon="7.33416">
        <ele>374</ele>
        <time>2000-01-02T00:19:35.000Z</time>
      </trkpt>
      <trkpt lat="48.2205" lon="7.33401">
        <ele>383.3</ele>
        <time>2000-01-02T00:19:45.000Z</time>
      </trkpt>
      <trkpt lat="48.22049" lon="7.33392">
        <ele>382.8</ele>
        <time>2000-01-02T00:19:55.000Z</time>
      </trkpt>
      <trkpt lat="48.22046" lon="7.3338">
        <ele>374</ele>
        <time>2000-01-02T00:20:05.000Z</time>
      </trkpt>
      <trkpt lat="48.22044" lon="7.33377">
        <ele>381.7</ele>
        <time>2000-01-02T00:20:15.000Z</time>
      </trkpt>
      <trkpt lat="48.22043" lon="7.3337">
        <ele>381.4</ele>
        <time>2000-01-02T00:20:25.000Z</time>
      </trkpt>
      <trkpt lat="48.22046" lon="7.33357">
        <ele>381.8</ele>
        <time>2000-01-02T00:20:35.000Z</time>
      </trkpt>
      <trkpt lat="48.22047" lon="7.33348">
        <ele>375</ele>
        <time>2000-01-02T00:20:45.000Z</time>
      </trkpt>
      <trkpt lat="48.22047" lon="7.33335">
        <ele>382.1</ele>
        <time>2000-01-02T00:20:55.000Z</time>
      </trkpt>
      <trkpt lat="48.22047" lon="7.33333">
        <ele>380.5</ele>
        <time>2000-01-02T00:21:05.000Z</time>
      </trkpt>
      <trkpt lat="48.22046" lon="7.33319">
        <ele>376</ele>
        <time>2000-01-02T00:21:15.000Z</time>
      </trkpt>
      <trkpt lat="48.22047" lon="7.33317">
        <ele>380.2</ele>
        <time>2000-01-02T00:21:25.000Z</time>
      </trkpt>
      <trkpt lat="48.2205" lon="7.33301">
        <ele>380.4</ele>
        <time>2000-01-02T00:21:35.000Z</time>
      </trkpt>
      <trkpt lat="48.22051" lon="7.33286">
        <ele>383</ele>
        <time>2000-01-02T00:21:45.000Z</time>
      </trkpt>
      <trkpt lat="48.22054" lon="7.33277">
        <ele>381.2</ele>
        <time>2000-01-02T00:21:55.000Z</time>
      </trkpt>
      <trkpt lat="48.2206" lon="7.33266">
        <ele>383.4</ele>
        <time>2000-01-02T00:22:05.000Z</time>
      </trkpt>
      <trkpt lat="48.22062" lon="7.33258">
        <ele>387</ele>
        <time>2000-01-02T00:22:15.000Z</time>
      </trkpt>
      <trkpt lat="48.22063" lon="7.33253">
        <ele>385.5</ele>
        <time>2000-01-02T00:22:25.000Z</time>
      </trkpt>
      <trkpt lat="48.22065" lon="7.33249">
        <ele>384.5</ele>
        <time>2000-01-02T00:22:35.000Z</time>
      </trkpt>
      <trkpt lat="48.22068" lon="7.33244">
        <ele>385.4</ele>
        <time>2000-01-02T00:22:45.000Z</time>
      </trkpt>
      <trkpt lat="48.22073" lon="7.33237">
        <ele>389</ele>
        <time>2000-01-02T00:22:55.000Z</time>
      </trkpt>
      <trkpt lat="48.22075" lon="7.33235">
        <ele>385.5</ele>
        <time>2000-01-02T00:23:05.000Z</time>
      </trkpt>
      <trkpt lat="48.22082" lon="7.33226">
        <ele>383.7</ele>
        <time>2000-01-02T00:23:15.000Z</time>
      </trkpt>
      <trkpt lat="48.22087" lon="7.33221">
        <ele>397.7</ele>
        <time>2000-01-02T00:23:25.000Z</time>
      </trkpt>
      <trkpt lat="48.22093" lon="7.33213">
        <ele>396</ele>
        <time>2000-01-02T00:23:35.000Z</time>
      </trkpt>
      <trkpt lat="48.22097" lon="7.33205">
        <ele>397.2</ele>
        <time>2000-01-02T00:23:45.000Z</time>
      </trkpt>
      <trkpt lat="48.22104" lon="7.33201">
        <ele>397.5</ele>
        <time>2000-01-02T00:23:55.000Z</time>
      </trkpt>
      <trkpt lat="48.22113" lon="7.33196">
        <ele>400</ele>
        <time>2000-01-02T00:24:05.000Z</time>
      </trkpt>
      <trkpt lat="48.22119" lon="7.33196">
        <ele>399</ele>
        <time>2000-01-02T00:24:15.000Z</time>
      </trkpt>
      <trkpt lat="48.22125" lon="7.33195">
        <ele>399.7</ele>
        <time>2000-01-02T00:24:25.000Z</time>
      </trkpt>
      <trkpt lat="48.22129" lon="7.33192">
        <ele>400.1</ele>
        <time>2000-01-02T00:24:35.000Z</time>
      </trkpt>
      <trkpt lat="48.2213" lon="7.33191">
        <ele>404</ele>
        <time>2000-01-02T00:24:45.000Z</time>
      </trkpt>
      <trkpt lat="48.22134" lon="7.33193">
        <ele>400.8</ele>
        <time>2000-01-02T00:24:55.000Z</time>
      </trkpt>
      <trkpt lat="48.22139" lon="7.33194">
        <ele>401.4</ele>
        <time>2000-01-02T00:25:05.000Z</time>
      </trkpt>
      <trkpt lat="48.22142" lon="7.33194">
        <ele>401.8</ele>
        <time>2000-01-02T00:25:15.000Z</time>
      </trkpt>
      <trkpt lat="48.22146" lon="7.33196">
        <ele>402.3</ele>
        <time>2000-01-02T00:25:25.000Z</time>
      </trkpt>
      <trkpt lat="48.22146" lon="7.33196">
        <ele>402.3</ele>
        <time>2000-01-02T00:25:35.000Z</time>
      </trkpt>
      <trkpt lat="48.22158" lon="7.33203">
        <ele>409</ele>
        <time>2000-01-02T00:25:45.000Z</time>
      </trkpt>
      <trkpt lat="48.2216" lon="7.33205">
        <ele>403.7</ele>
        <time>2000-01-02T00:25:55.000Z</time>
      </trkpt>
      <trkpt lat="48.22176" lon="7.33221">
        <ele>412</ele>
        <time>2000-01-02T00:26:05.000Z</time>
      </trkpt>
      <trkpt lat="48.2218" lon="7.33228">
        <ele>414.3</ele>
        <time>2000-01-02T00:26:15.000Z</time>
      </trkpt>
      <trkpt lat="48.22186" lon="7.33236">
        <ele>414.6</ele>
        <time>2000-01-02T00:26:25.000Z</time>
      </trkpt>
      <trkpt lat="48.22191" lon="7.3324">
        <ele>414</ele>
        <time>2000-01-02T00:26:35.000Z</time>
      </trkpt>
      <trkpt lat="48.2221" lon="7.33258">
        <ele>414</ele>
        <time>2000-01-02T00:26:45.000Z</time>
      </trkpt>
      <trkpt lat="48.22212" lon="7.33259">
        <ele>417.1</ele>
        <time>2000-01-02T00:26:55.000Z</time>
      </trkpt>
      <trkpt lat="48.22223" lon="7.33269">
        <ele>417.5</ele>
        <time>2000-01-02T00:27:05.000Z</time>
      </trkpt>
      <trkpt lat="48.22228" lon="7.33269">
        <ele>414</ele>
        <time>2000-01-02T00:27:15.000Z</time>
      </trkpt>
      <trkpt lat="48.22231" lon="7.33268">
        <ele>417.8</ele>
        <time>2000-01-02T00:27:25.000Z</time>
      </trkpt>
      <trkpt lat="48.22234" lon="7.33266">
        <ele>417.9</ele>
        <time>2000-01-02T00:27:35.000Z</time>
      </trkpt>
      <trkpt lat="48.22245" lon="7.3325">
        <ele>414</ele>
        <time>2000-01-02T00:27:45.000Z</time>
      </trkpt>
      <trkpt lat="48.22247" lon="7.33245">
        <ele>418.1</ele>
        <time>2000-01-02T00:27:55.000Z</time>
      </trkpt>
      <trkpt lat="48.22254" lon="7.33228">
        <ele>418.6</ele>
        <time>2000-01-02T00:28:05.000Z</time>
      </trkpt>
      <trkpt lat="48.22259" lon="7.33222">
        <ele>413</ele>
        <time>2000-01-02T00:28:15.000Z</time>
      </trkpt>
      <trkpt lat="48.2228" lon="7.33222">
        <ele>413</ele>
        <time>2000-01-02T00:28:25.000Z</time>
      </trkpt>
      <trkpt lat="48.2229" lon="7.33228">
        <ele>418.5</ele>
        <time>2000-01-02T00:28:35.000Z</time>
      </trkpt>
      <trkpt lat="48.223" lon="7.33237">
        <ele>414</ele>
        <time>2000-01-02T00:28:45.000Z</time>
      </trkpt>
      <trkpt lat="48.22305" lon="7.33243">
        <ele>418.8</ele>
        <time>2000-01-02T00:28:55.000Z</time>
      </trkpt>
      <trkpt lat="48.22313" lon="7.33252">
        <ele>420.6</ele>
        <time>2000-01-02T00:29:05.000Z</time>
      </trkpt>
      <trkpt lat="48.22315" lon="7.33255">
        <ele>415</ele>
        <time>2000-01-02T00:29:15.000Z</time>
      </trkpt>
      <trkpt lat="48.22315" lon="7.33262">
        <ele>420.7</ele>
        <time>2000-01-02T00:29:25.000Z</time>
      </trkpt>
      <trkpt lat="48.22312" lon="7.33271">
        <ele>421</ele>
        <time>2000-01-02T00:29:35.000Z</time>
      </trkpt>
      <trkpt lat="48.22303" lon="7.33285">
        <ele>416</ele>
        <time>2000-01-02T00:29:45.000Z</time>
      </trkpt>
      <trkpt lat="48.22292" lon="7.33297">
        <ele>421.4</ele>
        <time>2000-01-02T00:29:55.000Z</time>
      </trkpt>
      <trkpt lat="48.22289" lon="7.333">
        <ele>421.4</ele>
        <time>2000-01-02T00:30:05.000Z</time>
      </trkpt>
      <trkpt lat="48.22279" lon="7.33319">
        <ele>416</ele>
        <time>2000-01-02T00:30:15.000Z</time>
      </trkpt>
      <trkpt lat="48.22267" lon="7.33342">
        <ele>417</ele>
        <time>2000-01-02T00:30:25.000Z</time>
      </trkpt>
      <trkpt lat="48.22254" lon="7.33368">
        <ele>417</ele>
        <time>2000-01-02T00:30:35.000Z</time>
      </trkpt>
      <trkpt lat="48.2225" lon="7.33381">
        <ele>418.4</ele>
        <time>2000-01-02T00:30:45.000Z</time>
      </trkpt>
      <trkpt lat="48.22248" lon="7.33397">
        <ele>417</ele>
        <time>2000-01-02T00:30:55.000Z</time>
      </trkpt>
      <trkpt lat="48.22244" lon="7.33417">
        <ele>420</ele>
        <time>2000-01-02T00:31:05.000Z</time>
      </trkpt>
      <trkpt lat="48.22242" lon="7.33425">
        <ele>418</ele>
        <time>2000-01-02T00:31:15.000Z</time>
      </trkpt>
      <trkpt lat="48.2224" lon="7.33439">
        <ele>418.3</ele>
        <time>2000-01-02T00:31:25.000Z</time>
      </trkpt>
      <trkpt lat="48.2224" lon="7.33461">
        <ele>418</ele>
        <time>2000-01-02T00:31:35.000Z</time>
      </trkpt>
      <trkpt lat="48.22236" lon="7.33497">
        <ele>418</ele>
        <time>2000-01-02T00:31:45.000Z</time>
      </trkpt>
      <trkpt lat="48.22236" lon="7.33512">
        <ele>418.5</ele>
        <time>2000-01-02T00:31:55.000Z</time>
      </trkpt>
      <trkpt lat="48.22235" lon="7.33539">
        <ele>417</ele>
        <time>2000-01-02T00:32:05.000Z</time>
      </trkpt>
      <trkpt lat="48.22235" lon="7.33565">
        <ele>417.9</ele>
        <time>2000-01-02T00:32:15.000Z</time>
      </trkpt>
      <trkpt lat="48.22238" lon="7.33575">
        <ele>415</ele>
        <time>2000-01-02T00:32:25.000Z</time>
      </trkpt>
      <trkpt lat="48.22237" lon="7.33582">
        <ele>419.1</ele>
        <time>2000-01-02T00:32:35.000Z</time>
      </trkpt>
      <trkpt lat="48.2224" lon="7.33603">
        <ele>415</ele>
        <time>2000-01-02T00:32:45.000Z</time>
      </trkpt>
      <trkpt lat="48.22244" lon="7.33609">
        <ele>414.3</ele>
        <time>2000-01-02T00:32:55.000Z</time>
      </trkpt>
      <trkpt lat="48.22248" lon="7.33619">
        <ele>413.2</ele>
        <time>2000-01-02T00:33:05.000Z</time>
      </trkpt>
      <trkpt lat="48.22263" lon="7.33627">
        <ele>418</ele>
        <time>2000-01-02T00:33:15.000Z</time>
      </trkpt>
      <trkpt lat="48.22268" lon="7.33629">
        <ele>420.4</ele>
        <time>2000-01-02T00:33:25.000Z</time>
      </trkpt>
      <trkpt lat="48.22282" lon="7.33635">
        <ele>419</ele>
        <time>2000-01-02T00:33:35.000Z</time>
      </trkpt>
      <trkpt lat="48.22294" lon="7.33638">
        <ele>421.2</ele>
        <time>2000-01-02T00:33:45.000Z</time>
      </trkpt>
      <trkpt lat="48.22305" lon="7.33644">
        <ele>419</ele>
        <time>2000-01-02T00:33:55.000Z</time>
      </trkpt>
      <trkpt lat="48.2231" lon="7.33647">
        <ele>421.7</ele>
        <time>2000-01-02T00:34:05.000Z</time>
      </trkpt>
      <trkpt lat="48.22318" lon="7.3365">
        <ele>421.9</ele>
        <time>2000-01-02T00:34:15.000Z</time>
      </trkpt>
      <trkpt lat="48.22327" lon="7.33661">
        <ele>419</ele>
        <time>2000-01-02T00:34:25.000Z</time>
      </trkpt>
      <trkpt lat="48.22343" lon="7.33681">
        <ele>418</ele>
        <time>2000-01-02T00:34:35.000Z</time>
      </trkpt>
      <trkpt lat="48.22344" lon="7.33682">
        <ele>417.6</ele>
        <time>2000-01-02T00:34:45.000Z</time>
      </trkpt>
      <trkpt lat="48.22362" lon="7.33699">
        <ele>416</ele>
        <time>2000-01-02T00:34:55.000Z</time>
      </trkpt>
      <trkpt lat="48.22367" lon="7.33706">
        <ele>414.1</ele>
        <time>2000-01-02T00:35:05.000Z</time>
      </trkpt>
      <trkpt lat="48.22373" lon="7.33713">
        <ele>413.3</ele>
        <time>2000-01-02T00:35:15.000Z</time>
      </trkpt>
      <trkpt lat="48.22376" lon="7.33719">
        <ele>415</ele>
        <time>2000-01-02T00:35:25.000Z</time>
      </trkpt>
      <trkpt lat="48.22382" lon="7.33729">
        <ele>411.8</ele>
        <time>2000-01-02T00:35:35.000Z</time>
      </trkpt>
      <trkpt lat="48.22384" lon="7.33733">
        <ele>411.3</ele>
        <time>2000-01-02T00:35:45.000Z</time>
      </trkpt>
      <trkpt lat="48.2239" lon="7.33748">
        <ele>410</ele>
        <time>2000-01-02T00:35:55.000Z</time>
      </trkpt>
      <trkpt lat="48.22389" lon="7.33759">
        <ele>404.8</ele>
        <time>2000-01-02T00:36:05.000Z</time>
      </trkpt>
      <trkpt lat="48.22379" lon="7.33783">
        <ele>408</ele>
        <time>2000-01-02T00:36:15.000Z</time>
      </trkpt>
      <trkpt lat="48.22372" lon="7.33801">
        <ele>404.5</ele>
        <time>2000-01-02T00:36:25.000Z</time>
      </trkpt>
      <trkpt lat="48.2237" lon="7.33811">
        <ele>406</ele>
        <time>2000-01-02T00:36:35.000Z</time>
      </trkpt>
      <trkpt lat="48.22356" lon="7.33816">
        <ele>405</ele>
        <time>2000-01-02T00:36:45.000Z</time>
      </trkpt>
      <trkpt lat="48.22352" lon="7.33822">
        <ele>405</ele>
        <time>2000-01-02T00:36:55.000Z</time>
      </trkpt>
      <trkpt lat="48.22344" lon="7.33841">
        <ele>403.1</ele>
        <time>2000-01-02T00:37:05.000Z</time>
      </trkpt>
      <trkpt lat="48.22337" lon="7.3386">
        <ele>401</ele>
        <time>2000-01-02T00:37:15.000Z</time>
      </trkpt>
      <trkpt lat="48.22334" lon="7.33868">
        <ele>401.4</ele>
        <time>2000-01-02T00:37:25.000Z</time>
      </trkpt>
      <trkpt lat="48.22331" lon="7.3388">
        <ele>400.5</ele>
        <time>2000-01-02T00:37:35.000Z</time>
      </trkpt>
      <trkpt lat="48.22327" lon="7.33891">
        <ele>399</ele>
        <time>2000-01-02T00:37:45.000Z</time>
      </trkpt>
      <trkpt lat="48.22321" lon="7.3391">
        <ele>401.3</ele>
        <time>2000-01-02T00:37:55.000Z</time>
      </trkpt>
      <trkpt lat="48.22318" lon="7.33922">
        <ele>396</ele>
        <time>2000-01-02T00:38:05.000Z</time>
      </trkpt>
      <trkpt lat="48.22313" lon="7.33942">
        <ele>398.2</ele>
        <time>2000-01-02T00:38:15.000Z</time>
      </trkpt>
      <trkpt lat="48.22301" lon="7.33965">
        <ele>395</ele>
        <time>2000-01-02T00:38:25.000Z</time>
      </trkpt>
      <trkpt lat="48.22277" lon="7.33982">
        <ele>393</ele>
        <time>2000-01-02T00:38:35.000Z</time>
      </trkpt>
      <trkpt lat="48.22261" lon="7.33987">
        <ele>395.5</ele>
        <time>2000-01-02T00:38:45.000Z</time>
      </trkpt>
      <trkpt lat="48.22254" lon="7.3399">
        <ele>391</ele>
        <time>2000-01-02T00:38:55.000Z</time>
      </trkpt>
      <trkpt lat="48.22249" lon="7.33989">
        <ele>391</ele>
        <time>2000-01-02T00:39:05.000Z</time>
      </trkpt>
      <trkpt lat="48.2224" lon="7.33994">
        <ele>390.6</ele>
        <time>2000-01-02T00:39:15.000Z</time>
      </trkpt>
      <trkpt lat="48.2223" lon="7.34">
        <ele>388</ele>
        <time>2000-01-02T00:39:25.000Z</time>
      </trkpt>
      <trkpt lat="48.22221" lon="7.34007">
        <ele>389.3</ele>
        <time>2000-01-02T00:39:35.000Z</time>
      </trkpt>
      <trkpt lat="48.22205" lon="7.34017">
        <ele>386</ele>
        <time>2000-01-02T00:39:45.000Z</time>
      </trkpt>
      <trkpt lat="48.222" lon="7.3402">
        <ele>386.6</ele>
        <time>2000-01-02T00:39:55.000Z</time>
      </trkpt>
      <trkpt lat="48.22197" lon="7.34022">
        <ele>386.4</ele>
        <time>2000-01-02T00:40:05.000Z</time>
      </trkpt>
      <trkpt lat="48.22194" lon="7.34023">
        <ele>386.1</ele>
        <time>2000-01-02T00:40:15.000Z</time>
      </trkpt>
      <trkpt lat="48.2219" lon="7.34025">
        <ele>385.7</ele>
        <time>2000-01-02T00:40:25.000Z</time>
      </trkpt>
      <trkpt lat="48.22189" lon="7.34026">
        <ele>385.7</ele>
        <time>2000-01-02T00:40:35.000Z</time>
      </trkpt>
      <trkpt lat="48.22178" lon="7.34031">
        <ele>383</ele>
        <time>2000-01-02T00:40:45.000Z</time>
      </trkpt>
      <trkpt lat="48.22171" lon="7.3404">
        <ele>385.4</ele>
        <time>2000-01-02T00:40:55.000Z</time>
      </trkpt>
      <trkpt lat="48.22162" lon="7.34056">
        <ele>383</ele>
        <time>2000-01-02T00:41:05.000Z</time>
      </trkpt>
      <trkpt lat="48.22155" lon="7.3407">
        <ele>376</ele>
        <time>2000-01-02T00:41:15.000Z</time>
      </trkpt>
      <trkpt lat="48.22146" lon="7.34089">
        <ele>380</ele>
        <time>2000-01-02T00:41:25.000Z</time>
      </trkpt>
      <trkpt lat="48.22138" lon="7.34115">
        <ele>376</ele>
        <time>2000-01-02T00:41:35.000Z</time>
      </trkpt>
      <trkpt lat="48.22137" lon="7.34148">
        <ele>376</ele>
        <time>2000-01-02T00:41:45.000Z</time>
      </trkpt>
      <trkpt lat="48.2214" lon="7.34167">
        <ele>374.3</ele>
        <time>2000-01-02T00:41:55.000Z</time>
      </trkpt>
      <trkpt lat="48.22143" lon="7.34178">
        <ele>376</ele>
        <time>2000-01-02T00:42:05.000Z</time>
      </trkpt>
      <trkpt lat="48.22144" lon="7.34201">
        <ele>373.1</ele>
        <time>2000-01-02T00:42:15.000Z</time>
      </trkpt>
      <trkpt lat="48.22143" lon="7.34236">
        <ele>374</ele>
        <time>2000-01-02T00:42:25.000Z</time>
      </trkpt>
      <trkpt lat="48.22142" lon="7.3426">
        <ele>372.9</ele>
        <time>2000-01-02T00:42:35.000Z</time>
      </trkpt>
      <trkpt lat="48.2215" lon="7.34288">
        <ele>373</ele>
        <time>2000-01-02T00:42:45.000Z</time>
      </trkpt>
      <trkpt lat="48.22156" lon="7.34314">
        <ele>372</ele>
        <time>2000-01-02T00:42:55.000Z</time>
      </trkpt>
      <trkpt lat="48.22161" lon="7.34342">
        <ele>371</ele>
        <time>2000-01-02T00:43:05.000Z</time>
      </trkpt>
      <trkpt lat="48.22166" lon="7.34363">
        <ele>375.1</ele>
        <time>2000-01-02T00:43:15.000Z</time>
      </trkpt>
      <trkpt lat="48.22174" lon="7.34397">
        <ele>369</ele>
        <time>2000-01-02T00:43:25.000Z</time>
      </trkpt>
      <trkpt lat="48.22175" lon="7.34428">
        <ele>369</ele>
        <time>2000-01-02T00:43:35.000Z</time>
      </trkpt>
      <trkpt lat="48.22173" lon="7.34437">
        <ele>365.2</ele>
        <time>2000-01-02T00:43:45.000Z</time>
      </trkpt>
      <trkpt lat="48.22171" lon="7.34452">
        <ele>363.6</ele>
        <time>2000-01-02T00:43:55.000Z</time>
      </trkpt>
      <trkpt lat="48.2217" lon="7.34473">
        <ele>367</ele>
        <time>2000-01-02T00:44:05.000Z</time>
      </trkpt>
      <trkpt lat="48.22167" lon="7.34514">
        <ele>365</ele>
        <time>2000-01-02T00:44:15.000Z</time>
      </trkpt>
      <trkpt lat="48.22161" lon="7.34542">
        <ele>365</ele>
        <time>2000-01-02T00:44:25.000Z</time>
      </trkpt>
      <trkpt lat="48.22161" lon="7.34554">
        <ele>373.8</ele>
        <time>2000-01-02T00:44:35.000Z</time>
      </trkpt>
      <trkpt lat="48.22164" lon="7.34582">
        <ele>363</ele>
        <time>2000-01-02T00:44:45.000Z</time>
      </trkpt>
      <trkpt lat="48.22167" lon="7.34607">
        <ele>357.7</ele>
        <time>2000-01-02T00:44:55.000Z</time>
      </trkpt>
      <trkpt lat="48.22167" lon="7.34633">
        <ele>361</ele>
        <time>2000-01-02T00:45:05.000Z</time>
      </trkpt>
      <trkpt lat="48.22173" lon="7.34666">
        <ele>359</ele>
        <time>2000-01-02T00:45:15.000Z</time>
      </trkpt>
      <trkpt lat="48.22174" lon="7.34688">
        <ele>352.2</ele>
        <time>2000-01-02T00:45:25.000Z</time>
      </trkpt>
      <trkpt lat="48.22173" lon="7.34711">
        <ele>356</ele>
        <time>2000-01-02T00:45:35.000Z</time>
      </trkpt>
      <trkpt lat="48.22171" lon="7.34741">
        <ele>355</ele>
        <time>2000-01-02T00:45:45.000Z</time>
      </trkpt>
      <trkpt lat="48.22169" lon="7.34768">
        <ele>354</ele>
        <time>2000-01-02T00:45:55.000Z</time>
      </trkpt>
      <trkpt lat="48.22166" lon="7.34796">
        <ele>352</ele>
        <time>2000-01-02T00:46:05.000Z</time>
      </trkpt>
      <trkpt lat="48.22162" lon="7.34819">
        <ele>354</ele>
        <time>2000-01-02T00:46:15.000Z</time>
      </trkpt>
      <trkpt lat="48.22157" lon="7.34844">
        <ele>350</ele>
        <time>2000-01-02T00:46:25.000Z</time>
      </trkpt>
      <trkpt lat="48.22155" lon="7.34868">
        <ele>350.5</ele>
        <time>2000-01-02T00:46:35.000Z</time>
      </trkpt>
      <trkpt lat="48.22154" lon="7.34883">
        <ele>349</ele>
        <time>2000-01-02T00:46:45.000Z</time>
      </trkpt>
      <trkpt lat="48.22146" lon="7.34908">
        <ele>347</ele>
        <time>2000-01-02T00:46:55.000Z</time>
      </trkpt>
      <trkpt lat="48.22138" lon="7.34933">
        <ele>346</ele>
        <time>2000-01-02T00:47:05.000Z</time>
      </trkpt>
      <trkpt lat="48.22127" lon="7.34957">
        <ele>344</ele>
        <time>2000-01-02T00:47:15.000Z</time>
      </trkpt>
      <trkpt lat="48.22122" lon="7.34973">
        <ele>343.3</ele>
        <time>2000-01-02T00:47:25.000Z</time>
      </trkpt>
      <trkpt lat="48.22133" lon="7.34982">
        <ele>343</ele>
        <time>2000-01-02T00:47:35.000Z</time>
      </trkpt>
      <trkpt lat="48.22148" lon="7.34988">
        <ele>340.5</ele>
        <time>2000-01-02T00:47:45.000Z</time>
      </trkpt>
      <trkpt lat="48.22164" lon="7.34995">
        <ele>341</ele>
        <time>2000-01-02T00:47:55.000Z</time>
      </trkpt>
      <trkpt lat="48.22178" lon="7.35">
        <ele>333.9</ele>
        <time>2000-01-02T00:48:05.000Z</time>
      </trkpt>
      <trkpt lat="48.22186" lon="7.35002">
        <ele>338</ele>
        <time>2000-01-02T00:48:15.000Z</time>
      </trkpt>
      <trkpt lat="48.22193" lon="7.34998">
        <ele>331.7</ele>
        <time>2000-01-02T00:48:25.000Z</time>
      </trkpt>
      <trkpt lat="48.22212" lon="7.34971">
        <ele>334</ele>
        <time>2000-01-02T00:48:35.000Z</time>
      </trkpt>
      <trkpt lat="48.22222" lon="7.34955">
        <ele>329.3</ele>
        <time>2000-01-02T00:48:45.000Z</time>
      </trkpt>
      <trkpt lat="48.22225" lon="7.34947">
        <ele>333</ele>
        <time>2000-01-02T00:48:55.000Z</time>
      </trkpt>
      <trkpt lat="48.22232" lon="7.34933">
        <ele>328.5</ele>
        <time>2000-01-02T00:49:05.000Z</time>
      </trkpt>
      <trkpt lat="48.22236" lon="7.34927">
        <ele>327.8</ele>
        <time>2000-01-02T00:49:15.000Z</time>
      </trkpt>
      <trkpt lat="48.2224" lon="7.34916">
        <ele>330</ele>
        <time>2000-01-02T00:49:25.000Z</time>
      </trkpt>
      <trkpt lat="48.22245" lon="7.349">
        <ele>329.7</ele>
        <time>2000-01-02T00:49:35.000Z</time>
      </trkpt>
      <trkpt lat="48.22249" lon="7.34871">
        <ele>327</ele>
        <time>2000-01-02T00:49:45.000Z</time>
      </trkpt>
      <trkpt lat="48.2225" lon="7.34845">
        <ele>329.8</ele>
        <time>2000-01-02T00:49:55.000Z</time>
      </trkpt>
      <trkpt lat="48.22253" lon="7.34816">
        <ele>324</ele>
        <time>2000-01-02T00:50:05.000Z</time>
      </trkpt>
      <trkpt lat="48.22252" lon="7.34804">
        <ele>319.7</ele>
        <time>2000-01-02T00:50:15.000Z</time>
      </trkpt>
      <trkpt lat="48.22254" lon="7.34803">
        <ele>319.5</ele>
        <time>2000-01-02T00:50:25.000Z</time>
      </trkpt>
      <trkpt lat="48.22256" lon="7.34802">
        <ele>319.3</ele>
        <time>2000-01-02T00:50:35.000Z</time>
      </trkpt>
      <trkpt lat="48.22258" lon="7.34804">
        <ele>319.2</ele>
        <time>2000-01-02T00:50:45.000Z</time>
      </trkpt>
      <trkpt lat="48.22261" lon="7.34813">
        <ele>319</ele>
        <time>2000-01-02T00:50:55.000Z</time>
      </trkpt>
      <trkpt lat="48.22263" lon="7.34821">
        <ele>320.4</ele>
        <time>2000-01-02T00:51:05.000Z</time>
      </trkpt>
      <trkpt lat="48.22267" lon="7.34835">
        <ele>318.7</ele>
        <time>2000-01-02T00:51:15.000Z</time>
      </trkpt>
      <trkpt lat="48.22269" lon="7.34844">
        <ele>315</ele>
        <time>2000-01-02T00:51:25.000Z</time>
      </trkpt>
      <trkpt lat="48.22272" lon="7.34861">
        <ele>314.7</ele>
        <time>2000-01-02T00:51:35.000Z</time>
      </trkpt>
      <trkpt lat="48.2227" lon="7.3488">
        <ele>311</ele>
        <time>2000-01-02T00:51:45.000Z</time>
      </trkpt>
      <trkpt lat="48.22271" lon="7.34894">
        <ele>314.6</ele>
        <time>2000-01-02T00:51:55.000Z</time>
      </trkpt>
      <trkpt lat="48.22274" lon="7.34909">
        <ele>311</ele>
        <time>2000-01-02T00:52:05.000Z</time>
      </trkpt>
      <trkpt lat="48.22277" lon="7.34922">
        <ele>311.2</ele>
        <time>2000-01-02T00:52:15.000Z</time>
      </trkpt>
      <trkpt lat="48.22286" lon="7.34942">
        <ele>308</ele>
        <time>2000-01-02T00:52:25.000Z</time>
      </trkpt>
      <trkpt lat="48.22288" lon="7.34953">
        <ele>306.4</ele>
        <time>2000-01-02T00:52:35.000Z</time>
      </trkpt>
      <trkpt lat="48.22292" lon="7.34967">
        <ele>305.1</ele>
        <time>2000-01-02T00:52:45.000Z</time>
      </trkpt>
      <trkpt lat="48.22294" lon="7.34982">
        <ele>299</ele>
        <time>2000-01-02T00:52:55.000Z</time>
      </trkpt>
      <trkpt lat="48.22297" lon="7.34995">
        <ele>302.8</ele>
        <time>2000-01-02T00:53:05.000Z</time>
      </trkpt>
      <trkpt lat="48.223" lon="7.35008">
        <ele>296</ele>
        <time>2000-01-02T00:53:15.000Z</time>
      </trkpt>
      <trkpt lat="48.22308" lon="7.3503">
        <ele>298.2</ele>
        <time>2000-01-02T00:53:25.000Z</time>
      </trkpt>
      <trkpt lat="48.22317" lon="7.35042">
        <ele>292</ele>
        <time>2000-01-02T00:53:35.000Z</time>
      </trkpt>
      <trkpt lat="48.22323" lon="7.35051">
        <ele>295.8</ele>
        <time>2000-01-02T00:53:45.000Z</time>
      </trkpt>
      <trkpt lat="48.22329" lon="7.35061">
        <ele>293.8</ele>
        <time>2000-01-02T00:53:55.000Z</time>
      </trkpt>
      <trkpt lat="48.22337" lon="7.35075">
        <ele>288</ele>
        <time>2000-01-02T00:54:05.000Z</time>
      </trkpt>
      <trkpt lat="48.22342" lon="7.35084">
        <ele>282.9</ele>
        <time>2000-01-02T00:54:15.000Z</time>
      </trkpt>
      <trkpt lat="48.22345" lon="7.35088">
        <ele>282.2</ele>
        <time>2000-01-02T00:54:25.000Z</time>
      </trkpt>
      <trkpt lat="48.2235" lon="7.35095">
        <ele>288</ele>
        <time>2000-01-02T00:54:35.000Z</time>
      </trkpt>
      <trkpt lat="48.22358" lon="7.35106">
        <ele>279.8</ele>
        <time>2000-01-02T00:54:45.000Z</time>
      </trkpt>
      <trkpt lat="48.22365" lon="7.35115">
        <ele>277</ele>
        <time>2000-01-02T00:54:55.000Z</time>
      </trkpt>
      <trkpt lat="48.22372" lon="7.35126">
        <ele>278.3</ele>
        <time>2000-01-02T00:55:05.000Z</time>
      </trkpt>
      <trkpt lat="48.22379" lon="7.35144">
        <ele>274</ele>
        <time>2000-01-02T00:55:15.000Z</time>
      </trkpt>
      <trkpt lat="48.22381" lon="7.3515">
        <ele>277.2</ele>
        <time>2000-01-02T00:55:25.000Z</time>
      </trkpt>
      <trkpt lat="48.22382" lon="7.35152">
        <ele>277</ele>
        <time>2000-01-02T00:55:35.000Z</time>
      </trkpt>
      <trkpt lat="48.22388" lon="7.3515">
        <ele>276.2</ele>
        <time>2000-01-02T00:55:45.000Z</time>
      </trkpt>
      <trkpt lat="48.22399" lon="7.35143">
        <ele>271</ele>
        <time>2000-01-02T00:55:55.000Z</time>
      </trkpt>
      <trkpt lat="48.22415" lon="7.35131">
        <ele>270</ele>
        <time>2000-01-02T00:56:05.000Z</time>
      </trkpt>
      <trkpt lat="48.22432" lon="7.3512">
        <ele>270</ele>
        <time>2000-01-02T00:56:15.000Z</time>
      </trkpt>
      <trkpt lat="48.2245" lon="7.3511">
        <ele>272</ele>
        <time>2000-01-02T00:56:25.000Z</time>
      </trkpt>
      <trkpt lat="48.22471" lon="7.35107">
        <ele>272</ele>
        <time>2000-01-02T00:56:35.000Z</time>
      </trkpt>
      <trkpt lat="48.22476" lon="7.35108">
        <ele>269.4</ele>
        <time>2000-01-02T00:56:45.000Z</time>
      </trkpt>
      <trkpt lat="48.22478" lon="7.35106">
        <ele>269.4</ele>
        <time>2000-01-02T00:56:55.000Z</time>
      </trkpt>
      <trkpt lat="48.22485" lon="7.35106">
        <ele>269.4</ele>
        <time>2000-01-02T00:57:05.000Z</time>
      </trkpt>
      <trkpt lat="48.22496" lon="7.35106">
        <ele>272</ele>
        <time>2000-01-02T00:57:15.000Z</time>
      </trkpt>
      <trkpt lat="48.22513" lon="7.35108">
        <ele>266.6</ele>
        <time>2000-01-02T00:57:25.000Z</time>
      </trkpt>
      <trkpt lat="48.22525" lon="7.35109">
        <ele>270</ele>
        <time>2000-01-02T00:57:35.000Z</time>
      </trkpt>
      <trkpt lat="48.22528" lon="7.35113">
        <ele>265.7</ele>
        <time>2000-01-02T00:57:45.000Z</time>
      </trkpt>
      <trkpt lat="48.22535" lon="7.35141">
        <ele>267</ele>
        <time>2000-01-02T00:57:55.000Z</time>
      </trkpt>
      <trkpt lat="48.22539" lon="7.35149">
        <ele>264.4</ele>
        <time>2000-01-02T00:58:05.000Z</time>
      </trkpt>
      <trkpt lat="48.22546" lon="7.35143">
        <ele>264.1</ele>
        <time>2000-01-02T00:58:15.000Z</time>
      </trkpt>
      <trkpt lat="48.22557" lon="7.35121">
        <ele>266</ele>
        <time>2000-01-02T00:58:25.000Z</time>
      </trkpt>
      <trkpt lat="48.2256" lon="7.35106">
        <ele>264.3</ele>
        <time>2000-01-02T00:58:35.000Z</time>
      </trkpt>
      <trkpt lat="48.22571" lon="7.35093">
        <ele>265</ele>
        <time>2000-01-02T00:58:45.000Z</time>
      </trkpt>
      <trkpt lat="48.22571" lon="7.35098">
        <ele>263.9</ele>
        <time>2000-01-02T00:58:55.000Z</time>
      </trkpt>
      <trkpt lat="48.22572" lon="7.35093">
        <ele>263.8</ele>
        <time>2000-01-02T00:59:05.000Z</time>
      </trkpt>
      <trkpt lat="48.22577" lon="7.35081">
        <ele>264.3</ele>
        <time>2000-01-02T00:59:15.000Z</time>
      </trkpt>
      <trkpt lat="48.22582" lon="7.35069">
        <ele>265</ele>
        <time>2000-01-02T00:59:25.000Z</time>
      </trkpt>
      <trkpt lat="48.22589" lon="7.35042">
        <ele>266</ele>
        <time>2000-01-02T00:59:35.000Z</time>
      </trkpt>
      <trkpt lat="48.226" lon="7.3502">
        <ele>266</ele>
        <time>2000-01-02T00:59:45.000Z</time>
      </trkpt>
      <trkpt lat="48.2261" lon="7.34997">
        <ele>266</ele>
        <time>2000-01-02T00:59:55.000Z</time>
      </trkpt>
      <trkpt lat="48.22615" lon="7.34988">
        <ele>269.8</ele>
        <time>2000-01-02T01:00:05.000Z</time>
      </trkpt>
      <trkpt lat="48.22621" lon="7.34978">
        <ele>270.1</ele>
        <time>2000-01-02T01:00:15.000Z</time>
      </trkpt>
      <trkpt lat="48.22636" lon="7.3495">
        <ele>268</ele>
        <time>2000-01-02T01:00:25.000Z</time>
      </trkpt>
      <trkpt lat="48.22647" lon="7.34925">
        <ele>269</ele>
        <time>2000-01-02T01:00:35.000Z</time>
      </trkpt>
      <trkpt lat="48.22657" lon="7.34902">
        <ele>270</ele>
        <time>2000-01-02T01:00:45.000Z</time>
      </trkpt>
      <trkpt lat="48.22668" lon="7.34884">
        <ele>277.3</ele>
        <time>2000-01-02T01:00:55.000Z</time>
      </trkpt>
      <trkpt lat="48.22673" lon="7.34865">
        <ele>276</ele>
        <time>2000-01-02T01:01:05.000Z</time>
      </trkpt>
      <trkpt lat="48.22676" lon="7.34857">
        <ele>277.5</ele>
        <time>2000-01-02T01:01:15.000Z</time>
      </trkpt>
      <trkpt lat="48.22679" lon="7.3484">
        <ele>276.7</ele>
        <time>2000-01-02T01:01:25.000Z</time>
      </trkpt>
      <trkpt lat="48.22682" lon="7.34829">
        <ele>280</ele>
        <time>2000-01-02T01:01:35.000Z</time>
      </trkpt>
      <trkpt lat="48.22685" lon="7.3482">
        <ele>280.4</ele>
        <time>2000-01-02T01:01:45.000Z</time>
      </trkpt>
      <trkpt lat="48.22694" lon="7.34817">
        <ele>281.9</ele>
        <time>2000-01-02T01:01:55.000Z</time>
      </trkpt>
      <trkpt lat="48.22709" lon="7.34816">
        <ele>284</ele>
        <time>2000-01-02T01:02:05.000Z</time>
      </trkpt>
      <trkpt lat="48.22716" lon="7.34816">
        <ele>284.3</ele>
        <time>2000-01-02T01:02:15.000Z</time>
      </trkpt>
      <trkpt lat="48.22722" lon="7.34815">
        <ele>284.9</ele>
        <time>2000-01-02T01:02:25.000Z</time>
      </trkpt>
      <trkpt lat="48.22731" lon="7.34802">
        <ele>288</ele>
        <time>2000-01-02T01:02:35.000Z</time>
      </trkpt>
      <trkpt lat="48.2273" lon="7.34796">
        <ele>285.9</ele>
        <time>2000-01-02T01:02:45.000Z</time>
      </trkpt>
      <trkpt lat="48.22732" lon="7.34788">
        <ele>286.4</ele>
        <time>2000-01-02T01:02:55.000Z</time>
      </trkpt>
      <trkpt lat="48.22734" lon="7.3478">
        <ele>287.1</ele>
        <time>2000-01-02T01:03:05.000Z</time>
      </trkpt>
      <trkpt lat="48.22735" lon="7.34774">
        <ele>290</ele>
        <time>2000-01-02T01:03:15.000Z</time>
      </trkpt>
      <trkpt lat="48.22737" lon="7.34767">
        <ele>288.6</ele>
        <time>2000-01-02T01:03:25.000Z</time>
      </trkpt>
      <trkpt lat="48.22738" lon="7.34758">
        <ele>289.9</ele>
        <time>2000-01-02T01:03:35.000Z</time>
      </trkpt>
      <trkpt lat="48.22739" lon="7.34743">
        <ele>293</ele>
        <time>2000-01-02T01:03:45.000Z</time>
      </trkpt>
      <trkpt lat="48.22741" lon="7.34725">
        <ele>293.2</ele>
        <time>2000-01-02T01:03:55.000Z</time>
      </trkpt>
      <trkpt lat="48.22742" lon="7.3472">
        <ele>293.4</ele>
        <time>2000-01-02T01:04:05.000Z</time>
      </trkpt>
      <trkpt lat="48.22743" lon="7.34711">
        <ele>297</ele>
        <time>2000-01-02T01:04:15.000Z</time>
      </trkpt>
      <trkpt lat="48.22745" lon="7.34692">
        <ele>295.9</ele>
        <time>2000-01-02T01:04:25.000Z</time>
      </trkpt>
      <trkpt lat="48.22747" lon="7.34672">
        <ele>301</ele>
        <time>2000-01-02T01:04:35.000Z</time>
      </trkpt>
      <trkpt lat="48.22749" lon="7.3466">
        <ele>301.9</ele>
        <time>2000-01-02T01:04:45.000Z</time>
      </trkpt>
      <trkpt lat="48.22751" lon="7.34654">
        <ele>308.1</ele>
        <time>2000-01-02T01:04:55.000Z</time>
      </trkpt>
      <trkpt lat="48.22753" lon="7.34646">
        <ele>305</ele>
        <time>2000-01-02T01:05:05.000Z</time>
      </trkpt>
      <trkpt lat="48.22756" lon="7.34631">
        <ele>312.3</ele>
        <time>2000-01-02T01:05:15.000Z</time>
      </trkpt>
      <trkpt lat="48.22762" lon="7.34614">
        <ele>307</ele>
        <time>2000-01-02T01:05:25.000Z</time>
      </trkpt>
      <trkpt lat="48.22766" lon="7.34599">
        <ele>312.9</ele>
        <time>2000-01-02T01:05:35.000Z</time>
      </trkpt>
      <trkpt lat="48.22768" lon="7.34588">
        <ele>309</ele>
        <time>2000-01-02T01:05:45.000Z</time>
      </trkpt>
      <trkpt lat="48.2277" lon="7.34578">
        <ele>315.7</ele>
        <time>2000-01-02T01:05:55.000Z</time>
      </trkpt>
      <trkpt lat="48.22771" lon="7.34566">
        <ele>317.1</ele>
        <time>2000-01-02T01:06:05.000Z</time>
      </trkpt>
      <trkpt lat="48.22773" lon="7.34551">
        <ele>313</ele>
        <time>2000-01-02T01:06:15.000Z</time>
      </trkpt>
      <trkpt lat="48.22776" lon="7.34535">
        <ele>319.6</ele>
        <time>2000-01-02T01:06:25.000Z</time>
      </trkpt>
      <trkpt lat="48.22777" lon="7.34523">
        <ele>315</ele>
        <time>2000-01-02T01:06:35.000Z</time>
      </trkpt>
      <trkpt lat="48.22779" lon="7.34501">
        <ele>319.6</ele>
        <time>2000-01-02T01:06:45.000Z</time>
      </trkpt>
      <trkpt lat="48.22779" lon="7.34499">
        <ele>321.3</ele>
        <time>2000-01-02T01:06:55.000Z</time>
      </trkpt>
      <trkpt lat="48.2278" lon="7.34486">
        <ele>316</ele>
        <time>2000-01-02T01:07:05.000Z</time>
      </trkpt>
      <trkpt lat="48.22781" lon="7.34472">
        <ele>323</ele>
        <time>2000-01-02T01:07:15.000Z</time>
      </trkpt>
      <trkpt lat="48.22784" lon="7.34459">
        <ele>322</ele>
        <time>2000-01-02T01:07:25.000Z</time>
      </trkpt>
      <trkpt lat="48.22786" lon="7.34445">
        <ele>324.2</ele>
        <time>2000-01-02T01:07:35.000Z</time>
      </trkpt>
      <trkpt lat="48.2279" lon="7.34433">
        <ele>322</ele>
        <time>2000-01-02T01:07:45.000Z</time>
      </trkpt>
      <trkpt lat="48.22792" lon="7.34426">
        <ele>325.4</ele>
        <time>2000-01-02T01:07:55.000Z</time>
      </trkpt>
      <trkpt lat="48.22792" lon="7.34413">
        <ele>326.7</ele>
        <time>2000-01-02T01:08:05.000Z</time>
      </trkpt>
      <trkpt lat="48.22795" lon="7.344">
        <ele>326</ele>
        <time>2000-01-02T01:08:15.000Z</time>
      </trkpt>
      <trkpt lat="48.22797" lon="7.34376">
        <ele>327.7</ele>
        <time>2000-01-02T01:08:25.000Z</time>
      </trkpt>
      <trkpt lat="48.22797" lon="7.3436">
        <ele>326</ele>
        <time>2000-01-02T01:08:35.000Z</time>
      </trkpt>
      <trkpt lat="48.22798" lon="7.34345">
        <ele>328.4</ele>
        <time>2000-01-02T01:08:45.000Z</time>
      </trkpt>
      <trkpt lat="48.22802" lon="7.34322">
        <ele>329</ele>
        <time>2000-01-02T01:08:55.000Z</time>
      </trkpt>
      <trkpt lat="48.22804" lon="7.34318">
        <ele>332.1</ele>
        <time>2000-01-02T01:09:05.000Z</time>
      </trkpt>
      <trkpt lat="48.22804" lon="7.34317">
        <ele>332.1</ele>
        <time>2000-01-02T01:09:15.000Z</time>
      </trkpt>
      <trkpt lat="48.22808" lon="7.34311">
        <ele>332.6</ele>
        <time>2000-01-02T01:09:25.000Z</time>
      </trkpt>
      <trkpt lat="48.22809" lon="7.34301">
        <ele>332.7</ele>
        <time>2000-01-02T01:09:35.000Z</time>
      </trkpt>
      <trkpt lat="48.22812" lon="7.34291">
        <ele>335</ele>
        <time>2000-01-02T01:09:45.000Z</time>
      </trkpt>
      <trkpt lat="48.22814" lon="7.34281">
        <ele>333.8</ele>
        <time>2000-01-02T01:09:55.000Z</time>
      </trkpt>
      <trkpt lat="48.22816" lon="7.34276">
        <ele>334.3</ele>
        <time>2000-01-02T01:10:05.000Z</time>
      </trkpt>
      <trkpt lat="48.22819" lon="7.34264">
        <ele>337</ele>
        <time>2000-01-02T01:10:15.000Z</time>
      </trkpt>
      <trkpt lat="48.22821" lon="7.34254">
        <ele>337.1</ele>
        <time>2000-01-02T01:10:25.000Z</time>
      </trkpt>
      <trkpt lat="48.22822" lon="7.34252">
        <ele>337.5</ele>
        <time>2000-01-02T01:10:35.000Z</time>
      </trkpt>
      <trkpt lat="48.22823" lon="7.34249">
        <ele>340.1</ele>
        <time>2000-01-02T01:10:45.000Z</time>
      </trkpt>
      <trkpt lat="48.22823" lon="7.3425">
        <ele>337.8</ele>
        <time>2000-01-02T01:10:55.000Z</time>
      </trkpt>
      <trkpt lat="48.22821" lon="7.34245">
        <ele>340</ele>
        <time>2000-01-02T01:11:05.000Z</time>
      </trkpt>
      <trkpt lat="48.22823" lon="7.3424">
        <ele>340</ele>
        <time>2000-01-02T01:11:15.000Z</time>
      </trkpt>
      <trkpt lat="48.22824" lon="7.34237">
        <ele>340.1</ele>
        <time>2000-01-02T01:11:25.000Z</time>
      </trkpt>
      <trkpt lat="48.22829" lon="7.34224">
        <ele>340.3</ele>
        <time>2000-01-02T01:11:35.000Z</time>
      </trkpt>
      <trkpt lat="48.22831" lon="7.34217">
        <ele>340.6</ele>
        <time>2000-01-02T01:11:45.000Z</time>
      </trkpt>
      <trkpt lat="48.22837" lon="7.34206">
        <ele>344</ele>
        <time>2000-01-02T01:11:55.000Z</time>
      </trkpt>
      <trkpt lat="48.2284" lon="7.34202">
        <ele>347.9</ele>
        <time>2000-01-02T01:12:05.000Z</time>
      </trkpt>
      <trkpt lat="48.22843" lon="7.34197">
        <ele>348.2</ele>
        <time>2000-01-02T01:12:15.000Z</time>
      </trkpt>
      <trkpt lat="48.22854" lon="7.34189">
        <ele>348</ele>
        <time>2000-01-02T01:12:25.000Z</time>
      </trkpt>
      <trkpt lat="48.22856" lon="7.34188">
        <ele>348.9</ele>
        <time>2000-01-02T01:12:35.000Z</time>
      </trkpt>
      <trkpt lat="48.22861" lon="7.34185">
        <ele>349.2</ele>
        <time>2000-01-02T01:12:45.000Z</time>
      </trkpt>
      <trkpt lat="48.22871" lon="7.34178">
        <ele>351</ele>
        <time>2000-01-02T01:12:55.000Z</time>
      </trkpt>
      <trkpt lat="48.22874" lon="7.34176">
        <ele>350.1</ele>
        <time>2000-01-02T01:13:05.000Z</time>
      </trkpt>
      <trkpt lat="48.22883" lon="7.34169">
        <ele>350.9</ele>
        <time>2000-01-02T01:13:15.000Z</time>
      </trkpt>
      <trkpt lat="48.22885" lon="7.34168">
        <ele>351.1</ele>
        <time>2000-01-02T01:13:25.000Z</time>
      </trkpt>
      <trkpt lat="48.22887" lon="7.34164">
        <ele>353</ele>
        <time>2000-01-02T01:13:35.000Z</time>
      </trkpt>
      <trkpt lat="48.22891" lon="7.34161">
        <ele>355.6</ele>
        <time>2000-01-02T01:13:45.000Z</time>
      </trkpt>
      <trkpt lat="48.22895" lon="7.34155">
        <ele>355.9</ele>
        <time>2000-01-02T01:13:55.000Z</time>
      </trkpt>
      <trkpt lat="48.22898" lon="7.34149">
        <ele>356.1</ele>
        <time>2000-01-02T01:14:05.000Z</time>
      </trkpt>
      <trkpt lat="48.22903" lon="7.34138">
        <ele>356</ele>
        <time>2000-01-02T01:14:15.000Z</time>
      </trkpt>
      <trkpt lat="48.22905" lon="7.34135">
        <ele>356.8</ele>
        <time>2000-01-02T01:14:25.000Z</time>
      </trkpt>
      <trkpt lat="48.22909" lon="7.3413">
        <ele>357.2</ele>
        <time>2000-01-02T01:14:35.000Z</time>
      </trkpt>
      <trkpt lat="48.2291" lon="7.34129">
        <ele>357.3</ele>
        <time>2000-01-02T01:14:45.000Z</time>
      </trkpt>
      <trkpt lat="48.22924" lon="7.34116">
        <ele>359</ele>
        <time>2000-01-02T01:14:55.000Z</time>
      </trkpt>
      <trkpt lat="48.2293" lon="7.3411">
        <ele>361.5</ele>
        <time>2000-01-02T01:15:05.000Z</time>
      </trkpt>
      <trkpt lat="48.22935" lon="7.34101">
        <ele>361.9</ele>
        <time>2000-01-02T01:15:15.000Z</time>
      </trkpt>
      <trkpt lat="48.22941" lon="7.34085">
        <ele>363</ele>
        <time>2000-01-02T01:15:25.000Z</time>
      </trkpt>
      <trkpt lat="48.22946" lon="7.34064">
        <ele>368.2</ele>
        <time>2000-01-02T01:15:35.000Z</time>
      </trkpt>
      <trkpt lat="48.2295" lon="7.34052">
        <ele>365</ele>
        <time>2000-01-02T01:15:45.000Z</time>
      </trkpt>
      <trkpt lat="48.22953" lon="7.34046">
        <ele>369.4</ele>
        <time>2000-01-02T01:15:55.000Z</time>
      </trkpt>
      <trkpt lat="48.22954" lon="7.34044">
        <ele>369.6</ele>
        <time>2000-01-02T01:16:05.000Z</time>
      </trkpt>
      <trkpt lat="48.22959" lon="7.3403">
        <ele>370.4</ele>
        <time>2000-01-02T01:16:15.000Z</time>
      </trkpt>
      <trkpt lat="48.22962" lon="7.34022">
        <ele>370</ele>
        <time>2000-01-02T01:16:25.000Z</time>
      </trkpt>
      <trkpt lat="48.22967" lon="7.34008">
        <ele>371.7</ele>
        <time>2000-01-02T01:16:35.000Z</time>
      </trkpt>
      <trkpt lat="48.22969" lon="7.34">
        <ele>377.9</ele>
        <time>2000-01-02T01:16:45.000Z</time>
      </trkpt>
      <trkpt lat="48.22969" lon="7.33998">
        <ele>378</ele>
        <time>2000-01-02T01:16:55.000Z</time>
      </trkpt>
      <trkpt lat="48.22971" lon="7.33992">
        <ele>373</ele>
        <time>2000-01-02T01:17:05.000Z</time>
      </trkpt>
      <trkpt lat="48.22973" lon="7.33989">
        <ele>378.2</ele>
        <time>2000-01-02T01:17:15.000Z</time>
      </trkpt>
      <trkpt lat="48.22977" lon="7.3398">
        <ele>378.7</ele>
        <time>2000-01-02T01:17:25.000Z</time>
      </trkpt>
      <trkpt lat="48.22977" lon="7.33978">
        <ele>378.8</ele>
        <time>2000-01-02T01:17:35.000Z</time>
      </trkpt>
      <trkpt lat="48.2298" lon="7.33969">
        <ele>379.4</ele>
        <time>2000-01-02T01:17:45.000Z</time>
      </trkpt>
      <trkpt lat="48.2298" lon="7.33967">
        <ele>377</ele>
        <time>2000-01-02T01:17:55.000Z</time>
      </trkpt>
      <trkpt lat="48.22982" lon="7.33961">
        <ele>380.1</ele>
        <time>2000-01-02T01:18:05.000Z</time>
      </trkpt>
      <trkpt lat="48.22983" lon="7.33958">
        <ele>380.4</ele>
        <time>2000-01-02T01:18:15.000Z</time>
      </trkpt>
      <trkpt lat="48.22985" lon="7.33952">
        <ele>381</ele>
        <time>2000-01-02T01:18:25.000Z</time>
      </trkpt>
      <trkpt lat="48.22988" lon="7.33948">
        <ele>381.5</ele>
        <time>2000-01-02T01:18:35.000Z</time>
      </trkpt>
      <trkpt lat="48.22991" lon="7.33939">
        <ele>381</ele>
        <time>2000-01-02T01:18:45.000Z</time>
      </trkpt>
      <trkpt lat="48.22994" lon="7.33933">
        <ele>383.8</ele>
        <time>2000-01-02T01:18:55.000Z</time>
      </trkpt>
      <trkpt lat="48.22995" lon="7.33932">
        <ele>384</ele>
        <time>2000-01-02T01:19:05.000Z</time>
      </trkpt>
      <trkpt lat="48.22997" lon="7.33927">
        <ele>385.1</ele>
        <time>2000-01-02T01:19:15.000Z</time>
      </trkpt>
      <trkpt lat="48.23" lon="7.3392">
        <ele>386.9</ele>
        <time>2000-01-02T01:19:25.000Z</time>
      </trkpt>
      <trkpt lat="48.23003" lon="7.33916">
        <ele>384</ele>
        <time>2000-01-02T01:19:35.000Z</time>
      </trkpt>
      <trkpt lat="48.23006" lon="7.33905">
        <ele>392.8</ele>
        <time>2000-01-02T01:19:45.000Z</time>
      </trkpt>
      <trkpt lat="48.2301" lon="7.33897">
        <ele>394.8</ele>
        <time>2000-01-02T01:19:55.000Z</time>
      </trkpt>
      <trkpt lat="48.23012" lon="7.33891">
        <ele>389</ele>
        <time>2000-01-02T01:20:05.000Z</time>
      </trkpt>
      <trkpt lat="48.23014" lon="7.33887">
        <ele>396.6</ele>
        <time>2000-01-02T01:20:15.000Z</time>
      </trkpt>
      <trkpt lat="48.23014" lon="7.33884">
        <ele>397</ele>
        <time>2000-01-02T01:20:25.000Z</time>
      </trkpt>
      <trkpt lat="48.2302" lon="7.33874">
        <ele>398.3</ele>
        <time>2000-01-02T01:20:35.000Z</time>
      </trkpt>
      <trkpt lat="48.23026" lon="7.33864">
        <ele>395</ele>
        <time>2000-01-02T01:20:45.000Z</time>
      </trkpt>
      <trkpt lat="48.23028" lon="7.33858">
        <ele>399.8</ele>
        <time>2000-01-02T01:20:55.000Z</time>
      </trkpt>
      <trkpt lat="48.23029" lon="7.33854">
        <ele>400.1</ele>
        <time>2000-01-02T01:21:05.000Z</time>
      </trkpt>
      <trkpt lat="48.23033" lon="7.33847">
        <ele>400.6</ele>
        <time>2000-01-02T01:21:15.000Z</time>
      </trkpt>
      <trkpt lat="48.23037" lon="7.33838">
        <ele>400</ele>
        <time>2000-01-02T01:21:25.000Z</time>
      </trkpt>
      <trkpt lat="48.23045" lon="7.33827">
        <ele>409.3</ele>
        <time>2000-01-02T01:21:35.000Z</time>
      </trkpt>
      <trkpt lat="48.2305" lon="7.3382">
        <ele>410</ele>
        <time>2000-01-02T01:21:45.000Z</time>
      </trkpt>
      <trkpt lat="48.23055" lon="7.33815">
        <ele>400</ele>
        <time>2000-01-02T01:21:55.000Z</time>
      </trkpt>
      <trkpt lat="48.23058" lon="7.33812">
        <ele>410.8</ele>
        <time>2000-01-02T01:22:05.000Z</time>
      </trkpt>
      <trkpt lat="48.23062" lon="7.33811">
        <ele>411.1</ele>
        <time>2000-01-02T01:22:15.000Z</time>
      </trkpt>
      <trkpt lat="48.23076" lon="7.33816">
        <ele>401</ele>
        <time>2000-01-02T01:22:25.000Z</time>
      </trkpt>
      <trkpt lat="48.23083" lon="7.3382">
        <ele>411.7</ele>
        <time>2000-01-02T01:22:35.000Z</time>
      </trkpt>
      <trkpt lat="48.23085" lon="7.33821">
        <ele>416.7</ele>
        <time>2000-01-02T01:22:45.000Z</time>
      </trkpt>
      <trkpt lat="48.23091" lon="7.33826">
        <ele>416.2</ele>
        <time>2000-01-02T01:22:55.000Z</time>
      </trkpt>
      <trkpt lat="48.231" lon="7.33843">
        <ele>402</ele>
        <time>2000-01-02T01:23:05.000Z</time>
      </trkpt>
      <trkpt lat="48.23103" lon="7.33848">
        <ele>413.8</ele>
        <time>2000-01-02T01:23:15.000Z</time>
      </trkpt>
      <trkpt lat="48.23115" lon="7.33863">
        <ele>403</ele>
        <time>2000-01-02T01:23:25.000Z</time>
      </trkpt>
      <trkpt lat="48.23119" lon="7.33873">
        <ele>414.2</ele>
        <time>2000-01-02T01:23:35.000Z</time>
      </trkpt>
      <trkpt lat="48.23135" lon="7.33886">
        <ele>405</ele>
        <time>2000-01-02T01:23:45.000Z</time>
      </trkpt>
      <trkpt lat="48.23142" lon="7.3389">
        <ele>415.9</ele>
        <time>2000-01-02T01:23:55.000Z</time>
      </trkpt>
      <trkpt lat="48.23143" lon="7.33891">
        <ele>416</ele>
        <time>2000-01-02T01:24:05.000Z</time>
      </trkpt>
      <trkpt lat="48.23147" lon="7.33894">
        <ele>416.3</ele>
        <time>2000-01-02T01:24:15.000Z</time>
      </trkpt>
      <trkpt lat="48.23152" lon="7.33898">
        <ele>408</ele>
        <time>2000-01-02T01:24:25.000Z</time>
      </trkpt>
      <trkpt lat="48.23164" lon="7.3391">
        <ele>418.7</ele>
        <time>2000-01-02T01:24:35.000Z</time>
      </trkpt>
      <trkpt lat="48.23169" lon="7.33914">
        <ele>410</ele>
        <time>2000-01-02T01:24:45.000Z</time>
      </trkpt>
      <trkpt lat="48.23181" lon="7.33931">
        <ele>423</ele>
        <time>2000-01-02T01:24:55.000Z</time>
      </trkpt>
      <trkpt lat="48.23187" lon="7.33938">
        <ele>423.7</ele>
        <time>2000-01-02T01:25:05.000Z</time>
      </trkpt>
      <trkpt lat="48.23187" lon="7.33938">
        <ele>424</ele>
        <time>2000-01-02T01:25:15.000Z</time>
      </trkpt>
      <trkpt lat="48.23219" lon="7.3398">
        <ele>416</ele>
        <time>2000-01-02T01:25:25.000Z</time>
      </trkpt>
      <trkpt lat="48.23224" lon="7.33994">
        <ele>424.7</ele>
        <time>2000-01-02T01:25:35.000Z</time>
      </trkpt>
      <trkpt lat="48.23228" lon="7.3401">
        <ele>414</ele>
        <time>2000-01-02T01:25:45.000Z</time>
      </trkpt>
      <trkpt lat="48.23231" lon="7.34021">
        <ele>417.8</ele>
        <time>2000-01-02T01:25:55.000Z</time>
      </trkpt>
      <trkpt lat="48.23234" lon="7.34027">
        <ele>417.4</ele>
        <time>2000-01-02T01:26:05.000Z</time>
      </trkpt>
      <trkpt lat="48.23234" lon="7.3403">
        <ele>417</ele>
        <time>2000-01-02T01:26:15.000Z</time>
      </trkpt>
      <trkpt lat="48.23237" lon="7.34037">
        <ele>413</ele>
        <time>2000-01-02T01:26:25.000Z</time>
      </trkpt>
      <trkpt lat="48.23238" lon="7.34061">
        <ele>414.3</ele>
        <time>2000-01-02T01:26:35.000Z</time>
      </trkpt>
      <trkpt lat="48.2324" lon="7.34065">
        <ele>408</ele>
        <time>2000-01-02T01:26:45.000Z</time>
      </trkpt>
      <trkpt lat="48.23243" lon="7.34075">
        <ele>413.5</ele>
        <time>2000-01-02T01:26:55.000Z</time>
      </trkpt>
      <trkpt lat="48.23244" lon="7.34082">
        <ele>413.3</ele>
        <time>2000-01-02T01:27:05.000Z</time>
      </trkpt>
      <trkpt lat="48.23246" lon="7.34092">
        <ele>403</ele>
        <time>2000-01-02T01:27:15.000Z</time>
      </trkpt>
      <trkpt lat="48.23253" lon="7.34105">
        <ele>408.9</ele>
        <time>2000-01-02T01:27:25.000Z</time>
      </trkpt>
      <trkpt lat="48.23256" lon="7.34115">
        <ele>400</ele>
        <time>2000-01-02T01:27:35.000Z</time>
      </trkpt>
      <trkpt lat="48.23258" lon="7.34121">
        <ele>406.7</ele>
        <time>2000-01-02T01:27:45.000Z</time>
      </trkpt>
      <trkpt lat="48.23263" lon="7.34134">
        <ele>405</ele>
        <time>2000-01-02T01:27:55.000Z</time>
      </trkpt>
      <trkpt lat="48.23265" lon="7.34142">
        <ele>396</ele>
        <time>2000-01-02T01:28:05.000Z</time>
      </trkpt>
      <trkpt lat="48.23267" lon="7.34156">
        <ele>402.5</ele>
        <time>2000-01-02T01:28:15.000Z</time>
      </trkpt>
      <trkpt lat="48.23268" lon="7.34166">
        <ele>401.9</ele>
        <time>2000-01-02T01:28:25.000Z</time>
      </trkpt>
      <trkpt lat="48.2327" lon="7.34174">
        <ele>390</ele>
        <time>2000-01-02T01:28:35.000Z</time>
      </trkpt>
      <trkpt lat="48.23272" lon="7.34186">
        <ele>393.6</ele>
        <time>2000-01-02T01:28:45.000Z</time>
      </trkpt>
      <trkpt lat="48.23276" lon="7.34199">
        <ele>389</ele>
        <time>2000-01-02T01:28:55.000Z</time>
      </trkpt>
      <trkpt lat="48.23277" lon="7.34207">
        <ele>391.7</ele>
        <time>2000-01-02T01:29:05.000Z</time>
      </trkpt>
      <trkpt lat="48.23278" lon="7.34214">
        <ele>391</ele>
        <time>2000-01-02T01:29:15.000Z</time>
      </trkpt>
      <trkpt lat="48.23282" lon="7.34226">
        <ele>385</ele>
        <time>2000-01-02T01:29:25.000Z</time>
      </trkpt>
      <trkpt lat="48.23282" lon="7.34229">
        <ele>389.9</ele>
        <time>2000-01-02T01:29:35.000Z</time>
      </trkpt>
      <trkpt lat="48.23282" lon="7.34237">
        <ele>389.4</ele>
        <time>2000-01-02T01:29:45.000Z</time>
      </trkpt>
      <trkpt lat="48.23285" lon="7.34246">
        <ele>389.1</ele>
        <time>2000-01-02T01:29:55.000Z</time>
      </trkpt>
      <trkpt lat="48.23285" lon="7.34253">
        <ele>380</ele>
        <time>2000-01-02T01:30:05.000Z</time>
      </trkpt>
      <trkpt lat="48.2329" lon="7.34269">
        <ele>380.6</ele>
        <time>2000-01-02T01:30:15.000Z</time>
      </trkpt>
      <trkpt lat="48.23293" lon="7.34279">
        <ele>379</ele>
        <time>2000-01-02T01:30:25.000Z</time>
      </trkpt>
      <trkpt lat="48.23293" lon="7.34281">
        <ele>379.9</ele>
        <time>2000-01-02T01:30:35.000Z</time>
      </trkpt>
      <trkpt lat="48.23301" lon="7.34306">
        <ele>375</ele>
        <time>2000-01-02T01:30:45.000Z</time>
      </trkpt>
      <trkpt lat="48.23302" lon="7.34315">
        <ele>378.1</ele>
        <time>2000-01-02T01:30:55.000Z</time>
      </trkpt>
      <trkpt lat="48.23303" lon="7.3432">
        <ele>378</ele>
        <time>2000-01-02T01:31:05.000Z</time>
      </trkpt>
      <trkpt lat="48.23302" lon="7.34329">
        <ele>377.6</ele>
        <time>2000-01-02T01:31:15.000Z</time>
      </trkpt>
      <trkpt lat="48.23309" lon="7.34348">
        <ele>368</ele>
        <time>2000-01-02T01:31:25.000Z</time>
      </trkpt>
      <trkpt lat="48.23311" lon="7.34353">
        <ele>369</ele>
        <time>2000-01-02T01:31:35.000Z</time>
      </trkpt>
      <trkpt lat="48.23314" lon="7.34359">
        <ele>368.5</ele>
        <time>2000-01-02T01:31:45.000Z</time>
      </trkpt>
      <trkpt lat="48.2332" lon="7.3437">
        <ele>365</ele>
        <time>2000-01-02T01:31:55.000Z</time>
      </trkpt>
      <trkpt lat="48.23329" lon="7.3439">
        <ele>365.5</ele>
        <time>2000-01-02T01:32:05.000Z</time>
      </trkpt>
      <trkpt lat="48.23332" lon="7.34396">
        <ele>365</ele>
        <time>2000-01-02T01:32:15.000Z</time>
      </trkpt>
      <trkpt lat="48.23336" lon="7.34401">
        <ele>368.1</ele>
        <time>2000-01-02T01:32:25.000Z</time>
      </trkpt>
      <trkpt lat="48.23341" lon="7.34412">
        <ele>366.6</ele>
        <time>2000-01-02T01:32:35.000Z</time>
      </trkpt>
      <trkpt lat="48.23347" lon="7.34423">
        <ele>363</ele>
        <time>2000-01-02T01:32:45.000Z</time>
      </trkpt>
      <trkpt lat="48.23357" lon="7.34443">
        <ele>360.4</ele>
        <time>2000-01-02T01:32:55.000Z</time>
      </trkpt>
      <trkpt lat="48.23361" lon="7.3445">
        <ele>360</ele>
        <time>2000-01-02T01:33:05.000Z</time>
      </trkpt>
      <trkpt lat="48.23363" lon="7.34453">
        <ele>359.6</ele>
        <time>2000-01-02T01:33:15.000Z</time>
      </trkpt>
      <trkpt lat="48.23368" lon="7.34461">
        <ele>359.1</ele>
        <time>2000-01-02T01:33:25.000Z</time>
      </trkpt>
      <trkpt lat="48.23369" lon="7.34463">
        <ele>358.9</ele>
        <time>2000-01-02T01:33:35.000Z</time>
      </trkpt>
      <trkpt lat="48.23376" lon="7.3447">
        <ele>358</ele>
        <time>2000-01-02T01:33:45.000Z</time>
      </trkpt>
      <trkpt lat="48.23395" lon="7.34493">
        <ele>356</ele>
        <time>2000-01-02T01:33:55.000Z</time>
      </trkpt>
      <trkpt lat="48.23397" lon="7.345">
        <ele>356.9</ele>
        <time>2000-01-02T01:34:05.000Z</time>
      </trkpt>
      <trkpt lat="48.23398" lon="7.34511">
        <ele>350.4</ele>
        <time>2000-01-02T01:34:15.000Z</time>
      </trkpt>
      <trkpt lat="48.23399" lon="7.34522">
        <ele>351</ele>
        <time>2000-01-02T01:34:25.000Z</time>
      </trkpt>
      <trkpt lat="48.23399" lon="7.34531">
        <ele>348.7</ele>
        <time>2000-01-02T01:34:35.000Z</time>
      </trkpt>
      <trkpt lat="48.234" lon="7.34537">
        <ele>348.3</ele>
        <time>2000-01-02T01:34:45.000Z</time>
      </trkpt>
      <trkpt lat="48.23403" lon="7.34549">
        <ele>350</ele>
        <time>2000-01-02T01:34:55.000Z</time>
      </trkpt>
      <trkpt lat="48.23405" lon="7.34555">
        <ele>347.3</ele>
        <time>2000-01-02T01:35:05.000Z</time>
      </trkpt>
      <trkpt lat="48.23407" lon="7.3457">
        <ele>346.8</ele>
        <time>2000-01-02T01:35:15.000Z</time>
      </trkpt>
      <trkpt lat="48.2341" lon="7.34578">
        <ele>347</ele>
        <time>2000-01-02T01:35:25.000Z</time>
      </trkpt>
      <trkpt lat="48.23411" lon="7.34586">
        <ele>344.4</ele>
        <time>2000-01-02T01:35:35.000Z</time>
      </trkpt>
      <trkpt lat="48.23418" lon="7.34599">
        <ele>343.1</ele>
        <time>2000-01-02T01:35:45.000Z</time>
      </trkpt>
      <trkpt lat="48.23425" lon="7.3461">
        <ele>343</ele>
        <time>2000-01-02T01:35:55.000Z</time>
      </trkpt>
      <trkpt lat="48.23435" lon="7.34622">
        <ele>339.8</ele>
        <time>2000-01-02T01:36:05.000Z</time>
      </trkpt>
      <trkpt lat="48.23439" lon="7.34627">
        <ele>339.3</ele>
        <time>2000-01-02T01:36:15.000Z</time>
      </trkpt>
      <trkpt lat="48.23442" lon="7.34631">
        <ele>340</ele>
        <time>2000-01-02T01:36:25.000Z</time>
      </trkpt>
      <trkpt lat="48.23451" lon="7.34641">
        <ele>338.2</ele>
        <time>2000-01-02T01:36:35.000Z</time>
      </trkpt>
      <trkpt lat="48.23465" lon="7.34657">
        <ele>337</ele>
        <time>2000-01-02T01:36:45.000Z</time>
      </trkpt>
      <trkpt lat="48.23468" lon="7.34662">
        <ele>336.7</ele>
        <time>2000-01-02T01:36:55.000Z</time>
      </trkpt>
      <trkpt lat="48.23472" lon="7.34676">
        <ele>330.5</ele>
        <time>2000-01-02T01:37:05.000Z</time>
      </trkpt>
      <trkpt lat="48.23467" lon="7.34685">
        <ele>332</ele>
        <time>2000-01-02T01:37:15.000Z</time>
      </trkpt>
      <trkpt lat="48.23465" lon="7.34688">
        <ele>330.1</ele>
        <time>2000-01-02T01:37:25.000Z</time>
      </trkpt>
      <trkpt lat="48.2346" lon="7.34701">
        <ele>329.4</ele>
        <time>2000-01-02T01:37:35.000Z</time>
      </trkpt>
      <trkpt lat="48.23455" lon="7.34712">
        <ele>328</ele>
        <time>2000-01-02T01:37:45.000Z</time>
      </trkpt>
      <trkpt lat="48.23455" lon="7.34719">
        <ele>328.4</ele>
        <time>2000-01-02T01:37:55.000Z</time>
      </trkpt>
      <trkpt lat="48.23454" lon="7.34727">
        <ele>327.9</ele>
        <time>2000-01-02T01:38:05.000Z</time>
      </trkpt>
      <trkpt lat="48.23451" lon="7.3474">
        <ele>324</ele>
        <time>2000-01-02T01:38:15.000Z</time>
      </trkpt>
      <trkpt lat="48.23448" lon="7.34758">
        <ele>321.3</ele>
        <time>2000-01-02T01:38:25.000Z</time>
      </trkpt>
      <trkpt lat="48.23448" lon="7.34765">
        <ele>321.1</ele>
        <time>2000-01-02T01:38:35.000Z</time>
      </trkpt>
      <trkpt lat="48.23449" lon="7.34771">
        <ele>320</ele>
        <time>2000-01-02T01:38:45.000Z</time>
      </trkpt>
      <trkpt lat="48.23449" lon="7.34777">
        <ele>320.5</ele>
        <time>2000-01-02T01:38:55.000Z</time>
      </trkpt>
      <trkpt lat="48.23449" lon="7.3479">
        <ele>319.9</ele>
        <time>2000-01-02T01:39:05.000Z</time>
      </trkpt>
      <trkpt lat="48.23449" lon="7.34799">
        <ele>317</ele>
        <time>2000-01-02T01:39:15.000Z</time>
      </trkpt>
      <trkpt lat="48.23447" lon="7.3483">
        <ele>313</ele>
        <time>2000-01-02T01:39:25.000Z</time>
      </trkpt>
      <trkpt lat="48.23446" lon="7.34838">
        <ele>313.9</ele>
        <time>2000-01-02T01:39:35.000Z</time>
      </trkpt>
      <trkpt lat="48.23445" lon="7.34853">
        <ele>313.5</ele>
        <time>2000-01-02T01:39:45.000Z</time>
      </trkpt>
      <trkpt lat="48.23444" lon="7.34863">
        <ele>310</ele>
        <time>2000-01-02T01:39:55.000Z</time>
      </trkpt>
      <trkpt lat="48.23441" lon="7.34882">
        <ele>312.1</ele>
        <time>2000-01-02T01:40:05.000Z</time>
      </trkpt>
      <trkpt lat="48.23439" lon="7.34895">
        <ele>307</ele>
        <time>2000-01-02T01:40:15.000Z</time>
      </trkpt>
      <trkpt lat="48.23436" lon="7.34918">
        <ele>306.6</ele>
        <time>2000-01-02T01:40:25.000Z</time>
      </trkpt>
      <trkpt lat="48.23436" lon="7.34918">
        <ele>306.6</ele>
        <time>2000-01-02T01:40:35.000Z</time>
      </trkpt>
      <trkpt lat="48.23434" lon="7.35078">
        <ele>292</ele>
        <time>2000-01-02T01:40:45.000Z</time>
      </trkpt>
      <trkpt lat="48.23436" lon="7.35095">
        <ele>295.3</ele>
        <time>2000-01-02T01:40:55.000Z</time>
      </trkpt>
      <trkpt lat="48.23438" lon="7.35103">
        <ele>295.3</ele>
        <time>2000-01-02T01:41:05.000Z</time>
      </trkpt>
      <trkpt lat="48.23441" lon="7.35118">
        <ele>291</ele>
        <time>2000-01-02T01:41:15.000Z</time>
      </trkpt>
      <trkpt lat="48.23443" lon="7.35129">
        <ele>294.9</ele>
        <time>2000-01-02T01:41:25.000Z</time>
      </trkpt>
      <trkpt lat="48.23445" lon="7.35144">
        <ele>294.5</ele>
        <time>2000-01-02T01:41:35.000Z</time>
      </trkpt>
      <trkpt lat="48.23447" lon="7.35154">
        <ele>290</ele>
        <time>2000-01-02T01:41:45.000Z</time>
      </trkpt>
      <trkpt lat="48.23447" lon="7.35158">
        <ele>294.1</ele>
        <time>2000-01-02T01:41:55.000Z</time>
      </trkpt>
      <trkpt lat="48.23451" lon="7.35174">
        <ele>292</ele>
        <time>2000-01-02T01:42:05.000Z</time>
      </trkpt>
      <trkpt lat="48.23453" lon="7.35196">
        <ele>289</ele>
        <time>2000-01-02T01:42:15.000Z</time>
      </trkpt>
      <trkpt lat="48.23456" lon="7.35204">
        <ele>292</ele>
        <time>2000-01-02T01:42:25.000Z</time>
      </trkpt>
      <trkpt lat="48.23459" lon="7.35226">
        <ele>289</ele>
        <time>2000-01-02T01:42:35.000Z</time>
      </trkpt>
      <trkpt lat="48.23461" lon="7.35234">
        <ele>291.8</ele>
        <time>2000-01-02T01:42:45.000Z</time>
      </trkpt>
      <trkpt lat="48.23467" lon="7.35259">
        <ele>288</ele>
        <time>2000-01-02T01:42:55.000Z</time>
      </trkpt>
      <trkpt lat="48.23476" lon="7.35283">
        <ele>287</ele>
        <time>2000-01-02T01:43:05.000Z</time>
      </trkpt>
      <trkpt lat="48.2348" lon="7.35302">
        <ele>288.9</ele>
        <time>2000-01-02T01:43:15.000Z</time>
      </trkpt>
      <trkpt lat="48.23479" lon="7.3532">
        <ele>284</ele>
        <time>2000-01-02T01:43:25.000Z</time>
      </trkpt>
      <trkpt lat="48.23477" lon="7.35333">
        <ele>288.2</ele>
        <time>2000-01-02T01:43:35.000Z</time>
      </trkpt>
      <trkpt lat="48.23478" lon="7.35361">
        <ele>285.4</ele>
        <time>2000-01-02T01:43:45.000Z</time>
      </trkpt>
      <trkpt lat="48.23478" lon="7.35361">
        <ele>285</ele>
        <time>2000-01-02T01:43:55.000Z</time>
      </trkpt>
      <trkpt lat="48.23478" lon="7.3535">
        <ele>285.8</ele>
        <time>2000-01-02T01:44:05.000Z</time>
      </trkpt>
      <trkpt lat="48.23476" lon="7.35333">
        <ele>284</ele>
        <time>2000-01-02T01:44:15.000Z</time>
      </trkpt>
      <trkpt lat="48.23476" lon="7.35331">
        <ele>288.3</ele>
        <time>2000-01-02T01:44:25.000Z</time>
      </trkpt>
      <trkpt lat="48.23477" lon="7.35315">
        <ele>288.5</ele>
        <time>2000-01-02T01:44:35.000Z</time>
      </trkpt>
      <trkpt lat="48.23479" lon="7.353">
        <ele>285</ele>
        <time>2000-01-02T01:44:45.000Z</time>
      </trkpt>
      <trkpt lat="48.2348" lon="7.35288">
        <ele>289.4</ele>
        <time>2000-01-02T01:44:55.000Z</time>
      </trkpt>
      <trkpt lat="48.23483" lon="7.35277">
        <ele>290.1</ele>
        <time>2000-01-02T01:45:05.000Z</time>
      </trkpt>
      <trkpt lat="48.23486" lon="7.35268">
        <ele>289</ele>
        <time>2000-01-02T01:45:15.000Z</time>
      </trkpt>
      <trkpt lat="48.23487" lon="7.35258">
        <ele>291.6</ele>
        <time>2000-01-02T01:45:25.000Z</time>
      </trkpt>
      <trkpt lat="48.23487" lon="7.35255">
        <ele>291.7</ele>
        <time>2000-01-02T01:45:35.000Z</time>
      </trkpt>
      <trkpt lat="48.23492" lon="7.35246">
        <ele>293.4</ele>
        <time>2000-01-02T01:45:45.000Z</time>
      </trkpt>
      <trkpt lat="48.23496" lon="7.35234">
        <ele>290</ele>
        <time>2000-01-02T01:45:55.000Z</time>
      </trkpt>
      <trkpt lat="48.235" lon="7.35219">
        <ele>293</ele>
        <time>2000-01-02T01:46:05.000Z</time>
      </trkpt>
      <trkpt lat="48.23506" lon="7.352">
        <ele>291</ele>
        <time>2000-01-02T01:46:15.000Z</time>
      </trkpt>
      <trkpt lat="48.23511" lon="7.3518">
        <ele>296.7</ele>
        <time>2000-01-02T01:46:25.000Z</time>
      </trkpt>
      <trkpt lat="48.23512" lon="7.35169">
        <ele>293</ele>
        <time>2000-01-02T01:46:35.000Z</time>
      </trkpt>
      <trkpt lat="48.23514" lon="7.35151">
        <ele>299.7</ele>
        <time>2000-01-02T01:46:45.000Z</time>
      </trkpt>
      <trkpt lat="48.23515" lon="7.35142">
        <ele>294</ele>
        <time>2000-01-02T01:46:55.000Z</time>
      </trkpt>
      <trkpt lat="48.23516" lon="7.35127">
        <ele>301.6</ele>
        <time>2000-01-02T01:47:05.000Z</time>
      </trkpt>
      <trkpt lat="48.23516" lon="7.35123">
        <ele>301.8</ele>
        <time>2000-01-02T01:47:15.000Z</time>
      </trkpt>
      <trkpt lat="48.23521" lon="7.35095">
        <ele>298</ele>
        <time>2000-01-02T01:47:25.000Z</time>
      </trkpt>
      <trkpt lat="48.23522" lon="7.35087">
        <ele>303</ele>
        <time>2000-01-02T01:47:35.000Z</time>
      </trkpt>
      <trkpt lat="48.23523" lon="7.35078">
        <ele>306</ele>
        <time>2000-01-02T01:47:45.000Z</time>
      </trkpt>
      <trkpt lat="48.23525" lon="7.35062">
        <ele>300</ele>
        <time>2000-01-02T01:47:55.000Z</time>
      </trkpt>
      <trkpt lat="48.23524" lon="7.3505">
        <ele>307.2</ele>
        <time>2000-01-02T01:48:05.000Z</time>
      </trkpt>
      <trkpt lat="48.23523" lon="7.35042">
        <ele>307.5</ele>
        <time>2000-01-02T01:48:15.000Z</time>
      </trkpt>
      <trkpt lat="48.23523" lon="7.35037">
        <ele>307.6</ele>
        <time>2000-01-02T01:48:25.000Z</time>
      </trkpt>
      <trkpt lat="48.23522" lon="7.35019">
        <ele>303</ele>
        <time>2000-01-02T01:48:35.000Z</time>
      </trkpt>
      <trkpt lat="48.23522" lon="7.35008">
        <ele>308.2</ele>
        <time>2000-01-02T01:48:45.000Z</time>
      </trkpt>
      <trkpt lat="48.23521" lon="7.34993">
        <ele>311.1</ele>
        <time>2000-01-02T01:48:55.000Z</time>
      </trkpt>
      <trkpt lat="48.23517" lon="7.34977">
        <ele>303</ele>
        <time>2000-01-02T01:49:05.000Z</time>
      </trkpt>
      <trkpt lat="48.2352" lon="7.34961">
        <ele>312.6</ele>
        <time>2000-01-02T01:49:15.000Z</time>
      </trkpt>
      <trkpt lat="48.23521" lon="7.3495">
        <ele>305</ele>
        <time>2000-01-02T01:49:25.000Z</time>
      </trkpt>
      <trkpt lat="48.23526" lon="7.34935">
        <ele>313.6</ele>
        <time>2000-01-02T01:49:35.000Z</time>
      </trkpt>
      <trkpt lat="48.23526" lon="7.3493">
        <ele>313.7</ele>
        <time>2000-01-02T01:49:45.000Z</time>
      </trkpt>
      <trkpt lat="48.23533" lon="7.34907">
        <ele>308</ele>
        <time>2000-01-02T01:49:55.000Z</time>
      </trkpt>
      <trkpt lat="48.23537" lon="7.34896">
        <ele>317</ele>
        <time>2000-01-02T01:50:05.000Z</time>
      </trkpt>
      <trkpt lat="48.23539" lon="7.34885">
        <ele>317.3</ele>
        <time>2000-01-02T01:50:15.000Z</time>
      </trkpt>
      <trkpt lat="48.23542" lon="7.34871">
        <ele>310</ele>
        <time>2000-01-02T01:50:25.000Z</time>
      </trkpt>
      <trkpt lat="48.23546" lon="7.34857">
        <ele>317.9</ele>
        <time>2000-01-02T01:50:35.000Z</time>
      </trkpt>
      <trkpt lat="48.23548" lon="7.34853">
        <ele>318.1</ele>
        <time>2000-01-02T01:50:45.000Z</time>
      </trkpt>
      <trkpt lat="48.23552" lon="7.34837">
        <ele>313</ele>
        <time>2000-01-02T01:50:55.000Z</time>
      </trkpt>
      <trkpt lat="48.23553" lon="7.34832">
        <ele>320.6</ele>
        <time>2000-01-02T01:51:05.000Z</time>
      </trkpt>
      <trkpt lat="48.23559" lon="7.34816">
        <ele>320.9</ele>
        <time>2000-01-02T01:51:15.000Z</time>
      </trkpt>
      <trkpt lat="48.23564" lon="7.34808">
        <ele>316</ele>
        <time>2000-01-02T01:51:25.000Z</time>
      </trkpt>
      <trkpt lat="48.23567" lon="7.34797">
        <ele>321.3</ele>
        <time>2000-01-02T01:51:35.000Z</time>
      </trkpt>
      <trkpt lat="48.23569" lon="7.34782">
        <ele>317</ele>
        <time>2000-01-02T01:51:45.000Z</time>
      </trkpt>
      <trkpt lat="48.2357" lon="7.34758">
        <ele>322.7</ele>
        <time>2000-01-02T01:51:55.000Z</time>
      </trkpt>
      <trkpt lat="48.23571" lon="7.34747">
        <ele>321</ele>
        <time>2000-01-02T01:52:05.000Z</time>
      </trkpt>
      <trkpt lat="48.23572" lon="7.34734">
        <ele>325.8</ele>
        <time>2000-01-02T01:52:15.000Z</time>
      </trkpt>
      <trkpt lat="48.23573" lon="7.34726">
        <ele>326.2</ele>
        <time>2000-01-02T01:52:25.000Z</time>
      </trkpt>
      <trkpt lat="48.23576" lon="7.34719">
        <ele>322</ele>
        <time>2000-01-02T01:52:35.000Z</time>
      </trkpt>
      <trkpt lat="48.23581" lon="7.34703">
        <ele>327.7</ele>
        <time>2000-01-02T01:52:45.000Z</time>
      </trkpt>
      <trkpt lat="48.23583" lon="7.34695">
        <ele>328.2</ele>
        <time>2000-01-02T01:52:55.000Z</time>
      </trkpt>
      <trkpt lat="48.23584" lon="7.34689">
        <ele>325</ele>
        <time>2000-01-02T01:53:05.000Z</time>
      </trkpt>
      <trkpt lat="48.23581" lon="7.34668">
        <ele>330.6</ele>
        <time>2000-01-02T01:53:15.000Z</time>
      </trkpt>
      <trkpt lat="48.23584" lon="7.34657">
        <ele>326</ele>
        <time>2000-01-02T01:53:25.000Z</time>
      </trkpt>
      <trkpt lat="48.23587" lon="7.34642">
        <ele>337.2</ele>
        <time>2000-01-02T01:53:35.000Z</time>
      </trkpt>
      <trkpt lat="48.23583" lon="7.34627">
        <ele>327</ele>
        <time>2000-01-02T01:53:45.000Z</time>
      </trkpt>
      <trkpt lat="48.23584" lon="7.34625">
        <ele>338.2</ele>
        <time>2000-01-02T01:53:55.000Z</time>
      </trkpt>
      <trkpt lat="48.23586" lon="7.34606">
        <ele>337.9</ele>
        <time>2000-01-02T01:54:05.000Z</time>
      </trkpt>
      <trkpt lat="48.23586" lon="7.34597">
        <ele>328</ele>
        <time>2000-01-02T01:54:15.000Z</time>
      </trkpt>
      <trkpt lat="48.23587" lon="7.3459">
        <ele>336</ele>
        <time>2000-01-02T01:54:25.000Z</time>
      </trkpt>
      <trkpt lat="48.23586" lon="7.34574">
        <ele>337</ele>
        <time>2000-01-02T01:54:35.000Z</time>
      </trkpt>
      <trkpt lat="48.23586" lon="7.34566">
        <ele>329</ele>
        <time>2000-01-02T01:54:45.000Z</time>
      </trkpt>
      <trkpt lat="48.23588" lon="7.34561">
        <ele>339.3</ele>
        <time>2000-01-02T01:54:55.000Z</time>
      </trkpt>
      <trkpt lat="48.23591" lon="7.3455">
        <ele>340.5</ele>
        <time>2000-01-02T01:55:05.000Z</time>
      </trkpt>
      <trkpt lat="48.23594" lon="7.34545">
        <ele>340.9</ele>
        <time>2000-01-02T01:55:15.000Z</time>
      </trkpt>
      <trkpt lat="48.23596" lon="7.34541">
        <ele>330</ele>
        <time>2000-01-02T01:55:25.000Z</time>
      </trkpt>
      <trkpt lat="48.23599" lon="7.34535">
        <ele>341.5</ele>
        <time>2000-01-02T01:55:35.000Z</time>
      </trkpt>
      <trkpt lat="48.23604" lon="7.34531">
        <ele>341.8</ele>
        <time>2000-01-02T01:55:45.000Z</time>
      </trkpt>
      <trkpt lat="48.23605" lon="7.34531">
        <ele>341.9</ele>
        <time>2000-01-02T01:55:55.000Z</time>
      </trkpt>
      <trkpt lat="48.23606" lon="7.3453">
        <ele>341.9</ele>
        <time>2000-01-02T01:56:05.000Z</time>
      </trkpt>
      <trkpt lat="48.23608" lon="7.34526">
        <ele>342.1</ele>
        <time>2000-01-02T01:56:15.000Z</time>
      </trkpt>
      <trkpt lat="48.2361" lon="7.34518">
        <ele>333</ele>
        <time>2000-01-02T01:56:25.000Z</time>
      </trkpt>
      <trkpt lat="48.23611" lon="7.34512">
        <ele>342.2</ele>
        <time>2000-01-02T01:56:35.000Z</time>
      </trkpt>
      <trkpt lat="48.23618" lon="7.34501">
        <ele>342.7</ele>
        <time>2000-01-02T01:56:45.000Z</time>
      </trkpt>
      <trkpt lat="48.23626" lon="7.34488">
        <ele>336</ele>
        <time>2000-01-02T01:56:55.000Z</time>
      </trkpt>
      <trkpt lat="48.23629" lon="7.34482">
        <ele>347</ele>
        <time>2000-01-02T01:57:05.000Z</time>
      </trkpt>
      <trkpt lat="48.23633" lon="7.34477">
        <ele>347.3</ele>
        <time>2000-01-02T01:57:15.000Z</time>
      </trkpt>
      <trkpt lat="48.23634" lon="7.34476">
        <ele>347.3</ele>
        <time>2000-01-02T01:57:25.000Z</time>
      </trkpt>
      <trkpt lat="48.23644" lon="7.34471">
        <ele>340</ele>
        <time>2000-01-02T01:57:35.000Z</time>
      </trkpt>
      <trkpt lat="48.23653" lon="7.34464">
        <ele>348.1</ele>
        <time>2000-01-02T01:57:45.000Z</time>
      </trkpt>
      <trkpt lat="48.23659" lon="7.34458">
        <ele>348.4</ele>
        <time>2000-01-02T01:57:55.000Z</time>
      </trkpt>
      <trkpt lat="48.23661" lon="7.34455">
        <ele>344</ele>
        <time>2000-01-02T01:58:05.000Z</time>
      </trkpt>
      <trkpt lat="48.23665" lon="7.34444">
        <ele>349.1</ele>
        <time>2000-01-02T01:58:15.000Z</time>
      </trkpt>
      <trkpt lat="48.23671" lon="7.34428">
        <ele>344</ele>
        <time>2000-01-02T01:58:25.000Z</time>
      </trkpt>
      <trkpt lat="48.23675" lon="7.34423">
        <ele>352.8</ele>
        <time>2000-01-02T01:58:35.000Z</time>
      </trkpt>
      <trkpt lat="48.23683" lon="7.34417">
        <ele>353.6</ele>
        <time>2000-01-02T01:58:45.000Z</time>
      </trkpt>
      <trkpt lat="48.23688" lon="7.34414">
        <ele>346</ele>
        <time>2000-01-02T01:58:55.000Z</time>
      </trkpt>
      <trkpt lat="48.23691" lon="7.3441">
        <ele>356</ele>
        <time>2000-01-02T01:59:05.000Z</time>
      </trkpt>
      <trkpt lat="48.23694" lon="7.34402">
        <ele>356.7</ele>
        <time>2000-01-02T01:59:15.000Z</time>
      </trkpt>
      <trkpt lat="48.23697" lon="7.34394">
        <ele>357.3</ele>
        <time>2000-01-02T01:59:25.000Z</time>
      </trkpt>
      <trkpt lat="48.23703" lon="7.34388">
        <ele>348</ele>
        <time>2000-01-02T01:59:35.000Z</time>
      </trkpt>
      <trkpt lat="48.23705" lon="7.34387">
        <ele>358</ele>
        <time>2000-01-02T01:59:45.000Z</time>
      </trkpt>
      <trkpt lat="48.23715" lon="7.3438">
        <ele>358.6</ele>
        <time>2000-01-02T01:59:55.000Z</time>
      </trkpt>
      <trkpt lat="48.23719" lon="7.3438">
        <ele>358.7</ele>
        <time>2000-01-02T02:00:05.000Z</time>
      </trkpt>
      <trkpt lat="48.23719" lon="7.3438">
        <ele>358.7</ele>
        <time>2000-01-02T02:00:15.000Z</time>
      </trkpt>
      <trkpt lat="48.23721" lon="7.34378">
        <ele>351</ele>
        <time>2000-01-02T02:00:25.000Z</time>
      </trkpt>
      <trkpt lat="48.23721" lon="7.34376">
        <ele>358.9</ele>
        <time>2000-01-02T02:00:35.000Z</time>
      </trkpt>
      <trkpt lat="48.2372" lon="7.34374">
        <ele>358.9</ele>
        <time>2000-01-02T02:00:45.000Z</time>
      </trkpt>
      <trkpt lat="48.2372" lon="7.34373">
        <ele>358.9</ele>
        <time>2000-01-02T02:00:55.000Z</time>
      </trkpt>
      <trkpt lat="48.23721" lon="7.34368">
        <ele>359</ele>
        <time>2000-01-02T02:01:05.000Z</time>
      </trkpt>
      <trkpt lat="48.23721" lon="7.34364">
        <ele>359.1</ele>
        <time>2000-01-02T02:01:15.000Z</time>
      </trkpt>
      <trkpt lat="48.23719" lon="7.34362">
        <ele>359.1</ele>
        <time>2000-01-02T02:01:25.000Z</time>
      </trkpt>
      <trkpt lat="48.23722" lon="7.34347">
        <ele>352</ele>
        <time>2000-01-02T02:01:35.000Z</time>
      </trkpt>
      <trkpt lat="48.23723" lon="7.34341">
        <ele>359.6</ele>
        <time>2000-01-02T02:01:45.000Z</time>
      </trkpt>
      <trkpt lat="48.23724" lon="7.34334">
        <ele>359.7</ele>
        <time>2000-01-02T02:01:55.000Z</time>
      </trkpt>
      <trkpt lat="48.23723" lon="7.34328">
        <ele>363.7</ele>
        <time>2000-01-02T02:02:05.000Z</time>
      </trkpt>
      <trkpt lat="48.23722" lon="7.34319">
        <ele>354</ele>
        <time>2000-01-02T02:02:15.000Z</time>
      </trkpt>
      <trkpt lat="48.23721" lon="7.34312">
        <ele>364.4</ele>
        <time>2000-01-02T02:02:25.000Z</time>
      </trkpt>
      <trkpt lat="48.23722" lon="7.34299">
        <ele>365.1</ele>
        <time>2000-01-02T02:02:35.000Z</time>
      </trkpt>
      <trkpt lat="48.23719" lon="7.34289">
        <ele>356</ele>
        <time>2000-01-02T02:02:45.000Z</time>
      </trkpt>
      <trkpt lat="48.23718" lon="7.34265">
        <ele>366.7</ele>
        <time>2000-01-02T02:02:55.000Z</time>
      </trkpt>
      <trkpt lat="48.23718" lon="7.34241">
        <ele>360</ele>
        <time>2000-01-02T02:03:05.000Z</time>
      </trkpt>
      <trkpt lat="48.23716" lon="7.34225">
        <ele>374.7</ele>
        <time>2000-01-02T02:03:15.000Z</time>
      </trkpt>
      <trkpt lat="48.23716" lon="7.34217">
        <ele>375.3</ele>
        <time>2000-01-02T02:03:25.000Z</time>
      </trkpt>
      <trkpt lat="48.23716" lon="7.34214">
        <ele>364</ele>
        <time>2000-01-02T02:03:35.000Z</time>
      </trkpt>
      <trkpt lat="48.23714" lon="7.34207">
        <ele>376.1</ele>
        <time>2000-01-02T02:03:45.000Z</time>
      </trkpt>
      <trkpt lat="48.23714" lon="7.34201">
        <ele>376.5</ele>
        <time>2000-01-02T02:03:55.000Z</time>
      </trkpt>
      <trkpt lat="48.23712" lon="7.34192">
        <ele>377.1</ele>
        <time>2000-01-02T02:04:05.000Z</time>
      </trkpt>
      <trkpt lat="48.23703" lon="7.342">
        <ele>368</ele>
        <time>2000-01-02T02:04:15.000Z</time>
      </trkpt>
      <trkpt lat="48.23698" lon="7.34206">
        <ele>376.9</ele>
        <time>2000-01-02T02:04:25.000Z</time>
      </trkpt>
      <trkpt lat="48.23699" lon="7.34204">
        <ele>377</ele>
        <time>2000-01-02T02:04:35.000Z</time>
      </trkpt>
      <trkpt lat="48.23704" lon="7.34187">
        <ele>369</ele>
        <time>2000-01-02T02:04:45.000Z</time>
      </trkpt>
      <trkpt lat="48.23705" lon="7.34172">
        <ele>378.5</ele>
        <time>2000-01-02T02:04:55.000Z</time>
      </trkpt>
      <trkpt lat="48.23706" lon="7.34165">
        <ele>383.2</ele>
        <time>2000-01-02T02:05:05.000Z</time>
      </trkpt>
      <trkpt lat="48.23708" lon="7.34161">
        <ele>383.2</ele>
        <time>2000-01-02T02:05:15.000Z</time>
      </trkpt>
      <trkpt lat="48.23708" lon="7.34161">
        <ele>371</ele>
        <time>2000-01-02T02:05:25.000Z</time>
      </trkpt>
      <trkpt lat="48.23707" lon="7.34149">
        <ele>383.4</ele>
        <time>2000-01-02T02:05:35.000Z</time>
      </trkpt>
      <trkpt lat="48.23704" lon="7.34145">
        <ele>383.5</ele>
        <time>2000-01-02T02:05:45.000Z</time>
      </trkpt>
      <trkpt lat="48.23702" lon="7.34142">
        <ele>383.6</ele>
        <time>2000-01-02T02:05:55.000Z</time>
      </trkpt>
      <trkpt lat="48.23703" lon="7.34128">
        <ele>375</ele>
        <time>2000-01-02T02:06:05.000Z</time>
      </trkpt>
      <trkpt lat="48.23704" lon="7.34117">
        <ele>383.9</ele>
        <time>2000-01-02T02:06:15.000Z</time>
      </trkpt>
      <trkpt lat="48.23703" lon="7.34105">
        <ele>384.1</ele>
        <time>2000-01-02T02:06:25.000Z</time>
      </trkpt>
      <trkpt lat="48.23702" lon="7.34099">
        <ele>377</ele>
        <time>2000-01-02T02:06:35.000Z</time>
      </trkpt>
      <trkpt lat="48.23702" lon="7.34092">
        <ele>384.3</ele>
        <time>2000-01-02T02:06:45.000Z</time>
      </trkpt>
      <trkpt lat="48.23703" lon="7.3408">
        <ele>387.7</ele>
        <time>2000-01-02T02:06:55.000Z</time>
      </trkpt>
      <trkpt lat="48.23703" lon="7.34073">
        <ele>387.8</ele>
        <time>2000-01-02T02:07:05.000Z</time>
      </trkpt>
      <trkpt lat="48.23705" lon="7.34067">
        <ele>380</ele>
        <time>2000-01-02T02:07:15.000Z</time>
      </trkpt>
      <trkpt lat="48.23705" lon="7.34065">
        <ele>388.2</ele>
        <time>2000-01-02T02:07:25.000Z</time>
      </trkpt>
      <trkpt lat="48.23698" lon="7.34046">
        <ele>388.7</ele>
        <time>2000-01-02T02:07:35.000Z</time>
      </trkpt>
      <trkpt lat="48.23697" lon="7.34042">
        <ele>380</ele>
        <time>2000-01-02T02:07:45.000Z</time>
      </trkpt>
      <trkpt lat="48.23694" lon="7.3404">
        <ele>388.9</ele>
        <time>2000-01-02T02:07:55.000Z</time>
      </trkpt>
      <trkpt lat="48.23697" lon="7.34028">
        <ele>389.4</ele>
        <time>2000-01-02T02:08:05.000Z</time>
      </trkpt>
      <trkpt lat="48.23698" lon="7.34014">
        <ele>381</ele>
        <time>2000-01-02T02:08:15.000Z</time>
      </trkpt>
      <trkpt lat="48.23696" lon="7.34002">
        <ele>389.9</ele>
        <time>2000-01-02T02:08:25.000Z</time>
      </trkpt>
      <trkpt lat="48.23697" lon="7.33993">
        <ele>394.3</ele>
        <time>2000-01-02T02:08:35.000Z</time>
      </trkpt>
      <trkpt lat="48.23697" lon="7.33976">
        <ele>383</ele>
        <time>2000-01-02T02:08:45.000Z</time>
      </trkpt>
      <trkpt lat="48.23693" lon="7.33952">
        <ele>396.3</ele>
        <time>2000-01-02T02:08:55.000Z</time>
      </trkpt>
      <trkpt lat="48.2369" lon="7.33946">
        <ele>385</ele>
        <time>2000-01-02T02:09:05.000Z</time>
      </trkpt>
      <trkpt lat="48.23689" lon="7.33943">
        <ele>396.8</ele>
        <time>2000-01-02T02:09:15.000Z</time>
      </trkpt>
      <trkpt lat="48.23688" lon="7.33939">
        <ele>397</ele>
        <time>2000-01-02T02:09:25.000Z</time>
      </trkpt>
      <trkpt lat="48.23689" lon="7.33937">
        <ele>397.1</ele>
        <time>2000-01-02T02:09:35.000Z</time>
      </trkpt>
      <trkpt lat="48.23699" lon="7.33924">
        <ele>386</ele>
        <time>2000-01-02T02:09:45.000Z</time>
      </trkpt>
      <trkpt lat="48.23711" lon="7.33909">
        <ele>402.3</ele>
        <time>2000-01-02T02:09:55.000Z</time>
      </trkpt>
      <trkpt lat="48.23713" lon="7.33909">
        <ele>402.2</ele>
        <time>2000-01-02T02:10:05.000Z</time>
      </trkpt>
      <trkpt lat="48.23721" lon="7.33908">
        <ele>388</ele>
        <time>2000-01-02T02:10:15.000Z</time>
      </trkpt>
      <trkpt lat="48.23726" lon="7.33903">
        <ele>402</ele>
        <time>2000-01-02T02:10:25.000Z</time>
      </trkpt>
      <trkpt lat="48.23728" lon="7.33899">
        <ele>402.2</ele>
        <time>2000-01-02T02:10:35.000Z</time>
      </trkpt>
      <trkpt lat="48.23737" lon="7.33887">
        <ele>390</ele>
        <time>2000-01-02T02:10:45.000Z</time>
      </trkpt>
      <trkpt lat="48.23743" lon="7.33882">
        <ele>403</ele>
        <time>2000-01-02T02:10:55.000Z</time>
      </trkpt>
      <trkpt lat="48.23745" lon="7.33879">
        <ele>403.2</ele>
        <time>2000-01-02T02:11:05.000Z</time>
      </trkpt>
      <trkpt lat="48.23749" lon="7.33873">
        <ele>403.6</ele>
        <time>2000-01-02T02:11:15.000Z</time>
      </trkpt>
      <trkpt lat="48.23755" lon="7.33867">
        <ele>393</ele>
        <time>2000-01-02T02:11:25.000Z</time>
      </trkpt>
      <trkpt lat="48.23756" lon="7.33864">
        <ele>407.5</ele>
        <time>2000-01-02T02:11:35.000Z</time>
      </trkpt>
      <trkpt lat="48.23763" lon="7.33855">
        <ele>407.9</ele>
        <time>2000-01-02T02:11:45.000Z</time>
      </trkpt>
      <trkpt lat="48.23772" lon="7.33845">
        <ele>395</ele>
        <time>2000-01-02T02:11:55.000Z</time>
      </trkpt>
      <trkpt lat="48.23777" lon="7.33841">
        <ele>408.6</ele>
        <time>2000-01-02T02:12:05.000Z</time>
      </trkpt>
      <trkpt lat="48.23781" lon="7.3384">
        <ele>408.8</ele>
        <time>2000-01-02T02:12:15.000Z</time>
      </trkpt>
      <trkpt lat="48.23783" lon="7.33838">
        <ele>409</ele>
        <time>2000-01-02T02:12:25.000Z</time>
      </trkpt>
      <trkpt lat="48.23784" lon="7.33833">
        <ele>411.9</ele>
        <time>2000-01-02T02:12:35.000Z</time>
      </trkpt>
      <trkpt lat="48.23794" lon="7.33837">
        <ele>397</ele>
        <time>2000-01-02T02:12:45.000Z</time>
      </trkpt>
      <trkpt lat="48.23799" lon="7.33838">
        <ele>410</ele>
        <time>2000-01-02T02:12:55.000Z</time>
      </trkpt>
      <trkpt lat="48.23795" lon="7.33825">
        <ele>412.6</ele>
        <time>2000-01-02T02:13:05.000Z</time>
      </trkpt>
      <trkpt lat="48.23793" lon="7.33826">
        <ele>412.5</ele>
        <time>2000-01-02T02:13:15.000Z</time>
      </trkpt>
      <trkpt lat="48.23795" lon="7.33832">
        <ele>397</ele>
        <time>2000-01-02T02:13:25.000Z</time>
      </trkpt>
      <trkpt lat="48.23808" lon="7.33842">
        <ele>410.6</ele>
        <time>2000-01-02T02:13:35.000Z</time>
      </trkpt>
      <trkpt lat="48.23817" lon="7.33848">
        <ele>399</ele>
        <time>2000-01-02T02:13:45.000Z</time>
      </trkpt>
      <trkpt lat="48.23821" lon="7.33849">
        <ele>411.3</ele>
        <time>2000-01-02T02:13:55.000Z</time>
      </trkpt>
      <trkpt lat="48.23831" lon="7.33852">
        <ele>411.6</ele>
        <time>2000-01-02T02:14:05.000Z</time>
      </trkpt>
      <trkpt lat="48.2384" lon="7.33856">
        <ele>405</ele>
        <time>2000-01-02T02:14:15.000Z</time>
      </trkpt>
      <trkpt lat="48.23842" lon="7.33857">
        <ele>416.3</ele>
        <time>2000-01-02T02:14:25.000Z</time>
      </trkpt>
      <trkpt lat="48.23849" lon="7.3386">
        <ele>416.7</ele>
        <time>2000-01-02T02:14:35.000Z</time>
      </trkpt>
      <trkpt lat="48.23854" lon="7.33861">
        <ele>417</ele>
        <time>2000-01-02T02:14:45.000Z</time>
      </trkpt>
      <trkpt lat="48.23857" lon="7.33862">
        <ele>417.1</ele>
        <time>2000-01-02T02:14:55.000Z</time>
      </trkpt>
      <trkpt lat="48.23856" lon="7.33868">
        <ele>407</ele>
        <time>2000-01-02T02:15:05.000Z</time>
      </trkpt>
      <trkpt lat="48.23858" lon="7.33872">
        <ele>417.4</ele>
        <time>2000-01-02T02:15:15.000Z</time>
      </trkpt>
      <trkpt lat="48.23859" lon="7.33874">
        <ele>417.5</ele>
        <time>2000-01-02T02:15:25.000Z</time>
      </trkpt>
      <trkpt lat="48.23866" lon="7.33878">
        <ele>417.8</ele>
        <time>2000-01-02T02:15:35.000Z</time>
      </trkpt>
      <trkpt lat="48.23872" lon="7.33882">
        <ele>411</ele>
        <time>2000-01-02T02:15:45.000Z</time>
      </trkpt>
      <trkpt lat="48.23873" lon="7.33883">
        <ele>418</ele>
        <time>2000-01-02T02:15:55.000Z</time>
      </trkpt>
      <trkpt lat="48.2388" lon="7.33886">
        <ele>418.2</ele>
        <time>2000-01-02T02:16:05.000Z</time>
      </trkpt>
      <trkpt lat="48.23884" lon="7.33888">
        <ele>418.3</ele>
        <time>2000-01-02T02:16:15.000Z</time>
      </trkpt>
      <trkpt lat="48.23888" lon="7.33889">
        <ele>418.4</ele>
        <time>2000-01-02T02:16:25.000Z</time>
      </trkpt>
      <trkpt lat="48.23893" lon="7.33891">
        <ele>412</ele>
        <time>2000-01-02T02:16:35.000Z</time>
      </trkpt>
      <trkpt lat="48.23904" lon="7.33893">
        <ele>418.6</ele>
        <time>2000-01-02T02:16:45.000Z</time>
      </trkpt>
      <trkpt lat="48.23909" lon="7.33894">
        <ele>418.7</ele>
        <time>2000-01-02T02:16:55.000Z</time>
      </trkpt>
      <trkpt lat="48.23912" lon="7.33895">
        <ele>414</ele>
        <time>2000-01-02T02:17:05.000Z</time>
      </trkpt>
      <trkpt lat="48.23917" lon="7.33895">
        <ele>420.8</ele>
        <time>2000-01-02T02:17:15.000Z</time>
      </trkpt>
      <trkpt lat="48.23926" lon="7.339">
        <ele>420.7</ele>
        <time>2000-01-02T02:17:25.000Z</time>
      </trkpt>
      <trkpt lat="48.23934" lon="7.33906">
        <ele>415</ele>
        <time>2000-01-02T02:17:35.000Z</time>
      </trkpt>
      <trkpt lat="48.23935" lon="7.33907">
        <ele>420.8</ele>
        <time>2000-01-02T02:17:45.000Z</time>
      </trkpt>
      <trkpt lat="48.23933" lon="7.33897">
        <ele>421.1</ele>
        <time>2000-01-02T02:17:55.000Z</time>
      </trkpt>
      <trkpt lat="48.23929" lon="7.33889">
        <ele>421.3</ele>
        <time>2000-01-02T02:18:05.000Z</time>
      </trkpt>
      <trkpt lat="48.23927" lon="7.3388">
        <ele>417</ele>
        <time>2000-01-02T02:18:15.000Z</time>
      </trkpt>
      <trkpt lat="48.23924" lon="7.3387">
        <ele>421.8</ele>
        <time>2000-01-02T02:18:25.000Z</time>
      </trkpt>
      <trkpt lat="48.23924" lon="7.3386">
        <ele>422</ele>
        <time>2000-01-02T02:18:35.000Z</time>
      </trkpt>
      <trkpt lat="48.23922" lon="7.33849">
        <ele>422</ele>
        <time>2000-01-02T02:18:45.000Z</time>
      </trkpt>
      <trkpt lat="48.23921" lon="7.33841">
        <ele>422.1</ele>
        <time>2000-01-02T02:18:55.000Z</time>
      </trkpt>
      <trkpt lat="48.2392" lon="7.33836">
        <ele>422</ele>
        <time>2000-01-02T02:19:05.000Z</time>
      </trkpt>
      <trkpt lat="48.23919" lon="7.33829">
        <ele>423.1</ele>
        <time>2000-01-02T02:19:15.000Z</time>
      </trkpt>
      <trkpt lat="48.23919" lon="7.33828">
        <ele>423.3</ele>
        <time>2000-01-02T02:19:25.000Z</time>
      </trkpt>
      <trkpt lat="48.23921" lon="7.33806">
        <ele>428</ele>
        <time>2000-01-02T02:19:35.000Z</time>
      </trkpt>
      <trkpt lat="48.2392" lon="7.33796">
        <ele>427.1</ele>
        <time>2000-01-02T02:19:45.000Z</time>
      </trkpt>
      <trkpt lat="48.23919" lon="7.33788">
        <ele>427.7</ele>
        <time>2000-01-02T02:19:55.000Z</time>
      </trkpt>
      <trkpt lat="48.23916" lon="7.33775">
        <ele>430</ele>
        <time>2000-01-02T02:20:05.000Z</time>
      </trkpt>
      <trkpt lat="48.23916" lon="7.33768">
        <ele>426</ele>
        <time>2000-01-02T02:20:15.000Z</time>
      </trkpt>
      <trkpt lat="48.23916" lon="7.33761">
        <ele>427.5</ele>
        <time>2000-01-02T02:20:25.000Z</time>
      </trkpt>
      <trkpt lat="48.23917" lon="7.33756">
        <ele>430.3</ele>
        <time>2000-01-02T02:20:35.000Z</time>
      </trkpt>
      <trkpt lat="48.2392" lon="7.33739">
        <ele>437</ele>
        <time>2000-01-02T02:20:45.000Z</time>
      </trkpt>
      <trkpt lat="48.23919" lon="7.3373">
        <ele>433.8</ele>
        <time>2000-01-02T02:20:55.000Z</time>
      </trkpt>
      <trkpt lat="48.23919" lon="7.33725">
        <ele>434.3</ele>
        <time>2000-01-02T02:21:05.000Z</time>
      </trkpt>
      <trkpt lat="48.2392" lon="7.33714">
        <ele>435.2</ele>
        <time>2000-01-02T02:21:15.000Z</time>
      </trkpt>
      <trkpt lat="48.23922" lon="7.33711">
        <ele>441</ele>
        <time>2000-01-02T02:21:25.000Z</time>
      </trkpt>
      <trkpt lat="48.23923" lon="7.33705">
        <ele>435.9</ele>
        <time>2000-01-02T02:21:35.000Z</time>
      </trkpt>
      <trkpt lat="48.23925" lon="7.337">
        <ele>436.3</ele>
        <time>2000-01-02T02:21:45.000Z</time>
      </trkpt>
      <trkpt lat="48.23927" lon="7.33695">
        <ele>436.7</ele>
        <time>2000-01-02T02:21:55.000Z</time>
      </trkpt>
      <trkpt lat="48.23928" lon="7.33693">
        <ele>436.8</ele>
        <time>2000-01-02T02:22:05.000Z</time>
      </trkpt>
      <trkpt lat="48.23929" lon="7.33691">
        <ele>436.9</ele>
        <time>2000-01-02T02:22:15.000Z</time>
      </trkpt>
      <trkpt lat="48.2393" lon="7.33688">
        <ele>437.1</ele>
        <time>2000-01-02T02:22:25.000Z</time>
      </trkpt>
      <trkpt lat="48.2393" lon="7.33686">
        <ele>446</ele>
        <time>2000-01-02T02:22:35.000Z</time>
      </trkpt>
      <trkpt lat="48.23931" lon="7.33685">
        <ele>437.3</ele>
        <time>2000-01-02T02:22:45.000Z</time>
      </trkpt>
      <trkpt lat="48.23934" lon="7.33675">
        <ele>437.8</ele>
        <time>2000-01-02T02:22:55.000Z</time>
      </trkpt>
      <trkpt lat="48.23933" lon="7.33668">
        <ele>438.1</ele>
        <time>2000-01-02T02:23:05.000Z</time>
      </trkpt>
      <trkpt lat="48.23933" lon="7.33663">
        <ele>443</ele>
        <time>2000-01-02T02:23:15.000Z</time>
      </trkpt>
      <trkpt lat="48.23935" lon="7.33653">
        <ele>450</ele>
        <time>2000-01-02T02:23:25.000Z</time>
      </trkpt>
      <trkpt lat="48.23935" lon="7.33644">
        <ele>444.9</ele>
        <time>2000-01-02T02:23:35.000Z</time>
      </trkpt>
      <trkpt lat="48.23934" lon="7.33637">
        <ele>445.7</ele>
        <time>2000-01-02T02:23:45.000Z</time>
      </trkpt>
      <trkpt lat="48.23935" lon="7.33631">
        <ele>446.4</ele>
        <time>2000-01-02T02:23:55.000Z</time>
      </trkpt>
      <trkpt lat="48.23934" lon="7.33625">
        <ele>454</ele>
        <time>2000-01-02T02:24:05.000Z</time>
      </trkpt>
      <trkpt lat="48.23932" lon="7.33617">
        <ele>448.3</ele>
        <time>2000-01-02T02:24:15.000Z</time>
      </trkpt>
      <trkpt lat="48.23932" lon="7.33611">
        <ele>449.2</ele>
        <time>2000-01-02T02:24:25.000Z</time>
      </trkpt>
      <trkpt lat="48.23931" lon="7.33605">
        <ele>450.2</ele>
        <time>2000-01-02T02:24:35.000Z</time>
      </trkpt>
      <trkpt lat="48.2393" lon="7.33597">
        <ele>458</ele>
        <time>2000-01-02T02:24:45.000Z</time>
      </trkpt>
      <trkpt lat="48.2393" lon="7.33587">
        <ele>453.1</ele>
        <time>2000-01-02T02:24:55.000Z</time>
      </trkpt>
      <trkpt lat="48.23929" lon="7.33581">
        <ele>457.7</ele>
        <time>2000-01-02T02:25:05.000Z</time>
      </trkpt>
      <trkpt lat="48.23928" lon="7.33576">
        <ele>457.8</ele>
        <time>2000-01-02T02:25:15.000Z</time>
      </trkpt>
      <trkpt lat="48.23928" lon="7.33571">
        <ele>457.8</ele>
        <time>2000-01-02T02:25:25.000Z</time>
      </trkpt>
      <trkpt lat="48.23927" lon="7.33565">
        <ele>462</ele>
        <time>2000-01-02T02:25:35.000Z</time>
      </trkpt>
      <trkpt lat="48.23927" lon="7.33562">
        <ele>458</ele>
        <time>2000-01-02T02:25:45.000Z</time>
      </trkpt>
      <trkpt lat="48.23926" lon="7.33561">
        <ele>458.1</ele>
        <time>2000-01-02T02:25:55.000Z</time>
      </trkpt>
      <trkpt lat="48.23926" lon="7.33557">
        <ele>458.2</ele>
        <time>2000-01-02T02:26:05.000Z</time>
      </trkpt>
      <trkpt lat="48.23921" lon="7.33543">
        <ele>459</ele>
        <time>2000-01-02T02:26:15.000Z</time>
      </trkpt>
      <trkpt lat="48.23918" lon="7.33537">
        <ele>465</ele>
        <time>2000-01-02T02:26:25.000Z</time>
      </trkpt>
      <trkpt lat="48.23917" lon="7.3353">
        <ele>460.1</ele>
        <time>2000-01-02T02:26:35.000Z</time>
      </trkpt>
      <trkpt lat="48.23915" lon="7.33524">
        <ele>460</ele>
        <time>2000-01-02T02:26:45.000Z</time>
      </trkpt>
      <trkpt lat="48.23913" lon="7.33519">
        <ele>460.6</ele>
        <time>2000-01-02T02:26:55.000Z</time>
      </trkpt>
      <trkpt lat="48.23912" lon="7.33512">
        <ele>461.7</ele>
        <time>2000-01-02T02:27:05.000Z</time>
      </trkpt>
      <trkpt lat="48.23912" lon="7.33504">
        <ele>469</ele>
        <time>2000-01-02T02:27:15.000Z</time>
      </trkpt>
      <trkpt lat="48.23911" lon="7.33497">
        <ele>465.5</ele>
        <time>2000-01-02T02:27:25.000Z</time>
      </trkpt>
      <trkpt lat="48.23912" lon="7.33494">
        <ele>465.6</ele>
        <time>2000-01-02T02:27:35.000Z</time>
      </trkpt>
      <trkpt lat="48.23912" lon="7.33492">
        <ele>465.7</ele>
        <time>2000-01-02T02:27:45.000Z</time>
      </trkpt>
      <trkpt lat="48.23913" lon="7.33481">
        <ele>466.5</ele>
        <time>2000-01-02T02:27:55.000Z</time>
      </trkpt>
      <trkpt lat="48.23915" lon="7.33476">
        <ele>473</ele>
        <time>2000-01-02T02:28:05.000Z</time>
      </trkpt>
      <trkpt lat="48.23917" lon="7.33471">
        <ele>466.7</ele>
        <time>2000-01-02T02:28:15.000Z</time>
      </trkpt>
      <trkpt lat="48.23917" lon="7.33461">
        <ele>467.4</ele>
        <time>2000-01-02T02:28:25.000Z</time>
      </trkpt>
      <trkpt lat="48.23919" lon="7.33451">
        <ele>468.3</ele>
        <time>2000-01-02T02:28:35.000Z</time>
      </trkpt>
      <trkpt lat="48.2392" lon="7.33443">
        <ele>477</ele>
        <time>2000-01-02T02:28:45.000Z</time>
      </trkpt>
      <trkpt lat="48.23922" lon="7.33434">
        <ele>470.1</ele>
        <time>2000-01-02T02:28:55.000Z</time>
      </trkpt>
      <trkpt lat="48.23924" lon="7.3343">
        <ele>470.6</ele>
        <time>2000-01-02T02:29:05.000Z</time>
      </trkpt>
      <trkpt lat="48.23926" lon="7.33425">
        <ele>471.1</ele>
        <time>2000-01-02T02:29:15.000Z</time>
      </trkpt>
      <trkpt lat="48.23927" lon="7.3342">
        <ele>471.4</ele>
        <time>2000-01-02T02:29:25.000Z</time>
      </trkpt>
      <trkpt lat="48.23928" lon="7.33416">
        <ele>481</ele>
        <time>2000-01-02T02:29:35.000Z</time>
      </trkpt>
      <trkpt lat="48.23929" lon="7.33415">
        <ele>475.6</ele>
        <time>2000-01-02T02:29:45.000Z</time>
      </trkpt>
      <trkpt lat="48.2393" lon="7.33415">
        <ele>475.7</ele>
        <time>2000-01-02T02:29:55.000Z</time>
      </trkpt>
      <trkpt lat="48.2393" lon="7.33416">
        <ele>475.7</ele>
        <time>2000-01-02T02:30:05.000Z</time>
      </trkpt>
      <trkpt lat="48.23929" lon="7.33415">
        <ele>475.6</ele>
        <time>2000-01-02T02:30:15.000Z</time>
      </trkpt>
      <trkpt lat="48.2394" lon="7.33412">
        <ele>476.2</ele>
        <time>2000-01-02T02:30:25.000Z</time>
      </trkpt>
      <trkpt lat="48.23942" lon="7.33414">
        <ele>476.2</ele>
        <time>2000-01-02T02:30:35.000Z</time>
      </trkpt>
      <trkpt lat="48.2395" lon="7.33419">
        <ele>481</ele>
        <time>2000-01-02T02:30:45.000Z</time>
      </trkpt>
      <trkpt lat="48.23956" lon="7.33423">
        <ele>468.2</ele>
        <time>2000-01-02T02:30:55.000Z</time>
      </trkpt>
      <trkpt lat="48.23964" lon="7.33428">
        <ele>467.7</ele>
        <time>2000-01-02T02:31:05.000Z</time>
      </trkpt>
      <trkpt lat="48.23971" lon="7.3343">
        <ele>477</ele>
        <time>2000-01-02T02:31:15.000Z</time>
      </trkpt>
      <trkpt lat="48.23977" lon="7.33429">
        <ele>467.3</ele>
        <time>2000-01-02T02:31:25.000Z</time>
      </trkpt>
      <trkpt lat="48.23982" lon="7.33427">
        <ele>467.3</ele>
        <time>2000-01-02T02:31:35.000Z</time>
      </trkpt>
      <trkpt lat="48.23984" lon="7.33427">
        <ele>467.3</ele>
        <time>2000-01-02T02:31:45.000Z</time>
      </trkpt>
      <trkpt lat="48.23985" lon="7.33426">
        <ele>467.3</ele>
        <time>2000-01-02T02:31:55.000Z</time>
      </trkpt>
      <trkpt lat="48.2399" lon="7.3342">
        <ele>476</ele>
        <time>2000-01-02T02:32:05.000Z</time>
      </trkpt>
      <trkpt lat="48.23993" lon="7.33419">
        <ele>467.7</ele>
        <time>2000-01-02T02:32:15.000Z</time>
      </trkpt>
      <trkpt lat="48.23998" lon="7.3342">
        <ele>467.8</ele>
        <time>2000-01-02T02:32:25.000Z</time>
      </trkpt>
      <trkpt lat="48.24002" lon="7.33425">
        <ele>465.5</ele>
        <time>2000-01-02T02:32:35.000Z</time>
      </trkpt>
      <trkpt lat="48.24003" lon="7.33425">
        <ele>465.4</ele>
        <time>2000-01-02T02:32:45.000Z</time>
      </trkpt>
      <trkpt lat="48.24005" lon="7.33426">
        <ele>465</ele>
        <time>2000-01-02T02:32:55.000Z</time>
      </trkpt>
      <trkpt lat="48.24018" lon="7.33422">
        <ele>475</ele>
        <time>2000-01-02T02:33:05.000Z</time>
      </trkpt>
      <trkpt lat="48.24024" lon="7.33418">
        <ele>462.7</ele>
        <time>2000-01-02T02:33:15.000Z</time>
      </trkpt>
      <trkpt lat="48.2403" lon="7.33409">
        <ele>469.3</ele>
        <time>2000-01-02T02:33:25.000Z</time>
      </trkpt>
      <trkpt lat="48.24031" lon="7.33403">
        <ele>472</ele>
        <time>2000-01-02T02:33:35.000Z</time>
      </trkpt>
      <trkpt lat="48.2403" lon="7.33397">
        <ele>470</ele>
        <time>2000-01-02T02:33:45.000Z</time>
      </trkpt>
      <trkpt lat="48.24032" lon="7.33393">
        <ele>470.2</ele>
        <time>2000-01-02T02:33:55.000Z</time>
      </trkpt>
      <trkpt lat="48.24036" lon="7.33391">
        <ele>470.2</ele>
        <time>2000-01-02T02:34:05.000Z</time>
      </trkpt>
      <trkpt lat="48.24036" lon="7.33386">
        <ele>470.6</ele>
        <time>2000-01-02T02:34:15.000Z</time>
      </trkpt>
      <trkpt lat="48.24037" lon="7.33379">
        <ele>471</ele>
        <time>2000-01-02T02:34:25.000Z</time>
      </trkpt>
      <trkpt lat="48.24037" lon="7.33376">
        <ele>471.4</ele>
        <time>2000-01-02T02:34:35.000Z</time>
      </trkpt>
      <trkpt lat="48.24036" lon="7.33364">
        <ele>472.7</ele>
        <time>2000-01-02T02:34:45.000Z</time>
      </trkpt>
      <trkpt lat="48.24036" lon="7.33358">
        <ele>473.2</ele>
        <time>2000-01-02T02:34:55.000Z</time>
      </trkpt>
      <trkpt lat="48.24035" lon="7.33352">
        <ele>471</ele>
        <time>2000-01-02T02:35:05.000Z</time>
      </trkpt>
      <trkpt lat="48.24033" lon="7.33343">
        <ele>474.8</ele>
        <time>2000-01-02T02:35:15.000Z</time>
      </trkpt>
      <trkpt lat="48.24033" lon="7.33339">
        <ele>475</ele>
        <time>2000-01-02T02:35:25.000Z</time>
      </trkpt>
      <trkpt lat="48.24032" lon="7.33327">
        <ele>485.7</ele>
        <time>2000-01-02T02:35:35.000Z</time>
      </trkpt>
      <trkpt lat="48.24034" lon="7.33324">
        <ele>472</ele>
        <time>2000-01-02T02:35:45.000Z</time>
      </trkpt>
      <trkpt lat="48.2404" lon="7.33308">
        <ele>486.4</ele>
        <time>2000-01-02T02:35:55.000Z</time>
      </trkpt>
      <trkpt lat="48.2405" lon="7.33297">
        <ele>473</ele>
        <time>2000-01-02T02:36:05.000Z</time>
      </trkpt>
      <trkpt lat="48.24068" lon="7.33285">
        <ele>474</ele>
        <time>2000-01-02T02:36:15.000Z</time>
      </trkpt>
      <trkpt lat="48.24077" lon="7.33277">
        <ele>487.9</ele>
        <time>2000-01-02T02:36:25.000Z</time>
      </trkpt>
      <trkpt lat="48.24092" lon="7.33278">
        <ele>474</ele>
        <time>2000-01-02T02:36:35.000Z</time>
      </trkpt>
      <trkpt lat="48.24111" lon="7.33295">
        <ele>471</ele>
        <time>2000-01-02T02:36:45.000Z</time>
      </trkpt>
      <trkpt lat="48.24115" lon="7.33306">
        <ele>484.9</ele>
        <time>2000-01-02T02:36:55.000Z</time>
      </trkpt>
      <trkpt lat="48.24126" lon="7.33326">
        <ele>470</ele>
        <time>2000-01-02T02:37:05.000Z</time>
      </trkpt>
      <trkpt lat="48.24134" lon="7.33338">
        <ele>475.5</ele>
        <time>2000-01-02T02:37:15.000Z</time>
      </trkpt>
      <trkpt lat="48.24137" lon="7.33347">
        <ele>475.3</ele>
        <time>2000-01-02T02:37:25.000Z</time>
      </trkpt>
      <trkpt lat="48.2414" lon="7.33357">
        <ele>469</ele>
        <time>2000-01-02T02:37:35.000Z</time>
      </trkpt>
      <trkpt lat="48.24145" lon="7.33371">
        <ele>473.5</ele>
        <time>2000-01-02T02:37:45.000Z</time>
      </trkpt>
      <trkpt lat="48.24148" lon="7.33378">
        <ele>472.9</ele>
        <time>2000-01-02T02:37:55.000Z</time>
      </trkpt>
      <trkpt lat="48.24149" lon="7.33383">
        <ele>468</ele>
        <time>2000-01-02T02:38:05.000Z</time>
      </trkpt>
      <trkpt lat="48.24157" lon="7.33383">
        <ele>472.7</ele>
        <time>2000-01-02T02:38:15.000Z</time>
      </trkpt>
      <trkpt lat="48.24165" lon="7.33376">
        <ele>473.8</ele>
        <time>2000-01-02T02:38:25.000Z</time>
      </trkpt>
      <trkpt lat="48.24167" lon="7.33374">
        <ele>468</ele>
        <time>2000-01-02T02:38:35.000Z</time>
      </trkpt>
      <trkpt lat="48.2417" lon="7.33374">
        <ele>479.1</ele>
        <time>2000-01-02T02:38:45.000Z</time>
      </trkpt>
      <trkpt lat="48.24176" lon="7.33376">
        <ele>478.9</ele>
        <time>2000-01-02T02:38:55.000Z</time>
      </trkpt>
      <trkpt lat="48.2418" lon="7.33379">
        <ele>478.6</ele>
        <time>2000-01-02T02:39:05.000Z</time>
      </trkpt>
      <trkpt lat="48.24188" lon="7.33379">
        <ele>463</ele>
        <time>2000-01-02T02:39:15.000Z</time>
      </trkpt>
      <trkpt lat="48.242" lon="7.33387">
        <ele>478.6</ele>
        <time>2000-01-02T02:39:25.000Z</time>
      </trkpt>
      <trkpt lat="48.24211" lon="7.33393">
        <ele>457</ele>
        <time>2000-01-02T02:39:35.000Z</time>
      </trkpt>
      <trkpt lat="48.24221" lon="7.33418">
        <ele>455</ele>
        <time>2000-01-02T02:39:45.000Z</time>
      </trkpt>
      <trkpt lat="48.24223" lon="7.33423">
        <ele>473.6</ele>
        <time>2000-01-02T02:39:55.000Z</time>
      </trkpt>
      <trkpt lat="48.24224" lon="7.33426">
        <ele>473.7</ele>
        <time>2000-01-02T02:40:05.000Z</time>
      </trkpt>
      <trkpt lat="48.24229" lon="7.33424">
        <ele>474.2</ele>
        <time>2000-01-02T02:40:15.000Z</time>
      </trkpt>
      <trkpt lat="48.24233" lon="7.33425">
        <ele>474.6</ele>
        <time>2000-01-02T02:40:25.000Z</time>
      </trkpt>
      <trkpt lat="48.24237" lon="7.3343">
        <ele>456</ele>
        <time>2000-01-02T02:40:35.000Z</time>
      </trkpt>
      <trkpt lat="48.24245" lon="7.33442">
        <ele>474.2</ele>
        <time>2000-01-02T02:40:45.000Z</time>
      </trkpt>
      <trkpt lat="48.24248" lon="7.33446">
        <ele>474.1</ele>
        <time>2000-01-02T02:40:55.000Z</time>
      </trkpt>
      <trkpt lat="48.24252" lon="7.33446">
        <ele>458</ele>
        <time>2000-01-02T02:41:05.000Z</time>
      </trkpt>
      <trkpt lat="48.24251" lon="7.33448">
        <ele>484.8</ele>
        <time>2000-01-02T02:41:15.000Z</time>
      </trkpt>
      <trkpt lat="48.24253" lon="7.3345">
        <ele>485</ele>
        <time>2000-01-02T02:41:25.000Z</time>
      </trkpt>
      <trkpt lat="48.24253" lon="7.33453">
        <ele>485.1</ele>
        <time>2000-01-02T02:41:35.000Z</time>
      </trkpt>
      <trkpt lat="48.24254" lon="7.33454">
        <ele>485.1</ele>
        <time>2000-01-02T02:41:45.000Z</time>
      </trkpt>
      <trkpt lat="48.24255" lon="7.33455">
        <ele>485.2</ele>
        <time>2000-01-02T02:41:55.000Z</time>
      </trkpt>
      <trkpt lat="48.24257" lon="7.33458">
        <ele>485.3</ele>
        <time>2000-01-02T02:42:05.000Z</time>
      </trkpt>
      <trkpt lat="48.24258" lon="7.33462">
        <ele>485.3</ele>
        <time>2000-01-02T02:42:15.000Z</time>
      </trkpt>
      <trkpt lat="48.24259" lon="7.33462">
        <ele>485.4</ele>
        <time>2000-01-02T02:42:25.000Z</time>
      </trkpt>
      <trkpt lat="48.24259" lon="7.33462">
        <ele>485.4</ele>
        <time>2000-01-02T02:42:35.000Z</time>
      </trkpt>
      <trkpt lat="48.2426" lon="7.33462">
        <ele>485.5</ele>
        <time>2000-01-02T02:42:45.000Z</time>
      </trkpt>
      <trkpt lat="48.24262" lon="7.33464">
        <ele>462</ele>
        <time>2000-01-02T02:42:55.000Z</time>
      </trkpt>
      <trkpt lat="48.24264" lon="7.33478">
        <ele>484.6</ele>
        <time>2000-01-02T02:43:05.000Z</time>
      </trkpt>
      <trkpt lat="48.24267" lon="7.33496">
        <ele>462</ele>
        <time>2000-01-02T02:43:15.000Z</time>
      </trkpt>
      <trkpt lat="48.24269" lon="7.33503">
        <ele>482.1</ele>
        <time>2000-01-02T02:43:25.000Z</time>
      </trkpt>
      <trkpt lat="48.24272" lon="7.33505">
        <ele>482.9</ele>
        <time>2000-01-02T02:43:35.000Z</time>
      </trkpt>
      <trkpt lat="48.24272" lon="7.33504">
        <ele>482.8</ele>
        <time>2000-01-02T02:43:45.000Z</time>
      </trkpt>
      <trkpt lat="48.24275" lon="7.33493">
        <ele>485.5</ele>
        <time>2000-01-02T02:43:55.000Z</time>
      </trkpt>
      <trkpt lat="48.24277" lon="7.33481">
        <ele>464</ele>
        <time>2000-01-02T02:44:05.000Z</time>
      </trkpt>
      <trkpt lat="48.24278" lon="7.33479">
        <ele>487</ele>
        <time>2000-01-02T02:44:15.000Z</time>
      </trkpt>
      <trkpt lat="48.24278" lon="7.33462">
        <ele>487.7</ele>
        <time>2000-01-02T02:44:25.000Z</time>
      </trkpt>
      <trkpt lat="48.24281" lon="7.33454">
        <ele>471</ele>
        <time>2000-01-02T02:44:35.000Z</time>
      </trkpt>
      <trkpt lat="48.24282" lon="7.33445">
        <ele>488.3</ele>
        <time>2000-01-02T02:44:45.000Z</time>
      </trkpt>
      <trkpt lat="48.24282" lon="7.33433">
        <ele>488.1</ele>
        <time>2000-01-02T02:44:55.000Z</time>
      </trkpt>
      <trkpt lat="48.2429" lon="7.33415">
        <ele>473</ele>
        <time>2000-01-02T02:45:05.000Z</time>
      </trkpt>
      <trkpt lat="48.2429" lon="7.33413">
        <ele>490.6</ele>
        <time>2000-01-02T02:45:15.000Z</time>
      </trkpt>
      <trkpt lat="48.24294" lon="7.33402">
        <ele>491.5</ele>
        <time>2000-01-02T02:45:25.000Z</time>
      </trkpt>
      <trkpt lat="48.24296" lon="7.33395">
        <ele>491.8</ele>
        <time>2000-01-02T02:45:35.000Z</time>
      </trkpt>
      <trkpt lat="48.24298" lon="7.33387">
        <ele>478</ele>
        <time>2000-01-02T02:45:45.000Z</time>
      </trkpt>
      <trkpt lat="48.24303" lon="7.33378">
        <ele>492.5</ele>
        <time>2000-01-02T02:45:55.000Z</time>
      </trkpt>
      <trkpt lat="48.24305" lon="7.3337">
        <ele>492.7</ele>
        <time>2000-01-02T02:46:05.000Z</time>
      </trkpt>
      <trkpt lat="48.24306" lon="7.33365">
        <ele>492.8</ele>
        <time>2000-01-02T02:46:15.000Z</time>
      </trkpt>
      <trkpt lat="48.24308" lon="7.33363">
        <ele>480</ele>
        <time>2000-01-02T02:46:25.000Z</time>
      </trkpt>
      <trkpt lat="48.24308" lon="7.33355">
        <ele>493.1</ele>
        <time>2000-01-02T02:46:35.000Z</time>
      </trkpt>
      <trkpt lat="48.2431" lon="7.33342">
        <ele>493.7</ele>
        <time>2000-01-02T02:46:45.000Z</time>
      </trkpt>
      <trkpt lat="48.24312" lon="7.3334">
        <ele>494</ele>
        <time>2000-01-02T02:46:55.000Z</time>
      </trkpt>
      <trkpt lat="48.24318" lon="7.3333">
        <ele>480</ele>
        <time>2000-01-02T02:47:05.000Z</time>
      </trkpt>
      <trkpt lat="48.24324" lon="7.33322">
        <ele>496.5</ele>
        <time>2000-01-02T02:47:15.000Z</time>
      </trkpt>
      <trkpt lat="48.24328" lon="7.33317">
        <ele>496.5</ele>
        <time>2000-01-02T02:47:25.000Z</time>
      </trkpt>
      <trkpt lat="48.24338" lon="7.33308">
        <ele>489</ele>
        <time>2000-01-02T02:47:35.000Z</time>
      </trkpt>
      <trkpt lat="48.24341" lon="7.33304">
        <ele>505.9</ele>
        <time>2000-01-02T02:47:45.000Z</time>
      </trkpt>
      <trkpt lat="48.24347" lon="7.33293">
        <ele>506.9</ele>
        <time>2000-01-02T02:47:55.000Z</time>
      </trkpt>
      <trkpt lat="48.24354" lon="7.33282">
        <ele>490</ele>
        <time>2000-01-02T02:48:05.000Z</time>
      </trkpt>
      <trkpt lat="48.24356" lon="7.33277">
        <ele>507.4</ele>
        <time>2000-01-02T02:48:15.000Z</time>
      </trkpt>
      <trkpt lat="48.24356" lon="7.33266">
        <ele>506.4</ele>
        <time>2000-01-02T02:48:25.000Z</time>
      </trkpt>
      <trkpt lat="48.24355" lon="7.33258">
        <ele>505.4</ele>
        <time>2000-01-02T02:48:35.000Z</time>
      </trkpt>
      <trkpt lat="48.24355" lon="7.33255">
        <ele>491</ele>
        <time>2000-01-02T02:48:45.000Z</time>
      </trkpt>
      <trkpt lat="48.2436" lon="7.33247">
        <ele>507.2</ele>
        <time>2000-01-02T02:48:55.000Z</time>
      </trkpt>
      <trkpt lat="48.24363" lon="7.33244">
        <ele>508.2</ele>
        <time>2000-01-02T02:49:05.000Z</time>
      </trkpt>
      <trkpt lat="48.24364" lon="7.33242">
        <ele>508.6</ele>
        <time>2000-01-02T02:49:15.000Z</time>
      </trkpt>
      <trkpt lat="48.24366" lon="7.33235">
        <ele>509.4</ele>
        <time>2000-01-02T02:49:25.000Z</time>
      </trkpt>
      <trkpt lat="48.24368" lon="7.33231">
        <ele>494</ele>
        <time>2000-01-02T02:49:35.000Z</time>
      </trkpt>
      <trkpt lat="48.24371" lon="7.33227">
        <ele>510.9</ele>
        <time>2000-01-02T02:49:45.000Z</time>
      </trkpt>
      <trkpt lat="48.2437" lon="7.33226">
        <ele>510.7</ele>
        <time>2000-01-02T02:49:55.000Z</time>
      </trkpt>
      <trkpt lat="48.24372" lon="7.33223">
        <ele>511.2</ele>
        <time>2000-01-02T02:50:05.000Z</time>
      </trkpt>
      <trkpt lat="48.24373" lon="7.33218">
        <ele>511.5</ele>
        <time>2000-01-02T02:50:15.000Z</time>
      </trkpt>
      <trkpt lat="48.24374" lon="7.33214">
        <ele>511.7</ele>
        <time>2000-01-02T02:50:25.000Z</time>
      </trkpt>
      <trkpt lat="48.24376" lon="7.33207">
        <ele>498</ele>
        <time>2000-01-02T02:50:35.000Z</time>
      </trkpt>
      <trkpt lat="48.24381" lon="7.33198">
        <ele>513</ele>
        <time>2000-01-02T02:50:45.000Z</time>
      </trkpt>
      <trkpt lat="48.24383" lon="7.33194">
        <ele>513.4</ele>
        <time>2000-01-02T02:50:55.000Z</time>
      </trkpt>
      <trkpt lat="48.24393" lon="7.33178">
        <ele>505</ele>
        <time>2000-01-02T02:51:05.000Z</time>
      </trkpt>
      <trkpt lat="48.24395" lon="7.33166">
        <ele>518.8</ele>
        <time>2000-01-02T02:51:15.000Z</time>
      </trkpt>
      <trkpt lat="48.24396" lon="7.33162">
        <ele>519</ele>
        <time>2000-01-02T02:51:25.000Z</time>
      </trkpt>
      <trkpt lat="48.24399" lon="7.33159">
        <ele>519.3</ele>
        <time>2000-01-02T02:51:35.000Z</time>
      </trkpt>
      <trkpt lat="48.24402" lon="7.33151">
        <ele>508</ele>
        <time>2000-01-02T02:51:45.000Z</time>
      </trkpt>
      <trkpt lat="48.24405" lon="7.33142">
        <ele>519.3</ele>
        <time>2000-01-02T02:51:55.000Z</time>
      </trkpt>
      <trkpt lat="48.24407" lon="7.33136">
        <ele>519.4</ele>
        <time>2000-01-02T02:52:05.000Z</time>
      </trkpt>
      <trkpt lat="48.24408" lon="7.33133">
        <ele>519.4</ele>
        <time>2000-01-02T02:52:15.000Z</time>
      </trkpt>
      <trkpt lat="48.24409" lon="7.33123">
        <ele>509</ele>
        <time>2000-01-02T02:52:25.000Z</time>
      </trkpt>
      <trkpt lat="48.24409" lon="7.33114">
        <ele>519.9</ele>
        <time>2000-01-02T02:52:35.000Z</time>
      </trkpt>
      <trkpt lat="48.24409" lon="7.33112">
        <ele>520</ele>
        <time>2000-01-02T02:52:45.000Z</time>
      </trkpt>
      <trkpt lat="48.24412" lon="7.33094">
        <ele>515</ele>
        <time>2000-01-02T02:52:55.000Z</time>
      </trkpt>
      <trkpt lat="48.24412" lon="7.33091">
        <ele>521.7</ele>
        <time>2000-01-02T02:53:05.000Z</time>
      </trkpt>
      <trkpt lat="48.24411" lon="7.33079">
        <ele>523.9</ele>
        <time>2000-01-02T02:53:15.000Z</time>
      </trkpt>
      <trkpt lat="48.24412" lon="7.3307">
        <ele>524.6</ele>
        <time>2000-01-02T02:53:25.000Z</time>
      </trkpt>
      <trkpt lat="48.24412" lon="7.33066">
        <ele>518</ele>
        <time>2000-01-02T02:53:35.000Z</time>
      </trkpt>
      <trkpt lat="48.24414" lon="7.33054">
        <ele>525.9</ele>
        <time>2000-01-02T02:53:45.000Z</time>
      </trkpt>
      <trkpt lat="48.24414" lon="7.33051">
        <ele>526.1</ele>
        <time>2000-01-02T02:53:55.000Z</time>
      </trkpt>
      <trkpt lat="48.24415" lon="7.33047">
        <ele>526.5</ele>
        <time>2000-01-02T02:54:05.000Z</time>
      </trkpt>
      <trkpt lat="48.24414" lon="7.33044">
        <ele>526.7</ele>
        <time>2000-01-02T02:54:15.000Z</time>
      </trkpt>
      <trkpt lat="48.24413" lon="7.33043">
        <ele>526.8</ele>
        <time>2000-01-02T02:54:25.000Z</time>
      </trkpt>
      <trkpt lat="48.2441" lon="7.33035">
        <ele>519</ele>
        <time>2000-01-02T02:54:35.000Z</time>
      </trkpt>
      <trkpt lat="48.2441" lon="7.33021">
        <ele>528.9</ele>
        <time>2000-01-02T02:54:45.000Z</time>
      </trkpt>
      <trkpt lat="48.2441" lon="7.33014">
        <ele>529.8</ele>
        <time>2000-01-02T02:54:55.000Z</time>
      </trkpt>
      <trkpt lat="48.24408" lon="7.33008">
        <ele>520</ele>
        <time>2000-01-02T02:55:05.000Z</time>
      </trkpt>
      <trkpt lat="48.24408" lon="7.33004">
        <ele>530.8</ele>
        <time>2000-01-02T02:55:15.000Z</time>
      </trkpt>
      <trkpt lat="48.24406" lon="7.32991">
        <ele>534.2</ele>
        <time>2000-01-02T02:55:25.000Z</time>
      </trkpt>
      <trkpt lat="48.24402" lon="7.32982">
        <ele>524</ele>
        <time>2000-01-02T02:55:35.000Z</time>
      </trkpt>
      <trkpt lat="48.244" lon="7.32972">
        <ele>535.6</ele>
        <time>2000-01-02T02:55:45.000Z</time>
      </trkpt>
      <trkpt lat="48.244" lon="7.32971">
        <ele>535.7</ele>
        <time>2000-01-02T02:55:55.000Z</time>
      </trkpt>
      <trkpt lat="48.244" lon="7.32966">
        <ele>536.1</ele>
        <time>2000-01-02T02:56:05.000Z</time>
      </trkpt>
      <trkpt lat="48.244" lon="7.32959">
        <ele>536.9</ele>
        <time>2000-01-02T02:56:15.000Z</time>
      </trkpt>
      <trkpt lat="48.24399" lon="7.32953">
        <ele>527</ele>
        <time>2000-01-02T02:56:25.000Z</time>
      </trkpt>
      <trkpt lat="48.24398" lon="7.32947">
        <ele>538.3</ele>
        <time>2000-01-02T02:56:35.000Z</time>
      </trkpt>
      <trkpt lat="48.24397" lon="7.3294">
        <ele>539.1</ele>
        <time>2000-01-02T02:56:45.000Z</time>
      </trkpt>
      <trkpt lat="48.24394" lon="7.32929">
        <ele>540.1</ele>
        <time>2000-01-02T02:56:55.000Z</time>
      </trkpt>
      <trkpt lat="48.24391" lon="7.32925">
        <ele>528</ele>
        <time>2000-01-02T02:57:05.000Z</time>
      </trkpt>
      <trkpt lat="48.24389" lon="7.3292">
        <ele>539.8</ele>
        <time>2000-01-02T02:57:15.000Z</time>
      </trkpt>
      <trkpt lat="48.24384" lon="7.32912">
        <ele>548.4</ele>
        <time>2000-01-02T02:57:25.000Z</time>
      </trkpt>
      <trkpt lat="48.24381" lon="7.3291">
        <ele>548.1</ele>
        <time>2000-01-02T02:57:35.000Z</time>
      </trkpt>
      <trkpt lat="48.24378" lon="7.32906">
        <ele>530</ele>
        <time>2000-01-02T02:57:45.000Z</time>
      </trkpt>
      <trkpt lat="48.24377" lon="7.32906">
        <ele>547.8</ele>
        <time>2000-01-02T02:57:55.000Z</time>
      </trkpt>
      <trkpt lat="48.24376" lon="7.32904">
        <ele>547.8</ele>
        <time>2000-01-02T02:58:05.000Z</time>
      </trkpt>
      <trkpt lat="48.24374" lon="7.32901">
        <ele>547.7</ele>
        <time>2000-01-02T02:58:15.000Z</time>
      </trkpt>
      <trkpt lat="48.24373" lon="7.32899">
        <ele>547.7</ele>
        <time>2000-01-02T02:58:25.000Z</time>
      </trkpt>
      <trkpt lat="48.2437" lon="7.32894">
        <ele>547.8</ele>
        <time>2000-01-02T02:58:35.000Z</time>
      </trkpt>
      <trkpt lat="48.24371" lon="7.32888">
        <ele>548.7</ele>
        <time>2000-01-02T02:58:45.000Z</time>
      </trkpt>
      <trkpt lat="48.2437" lon="7.32876">
        <ele>535</ele>
        <time>2000-01-02T02:58:55.000Z</time>
      </trkpt>
      <trkpt lat="48.2437" lon="7.32872">
        <ele>550.5</ele>
        <time>2000-01-02T02:59:05.000Z</time>
      </trkpt>
      <trkpt lat="48.24369" lon="7.32856">
        <ele>552.1</ele>
        <time>2000-01-02T02:59:15.000Z</time>
      </trkpt>
      <trkpt lat="48.24367" lon="7.32846">
        <ele>541</ele>
        <time>2000-01-02T02:59:25.000Z</time>
      </trkpt>
      <trkpt lat="48.24365" lon="7.32834">
        <ele>552.9</ele>
        <time>2000-01-02T02:59:35.000Z</time>
      </trkpt>
      <trkpt lat="48.24365" lon="7.3282">
        <ele>562.8</ele>
        <time>2000-01-02T02:59:45.000Z</time>
      </trkpt>
      <trkpt lat="48.24365" lon="7.32818">
        <ele>547</ele>
        <time>2000-01-02T02:59:55.000Z</time>
      </trkpt>
      <trkpt lat="48.24365" lon="7.32812">
        <ele>563.5</ele>
        <time>2000-01-02T03:00:05.000Z</time>
      </trkpt>
      <trkpt lat="48.24363" lon="7.32803">
        <ele>564</ele>
        <time>2000-01-02T03:00:15.000Z</time>
      </trkpt>
      <trkpt lat="48.24361" lon="7.32793">
        <ele>564.6</ele>
        <time>2000-01-02T03:00:25.000Z</time>
      </trkpt>
      <trkpt lat="48.24359" lon="7.32784">
        <ele>547</ele>
        <time>2000-01-02T03:00:35.000Z</time>
      </trkpt>
      <trkpt lat="48.24359" lon="7.32779">
        <ele>565.4</ele>
        <time>2000-01-02T03:00:45.000Z</time>
      </trkpt>
      <trkpt lat="48.24359" lon="7.32769">
        <ele>565.9</ele>
        <time>2000-01-02T03:00:55.000Z</time>
      </trkpt>
      <trkpt lat="48.24357" lon="7.32755">
        <ele>552</ele>
        <time>2000-01-02T03:01:05.000Z</time>
      </trkpt>
      <trkpt lat="48.24357" lon="7.32749">
        <ele>571.2</ele>
        <time>2000-01-02T03:01:15.000Z</time>
      </trkpt>
      <trkpt lat="48.24356" lon="7.32743">
        <ele>571.3</ele>
        <time>2000-01-02T03:01:25.000Z</time>
      </trkpt>
      <trkpt lat="48.24355" lon="7.32735">
        <ele>571.8</ele>
        <time>2000-01-02T03:01:35.000Z</time>
      </trkpt>
      <trkpt lat="48.24354" lon="7.32727">
        <ele>553</ele>
        <time>2000-01-02T03:01:45.000Z</time>
      </trkpt>
      <trkpt lat="48.24353" lon="7.32726">
        <ele>572.5</ele>
        <time>2000-01-02T03:01:55.000Z</time>
      </trkpt>
      <trkpt lat="48.2435" lon="7.3272">
        <ele>573</ele>
        <time>2000-01-02T03:02:05.000Z</time>
      </trkpt>
      <trkpt lat="48.24346" lon="7.32714">
        <ele>573.4</ele>
        <time>2000-01-02T03:02:15.000Z</time>
      </trkpt>
      <trkpt lat="48.24344" lon="7.32711">
        <ele>573.6</ele>
        <time>2000-01-02T03:02:25.000Z</time>
      </trkpt>
      <trkpt lat="48.24337" lon="7.327">
        <ele>555</ele>
        <time>2000-01-02T03:02:35.000Z</time>
      </trkpt>
      <trkpt lat="48.24336" lon="7.32695">
        <ele>574.9</ele>
        <time>2000-01-02T03:02:45.000Z</time>
      </trkpt>
      <trkpt lat="48.24332" lon="7.32686">
        <ele>571.6</ele>
        <time>2000-01-02T03:02:55.000Z</time>
      </trkpt>
      <trkpt lat="48.24331" lon="7.32681">
        <ele>572.6</ele>
        <time>2000-01-02T03:03:05.000Z</time>
      </trkpt>
      <trkpt lat="48.2433" lon="7.32673">
        <ele>563</ele>
        <time>2000-01-02T03:03:15.000Z</time>
      </trkpt>
      <trkpt lat="48.2433" lon="7.32667">
        <ele>575.7</ele>
        <time>2000-01-02T03:03:25.000Z</time>
      </trkpt>
      <trkpt lat="48.24326" lon="7.32654">
        <ele>579.1</ele>
        <time>2000-01-02T03:03:35.000Z</time>
      </trkpt>
      <trkpt lat="48.24322" lon="7.32641">
        <ele>570</ele>
        <time>2000-01-02T03:03:45.000Z</time>
      </trkpt>
      <trkpt lat="48.2432" lon="7.32637">
        <ele>581</ele>
        <time>2000-01-02T03:03:55.000Z</time>
      </trkpt>
      <trkpt lat="48.24318" lon="7.32633">
        <ele>581.4</ele>
        <time>2000-01-02T03:04:05.000Z</time>
      </trkpt>
      <trkpt lat="48.24317" lon="7.32631">
        <ele>581.6</ele>
        <time>2000-01-02T03:04:15.000Z</time>
      </trkpt>
      <trkpt lat="48.24316" lon="7.32625">
        <ele>582.3</ele>
        <time>2000-01-02T03:04:25.000Z</time>
      </trkpt>
      <trkpt lat="48.24318" lon="7.32622">
        <ele>582.7</ele>
        <time>2000-01-02T03:04:35.000Z</time>
      </trkpt>
      <trkpt lat="48.24321" lon="7.32621">
        <ele>582.9</ele>
        <time>2000-01-02T03:04:45.000Z</time>
      </trkpt>
      <trkpt lat="48.24328" lon="7.32611">
        <ele>579</ele>
        <time>2000-01-02T03:04:55.000Z</time>
      </trkpt>
      <trkpt lat="48.24335" lon="7.32604">
        <ele>586.4</ele>
        <time>2000-01-02T03:05:05.000Z</time>
      </trkpt>
      <trkpt lat="48.24341" lon="7.32601">
        <ele>586.6</ele>
        <time>2000-01-02T03:05:15.000Z</time>
      </trkpt>
      <trkpt lat="48.24351" lon="7.32587">
        <ele>584</ele>
        <time>2000-01-02T03:05:25.000Z</time>
      </trkpt>
      <trkpt lat="48.24357" lon="7.3258">
        <ele>590.9</ele>
        <time>2000-01-02T03:05:35.000Z</time>
      </trkpt>
      <trkpt lat="48.24366" lon="7.32574">
        <ele>590.3</ele>
        <time>2000-01-02T03:05:45.000Z</time>
      </trkpt>
      <trkpt lat="48.24369" lon="7.32569">
        <ele>584</ele>
        <time>2000-01-02T03:05:55.000Z</time>
      </trkpt>
      <trkpt lat="48.24373" lon="7.32574">
        <ele>589.6</ele>
        <time>2000-01-02T03:06:05.000Z</time>
      </trkpt>
      <trkpt lat="48.24374" lon="7.32578">
        <ele>589.3</ele>
        <time>2000-01-02T03:06:15.000Z</time>
      </trkpt>
      <trkpt lat="48.24381" lon="7.32597">
        <ele>583</ele>
        <time>2000-01-02T03:06:25.000Z</time>
      </trkpt>
      <trkpt lat="48.24389" lon="7.326">
        <ele>582.7</ele>
        <time>2000-01-02T03:06:35.000Z</time>
      </trkpt>
      <trkpt lat="48.24393" lon="7.32601">
        <ele>582.5</ele>
        <time>2000-01-02T03:06:45.000Z</time>
      </trkpt>
      <trkpt lat="48.24407" lon="7.32633">
        <ele>583</ele>
        <time>2000-01-02T03:06:55.000Z</time>
      </trkpt>
      <trkpt lat="48.24412" lon="7.32643">
        <ele>582.1</ele>
        <time>2000-01-02T03:07:05.000Z</time>
      </trkpt>
      <trkpt lat="48.24422" lon="7.32667">
        <ele>582</ele>
        <time>2000-01-02T03:07:15.000Z</time>
      </trkpt>
      <trkpt lat="48.24432" lon="7.32691">
        <ele>582</ele>
        <time>2000-01-02T03:07:25.000Z</time>
      </trkpt>
      <trkpt lat="48.24437" lon="7.32702">
        <ele>577.9</ele>
        <time>2000-01-02T03:07:35.000Z</time>
      </trkpt>
      <trkpt lat="48.24439" lon="7.32704">
        <ele>577.8</ele>
        <time>2000-01-02T03:07:45.000Z</time>
      </trkpt>
      <trkpt lat="48.24437" lon="7.32694">
        <ele>582</ele>
        <time>2000-01-02T03:07:55.000Z</time>
      </trkpt>
      <trkpt lat="48.24435" lon="7.32687">
        <ele>578.3</ele>
        <time>2000-01-02T03:08:05.000Z</time>
      </trkpt>
      <trkpt lat="48.2443" lon="7.32687">
        <ele>578.7</ele>
        <time>2000-01-02T03:08:15.000Z</time>
      </trkpt>
      <trkpt lat="48.2443" lon="7.32692">
        <ele>578.4</ele>
        <time>2000-01-02T03:08:25.000Z</time>
      </trkpt>
      <trkpt lat="48.24433" lon="7.32702">
        <ele>582</ele>
        <time>2000-01-02T03:08:35.000Z</time>
      </trkpt>
      <trkpt lat="48.24448" lon="7.32727">
        <ele>583</ele>
        <time>2000-01-02T03:08:45.000Z</time>
      </trkpt>
      <trkpt lat="48.2446" lon="7.32748">
        <ele>584</ele>
        <time>2000-01-02T03:08:55.000Z</time>
      </trkpt>
      <trkpt lat="48.24475" lon="7.32768">
        <ele>584</ele>
        <time>2000-01-02T03:09:05.000Z</time>
      </trkpt>
      <trkpt lat="48.2449" lon="7.32784">
        <ele>584</ele>
        <time>2000-01-02T03:09:15.000Z</time>
      </trkpt>
      <trkpt lat="48.24508" lon="7.32805">
        <ele>584</ele>
        <time>2000-01-02T03:09:25.000Z</time>
      </trkpt>
      <trkpt lat="48.2451" lon="7.32806">
        <ele>577.5</ele>
        <time>2000-01-02T03:09:35.000Z</time>
      </trkpt>
      <trkpt lat="48.24523" lon="7.32821">
        <ele>584</ele>
        <time>2000-01-02T03:09:45.000Z</time>
      </trkpt>
      <trkpt lat="48.24532" lon="7.32835">
        <ele>579.6</ele>
        <time>2000-01-02T03:09:55.000Z</time>
      </trkpt>
      <trkpt lat="48.24545" lon="7.32848">
        <ele>584</ele>
        <time>2000-01-02T03:10:05.000Z</time>
      </trkpt>
      <trkpt lat="48.24552" lon="7.32856">
        <ele>577.8</ele>
        <time>2000-01-02T03:10:15.000Z</time>
      </trkpt>
      <trkpt lat="48.2456" lon="7.32873">
        <ele>586</ele>
        <time>2000-01-02T03:10:25.000Z</time>
      </trkpt>
      <trkpt lat="48.2457" lon="7.329">
        <ele>587</ele>
        <time>2000-01-02T03:10:35.000Z</time>
      </trkpt>
      <trkpt lat="48.24577" lon="7.32925">
        <ele>588</ele>
        <time>2000-01-02T03:10:45.000Z</time>
      </trkpt>
      <trkpt lat="48.2458" lon="7.32937">
        <ele>580.4</ele>
        <time>2000-01-02T03:10:55.000Z</time>
      </trkpt>
      <trkpt lat="48.24592" lon="7.32958">
        <ele>588</ele>
        <time>2000-01-02T03:11:05.000Z</time>
      </trkpt>
      <trkpt lat="48.24601" lon="7.32978">
        <ele>584.7</ele>
        <time>2000-01-02T03:11:15.000Z</time>
      </trkpt>
      <trkpt lat="48.24614" lon="7.33">
        <ele>592</ele>
        <time>2000-01-02T03:11:25.000Z</time>
      </trkpt>
      <trkpt lat="48.24624" lon="7.33017">
        <ele>593.7</ele>
        <time>2000-01-02T03:11:35.000Z</time>
      </trkpt>
      <trkpt lat="48.24629" lon="7.33027">
        <ele>593</ele>
        <time>2000-01-02T03:11:45.000Z</time>
      </trkpt>
      <trkpt lat="48.24634" lon="7.33041">
        <ele>595.4</ele>
        <time>2000-01-02T03:11:55.000Z</time>
      </trkpt>
      <trkpt lat="48.24636" lon="7.33053">
        <ele>595</ele>
        <time>2000-01-02T03:12:05.000Z</time>
      </trkpt>
      <trkpt lat="48.24635" lon="7.33088">
        <ele>599</ele>
        <time>2000-01-02T03:12:15.000Z</time>
      </trkpt>
      <trkpt lat="48.24638" lon="7.33096">
        <ele>604</ele>
        <time>2000-01-02T03:12:25.000Z</time>
      </trkpt>
      <trkpt lat="48.2464" lon="7.33124">
        <ele>602</ele>
        <time>2000-01-02T03:12:35.000Z</time>
      </trkpt>
      <trkpt lat="48.24642" lon="7.33135">
        <ele>605.7</ele>
        <time>2000-01-02T03:12:45.000Z</time>
      </trkpt>
      <trkpt lat="48.24646" lon="7.33144">
        <ele>606.8</ele>
        <time>2000-01-02T03:12:55.000Z</time>
      </trkpt>
      <trkpt lat="48.24651" lon="7.33157">
        <ele>604</ele>
        <time>2000-01-02T03:13:05.000Z</time>
      </trkpt>
      <trkpt lat="48.24659" lon="7.33175">
        <ele>612.6</ele>
        <time>2000-01-02T03:13:15.000Z</time>
      </trkpt>
      <trkpt lat="48.24663" lon="7.33181">
        <ele>607</ele>
        <time>2000-01-02T03:13:25.000Z</time>
      </trkpt>
      <trkpt lat="48.24674" lon="7.332">
        <ele>614.9</ele>
        <time>2000-01-02T03:13:35.000Z</time>
      </trkpt>
      <trkpt lat="48.24679" lon="7.33204">
        <ele>610</ele>
        <time>2000-01-02T03:13:45.000Z</time>
      </trkpt>
      <trkpt lat="48.24685" lon="7.33213">
        <ele>615.3</ele>
        <time>2000-01-02T03:13:55.000Z</time>
      </trkpt>
      <trkpt lat="48.24688" lon="7.33221">
        <ele>615.7</ele>
        <time>2000-01-02T03:14:05.000Z</time>
      </trkpt>
      <trkpt lat="48.2469" lon="7.33231">
        <ele>613</ele>
        <time>2000-01-02T03:14:15.000Z</time>
      </trkpt>
      <trkpt lat="48.24693" lon="7.33246">
        <ele>616.9</ele>
        <time>2000-01-02T03:14:25.000Z</time>
      </trkpt>
      <trkpt lat="48.24695" lon="7.33254">
        <ele>622.3</ele>
        <time>2000-01-02T03:14:35.000Z</time>
      </trkpt>
      <trkpt lat="48.24695" lon="7.33256">
        <ele>622.4</ele>
        <time>2000-01-02T03:14:45.000Z</time>
      </trkpt>
      <trkpt lat="48.24699" lon="7.33265">
        <ele>617</ele>
        <time>2000-01-02T03:14:55.000Z</time>
      </trkpt>
      <trkpt lat="48.24701" lon="7.33267">
        <ele>622.6</ele>
        <time>2000-01-02T03:15:05.000Z</time>
      </trkpt>
      <trkpt lat="48.24707" lon="7.33269">
        <ele>622.6</ele>
        <time>2000-01-02T03:15:15.000Z</time>
      </trkpt>
      <trkpt lat="48.24714" lon="7.33275">
        <ele>622.8</ele>
        <time>2000-01-02T03:15:25.000Z</time>
      </trkpt>
      <trkpt lat="48.24716" lon="7.33276">
        <ele>621</ele>
        <time>2000-01-02T03:15:35.000Z</time>
      </trkpt>
      <trkpt lat="48.24723" lon="7.33288">
        <ele>623.8</ele>
        <time>2000-01-02T03:15:45.000Z</time>
      </trkpt>
      <trkpt lat="48.24724" lon="7.33295">
        <ele>624.5</ele>
        <time>2000-01-02T03:15:55.000Z</time>
      </trkpt>
      <trkpt lat="48.24725" lon="7.33299">
        <ele>625</ele>
        <time>2000-01-02T03:16:05.000Z</time>
      </trkpt>
      <trkpt lat="48.24726" lon="7.33306">
        <ele>625.8</ele>
        <time>2000-01-02T03:16:15.000Z</time>
      </trkpt>
      <trkpt lat="48.24719" lon="7.33332">
        <ele>631</ele>
        <time>2000-01-02T03:16:25.000Z</time>
      </trkpt>
      <trkpt lat="48.24714" lon="7.33356">
        <ele>631.4</ele>
        <time>2000-01-02T03:16:35.000Z</time>
      </trkpt>
      <trkpt lat="48.24714" lon="7.33373">
        <ele>632</ele>
        <time>2000-01-02T03:16:45.000Z</time>
      </trkpt>
      <trkpt lat="48.24714" lon="7.33394">
        <ele>632.9</ele>
        <time>2000-01-02T03:16:55.000Z</time>
      </trkpt>
      <trkpt lat="48.24715" lon="7.33404">
        <ele>635</ele>
        <time>2000-01-02T03:17:05.000Z</time>
      </trkpt>
      <trkpt lat="48.24718" lon="7.33417">
        <ele>635.9</ele>
        <time>2000-01-02T03:17:15.000Z</time>
      </trkpt>
      <trkpt lat="48.24721" lon="7.33427">
        <ele>636.5</ele>
        <time>2000-01-02T03:17:25.000Z</time>
      </trkpt>
      <trkpt lat="48.24726" lon="7.33439">
        <ele>641</ele>
        <time>2000-01-02T03:17:35.000Z</time>
      </trkpt>
      <trkpt lat="48.24728" lon="7.33446">
        <ele>636.8</ele>
        <time>2000-01-02T03:17:45.000Z</time>
      </trkpt>
      <trkpt lat="48.24734" lon="7.33466">
        <ele>645</ele>
        <time>2000-01-02T03:17:55.000Z</time>
      </trkpt>
      <trkpt lat="48.24734" lon="7.33478">
        <ele>638.5</ele>
        <time>2000-01-02T03:18:05.000Z</time>
      </trkpt>
      <trkpt lat="48.2476" lon="7.33529">
        <ele>653</ele>
        <time>2000-01-02T03:18:15.000Z</time>
      </trkpt>
      <trkpt lat="48.2476" lon="7.33532">
        <ele>655.3</ele>
        <time>2000-01-02T03:18:25.000Z</time>
      </trkpt>
      <trkpt lat="48.24763" lon="7.33541">
        <ele>656</ele>
        <time>2000-01-02T03:18:35.000Z</time>
      </trkpt>
      <trkpt lat="48.24769" lon="7.33556">
        <ele>655</ele>
        <time>2000-01-02T03:18:45.000Z</time>
      </trkpt>
      <trkpt lat="48.24769" lon="7.3356">
        <ele>656.8</ele>
        <time>2000-01-02T03:18:55.000Z</time>
      </trkpt>
      <trkpt lat="48.24769" lon="7.33562">
        <ele>656.8</ele>
        <time>2000-01-02T03:19:05.000Z</time>
      </trkpt>
      <trkpt lat="48.24775" lon="7.33575">
        <ele>657.4</ele>
        <time>2000-01-02T03:19:15.000Z</time>
      </trkpt>
      <trkpt lat="48.24781" lon="7.33585">
        <ele>660</ele>
        <time>2000-01-02T03:19:25.000Z</time>
      </trkpt>
      <trkpt lat="48.24783" lon="7.33592">
        <ele>664.4</ele>
        <time>2000-01-02T03:19:35.000Z</time>
      </trkpt>
      <trkpt lat="48.24784" lon="7.33596">
        <ele>664.8</ele>
        <time>2000-01-02T03:19:45.000Z</time>
      </trkpt>
      <trkpt lat="48.24784" lon="7.33599">
        <ele>665</ele>
        <time>2000-01-02T03:19:55.000Z</time>
      </trkpt>
      <trkpt lat="48.24787" lon="7.33605">
        <ele>665.9</ele>
        <time>2000-01-02T03:20:05.000Z</time>
      </trkpt>
      <trkpt lat="48.24788" lon="7.33611">
        <ele>660</ele>
        <time>2000-01-02T03:20:15.000Z</time>
      </trkpt>
      <trkpt lat="48.24789" lon="7.33619">
        <ele>667</ele>
        <time>2000-01-02T03:20:25.000Z</time>
      </trkpt>
      <trkpt lat="48.24789" lon="7.3363">
        <ele>667.6</ele>
        <time>2000-01-02T03:20:35.000Z</time>
      </trkpt>
      <trkpt lat="48.2479" lon="7.33637">
        <ele>668.1</ele>
        <time>2000-01-02T03:20:45.000Z</time>
      </trkpt>
      <trkpt lat="48.24791" lon="7.33642">
        <ele>663</ele>
        <time>2000-01-02T03:20:55.000Z</time>
      </trkpt>
      <trkpt lat="48.24793" lon="7.33656">
        <ele>669.7</ele>
        <time>2000-01-02T03:21:05.000Z</time>
      </trkpt>
      <trkpt lat="48.24797" lon="7.33667">
        <ele>675.6</ele>
        <time>2000-01-02T03:21:15.000Z</time>
      </trkpt>
      <trkpt lat="48.24798" lon="7.33674">
        <ele>665</ele>
        <time>2000-01-02T03:21:25.000Z</time>
      </trkpt>
      <trkpt lat="48.24799" lon="7.33685">
        <ele>676.2</ele>
        <time>2000-01-02T03:21:35.000Z</time>
      </trkpt>
      <trkpt lat="48.24801" lon="7.33694">
        <ele>676.7</ele>
        <time>2000-01-02T03:21:45.000Z</time>
      </trkpt>
      <trkpt lat="48.248" lon="7.33703">
        <ele>665</ele>
        <time>2000-01-02T03:21:55.000Z</time>
      </trkpt>
      <trkpt lat="48.24801" lon="7.33717">
        <ele>677.4</ele>
        <time>2000-01-02T03:22:05.000Z</time>
      </trkpt>
      <trkpt lat="48.24807" lon="7.33731">
        <ele>669</ele>
        <time>2000-01-02T03:22:15.000Z</time>
      </trkpt>
      <trkpt lat="48.24809" lon="7.33737">
        <ele>681.8</ele>
        <time>2000-01-02T03:22:25.000Z</time>
      </trkpt>
      <trkpt lat="48.2481" lon="7.33739">
        <ele>682.4</ele>
        <time>2000-01-02T03:22:35.000Z</time>
      </trkpt>
      <trkpt lat="48.24814" lon="7.33747">
        <ele>685.2</ele>
        <time>2000-01-02T03:22:45.000Z</time>
      </trkpt>
      <trkpt lat="48.24817" lon="7.3376">
        <ele>677</ele>
        <time>2000-01-02T03:22:55.000Z</time>
      </trkpt>
      <trkpt lat="48.24817" lon="7.33761">
        <ele>685.7</ele>
        <time>2000-01-02T03:23:05.000Z</time>
      </trkpt>
      <trkpt lat="48.24816" lon="7.33763">
        <ele>684.8</ele>
        <time>2000-01-02T03:23:15.000Z</time>
      </trkpt>
      <trkpt lat="48.24823" lon="7.3379">
        <ele>682</ele>
        <time>2000-01-02T03:23:25.000Z</time>
      </trkpt>
      <trkpt lat="48.24823" lon="7.33798">
        <ele>682.1</ele>
        <time>2000-01-02T03:23:35.000Z</time>
      </trkpt>
      <trkpt lat="48.24823" lon="7.33799">
        <ele>682.1</ele>
        <time>2000-01-02T03:23:45.000Z</time>
      </trkpt>
      <trkpt lat="48.24833" lon="7.33806">
        <ele>684</ele>
        <time>2000-01-02T03:23:55.000Z</time>
      </trkpt>
      <trkpt lat="48.24834" lon="7.33807">
        <ele>687</ele>
        <time>2000-01-02T03:24:05.000Z</time>
      </trkpt>
      <trkpt lat="48.24839" lon="7.33811">
        <ele>702.4</ele>
        <time>2000-01-02T03:24:15.000Z</time>
      </trkpt>
      <trkpt lat="48.24841" lon="7.33814">
        <ele>702.1</ele>
        <time>2000-01-02T03:24:25.000Z</time>
      </trkpt>
      <trkpt lat="48.24842" lon="7.33816">
        <ele>701.9</ele>
        <time>2000-01-02T03:24:35.000Z</time>
      </trkpt>
      <trkpt lat="48.24846" lon="7.33826">
        <ele>695</ele>
        <time>2000-01-02T03:24:45.000Z</time>
      </trkpt>
      <trkpt lat="48.24845" lon="7.33835">
        <ele>700.3</ele>
        <time>2000-01-02T03:24:55.000Z</time>
      </trkpt>
      <trkpt lat="48.24844" lon="7.33836">
        <ele>700</ele>
        <time>2000-01-02T03:25:05.000Z</time>
      </trkpt>
      <trkpt lat="48.24844" lon="7.33843">
        <ele>701.1</ele>
        <time>2000-01-02T03:25:15.000Z</time>
      </trkpt>
      <trkpt lat="48.24846" lon="7.33847">
        <ele>702.2</ele>
        <time>2000-01-02T03:25:25.000Z</time>
      </trkpt>
      <trkpt lat="48.24848" lon="7.3385">
        <ele>703</ele>
        <time>2000-01-02T03:25:35.000Z</time>
      </trkpt>
      <trkpt lat="48.24851" lon="7.33856">
        <ele>696</ele>
        <time>2000-01-02T03:25:45.000Z</time>
      </trkpt>
      <trkpt lat="48.24852" lon="7.33862">
        <ele>704.8</ele>
        <time>2000-01-02T03:25:55.000Z</time>
      </trkpt>
      <trkpt lat="48.24853" lon="7.33874">
        <ele>705.3</ele>
        <time>2000-01-02T03:26:05.000Z</time>
      </trkpt>
      <trkpt lat="48.24854" lon="7.33895">
        <ele>696</ele>
        <time>2000-01-02T03:26:15.000Z</time>
      </trkpt>
      <trkpt lat="48.24854" lon="7.339">
        <ele>703.9</ele>
        <time>2000-01-02T03:26:25.000Z</time>
      </trkpt>
      <trkpt lat="48.24857" lon="7.33901">
        <ele>704.5</ele>
        <time>2000-01-02T03:26:35.000Z</time>
      </trkpt>
      <trkpt lat="48.24856" lon="7.33919">
        <ele>696</ele>
        <time>2000-01-02T03:26:45.000Z</time>
      </trkpt>
      <trkpt lat="48.24854" lon="7.33924">
        <ele>703.5</ele>
        <time>2000-01-02T03:26:55.000Z</time>
      </trkpt>
      <trkpt lat="48.24852" lon="7.33934">
        <ele>704.1</ele>
        <time>2000-01-02T03:27:05.000Z</time>
      </trkpt>
      <trkpt lat="48.24856" lon="7.33957">
        <ele>696</ele>
        <time>2000-01-02T03:27:15.000Z</time>
      </trkpt>
      <trkpt lat="48.24855" lon="7.3396">
        <ele>706.3</ele>
        <time>2000-01-02T03:27:25.000Z</time>
      </trkpt>
      <trkpt lat="48.24857" lon="7.33972">
        <ele>706.4</ele>
        <time>2000-01-02T03:27:35.000Z</time>
      </trkpt>
      <trkpt lat="48.2486" lon="7.33979">
        <ele>706.7</ele>
        <time>2000-01-02T03:27:45.000Z</time>
      </trkpt>
      <trkpt lat="48.24864" lon="7.33985">
        <ele>697</ele>
        <time>2000-01-02T03:27:55.000Z</time>
      </trkpt>
      <trkpt lat="48.24865" lon="7.33991">
        <ele>707.6</ele>
        <time>2000-01-02T03:28:05.000Z</time>
      </trkpt>
      <trkpt lat="48.24865" lon="7.33993">
        <ele>707.5</ele>
        <time>2000-01-02T03:28:15.000Z</time>
      </trkpt>
      <trkpt lat="48.24866" lon="7.33995">
        <ele>707.8</ele>
        <time>2000-01-02T03:28:25.000Z</time>
      </trkpt>
      <trkpt lat="48.24865" lon="7.34001">
        <ele>707.8</ele>
        <time>2000-01-02T03:28:35.000Z</time>
      </trkpt>
      <trkpt lat="48.24865" lon="7.34007">
        <ele>707.9</ele>
        <time>2000-01-02T03:28:45.000Z</time>
      </trkpt>
      <trkpt lat="48.24865" lon="7.34015">
        <ele>699</ele>
        <time>2000-01-02T03:28:55.000Z</time>
      </trkpt>
      <trkpt lat="48.24865" lon="7.34019">
        <ele>708.2</ele>
        <time>2000-01-02T03:29:05.000Z</time>
      </trkpt>
      <trkpt lat="48.2487" lon="7.34029">
        <ele>709.5</ele>
        <time>2000-01-02T03:29:15.000Z</time>
      </trkpt>
      <trkpt lat="48.24871" lon="7.34042">
        <ele>703</ele>
        <time>2000-01-02T03:29:25.000Z</time>
      </trkpt>
      <trkpt lat="48.24872" lon="7.34053">
        <ele>709.6</ele>
        <time>2000-01-02T03:29:35.000Z</time>
      </trkpt>
      <trkpt lat="48.24873" lon="7.34075">
        <ele>707</ele>
        <time>2000-01-02T03:29:45.000Z</time>
      </trkpt>
      <trkpt lat="48.24875" lon="7.3409">
        <ele>709.8</ele>
        <time>2000-01-02T03:29:55.000Z</time>
      </trkpt>
      <trkpt lat="48.24877" lon="7.341">
        <ele>710.5</ele>
        <time>2000-01-02T03:30:05.000Z</time>
      </trkpt>
      <trkpt lat="48.24882" lon="7.3412">
        <ele>713</ele>
        <time>2000-01-02T03:30:15.000Z</time>
      </trkpt>
      <trkpt lat="48.24882" lon="7.34124">
        <ele>711.7</ele>
        <time>2000-01-02T03:30:25.000Z</time>
      </trkpt>
      <trkpt lat="48.24879" lon="7.34135">
        <ele>711.1</ele>
        <time>2000-01-02T03:30:35.000Z</time>
      </trkpt>
      <trkpt lat="48.24877" lon="7.34145">
        <ele>710.7</ele>
        <time>2000-01-02T03:30:45.000Z</time>
      </trkpt>
      <trkpt lat="48.24881" lon="7.34166">
        <ele>713</ele>
        <time>2000-01-02T03:30:55.000Z</time>
      </trkpt>
      <trkpt lat="48.24882" lon="7.34174">
        <ele>712.7</ele>
        <time>2000-01-02T03:31:05.000Z</time>
      </trkpt>
      <trkpt lat="48.24886" lon="7.34192">
        <ele>713</ele>
        <time>2000-01-02T03:31:15.000Z</time>
      </trkpt>
      <trkpt lat="48.24888" lon="7.34221">
        <ele>715</ele>
        <time>2000-01-02T03:31:25.000Z</time>
      </trkpt>
      <trkpt lat="48.2489" lon="7.34234">
        <ele>714.9</ele>
        <time>2000-01-02T03:31:35.000Z</time>
      </trkpt>
      <trkpt lat="48.24893" lon="7.3424">
        <ele>716.5</ele>
        <time>2000-01-02T03:31:45.000Z</time>
      </trkpt>
      <trkpt lat="48.24896" lon="7.34245">
        <ele>717</ele>
        <time>2000-01-02T03:31:55.000Z</time>
      </trkpt>
      <trkpt lat="48.24897" lon="7.34248">
        <ele>718.8</ele>
        <time>2000-01-02T03:32:05.000Z</time>
      </trkpt>
      <trkpt lat="48.24898" lon="7.3424">
        <ele>718.5</ele>
        <time>2000-01-02T03:32:15.000Z</time>
      </trkpt>
      <trkpt lat="48.24896" lon="7.34232">
        <ele>716.6</ele>
        <time>2000-01-02T03:32:25.000Z</time>
      </trkpt>
      <trkpt lat="48.24894" lon="7.34224">
        <ele>712</ele>
        <time>2000-01-02T03:32:35.000Z</time>
      </trkpt>
      <trkpt lat="48.24893" lon="7.34216">
        <ele>714.5</ele>
        <time>2000-01-02T03:32:45.000Z</time>
      </trkpt>
      <trkpt lat="48.24886" lon="7.34204">
        <ele>712.8</ele>
        <time>2000-01-02T03:32:55.000Z</time>
      </trkpt>
      <trkpt lat="48.24879" lon="7.34186">
        <ele>707</ele>
        <time>2000-01-02T03:33:05.000Z</time>
      </trkpt>
      <trkpt lat="48.24878" lon="7.34173">
        <ele>711.3</ele>
        <time>2000-01-02T03:33:15.000Z</time>
      </trkpt>
      <trkpt lat="48.24879" lon="7.34158">
        <ele>707</ele>
        <time>2000-01-02T03:33:25.000Z</time>
      </trkpt>
      <trkpt lat="48.24881" lon="7.34141">
        <ele>711.8</ele>
        <time>2000-01-02T03:33:35.000Z</time>
      </trkpt>
      <trkpt lat="48.24879" lon="7.34111">
        <ele>707</ele>
        <time>2000-01-02T03:33:45.000Z</time>
      </trkpt>
      <trkpt lat="48.2488" lon="7.34106">
        <ele>711.4</ele>
        <time>2000-01-02T03:33:55.000Z</time>
      </trkpt>
      <trkpt lat="48.24881" lon="7.34084">
        <ele>707</ele>
        <time>2000-01-02T03:34:05.000Z</time>
      </trkpt>
      <trkpt lat="48.24881" lon="7.34058">
        <ele>711.9</ele>
        <time>2000-01-02T03:34:15.000Z</time>
      </trkpt>
      <trkpt lat="48.24878" lon="7.34041">
        <ele>708</ele>
        <time>2000-01-02T03:34:25.000Z</time>
      </trkpt>
      <trkpt lat="48.24878" lon="7.34027">
        <ele>711.4</ele>
        <time>2000-01-02T03:34:35.000Z</time>
      </trkpt>
      <trkpt lat="48.24878" lon="7.34009">
        <ele>709</ele>
        <time>2000-01-02T03:34:45.000Z</time>
      </trkpt>
      <trkpt lat="48.24878" lon="7.34006">
        <ele>711.7</ele>
        <time>2000-01-02T03:34:55.000Z</time>
      </trkpt>
      <trkpt lat="48.24878" lon="7.34005">
        <ele>711.8</ele>
        <time>2000-01-02T03:35:05.000Z</time>
      </trkpt>
      <trkpt lat="48.24882" lon="7.34003">
        <ele>713</ele>
        <time>2000-01-02T03:35:15.000Z</time>
      </trkpt>
      <trkpt lat="48.24884" lon="7.34003">
        <ele>713.6</ele>
        <time>2000-01-02T03:35:25.000Z</time>
      </trkpt>
      <trkpt lat="48.24886" lon="7.34006">
        <ele>714.2</ele>
        <time>2000-01-02T03:35:35.000Z</time>
      </trkpt>
      <trkpt lat="48.2489" lon="7.34013">
        <ele>719</ele>
        <time>2000-01-02T03:35:45.000Z</time>
      </trkpt>
      <trkpt lat="48.24897" lon="7.34028">
        <ele>715.5</ele>
        <time>2000-01-02T03:35:55.000Z</time>
      </trkpt>
      <trkpt lat="48.24902" lon="7.34039">
        <ele>724</ele>
        <time>2000-01-02T03:36:05.000Z</time>
      </trkpt>
      <trkpt lat="48.24906" lon="7.3405">
        <ele>716.8</ele>
        <time>2000-01-02T03:36:15.000Z</time>
      </trkpt>
      <trkpt lat="48.24907" lon="7.34055">
        <ele>717.5</ele>
        <time>2000-01-02T03:36:25.000Z</time>
      </trkpt>
      <trkpt lat="48.24908" lon="7.34062">
        <ele>718.9</ele>
        <time>2000-01-02T03:36:35.000Z</time>
      </trkpt>
      <trkpt lat="48.24911" lon="7.34069">
        <ele>726</ele>
        <time>2000-01-02T03:36:45.000Z</time>
      </trkpt>
      <trkpt lat="48.24914" lon="7.34077">
        <ele>725.3</ele>
        <time>2000-01-02T03:36:55.000Z</time>
      </trkpt>
      <trkpt lat="48.24916" lon="7.34088">
        <ele>726.6</ele>
        <time>2000-01-02T03:37:05.000Z</time>
      </trkpt>
      <trkpt lat="48.24917" lon="7.34093">
        <ele>727.2</ele>
        <time>2000-01-02T03:37:15.000Z</time>
      </trkpt>
      <trkpt lat="48.24917" lon="7.341">
        <ele>727</ele>
        <time>2000-01-02T03:37:25.000Z</time>
      </trkpt>
      <trkpt lat="48.2492" lon="7.3412">
        <ele>724.5</ele>
        <time>2000-01-02T03:37:35.000Z</time>
      </trkpt>
      <trkpt lat="48.2492" lon="7.34125">
        <ele>724.5</ele>
        <time>2000-01-02T03:37:45.000Z</time>
      </trkpt>
      <trkpt lat="48.24923" lon="7.34156">
        <ele>730</ele>
        <time>2000-01-02T03:37:55.000Z</time>
      </trkpt>
      <trkpt lat="48.24923" lon="7.34159">
        <ele>727.8</ele>
        <time>2000-01-02T03:38:05.000Z</time>
      </trkpt>
      <trkpt lat="48.24925" lon="7.34183">
        <ele>727</ele>
        <time>2000-01-02T03:38:15.000Z</time>
      </trkpt>
      <trkpt lat="48.24923" lon="7.34202">
        <ele>729</ele>
        <time>2000-01-02T03:38:25.000Z</time>
      </trkpt>
      <trkpt lat="48.24922" lon="7.34208">
        <ele>725.8</ele>
        <time>2000-01-02T03:38:35.000Z</time>
      </trkpt>
      <trkpt lat="48.2492" lon="7.34217">
        <ele>726.1</ele>
        <time>2000-01-02T03:38:45.000Z</time>
      </trkpt>
      <trkpt lat="48.24919" lon="7.34223">
        <ele>726.5</ele>
        <time>2000-01-02T03:38:55.000Z</time>
      </trkpt>
      <trkpt lat="48.24915" lon="7.34231">
        <ele>728</ele>
        <time>2000-01-02T03:39:05.000Z</time>
      </trkpt>
      <trkpt lat="48.24915" lon="7.34237">
        <ele>723</ele>
        <time>2000-01-02T03:39:15.000Z</time>
      </trkpt>
      <trkpt lat="48.24914" lon="7.34243">
        <ele>725.6</ele>
        <time>2000-01-02T03:39:25.000Z</time>
      </trkpt>
      <trkpt lat="48.24913" lon="7.34254">
        <ele>726.1</ele>
        <time>2000-01-02T03:39:35.000Z</time>
      </trkpt>
      <trkpt lat="48.24913" lon="7.34268">
        <ele>727</ele>
        <time>2000-01-02T03:39:45.000Z</time>
      </trkpt>
      <trkpt lat="48.24919" lon="7.34272">
        <ele>726.3</ele>
        <time>2000-01-02T03:39:55.000Z</time>
      </trkpt>
      <trkpt lat="48.2492" lon="7.3427">
        <ele>726.5</ele>
        <time>2000-01-02T03:40:05.000Z</time>
      </trkpt>
      <trkpt lat="48.24917" lon="7.34263">
        <ele>727.7</ele>
        <time>2000-01-02T03:40:15.000Z</time>
      </trkpt>
      <trkpt lat="48.24918" lon="7.34257">
        <ele>728.9</ele>
        <time>2000-01-02T03:40:25.000Z</time>
      </trkpt>
      <trkpt lat="48.24918" lon="7.34256">
        <ele>727</ele>
        <time>2000-01-02T03:40:35.000Z</time>
      </trkpt>
      <trkpt lat="48.24919" lon="7.34257">
        <ele>728.8</ele>
        <time>2000-01-02T03:40:45.000Z</time>
      </trkpt>
      <trkpt lat="48.2492" lon="7.34258">
        <ele>728.5</ele>
        <time>2000-01-02T03:40:55.000Z</time>
      </trkpt>
      <trkpt lat="48.24921" lon="7.34253">
        <ele>729.3</ele>
        <time>2000-01-02T03:41:05.000Z</time>
      </trkpt>
      <trkpt lat="48.24921" lon="7.34251">
        <ele>729.6</ele>
        <time>2000-01-02T03:41:15.000Z</time>
      </trkpt>
      <trkpt lat="48.24921" lon="7.34249">
        <ele>729.7</ele>
        <time>2000-01-02T03:41:25.000Z</time>
      </trkpt>
      <trkpt lat="48.24921" lon="7.34249">
        <ele>729.7</ele>
        <time>2000-01-02T03:41:35.000Z</time>
      </trkpt>
      <trkpt lat="48.24924" lon="7.34252">
        <ele>728.7</ele>
        <time>2000-01-02T03:41:45.000Z</time>
      </trkpt>
      <trkpt lat="48.24923" lon="7.3425">
        <ele>729</ele>
        <time>2000-01-02T03:41:55.000Z</time>
      </trkpt>
      <trkpt lat="48.24932" lon="7.34249">
        <ele>728</ele>
        <time>2000-01-02T03:42:05.000Z</time>
      </trkpt>
      <trkpt lat="48.24933" lon="7.3425">
        <ele>726.8</ele>
        <time>2000-01-02T03:42:15.000Z</time>
      </trkpt>
      <trkpt lat="48.2494" lon="7.34261">
        <ele>725.2</ele>
        <time>2000-01-02T03:42:25.000Z</time>
      </trkpt>
      <trkpt lat="48.24942" lon="7.34267">
        <ele>724.6</ele>
        <time>2000-01-02T03:42:35.000Z</time>
      </trkpt>
      <trkpt lat="48.24944" lon="7.34299">
        <ele>727</ele>
        <time>2000-01-02T03:42:45.000Z</time>
      </trkpt>
      <trkpt lat="48.24951" lon="7.3431">
        <ele>722.9</ele>
        <time>2000-01-02T03:42:55.000Z</time>
      </trkpt>
      <trkpt lat="48.24952" lon="7.34316">
        <ele>722.8</ele>
        <time>2000-01-02T03:43:05.000Z</time>
      </trkpt>
      <trkpt lat="48.24948" lon="7.34324">
        <ele>727</ele>
        <time>2000-01-02T03:43:15.000Z</time>
      </trkpt>
      <trkpt lat="48.24947" lon="7.34326">
        <ele>723.3</ele>
        <time>2000-01-02T03:43:25.000Z</time>
      </trkpt>
      <trkpt lat="48.2495" lon="7.34337">
        <ele>720.9</ele>
        <time>2000-01-02T03:43:35.000Z</time>
      </trkpt>
      <trkpt lat="48.24955" lon="7.3434">
        <ele>720.3</ele>
        <time>2000-01-02T03:43:45.000Z</time>
      </trkpt>
      <trkpt lat="48.24956" lon="7.3435">
        <ele>724</ele>
        <time>2000-01-02T03:43:55.000Z</time>
      </trkpt>
      <trkpt lat="48.24956" lon="7.34361">
        <ele>719.8</ele>
        <time>2000-01-02T03:44:05.000Z</time>
      </trkpt>
      <trkpt lat="48.24959" lon="7.34366">
        <ele>719.5</ele>
        <time>2000-01-02T03:44:15.000Z</time>
      </trkpt>
      <trkpt lat="48.24968" lon="7.34384">
        <ele>721</ele>
        <time>2000-01-02T03:44:25.000Z</time>
      </trkpt>
      <trkpt lat="48.24969" lon="7.34418">
        <ele>721</ele>
        <time>2000-01-02T03:44:35.000Z</time>
      </trkpt>
      <trkpt lat="48.24969" lon="7.34425">
        <ele>714.4</ele>
        <time>2000-01-02T03:44:45.000Z</time>
      </trkpt>
      <trkpt lat="48.24966" lon="7.34432">
        <ele>714.4</ele>
        <time>2000-01-02T03:44:55.000Z</time>
      </trkpt>
      <trkpt lat="48.24965" lon="7.34433">
        <ele>714.4</ele>
        <time>2000-01-02T03:45:05.000Z</time>
      </trkpt>
      <trkpt lat="48.24962" lon="7.34443">
        <ele>720</ele>
        <time>2000-01-02T03:45:15.000Z</time>
      </trkpt>
      <trkpt lat="48.24964" lon="7.34456">
        <ele>713.7</ele>
        <time>2000-01-02T03:45:25.000Z</time>
      </trkpt>
      <trkpt lat="48.24964" lon="7.34465">
        <ele>713.4</ele>
        <time>2000-01-02T03:45:35.000Z</time>
      </trkpt>
      <trkpt lat="48.24967" lon="7.34466">
        <ele>719</ele>
        <time>2000-01-02T03:45:45.000Z</time>
      </trkpt>
      <trkpt lat="48.2497" lon="7.34471">
        <ele>713.2</ele>
        <time>2000-01-02T03:45:55.000Z</time>
      </trkpt>
      <trkpt lat="48.24969" lon="7.34476">
        <ele>713</ele>
        <time>2000-01-02T03:46:05.000Z</time>
      </trkpt>
      <trkpt lat="48.24967" lon="7.34481">
        <ele>712.9</ele>
        <time>2000-01-02T03:46:15.000Z</time>
      </trkpt>
      <trkpt lat="48.24964" lon="7.34492">
        <ele>716</ele>
        <time>2000-01-02T03:46:25.000Z</time>
      </trkpt>
      <trkpt lat="48.24969" lon="7.34503">
        <ele>707.5</ele>
        <time>2000-01-02T03:46:35.000Z</time>
      </trkpt>
      <trkpt lat="48.24971" lon="7.34506">
        <ele>707.5</ele>
        <time>2000-01-02T03:46:45.000Z</time>
      </trkpt>
      <trkpt lat="48.24975" lon="7.3452">
        <ele>713</ele>
        <time>2000-01-02T03:46:55.000Z</time>
      </trkpt>
      <trkpt lat="48.24977" lon="7.34549">
        <ele>711</ele>
        <time>2000-01-02T03:47:05.000Z</time>
      </trkpt>
      <trkpt lat="48.24976" lon="7.34567">
        <ele>704.2</ele>
        <time>2000-01-02T03:47:15.000Z</time>
      </trkpt>
      <trkpt lat="48.24974" lon="7.34579">
        <ele>708</ele>
        <time>2000-01-02T03:47:25.000Z</time>
      </trkpt>
      <trkpt lat="48.24974" lon="7.34586">
        <ele>696.1</ele>
        <time>2000-01-02T03:47:35.000Z</time>
      </trkpt>
      <trkpt lat="48.24972" lon="7.34602">
        <ele>694.6</ele>
        <time>2000-01-02T03:47:45.000Z</time>
      </trkpt>
      <trkpt lat="48.2497" lon="7.34609">
        <ele>705</ele>
        <time>2000-01-02T03:47:55.000Z</time>
      </trkpt>
      <trkpt lat="48.24966" lon="7.34622">
        <ele>692.1</ele>
        <time>2000-01-02T03:48:05.000Z</time>
      </trkpt>
      <trkpt lat="48.24964" lon="7.34634">
        <ele>690.8</ele>
        <time>2000-01-02T03:48:15.000Z</time>
      </trkpt>
      <trkpt lat="48.24965" lon="7.34637">
        <ele>699</ele>
        <time>2000-01-02T03:48:25.000Z</time>
      </trkpt>
      <trkpt lat="48.24966" lon="7.34639">
        <ele>690.4</ele>
        <time>2000-01-02T03:48:35.000Z</time>
      </trkpt>
      <trkpt lat="48.24957" lon="7.34643">
        <ele>689.7</ele>
        <time>2000-01-02T03:48:45.000Z</time>
      </trkpt>
      <trkpt lat="48.24948" lon="7.34639">
        <ele>698</ele>
        <time>2000-01-02T03:48:55.000Z</time>
      </trkpt>
      <trkpt lat="48.24943" lon="7.34634">
        <ele>689.9</ele>
        <time>2000-01-02T03:49:05.000Z</time>
      </trkpt>
      <trkpt lat="48.24942" lon="7.34636">
        <ele>689.6</ele>
        <time>2000-01-02T03:49:15.000Z</time>
      </trkpt>
      <trkpt lat="48.24948" lon="7.34643">
        <ele>689.2</ele>
        <time>2000-01-02T03:49:25.000Z</time>
      </trkpt>
      <trkpt lat="48.24952" lon="7.34649">
        <ele>698</ele>
        <time>2000-01-02T03:49:35.000Z</time>
      </trkpt>
      <trkpt lat="48.24957" lon="7.34656">
        <ele>688.7</ele>
        <time>2000-01-02T03:49:45.000Z</time>
      </trkpt>
      <trkpt lat="48.24962" lon="7.34657">
        <ele>688.9</ele>
        <time>2000-01-02T03:49:55.000Z</time>
      </trkpt>
      <trkpt lat="48.24977" lon="7.34649">
        <ele>695</ele>
        <time>2000-01-02T03:50:05.000Z</time>
      </trkpt>
      <trkpt lat="48.2499" lon="7.34632">
        <ele>691.5</ele>
        <time>2000-01-02T03:50:15.000Z</time>
      </trkpt>
      <trkpt lat="48.24998" lon="7.34619">
        <ele>692</ele>
        <time>2000-01-02T03:50:25.000Z</time>
      </trkpt>
      <trkpt lat="48.2501" lon="7.34601">
        <ele>688.8</ele>
        <time>2000-01-02T03:50:35.000Z</time>
      </trkpt>
      <trkpt lat="48.25017" lon="7.34589">
        <ele>688</ele>
        <time>2000-01-02T03:50:45.000Z</time>
      </trkpt>
      <trkpt lat="48.25025" lon="7.34575">
        <ele>691.7</ele>
        <time>2000-01-02T03:50:55.000Z</time>
      </trkpt>
      <trkpt lat="48.25029" lon="7.34567">
        <ele>684</ele>
        <time>2000-01-02T03:51:05.000Z</time>
      </trkpt>
      <trkpt lat="48.25035" lon="7.34559">
        <ele>688.5</ele>
        <time>2000-01-02T03:51:15.000Z</time>
      </trkpt>
      <trkpt lat="48.25042" lon="7.34544">
        <ele>681</ele>
        <time>2000-01-02T03:51:25.000Z</time>
      </trkpt>
      <trkpt lat="48.25044" lon="7.34525">
        <ele>687.1</ele>
        <time>2000-01-02T03:51:35.000Z</time>
      </trkpt>
      <trkpt lat="48.25046" lon="7.34514">
        <ele>679</ele>
        <time>2000-01-02T03:51:45.000Z</time>
      </trkpt>
      <trkpt lat="48.25049" lon="7.34495">
        <ele>688.4</ele>
        <time>2000-01-02T03:51:55.000Z</time>
      </trkpt>
      <trkpt lat="48.25051" lon="7.34482">
        <ele>677</ele>
        <time>2000-01-02T03:52:05.000Z</time>
      </trkpt>
      <trkpt lat="48.25055" lon="7.34455">
        <ele>675</ele>
        <time>2000-01-02T03:52:15.000Z</time>
      </trkpt>
      <trkpt lat="48.25056" lon="7.34446">
        <ele>688.3</ele>
        <time>2000-01-02T03:52:25.000Z</time>
      </trkpt>
      <trkpt lat="48.25058" lon="7.34435">
        <ele>687.2</ele>
        <time>2000-01-02T03:52:35.000Z</time>
      </trkpt>
      <trkpt lat="48.25065" lon="7.34415">
        <ele>670</ele>
        <time>2000-01-02T03:52:45.000Z</time>
      </trkpt>
      <trkpt lat="48.25066" lon="7.344">
        <ele>685.7</ele>
        <time>2000-01-02T03:52:55.000Z</time>
      </trkpt>
      <trkpt lat="48.25068" lon="7.34387">
        <ele>669</ele>
        <time>2000-01-02T03:53:05.000Z</time>
      </trkpt>
      <trkpt lat="48.25071" lon="7.34376">
        <ele>686.9</ele>
        <time>2000-01-02T03:53:15.000Z</time>
      </trkpt>
      <trkpt lat="48.25072" lon="7.34365">
        <ele>686.1</ele>
        <time>2000-01-02T03:53:25.000Z</time>
      </trkpt>
      <trkpt lat="48.25072" lon="7.3436">
        <ele>662</ele>
        <time>2000-01-02T03:53:35.000Z</time>
      </trkpt>
      <trkpt lat="48.25075" lon="7.34339">
        <ele>678.6</ele>
        <time>2000-01-02T03:53:45.000Z</time>
      </trkpt>
      <trkpt lat="48.25076" lon="7.34328">
        <ele>660</ele>
        <time>2000-01-02T03:53:55.000Z</time>
      </trkpt>
      <trkpt lat="48.25079" lon="7.34305">
        <ele>683.1</ele>
        <time>2000-01-02T03:54:05.000Z</time>
      </trkpt>
      <trkpt lat="48.25083" lon="7.34293">
        <ele>649</ele>
        <time>2000-01-02T03:54:15.000Z</time>
      </trkpt>
      <trkpt lat="48.25084" lon="7.3428">
        <ele>652.6</ele>
        <time>2000-01-02T03:54:25.000Z</time>
      </trkpt>
      <trkpt lat="48.25086" lon="7.3426">
        <ele>646</ele>
        <time>2000-01-02T03:54:35.000Z</time>
      </trkpt>
      <trkpt lat="48.25089" lon="7.34251">
        <ele>661</ele>
        <time>2000-01-02T03:54:45.000Z</time>
      </trkpt>
      <trkpt lat="48.25092" lon="7.34241">
        <ele>654.9</ele>
        <time>2000-01-02T03:54:55.000Z</time>
      </trkpt>
      <trkpt lat="48.25094" lon="7.34228">
        <ele>638</ele>
        <time>2000-01-02T03:55:05.000Z</time>
      </trkpt>
      <trkpt lat="48.25099" lon="7.34219">
        <ele>646.1</ele>
        <time>2000-01-02T03:55:15.000Z</time>
      </trkpt>
      <trkpt lat="48.25101" lon="7.34198">
        <ele>638</ele>
        <time>2000-01-02T03:55:25.000Z</time>
      </trkpt>
      <trkpt lat="48.25101" lon="7.34182">
        <ele>647.6</ele>
        <time>2000-01-02T03:55:35.000Z</time>
      </trkpt>
      <trkpt lat="48.25096" lon="7.34165">
        <ele>638</ele>
        <time>2000-01-02T03:55:45.000Z</time>
      </trkpt>
      <trkpt lat="48.251" lon="7.34147">
        <ele>646</ele>
        <time>2000-01-02T03:55:55.000Z</time>
      </trkpt>
      <trkpt lat="48.251" lon="7.34145">
        <ele>645.5</ele>
        <time>2000-01-02T03:56:05.000Z</time>
      </trkpt>
      <trkpt lat="48.25103" lon="7.34132">
        <ele>632</ele>
        <time>2000-01-02T03:56:15.000Z</time>
      </trkpt>
      <trkpt lat="48.25102" lon="7.34108">
        <ele>644.1</ele>
        <time>2000-01-02T03:56:25.000Z</time>
      </trkpt>
      <trkpt lat="48.25105" lon="7.34098">
        <ele>631</ele>
        <time>2000-01-02T03:56:35.000Z</time>
      </trkpt>
      <trkpt lat="48.25108" lon="7.34091">
        <ele>644</ele>
        <time>2000-01-02T03:56:45.000Z</time>
      </trkpt>
      <trkpt lat="48.25109" lon="7.34089">
        <ele>643.7</ele>
        <time>2000-01-02T03:56:55.000Z</time>
      </trkpt>
      <trkpt lat="48.2511" lon="7.34088">
        <ele>643.2</ele>
        <time>2000-01-02T03:57:05.000Z</time>
      </trkpt>
      <trkpt lat="48.2511" lon="7.34089">
        <ele>643.1</ele>
        <time>2000-01-02T03:57:15.000Z</time>
      </trkpt>
      <trkpt lat="48.25118" lon="7.34098">
        <ele>622</ele>
        <time>2000-01-02T03:57:25.000Z</time>
      </trkpt>
      <trkpt lat="48.25121" lon="7.34101">
        <ele>637.4</ele>
        <time>2000-01-02T03:57:35.000Z</time>
      </trkpt>
      <trkpt lat="48.2513" lon="7.34115">
        <ele>634</ele>
        <time>2000-01-02T03:57:45.000Z</time>
      </trkpt>
      <trkpt lat="48.25134" lon="7.34125">
        <ele>609</ele>
        <time>2000-01-02T03:57:55.000Z</time>
      </trkpt>
      <trkpt lat="48.25136" lon="7.34134">
        <ele>632</ele>
        <time>2000-01-02T03:58:05.000Z</time>
      </trkpt>
      <trkpt lat="48.25137" lon="7.3414">
        <ele>631.3</ele>
        <time>2000-01-02T03:58:15.000Z</time>
      </trkpt>
      <trkpt lat="48.25137" lon="7.34149">
        <ele>630.7</ele>
        <time>2000-01-02T03:58:25.000Z</time>
      </trkpt>
      <trkpt lat="48.25138" lon="7.34158">
        <ele>608</ele>
        <time>2000-01-02T03:58:35.000Z</time>
      </trkpt>
      <trkpt lat="48.25139" lon="7.34167">
        <ele>629.6</ele>
        <time>2000-01-02T03:58:45.000Z</time>
      </trkpt>
      <trkpt lat="48.25143" lon="7.34178">
        <ele>628.3</ele>
        <time>2000-01-02T03:58:55.000Z</time>
      </trkpt>
      <trkpt lat="48.25148" lon="7.34196">
        <ele>594</ele>
        <time>2000-01-02T03:59:05.000Z</time>
      </trkpt>
      <trkpt lat="48.25156" lon="7.34212">
        <ele>628.7</ele>
        <time>2000-01-02T03:59:15.000Z</time>
      </trkpt>
      <trkpt lat="48.25159" lon="7.34219">
        <ele>586</ele>
        <time>2000-01-02T03:59:25.000Z</time>
      </trkpt>
      <trkpt lat="48.25163" lon="7.34233">
        <ele>623.7</ele>
        <time>2000-01-02T03:59:35.000Z</time>
      </trkpt>
      <trkpt lat="48.25168" lon="7.34253">
        <ele>579</ele>
        <time>2000-01-02T03:59:45.000Z</time>
      </trkpt>
      <trkpt lat="48.25173" lon="7.34265">
        <ele>602.1</ele>
        <time>2000-01-02T03:59:55.000Z</time>
      </trkpt>
      <trkpt lat="48.25174" lon="7.34273">
        <ele>599.9</ele>
        <time>2000-01-02T04:00:05.000Z</time>
      </trkpt>
      <trkpt lat="48.25179" lon="7.34288">
        <ele>571</ele>
        <time>2000-01-02T04:00:15.000Z</time>
      </trkpt>
      <trkpt lat="48.25183" lon="7.343">
        <ele>597.8</ele>
        <time>2000-01-02T04:00:25.000Z</time>
      </trkpt>
      <trkpt lat="48.25184" lon="7.3431">
        <ele>599.4</ele>
        <time>2000-01-02T04:00:35.000Z</time>
      </trkpt>
      <trkpt lat="48.25187" lon="7.34327">
        <ele>568</ele>
        <time>2000-01-02T04:00:45.000Z</time>
      </trkpt>
      <trkpt lat="48.25189" lon="7.34337">
        <ele>603.4</ele>
        <time>2000-01-02T04:00:55.000Z</time>
      </trkpt>
      <trkpt lat="48.25194" lon="7.34354">
        <ele>565</ele>
        <time>2000-01-02T04:01:05.000Z</time>
      </trkpt>
      <trkpt lat="48.25199" lon="7.34373">
        <ele>597.4</ele>
        <time>2000-01-02T04:01:15.000Z</time>
      </trkpt>
      <trkpt lat="48.252" lon="7.34384">
        <ele>562</ele>
        <time>2000-01-02T04:01:25.000Z</time>
      </trkpt>
      <trkpt lat="48.25204" lon="7.34394">
        <ele>596.7</ele>
        <time>2000-01-02T04:01:35.000Z</time>
      </trkpt>
      <trkpt lat="48.25208" lon="7.34413">
        <ele>560</ele>
        <time>2000-01-02T04:01:45.000Z</time>
      </trkpt>
      <trkpt lat="48.2521" lon="7.34433">
        <ele>595.8</ele>
        <time>2000-01-02T04:01:55.000Z</time>
      </trkpt>
      <trkpt lat="48.25211" lon="7.34441">
        <ele>559</ele>
        <time>2000-01-02T04:02:05.000Z</time>
      </trkpt>
      <trkpt lat="48.25214" lon="7.34464">
        <ele>594.4</ele>
        <time>2000-01-02T04:02:15.000Z</time>
      </trkpt>
      <trkpt lat="48.25214" lon="7.34489">
        <ele>559</ele>
        <time>2000-01-02T04:02:25.000Z</time>
      </trkpt>
      <trkpt lat="48.25216" lon="7.34503">
        <ele>591.5</ele>
        <time>2000-01-02T04:02:35.000Z</time>
      </trkpt>
      <trkpt lat="48.25214" lon="7.34516">
        <ele>560</ele>
        <time>2000-01-02T04:02:45.000Z</time>
      </trkpt>
      <trkpt lat="48.25213" lon="7.34534">
        <ele>593.5</ele>
        <time>2000-01-02T04:02:55.000Z</time>
      </trkpt>
      <trkpt lat="48.25212" lon="7.34547">
        <ele>560</ele>
        <time>2000-01-02T04:03:05.000Z</time>
      </trkpt>
      <trkpt lat="48.25212" lon="7.34563">
        <ele>593.4</ele>
        <time>2000-01-02T04:03:15.000Z</time>
      </trkpt>
      <trkpt lat="48.25212" lon="7.34585">
        <ele>558</ele>
        <time>2000-01-02T04:03:25.000Z</time>
      </trkpt>
      <trkpt lat="48.25216" lon="7.34608">
        <ele>586.7</ele>
        <time>2000-01-02T04:03:35.000Z</time>
      </trkpt>
      <trkpt lat="48.25218" lon="7.34626">
        <ele>555</ele>
        <time>2000-01-02T04:03:45.000Z</time>
      </trkpt>
      <trkpt lat="48.25217" lon="7.34639">
        <ele>584.2</ele>
        <time>2000-01-02T04:03:55.000Z</time>
      </trkpt>
      <trkpt lat="48.25215" lon="7.34656">
        <ele>553</ele>
        <time>2000-01-02T04:04:05.000Z</time>
      </trkpt>
      <trkpt lat="48.25214" lon="7.34659">
        <ele>583.5</ele>
        <time>2000-01-02T04:04:15.000Z</time>
      </trkpt>
      <trkpt lat="48.25208" lon="7.3468">
        <ele>575</ele>
        <time>2000-01-02T04:04:25.000Z</time>
      </trkpt>
      <trkpt lat="48.25203" lon="7.34692">
        <ele>554</ele>
        <time>2000-01-02T04:04:35.000Z</time>
      </trkpt>
      <trkpt lat="48.25195" lon="7.34716">
        <ele>575.1</ele>
        <time>2000-01-02T04:04:45.000Z</time>
      </trkpt>
      <trkpt lat="48.2519" lon="7.34726">
        <ele>555</ele>
        <time>2000-01-02T04:04:55.000Z</time>
      </trkpt>
      <trkpt lat="48.25185" lon="7.34733">
        <ele>577.8</ele>
        <time>2000-01-02T04:05:05.000Z</time>
      </trkpt>
      <trkpt lat="48.25179" lon="7.34744">
        <ele>581.3</ele>
        <time>2000-01-02T04:05:15.000Z</time>
      </trkpt>
      <trkpt lat="48.25178" lon="7.34748">
        <ele>556</ele>
        <time>2000-01-02T04:05:25.000Z</time>
      </trkpt>
      <trkpt lat="48.25172" lon="7.34764">
        <ele>571.4</ele>
        <time>2000-01-02T04:05:35.000Z</time>
      </trkpt>
      <trkpt lat="48.25169" lon="7.34781">
        <ele>555</ele>
        <time>2000-01-02T04:05:45.000Z</time>
      </trkpt>
      <trkpt lat="48.25164" lon="7.34797">
        <ele>587</ele>
        <time>2000-01-02T04:05:55.000Z</time>
      </trkpt>
      <trkpt lat="48.25162" lon="7.34801">
        <ele>585.8</ele>
        <time>2000-01-02T04:06:05.000Z</time>
      </trkpt>
      <trkpt lat="48.25158" lon="7.34812">
        <ele>554</ele>
        <time>2000-01-02T04:06:15.000Z</time>
      </trkpt>
      <trkpt lat="48.25152" lon="7.34823">
        <ele>578.9</ele>
        <time>2000-01-02T04:06:25.000Z</time>
      </trkpt>
      <trkpt lat="48.25145" lon="7.34836">
        <ele>553</ele>
        <time>2000-01-02T04:06:35.000Z</time>
      </trkpt>
      <trkpt lat="48.25138" lon="7.34848">
        <ele>567.3</ele>
        <time>2000-01-02T04:06:45.000Z</time>
      </trkpt>
      <trkpt lat="48.25135" lon="7.34863">
        <ele>550</ele>
        <time>2000-01-02T04:06:55.000Z</time>
      </trkpt>
      <trkpt lat="48.25127" lon="7.34875">
        <ele>566.3</ele>
        <time>2000-01-02T04:07:05.000Z</time>
      </trkpt>
      <trkpt lat="48.25118" lon="7.34881">
        <ele>552</ele>
        <time>2000-01-02T04:07:15.000Z</time>
      </trkpt>
      <trkpt lat="48.25109" lon="7.34885">
        <ele>568.4</ele>
        <time>2000-01-02T04:07:25.000Z</time>
      </trkpt>
      <trkpt lat="48.25107" lon="7.34889">
        <ele>568.1</ele>
        <time>2000-01-02T04:07:35.000Z</time>
      </trkpt>
      <trkpt lat="48.251" lon="7.34898">
        <ele>551</ele>
        <time>2000-01-02T04:07:45.000Z</time>
      </trkpt>
      <trkpt lat="48.25093" lon="7.34907">
        <ele>568.2</ele>
        <time>2000-01-02T04:07:55.000Z</time>
      </trkpt>
      <trkpt lat="48.25086" lon="7.34917">
        <ele>550</ele>
        <time>2000-01-02T04:08:05.000Z</time>
      </trkpt>
      <trkpt lat="48.25079" lon="7.34929">
        <ele>565.7</ele>
        <time>2000-01-02T04:08:15.000Z</time>
      </trkpt>
      <trkpt lat="48.25071" lon="7.34941">
        <ele>544</ele>
        <time>2000-01-02T04:08:25.000Z</time>
      </trkpt>
      <trkpt lat="48.2506" lon="7.3496">
        <ele>558.9</ele>
        <time>2000-01-02T04:08:35.000Z</time>
      </trkpt>
      <trkpt lat="48.25059" lon="7.34962">
        <ele>541</ele>
        <time>2000-01-02T04:08:45.000Z</time>
      </trkpt>
      <trkpt lat="48.25055" lon="7.34971">
        <ele>556.6</ele>
        <time>2000-01-02T04:08:55.000Z</time>
      </trkpt>
      <trkpt lat="48.25055" lon="7.3498">
        <ele>554.3</ele>
        <time>2000-01-02T04:09:05.000Z</time>
      </trkpt>
      <trkpt lat="48.25049" lon="7.35001">
        <ele>532</ele>
        <time>2000-01-02T04:09:15.000Z</time>
      </trkpt>
      <trkpt lat="48.25045" lon="7.35007">
        <ele>532.5</ele>
        <time>2000-01-02T04:09:25.000Z</time>
      </trkpt>
      <trkpt lat="48.25038" lon="7.35014">
        <ele>532.9</ele>
        <time>2000-01-02T04:09:35.000Z</time>
      </trkpt>
      <trkpt lat="48.25032" lon="7.35017">
        <ele>532</ele>
        <time>2000-01-02T04:09:45.000Z</time>
      </trkpt>
      <trkpt lat="48.25019" lon="7.35028">
        <ele>533.6</ele>
        <time>2000-01-02T04:09:55.000Z</time>
      </trkpt>
      <trkpt lat="48.25009" lon="7.35033">
        <ele>531</ele>
        <time>2000-01-02T04:10:05.000Z</time>
      </trkpt>
      <trkpt lat="48.24991" lon="7.35045">
        <ele>529</ele>
        <time>2000-01-02T04:10:15.000Z</time>
      </trkpt>
      <trkpt lat="48.24984" lon="7.35052">
        <ele>536</ele>
        <time>2000-01-02T04:10:25.000Z</time>
      </trkpt>
      <trkpt lat="48.24984" lon="7.35055">
        <ele>535.4</ele>
        <time>2000-01-02T04:10:35.000Z</time>
      </trkpt>
      <trkpt lat="48.24973" lon="7.35063">
        <ele>530</ele>
        <time>2000-01-02T04:10:45.000Z</time>
      </trkpt>
      <trkpt lat="48.24963" lon="7.35058">
        <ele>535.9</ele>
        <time>2000-01-02T04:10:55.000Z</time>
      </trkpt>
      <trkpt lat="48.24954" lon="7.35057">
        <ele>529</ele>
        <time>2000-01-02T04:11:05.000Z</time>
      </trkpt>
      <trkpt lat="48.24947" lon="7.35059">
        <ele>535.7</ele>
        <time>2000-01-02T04:11:15.000Z</time>
      </trkpt>
      <trkpt lat="48.24937" lon="7.35063">
        <ele>534.4</ele>
        <time>2000-01-02T04:11:25.000Z</time>
      </trkpt>
      <trkpt lat="48.24917" lon="7.35077">
        <ele>528</ele>
        <time>2000-01-02T04:11:35.000Z</time>
      </trkpt>
      <trkpt lat="48.24905" lon="7.35085">
        <ele>521.4</ele>
        <time>2000-01-02T04:11:45.000Z</time>
      </trkpt>
      <trkpt lat="48.24897" lon="7.35093">
        <ele>526</ele>
        <time>2000-01-02T04:11:55.000Z</time>
      </trkpt>
      <trkpt lat="48.24889" lon="7.35099">
        <ele>519.1</ele>
        <time>2000-01-02T04:12:05.000Z</time>
      </trkpt>
      <trkpt lat="48.24882" lon="7.35101">
        <ele>518.9</ele>
        <time>2000-01-02T04:12:15.000Z</time>
      </trkpt>
      <trkpt lat="48.2487" lon="7.35096">
        <ele>524</ele>
        <time>2000-01-02T04:12:25.000Z</time>
      </trkpt>
      <trkpt lat="48.24859" lon="7.35093">
        <ele>520.7</ele>
        <time>2000-01-02T04:12:35.000Z</time>
      </trkpt>
      <trkpt lat="48.24853" lon="7.35096">
        <ele>521.1</ele>
        <time>2000-01-02T04:12:45.000Z</time>
      </trkpt>
      <trkpt lat="48.24847" lon="7.35104">
        <ele>522</ele>
        <time>2000-01-02T04:12:55.000Z</time>
      </trkpt>
      <trkpt lat="48.2484" lon="7.35118">
        <ele>518.8</ele>
        <time>2000-01-02T04:13:05.000Z</time>
      </trkpt>
      <trkpt lat="48.24834" lon="7.35138">
        <ele>518</ele>
        <time>2000-01-02T04:13:15.000Z</time>
      </trkpt>
      <trkpt lat="48.24834" lon="7.35169">
        <ele>514</ele>
        <time>2000-01-02T04:13:25.000Z</time>
      </trkpt>
      <trkpt lat="48.24834" lon="7.35175">
        <ele>510.2</ele>
        <time>2000-01-02T04:13:35.000Z</time>
      </trkpt>
      <trkpt lat="48.24835" lon="7.35193">
        <ele>506.7</ele>
        <time>2000-01-02T04:13:45.000Z</time>
      </trkpt>
      <trkpt lat="48.24837" lon="7.35219">
        <ele>512</ele>
        <time>2000-01-02T04:13:55.000Z</time>
      </trkpt>
      <trkpt lat="48.24838" lon="7.35239">
        <ele>504.2</ele>
        <time>2000-01-02T04:14:05.000Z</time>
      </trkpt>
      <trkpt lat="48.2484" lon="7.35252">
        <ele>512</ele>
        <time>2000-01-02T04:14:15.000Z</time>
      </trkpt>
      <trkpt lat="48.24844" lon="7.35269">
        <ele>498.8</ele>
        <time>2000-01-02T04:14:25.000Z</time>
      </trkpt>
      <trkpt lat="48.24847" lon="7.35278">
        <ele>507</ele>
        <time>2000-01-02T04:14:35.000Z</time>
      </trkpt>
      <trkpt lat="48.2485" lon="7.35297">
        <ele>496</ele>
        <time>2000-01-02T04:14:45.000Z</time>
      </trkpt>
      <trkpt lat="48.24851" lon="7.35302">
        <ele>495.8</ele>
        <time>2000-01-02T04:14:55.000Z</time>
      </trkpt>
      <trkpt lat="48.24855" lon="7.35324">
        <ele>500</ele>
        <time>2000-01-02T04:15:05.000Z</time>
      </trkpt>
      <trkpt lat="48.24856" lon="7.35338">
        <ele>491.7</ele>
        <time>2000-01-02T04:15:15.000Z</time>
      </trkpt>
      <trkpt lat="48.24857" lon="7.35348">
        <ele>491</ele>
        <time>2000-01-02T04:15:25.000Z</time>
      </trkpt>
      <trkpt lat="48.24858" lon="7.35349">
        <ele>490.8</ele>
        <time>2000-01-02T04:15:35.000Z</time>
      </trkpt>
      <trkpt lat="48.24861" lon="7.35351">
        <ele>493</ele>
        <time>2000-01-02T04:15:45.000Z</time>
      </trkpt>
      <trkpt lat="48.24869" lon="7.35341">
        <ele>489.7</ele>
        <time>2000-01-02T04:15:55.000Z</time>
      </trkpt>
      <trkpt lat="48.24871" lon="7.35313">
        <ele>492</ele>
        <time>2000-01-02T04:16:05.000Z</time>
      </trkpt>
      <trkpt lat="48.24872" lon="7.35284">
        <ele>492</ele>
        <time>2000-01-02T04:16:15.000Z</time>
      </trkpt>
      <trkpt lat="48.24872" lon="7.35279">
        <ele>495</ele>
        <time>2000-01-02T04:16:25.000Z</time>
      </trkpt>
      <trkpt lat="48.24874" lon="7.35257">
        <ele>495.5</ele>
        <time>2000-01-02T04:16:35.000Z</time>
      </trkpt>
      <trkpt lat="48.24875" lon="7.35221">
        <ele>492</ele>
        <time>2000-01-02T04:16:45.000Z</time>
      </trkpt>
      <trkpt lat="48.24872" lon="7.35186">
        <ele>494</ele>
        <time>2000-01-02T04:16:55.000Z</time>
      </trkpt>
      <trkpt lat="48.24871" lon="7.35176">
        <ele>504.9</ele>
        <time>2000-01-02T04:17:05.000Z</time>
      </trkpt>
      <trkpt lat="48.24869" lon="7.35166">
        <ele>513.9</ele>
        <time>2000-01-02T04:17:15.000Z</time>
      </trkpt>
      <trkpt lat="48.2487" lon="7.35164">
        <ele>513.9</ele>
        <time>2000-01-02T04:17:25.000Z</time>
      </trkpt>
      <trkpt lat="48.24873" lon="7.35164">
        <ele>513.7</ele>
        <time>2000-01-02T04:17:35.000Z</time>
      </trkpt>
      <trkpt lat="48.24875" lon="7.35166">
        <ele>493</ele>
        <time>2000-01-02T04:17:45.000Z</time>
      </trkpt>
      <trkpt lat="48.24885" lon="7.35159">
        <ele>512.7</ele>
        <time>2000-01-02T04:17:55.000Z</time>
      </trkpt>
      <trkpt lat="48.24891" lon="7.35157">
        <ele>512</ele>
        <time>2000-01-02T04:18:05.000Z</time>
      </trkpt>
      <trkpt lat="48.24895" lon="7.35161">
        <ele>493</ele>
        <time>2000-01-02T04:18:15.000Z</time>
      </trkpt>
      <trkpt lat="48.24903" lon="7.3516">
        <ele>509.3</ele>
        <time>2000-01-02T04:18:25.000Z</time>
      </trkpt>
      <trkpt lat="48.24925" lon="7.35158">
        <ele>493</ele>
        <time>2000-01-02T04:18:35.000Z</time>
      </trkpt>
      <trkpt lat="48.24934" lon="7.35163">
        <ele>508.7</ele>
        <time>2000-01-02T04:18:45.000Z</time>
      </trkpt>
      <trkpt lat="48.24951" lon="7.35177">
        <ele>493</ele>
        <time>2000-01-02T04:18:55.000Z</time>
      </trkpt>
      <trkpt lat="48.24955" lon="7.35181">
        <ele>500.6</ele>
        <time>2000-01-02T04:19:05.000Z</time>
      </trkpt>
      <trkpt lat="48.24959" lon="7.35185">
        <ele>500.5</ele>
        <time>2000-01-02T04:19:15.000Z</time>
      </trkpt>
      <trkpt lat="48.2497" lon="7.35201">
        <ele>490</ele>
        <time>2000-01-02T04:19:25.000Z</time>
      </trkpt>
      <trkpt lat="48.24971" lon="7.35205">
        <ele>499.4</ele>
        <time>2000-01-02T04:19:35.000Z</time>
      </trkpt>
      <trkpt lat="48.24986" lon="7.35224">
        <ele>490</ele>
        <time>2000-01-02T04:19:45.000Z</time>
      </trkpt>
      <trkpt lat="48.24993" lon="7.35228">
        <ele>497.3</ele>
        <time>2000-01-02T04:19:55.000Z</time>
      </trkpt>
      <trkpt lat="48.24996" lon="7.3523">
        <ele>497</ele>
        <time>2000-01-02T04:20:05.000Z</time>
      </trkpt>
      <trkpt lat="48.25018" lon="7.35234">
        <ele>491</ele>
        <time>2000-01-02T04:20:15.000Z</time>
      </trkpt>
      <trkpt lat="48.25021" lon="7.35233">
        <ele>494.4</ele>
        <time>2000-01-02T04:20:25.000Z</time>
      </trkpt>
      <trkpt lat="48.25024" lon="7.35233">
        <ele>494.3</ele>
        <time>2000-01-02T04:20:35.000Z</time>
      </trkpt>
      <trkpt lat="48.2504" lon="7.35216">
        <ele>489</ele>
        <time>2000-01-02T04:20:45.000Z</time>
      </trkpt>
      <trkpt lat="48.25049" lon="7.35203">
        <ele>494.2</ele>
        <time>2000-01-02T04:20:55.000Z</time>
      </trkpt>
      <trkpt lat="48.2505" lon="7.35199">
        <ele>494.3</ele>
        <time>2000-01-02T04:21:05.000Z</time>
      </trkpt>
      <trkpt lat="48.25055" lon="7.35209">
        <ele>488</ele>
        <time>2000-01-02T04:21:15.000Z</time>
      </trkpt>
      <trkpt lat="48.25057" lon="7.35225">
        <ele>492.3</ele>
        <time>2000-01-02T04:21:25.000Z</time>
      </trkpt>
      <trkpt lat="48.25062" lon="7.35238">
        <ele>483</ele>
        <time>2000-01-02T04:21:35.000Z</time>
      </trkpt>
      <trkpt lat="48.25062" lon="7.3525">
        <ele>487.3</ele>
        <time>2000-01-02T04:21:45.000Z</time>
      </trkpt>
      <trkpt lat="48.25058" lon="7.35264">
        <ele>481</ele>
        <time>2000-01-02T04:21:55.000Z</time>
      </trkpt>
      <trkpt lat="48.25051" lon="7.35272">
        <ele>481.6</ele>
        <time>2000-01-02T04:22:05.000Z</time>
      </trkpt>
      <trkpt lat="48.2505" lon="7.35273">
        <ele>481.6</ele>
        <time>2000-01-02T04:22:15.000Z</time>
      </trkpt>
      <trkpt lat="48.25039" lon="7.3528">
        <ele>479</ele>
        <time>2000-01-02T04:22:25.000Z</time>
      </trkpt>
      <trkpt lat="48.25028" lon="7.35286">
        <ele>481.5</ele>
        <time>2000-01-02T04:22:35.000Z</time>
      </trkpt>
      <trkpt lat="48.25002" lon="7.35287">
        <ele>476</ele>
        <time>2000-01-02T04:22:45.000Z</time>
      </trkpt>
      <trkpt lat="48.24989" lon="7.35286">
        <ele>486.5</ele>
        <time>2000-01-02T04:22:55.000Z</time>
      </trkpt>
      <trkpt lat="48.24969" lon="7.35285">
        <ele>475</ele>
        <time>2000-01-02T04:23:05.000Z</time>
      </trkpt>
      <trkpt lat="48.24963" lon="7.35286">
        <ele>486.4</ele>
        <time>2000-01-02T04:23:15.000Z</time>
      </trkpt>
      <trkpt lat="48.24956" lon="7.35269">
        <ele>475</ele>
        <time>2000-01-02T04:23:25.000Z</time>
      </trkpt>
      <trkpt lat="48.24947" lon="7.35254">
        <ele>488.1</ele>
        <time>2000-01-02T04:23:35.000Z</time>
      </trkpt>
      <trkpt lat="48.24938" lon="7.35244">
        <ele>478</ele>
        <time>2000-01-02T04:23:45.000Z</time>
      </trkpt>
      <trkpt lat="48.24926" lon="7.3524">
        <ele>493.7</ele>
        <time>2000-01-02T04:23:55.000Z</time>
      </trkpt>
      <trkpt lat="48.24922" lon="7.35241">
        <ele>493</ele>
        <time>2000-01-02T04:24:05.000Z</time>
      </trkpt>
      <trkpt lat="48.24921" lon="7.35243">
        <ele>478</ele>
        <time>2000-01-02T04:24:15.000Z</time>
      </trkpt>
      <trkpt lat="48.24924" lon="7.35261">
        <ele>488.5</ele>
        <time>2000-01-02T04:24:25.000Z</time>
      </trkpt>
      <trkpt lat="48.24927" lon="7.35267">
        <ele>488</ele>
        <time>2000-01-02T04:24:35.000Z</time>
      </trkpt>
      <trkpt lat="48.24929" lon="7.35277">
        <ele>475</ele>
        <time>2000-01-02T04:24:45.000Z</time>
      </trkpt>
      <trkpt lat="48.24928" lon="7.35288">
        <ele>486.5</ele>
        <time>2000-01-02T04:24:55.000Z</time>
      </trkpt>
      <trkpt lat="48.24927" lon="7.35314">
        <ele>469</ele>
        <time>2000-01-02T04:25:05.000Z</time>
      </trkpt>
      <trkpt lat="48.24928" lon="7.35316">
        <ele>485</ele>
        <time>2000-01-02T04:25:15.000Z</time>
      </trkpt>
      <trkpt lat="48.2493" lon="7.35327">
        <ele>484.6</ele>
        <time>2000-01-02T04:25:25.000Z</time>
      </trkpt>
      <trkpt lat="48.24931" lon="7.3534">
        <ele>462</ele>
        <time>2000-01-02T04:25:35.000Z</time>
      </trkpt>
      <trkpt lat="48.24931" lon="7.35343">
        <ele>479</ele>
        <time>2000-01-02T04:25:45.000Z</time>
      </trkpt>
      <trkpt lat="48.24932" lon="7.35348">
        <ele>478.2</ele>
        <time>2000-01-02T04:25:55.000Z</time>
      </trkpt>
      <trkpt lat="48.2494" lon="7.35359">
        <ele>476.2</ele>
        <time>2000-01-02T04:26:05.000Z</time>
      </trkpt>
      <trkpt lat="48.24945" lon="7.35369">
        <ele>454</ele>
        <time>2000-01-02T04:26:15.000Z</time>
      </trkpt>
      <trkpt lat="48.24947" lon="7.3539">
        <ele>473.6</ele>
        <time>2000-01-02T04:26:25.000Z</time>
      </trkpt>
      <trkpt lat="48.24952" lon="7.35418">
        <ele>455</ele>
        <time>2000-01-02T04:26:35.000Z</time>
      </trkpt>
      <trkpt lat="48.24955" lon="7.35442">
        <ele>464.5</ele>
        <time>2000-01-02T04:26:45.000Z</time>
      </trkpt>
      <trkpt lat="48.24958" lon="7.35464">
        <ele>456</ele>
        <time>2000-01-02T04:26:55.000Z</time>
      </trkpt>
      <trkpt lat="48.24961" lon="7.35484">
        <ele>461.8</ele>
        <time>2000-01-02T04:27:05.000Z</time>
      </trkpt>
      <trkpt lat="48.24969" lon="7.35505">
        <ele>455</ele>
        <time>2000-01-02T04:27:15.000Z</time>
      </trkpt>
      <trkpt lat="48.24974" lon="7.35516">
        <ele>458</ele>
        <time>2000-01-02T04:27:25.000Z</time>
      </trkpt>
      <trkpt lat="48.24978" lon="7.35523">
        <ele>457.9</ele>
        <time>2000-01-02T04:27:35.000Z</time>
      </trkpt>
      <trkpt lat="48.24983" lon="7.35533">
        <ele>455</ele>
        <time>2000-01-02T04:27:45.000Z</time>
      </trkpt>
      <trkpt lat="48.24991" lon="7.35542">
        <ele>458</ele>
        <time>2000-01-02T04:27:55.000Z</time>
      </trkpt>
      <trkpt lat="48.25006" lon="7.35564">
        <ele>451</ele>
        <time>2000-01-02T04:28:05.000Z</time>
      </trkpt>
      <trkpt lat="48.25014" lon="7.35574">
        <ele>446.8</ele>
        <time>2000-01-02T04:28:15.000Z</time>
      </trkpt>
      <trkpt lat="48.25027" lon="7.35597">
        <ele>450</ele>
        <time>2000-01-02T04:28:25.000Z</time>
      </trkpt>
      <trkpt lat="48.2503" lon="7.35608">
        <ele>446.5</ele>
        <time>2000-01-02T04:28:35.000Z</time>
      </trkpt>
      <trkpt lat="48.25031" lon="7.35615">
        <ele>446.4</ele>
        <time>2000-01-02T04:28:45.000Z</time>
      </trkpt>
      <trkpt lat="48.25034" lon="7.35622">
        <ele>446.2</ele>
        <time>2000-01-02T04:28:55.000Z</time>
      </trkpt>
      <trkpt lat="48.25039" lon="7.3563">
        <ele>449</ele>
        <time>2000-01-02T04:29:05.000Z</time>
      </trkpt>
      <trkpt lat="48.25041" lon="7.35638">
        <ele>445.9</ele>
        <time>2000-01-02T04:29:15.000Z</time>
      </trkpt>
      <trkpt lat="48.25045" lon="7.35641">
        <ele>445.7</ele>
        <time>2000-01-02T04:29:25.000Z</time>
      </trkpt>
      <trkpt lat="48.25049" lon="7.35651">
        <ele>445.5</ele>
        <time>2000-01-02T04:29:35.000Z</time>
      </trkpt>
      <trkpt lat="48.25057" lon="7.35666">
        <ele>445</ele>
        <time>2000-01-02T04:29:45.000Z</time>
      </trkpt>
      <trkpt lat="48.25073" lon="7.35687">
        <ele>442</ele>
        <time>2000-01-02T04:29:55.000Z</time>
      </trkpt>
      <trkpt lat="48.25075" lon="7.35689">
        <ele>446</ele>
        <time>2000-01-02T04:30:05.000Z</time>
      </trkpt>
      <trkpt lat="48.25082" lon="7.35704">
        <ele>446.6</ele>
        <time>2000-01-02T04:30:15.000Z</time>
      </trkpt>
      <trkpt lat="48.25087" lon="7.35718">
        <ele>441</ele>
        <time>2000-01-02T04:30:25.000Z</time>
      </trkpt>
      <trkpt lat="48.25097" lon="7.35738">
        <ele>441.9</ele>
        <time>2000-01-02T04:30:35.000Z</time>
      </trkpt>
      <trkpt lat="48.2511" lon="7.35755">
        <ele>437</ele>
        <time>2000-01-02T04:30:45.000Z</time>
      </trkpt>
      <trkpt lat="48.25118" lon="7.35771">
        <ele>442.2</ele>
        <time>2000-01-02T04:30:55.000Z</time>
      </trkpt>
      <trkpt lat="48.25125" lon="7.35787">
        <ele>437</ele>
        <time>2000-01-02T04:31:05.000Z</time>
      </trkpt>
      <trkpt lat="48.25139" lon="7.35815">
        <ele>437</ele>
        <time>2000-01-02T04:31:15.000Z</time>
      </trkpt>
      <trkpt lat="48.25153" lon="7.35838">
        <ele>437</ele>
        <time>2000-01-02T04:31:25.000Z</time>
      </trkpt>
      <trkpt lat="48.25161" lon="7.35853">
        <ele>442.4</ele>
        <time>2000-01-02T04:31:35.000Z</time>
      </trkpt>
      <trkpt lat="48.25167" lon="7.35868">
        <ele>437</ele>
        <time>2000-01-02T04:31:45.000Z</time>
      </trkpt>
      <trkpt lat="48.25175" lon="7.35877">
        <ele>441.8</ele>
        <time>2000-01-02T04:31:55.000Z</time>
      </trkpt>
      <trkpt lat="48.25184" lon="7.35884">
        <ele>436</ele>
        <time>2000-01-02T04:32:05.000Z</time>
      </trkpt>
      <trkpt lat="48.25195" lon="7.35897">
        <ele>441.7</ele>
        <time>2000-01-02T04:32:15.000Z</time>
      </trkpt>
      <trkpt lat="48.25198" lon="7.35902">
        <ele>436</ele>
        <time>2000-01-02T04:32:25.000Z</time>
      </trkpt>
      <trkpt lat="48.25213" lon="7.35919">
        <ele>435</ele>
        <time>2000-01-02T04:32:35.000Z</time>
      </trkpt>
      <trkpt lat="48.25221" lon="7.35929">
        <ele>441.8</ele>
        <time>2000-01-02T04:32:45.000Z</time>
      </trkpt>
      <trkpt lat="48.25235" lon="7.35947">
        <ele>434</ele>
        <time>2000-01-02T04:32:55.000Z</time>
      </trkpt>
      <trkpt lat="48.25247" lon="7.35969">
        <ele>433</ele>
        <time>2000-01-02T04:33:05.000Z</time>
      </trkpt>
      <trkpt lat="48.25256" lon="7.3599">
        <ele>437.7</ele>
        <time>2000-01-02T04:33:15.000Z</time>
      </trkpt>
      <trkpt lat="48.25258" lon="7.35993">
        <ele>432</ele>
        <time>2000-01-02T04:33:25.000Z</time>
      </trkpt>
      <trkpt lat="48.25265" lon="7.36018">
        <ele>437</ele>
        <time>2000-01-02T04:33:35.000Z</time>
      </trkpt>
      <trkpt lat="48.25267" lon="7.36023">
        <ele>431</ele>
        <time>2000-01-02T04:33:45.000Z</time>
      </trkpt>
      <trkpt lat="48.25276" lon="7.36037">
        <ele>435.9</ele>
        <time>2000-01-02T04:33:55.000Z</time>
      </trkpt>
      <trkpt lat="48.25287" lon="7.36057">
        <ele>430</ele>
        <time>2000-01-02T04:34:05.000Z</time>
      </trkpt>
      <trkpt lat="48.25295" lon="7.36074">
        <ele>434.9</ele>
        <time>2000-01-02T04:34:15.000Z</time>
      </trkpt>
      <trkpt lat="48.25298" lon="7.36079">
        <ele>429</ele>
        <time>2000-01-02T04:34:25.000Z</time>
      </trkpt>
      <trkpt lat="48.25303" lon="7.36091">
        <ele>434.6</ele>
        <time>2000-01-02T04:34:35.000Z</time>
      </trkpt>
      <trkpt lat="48.25312" lon="7.36103">
        <ele>427</ele>
        <time>2000-01-02T04:34:45.000Z</time>
      </trkpt>
      <trkpt lat="48.25316" lon="7.36112">
        <ele>434.2</ele>
        <time>2000-01-02T04:34:55.000Z</time>
      </trkpt>
      <trkpt lat="48.25324" lon="7.36132">
        <ele>426</ele>
        <time>2000-01-02T04:35:05.000Z</time>
      </trkpt>
      <trkpt lat="48.25328" lon="7.36139">
        <ele>433.7</ele>
        <time>2000-01-02T04:35:15.000Z</time>
      </trkpt>
      <trkpt lat="48.25333" lon="7.36153">
        <ele>432.7</ele>
        <time>2000-01-02T04:35:25.000Z</time>
      </trkpt>
      <trkpt lat="48.25336" lon="7.36164">
        <ele>424</ele>
        <time>2000-01-02T04:35:35.000Z</time>
      </trkpt>
      <trkpt lat="48.25342" lon="7.36178">
        <ele>429.4</ele>
        <time>2000-01-02T04:35:45.000Z</time>
      </trkpt>
      <trkpt lat="48.25347" lon="7.36186">
        <ele>423</ele>
        <time>2000-01-02T04:35:55.000Z</time>
      </trkpt>
      <trkpt lat="48.25355" lon="7.362">
        <ele>428.2</ele>
        <time>2000-01-02T04:36:05.000Z</time>
      </trkpt>
      <trkpt lat="48.25366" lon="7.36224">
        <ele>420</ele>
        <time>2000-01-02T04:36:15.000Z</time>
      </trkpt>
      <trkpt lat="48.25374" lon="7.3625">
        <ele>420</ele>
        <time>2000-01-02T04:36:25.000Z</time>
      </trkpt>
      <trkpt lat="48.2538" lon="7.36262">
        <ele>428</ele>
        <time>2000-01-02T04:36:35.000Z</time>
      </trkpt>
      <trkpt lat="48.25384" lon="7.3627">
        <ele>427.8</ele>
        <time>2000-01-02T04:36:45.000Z</time>
      </trkpt>
      <trkpt lat="48.25391" lon="7.36288">
        <ele>418</ele>
        <time>2000-01-02T04:36:55.000Z</time>
      </trkpt>
      <trkpt lat="48.25391" lon="7.36291">
        <ele>427.8</ele>
        <time>2000-01-02T04:37:05.000Z</time>
      </trkpt>
      <trkpt lat="48.254" lon="7.3631">
        <ele>427.3</ele>
        <time>2000-01-02T04:37:15.000Z</time>
      </trkpt>
      <trkpt lat="48.25412" lon="7.36337">
        <ele>416</ele>
        <time>2000-01-02T04:37:25.000Z</time>
      </trkpt>
      <trkpt lat="48.25423" lon="7.36364">
        <ele>416</ele>
        <time>2000-01-02T04:37:35.000Z</time>
      </trkpt>
      <trkpt lat="48.25426" lon="7.36368">
        <ele>420</ele>
        <time>2000-01-02T04:37:45.000Z</time>
      </trkpt>
      <trkpt lat="48.25439" lon="7.36387">
        <ele>415</ele>
        <time>2000-01-02T04:37:55.000Z</time>
      </trkpt>
      <trkpt lat="48.25448" lon="7.36409">
        <ele>418.7</ele>
        <time>2000-01-02T04:38:05.000Z</time>
      </trkpt>
      <trkpt lat="48.25454" lon="7.36433">
        <ele>414</ele>
        <time>2000-01-02T04:38:15.000Z</time>
      </trkpt>
      <trkpt lat="48.25456" lon="7.36439">
        <ele>417.9</ele>
        <time>2000-01-02T04:38:25.000Z</time>
      </trkpt>
      <trkpt lat="48.25459" lon="7.36447">
        <ele>417.7</ele>
        <time>2000-01-02T04:38:35.000Z</time>
      </trkpt>
      <trkpt lat="48.2546" lon="7.3646">
        <ele>413</ele>
        <time>2000-01-02T04:38:45.000Z</time>
      </trkpt>
      <trkpt lat="48.25468" lon="7.36479">
        <ele>417.1</ele>
        <time>2000-01-02T04:38:55.000Z</time>
      </trkpt>
      <trkpt lat="48.2547" lon="7.36489">
        <ele>412</ele>
        <time>2000-01-02T04:39:05.000Z</time>
      </trkpt>
      <trkpt lat="48.25472" lon="7.36498">
        <ele>416.6</ele>
        <time>2000-01-02T04:39:15.000Z</time>
      </trkpt>
      <trkpt lat="48.25474" lon="7.3651">
        <ele>415.7</ele>
        <time>2000-01-02T04:39:25.000Z</time>
      </trkpt>
      <trkpt lat="48.25483" lon="7.36538">
        <ele>408</ele>
        <time>2000-01-02T04:39:35.000Z</time>
      </trkpt>
      <trkpt lat="48.2549" lon="7.36562">
        <ele>413.5</ele>
        <time>2000-01-02T04:39:45.000Z</time>
      </trkpt>
      <trkpt lat="48.25494" lon="7.36572">
        <ele>406</ele>
        <time>2000-01-02T04:39:55.000Z</time>
      </trkpt>
      <trkpt lat="48.25495" lon="7.36574">
        <ele>411.6</ele>
        <time>2000-01-02T04:40:05.000Z</time>
      </trkpt>
      <trkpt lat="48.25504" lon="7.36591">
        <ele>408</ele>
        <time>2000-01-02T04:40:15.000Z</time>
      </trkpt>
      <trkpt lat="48.25516" lon="7.36616">
        <ele>404</ele>
        <time>2000-01-02T04:40:25.000Z</time>
      </trkpt>
      <trkpt lat="48.25532" lon="7.36631">
        <ele>406</ele>
        <time>2000-01-02T04:40:35.000Z</time>
      </trkpt>
      <trkpt lat="48.25532" lon="7.36631">
        <ele>406</ele>
        <time>2000-01-02T04:40:45.000Z</time>
      </trkpt>
      <trkpt lat="48.25533" lon="7.36631">
        <ele>406</ele>
        <time>2000-01-02T04:40:55.000Z</time>
      </trkpt>
      <trkpt lat="48.25542" lon="7.36642">
        <ele>405.7</ele>
        <time>2000-01-02T04:41:05.000Z</time>
      </trkpt>
      <trkpt lat="48.25556" lon="7.36665">
        <ele>402</ele>
        <time>2000-01-02T04:41:15.000Z</time>
      </trkpt>
      <trkpt lat="48.25567" lon="7.36671">
        <ele>403.6</ele>
        <time>2000-01-02T04:41:25.000Z</time>
      </trkpt>
      <trkpt lat="48.25575" lon="7.36675">
        <ele>400</ele>
        <time>2000-01-02T04:41:35.000Z</time>
      </trkpt>
      <trkpt lat="48.25581" lon="7.36677">
        <ele>403.3</ele>
        <time>2000-01-02T04:41:45.000Z</time>
      </trkpt>
      <trkpt lat="48.25585" lon="7.36679">
        <ele>401.4</ele>
        <time>2000-01-02T04:41:55.000Z</time>
      </trkpt>
      <trkpt lat="48.25598" lon="7.36687">
        <ele>398</ele>
        <time>2000-01-02T04:42:05.000Z</time>
      </trkpt>
      <trkpt lat="48.25609" lon="7.36695">
        <ele>399.7</ele>
        <time>2000-01-02T04:42:15.000Z</time>
      </trkpt>
      <trkpt lat="48.25613" lon="7.36702">
        <ele>396</ele>
        <time>2000-01-02T04:42:25.000Z</time>
      </trkpt>
      <trkpt lat="48.25617" lon="7.3671">
        <ele>399.3</ele>
        <time>2000-01-02T04:42:35.000Z</time>
      </trkpt>
      <trkpt lat="48.25625" lon="7.36721">
        <ele>399</ele>
        <time>2000-01-02T04:42:45.000Z</time>
      </trkpt>
      <trkpt lat="48.25635" lon="7.36743">
        <ele>394</ele>
        <time>2000-01-02T04:42:55.000Z</time>
      </trkpt>
      <trkpt lat="48.25648" lon="7.36758">
        <ele>397.5</ele>
        <time>2000-01-02T04:43:05.000Z</time>
      </trkpt>
      <trkpt lat="48.25664" lon="7.36786">
        <ele>392</ele>
        <time>2000-01-02T04:43:15.000Z</time>
      </trkpt>
      <trkpt lat="48.25669" lon="7.36803">
        <ele>394.5</ele>
        <time>2000-01-02T04:43:25.000Z</time>
      </trkpt>
      <trkpt lat="48.25683" lon="7.36825">
        <ele>392</ele>
        <time>2000-01-02T04:43:35.000Z</time>
      </trkpt>
      <trkpt lat="48.25684" lon="7.36832">
        <ele>394.4</ele>
        <time>2000-01-02T04:43:45.000Z</time>
      </trkpt>
      <trkpt lat="48.25691" lon="7.36846">
        <ele>394.3</ele>
        <time>2000-01-02T04:43:55.000Z</time>
      </trkpt>
      <trkpt lat="48.25697" lon="7.3685">
        <ele>390</ele>
        <time>2000-01-02T04:44:05.000Z</time>
      </trkpt>
      <trkpt lat="48.25713" lon="7.36871">
        <ele>389</ele>
        <time>2000-01-02T04:44:15.000Z</time>
      </trkpt>
      <trkpt lat="48.2572" lon="7.36878">
        <ele>393.9</ele>
        <time>2000-01-02T04:44:25.000Z</time>
      </trkpt>
      <trkpt lat="48.25725" lon="7.36884">
        <ele>393.9</ele>
        <time>2000-01-02T04:44:35.000Z</time>
      </trkpt>
      <trkpt lat="48.25729" lon="7.36893">
        <ele>388</ele>
        <time>2000-01-02T04:44:45.000Z</time>
      </trkpt>
      <trkpt lat="48.25736" lon="7.36907">
        <ele>394</ele>
        <time>2000-01-02T04:44:55.000Z</time>
      </trkpt>
      <trkpt lat="48.25744" lon="7.36926">
        <ele>387</ele>
        <time>2000-01-02T04:45:05.000Z</time>
      </trkpt>
      <trkpt lat="48.25749" lon="7.36937">
        <ele>392.8</ele>
        <time>2000-01-02T04:45:15.000Z</time>
      </trkpt>
      <trkpt lat="48.25753" lon="7.36945">
        <ele>392.7</ele>
        <time>2000-01-02T04:45:25.000Z</time>
      </trkpt>
      <trkpt lat="48.25766" lon="7.36958">
        <ele>386</ele>
        <time>2000-01-02T04:45:35.000Z</time>
      </trkpt>
      <trkpt lat="48.25773" lon="7.36966">
        <ele>392.2</ele>
        <time>2000-01-02T04:45:45.000Z</time>
      </trkpt>
      <trkpt lat="48.2578" lon="7.36973">
        <ele>392.2</ele>
        <time>2000-01-02T04:45:55.000Z</time>
      </trkpt>
      <trkpt lat="48.25784" lon="7.3698">
        <ele>386</ele>
        <time>2000-01-02T04:46:05.000Z</time>
      </trkpt>
      <trkpt lat="48.25795" lon="7.36989">
        <ele>392.2</ele>
        <time>2000-01-02T04:46:15.000Z</time>
      </trkpt>
      <trkpt lat="48.25813" lon="7.3698">
        <ele>386</ele>
        <time>2000-01-02T04:46:25.000Z</time>
      </trkpt>
      <trkpt lat="48.25832" lon="7.36969">
        <ele>385</ele>
        <time>2000-01-02T04:46:35.000Z</time>
      </trkpt>
      <trkpt lat="48.2585" lon="7.36959">
        <ele>384</ele>
        <time>2000-01-02T04:46:45.000Z</time>
      </trkpt>
      <trkpt lat="48.25867" lon="7.36954">
        <ele>390.9</ele>
        <time>2000-01-02T04:46:55.000Z</time>
      </trkpt>
      <trkpt lat="48.25883" lon="7.36951">
        <ele>382</ele>
        <time>2000-01-02T04:47:05.000Z</time>
      </trkpt>
      <trkpt lat="48.25896" lon="7.36951">
        <ele>390.1</ele>
        <time>2000-01-02T04:47:15.000Z</time>
      </trkpt>
      <trkpt lat="48.25915" lon="7.36947">
        <ele>382</ele>
        <time>2000-01-02T04:47:25.000Z</time>
      </trkpt>
      <trkpt lat="48.25928" lon="7.36948">
        <ele>386.7</ele>
        <time>2000-01-02T04:47:35.000Z</time>
      </trkpt>
      <trkpt lat="48.25945" lon="7.36954">
        <ele>382</ele>
        <time>2000-01-02T04:47:45.000Z</time>
      </trkpt>
      <trkpt lat="48.25964" lon="7.3696">
        <ele>382</ele>
        <time>2000-01-02T04:47:55.000Z</time>
      </trkpt>
      <trkpt lat="48.25974" lon="7.36962">
        <ele>386</ele>
        <time>2000-01-02T04:48:05.000Z</time>
      </trkpt>
      <trkpt lat="48.25987" lon="7.36964">
        <ele>382</ele>
        <time>2000-01-02T04:48:15.000Z</time>
      </trkpt>
      <trkpt lat="48.26003" lon="7.36958">
        <ele>379.7</ele>
        <time>2000-01-02T04:48:25.000Z</time>
      </trkpt>
      <trkpt lat="48.26013" lon="7.36954">
        <ele>382</ele>
        <time>2000-01-02T04:48:35.000Z</time>
      </trkpt>
      <trkpt lat="48.26022" lon="7.36953">
        <ele>378.5</ele>
        <time>2000-01-02T04:48:45.000Z</time>
      </trkpt>
      <trkpt lat="48.26038" lon="7.36967">
        <ele>382</ele>
        <time>2000-01-02T04:48:55.000Z</time>
      </trkpt>
      <trkpt lat="48.26042" lon="7.36976">
        <ele>378</ele>
        <time>2000-01-02T04:49:05.000Z</time>
      </trkpt>
      <trkpt lat="48.26047" lon="7.36991">
        <ele>383</ele>
        <time>2000-01-02T04:49:15.000Z</time>
      </trkpt>
      <trkpt lat="48.26048" lon="7.36998">
        <ele>377.9</ele>
        <time>2000-01-02T04:49:25.000Z</time>
      </trkpt>
      <trkpt lat="48.26049" lon="7.37015">
        <ele>380.7</ele>
        <time>2000-01-02T04:49:35.000Z</time>
      </trkpt>
      <trkpt lat="48.26047" lon="7.37031">
        <ele>385</ele>
        <time>2000-01-02T04:49:45.000Z</time>
      </trkpt>
      <trkpt lat="48.26042" lon="7.37051">
        <ele>381.8</ele>
        <time>2000-01-02T04:49:55.000Z</time>
      </trkpt>
      <trkpt lat="48.26042" lon="7.3707">
        <ele>386</ele>
        <time>2000-01-02T04:50:05.000Z</time>
      </trkpt>
      <trkpt lat="48.26045" lon="7.37081">
        <ele>381.7</ele>
        <time>2000-01-02T04:50:15.000Z</time>
      </trkpt>
      <trkpt lat="48.26045" lon="7.37086">
        <ele>383</ele>
        <time>2000-01-02T04:50:25.000Z</time>
      </trkpt>
      <trkpt lat="48.26043" lon="7.37102">
        <ele>387</ele>
        <time>2000-01-02T04:50:35.000Z</time>
      </trkpt>
      <trkpt lat="48.26041" lon="7.37117">
        <ele>383.7</ele>
        <time>2000-01-02T04:50:45.000Z</time>
      </trkpt>
      <trkpt lat="48.26042" lon="7.37126">
        <ele>383.7</ele>
        <time>2000-01-02T04:50:55.000Z</time>
      </trkpt>
      <trkpt lat="48.26043" lon="7.37136">
        <ele>388</ele>
        <time>2000-01-02T04:51:05.000Z</time>
      </trkpt>
      <trkpt lat="48.26039" lon="7.37159">
        <ele>384.4</ele>
        <time>2000-01-02T04:51:15.000Z</time>
      </trkpt>
      <trkpt lat="48.26038" lon="7.3717">
        <ele>389</ele>
        <time>2000-01-02T04:51:25.000Z</time>
      </trkpt>
      <trkpt lat="48.26038" lon="7.37182">
        <ele>387.5</ele>
        <time>2000-01-02T04:51:35.000Z</time>
      </trkpt>
      <trkpt lat="48.26035" lon="7.37204">
        <ele>390</ele>
        <time>2000-01-02T04:51:45.000Z</time>
      </trkpt>
      <trkpt lat="48.26037" lon="7.37211">
        <ele>388.5</ele>
        <time>2000-01-02T04:51:55.000Z</time>
      </trkpt>
      <trkpt lat="48.26039" lon="7.3723">
        <ele>391</ele>
        <time>2000-01-02T04:52:05.000Z</time>
      </trkpt>
      <trkpt lat="48.26042" lon="7.37258">
        <ele>391</ele>
        <time>2000-01-02T04:52:15.000Z</time>
      </trkpt>
      <trkpt lat="48.26047" lon="7.37268">
        <ele>392.6</ele>
        <time>2000-01-02T04:52:25.000Z</time>
      </trkpt>
      <trkpt lat="48.26052" lon="7.37304">
        <ele>392</ele>
        <time>2000-01-02T04:52:35.000Z</time>
      </trkpt>
      <trkpt lat="48.26053" lon="7.37308">
        <ele>393.4</ele>
        <time>2000-01-02T04:52:45.000Z</time>
      </trkpt>
      <trkpt lat="48.2605" lon="7.37325">
        <ele>393.7</ele>
        <time>2000-01-02T04:52:55.000Z</time>
      </trkpt>
      <trkpt lat="48.26052" lon="7.37353">
        <ele>393</ele>
        <time>2000-01-02T04:53:05.000Z</time>
      </trkpt>
      <trkpt lat="48.26061" lon="7.37378">
        <ele>393</ele>
        <time>2000-01-02T04:53:15.000Z</time>
      </trkpt>
      <trkpt lat="48.26071" lon="7.37402">
        <ele>394</ele>
        <time>2000-01-02T04:53:25.000Z</time>
      </trkpt>
      <trkpt lat="48.2607" lon="7.37409">
        <ele>396.2</ele>
        <time>2000-01-02T04:53:35.000Z</time>
      </trkpt>
      <trkpt lat="48.26068" lon="7.37413">
        <ele>396.2</ele>
        <time>2000-01-02T04:53:45.000Z</time>
      </trkpt>
      <trkpt lat="48.26066" lon="7.37419">
        <ele>396.6</ele>
        <time>2000-01-02T04:53:55.000Z</time>
      </trkpt>
      <trkpt lat="48.2606" lon="7.37438">
        <ele>396</ele>
        <time>2000-01-02T04:54:05.000Z</time>
      </trkpt>
      <trkpt lat="48.26059" lon="7.37442">
        <ele>396.5</ele>
        <time>2000-01-02T04:54:15.000Z</time>
      </trkpt>
      <trkpt lat="48.26061" lon="7.37453">
        <ele>396.5</ele>
        <time>2000-01-02T04:54:25.000Z</time>
      </trkpt>
      <trkpt lat="48.26076" lon="7.3747">
        <ele>396</ele>
        <time>2000-01-02T04:54:35.000Z</time>
      </trkpt>
      <trkpt lat="48.26091" lon="7.37483">
        <ele>398.4</ele>
        <time>2000-01-02T04:54:45.000Z</time>
      </trkpt>
      <trkpt lat="48.26096" lon="7.37488">
        <ele>396</ele>
        <time>2000-01-02T04:54:55.000Z</time>
      </trkpt>
      <trkpt lat="48.26103" lon="7.37495">
        <ele>398.5</ele>
        <time>2000-01-02T04:55:05.000Z</time>
      </trkpt>
      <trkpt lat="48.26109" lon="7.37499">
        <ele>398.6</ele>
        <time>2000-01-02T04:55:15.000Z</time>
      </trkpt>
      <trkpt lat="48.26116" lon="7.37503">
        <ele>397</ele>
        <time>2000-01-02T04:55:25.000Z</time>
      </trkpt>
      <trkpt lat="48.26129" lon="7.37511">
        <ele>399.4</ele>
        <time>2000-01-02T04:55:35.000Z</time>
      </trkpt>
      <trkpt lat="48.26139" lon="7.37532">
        <ele>398</ele>
        <time>2000-01-02T04:55:45.000Z</time>
      </trkpt>
      <trkpt lat="48.26142" lon="7.37546">
        <ele>399.7</ele>
        <time>2000-01-02T04:55:55.000Z</time>
      </trkpt>
      <trkpt lat="48.26153" lon="7.37583">
        <ele>398</ele>
        <time>2000-01-02T04:56:05.000Z</time>
      </trkpt>
      <trkpt lat="48.26154" lon="7.376">
        <ele>400.4</ele>
        <time>2000-01-02T04:56:15.000Z</time>
      </trkpt>
      <trkpt lat="48.26156" lon="7.37638">
        <ele>399</ele>
        <time>2000-01-02T04:56:25.000Z</time>
      </trkpt>
      <trkpt lat="48.26157" lon="7.37666">
        <ele>399</ele>
        <time>2000-01-02T04:56:35.000Z</time>
      </trkpt>
      <trkpt lat="48.26154" lon="7.37699">
        <ele>399</ele>
        <time>2000-01-02T04:56:45.000Z</time>
      </trkpt>
      <trkpt lat="48.26154" lon="7.37719">
        <ele>399.5</ele>
        <time>2000-01-02T04:56:55.000Z</time>
      </trkpt>
      <trkpt lat="48.26152" lon="7.37746">
        <ele>400</ele>
        <time>2000-01-02T04:57:05.000Z</time>
      </trkpt>
      <trkpt lat="48.26151" lon="7.3777">
        <ele>398.6</ele>
        <time>2000-01-02T04:57:15.000Z</time>
      </trkpt>
      <trkpt lat="48.2615" lon="7.37789">
        <ele>400</ele>
        <time>2000-01-02T04:57:25.000Z</time>
      </trkpt>
      <trkpt lat="48.2615" lon="7.37822">
        <ele>400</ele>
        <time>2000-01-02T04:57:35.000Z</time>
      </trkpt>
      <trkpt lat="48.26151" lon="7.37837">
        <ele>396.6</ele>
        <time>2000-01-02T04:57:45.000Z</time>
      </trkpt>
      <trkpt lat="48.26156" lon="7.37864">
        <ele>400</ele>
        <time>2000-01-02T04:57:55.000Z</time>
      </trkpt>
      <trkpt lat="48.26163" lon="7.37874">
        <ele>393.1</ele>
        <time>2000-01-02T04:58:05.000Z</time>
      </trkpt>
      <trkpt lat="48.26181" lon="7.37888">
        <ele>400</ele>
        <time>2000-01-02T04:58:15.000Z</time>
      </trkpt>
      <trkpt lat="48.26195" lon="7.37903">
        <ele>402.9</ele>
        <time>2000-01-02T04:58:25.000Z</time>
      </trkpt>
      <trkpt lat="48.26202" lon="7.3791">
        <ele>399</ele>
        <time>2000-01-02T04:58:35.000Z</time>
      </trkpt>
      <trkpt lat="48.26211" lon="7.37927">
        <ele>400</ele>
        <time>2000-01-02T04:58:45.000Z</time>
      </trkpt>
      <trkpt lat="48.26227" lon="7.37954">
        <ele>397</ele>
        <time>2000-01-02T04:58:55.000Z</time>
      </trkpt>
      <trkpt lat="48.26235" lon="7.37962">
        <ele>400.7</ele>
        <time>2000-01-02T04:59:05.000Z</time>
      </trkpt>
      <trkpt lat="48.26252" lon="7.37978">
        <ele>400</ele>
        <time>2000-01-02T04:59:15.000Z</time>
      </trkpt>
      <trkpt lat="48.2627" lon="7.3799">
        <ele>399</ele>
        <time>2000-01-02T04:59:25.000Z</time>
      </trkpt>
      <trkpt lat="48.26272" lon="7.38011">
        <ele>412.9</ele>
        <time>2000-01-02T04:59:35.000Z</time>
      </trkpt>
      <trkpt lat="48.26257" lon="7.38029">
        <ele>399</ele>
        <time>2000-01-02T04:59:45.000Z</time>
      </trkpt>
      <trkpt lat="48.26244" lon="7.38035">
        <ele>403.1</ele>
        <time>2000-01-02T04:59:55.000Z</time>
      </trkpt>
      <trkpt lat="48.26226" lon="7.38038">
        <ele>394</ele>
        <time>2000-01-02T05:00:05.000Z</time>
      </trkpt>
      <trkpt lat="48.26212" lon="7.38045">
        <ele>402</ele>
        <time>2000-01-02T05:00:15.000Z</time>
      </trkpt>
      <trkpt lat="48.26208" lon="7.3805">
        <ele>395</ele>
        <time>2000-01-02T05:00:25.000Z</time>
      </trkpt>
      <trkpt lat="48.262" lon="7.38058">
        <ele>402.2</ele>
        <time>2000-01-02T05:00:35.000Z</time>
      </trkpt>
      <trkpt lat="48.26183" lon="7.38067">
        <ele>395</ele>
        <time>2000-01-02T05:00:45.000Z</time>
      </trkpt>
      <trkpt lat="48.26163" lon="7.38066">
        <ele>395</ele>
        <time>2000-01-02T05:00:55.000Z</time>
      </trkpt>
      <trkpt lat="48.26154" lon="7.38067">
        <ele>396.8</ele>
        <time>2000-01-02T05:01:05.000Z</time>
      </trkpt>
      <trkpt lat="48.26136" lon="7.38069">
        <ele>393</ele>
        <time>2000-01-02T05:01:15.000Z</time>
      </trkpt>
      <trkpt lat="48.26118" lon="7.38074">
        <ele>393</ele>
        <time>2000-01-02T05:01:25.000Z</time>
      </trkpt>
      <trkpt lat="48.26099" lon="7.38081">
        <ele>393</ele>
        <time>2000-01-02T05:01:35.000Z</time>
      </trkpt>
      <trkpt lat="48.26078" lon="7.38091">
        <ele>393</ele>
        <time>2000-01-02T05:01:45.000Z</time>
      </trkpt>
      <trkpt lat="48.26065" lon="7.38109">
        <ele>396.3</ele>
        <time>2000-01-02T05:01:55.000Z</time>
      </trkpt>
      <trkpt lat="48.26057" lon="7.3813">
        <ele>393</ele>
        <time>2000-01-02T05:02:05.000Z</time>
      </trkpt>
      <trkpt lat="48.26043" lon="7.3814">
        <ele>397.5</ele>
        <time>2000-01-02T05:02:15.000Z</time>
      </trkpt>
      <trkpt lat="48.26041" lon="7.3814">
        <ele>397.4</ele>
        <time>2000-01-02T05:02:25.000Z</time>
      </trkpt>
      <trkpt lat="48.26026" lon="7.38137">
        <ele>392</ele>
        <time>2000-01-02T05:02:35.000Z</time>
      </trkpt>
      <trkpt lat="48.26002" lon="7.38137">
        <ele>392</ele>
        <time>2000-01-02T05:02:45.000Z</time>
      </trkpt>
      <trkpt lat="48.25982" lon="7.38149">
        <ele>392</ele>
        <time>2000-01-02T05:02:55.000Z</time>
      </trkpt>
      <trkpt lat="48.25968" lon="7.38163">
        <ele>385</ele>
        <time>2000-01-02T05:03:05.000Z</time>
      </trkpt>
      <trkpt lat="48.25962" lon="7.38178">
        <ele>392</ele>
        <time>2000-01-02T05:03:15.000Z</time>
      </trkpt>
      <trkpt lat="48.25958" lon="7.38204">
        <ele>389.1</ele>
        <time>2000-01-02T05:03:25.000Z</time>
      </trkpt>
      <trkpt lat="48.25964" lon="7.38238">
        <ele>391</ele>
        <time>2000-01-02T05:03:35.000Z</time>
      </trkpt>
      <trkpt lat="48.25967" lon="7.38248">
        <ele>391.7</ele>
        <time>2000-01-02T05:03:45.000Z</time>
      </trkpt>
      <trkpt lat="48.25975" lon="7.38272">
        <ele>391</ele>
        <time>2000-01-02T05:03:55.000Z</time>
      </trkpt>
      <trkpt lat="48.25982" lon="7.38293">
        <ele>389.4</ele>
        <time>2000-01-02T05:04:05.000Z</time>
      </trkpt>
      <trkpt lat="48.25994" lon="7.38314">
        <ele>391</ele>
        <time>2000-01-02T05:04:15.000Z</time>
      </trkpt>
      <trkpt lat="48.26002" lon="7.38324">
        <ele>397.4</ele>
        <time>2000-01-02T05:04:25.000Z</time>
      </trkpt>
      <trkpt lat="48.2601" lon="7.38341">
        <ele>392</ele>
        <time>2000-01-02T05:04:35.000Z</time>
      </trkpt>
      <trkpt lat="48.26018" lon="7.38359">
        <ele>396.4</ele>
        <time>2000-01-02T05:04:45.000Z</time>
      </trkpt>
      <trkpt lat="48.2602" lon="7.3836">
        <ele>396.5</ele>
        <time>2000-01-02T05:04:55.000Z</time>
      </trkpt>
      <trkpt lat="48.26033" lon="7.38378">
        <ele>391</ele>
        <time>2000-01-02T05:05:05.000Z</time>
      </trkpt>
      <trkpt lat="48.26036" lon="7.38388">
        <ele>396.7</ele>
        <time>2000-01-02T05:05:15.000Z</time>
      </trkpt>
      <trkpt lat="48.26041" lon="7.38401">
        <ele>396.9</ele>
        <time>2000-01-02T05:05:25.000Z</time>
      </trkpt>
      <trkpt lat="48.26044" lon="7.38419">
        <ele>390</ele>
        <time>2000-01-02T05:05:35.000Z</time>
      </trkpt>
      <trkpt lat="48.26048" lon="7.38452">
        <ele>384</ele>
        <time>2000-01-02T05:05:45.000Z</time>
      </trkpt>
      <trkpt lat="48.26053" lon="7.38463">
        <ele>387.9</ele>
        <time>2000-01-02T05:05:55.000Z</time>
      </trkpt>
      <trkpt lat="48.26063" lon="7.38491">
        <ele>383</ele>
        <time>2000-01-02T05:06:05.000Z</time>
      </trkpt>
      <trkpt lat="48.26072" lon="7.38515">
        <ele>380</ele>
        <time>2000-01-02T05:06:15.000Z</time>
      </trkpt>
      <trkpt lat="48.26089" lon="7.38533">
        <ele>380</ele>
        <time>2000-01-02T05:06:25.000Z</time>
      </trkpt>
      <trkpt lat="48.26096" lon="7.3855">
        <ele>387</ele>
        <time>2000-01-02T05:06:35.000Z</time>
      </trkpt>
      <trkpt lat="48.26102" lon="7.38563">
        <ele>376</ele>
        <time>2000-01-02T05:06:45.000Z</time>
      </trkpt>
      <trkpt lat="48.26112" lon="7.38574">
        <ele>385.6</ele>
        <time>2000-01-02T05:06:55.000Z</time>
      </trkpt>
      <trkpt lat="48.26117" lon="7.38585">
        <ele>373</ele>
        <time>2000-01-02T05:07:05.000Z</time>
      </trkpt>
      <trkpt lat="48.26124" lon="7.38597">
        <ele>374.1</ele>
        <time>2000-01-02T05:07:15.000Z</time>
      </trkpt>
      <trkpt lat="48.26127" lon="7.38602">
        <ele>374.1</ele>
        <time>2000-01-02T05:07:25.000Z</time>
      </trkpt>
      <trkpt lat="48.26132" lon="7.38607">
        <ele>371</ele>
        <time>2000-01-02T05:07:35.000Z</time>
      </trkpt>
      <trkpt lat="48.26137" lon="7.38616">
        <ele>373.8</ele>
        <time>2000-01-02T05:07:45.000Z</time>
      </trkpt>
      <trkpt lat="48.26141" lon="7.38623">
        <ele>373.2</ele>
        <time>2000-01-02T05:07:55.000Z</time>
      </trkpt>
      <trkpt lat="48.26147" lon="7.38633">
        <ele>364</ele>
        <time>2000-01-02T05:08:05.000Z</time>
      </trkpt>
      <trkpt lat="48.2616" lon="7.38648">
        <ele>371.6</ele>
        <time>2000-01-02T05:08:15.000Z</time>
      </trkpt>
      <trkpt lat="48.26165" lon="7.38657">
        <ele>362</ele>
        <time>2000-01-02T05:08:25.000Z</time>
      </trkpt>
      <trkpt lat="48.26165" lon="7.3866">
        <ele>371.1</ele>
        <time>2000-01-02T05:08:35.000Z</time>
      </trkpt>
      <trkpt lat="48.26172" lon="7.38669">
        <ele>369.3</ele>
        <time>2000-01-02T05:08:45.000Z</time>
      </trkpt>
      <trkpt lat="48.2618" lon="7.38675">
        <ele>357</ele>
        <time>2000-01-02T05:08:55.000Z</time>
      </trkpt>
      <trkpt lat="48.26189" lon="7.38683">
        <ele>365.5</ele>
        <time>2000-01-02T05:09:05.000Z</time>
      </trkpt>
      <trkpt lat="48.26195" lon="7.38684">
        <ele>365.2</ele>
        <time>2000-01-02T05:09:15.000Z</time>
      </trkpt>
      <trkpt lat="48.26203" lon="7.38683">
        <ele>357</ele>
        <time>2000-01-02T05:09:25.000Z</time>
      </trkpt>
      <trkpt lat="48.26212" lon="7.38683">
        <ele>365.7</ele>
        <time>2000-01-02T05:09:35.000Z</time>
      </trkpt>
      <trkpt lat="48.26218" lon="7.38684">
        <ele>366</ele>
        <time>2000-01-02T05:09:45.000Z</time>
      </trkpt>
      <trkpt lat="48.26223" lon="7.38683">
        <ele>357</ele>
        <time>2000-01-02T05:09:55.000Z</time>
      </trkpt>
      <trkpt lat="48.26226" lon="7.38682">
        <ele>367.1</ele>
        <time>2000-01-02T05:10:05.000Z</time>
      </trkpt>
      <trkpt lat="48.26237" lon="7.38679">
        <ele>369.4</ele>
        <time>2000-01-02T05:10:15.000Z</time>
      </trkpt>
      <trkpt lat="48.26244" lon="7.38677">
        <ele>360</ele>
        <time>2000-01-02T05:10:25.000Z</time>
      </trkpt>
      <trkpt lat="48.26258" lon="7.38673">
        <ele>375.7</ele>
        <time>2000-01-02T05:10:35.000Z</time>
      </trkpt>
      <trkpt lat="48.26261" lon="7.38673">
        <ele>375.6</ele>
        <time>2000-01-02T05:10:45.000Z</time>
      </trkpt>
      <trkpt lat="48.26273" lon="7.38681">
        <ele>360</ele>
        <time>2000-01-02T05:10:55.000Z</time>
      </trkpt>
      <trkpt lat="48.26278" lon="7.38698">
        <ele>373.3</ele>
        <time>2000-01-02T05:11:05.000Z</time>
      </trkpt>
      <trkpt lat="48.26275" lon="7.387">
        <ele>372.8</ele>
        <time>2000-01-02T05:11:15.000Z</time>
      </trkpt>
      <trkpt lat="48.2627" lon="7.38694">
        <ele>356</ele>
        <time>2000-01-02T05:11:25.000Z</time>
      </trkpt>
      <trkpt lat="48.26268" lon="7.38693">
        <ele>373.4</ele>
        <time>2000-01-02T05:11:35.000Z</time>
      </trkpt>
      <trkpt lat="48.26267" lon="7.38693">
        <ele>373.4</ele>
        <time>2000-01-02T05:11:45.000Z</time>
      </trkpt>
      <trkpt lat="48.26259" lon="7.387">
        <ele>371.9</ele>
        <time>2000-01-02T05:11:55.000Z</time>
      </trkpt>
      <trkpt lat="48.26257" lon="7.38704">
        <ele>371</ele>
        <time>2000-01-02T05:12:05.000Z</time>
      </trkpt>
      <trkpt lat="48.26255" lon="7.38711">
        <ele>350</ele>
        <time>2000-01-02T05:12:15.000Z</time>
      </trkpt>
      <trkpt lat="48.26251" lon="7.38717">
        <ele>367.6</ele>
        <time>2000-01-02T05:12:25.000Z</time>
      </trkpt>
      <trkpt lat="48.26247" lon="7.38727">
        <ele>358.6</ele>
        <time>2000-01-02T05:12:35.000Z</time>
      </trkpt>
      <trkpt lat="48.26246" lon="7.38728">
        <ele>358.3</ele>
        <time>2000-01-02T05:12:45.000Z</time>
      </trkpt>
      <trkpt lat="48.26241" lon="7.38738">
        <ele>341</ele>
        <time>2000-01-02T05:12:55.000Z</time>
      </trkpt>
      <trkpt lat="48.26232" lon="7.38755">
        <ele>346.7</ele>
        <time>2000-01-02T05:13:05.000Z</time>
      </trkpt>
      <trkpt lat="48.26225" lon="7.3877">
        <ele>333</ele>
        <time>2000-01-02T05:13:15.000Z</time>
      </trkpt>
      <trkpt lat="48.26222" lon="7.38785">
        <ele>343</ele>
        <time>2000-01-02T05:13:25.000Z</time>
      </trkpt>
      <trkpt lat="48.26221" lon="7.38795">
        <ele>341.9</ele>
        <time>2000-01-02T05:13:35.000Z</time>
      </trkpt>
      <trkpt lat="48.26222" lon="7.38799">
        <ele>327</ele>
        <time>2000-01-02T05:13:45.000Z</time>
      </trkpt>
      <trkpt lat="48.2622" lon="7.38805">
        <ele>340.9</ele>
        <time>2000-01-02T05:13:55.000Z</time>
      </trkpt>
      <trkpt lat="48.26218" lon="7.38815">
        <ele>340</ele>
        <time>2000-01-02T05:14:05.000Z</time>
      </trkpt>
      <trkpt lat="48.26212" lon="7.38832">
        <ele>323</ele>
        <time>2000-01-02T05:14:15.000Z</time>
      </trkpt>
      <trkpt lat="48.26209" lon="7.38842">
        <ele>328</ele>
        <time>2000-01-02T05:14:25.000Z</time>
      </trkpt>
      <trkpt lat="48.26206" lon="7.38847">
        <ele>327.7</ele>
        <time>2000-01-02T05:14:35.000Z</time>
      </trkpt>
      <trkpt lat="48.26204" lon="7.38852">
        <ele>327.3</ele>
        <time>2000-01-02T05:14:45.000Z</time>
      </trkpt>
      <trkpt lat="48.26204" lon="7.38857">
        <ele>322</ele>
        <time>2000-01-02T05:14:55.000Z</time>
      </trkpt>
      <trkpt lat="48.262" lon="7.38864">
        <ele>326.2</ele>
        <time>2000-01-02T05:15:05.000Z</time>
      </trkpt>
      <trkpt lat="48.26195" lon="7.38872">
        <ele>325.4</ele>
        <time>2000-01-02T05:15:15.000Z</time>
      </trkpt>
      <trkpt lat="48.26185" lon="7.38885">
        <ele>319</ele>
        <time>2000-01-02T05:15:25.000Z</time>
      </trkpt>
      <trkpt lat="48.26181" lon="7.38893">
        <ele>322.7</ele>
        <time>2000-01-02T05:15:35.000Z</time>
      </trkpt>
      <trkpt lat="48.26176" lon="7.389">
        <ele>321.4</ele>
        <time>2000-01-02T05:15:45.000Z</time>
      </trkpt>
      <trkpt lat="48.26166" lon="7.38899">
        <ele>318</ele>
        <time>2000-01-02T05:15:55.000Z</time>
      </trkpt>
      <trkpt lat="48.26161" lon="7.38895">
        <ele>317.5</ele>
        <time>2000-01-02T05:16:05.000Z</time>
      </trkpt>
      <trkpt lat="48.26155" lon="7.38892">
        <ele>317.5</ele>
        <time>2000-01-02T05:16:15.000Z</time>
      </trkpt>
      <trkpt lat="48.26145" lon="7.38881">
        <ele>317</ele>
        <time>2000-01-02T05:16:25.000Z</time>
      </trkpt>
      <trkpt lat="48.26132" lon="7.38868">
        <ele>318</ele>
        <time>2000-01-02T05:16:35.000Z</time>
      </trkpt>
      <trkpt lat="48.2613" lon="7.38867">
        <ele>317</ele>
        <time>2000-01-02T05:16:45.000Z</time>
      </trkpt>
      <trkpt lat="48.26118" lon="7.38847">
        <ele>317.9</ele>
        <time>2000-01-02T05:16:55.000Z</time>
      </trkpt>
      <trkpt lat="48.26113" lon="7.38838">
        <ele>316</ele>
        <time>2000-01-02T05:17:05.000Z</time>
      </trkpt>
      <trkpt lat="48.26106" lon="7.38824">
        <ele>326.1</ele>
        <time>2000-01-02T05:17:15.000Z</time>
      </trkpt>
      <trkpt lat="48.26095" lon="7.38819">
        <ele>316</ele>
        <time>2000-01-02T05:17:25.000Z</time>
      </trkpt>
      <trkpt lat="48.26087" lon="7.38806">
        <ele>326.6</ele>
        <time>2000-01-02T05:17:35.000Z</time>
      </trkpt>
      <trkpt lat="48.26079" lon="7.38797">
        <ele>313</ele>
        <time>2000-01-02T05:17:45.000Z</time>
      </trkpt>
      <trkpt lat="48.26075" lon="7.38793">
        <ele>316.2</ele>
        <time>2000-01-02T05:17:55.000Z</time>
      </trkpt>
      <trkpt lat="48.26055" lon="7.38771">
        <ele>313</ele>
        <time>2000-01-02T05:18:05.000Z</time>
      </trkpt>
      <trkpt lat="48.26049" lon="7.38764">
        <ele>316.8</ele>
        <time>2000-01-02T05:18:15.000Z</time>
      </trkpt>
      <trkpt lat="48.26038" lon="7.38746">
        <ele>313</ele>
        <time>2000-01-02T05:18:25.000Z</time>
      </trkpt>
      <trkpt lat="48.26024" lon="7.38731">
        <ele>324.9</ele>
        <time>2000-01-02T05:18:35.000Z</time>
      </trkpt>
      <trkpt lat="48.2602" lon="7.38726">
        <ele>313</ele>
        <time>2000-01-02T05:18:45.000Z</time>
      </trkpt>
      <trkpt lat="48.26007" lon="7.38711">
        <ele>326</ele>
        <time>2000-01-02T05:18:55.000Z</time>
      </trkpt>
      <trkpt lat="48.26006" lon="7.3871">
        <ele>326.1</ele>
        <time>2000-01-02T05:19:05.000Z</time>
      </trkpt>
      <trkpt lat="48.26002" lon="7.38703">
        <ele>314</ele>
        <time>2000-01-02T05:19:15.000Z</time>
      </trkpt>
      <trkpt lat="48.26" lon="7.387">
        <ele>316</ele>
        <time>2000-01-02T05:19:25.000Z</time>
      </trkpt>
      <trkpt lat="48.25992" lon="7.38689">
        <ele>317.8</ele>
        <time>2000-01-02T05:19:35.000Z</time>
      </trkpt>
      <trkpt lat="48.25986" lon="7.38681">
        <ele>314</ele>
        <time>2000-01-02T05:19:45.000Z</time>
      </trkpt>
      <trkpt lat="48.2598" lon="7.38676">
        <ele>318.2</ele>
        <time>2000-01-02T05:19:55.000Z</time>
      </trkpt>
      <trkpt lat="48.25975" lon="7.38667">
        <ele>317.7</ele>
        <time>2000-01-02T05:20:05.000Z</time>
      </trkpt>
      <trkpt lat="48.2596" lon="7.38649">
        <ele>317</ele>
        <time>2000-01-02T05:20:15.000Z</time>
      </trkpt>
      <trkpt lat="48.25955" lon="7.38637">
        <ele>325.9</ele>
        <time>2000-01-02T05:20:25.000Z</time>
      </trkpt>
      <trkpt lat="48.2595" lon="7.38625">
        <ele>317</ele>
        <time>2000-01-02T05:20:35.000Z</time>
      </trkpt>
      <trkpt lat="48.25944" lon="7.38616">
        <ele>326.6</ele>
        <time>2000-01-02T05:20:45.000Z</time>
      </trkpt>
      <trkpt lat="48.25934" lon="7.38604">
        <ele>316</ele>
        <time>2000-01-02T05:20:55.000Z</time>
      </trkpt>
      <trkpt lat="48.25923" lon="7.38595">
        <ele>325.9</ele>
        <time>2000-01-02T05:21:05.000Z</time>
      </trkpt>
      <trkpt lat="48.25911" lon="7.38585">
        <ele>316</ele>
        <time>2000-01-02T05:21:15.000Z</time>
      </trkpt>
      <trkpt lat="48.25906" lon="7.3858">
        <ele>324.6</ele>
        <time>2000-01-02T05:21:25.000Z</time>
      </trkpt>
      <trkpt lat="48.25898" lon="7.3857">
        <ele>324.4</ele>
        <time>2000-01-02T05:21:35.000Z</time>
      </trkpt>
      <trkpt lat="48.25887" lon="7.38555">
        <ele>314</ele>
        <time>2000-01-02T05:21:45.000Z</time>
      </trkpt>
      <trkpt lat="48.25886" lon="7.38554">
        <ele>324.4</ele>
        <time>2000-01-02T05:21:55.000Z</time>
      </trkpt>
      <trkpt lat="48.25883" lon="7.38548">
        <ele>324.7</ele>
        <time>2000-01-02T05:22:05.000Z</time>
      </trkpt>
      <trkpt lat="48.25863" lon="7.38533">
        <ele>312</ele>
        <time>2000-01-02T05:22:15.000Z</time>
      </trkpt>
      <trkpt lat="48.25855" lon="7.3853">
        <ele>323.9</ele>
        <time>2000-01-02T05:22:25.000Z</time>
      </trkpt>
      <trkpt lat="48.25844" lon="7.3852">
        <ele>309</ele>
        <time>2000-01-02T05:22:35.000Z</time>
      </trkpt>
      <trkpt lat="48.25822" lon="7.38504">
        <ele>309</ele>
        <time>2000-01-02T05:22:45.000Z</time>
      </trkpt>
      <trkpt lat="48.25818" lon="7.38496">
        <ele>323.8</ele>
        <time>2000-01-02T05:22:55.000Z</time>
      </trkpt>
      <trkpt lat="48.25815" lon="7.38493">
        <ele>323.5</ele>
        <time>2000-01-02T05:23:05.000Z</time>
      </trkpt>
      <trkpt lat="48.2581" lon="7.38485">
        <ele>323.3</ele>
        <time>2000-01-02T05:23:15.000Z</time>
      </trkpt>
      <trkpt lat="48.25806" lon="7.38482">
        <ele>311</ele>
        <time>2000-01-02T05:23:25.000Z</time>
      </trkpt>
      <trkpt lat="48.25798" lon="7.38476">
        <ele>322.5</ele>
        <time>2000-01-02T05:23:35.000Z</time>
      </trkpt>
      <trkpt lat="48.2578" lon="7.38463">
        <ele>312</ele>
        <time>2000-01-02T05:23:45.000Z</time>
      </trkpt>
      <trkpt lat="48.25776" lon="7.38457">
        <ele>321.6</ele>
        <time>2000-01-02T05:23:55.000Z</time>
      </trkpt>
      <trkpt lat="48.25774" lon="7.38455">
        <ele>321.5</ele>
        <time>2000-01-02T05:24:05.000Z</time>
      </trkpt>
      <trkpt lat="48.25765" lon="7.38448">
        <ele>310</ele>
        <time>2000-01-02T05:24:15.000Z</time>
      </trkpt>
      <trkpt lat="48.25748" lon="7.38435">
        <ele>309</ele>
        <time>2000-01-02T05:24:25.000Z</time>
      </trkpt>
      <trkpt lat="48.25734" lon="7.38419">
        <ele>313.8</ele>
        <time>2000-01-02T05:24:35.000Z</time>
      </trkpt>
      <trkpt lat="48.25727" lon="7.38407">
        <ele>307</ele>
        <time>2000-01-02T05:24:45.000Z</time>
      </trkpt>
      <trkpt lat="48.25718" lon="7.38388">
        <ele>315.1</ele>
        <time>2000-01-02T05:24:55.000Z</time>
      </trkpt>
      <trkpt lat="48.25714" lon="7.38378">
        <ele>305</ele>
        <time>2000-01-02T05:25:05.000Z</time>
      </trkpt>
      <trkpt lat="48.2571" lon="7.38356">
        <ele>315.5</ele>
        <time>2000-01-02T05:25:15.000Z</time>
      </trkpt>
      <trkpt lat="48.25709" lon="7.38345">
        <ele>305</ele>
        <time>2000-01-02T05:25:25.000Z</time>
      </trkpt>
      <trkpt lat="48.25706" lon="7.38315">
        <ele>307</ele>
        <time>2000-01-02T05:25:35.000Z</time>
      </trkpt>
      <trkpt lat="48.25702" lon="7.38289">
        <ele>306</ele>
        <time>2000-01-02T05:25:45.000Z</time>
      </trkpt>
      <trkpt lat="48.25695" lon="7.38257">
        <ele>305</ele>
        <time>2000-01-02T05:25:55.000Z</time>
      </trkpt>
      <trkpt lat="48.25695" lon="7.3825">
        <ele>317.2</ele>
        <time>2000-01-02T05:26:05.000Z</time>
      </trkpt>
      <trkpt lat="48.25696" lon="7.38236">
        <ele>318.9</ele>
        <time>2000-01-02T05:26:15.000Z</time>
      </trkpt>
      <trkpt lat="48.25699" lon="7.38207">
        <ele>305</ele>
        <time>2000-01-02T05:26:25.000Z</time>
      </trkpt>
      <trkpt lat="48.25702" lon="7.38189">
        <ele>320.7</ele>
        <time>2000-01-02T05:26:35.000Z</time>
      </trkpt>
      <trkpt lat="48.25702" lon="7.38187">
        <ele>320.7</ele>
        <time>2000-01-02T05:26:45.000Z</time>
      </trkpt>
      <trkpt lat="48.25706" lon="7.38163">
        <ele>308</ele>
        <time>2000-01-02T05:26:55.000Z</time>
      </trkpt>
      <trkpt lat="48.25708" lon="7.38161">
        <ele>323.4</ele>
        <time>2000-01-02T05:27:05.000Z</time>
      </trkpt>
      <trkpt lat="48.25714" lon="7.38136">
        <ele>312</ele>
        <time>2000-01-02T05:27:15.000Z</time>
      </trkpt>
      <trkpt lat="48.25714" lon="7.38122">
        <ele>324.4</ele>
        <time>2000-01-02T05:27:25.000Z</time>
      </trkpt>
      <trkpt lat="48.25728" lon="7.38101">
        <ele>314</ele>
        <time>2000-01-02T05:27:35.000Z</time>
      </trkpt>
      <trkpt lat="48.2573" lon="7.38097">
        <ele>325.4</ele>
        <time>2000-01-02T05:27:45.000Z</time>
      </trkpt>
      <trkpt lat="48.25728" lon="7.38086">
        <ele>325.6</ele>
        <time>2000-01-02T05:27:55.000Z</time>
      </trkpt>
      <trkpt lat="48.25724" lon="7.38083">
        <ele>328.2</ele>
        <time>2000-01-02T05:28:05.000Z</time>
      </trkpt>
      <trkpt lat="48.25722" lon="7.38082">
        <ele>328.2</ele>
        <time>2000-01-02T05:28:15.000Z</time>
      </trkpt>
      <trkpt lat="48.25715" lon="7.38085">
        <ele>319</ele>
        <time>2000-01-02T05:28:25.000Z</time>
      </trkpt>
      <trkpt lat="48.2571" lon="7.38092">
        <ele>325</ele>
        <time>2000-01-02T05:28:35.000Z</time>
      </trkpt>
      <trkpt lat="48.25692" lon="7.38107">
        <ele>318</ele>
        <time>2000-01-02T05:28:45.000Z</time>
      </trkpt>
      <trkpt lat="48.25688" lon="7.38112">
        <ele>324.4</ele>
        <time>2000-01-02T05:28:55.000Z</time>
      </trkpt>
      <trkpt lat="48.25676" lon="7.38122">
        <ele>318</ele>
        <time>2000-01-02T05:29:05.000Z</time>
      </trkpt>
      <trkpt lat="48.25667" lon="7.38132">
        <ele>323.1</ele>
        <time>2000-01-02T05:29:15.000Z</time>
      </trkpt>
      <trkpt lat="48.25664" lon="7.38137">
        <ele>317.6</ele>
        <time>2000-01-02T05:29:25.000Z</time>
      </trkpt>
      <trkpt lat="48.25657" lon="7.38151">
        <ele>309</ele>
        <time>2000-01-02T05:29:35.000Z</time>
      </trkpt>
      <trkpt lat="48.25653" lon="7.38158">
        <ele>317.3</ele>
        <time>2000-01-02T05:29:45.000Z</time>
      </trkpt>
      <trkpt lat="48.25639" lon="7.38177">
        <ele>306</ele>
        <time>2000-01-02T05:29:55.000Z</time>
      </trkpt>
      <trkpt lat="48.25632" lon="7.38181">
        <ele>311.1</ele>
        <time>2000-01-02T05:30:05.000Z</time>
      </trkpt>
      <trkpt lat="48.2563" lon="7.38181">
        <ele>310.9</ele>
        <time>2000-01-02T05:30:15.000Z</time>
      </trkpt>
      <trkpt lat="48.25623" lon="7.38186">
        <ele>310</ele>
        <time>2000-01-02T05:30:25.000Z</time>
      </trkpt>
      <trkpt lat="48.25619" lon="7.38194">
        <ele>304</ele>
        <time>2000-01-02T05:30:35.000Z</time>
      </trkpt>
      <trkpt lat="48.25622" lon="7.38214">
        <ele>308.8</ele>
        <time>2000-01-02T05:30:45.000Z</time>
      </trkpt>
      <trkpt lat="48.25619" lon="7.38225">
        <ele>300</ele>
        <time>2000-01-02T05:30:55.000Z</time>
      </trkpt>
      <trkpt lat="48.25616" lon="7.38234">
        <ele>307.2</ele>
        <time>2000-01-02T05:31:05.000Z</time>
      </trkpt>
      <trkpt lat="48.25611" lon="7.3826">
        <ele>296</ele>
        <time>2000-01-02T05:31:15.000Z</time>
      </trkpt>
      <trkpt lat="48.2561" lon="7.38264">
        <ele>302.4</ele>
        <time>2000-01-02T05:31:25.000Z</time>
      </trkpt>
      <trkpt lat="48.25608" lon="7.38282">
        <ele>302.2</ele>
        <time>2000-01-02T05:31:35.000Z</time>
      </trkpt>
      <trkpt lat="48.25612" lon="7.38303">
        <ele>293</ele>
        <time>2000-01-02T05:31:45.000Z</time>
      </trkpt>
      <trkpt lat="48.25614" lon="7.38308">
        <ele>301.8</ele>
        <time>2000-01-02T05:31:55.000Z</time>
      </trkpt>
      <trkpt lat="48.25615" lon="7.38323">
        <ele>301.3</ele>
        <time>2000-01-02T05:32:05.000Z</time>
      </trkpt>
      <trkpt lat="48.25616" lon="7.38343">
        <ele>291</ele>
        <time>2000-01-02T05:32:15.000Z</time>
      </trkpt>
      <trkpt lat="48.25616" lon="7.38356">
        <ele>298.4</ele>
        <time>2000-01-02T05:32:25.000Z</time>
      </trkpt>
      <trkpt lat="48.25614" lon="7.38367">
        <ele>298.1</ele>
        <time>2000-01-02T05:32:35.000Z</time>
      </trkpt>
      <trkpt lat="48.25613" lon="7.38403">
        <ele>289</ele>
        <time>2000-01-02T05:32:45.000Z</time>
      </trkpt>
      <trkpt lat="48.25614" lon="7.38406">
        <ele>296.9</ele>
        <time>2000-01-02T05:32:55.000Z</time>
      </trkpt>
      <trkpt lat="48.25612" lon="7.38426">
        <ele>294.7</ele>
        <time>2000-01-02T05:33:05.000Z</time>
      </trkpt>
      <trkpt lat="48.25611" lon="7.3845">
        <ele>287</ele>
        <time>2000-01-02T05:33:15.000Z</time>
      </trkpt>
      <trkpt lat="48.25609" lon="7.38468">
        <ele>294.6</ele>
        <time>2000-01-02T05:33:25.000Z</time>
      </trkpt>
      <trkpt lat="48.25608" lon="7.38483">
        <ele>287</ele>
        <time>2000-01-02T05:33:35.000Z</time>
      </trkpt>
      <trkpt lat="48.25606" lon="7.38498">
        <ele>293.7</ele>
        <time>2000-01-02T05:33:45.000Z</time>
      </trkpt>
      <trkpt lat="48.25603" lon="7.38521">
        <ele>287</ele>
        <time>2000-01-02T05:33:55.000Z</time>
      </trkpt>
      <trkpt lat="48.25598" lon="7.38548">
        <ele>289</ele>
        <time>2000-01-02T05:34:05.000Z</time>
      </trkpt>
      <trkpt lat="48.25595" lon="7.3856">
        <ele>293.6</ele>
        <time>2000-01-02T05:34:15.000Z</time>
      </trkpt>
      <trkpt lat="48.25595" lon="7.38573">
        <ele>293.7</ele>
        <time>2000-01-02T05:34:25.000Z</time>
      </trkpt>
      <trkpt lat="48.25596" lon="7.3858">
        <ele>291</ele>
        <time>2000-01-02T05:34:35.000Z</time>
      </trkpt>
      <trkpt lat="48.25596" lon="7.38581">
        <ele>293.8</ele>
        <time>2000-01-02T05:34:45.000Z</time>
      </trkpt>
      <trkpt lat="48.25603" lon="7.38582">
        <ele>293.7</ele>
        <time>2000-01-02T05:34:55.000Z</time>
      </trkpt>
      <trkpt lat="48.25607" lon="7.38582">
        <ele>293.6</ele>
        <time>2000-01-02T05:35:05.000Z</time>
      </trkpt>
      <trkpt lat="48.25616" lon="7.38581">
        <ele>290</ele>
        <time>2000-01-02T05:35:15.000Z</time>
      </trkpt>
      <trkpt lat="48.25635" lon="7.38583">
        <ele>290</ele>
        <time>2000-01-02T05:35:25.000Z</time>
      </trkpt>
      <trkpt lat="48.25643" lon="7.38589">
        <ele>291.2</ele>
        <time>2000-01-02T05:35:35.000Z</time>
      </trkpt>
      <trkpt lat="48.25649" lon="7.386">
        <ele>287</ele>
        <time>2000-01-02T05:35:45.000Z</time>
      </trkpt>
      <trkpt lat="48.25651" lon="7.38602">
        <ele>290.9</ele>
        <time>2000-01-02T05:35:55.000Z</time>
      </trkpt>
      <trkpt lat="48.25652" lon="7.38603">
        <ele>290.9</ele>
        <time>2000-01-02T05:36:05.000Z</time>
      </trkpt>
      <trkpt lat="48.25655" lon="7.38611">
        <ele>290.6</ele>
        <time>2000-01-02T05:36:15.000Z</time>
      </trkpt>
      <trkpt lat="48.25658" lon="7.38619">
        <ele>290.2</ele>
        <time>2000-01-02T05:36:25.000Z</time>
      </trkpt>
      <trkpt lat="48.25665" lon="7.38632">
        <ele>280</ele>
        <time>2000-01-02T05:36:35.000Z</time>
      </trkpt>
      <trkpt lat="48.25667" lon="7.38644">
        <ele>285.6</ele>
        <time>2000-01-02T05:36:45.000Z</time>
      </trkpt>
      <trkpt lat="48.25671" lon="7.38674">
        <ele>280</ele>
        <time>2000-01-02T05:36:55.000Z</time>
      </trkpt>
      <trkpt lat="48.25672" lon="7.38679">
        <ele>280.5</ele>
        <time>2000-01-02T05:37:05.000Z</time>
      </trkpt>
      <trkpt lat="48.25668" lon="7.38692">
        <ele>278.3</ele>
        <time>2000-01-02T05:37:15.000Z</time>
      </trkpt>
      <trkpt lat="48.25659" lon="7.38716">
        <ele>275</ele>
        <time>2000-01-02T05:37:25.000Z</time>
      </trkpt>
      <trkpt lat="48.2566" lon="7.38723">
        <ele>279.5</ele>
        <time>2000-01-02T05:37:35.000Z</time>
      </trkpt>
      <trkpt lat="48.25664" lon="7.38723">
        <ele>279.4</ele>
        <time>2000-01-02T05:37:45.000Z</time>
      </trkpt>
      <trkpt lat="48.25667" lon="7.38722">
        <ele>275.1</ele>
        <time>2000-01-02T05:37:55.000Z</time>
      </trkpt>
      <trkpt lat="48.25671" lon="7.38719">
        <ele>275.2</ele>
        <time>2000-01-02T05:38:05.000Z</time>
      </trkpt>
      <trkpt lat="48.25671" lon="7.38716">
        <ele>271</ele>
        <time>2000-01-02T05:38:15.000Z</time>
      </trkpt>
      <trkpt lat="48.25673" lon="7.38723">
        <ele>274.9</ele>
        <time>2000-01-02T05:38:25.000Z</time>
      </trkpt>
      <trkpt lat="48.25673" lon="7.38725">
        <ele>274.8</ele>
        <time>2000-01-02T05:38:35.000Z</time>
      </trkpt>
      <trkpt lat="48.25671" lon="7.38733">
        <ele>274.4</ele>
        <time>2000-01-02T05:38:45.000Z</time>
      </trkpt>
      <trkpt lat="48.2567" lon="7.3874">
        <ele>274.2</ele>
        <time>2000-01-02T05:38:55.000Z</time>
      </trkpt>
      <trkpt lat="48.25668" lon="7.38745">
        <ele>270</ele>
        <time>2000-01-02T05:39:05.000Z</time>
      </trkpt>
      <trkpt lat="48.25665" lon="7.38754">
        <ele>272.8</ele>
        <time>2000-01-02T05:39:15.000Z</time>
      </trkpt>
      <trkpt lat="48.25666" lon="7.3876">
        <ele>271.6</ele>
        <time>2000-01-02T05:39:25.000Z</time>
      </trkpt>
      <trkpt lat="48.25672" lon="7.38765">
        <ele>267.9</ele>
        <time>2000-01-02T05:39:35.000Z</time>
      </trkpt>
      <trkpt lat="48.25674" lon="7.38767">
        <ele>263</ele>
        <time>2000-01-02T05:39:45.000Z</time>
      </trkpt>
      <trkpt lat="48.25676" lon="7.38779">
        <ele>264.6</ele>
        <time>2000-01-02T05:39:55.000Z</time>
      </trkpt>
      <trkpt lat="48.25673" lon="7.3879">
        <ele>262.8</ele>
        <time>2000-01-02T05:40:05.000Z</time>
      </trkpt>
      <trkpt lat="48.2567" lon="7.38796">
        <ele>256</ele>
        <time>2000-01-02T05:40:15.000Z</time>
      </trkpt>
      <trkpt lat="48.25663" lon="7.38814">
        <ele>261.7</ele>
        <time>2000-01-02T05:40:25.000Z</time>
      </trkpt>
      <trkpt lat="48.25659" lon="7.38821">
        <ele>256</ele>
        <time>2000-01-02T05:40:35.000Z</time>
      </trkpt>
      <trkpt lat="48.25649" lon="7.3884">
        <ele>252</ele>
        <time>2000-01-02T05:40:45.000Z</time>
      </trkpt>
      <trkpt lat="48.25646" lon="7.38844">
        <ele>252</ele>
        <time>2000-01-02T05:40:55.000Z</time>
      </trkpt>
      <trkpt lat="48.25646" lon="7.38856">
        <ele>250.3</ele>
        <time>2000-01-02T05:41:05.000Z</time>
      </trkpt>
      <trkpt lat="48.25652" lon="7.38868">
        <ele>246</ele>
        <time>2000-01-02T05:41:15.000Z</time>
      </trkpt>
      <trkpt lat="48.25656" lon="7.38872">
        <ele>248.2</ele>
        <time>2000-01-02T05:41:25.000Z</time>
      </trkpt>
      <trkpt lat="48.2566" lon="7.38875">
        <ele>247.6</ele>
        <time>2000-01-02T05:41:35.000Z</time>
      </trkpt>
      <trkpt lat="48.25661" lon="7.3888">
        <ele>246.8</ele>
        <time>2000-01-02T05:41:45.000Z</time>
      </trkpt>
      <trkpt lat="48.25668" lon="7.38896">
        <ele>240</ele>
        <time>2000-01-02T05:41:55.000Z</time>
      </trkpt>
      <trkpt lat="48.25673" lon="7.38911">
        <ele>240.2</ele>
        <time>2000-01-02T05:42:05.000Z</time>
      </trkpt>
      <trkpt lat="48.25675" lon="7.38924">
        <ele>236</ele>
        <time>2000-01-02T05:42:15.000Z</time>
      </trkpt>
      <trkpt lat="48.25676" lon="7.38939">
        <ele>237.9</ele>
        <time>2000-01-02T05:42:25.000Z</time>
      </trkpt>
      <trkpt lat="48.25671" lon="7.38959">
        <ele>233</ele>
        <time>2000-01-02T05:42:35.000Z</time>
      </trkpt>
      <trkpt lat="48.25664" lon="7.3898">
        <ele>233.8</ele>
        <time>2000-01-02T05:42:45.000Z</time>
      </trkpt>
      <trkpt lat="48.25652" lon="7.39">
        <ele>230</ele>
        <time>2000-01-02T05:42:55.000Z</time>
      </trkpt>
      <trkpt lat="48.25641" lon="7.39016">
        <ele>230.1</ele>
        <time>2000-01-02T05:43:05.000Z</time>
      </trkpt>
      <trkpt lat="48.25639" lon="7.39033">
        <ele>228</ele>
        <time>2000-01-02T05:43:15.000Z</time>
      </trkpt>
      <trkpt lat="48.25639" lon="7.39063">
        <ele>228</ele>
        <time>2000-01-02T05:43:25.000Z</time>
      </trkpt>
      <trkpt lat="48.25639" lon="7.39084">
        <ele>226.1</ele>
        <time>2000-01-02T05:43:35.000Z</time>
      </trkpt>
      <trkpt lat="48.25641" lon="7.39124">
        <ele>224</ele>
        <time>2000-01-02T05:43:45.000Z</time>
      </trkpt>
      <trkpt lat="48.25644" lon="7.3915">
        <ele>224.6</ele>
        <time>2000-01-02T05:43:55.000Z</time>
      </trkpt>
      <trkpt lat="48.25645" lon="7.39184">
        <ele>222</ele>
        <time>2000-01-02T05:44:05.000Z</time>
      </trkpt>
      <trkpt lat="48.25646" lon="7.39211">
        <ele>221.5</ele>
        <time>2000-01-02T05:44:15.000Z</time>
      </trkpt>
      <trkpt lat="48.25656" lon="7.39233">
        <ele>222</ele>
        <time>2000-01-02T05:44:25.000Z</time>
      </trkpt>
      <trkpt lat="48.25668" lon="7.39255">
        <ele>222</ele>
        <time>2000-01-02T05:44:35.000Z</time>
      </trkpt>
      <trkpt lat="48.2568" lon="7.3928">
        <ele>221</ele>
        <time>2000-01-02T05:44:45.000Z</time>
      </trkpt>
      <trkpt lat="48.25692" lon="7.39302">
        <ele>220</ele>
        <time>2000-01-02T05:44:55.000Z</time>
      </trkpt>
      <trkpt lat="48.25699" lon="7.39318">
        <ele>219</ele>
        <time>2000-01-02T05:45:05.000Z</time>
      </trkpt>
      <trkpt lat="48.25711" lon="7.39347">
        <ele>219</ele>
        <time>2000-01-02T05:45:15.000Z</time>
      </trkpt>
      <trkpt lat="48.25721" lon="7.39372">
        <ele>218</ele>
        <time>2000-01-02T05:45:25.000Z</time>
      </trkpt>
      <trkpt lat="48.25721" lon="7.39405">
        <ele>217</ele>
        <time>2000-01-02T05:45:35.000Z</time>
      </trkpt>
      <trkpt lat="48.25715" lon="7.39445">
        <ele>215</ele>
        <time>2000-01-02T05:45:45.000Z</time>
      </trkpt>
      <trkpt lat="48.25709" lon="7.39474">
        <ele>214</ele>
        <time>2000-01-02T05:45:55.000Z</time>
      </trkpt>
      <trkpt lat="48.25707" lon="7.39487">
        <ele>211.5</ele>
        <time>2000-01-02T05:46:05.000Z</time>
      </trkpt>
      <trkpt lat="48.25706" lon="7.39515">
        <ele>213</ele>
        <time>2000-01-02T05:46:15.000Z</time>
      </trkpt>
      <trkpt lat="48.25702" lon="7.39538">
        <ele>209.7</ele>
        <time>2000-01-02T05:46:25.000Z</time>
      </trkpt>
      <trkpt lat="48.257" lon="7.39538">
        <ele>213</ele>
        <time>2000-01-02T05:46:35.000Z</time>
      </trkpt>
    </trkseg>
  </trk>
</gpx>